<?xml version="1.0" encoding="UTF-8" standalone="no" ?>
<gpx xmlns="http://www.topografix.com/GPX/1/1" xmlns:xsi="http://www.w3.org/2001/XMLSchema-instance" xsi:schemaLocation="http://www.topografix.com/GPX/1/1 http://www.topografix.com/GPX/1/1/gpx.xsd" version="1.1" creator="VisuGPX - https://www.visugpx.com">
  <metadata>
    <name>VELO ROUTE AVEC DIDIER ARCHI</name>
    <desc><![CDATA[VELO ROUTE DU 15/07/2018 AVEC DIDIER ARCHI]]></desc>
  </metadata>
  <trk>
    <name><![CDATA[2018-07-15-07-47-36 on GPSies.com]]></name>
    <trkseg>
      <trkpt lat="43.95313" lon="1.86921">
        <ele>258</ele>
        <time>2018-07-15T07:47:36Z</time>
      </trkpt>
      <trkpt lat="43.95314" lon="1.86923">
        <ele>258</ele>
        <time>2018-07-15T07:47:37Z</time>
      </trkpt>
      <trkpt lat="43.95316" lon="1.86924">
        <ele>258</ele>
        <time>2018-07-15T07:47:38Z</time>
      </trkpt>
      <trkpt lat="43.95318" lon="1.86925">
        <ele>258</ele>
        <time>2018-07-15T07:47:39Z</time>
      </trkpt>
      <trkpt lat="43.9532" lon="1.86926">
        <ele>258</ele>
        <time>2018-07-15T07:47:40Z</time>
      </trkpt>
      <trkpt lat="43.95323" lon="1.86927">
        <ele>258</ele>
        <time>2018-07-15T07:47:41Z</time>
      </trkpt>
      <trkpt lat="43.95325" lon="1.86929">
        <ele>258</ele>
        <time>2018-07-15T07:47:42Z</time>
      </trkpt>
      <trkpt lat="43.95328" lon="1.8693">
        <ele>259</ele>
        <time>2018-07-15T07:47:43Z</time>
      </trkpt>
      <trkpt lat="43.9533" lon="1.86933">
        <ele>259</ele>
        <time>2018-07-15T07:47:44Z</time>
      </trkpt>
      <trkpt lat="43.95332" lon="1.86935">
        <ele>259</ele>
        <time>2018-07-15T07:47:45Z</time>
      </trkpt>
      <trkpt lat="43.95335" lon="1.86938">
        <ele>259</ele>
        <time>2018-07-15T07:47:46Z</time>
      </trkpt>
      <trkpt lat="43.95337" lon="1.8694">
        <ele>259</ele>
        <time>2018-07-15T07:47:47Z</time>
      </trkpt>
      <trkpt lat="43.95339" lon="1.86943">
        <ele>259</ele>
        <time>2018-07-15T07:47:48Z</time>
      </trkpt>
      <trkpt lat="43.95341" lon="1.86946">
        <ele>259</ele>
        <time>2018-07-15T07:47:49Z</time>
      </trkpt>
      <trkpt lat="43.95343" lon="1.86949">
        <ele>259</ele>
        <time>2018-07-15T07:47:50Z</time>
      </trkpt>
      <trkpt lat="43.95345" lon="1.86952">
        <ele>259</ele>
        <time>2018-07-15T07:47:51Z</time>
      </trkpt>
      <trkpt lat="43.95347" lon="1.86955">
        <ele>259</ele>
        <time>2018-07-15T07:47:52Z</time>
      </trkpt>
      <trkpt lat="43.95349" lon="1.86958">
        <ele>259</ele>
        <time>2018-07-15T07:47:53Z</time>
      </trkpt>
      <trkpt lat="43.95351" lon="1.86961">
        <ele>259</ele>
        <time>2018-07-15T07:47:54Z</time>
      </trkpt>
      <trkpt lat="43.95353" lon="1.86965">
        <ele>259</ele>
        <time>2018-07-15T07:47:55Z</time>
      </trkpt>
      <trkpt lat="43.95355" lon="1.86967">
        <ele>259</ele>
        <time>2018-07-15T07:47:56Z</time>
      </trkpt>
      <trkpt lat="43.95358" lon="1.8697">
        <ele>259</ele>
        <time>2018-07-15T07:47:57Z</time>
      </trkpt>
      <trkpt lat="43.95361" lon="1.86972">
        <ele>259</ele>
        <time>2018-07-15T07:47:58Z</time>
      </trkpt>
      <trkpt lat="43.95364" lon="1.86974">
        <ele>259</ele>
        <time>2018-07-15T07:47:59Z</time>
      </trkpt>
      <trkpt lat="43.95367" lon="1.86977">
        <ele>259</ele>
        <time>2018-07-15T07:48:00Z</time>
      </trkpt>
      <trkpt lat="43.9537" lon="1.8698">
        <ele>259</ele>
        <time>2018-07-15T07:48:01Z</time>
      </trkpt>
      <trkpt lat="43.95373" lon="1.86984">
        <ele>259</ele>
        <time>2018-07-15T07:48:02Z</time>
      </trkpt>
      <trkpt lat="43.95371" lon="1.86982">
        <ele>259</ele>
        <time>2018-07-15T07:48:03Z</time>
      </trkpt>
      <trkpt lat="43.95375" lon="1.86984">
        <ele>259</ele>
        <time>2018-07-15T07:48:04Z</time>
      </trkpt>
      <trkpt lat="43.95379" lon="1.86987">
        <ele>259</ele>
        <time>2018-07-15T07:48:05Z</time>
      </trkpt>
      <trkpt lat="43.95382" lon="1.86989">
        <ele>259</ele>
        <time>2018-07-15T07:48:06Z</time>
      </trkpt>
      <trkpt lat="43.95386" lon="1.86992">
        <ele>260</ele>
        <time>2018-07-15T07:48:07Z</time>
      </trkpt>
      <trkpt lat="43.9539" lon="1.86995">
        <ele>260</ele>
        <time>2018-07-15T07:48:08Z</time>
      </trkpt>
      <trkpt lat="43.95393" lon="1.86998">
        <ele>259</ele>
        <time>2018-07-15T07:48:09Z</time>
      </trkpt>
      <trkpt lat="43.95397" lon="1.87001">
        <ele>259</ele>
        <time>2018-07-15T07:48:10Z</time>
      </trkpt>
      <trkpt lat="43.954" lon="1.87004">
        <ele>260</ele>
        <time>2018-07-15T07:48:11Z</time>
      </trkpt>
      <trkpt lat="43.95403" lon="1.87007">
        <ele>260</ele>
        <time>2018-07-15T07:48:12Z</time>
      </trkpt>
      <trkpt lat="43.95406" lon="1.8701">
        <ele>260</ele>
        <time>2018-07-15T07:48:13Z</time>
      </trkpt>
      <trkpt lat="43.95409" lon="1.87014">
        <ele>260</ele>
        <time>2018-07-15T07:48:14Z</time>
      </trkpt>
      <trkpt lat="43.95412" lon="1.87017">
        <ele>260</ele>
        <time>2018-07-15T07:48:15Z</time>
      </trkpt>
      <trkpt lat="43.95414" lon="1.87021">
        <ele>260</ele>
        <time>2018-07-15T07:48:16Z</time>
      </trkpt>
      <trkpt lat="43.95416" lon="1.87025">
        <ele>260</ele>
        <time>2018-07-15T07:48:17Z</time>
      </trkpt>
      <trkpt lat="43.95417" lon="1.87029">
        <ele>260</ele>
        <time>2018-07-15T07:48:18Z</time>
      </trkpt>
      <trkpt lat="43.95418" lon="1.87033">
        <ele>261</ele>
        <time>2018-07-15T07:48:19Z</time>
      </trkpt>
      <trkpt lat="43.95419" lon="1.87038">
        <ele>261</ele>
        <time>2018-07-15T07:48:20Z</time>
      </trkpt>
      <trkpt lat="43.95419" lon="1.87043">
        <ele>261</ele>
        <time>2018-07-15T07:48:21Z</time>
      </trkpt>
      <trkpt lat="43.95418" lon="1.87048">
        <ele>261</ele>
        <time>2018-07-15T07:48:22Z</time>
      </trkpt>
      <trkpt lat="43.95418" lon="1.87052">
        <ele>261</ele>
        <time>2018-07-15T07:48:23Z</time>
      </trkpt>
      <trkpt lat="43.95417" lon="1.87057">
        <ele>261</ele>
        <time>2018-07-15T07:48:24Z</time>
      </trkpt>
      <trkpt lat="43.95415" lon="1.87061">
        <ele>261</ele>
        <time>2018-07-15T07:48:25Z</time>
      </trkpt>
      <trkpt lat="43.95414" lon="1.87065">
        <ele>261</ele>
        <time>2018-07-15T07:48:26Z</time>
      </trkpt>
      <trkpt lat="43.95413" lon="1.87069">
        <ele>261</ele>
        <time>2018-07-15T07:48:27Z</time>
      </trkpt>
      <trkpt lat="43.95412" lon="1.87073">
        <ele>262</ele>
        <time>2018-07-15T07:48:28Z</time>
      </trkpt>
      <trkpt lat="43.95411" lon="1.87077">
        <ele>262</ele>
        <time>2018-07-15T07:48:29Z</time>
      </trkpt>
      <trkpt lat="43.9541" lon="1.87081">
        <ele>262</ele>
        <time>2018-07-15T07:48:30Z</time>
      </trkpt>
      <trkpt lat="43.95409" lon="1.87085">
        <ele>262</ele>
        <time>2018-07-15T07:48:31Z</time>
      </trkpt>
      <trkpt lat="43.95408" lon="1.87089">
        <ele>262</ele>
        <time>2018-07-15T07:48:32Z</time>
      </trkpt>
      <trkpt lat="43.95407" lon="1.87094">
        <ele>262</ele>
        <time>2018-07-15T07:48:33Z</time>
      </trkpt>
      <trkpt lat="43.95407" lon="1.87098">
        <ele>262</ele>
        <time>2018-07-15T07:48:34Z</time>
      </trkpt>
      <trkpt lat="43.95406" lon="1.87102">
        <ele>262</ele>
        <time>2018-07-15T07:48:35Z</time>
      </trkpt>
      <trkpt lat="43.95405" lon="1.87106">
        <ele>262</ele>
        <time>2018-07-15T07:48:36Z</time>
      </trkpt>
      <trkpt lat="43.95404" lon="1.8711">
        <ele>263</ele>
        <time>2018-07-15T07:48:37Z</time>
      </trkpt>
      <trkpt lat="43.95403" lon="1.87115">
        <ele>263</ele>
        <time>2018-07-15T07:48:38Z</time>
      </trkpt>
      <trkpt lat="43.95402" lon="1.87119">
        <ele>263</ele>
        <time>2018-07-15T07:48:39Z</time>
      </trkpt>
      <trkpt lat="43.95401" lon="1.87123">
        <ele>263</ele>
        <time>2018-07-15T07:48:40Z</time>
      </trkpt>
      <trkpt lat="43.95401" lon="1.87128">
        <ele>263</ele>
        <time>2018-07-15T07:48:41Z</time>
      </trkpt>
      <trkpt lat="43.954" lon="1.87132">
        <ele>263</ele>
        <time>2018-07-15T07:48:42Z</time>
      </trkpt>
      <trkpt lat="43.95399" lon="1.87137">
        <ele>263</ele>
        <time>2018-07-15T07:48:43Z</time>
      </trkpt>
      <trkpt lat="43.95398" lon="1.87141">
        <ele>263</ele>
        <time>2018-07-15T07:48:44Z</time>
      </trkpt>
      <trkpt lat="43.95398" lon="1.87146">
        <ele>263</ele>
        <time>2018-07-15T07:48:45Z</time>
      </trkpt>
      <trkpt lat="43.95397" lon="1.8715">
        <ele>263</ele>
        <time>2018-07-15T07:48:46Z</time>
      </trkpt>
      <trkpt lat="43.95396" lon="1.87155">
        <ele>263</ele>
        <time>2018-07-15T07:48:47Z</time>
      </trkpt>
      <trkpt lat="43.95395" lon="1.87159">
        <ele>264</ele>
        <time>2018-07-15T07:48:48Z</time>
      </trkpt>
      <trkpt lat="43.95394" lon="1.87164">
        <ele>264</ele>
        <time>2018-07-15T07:48:49Z</time>
      </trkpt>
      <trkpt lat="43.95393" lon="1.87168">
        <ele>264</ele>
        <time>2018-07-15T07:48:50Z</time>
      </trkpt>
      <trkpt lat="43.95392" lon="1.87173">
        <ele>264</ele>
        <time>2018-07-15T07:48:51Z</time>
      </trkpt>
      <trkpt lat="43.95391" lon="1.87177">
        <ele>264</ele>
        <time>2018-07-15T07:48:52Z</time>
      </trkpt>
      <trkpt lat="43.9539" lon="1.87182">
        <ele>264</ele>
        <time>2018-07-15T07:48:53Z</time>
      </trkpt>
      <trkpt lat="43.95389" lon="1.87186">
        <ele>264</ele>
        <time>2018-07-15T07:48:54Z</time>
      </trkpt>
      <trkpt lat="43.95389" lon="1.87191">
        <ele>264</ele>
        <time>2018-07-15T07:48:55Z</time>
      </trkpt>
      <trkpt lat="43.95388" lon="1.87195">
        <ele>264</ele>
        <time>2018-07-15T07:48:56Z</time>
      </trkpt>
      <trkpt lat="43.95387" lon="1.872">
        <ele>264</ele>
        <time>2018-07-15T07:48:57Z</time>
      </trkpt>
      <trkpt lat="43.95386" lon="1.87204">
        <ele>264</ele>
        <time>2018-07-15T07:48:58Z</time>
      </trkpt>
      <trkpt lat="43.95384" lon="1.87208">
        <ele>264</ele>
        <time>2018-07-15T07:48:59Z</time>
      </trkpt>
      <trkpt lat="43.95383" lon="1.87213">
        <ele>265</ele>
        <time>2018-07-15T07:49:00Z</time>
      </trkpt>
      <trkpt lat="43.95382" lon="1.87217">
        <ele>265</ele>
        <time>2018-07-15T07:49:01Z</time>
      </trkpt>
      <trkpt lat="43.95382" lon="1.87222">
        <ele>265</ele>
        <time>2018-07-15T07:49:02Z</time>
      </trkpt>
      <trkpt lat="43.95382" lon="1.87226">
        <ele>265</ele>
        <time>2018-07-15T07:49:03Z</time>
      </trkpt>
      <trkpt lat="43.95381" lon="1.87231">
        <ele>265</ele>
        <time>2018-07-15T07:49:04Z</time>
      </trkpt>
      <trkpt lat="43.9538" lon="1.87235">
        <ele>265</ele>
        <time>2018-07-15T07:49:05Z</time>
      </trkpt>
      <trkpt lat="43.95379" lon="1.8724">
        <ele>266</ele>
        <time>2018-07-15T07:49:06Z</time>
      </trkpt>
      <trkpt lat="43.95379" lon="1.87244">
        <ele>266</ele>
        <time>2018-07-15T07:49:07Z</time>
      </trkpt>
      <trkpt lat="43.95378" lon="1.87248">
        <ele>266</ele>
        <time>2018-07-15T07:49:08Z</time>
      </trkpt>
      <trkpt lat="43.95377" lon="1.87252">
        <ele>266</ele>
        <time>2018-07-15T07:49:09Z</time>
      </trkpt>
      <trkpt lat="43.95376" lon="1.87256">
        <ele>266</ele>
        <time>2018-07-15T07:49:10Z</time>
      </trkpt>
      <trkpt lat="43.95375" lon="1.87261">
        <ele>266</ele>
        <time>2018-07-15T07:49:11Z</time>
      </trkpt>
      <trkpt lat="43.95374" lon="1.87265">
        <ele>266</ele>
        <time>2018-07-15T07:49:12Z</time>
      </trkpt>
      <trkpt lat="43.95373" lon="1.8727">
        <ele>266</ele>
        <time>2018-07-15T07:49:13Z</time>
      </trkpt>
      <trkpt lat="43.95373" lon="1.87275">
        <ele>267</ele>
        <time>2018-07-15T07:49:14Z</time>
      </trkpt>
      <trkpt lat="43.95373" lon="1.8728">
        <ele>267</ele>
        <time>2018-07-15T07:49:15Z</time>
      </trkpt>
      <trkpt lat="43.95373" lon="1.87285">
        <ele>267</ele>
        <time>2018-07-15T07:49:16Z</time>
      </trkpt>
      <trkpt lat="43.95374" lon="1.87289">
        <ele>267</ele>
        <time>2018-07-15T07:49:17Z</time>
      </trkpt>
      <trkpt lat="43.95374" lon="1.87294">
        <ele>267</ele>
        <time>2018-07-15T07:49:18Z</time>
      </trkpt>
      <trkpt lat="43.95375" lon="1.87298">
        <ele>267</ele>
        <time>2018-07-15T07:49:19Z</time>
      </trkpt>
      <trkpt lat="43.95376" lon="1.87302">
        <ele>267</ele>
        <time>2018-07-15T07:49:20Z</time>
      </trkpt>
      <trkpt lat="43.95377" lon="1.87306">
        <ele>267</ele>
        <time>2018-07-15T07:49:21Z</time>
      </trkpt>
      <trkpt lat="43.95378" lon="1.8731">
        <ele>268</ele>
        <time>2018-07-15T07:49:22Z</time>
      </trkpt>
      <trkpt lat="43.9538" lon="1.87314">
        <ele>268</ele>
        <time>2018-07-15T07:49:23Z</time>
      </trkpt>
      <trkpt lat="43.95382" lon="1.87317">
        <ele>268</ele>
        <time>2018-07-15T07:49:24Z</time>
      </trkpt>
      <trkpt lat="43.95385" lon="1.87321">
        <ele>267</ele>
        <time>2018-07-15T07:49:25Z</time>
      </trkpt>
      <trkpt lat="43.95387" lon="1.87325">
        <ele>268</ele>
        <time>2018-07-15T07:49:26Z</time>
      </trkpt>
      <trkpt lat="43.95389" lon="1.87328">
        <ele>267</ele>
        <time>2018-07-15T07:49:27Z</time>
      </trkpt>
      <trkpt lat="43.95391" lon="1.87332">
        <ele>268</ele>
        <time>2018-07-15T07:49:28Z</time>
      </trkpt>
      <trkpt lat="43.95393" lon="1.87335">
        <ele>268</ele>
        <time>2018-07-15T07:49:29Z</time>
      </trkpt>
      <trkpt lat="43.95394" lon="1.87339">
        <ele>268</ele>
        <time>2018-07-15T07:49:30Z</time>
      </trkpt>
      <trkpt lat="43.95396" lon="1.87342">
        <ele>268</ele>
        <time>2018-07-15T07:49:31Z</time>
      </trkpt>
      <trkpt lat="43.95398" lon="1.87345">
        <ele>268</ele>
        <time>2018-07-15T07:49:32Z</time>
      </trkpt>
      <trkpt lat="43.954" lon="1.87348">
        <ele>269</ele>
        <time>2018-07-15T07:49:33Z</time>
      </trkpt>
      <trkpt lat="43.95402" lon="1.87351">
        <ele>269</ele>
        <time>2018-07-15T07:49:34Z</time>
      </trkpt>
      <trkpt lat="43.95404" lon="1.87355">
        <ele>269</ele>
        <time>2018-07-15T07:49:35Z</time>
      </trkpt>
      <trkpt lat="43.95406" lon="1.87359">
        <ele>269</ele>
        <time>2018-07-15T07:49:36Z</time>
      </trkpt>
      <trkpt lat="43.95408" lon="1.87362">
        <ele>269</ele>
        <time>2018-07-15T07:49:37Z</time>
      </trkpt>
      <trkpt lat="43.95411" lon="1.87366">
        <ele>270</ele>
        <time>2018-07-15T07:49:38Z</time>
      </trkpt>
      <trkpt lat="43.95412" lon="1.87369">
        <ele>270</ele>
        <time>2018-07-15T07:49:39Z</time>
      </trkpt>
      <trkpt lat="43.95414" lon="1.87372">
        <ele>270</ele>
        <time>2018-07-15T07:49:40Z</time>
      </trkpt>
      <trkpt lat="43.95416" lon="1.87375">
        <ele>270</ele>
        <time>2018-07-15T07:49:41Z</time>
      </trkpt>
      <trkpt lat="43.95418" lon="1.87379">
        <ele>270</ele>
        <time>2018-07-15T07:49:42Z</time>
      </trkpt>
      <trkpt lat="43.9542" lon="1.87382">
        <ele>270</ele>
        <time>2018-07-15T07:49:43Z</time>
      </trkpt>
      <trkpt lat="43.95422" lon="1.87385">
        <ele>270</ele>
        <time>2018-07-15T07:49:44Z</time>
      </trkpt>
      <trkpt lat="43.95423" lon="1.87389">
        <ele>270</ele>
        <time>2018-07-15T07:49:45Z</time>
      </trkpt>
      <trkpt lat="43.95425" lon="1.87392">
        <ele>270</ele>
        <time>2018-07-15T07:49:46Z</time>
      </trkpt>
      <trkpt lat="43.95426" lon="1.87395">
        <ele>270</ele>
        <time>2018-07-15T07:49:47Z</time>
      </trkpt>
      <trkpt lat="43.95426" lon="1.87399">
        <ele>271</ele>
        <time>2018-07-15T07:49:48Z</time>
      </trkpt>
      <trkpt lat="43.95425" lon="1.87403">
        <ele>271</ele>
        <time>2018-07-15T07:49:49Z</time>
      </trkpt>
      <trkpt lat="43.95423" lon="1.87406">
        <ele>271</ele>
        <time>2018-07-15T07:49:50Z</time>
      </trkpt>
      <trkpt lat="43.9542" lon="1.8741">
        <ele>271</ele>
        <time>2018-07-15T07:49:51Z</time>
      </trkpt>
      <trkpt lat="43.95417" lon="1.87413">
        <ele>271</ele>
        <time>2018-07-15T07:49:52Z</time>
      </trkpt>
      <trkpt lat="43.95414" lon="1.87417">
        <ele>271</ele>
        <time>2018-07-15T07:49:53Z</time>
      </trkpt>
      <trkpt lat="43.95411" lon="1.87421">
        <ele>270</ele>
        <time>2018-07-15T07:49:54Z</time>
      </trkpt>
      <trkpt lat="43.95407" lon="1.87425">
        <ele>270</ele>
        <time>2018-07-15T07:49:55Z</time>
      </trkpt>
      <trkpt lat="43.95404" lon="1.8743">
        <ele>270</ele>
        <time>2018-07-15T07:49:56Z</time>
      </trkpt>
      <trkpt lat="43.95401" lon="1.87435">
        <ele>270</ele>
        <time>2018-07-15T07:49:57Z</time>
      </trkpt>
      <trkpt lat="43.95397" lon="1.8744">
        <ele>269</ele>
        <time>2018-07-15T07:49:58Z</time>
      </trkpt>
      <trkpt lat="43.95393" lon="1.87445">
        <ele>269</ele>
        <time>2018-07-15T07:49:59Z</time>
      </trkpt>
      <trkpt lat="43.9539" lon="1.8745">
        <ele>269</ele>
        <time>2018-07-15T07:50:00Z</time>
      </trkpt>
      <trkpt lat="43.95386" lon="1.87456">
        <ele>268</ele>
        <time>2018-07-15T07:50:01Z</time>
      </trkpt>
      <trkpt lat="43.95381" lon="1.87462">
        <ele>268</ele>
        <time>2018-07-15T07:50:02Z</time>
      </trkpt>
      <trkpt lat="43.95377" lon="1.87468">
        <ele>268</ele>
        <time>2018-07-15T07:50:03Z</time>
      </trkpt>
      <trkpt lat="43.95373" lon="1.87474">
        <ele>268</ele>
        <time>2018-07-15T07:50:04Z</time>
      </trkpt>
      <trkpt lat="43.95368" lon="1.8748">
        <ele>268</ele>
        <time>2018-07-15T07:50:05Z</time>
      </trkpt>
      <trkpt lat="43.95364" lon="1.87487">
        <ele>267</ele>
        <time>2018-07-15T07:50:06Z</time>
      </trkpt>
      <trkpt lat="43.95359" lon="1.87493">
        <ele>267</ele>
        <time>2018-07-15T07:50:07Z</time>
      </trkpt>
      <trkpt lat="43.95355" lon="1.87499">
        <ele>267</ele>
        <time>2018-07-15T07:50:08Z</time>
      </trkpt>
      <trkpt lat="43.9535" lon="1.87506">
        <ele>266</ele>
        <time>2018-07-15T07:50:09Z</time>
      </trkpt>
      <trkpt lat="43.95345" lon="1.87513">
        <ele>266</ele>
        <time>2018-07-15T07:50:10Z</time>
      </trkpt>
      <trkpt lat="43.9534" lon="1.87519">
        <ele>266</ele>
        <time>2018-07-15T07:50:11Z</time>
      </trkpt>
      <trkpt lat="43.95335" lon="1.87526">
        <ele>265</ele>
        <time>2018-07-15T07:50:12Z</time>
      </trkpt>
      <trkpt lat="43.9533" lon="1.87532">
        <ele>265</ele>
        <time>2018-07-15T07:50:13Z</time>
      </trkpt>
      <trkpt lat="43.95324" lon="1.87539">
        <ele>265</ele>
        <time>2018-07-15T07:50:14Z</time>
      </trkpt>
      <trkpt lat="43.95319" lon="1.87546">
        <ele>265</ele>
        <time>2018-07-15T07:50:15Z</time>
      </trkpt>
      <trkpt lat="43.95314" lon="1.87553">
        <ele>265</ele>
        <time>2018-07-15T07:50:16Z</time>
      </trkpt>
      <trkpt lat="43.95309" lon="1.87559">
        <ele>265</ele>
        <time>2018-07-15T07:50:17Z</time>
      </trkpt>
      <trkpt lat="43.95304" lon="1.87566">
        <ele>265</ele>
        <time>2018-07-15T07:50:18Z</time>
      </trkpt>
      <trkpt lat="43.95299" lon="1.87573">
        <ele>264</ele>
        <time>2018-07-15T07:50:19Z</time>
      </trkpt>
      <trkpt lat="43.95294" lon="1.87579">
        <ele>264</ele>
        <time>2018-07-15T07:50:20Z</time>
      </trkpt>
      <trkpt lat="43.95289" lon="1.87585">
        <ele>265</ele>
        <time>2018-07-15T07:50:21Z</time>
      </trkpt>
      <trkpt lat="43.95284" lon="1.87592">
        <ele>265</ele>
        <time>2018-07-15T07:50:22Z</time>
      </trkpt>
      <trkpt lat="43.95279" lon="1.87598">
        <ele>264</ele>
        <time>2018-07-15T07:50:23Z</time>
      </trkpt>
      <trkpt lat="43.95274" lon="1.87605">
        <ele>264</ele>
        <time>2018-07-15T07:50:24Z</time>
      </trkpt>
      <trkpt lat="43.95269" lon="1.87611">
        <ele>264</ele>
        <time>2018-07-15T07:50:25Z</time>
      </trkpt>
      <trkpt lat="43.95264" lon="1.87617">
        <ele>264</ele>
        <time>2018-07-15T07:50:26Z</time>
      </trkpt>
      <trkpt lat="43.9526" lon="1.87623">
        <ele>264</ele>
        <time>2018-07-15T07:50:27Z</time>
      </trkpt>
      <trkpt lat="43.95255" lon="1.8763">
        <ele>264</ele>
        <time>2018-07-15T07:50:28Z</time>
      </trkpt>
      <trkpt lat="43.9525" lon="1.87636">
        <ele>264</ele>
        <time>2018-07-15T07:50:29Z</time>
      </trkpt>
      <trkpt lat="43.95246" lon="1.87642">
        <ele>264</ele>
        <time>2018-07-15T07:50:30Z</time>
      </trkpt>
      <trkpt lat="43.95241" lon="1.87648">
        <ele>264</ele>
        <time>2018-07-15T07:50:31Z</time>
      </trkpt>
      <trkpt lat="43.95237" lon="1.87654">
        <ele>265</ele>
        <time>2018-07-15T07:50:32Z</time>
      </trkpt>
      <trkpt lat="43.95232" lon="1.87659">
        <ele>264</ele>
        <time>2018-07-15T07:50:33Z</time>
      </trkpt>
      <trkpt lat="43.95228" lon="1.87665">
        <ele>264</ele>
        <time>2018-07-15T07:50:34Z</time>
      </trkpt>
      <trkpt lat="43.95223" lon="1.87671">
        <ele>264</ele>
        <time>2018-07-15T07:50:35Z</time>
      </trkpt>
      <trkpt lat="43.95219" lon="1.87676">
        <ele>264</ele>
        <time>2018-07-15T07:50:36Z</time>
      </trkpt>
      <trkpt lat="43.95215" lon="1.87682">
        <ele>264</ele>
        <time>2018-07-15T07:50:37Z</time>
      </trkpt>
      <trkpt lat="43.95211" lon="1.87687">
        <ele>264</ele>
        <time>2018-07-15T07:50:38Z</time>
      </trkpt>
      <trkpt lat="43.95207" lon="1.87692">
        <ele>264</ele>
        <time>2018-07-15T07:50:39Z</time>
      </trkpt>
      <trkpt lat="43.95203" lon="1.87697">
        <ele>265</ele>
        <time>2018-07-15T07:50:40Z</time>
      </trkpt>
      <trkpt lat="43.95199" lon="1.87703">
        <ele>264</ele>
        <time>2018-07-15T07:50:41Z</time>
      </trkpt>
      <trkpt lat="43.95195" lon="1.87708">
        <ele>264</ele>
        <time>2018-07-15T07:50:42Z</time>
      </trkpt>
      <trkpt lat="43.95191" lon="1.87712">
        <ele>265</ele>
        <time>2018-07-15T07:50:43Z</time>
      </trkpt>
      <trkpt lat="43.95187" lon="1.87717">
        <ele>265</ele>
        <time>2018-07-15T07:50:44Z</time>
      </trkpt>
      <trkpt lat="43.95183" lon="1.87722">
        <ele>265</ele>
        <time>2018-07-15T07:50:45Z</time>
      </trkpt>
      <trkpt lat="43.95179" lon="1.87727">
        <ele>265</ele>
        <time>2018-07-15T07:50:46Z</time>
      </trkpt>
      <trkpt lat="43.95176" lon="1.87733">
        <ele>265</ele>
        <time>2018-07-15T07:50:47Z</time>
      </trkpt>
      <trkpt lat="43.95172" lon="1.87738">
        <ele>265</ele>
        <time>2018-07-15T07:50:48Z</time>
      </trkpt>
      <trkpt lat="43.95168" lon="1.87743">
        <ele>265</ele>
        <time>2018-07-15T07:50:49Z</time>
      </trkpt>
      <trkpt lat="43.95164" lon="1.87748">
        <ele>265</ele>
        <time>2018-07-15T07:50:50Z</time>
      </trkpt>
      <trkpt lat="43.9516" lon="1.87753">
        <ele>265</ele>
        <time>2018-07-15T07:50:51Z</time>
      </trkpt>
      <trkpt lat="43.95156" lon="1.87758">
        <ele>265</ele>
        <time>2018-07-15T07:50:52Z</time>
      </trkpt>
      <trkpt lat="43.95152" lon="1.87762">
        <ele>265</ele>
        <time>2018-07-15T07:50:53Z</time>
      </trkpt>
      <trkpt lat="43.95148" lon="1.87767">
        <ele>265</ele>
        <time>2018-07-15T07:50:54Z</time>
      </trkpt>
      <trkpt lat="43.95144" lon="1.87772">
        <ele>265</ele>
        <time>2018-07-15T07:50:55Z</time>
      </trkpt>
      <trkpt lat="43.95139" lon="1.87777">
        <ele>265</ele>
        <time>2018-07-15T07:50:56Z</time>
      </trkpt>
      <trkpt lat="43.95135" lon="1.87782">
        <ele>265</ele>
        <time>2018-07-15T07:50:57Z</time>
      </trkpt>
      <trkpt lat="43.9513" lon="1.87786">
        <ele>265</ele>
        <time>2018-07-15T07:50:58Z</time>
      </trkpt>
      <trkpt lat="43.95125" lon="1.87791">
        <ele>265</ele>
        <time>2018-07-15T07:50:59Z</time>
      </trkpt>
      <trkpt lat="43.9512" lon="1.87795">
        <ele>264</ele>
        <time>2018-07-15T07:51:00Z</time>
      </trkpt>
      <trkpt lat="43.95115" lon="1.87799">
        <ele>264</ele>
        <time>2018-07-15T07:51:01Z</time>
      </trkpt>
      <trkpt lat="43.95109" lon="1.87802">
        <ele>264</ele>
        <time>2018-07-15T07:51:02Z</time>
      </trkpt>
      <trkpt lat="43.95104" lon="1.87805">
        <ele>264</ele>
        <time>2018-07-15T07:51:03Z</time>
      </trkpt>
      <trkpt lat="43.95099" lon="1.87809">
        <ele>264</ele>
        <time>2018-07-15T07:51:04Z</time>
      </trkpt>
      <trkpt lat="43.95093" lon="1.87812">
        <ele>264</ele>
        <time>2018-07-15T07:51:05Z</time>
      </trkpt>
      <trkpt lat="43.95087" lon="1.87815">
        <ele>264</ele>
        <time>2018-07-15T07:51:06Z</time>
      </trkpt>
      <trkpt lat="43.95082" lon="1.87817">
        <ele>264</ele>
        <time>2018-07-15T07:51:07Z</time>
      </trkpt>
      <trkpt lat="43.95077" lon="1.8782">
        <ele>264</ele>
        <time>2018-07-15T07:51:08Z</time>
      </trkpt>
      <trkpt lat="43.95071" lon="1.87823">
        <ele>264</ele>
        <time>2018-07-15T07:51:09Z</time>
      </trkpt>
      <trkpt lat="43.95066" lon="1.87826">
        <ele>264</ele>
        <time>2018-07-15T07:51:10Z</time>
      </trkpt>
      <trkpt lat="43.9506" lon="1.87829">
        <ele>264</ele>
        <time>2018-07-15T07:51:11Z</time>
      </trkpt>
      <trkpt lat="43.95055" lon="1.87831">
        <ele>264</ele>
        <time>2018-07-15T07:51:12Z</time>
      </trkpt>
      <trkpt lat="43.95049" lon="1.87834">
        <ele>263</ele>
        <time>2018-07-15T07:51:13Z</time>
      </trkpt>
      <trkpt lat="43.95043" lon="1.87837">
        <ele>263</ele>
        <time>2018-07-15T07:51:14Z</time>
      </trkpt>
      <trkpt lat="43.95037" lon="1.8784">
        <ele>263</ele>
        <time>2018-07-15T07:51:15Z</time>
      </trkpt>
      <trkpt lat="43.95031" lon="1.87842">
        <ele>263</ele>
        <time>2018-07-15T07:51:16Z</time>
      </trkpt>
      <trkpt lat="43.95026" lon="1.87845">
        <ele>263</ele>
        <time>2018-07-15T07:51:17Z</time>
      </trkpt>
      <trkpt lat="43.9502" lon="1.87848">
        <ele>263</ele>
        <time>2018-07-15T07:51:18Z</time>
      </trkpt>
      <trkpt lat="43.95014" lon="1.87851">
        <ele>263</ele>
        <time>2018-07-15T07:51:19Z</time>
      </trkpt>
      <trkpt lat="43.95008" lon="1.87854">
        <ele>263</ele>
        <time>2018-07-15T07:51:20Z</time>
      </trkpt>
      <trkpt lat="43.95001" lon="1.87857">
        <ele>262</ele>
        <time>2018-07-15T07:51:21Z</time>
      </trkpt>
      <trkpt lat="43.94995" lon="1.8786">
        <ele>262</ele>
        <time>2018-07-15T07:51:22Z</time>
      </trkpt>
      <trkpt lat="43.94989" lon="1.87863">
        <ele>262</ele>
        <time>2018-07-15T07:51:23Z</time>
      </trkpt>
      <trkpt lat="43.94983" lon="1.87866">
        <ele>262</ele>
        <time>2018-07-15T07:51:24Z</time>
      </trkpt>
      <trkpt lat="43.94976" lon="1.87869">
        <ele>262</ele>
        <time>2018-07-15T07:51:25Z</time>
      </trkpt>
      <trkpt lat="43.9497" lon="1.87872">
        <ele>262</ele>
        <time>2018-07-15T07:51:26Z</time>
      </trkpt>
      <trkpt lat="43.94964" lon="1.87875">
        <ele>262</ele>
        <time>2018-07-15T07:51:27Z</time>
      </trkpt>
      <trkpt lat="43.94958" lon="1.87879">
        <ele>262</ele>
        <time>2018-07-15T07:51:28Z</time>
      </trkpt>
      <trkpt lat="43.94952" lon="1.87883">
        <ele>261</ele>
        <time>2018-07-15T07:51:29Z</time>
      </trkpt>
      <trkpt lat="43.94945" lon="1.87887">
        <ele>261</ele>
        <time>2018-07-15T07:51:30Z</time>
      </trkpt>
      <trkpt lat="43.94939" lon="1.87892">
        <ele>261</ele>
        <time>2018-07-15T07:51:31Z</time>
      </trkpt>
      <trkpt lat="43.94933" lon="1.87897">
        <ele>260</ele>
        <time>2018-07-15T07:51:32Z</time>
      </trkpt>
      <trkpt lat="43.94927" lon="1.87902">
        <ele>260</ele>
        <time>2018-07-15T07:51:33Z</time>
      </trkpt>
      <trkpt lat="43.94921" lon="1.87907">
        <ele>260</ele>
        <time>2018-07-15T07:51:34Z</time>
      </trkpt>
      <trkpt lat="43.94914" lon="1.87913">
        <ele>260</ele>
        <time>2018-07-15T07:51:35Z</time>
      </trkpt>
      <trkpt lat="43.94908" lon="1.87919">
        <ele>259</ele>
        <time>2018-07-15T07:51:36Z</time>
      </trkpt>
      <trkpt lat="43.94901" lon="1.87926">
        <ele>258</ele>
        <time>2018-07-15T07:51:37Z</time>
      </trkpt>
      <trkpt lat="43.94894" lon="1.87933">
        <ele>258</ele>
        <time>2018-07-15T07:51:38Z</time>
      </trkpt>
      <trkpt lat="43.94887" lon="1.87941">
        <ele>257</ele>
        <time>2018-07-15T07:51:39Z</time>
      </trkpt>
      <trkpt lat="43.94879" lon="1.87949">
        <ele>256</ele>
        <time>2018-07-15T07:51:40Z</time>
      </trkpt>
      <trkpt lat="43.94871" lon="1.87957">
        <ele>255</ele>
        <time>2018-07-15T07:51:41Z</time>
      </trkpt>
      <trkpt lat="43.94863" lon="1.87966">
        <ele>254</ele>
        <time>2018-07-15T07:51:42Z</time>
      </trkpt>
      <trkpt lat="43.94854" lon="1.87975">
        <ele>253</ele>
        <time>2018-07-15T07:51:43Z</time>
      </trkpt>
      <trkpt lat="43.94846" lon="1.87985">
        <ele>252</ele>
        <time>2018-07-15T07:51:44Z</time>
      </trkpt>
      <trkpt lat="43.94837" lon="1.87994">
        <ele>251</ele>
        <time>2018-07-15T07:51:45Z</time>
      </trkpt>
      <trkpt lat="43.94829" lon="1.88003">
        <ele>250</ele>
        <time>2018-07-15T07:51:46Z</time>
      </trkpt>
      <trkpt lat="43.94821" lon="1.88011">
        <ele>249</ele>
        <time>2018-07-15T07:51:47Z</time>
      </trkpt>
      <trkpt lat="43.94813" lon="1.8802">
        <ele>248</ele>
        <time>2018-07-15T07:51:48Z</time>
      </trkpt>
      <trkpt lat="43.94806" lon="1.88028">
        <ele>247</ele>
        <time>2018-07-15T07:51:49Z</time>
      </trkpt>
      <trkpt lat="43.94797" lon="1.88037">
        <ele>247</ele>
        <time>2018-07-15T07:51:50Z</time>
      </trkpt>
      <trkpt lat="43.94788" lon="1.88047">
        <ele>246</ele>
        <time>2018-07-15T07:51:51Z</time>
      </trkpt>
      <trkpt lat="43.9478" lon="1.88056">
        <ele>245</ele>
        <time>2018-07-15T07:51:52Z</time>
      </trkpt>
      <trkpt lat="43.94771" lon="1.88067">
        <ele>244</ele>
        <time>2018-07-15T07:51:53Z</time>
      </trkpt>
      <trkpt lat="43.94763" lon="1.88078">
        <ele>242</ele>
        <time>2018-07-15T07:51:54Z</time>
      </trkpt>
      <trkpt lat="43.94755" lon="1.88089">
        <ele>241</ele>
        <time>2018-07-15T07:51:55Z</time>
      </trkpt>
      <trkpt lat="43.94748" lon="1.88103">
        <ele>239</ele>
        <time>2018-07-15T07:51:56Z</time>
      </trkpt>
      <trkpt lat="43.94742" lon="1.88118">
        <ele>238</ele>
        <time>2018-07-15T07:51:57Z</time>
      </trkpt>
      <trkpt lat="43.94737" lon="1.88134">
        <ele>237</ele>
        <time>2018-07-15T07:51:58Z</time>
      </trkpt>
      <trkpt lat="43.94733" lon="1.8815">
        <ele>236</ele>
        <time>2018-07-15T07:51:59Z</time>
      </trkpt>
      <trkpt lat="43.9473" lon="1.88167">
        <ele>235</ele>
        <time>2018-07-15T07:52:00Z</time>
      </trkpt>
      <trkpt lat="43.94728" lon="1.88185">
        <ele>233</ele>
        <time>2018-07-15T07:52:01Z</time>
      </trkpt>
      <trkpt lat="43.94725" lon="1.88202">
        <ele>232</ele>
        <time>2018-07-15T07:52:02Z</time>
      </trkpt>
      <trkpt lat="43.94722" lon="1.8822">
        <ele>231</ele>
        <time>2018-07-15T07:52:03Z</time>
      </trkpt>
      <trkpt lat="43.94719" lon="1.88237">
        <ele>230</ele>
        <time>2018-07-15T07:52:04Z</time>
      </trkpt>
      <trkpt lat="43.94714" lon="1.88254">
        <ele>229</ele>
        <time>2018-07-15T07:52:05Z</time>
      </trkpt>
      <trkpt lat="43.94709" lon="1.8827">
        <ele>228</ele>
        <time>2018-07-15T07:52:06Z</time>
      </trkpt>
      <trkpt lat="43.94702" lon="1.88284">
        <ele>228</ele>
        <time>2018-07-15T07:52:07Z</time>
      </trkpt>
      <trkpt lat="43.94694" lon="1.88299">
        <ele>227</ele>
        <time>2018-07-15T07:52:08Z</time>
      </trkpt>
      <trkpt lat="43.94686" lon="1.88312">
        <ele>226</ele>
        <time>2018-07-15T07:52:09Z</time>
      </trkpt>
      <trkpt lat="43.94677" lon="1.88324">
        <ele>226</ele>
        <time>2018-07-15T07:52:10Z</time>
      </trkpt>
      <trkpt lat="43.94669" lon="1.88337">
        <ele>226</ele>
        <time>2018-07-15T07:52:11Z</time>
      </trkpt>
      <trkpt lat="43.9466" lon="1.88349">
        <ele>225</ele>
        <time>2018-07-15T07:52:12Z</time>
      </trkpt>
      <trkpt lat="43.94651" lon="1.88361">
        <ele>225</ele>
        <time>2018-07-15T07:52:13Z</time>
      </trkpt>
      <trkpt lat="43.94642" lon="1.88373">
        <ele>224</ele>
        <time>2018-07-15T07:52:14Z</time>
      </trkpt>
      <trkpt lat="43.94633" lon="1.88384">
        <ele>224</ele>
        <time>2018-07-15T07:52:15Z</time>
      </trkpt>
      <trkpt lat="43.94624" lon="1.88394">
        <ele>223</ele>
        <time>2018-07-15T07:52:16Z</time>
      </trkpt>
      <trkpt lat="43.94614" lon="1.88404">
        <ele>223</ele>
        <time>2018-07-15T07:52:17Z</time>
      </trkpt>
      <trkpt lat="43.94604" lon="1.88414">
        <ele>222</ele>
        <time>2018-07-15T07:52:18Z</time>
      </trkpt>
      <trkpt lat="43.94594" lon="1.88422">
        <ele>221</ele>
        <time>2018-07-15T07:52:19Z</time>
      </trkpt>
      <trkpt lat="43.94583" lon="1.8843">
        <ele>220</ele>
        <time>2018-07-15T07:52:20Z</time>
      </trkpt>
      <trkpt lat="43.94572" lon="1.88437">
        <ele>220</ele>
        <time>2018-07-15T07:52:21Z</time>
      </trkpt>
      <trkpt lat="43.94561" lon="1.88443">
        <ele>219</ele>
        <time>2018-07-15T07:52:22Z</time>
      </trkpt>
      <trkpt lat="43.9455" lon="1.88447">
        <ele>219</ele>
        <time>2018-07-15T07:52:23Z</time>
      </trkpt>
      <trkpt lat="43.94538" lon="1.88449">
        <ele>218</ele>
        <time>2018-07-15T07:52:24Z</time>
      </trkpt>
      <trkpt lat="43.94527" lon="1.8845">
        <ele>218</ele>
        <time>2018-07-15T07:52:25Z</time>
      </trkpt>
      <trkpt lat="43.94515" lon="1.88449">
        <ele>217</ele>
        <time>2018-07-15T07:52:26Z</time>
      </trkpt>
      <trkpt lat="43.94503" lon="1.88447">
        <ele>217</ele>
        <time>2018-07-15T07:52:27Z</time>
      </trkpt>
      <trkpt lat="43.94491" lon="1.88445">
        <ele>217</ele>
        <time>2018-07-15T07:52:28Z</time>
      </trkpt>
      <trkpt lat="43.9448" lon="1.88442">
        <ele>216</ele>
        <time>2018-07-15T07:52:29Z</time>
      </trkpt>
      <trkpt lat="43.94468" lon="1.88439">
        <ele>216</ele>
        <time>2018-07-15T07:52:30Z</time>
      </trkpt>
      <trkpt lat="43.94457" lon="1.88437">
        <ele>215</ele>
        <time>2018-07-15T07:52:31Z</time>
      </trkpt>
      <trkpt lat="43.94445" lon="1.88435">
        <ele>215</ele>
        <time>2018-07-15T07:52:32Z</time>
      </trkpt>
      <trkpt lat="43.94433" lon="1.88433">
        <ele>214</ele>
        <time>2018-07-15T07:52:33Z</time>
      </trkpt>
      <trkpt lat="43.94421" lon="1.88433">
        <ele>213</ele>
        <time>2018-07-15T07:52:34Z</time>
      </trkpt>
      <trkpt lat="43.9441" lon="1.88434">
        <ele>212</ele>
        <time>2018-07-15T07:52:35Z</time>
      </trkpt>
      <trkpt lat="43.94398" lon="1.88436">
        <ele>211</ele>
        <time>2018-07-15T07:52:36Z</time>
      </trkpt>
      <trkpt lat="43.94386" lon="1.88438">
        <ele>211</ele>
        <time>2018-07-15T07:52:37Z</time>
      </trkpt>
      <trkpt lat="43.94374" lon="1.8844">
        <ele>211</ele>
        <time>2018-07-15T07:52:38Z</time>
      </trkpt>
      <trkpt lat="43.94363" lon="1.88444">
        <ele>210</ele>
        <time>2018-07-15T07:52:39Z</time>
      </trkpt>
      <trkpt lat="43.94352" lon="1.88448">
        <ele>209</ele>
        <time>2018-07-15T07:52:40Z</time>
      </trkpt>
      <trkpt lat="43.94343" lon="1.88456">
        <ele>208</ele>
        <time>2018-07-15T07:52:41Z</time>
      </trkpt>
      <trkpt lat="43.94335" lon="1.88466">
        <ele>208</ele>
        <time>2018-07-15T07:52:42Z</time>
      </trkpt>
      <trkpt lat="43.94328" lon="1.88477">
        <ele>208</ele>
        <time>2018-07-15T07:52:43Z</time>
      </trkpt>
      <trkpt lat="43.9432" lon="1.88487">
        <ele>208</ele>
        <time>2018-07-15T07:52:44Z</time>
      </trkpt>
      <trkpt lat="43.94311" lon="1.88496">
        <ele>208</ele>
        <time>2018-07-15T07:52:45Z</time>
      </trkpt>
      <trkpt lat="43.94303" lon="1.88505">
        <ele>208</ele>
        <time>2018-07-15T07:52:46Z</time>
      </trkpt>
      <trkpt lat="43.94295" lon="1.88513">
        <ele>208</ele>
        <time>2018-07-15T07:52:47Z</time>
      </trkpt>
      <trkpt lat="43.94287" lon="1.88521">
        <ele>208</ele>
        <time>2018-07-15T07:52:48Z</time>
      </trkpt>
      <trkpt lat="43.94279" lon="1.88529">
        <ele>208</ele>
        <time>2018-07-15T07:52:49Z</time>
      </trkpt>
      <trkpt lat="43.94271" lon="1.88537">
        <ele>208</ele>
        <time>2018-07-15T07:52:50Z</time>
      </trkpt>
      <trkpt lat="43.94264" lon="1.88545">
        <ele>208</ele>
        <time>2018-07-15T07:52:51Z</time>
      </trkpt>
      <trkpt lat="43.94256" lon="1.88554">
        <ele>208</ele>
        <time>2018-07-15T07:52:52Z</time>
      </trkpt>
      <trkpt lat="43.94249" lon="1.88562">
        <ele>208</ele>
        <time>2018-07-15T07:52:53Z</time>
      </trkpt>
      <trkpt lat="43.94242" lon="1.88571">
        <ele>207</ele>
        <time>2018-07-15T07:52:54Z</time>
      </trkpt>
      <trkpt lat="43.94235" lon="1.88579">
        <ele>207</ele>
        <time>2018-07-15T07:52:55Z</time>
      </trkpt>
      <trkpt lat="43.94229" lon="1.88587">
        <ele>207</ele>
        <time>2018-07-15T07:52:56Z</time>
      </trkpt>
      <trkpt lat="43.94222" lon="1.88595">
        <ele>207</ele>
        <time>2018-07-15T07:52:57Z</time>
      </trkpt>
      <trkpt lat="43.94216" lon="1.88603">
        <ele>207</ele>
        <time>2018-07-15T07:52:58Z</time>
      </trkpt>
      <trkpt lat="43.9421" lon="1.88611">
        <ele>207</ele>
        <time>2018-07-15T07:52:59Z</time>
      </trkpt>
      <trkpt lat="43.94204" lon="1.88619">
        <ele>208</ele>
        <time>2018-07-15T07:53:00Z</time>
      </trkpt>
      <trkpt lat="43.94198" lon="1.88627">
        <ele>208</ele>
        <time>2018-07-15T07:53:01Z</time>
      </trkpt>
      <trkpt lat="43.94193" lon="1.88635">
        <ele>208</ele>
        <time>2018-07-15T07:53:02Z</time>
      </trkpt>
      <trkpt lat="43.94189" lon="1.88644">
        <ele>208</ele>
        <time>2018-07-15T07:53:03Z</time>
      </trkpt>
      <trkpt lat="43.94184" lon="1.88652">
        <ele>209</ele>
        <time>2018-07-15T07:53:04Z</time>
      </trkpt>
      <trkpt lat="43.9418" lon="1.8866">
        <ele>209</ele>
        <time>2018-07-15T07:53:05Z</time>
      </trkpt>
      <trkpt lat="43.94176" lon="1.88669">
        <ele>209</ele>
        <time>2018-07-15T07:53:06Z</time>
      </trkpt>
      <trkpt lat="43.94172" lon="1.88677">
        <ele>209</ele>
        <time>2018-07-15T07:53:07Z</time>
      </trkpt>
      <trkpt lat="43.94168" lon="1.88685">
        <ele>209</ele>
        <time>2018-07-15T07:53:08Z</time>
      </trkpt>
      <trkpt lat="43.94165" lon="1.88693">
        <ele>210</ele>
        <time>2018-07-15T07:53:09Z</time>
      </trkpt>
      <trkpt lat="43.94161" lon="1.88701">
        <ele>210</ele>
        <time>2018-07-15T07:53:10Z</time>
      </trkpt>
      <trkpt lat="43.94156" lon="1.88709">
        <ele>210</ele>
        <time>2018-07-15T07:53:11Z</time>
      </trkpt>
      <trkpt lat="43.94152" lon="1.88717">
        <ele>210</ele>
        <time>2018-07-15T07:53:12Z</time>
      </trkpt>
      <trkpt lat="43.94147" lon="1.88724">
        <ele>209</ele>
        <time>2018-07-15T07:53:13Z</time>
      </trkpt>
      <trkpt lat="43.94142" lon="1.88732">
        <ele>209</ele>
        <time>2018-07-15T07:53:14Z</time>
      </trkpt>
      <trkpt lat="43.94137" lon="1.8874">
        <ele>209</ele>
        <time>2018-07-15T07:53:15Z</time>
      </trkpt>
      <trkpt lat="43.94132" lon="1.88748">
        <ele>208</ele>
        <time>2018-07-15T07:53:16Z</time>
      </trkpt>
      <trkpt lat="43.94127" lon="1.88755">
        <ele>208</ele>
        <time>2018-07-15T07:53:17Z</time>
      </trkpt>
      <trkpt lat="43.94122" lon="1.88763">
        <ele>208</ele>
        <time>2018-07-15T07:53:18Z</time>
      </trkpt>
      <trkpt lat="43.94117" lon="1.88771">
        <ele>208</ele>
        <time>2018-07-15T07:53:19Z</time>
      </trkpt>
      <trkpt lat="43.94111" lon="1.88779">
        <ele>207</ele>
        <time>2018-07-15T07:53:20Z</time>
      </trkpt>
      <trkpt lat="43.94105" lon="1.88787">
        <ele>207</ele>
        <time>2018-07-15T07:53:21Z</time>
      </trkpt>
      <trkpt lat="43.941" lon="1.88794">
        <ele>207</ele>
        <time>2018-07-15T07:53:22Z</time>
      </trkpt>
      <trkpt lat="43.94094" lon="1.88802">
        <ele>207</ele>
        <time>2018-07-15T07:53:23Z</time>
      </trkpt>
      <trkpt lat="43.94088" lon="1.88808">
        <ele>207</ele>
        <time>2018-07-15T07:53:24Z</time>
      </trkpt>
      <trkpt lat="43.94082" lon="1.88815">
        <ele>207</ele>
        <time>2018-07-15T07:53:25Z</time>
      </trkpt>
      <trkpt lat="43.94076" lon="1.88822">
        <ele>207</ele>
        <time>2018-07-15T07:53:26Z</time>
      </trkpt>
      <trkpt lat="43.94069" lon="1.88828">
        <ele>207</ele>
        <time>2018-07-15T07:53:27Z</time>
      </trkpt>
      <trkpt lat="43.94063" lon="1.88836">
        <ele>207</ele>
        <time>2018-07-15T07:53:28Z</time>
      </trkpt>
      <trkpt lat="43.94057" lon="1.88843">
        <ele>207</ele>
        <time>2018-07-15T07:53:29Z</time>
      </trkpt>
      <trkpt lat="43.94051" lon="1.88851">
        <ele>206</ele>
        <time>2018-07-15T07:53:30Z</time>
      </trkpt>
      <trkpt lat="43.94046" lon="1.88858">
        <ele>206</ele>
        <time>2018-07-15T07:53:31Z</time>
      </trkpt>
      <trkpt lat="43.9404" lon="1.88866">
        <ele>205</ele>
        <time>2018-07-15T07:53:32Z</time>
      </trkpt>
      <trkpt lat="43.94035" lon="1.88874">
        <ele>205</ele>
        <time>2018-07-15T07:53:33Z</time>
      </trkpt>
      <trkpt lat="43.94029" lon="1.88882">
        <ele>205</ele>
        <time>2018-07-15T07:53:34Z</time>
      </trkpt>
      <trkpt lat="43.94024" lon="1.88891">
        <ele>204</ele>
        <time>2018-07-15T07:53:35Z</time>
      </trkpt>
      <trkpt lat="43.94019" lon="1.88899">
        <ele>204</ele>
        <time>2018-07-15T07:53:36Z</time>
      </trkpt>
      <trkpt lat="43.94013" lon="1.88907">
        <ele>204</ele>
        <time>2018-07-15T07:53:37Z</time>
      </trkpt>
      <trkpt lat="43.94008" lon="1.88915">
        <ele>204</ele>
        <time>2018-07-15T07:53:38Z</time>
      </trkpt>
      <trkpt lat="43.94002" lon="1.88923">
        <ele>204</ele>
        <time>2018-07-15T07:53:39Z</time>
      </trkpt>
      <trkpt lat="43.93996" lon="1.88931">
        <ele>204</ele>
        <time>2018-07-15T07:53:40Z</time>
      </trkpt>
      <trkpt lat="43.9399" lon="1.88939">
        <ele>203</ele>
        <time>2018-07-15T07:53:41Z</time>
      </trkpt>
      <trkpt lat="43.93984" lon="1.88946">
        <ele>203</ele>
        <time>2018-07-15T07:53:42Z</time>
      </trkpt>
      <trkpt lat="43.93978" lon="1.88953">
        <ele>203</ele>
        <time>2018-07-15T07:53:43Z</time>
      </trkpt>
      <trkpt lat="43.93972" lon="1.88961">
        <ele>203</ele>
        <time>2018-07-15T07:53:44Z</time>
      </trkpt>
      <trkpt lat="43.93965" lon="1.88968">
        <ele>202</ele>
        <time>2018-07-15T07:53:45Z</time>
      </trkpt>
      <trkpt lat="43.93959" lon="1.88976">
        <ele>202</ele>
        <time>2018-07-15T07:53:46Z</time>
      </trkpt>
      <trkpt lat="43.93952" lon="1.88984">
        <ele>201</ele>
        <time>2018-07-15T07:53:47Z</time>
      </trkpt>
      <trkpt lat="43.93945" lon="1.88991">
        <ele>201</ele>
        <time>2018-07-15T07:53:48Z</time>
      </trkpt>
      <trkpt lat="43.93939" lon="1.88999">
        <ele>201</ele>
        <time>2018-07-15T07:53:49Z</time>
      </trkpt>
      <trkpt lat="43.93933" lon="1.89006">
        <ele>201</ele>
        <time>2018-07-15T07:53:50Z</time>
      </trkpt>
      <trkpt lat="43.93926" lon="1.89014">
        <ele>201</ele>
        <time>2018-07-15T07:53:51Z</time>
      </trkpt>
      <trkpt lat="43.9392" lon="1.89022">
        <ele>200</ele>
        <time>2018-07-15T07:53:52Z</time>
      </trkpt>
      <trkpt lat="43.93914" lon="1.89031">
        <ele>200</ele>
        <time>2018-07-15T07:53:53Z</time>
      </trkpt>
      <trkpt lat="43.93908" lon="1.89039">
        <ele>199</ele>
        <time>2018-07-15T07:53:54Z</time>
      </trkpt>
      <trkpt lat="43.93902" lon="1.89049">
        <ele>199</ele>
        <time>2018-07-15T07:53:55Z</time>
      </trkpt>
      <trkpt lat="43.93896" lon="1.89058">
        <ele>199</ele>
        <time>2018-07-15T07:53:56Z</time>
      </trkpt>
      <trkpt lat="43.93891" lon="1.89068">
        <ele>199</ele>
        <time>2018-07-15T07:53:57Z</time>
      </trkpt>
      <trkpt lat="43.93885" lon="1.89078">
        <ele>198</ele>
        <time>2018-07-15T07:53:58Z</time>
      </trkpt>
      <trkpt lat="43.93879" lon="1.89087">
        <ele>198</ele>
        <time>2018-07-15T07:53:59Z</time>
      </trkpt>
      <trkpt lat="43.93872" lon="1.89096">
        <ele>197</ele>
        <time>2018-07-15T07:54:00Z</time>
      </trkpt>
      <trkpt lat="43.93865" lon="1.89104">
        <ele>197</ele>
        <time>2018-07-15T07:54:01Z</time>
      </trkpt>
      <trkpt lat="43.93858" lon="1.89112">
        <ele>197</ele>
        <time>2018-07-15T07:54:02Z</time>
      </trkpt>
      <trkpt lat="43.9385" lon="1.8912">
        <ele>197</ele>
        <time>2018-07-15T07:54:03Z</time>
      </trkpt>
      <trkpt lat="43.93843" lon="1.89127">
        <ele>196</ele>
        <time>2018-07-15T07:54:04Z</time>
      </trkpt>
      <trkpt lat="43.93835" lon="1.89135">
        <ele>196</ele>
        <time>2018-07-15T07:54:05Z</time>
      </trkpt>
      <trkpt lat="43.93827" lon="1.89142">
        <ele>196</ele>
        <time>2018-07-15T07:54:06Z</time>
      </trkpt>
      <trkpt lat="43.9382" lon="1.8915">
        <ele>195</ele>
        <time>2018-07-15T07:54:07Z</time>
      </trkpt>
      <trkpt lat="43.93813" lon="1.89159">
        <ele>195</ele>
        <time>2018-07-15T07:54:08Z</time>
      </trkpt>
      <trkpt lat="43.93805" lon="1.89168">
        <ele>195</ele>
        <time>2018-07-15T07:54:09Z</time>
      </trkpt>
      <trkpt lat="43.93798" lon="1.89176">
        <ele>194</ele>
        <time>2018-07-15T07:54:10Z</time>
      </trkpt>
      <trkpt lat="43.93791" lon="1.89185">
        <ele>194</ele>
        <time>2018-07-15T07:54:11Z</time>
      </trkpt>
      <trkpt lat="43.93784" lon="1.89194">
        <ele>194</ele>
        <time>2018-07-15T07:54:12Z</time>
      </trkpt>
      <trkpt lat="43.93777" lon="1.89204">
        <ele>194</ele>
        <time>2018-07-15T07:54:13Z</time>
      </trkpt>
      <trkpt lat="43.9377" lon="1.89214">
        <ele>194</ele>
        <time>2018-07-15T07:54:14Z</time>
      </trkpt>
      <trkpt lat="43.93764" lon="1.89224">
        <ele>193</ele>
        <time>2018-07-15T07:54:15Z</time>
      </trkpt>
      <trkpt lat="43.93758" lon="1.89234">
        <ele>192</ele>
        <time>2018-07-15T07:54:16Z</time>
      </trkpt>
      <trkpt lat="43.93752" lon="1.89245">
        <ele>192</ele>
        <time>2018-07-15T07:54:17Z</time>
      </trkpt>
      <trkpt lat="43.93746" lon="1.89257">
        <ele>192</ele>
        <time>2018-07-15T07:54:18Z</time>
      </trkpt>
      <trkpt lat="43.93741" lon="1.89268">
        <ele>191</ele>
        <time>2018-07-15T07:54:19Z</time>
      </trkpt>
      <trkpt lat="43.93735" lon="1.8928">
        <ele>189</ele>
        <time>2018-07-15T07:54:20Z</time>
      </trkpt>
      <trkpt lat="43.93729" lon="1.89291">
        <ele>189</ele>
        <time>2018-07-15T07:54:21Z</time>
      </trkpt>
      <trkpt lat="43.93724" lon="1.89302">
        <ele>189</ele>
        <time>2018-07-15T07:54:22Z</time>
      </trkpt>
      <trkpt lat="43.93719" lon="1.89313">
        <ele>188</ele>
        <time>2018-07-15T07:54:23Z</time>
      </trkpt>
      <trkpt lat="43.93713" lon="1.89324">
        <ele>188</ele>
        <time>2018-07-15T07:54:24Z</time>
      </trkpt>
      <trkpt lat="43.93707" lon="1.89334">
        <ele>189</ele>
        <time>2018-07-15T07:54:25Z</time>
      </trkpt>
      <trkpt lat="43.93701" lon="1.89344">
        <ele>189</ele>
        <time>2018-07-15T07:54:26Z</time>
      </trkpt>
      <trkpt lat="43.93694" lon="1.89353">
        <ele>188</ele>
        <time>2018-07-15T07:54:27Z</time>
      </trkpt>
      <trkpt lat="43.93687" lon="1.89361">
        <ele>188</ele>
        <time>2018-07-15T07:54:28Z</time>
      </trkpt>
      <trkpt lat="43.9368" lon="1.89368">
        <ele>188</ele>
        <time>2018-07-15T07:54:29Z</time>
      </trkpt>
      <trkpt lat="43.93673" lon="1.89374">
        <ele>188</ele>
        <time>2018-07-15T07:54:30Z</time>
      </trkpt>
      <trkpt lat="43.93665" lon="1.8938">
        <ele>188</ele>
        <time>2018-07-15T07:54:31Z</time>
      </trkpt>
      <trkpt lat="43.93658" lon="1.89387">
        <ele>188</ele>
        <time>2018-07-15T07:54:32Z</time>
      </trkpt>
      <trkpt lat="43.93651" lon="1.89393">
        <ele>188</ele>
        <time>2018-07-15T07:54:33Z</time>
      </trkpt>
      <trkpt lat="43.93644" lon="1.89399">
        <ele>188</ele>
        <time>2018-07-15T07:54:34Z</time>
      </trkpt>
      <trkpt lat="43.93637" lon="1.89405">
        <ele>188</ele>
        <time>2018-07-15T07:54:35Z</time>
      </trkpt>
      <trkpt lat="43.9363" lon="1.89411">
        <ele>188</ele>
        <time>2018-07-15T07:54:36Z</time>
      </trkpt>
      <trkpt lat="43.93623" lon="1.89416">
        <ele>187</ele>
        <time>2018-07-15T07:54:37Z</time>
      </trkpt>
      <trkpt lat="43.93617" lon="1.89422">
        <ele>188</ele>
        <time>2018-07-15T07:54:38Z</time>
      </trkpt>
      <trkpt lat="43.9361" lon="1.89427">
        <ele>188</ele>
        <time>2018-07-15T07:54:39Z</time>
      </trkpt>
      <trkpt lat="43.93603" lon="1.89433">
        <ele>188</ele>
        <time>2018-07-15T07:54:40Z</time>
      </trkpt>
      <trkpt lat="43.93597" lon="1.89438">
        <ele>188</ele>
        <time>2018-07-15T07:54:41Z</time>
      </trkpt>
      <trkpt lat="43.93591" lon="1.89444">
        <ele>188</ele>
        <time>2018-07-15T07:54:42Z</time>
      </trkpt>
      <trkpt lat="43.93585" lon="1.89449">
        <ele>189</ele>
        <time>2018-07-15T07:54:43Z</time>
      </trkpt>
      <trkpt lat="43.93579" lon="1.89454">
        <ele>190</ele>
        <time>2018-07-15T07:54:44Z</time>
      </trkpt>
      <trkpt lat="43.93573" lon="1.89458">
        <ele>190</ele>
        <time>2018-07-15T07:54:45Z</time>
      </trkpt>
      <trkpt lat="43.93568" lon="1.89463">
        <ele>190</ele>
        <time>2018-07-15T07:54:46Z</time>
      </trkpt>
      <trkpt lat="43.93563" lon="1.89467">
        <ele>190</ele>
        <time>2018-07-15T07:54:47Z</time>
      </trkpt>
      <trkpt lat="43.93558" lon="1.89472">
        <ele>191</ele>
        <time>2018-07-15T07:54:48Z</time>
      </trkpt>
      <trkpt lat="43.93553" lon="1.89476">
        <ele>191</ele>
        <time>2018-07-15T07:54:49Z</time>
      </trkpt>
      <trkpt lat="43.93549" lon="1.8948">
        <ele>191</ele>
        <time>2018-07-15T07:54:50Z</time>
      </trkpt>
      <trkpt lat="43.93544" lon="1.89484">
        <ele>191</ele>
        <time>2018-07-15T07:54:51Z</time>
      </trkpt>
      <trkpt lat="43.9354" lon="1.89488">
        <ele>191</ele>
        <time>2018-07-15T07:54:52Z</time>
      </trkpt>
      <trkpt lat="43.93536" lon="1.89491">
        <ele>192</ele>
        <time>2018-07-15T07:54:53Z</time>
      </trkpt>
      <trkpt lat="43.93532" lon="1.89495">
        <ele>192</ele>
        <time>2018-07-15T07:54:54Z</time>
      </trkpt>
      <trkpt lat="43.93528" lon="1.89498">
        <ele>192</ele>
        <time>2018-07-15T07:54:55Z</time>
      </trkpt>
      <trkpt lat="43.93524" lon="1.89502">
        <ele>193</ele>
        <time>2018-07-15T07:54:56Z</time>
      </trkpt>
      <trkpt lat="43.9352" lon="1.89505">
        <ele>193</ele>
        <time>2018-07-15T07:54:57Z</time>
      </trkpt>
      <trkpt lat="43.93517" lon="1.89508">
        <ele>193</ele>
        <time>2018-07-15T07:54:58Z</time>
      </trkpt>
      <trkpt lat="43.93514" lon="1.89511">
        <ele>193</ele>
        <time>2018-07-15T07:54:59Z</time>
      </trkpt>
      <trkpt lat="43.93511" lon="1.89514">
        <ele>194</ele>
        <time>2018-07-15T07:55:00Z</time>
      </trkpt>
      <trkpt lat="43.93508" lon="1.89517">
        <ele>194</ele>
        <time>2018-07-15T07:55:01Z</time>
      </trkpt>
      <trkpt lat="43.93505" lon="1.8952">
        <ele>194</ele>
        <time>2018-07-15T07:55:02Z</time>
      </trkpt>
      <trkpt lat="43.93502" lon="1.89524">
        <ele>194</ele>
        <time>2018-07-15T07:55:03Z</time>
      </trkpt>
      <trkpt lat="43.93499" lon="1.89527">
        <ele>194</ele>
        <time>2018-07-15T07:55:04Z</time>
      </trkpt>
      <trkpt lat="43.93496" lon="1.89531">
        <ele>194</ele>
        <time>2018-07-15T07:55:05Z</time>
      </trkpt>
      <trkpt lat="43.93492" lon="1.89536">
        <ele>194</ele>
        <time>2018-07-15T07:55:06Z</time>
      </trkpt>
      <trkpt lat="43.93489" lon="1.8954">
        <ele>194</ele>
        <time>2018-07-15T07:55:07Z</time>
      </trkpt>
      <trkpt lat="43.93486" lon="1.89545">
        <ele>194</ele>
        <time>2018-07-15T07:55:08Z</time>
      </trkpt>
      <trkpt lat="43.93483" lon="1.89549">
        <ele>194</ele>
        <time>2018-07-15T07:55:09Z</time>
      </trkpt>
      <trkpt lat="43.9348" lon="1.89553">
        <ele>194</ele>
        <time>2018-07-15T07:55:10Z</time>
      </trkpt>
      <trkpt lat="43.93477" lon="1.89558">
        <ele>195</ele>
        <time>2018-07-15T07:55:11Z</time>
      </trkpt>
      <trkpt lat="43.93474" lon="1.89563">
        <ele>195</ele>
        <time>2018-07-15T07:55:12Z</time>
      </trkpt>
      <trkpt lat="43.93471" lon="1.89567">
        <ele>195</ele>
        <time>2018-07-15T07:55:13Z</time>
      </trkpt>
      <trkpt lat="43.93468" lon="1.89572">
        <ele>195</ele>
        <time>2018-07-15T07:55:14Z</time>
      </trkpt>
      <trkpt lat="43.93465" lon="1.89577">
        <ele>195</ele>
        <time>2018-07-15T07:55:15Z</time>
      </trkpt>
      <trkpt lat="43.93462" lon="1.89582">
        <ele>195</ele>
        <time>2018-07-15T07:55:16Z</time>
      </trkpt>
      <trkpt lat="43.93459" lon="1.89587">
        <ele>195</ele>
        <time>2018-07-15T07:55:17Z</time>
      </trkpt>
      <trkpt lat="43.93457" lon="1.89592">
        <ele>195</ele>
        <time>2018-07-15T07:55:18Z</time>
      </trkpt>
      <trkpt lat="43.93453" lon="1.89597">
        <ele>195</ele>
        <time>2018-07-15T07:55:19Z</time>
      </trkpt>
      <trkpt lat="43.9345" lon="1.89602">
        <ele>195</ele>
        <time>2018-07-15T07:55:20Z</time>
      </trkpt>
      <trkpt lat="43.93447" lon="1.89608">
        <ele>195</ele>
        <time>2018-07-15T07:55:21Z</time>
      </trkpt>
      <trkpt lat="43.93444" lon="1.89613">
        <ele>195</ele>
        <time>2018-07-15T07:55:22Z</time>
      </trkpt>
      <trkpt lat="43.93441" lon="1.89618">
        <ele>195</ele>
        <time>2018-07-15T07:55:23Z</time>
      </trkpt>
      <trkpt lat="43.93438" lon="1.89623">
        <ele>196</ele>
        <time>2018-07-15T07:55:24Z</time>
      </trkpt>
      <trkpt lat="43.93436" lon="1.89628">
        <ele>195</ele>
        <time>2018-07-15T07:55:25Z</time>
      </trkpt>
      <trkpt lat="43.93432" lon="1.89633">
        <ele>195</ele>
        <time>2018-07-15T07:55:26Z</time>
      </trkpt>
      <trkpt lat="43.93429" lon="1.89639">
        <ele>196</ele>
        <time>2018-07-15T07:55:27Z</time>
      </trkpt>
      <trkpt lat="43.93427" lon="1.89644">
        <ele>196</ele>
        <time>2018-07-15T07:55:28Z</time>
      </trkpt>
      <trkpt lat="43.93424" lon="1.8965">
        <ele>196</ele>
        <time>2018-07-15T07:55:29Z</time>
      </trkpt>
      <trkpt lat="43.9342" lon="1.89655">
        <ele>196</ele>
        <time>2018-07-15T07:55:30Z</time>
      </trkpt>
      <trkpt lat="43.93417" lon="1.8966">
        <ele>196</ele>
        <time>2018-07-15T07:55:31Z</time>
      </trkpt>
      <trkpt lat="43.93414" lon="1.89665">
        <ele>196</ele>
        <time>2018-07-15T07:55:32Z</time>
      </trkpt>
      <trkpt lat="43.93412" lon="1.8967">
        <ele>197</ele>
        <time>2018-07-15T07:55:33Z</time>
      </trkpt>
      <trkpt lat="43.93409" lon="1.89676">
        <ele>196</ele>
        <time>2018-07-15T07:55:34Z</time>
      </trkpt>
      <trkpt lat="43.93406" lon="1.89681">
        <ele>197</ele>
        <time>2018-07-15T07:55:35Z</time>
      </trkpt>
      <trkpt lat="43.93403" lon="1.89686">
        <ele>196</ele>
        <time>2018-07-15T07:55:36Z</time>
      </trkpt>
      <trkpt lat="43.93401" lon="1.89692">
        <ele>196</ele>
        <time>2018-07-15T07:55:37Z</time>
      </trkpt>
      <trkpt lat="43.93397" lon="1.89698">
        <ele>196</ele>
        <time>2018-07-15T07:55:38Z</time>
      </trkpt>
      <trkpt lat="43.93394" lon="1.89704">
        <ele>196</ele>
        <time>2018-07-15T07:55:39Z</time>
      </trkpt>
      <trkpt lat="43.93391" lon="1.8971">
        <ele>196</ele>
        <time>2018-07-15T07:55:40Z</time>
      </trkpt>
      <trkpt lat="43.93388" lon="1.89717">
        <ele>196</ele>
        <time>2018-07-15T07:55:41Z</time>
      </trkpt>
      <trkpt lat="43.93384" lon="1.89724">
        <ele>195</ele>
        <time>2018-07-15T07:55:42Z</time>
      </trkpt>
      <trkpt lat="43.93381" lon="1.89731">
        <ele>195</ele>
        <time>2018-07-15T07:55:43Z</time>
      </trkpt>
      <trkpt lat="43.93377" lon="1.89739">
        <ele>195</ele>
        <time>2018-07-15T07:55:44Z</time>
      </trkpt>
      <trkpt lat="43.93373" lon="1.89748">
        <ele>194</ele>
        <time>2018-07-15T07:55:45Z</time>
      </trkpt>
      <trkpt lat="43.9337" lon="1.89757">
        <ele>194</ele>
        <time>2018-07-15T07:55:46Z</time>
      </trkpt>
      <trkpt lat="43.93366" lon="1.89766">
        <ele>193</ele>
        <time>2018-07-15T07:55:47Z</time>
      </trkpt>
      <trkpt lat="43.93362" lon="1.89776">
        <ele>193</ele>
        <time>2018-07-15T07:55:48Z</time>
      </trkpt>
      <trkpt lat="43.93357" lon="1.89786">
        <ele>192</ele>
        <time>2018-07-15T07:55:49Z</time>
      </trkpt>
      <trkpt lat="43.93353" lon="1.89795">
        <ele>191</ele>
        <time>2018-07-15T07:55:50Z</time>
      </trkpt>
      <trkpt lat="43.93348" lon="1.89806">
        <ele>190</ele>
        <time>2018-07-15T07:55:51Z</time>
      </trkpt>
      <trkpt lat="43.93343" lon="1.89816">
        <ele>190</ele>
        <time>2018-07-15T07:55:52Z</time>
      </trkpt>
      <trkpt lat="43.93338" lon="1.89826">
        <ele>190</ele>
        <time>2018-07-15T07:55:53Z</time>
      </trkpt>
      <trkpt lat="43.93333" lon="1.89836">
        <ele>189</ele>
        <time>2018-07-15T07:55:54Z</time>
      </trkpt>
      <trkpt lat="43.93328" lon="1.89846">
        <ele>188</ele>
        <time>2018-07-15T07:55:55Z</time>
      </trkpt>
      <trkpt lat="43.93323" lon="1.89856">
        <ele>187</ele>
        <time>2018-07-15T07:55:56Z</time>
      </trkpt>
      <trkpt lat="43.93317" lon="1.89866">
        <ele>188</ele>
        <time>2018-07-15T07:55:57Z</time>
      </trkpt>
      <trkpt lat="43.93311" lon="1.89875">
        <ele>187</ele>
        <time>2018-07-15T07:55:58Z</time>
      </trkpt>
      <trkpt lat="43.93305" lon="1.89884">
        <ele>187</ele>
        <time>2018-07-15T07:55:59Z</time>
      </trkpt>
      <trkpt lat="43.93299" lon="1.89893">
        <ele>187</ele>
        <time>2018-07-15T07:56:00Z</time>
      </trkpt>
      <trkpt lat="43.93293" lon="1.89902">
        <ele>186</ele>
        <time>2018-07-15T07:56:01Z</time>
      </trkpt>
      <trkpt lat="43.93287" lon="1.8991">
        <ele>186</ele>
        <time>2018-07-15T07:56:02Z</time>
      </trkpt>
      <trkpt lat="43.93281" lon="1.89918">
        <ele>186</ele>
        <time>2018-07-15T07:56:03Z</time>
      </trkpt>
      <trkpt lat="43.93275" lon="1.89927">
        <ele>186</ele>
        <time>2018-07-15T07:56:04Z</time>
      </trkpt>
      <trkpt lat="43.93269" lon="1.89934">
        <ele>186</ele>
        <time>2018-07-15T07:56:05Z</time>
      </trkpt>
      <trkpt lat="43.93264" lon="1.89942">
        <ele>186</ele>
        <time>2018-07-15T07:56:06Z</time>
      </trkpt>
      <trkpt lat="43.93258" lon="1.8995">
        <ele>186</ele>
        <time>2018-07-15T07:56:07Z</time>
      </trkpt>
      <trkpt lat="43.93253" lon="1.89958">
        <ele>186</ele>
        <time>2018-07-15T07:56:08Z</time>
      </trkpt>
      <trkpt lat="43.93247" lon="1.89966">
        <ele>186</ele>
        <time>2018-07-15T07:56:09Z</time>
      </trkpt>
      <trkpt lat="43.93242" lon="1.89974">
        <ele>186</ele>
        <time>2018-07-15T07:56:10Z</time>
      </trkpt>
      <trkpt lat="43.93237" lon="1.89981">
        <ele>186</ele>
        <time>2018-07-15T07:56:11Z</time>
      </trkpt>
      <trkpt lat="43.93232" lon="1.89989">
        <ele>185</ele>
        <time>2018-07-15T07:56:12Z</time>
      </trkpt>
      <trkpt lat="43.93226" lon="1.89997">
        <ele>185</ele>
        <time>2018-07-15T07:56:13Z</time>
      </trkpt>
      <trkpt lat="43.93221" lon="1.90005">
        <ele>185</ele>
        <time>2018-07-15T07:56:14Z</time>
      </trkpt>
      <trkpt lat="43.93216" lon="1.90014">
        <ele>185</ele>
        <time>2018-07-15T07:56:15Z</time>
      </trkpt>
      <trkpt lat="43.93211" lon="1.90023">
        <ele>184</ele>
        <time>2018-07-15T07:56:16Z</time>
      </trkpt>
      <trkpt lat="43.93207" lon="1.90033">
        <ele>183</ele>
        <time>2018-07-15T07:56:17Z</time>
      </trkpt>
      <trkpt lat="43.93203" lon="1.90043">
        <ele>183</ele>
        <time>2018-07-15T07:56:18Z</time>
      </trkpt>
      <trkpt lat="43.93199" lon="1.90054">
        <ele>182</ele>
        <time>2018-07-15T07:56:19Z</time>
      </trkpt>
      <trkpt lat="43.93195" lon="1.90064">
        <ele>182</ele>
        <time>2018-07-15T07:56:20Z</time>
      </trkpt>
      <trkpt lat="43.93192" lon="1.90075">
        <ele>182</ele>
        <time>2018-07-15T07:56:21Z</time>
      </trkpt>
      <trkpt lat="43.93188" lon="1.90086">
        <ele>181</ele>
        <time>2018-07-15T07:56:22Z</time>
      </trkpt>
      <trkpt lat="43.93184" lon="1.90096">
        <ele>180</ele>
        <time>2018-07-15T07:56:23Z</time>
      </trkpt>
      <trkpt lat="43.9318" lon="1.90107">
        <ele>180</ele>
        <time>2018-07-15T07:56:24Z</time>
      </trkpt>
      <trkpt lat="43.93176" lon="1.90118">
        <ele>180</ele>
        <time>2018-07-15T07:56:25Z</time>
      </trkpt>
      <trkpt lat="43.93172" lon="1.90129">
        <ele>180</ele>
        <time>2018-07-15T07:56:26Z</time>
      </trkpt>
      <trkpt lat="43.93168" lon="1.9014">
        <ele>179</ele>
        <time>2018-07-15T07:56:27Z</time>
      </trkpt>
      <trkpt lat="43.93163" lon="1.90151">
        <ele>179</ele>
        <time>2018-07-15T07:56:28Z</time>
      </trkpt>
      <trkpt lat="43.9316" lon="1.90163">
        <ele>179</ele>
        <time>2018-07-15T07:56:29Z</time>
      </trkpt>
      <trkpt lat="43.93155" lon="1.90174">
        <ele>178</ele>
        <time>2018-07-15T07:56:30Z</time>
      </trkpt>
      <trkpt lat="43.93151" lon="1.90184">
        <ele>178</ele>
        <time>2018-07-15T07:56:31Z</time>
      </trkpt>
      <trkpt lat="43.93147" lon="1.90195">
        <ele>177</ele>
        <time>2018-07-15T07:56:32Z</time>
      </trkpt>
      <trkpt lat="43.93143" lon="1.90206">
        <ele>177</ele>
        <time>2018-07-15T07:56:33Z</time>
      </trkpt>
      <trkpt lat="43.9314" lon="1.90218">
        <ele>177</ele>
        <time>2018-07-15T07:56:34Z</time>
      </trkpt>
      <trkpt lat="43.93139" lon="1.9023">
        <ele>176</ele>
        <time>2018-07-15T07:56:35Z</time>
      </trkpt>
      <trkpt lat="43.93139" lon="1.90242">
        <ele>176</ele>
        <time>2018-07-15T07:56:36Z</time>
      </trkpt>
      <trkpt lat="43.93139" lon="1.90254">
        <ele>176</ele>
        <time>2018-07-15T07:56:37Z</time>
      </trkpt>
      <trkpt lat="43.9314" lon="1.90266">
        <ele>175</ele>
        <time>2018-07-15T07:56:38Z</time>
      </trkpt>
      <trkpt lat="43.9314" lon="1.90278">
        <ele>175</ele>
        <time>2018-07-15T07:56:39Z</time>
      </trkpt>
      <trkpt lat="43.93139" lon="1.90289">
        <ele>175</ele>
        <time>2018-07-15T07:56:40Z</time>
      </trkpt>
      <trkpt lat="43.93136" lon="1.90299">
        <ele>175</ele>
        <time>2018-07-15T07:56:41Z</time>
      </trkpt>
      <trkpt lat="43.93134" lon="1.90309">
        <ele>175</ele>
        <time>2018-07-15T07:56:42Z</time>
      </trkpt>
      <trkpt lat="43.93131" lon="1.90319">
        <ele>176</ele>
        <time>2018-07-15T07:56:43Z</time>
      </trkpt>
      <trkpt lat="43.93128" lon="1.90328">
        <ele>176</ele>
        <time>2018-07-15T07:56:44Z</time>
      </trkpt>
      <trkpt lat="43.93125" lon="1.90337">
        <ele>176</ele>
        <time>2018-07-15T07:56:45Z</time>
      </trkpt>
      <trkpt lat="43.93122" lon="1.90345">
        <ele>176</ele>
        <time>2018-07-15T07:56:46Z</time>
      </trkpt>
      <trkpt lat="43.93119" lon="1.90353">
        <ele>176</ele>
        <time>2018-07-15T07:56:47Z</time>
      </trkpt>
      <trkpt lat="43.93116" lon="1.90362">
        <ele>176</ele>
        <time>2018-07-15T07:56:48Z</time>
      </trkpt>
      <trkpt lat="43.93113" lon="1.9037">
        <ele>177</ele>
        <time>2018-07-15T07:56:49Z</time>
      </trkpt>
      <trkpt lat="43.93111" lon="1.90378">
        <ele>177</ele>
        <time>2018-07-15T07:56:50Z</time>
      </trkpt>
      <trkpt lat="43.93108" lon="1.90386">
        <ele>177</ele>
        <time>2018-07-15T07:56:51Z</time>
      </trkpt>
      <trkpt lat="43.93105" lon="1.90394">
        <ele>177</ele>
        <time>2018-07-15T07:56:52Z</time>
      </trkpt>
      <trkpt lat="43.93102" lon="1.90402">
        <ele>177</ele>
        <time>2018-07-15T07:56:53Z</time>
      </trkpt>
      <trkpt lat="43.93099" lon="1.9041">
        <ele>177</ele>
        <time>2018-07-15T07:56:54Z</time>
      </trkpt>
      <trkpt lat="43.93097" lon="1.90418">
        <ele>177</ele>
        <time>2018-07-15T07:56:55Z</time>
      </trkpt>
      <trkpt lat="43.93094" lon="1.90426">
        <ele>177</ele>
        <time>2018-07-15T07:56:56Z</time>
      </trkpt>
      <trkpt lat="43.93091" lon="1.90434">
        <ele>177</ele>
        <time>2018-07-15T07:56:57Z</time>
      </trkpt>
      <trkpt lat="43.93089" lon="1.90443">
        <ele>177</ele>
        <time>2018-07-15T07:56:58Z</time>
      </trkpt>
      <trkpt lat="43.93086" lon="1.90452">
        <ele>177</ele>
        <time>2018-07-15T07:56:59Z</time>
      </trkpt>
      <trkpt lat="43.93084" lon="1.90461">
        <ele>176</ele>
        <time>2018-07-15T07:57:00Z</time>
      </trkpt>
      <trkpt lat="43.93081" lon="1.9047">
        <ele>176</ele>
        <time>2018-07-15T07:57:01Z</time>
      </trkpt>
      <trkpt lat="43.93079" lon="1.9048">
        <ele>175</ele>
        <time>2018-07-15T07:57:02Z</time>
      </trkpt>
      <trkpt lat="43.93076" lon="1.9049">
        <ele>175</ele>
        <time>2018-07-15T07:57:03Z</time>
      </trkpt>
      <trkpt lat="43.93073" lon="1.90501">
        <ele>175</ele>
        <time>2018-07-15T07:57:04Z</time>
      </trkpt>
      <trkpt lat="43.9307" lon="1.90511">
        <ele>175</ele>
        <time>2018-07-15T07:57:05Z</time>
      </trkpt>
      <trkpt lat="43.93067" lon="1.90522">
        <ele>174</ele>
        <time>2018-07-15T07:57:06Z</time>
      </trkpt>
      <trkpt lat="43.93063" lon="1.90533">
        <ele>173</ele>
        <time>2018-07-15T07:57:07Z</time>
      </trkpt>
      <trkpt lat="43.9306" lon="1.90544">
        <ele>172</ele>
        <time>2018-07-15T07:57:08Z</time>
      </trkpt>
      <trkpt lat="43.93057" lon="1.90556">
        <ele>171</ele>
        <time>2018-07-15T07:57:09Z</time>
      </trkpt>
      <trkpt lat="43.93054" lon="1.90567">
        <ele>171</ele>
        <time>2018-07-15T07:57:10Z</time>
      </trkpt>
      <trkpt lat="43.93051" lon="1.90579">
        <ele>170</ele>
        <time>2018-07-15T07:57:11Z</time>
      </trkpt>
      <trkpt lat="43.93048" lon="1.90591">
        <ele>170</ele>
        <time>2018-07-15T07:57:12Z</time>
      </trkpt>
      <trkpt lat="43.93045" lon="1.90603">
        <ele>169</ele>
        <time>2018-07-15T07:57:13Z</time>
      </trkpt>
      <trkpt lat="43.93041" lon="1.90615">
        <ele>169</ele>
        <time>2018-07-15T07:57:14Z</time>
      </trkpt>
      <trkpt lat="43.93038" lon="1.90627">
        <ele>168</ele>
        <time>2018-07-15T07:57:15Z</time>
      </trkpt>
      <trkpt lat="43.93035" lon="1.90639">
        <ele>168</ele>
        <time>2018-07-15T07:57:16Z</time>
      </trkpt>
      <trkpt lat="43.93031" lon="1.9065">
        <ele>167</ele>
        <time>2018-07-15T07:57:17Z</time>
      </trkpt>
      <trkpt lat="43.93028" lon="1.90661">
        <ele>167</ele>
        <time>2018-07-15T07:57:18Z</time>
      </trkpt>
      <trkpt lat="43.93024" lon="1.90673">
        <ele>167</ele>
        <time>2018-07-15T07:57:19Z</time>
      </trkpt>
      <trkpt lat="43.9302" lon="1.90684">
        <ele>167</ele>
        <time>2018-07-15T07:57:20Z</time>
      </trkpt>
      <trkpt lat="43.93016" lon="1.90695">
        <ele>167</ele>
        <time>2018-07-15T07:57:21Z</time>
      </trkpt>
      <trkpt lat="43.93012" lon="1.90706">
        <ele>167</ele>
        <time>2018-07-15T07:57:22Z</time>
      </trkpt>
      <trkpt lat="43.93008" lon="1.90717">
        <ele>167</ele>
        <time>2018-07-15T07:57:23Z</time>
      </trkpt>
      <trkpt lat="43.93005" lon="1.90729">
        <ele>166</ele>
        <time>2018-07-15T07:57:24Z</time>
      </trkpt>
      <trkpt lat="43.93001" lon="1.9074">
        <ele>166</ele>
        <time>2018-07-15T07:57:25Z</time>
      </trkpt>
      <trkpt lat="43.92997" lon="1.90752">
        <ele>165</ele>
        <time>2018-07-15T07:57:26Z</time>
      </trkpt>
      <trkpt lat="43.92994" lon="1.90763">
        <ele>165</ele>
        <time>2018-07-15T07:57:27Z</time>
      </trkpt>
      <trkpt lat="43.92991" lon="1.90775">
        <ele>164</ele>
        <time>2018-07-15T07:57:28Z</time>
      </trkpt>
      <trkpt lat="43.92987" lon="1.90786">
        <ele>164</ele>
        <time>2018-07-15T07:57:29Z</time>
      </trkpt>
      <trkpt lat="43.92984" lon="1.90798">
        <ele>164</ele>
        <time>2018-07-15T07:57:30Z</time>
      </trkpt>
      <trkpt lat="43.92981" lon="1.90808">
        <ele>164</ele>
        <time>2018-07-15T07:57:31Z</time>
      </trkpt>
      <trkpt lat="43.92977" lon="1.90819">
        <ele>163</ele>
        <time>2018-07-15T07:57:32Z</time>
      </trkpt>
      <trkpt lat="43.92974" lon="1.90829">
        <ele>163</ele>
        <time>2018-07-15T07:57:33Z</time>
      </trkpt>
      <trkpt lat="43.92971" lon="1.90839">
        <ele>162</ele>
        <time>2018-07-15T07:57:34Z</time>
      </trkpt>
      <trkpt lat="43.92967" lon="1.90849">
        <ele>161</ele>
        <time>2018-07-15T07:57:35Z</time>
      </trkpt>
      <trkpt lat="43.92964" lon="1.90859">
        <ele>161</ele>
        <time>2018-07-15T07:57:36Z</time>
      </trkpt>
      <trkpt lat="43.9296" lon="1.90869">
        <ele>160</ele>
        <time>2018-07-15T07:57:37Z</time>
      </trkpt>
      <trkpt lat="43.92956" lon="1.90878">
        <ele>160</ele>
        <time>2018-07-15T07:57:38Z</time>
      </trkpt>
      <trkpt lat="43.92953" lon="1.90888">
        <ele>159</ele>
        <time>2018-07-15T07:57:39Z</time>
      </trkpt>
      <trkpt lat="43.92949" lon="1.90897">
        <ele>159</ele>
        <time>2018-07-15T07:57:40Z</time>
      </trkpt>
      <trkpt lat="43.92946" lon="1.90907">
        <ele>158</ele>
        <time>2018-07-15T07:57:41Z</time>
      </trkpt>
      <trkpt lat="43.92941" lon="1.90916">
        <ele>157</ele>
        <time>2018-07-15T07:57:42Z</time>
      </trkpt>
      <trkpt lat="43.92936" lon="1.90925">
        <ele>156</ele>
        <time>2018-07-15T07:57:43Z</time>
      </trkpt>
      <trkpt lat="43.92931" lon="1.90934">
        <ele>156</ele>
        <time>2018-07-15T07:57:44Z</time>
      </trkpt>
      <trkpt lat="43.92924" lon="1.90942">
        <ele>154</ele>
        <time>2018-07-15T07:57:45Z</time>
      </trkpt>
      <trkpt lat="43.92917" lon="1.9095">
        <ele>153</ele>
        <time>2018-07-15T07:57:46Z</time>
      </trkpt>
      <trkpt lat="43.9291" lon="1.90957">
        <ele>152</ele>
        <time>2018-07-15T07:57:47Z</time>
      </trkpt>
      <trkpt lat="43.92902" lon="1.90964">
        <ele>151</ele>
        <time>2018-07-15T07:57:48Z</time>
      </trkpt>
      <trkpt lat="43.92894" lon="1.90971">
        <ele>149</ele>
        <time>2018-07-15T07:57:49Z</time>
      </trkpt>
      <trkpt lat="43.92886" lon="1.90978">
        <ele>149</ele>
        <time>2018-07-15T07:57:50Z</time>
      </trkpt>
      <trkpt lat="43.92877" lon="1.90986">
        <ele>147</ele>
        <time>2018-07-15T07:57:51Z</time>
      </trkpt>
      <trkpt lat="43.92869" lon="1.90996">
        <ele>146</ele>
        <time>2018-07-15T07:57:52Z</time>
      </trkpt>
      <trkpt lat="43.92861" lon="1.91006">
        <ele>145</ele>
        <time>2018-07-15T07:57:53Z</time>
      </trkpt>
      <trkpt lat="43.92853" lon="1.91016">
        <ele>144</ele>
        <time>2018-07-15T07:57:54Z</time>
      </trkpt>
      <trkpt lat="43.92844" lon="1.91027">
        <ele>142</ele>
        <time>2018-07-15T07:57:55Z</time>
      </trkpt>
      <trkpt lat="43.92836" lon="1.91038">
        <ele>140</ele>
        <time>2018-07-15T07:57:56Z</time>
      </trkpt>
      <trkpt lat="43.92828" lon="1.91049">
        <ele>139</ele>
        <time>2018-07-15T07:57:57Z</time>
      </trkpt>
      <trkpt lat="43.92819" lon="1.91059">
        <ele>137</ele>
        <time>2018-07-15T07:57:58Z</time>
      </trkpt>
      <trkpt lat="43.9281" lon="1.9107">
        <ele>137</ele>
        <time>2018-07-15T07:57:59Z</time>
      </trkpt>
      <trkpt lat="43.92802" lon="1.9108">
        <ele>137</ele>
        <time>2018-07-15T07:58:00Z</time>
      </trkpt>
      <trkpt lat="43.92794" lon="1.9109">
        <ele>136</ele>
        <time>2018-07-15T07:58:01Z</time>
      </trkpt>
      <trkpt lat="43.92786" lon="1.91099">
        <ele>136</ele>
        <time>2018-07-15T07:58:02Z</time>
      </trkpt>
      <trkpt lat="43.92779" lon="1.91107">
        <ele>136</ele>
        <time>2018-07-15T07:58:03Z</time>
      </trkpt>
      <trkpt lat="43.92773" lon="1.91114">
        <ele>137</ele>
        <time>2018-07-15T07:58:04Z</time>
      </trkpt>
      <trkpt lat="43.92768" lon="1.91119">
        <ele>138</ele>
        <time>2018-07-15T07:58:05Z</time>
      </trkpt>
      <trkpt lat="43.92763" lon="1.91124">
        <ele>138</ele>
        <time>2018-07-15T07:58:06Z</time>
      </trkpt>
      <trkpt lat="43.9276" lon="1.91128">
        <ele>138</ele>
        <time>2018-07-15T07:58:07Z</time>
      </trkpt>
      <trkpt lat="43.92757" lon="1.91134">
        <ele>139</ele>
        <time>2018-07-15T07:58:08Z</time>
      </trkpt>
      <trkpt lat="43.92755" lon="1.9114">
        <ele>139</ele>
        <time>2018-07-15T07:58:09Z</time>
      </trkpt>
      <trkpt lat="43.92755" lon="1.91147">
        <ele>139</ele>
        <time>2018-07-15T07:58:10Z</time>
      </trkpt>
      <trkpt lat="43.92754" lon="1.91154">
        <ele>139</ele>
        <time>2018-07-15T07:58:11Z</time>
      </trkpt>
      <trkpt lat="43.92755" lon="1.91162">
        <ele>138</ele>
        <time>2018-07-15T07:58:12Z</time>
      </trkpt>
      <trkpt lat="43.92755" lon="1.9117">
        <ele>138</ele>
        <time>2018-07-15T07:58:13Z</time>
      </trkpt>
      <trkpt lat="43.92756" lon="1.91177">
        <ele>138</ele>
        <time>2018-07-15T07:58:14Z</time>
      </trkpt>
      <trkpt lat="43.92756" lon="1.91185">
        <ele>138</ele>
        <time>2018-07-15T07:58:15Z</time>
      </trkpt>
      <trkpt lat="43.92756" lon="1.91193">
        <ele>138</ele>
        <time>2018-07-15T07:58:16Z</time>
      </trkpt>
      <trkpt lat="43.92756" lon="1.91202">
        <ele>138</ele>
        <time>2018-07-15T07:58:17Z</time>
      </trkpt>
      <trkpt lat="43.92756" lon="1.9121">
        <ele>138</ele>
        <time>2018-07-15T07:58:18Z</time>
      </trkpt>
      <trkpt lat="43.92756" lon="1.91218">
        <ele>138</ele>
        <time>2018-07-15T07:58:19Z</time>
      </trkpt>
      <trkpt lat="43.92754" lon="1.91227">
        <ele>138</ele>
        <time>2018-07-15T07:58:20Z</time>
      </trkpt>
      <trkpt lat="43.92752" lon="1.91235">
        <ele>138</ele>
        <time>2018-07-15T07:58:21Z</time>
      </trkpt>
      <trkpt lat="43.92749" lon="1.91242">
        <ele>138</ele>
        <time>2018-07-15T07:58:22Z</time>
      </trkpt>
      <trkpt lat="43.92744" lon="1.91248">
        <ele>138</ele>
        <time>2018-07-15T07:58:23Z</time>
      </trkpt>
      <trkpt lat="43.9274" lon="1.91254">
        <ele>138</ele>
        <time>2018-07-15T07:58:24Z</time>
      </trkpt>
      <trkpt lat="43.92735" lon="1.91261">
        <ele>138</ele>
        <time>2018-07-15T07:58:25Z</time>
      </trkpt>
      <trkpt lat="43.92731" lon="1.91269">
        <ele>138</ele>
        <time>2018-07-15T07:58:26Z</time>
      </trkpt>
      <trkpt lat="43.9273" lon="1.91278">
        <ele>137</ele>
        <time>2018-07-15T07:58:27Z</time>
      </trkpt>
      <trkpt lat="43.92729" lon="1.91287">
        <ele>137</ele>
        <time>2018-07-15T07:58:28Z</time>
      </trkpt>
      <trkpt lat="43.92731" lon="1.91296">
        <ele>137</ele>
        <time>2018-07-15T07:58:29Z</time>
      </trkpt>
      <trkpt lat="43.92733" lon="1.91305">
        <ele>137</ele>
        <time>2018-07-15T07:58:30Z</time>
      </trkpt>
      <trkpt lat="43.92736" lon="1.91313">
        <ele>137</ele>
        <time>2018-07-15T07:58:31Z</time>
      </trkpt>
      <trkpt lat="43.92738" lon="1.91322">
        <ele>137</ele>
        <time>2018-07-15T07:58:32Z</time>
      </trkpt>
      <trkpt lat="43.92738" lon="1.91332">
        <ele>137</ele>
        <time>2018-07-15T07:58:33Z</time>
      </trkpt>
      <trkpt lat="43.92737" lon="1.91341">
        <ele>137</ele>
        <time>2018-07-15T07:58:34Z</time>
      </trkpt>
      <trkpt lat="43.92736" lon="1.91349">
        <ele>137</ele>
        <time>2018-07-15T07:58:35Z</time>
      </trkpt>
      <trkpt lat="43.92735" lon="1.91358">
        <ele>137</ele>
        <time>2018-07-15T07:58:36Z</time>
      </trkpt>
      <trkpt lat="43.92734" lon="1.91367">
        <ele>137</ele>
        <time>2018-07-15T07:58:37Z</time>
      </trkpt>
      <trkpt lat="43.92733" lon="1.91376">
        <ele>138</ele>
        <time>2018-07-15T07:58:38Z</time>
      </trkpt>
      <trkpt lat="43.92732" lon="1.91385">
        <ele>138</ele>
        <time>2018-07-15T07:58:39Z</time>
      </trkpt>
      <trkpt lat="43.92732" lon="1.91394">
        <ele>138</ele>
        <time>2018-07-15T07:58:40Z</time>
      </trkpt>
      <trkpt lat="43.92731" lon="1.91403">
        <ele>138</ele>
        <time>2018-07-15T07:58:41Z</time>
      </trkpt>
      <trkpt lat="43.9273" lon="1.91412">
        <ele>138</ele>
        <time>2018-07-15T07:58:42Z</time>
      </trkpt>
      <trkpt lat="43.9273" lon="1.91422">
        <ele>137</ele>
        <time>2018-07-15T07:58:43Z</time>
      </trkpt>
      <trkpt lat="43.92729" lon="1.91431">
        <ele>137</ele>
        <time>2018-07-15T07:58:44Z</time>
      </trkpt>
      <trkpt lat="43.92729" lon="1.91441">
        <ele>137</ele>
        <time>2018-07-15T07:58:45Z</time>
      </trkpt>
      <trkpt lat="43.92729" lon="1.9145">
        <ele>137</ele>
        <time>2018-07-15T07:58:46Z</time>
      </trkpt>
      <trkpt lat="43.92728" lon="1.9146">
        <ele>137</ele>
        <time>2018-07-15T07:58:47Z</time>
      </trkpt>
      <trkpt lat="43.92728" lon="1.9147">
        <ele>137</ele>
        <time>2018-07-15T07:58:48Z</time>
      </trkpt>
      <trkpt lat="43.92727" lon="1.9148">
        <ele>137</ele>
        <time>2018-07-15T07:58:49Z</time>
      </trkpt>
      <trkpt lat="43.92727" lon="1.91489">
        <ele>137</ele>
        <time>2018-07-15T07:58:50Z</time>
      </trkpt>
      <trkpt lat="43.92727" lon="1.91499">
        <ele>137</ele>
        <time>2018-07-15T07:58:51Z</time>
      </trkpt>
      <trkpt lat="43.92726" lon="1.91509">
        <ele>137</ele>
        <time>2018-07-15T07:58:52Z</time>
      </trkpt>
      <trkpt lat="43.92726" lon="1.91519">
        <ele>137</ele>
        <time>2018-07-15T07:58:53Z</time>
      </trkpt>
      <trkpt lat="43.92726" lon="1.91529">
        <ele>137</ele>
        <time>2018-07-15T07:58:54Z</time>
      </trkpt>
      <trkpt lat="43.92725" lon="1.91538">
        <ele>137</ele>
        <time>2018-07-15T07:58:55Z</time>
      </trkpt>
      <trkpt lat="43.92725" lon="1.91548">
        <ele>137</ele>
        <time>2018-07-15T07:58:56Z</time>
      </trkpt>
      <trkpt lat="43.92724" lon="1.91558">
        <ele>137</ele>
        <time>2018-07-15T07:58:57Z</time>
      </trkpt>
      <trkpt lat="43.92723" lon="1.91568">
        <ele>137</ele>
        <time>2018-07-15T07:58:58Z</time>
      </trkpt>
      <trkpt lat="43.92722" lon="1.91577">
        <ele>138</ele>
        <time>2018-07-15T07:58:59Z</time>
      </trkpt>
      <trkpt lat="43.92721" lon="1.91587">
        <ele>137</ele>
        <time>2018-07-15T07:59:00Z</time>
      </trkpt>
      <trkpt lat="43.9272" lon="1.91597">
        <ele>138</ele>
        <time>2018-07-15T07:59:01Z</time>
      </trkpt>
      <trkpt lat="43.92718" lon="1.91606">
        <ele>138</ele>
        <time>2018-07-15T07:59:02Z</time>
      </trkpt>
      <trkpt lat="43.92717" lon="1.91616">
        <ele>138</ele>
        <time>2018-07-15T07:59:03Z</time>
      </trkpt>
      <trkpt lat="43.92715" lon="1.91626">
        <ele>138</ele>
        <time>2018-07-15T07:59:04Z</time>
      </trkpt>
      <trkpt lat="43.92714" lon="1.91635">
        <ele>138</ele>
        <time>2018-07-15T07:59:05Z</time>
      </trkpt>
      <trkpt lat="43.92712" lon="1.91645">
        <ele>138</ele>
        <time>2018-07-15T07:59:06Z</time>
      </trkpt>
      <trkpt lat="43.92711" lon="1.91654">
        <ele>138</ele>
        <time>2018-07-15T07:59:07Z</time>
      </trkpt>
      <trkpt lat="43.92709" lon="1.91664">
        <ele>138</ele>
        <time>2018-07-15T07:59:08Z</time>
      </trkpt>
      <trkpt lat="43.92708" lon="1.91674">
        <ele>138</ele>
        <time>2018-07-15T07:59:09Z</time>
      </trkpt>
      <trkpt lat="43.92707" lon="1.91684">
        <ele>138</ele>
        <time>2018-07-15T07:59:10Z</time>
      </trkpt>
      <trkpt lat="43.92706" lon="1.91694">
        <ele>138</ele>
        <time>2018-07-15T07:59:11Z</time>
      </trkpt>
      <trkpt lat="43.92705" lon="1.91705">
        <ele>138</ele>
        <time>2018-07-15T07:59:12Z</time>
      </trkpt>
      <trkpt lat="43.92704" lon="1.91715">
        <ele>137</ele>
        <time>2018-07-15T07:59:13Z</time>
      </trkpt>
      <trkpt lat="43.92703" lon="1.91725">
        <ele>138</ele>
        <time>2018-07-15T07:59:14Z</time>
      </trkpt>
      <trkpt lat="43.92703" lon="1.91736">
        <ele>138</ele>
        <time>2018-07-15T07:59:15Z</time>
      </trkpt>
      <trkpt lat="43.92702" lon="1.91746">
        <ele>138</ele>
        <time>2018-07-15T07:59:16Z</time>
      </trkpt>
      <trkpt lat="43.92701" lon="1.91756">
        <ele>138</ele>
        <time>2018-07-15T07:59:17Z</time>
      </trkpt>
      <trkpt lat="43.927" lon="1.91766">
        <ele>137</ele>
        <time>2018-07-15T07:59:18Z</time>
      </trkpt>
      <trkpt lat="43.92699" lon="1.91776">
        <ele>137</ele>
        <time>2018-07-15T07:59:19Z</time>
      </trkpt>
      <trkpt lat="43.92699" lon="1.91787">
        <ele>137</ele>
        <time>2018-07-15T07:59:20Z</time>
      </trkpt>
      <trkpt lat="43.92698" lon="1.91797">
        <ele>138</ele>
        <time>2018-07-15T07:59:21Z</time>
      </trkpt>
      <trkpt lat="43.92698" lon="1.91808">
        <ele>138</ele>
        <time>2018-07-15T07:59:22Z</time>
      </trkpt>
      <trkpt lat="43.92697" lon="1.91819">
        <ele>137</ele>
        <time>2018-07-15T07:59:23Z</time>
      </trkpt>
      <trkpt lat="43.92696" lon="1.91829">
        <ele>137</ele>
        <time>2018-07-15T07:59:24Z</time>
      </trkpt>
      <trkpt lat="43.92695" lon="1.9184">
        <ele>137</ele>
        <time>2018-07-15T07:59:25Z</time>
      </trkpt>
      <trkpt lat="43.92694" lon="1.9185">
        <ele>137</ele>
        <time>2018-07-15T07:59:26Z</time>
      </trkpt>
      <trkpt lat="43.92693" lon="1.91861">
        <ele>137</ele>
        <time>2018-07-15T07:59:27Z</time>
      </trkpt>
      <trkpt lat="43.92692" lon="1.91871">
        <ele>137</ele>
        <time>2018-07-15T07:59:28Z</time>
      </trkpt>
      <trkpt lat="43.92691" lon="1.91881">
        <ele>137</ele>
        <time>2018-07-15T07:59:29Z</time>
      </trkpt>
      <trkpt lat="43.92689" lon="1.91892">
        <ele>137</ele>
        <time>2018-07-15T07:59:30Z</time>
      </trkpt>
      <trkpt lat="43.92687" lon="1.91902">
        <ele>137</ele>
        <time>2018-07-15T07:59:31Z</time>
      </trkpt>
      <trkpt lat="43.92685" lon="1.91912">
        <ele>136</ele>
        <time>2018-07-15T07:59:32Z</time>
      </trkpt>
      <trkpt lat="43.92683" lon="1.91923">
        <ele>137</ele>
        <time>2018-07-15T07:59:33Z</time>
      </trkpt>
      <trkpt lat="43.92681" lon="1.91934">
        <ele>137</ele>
        <time>2018-07-15T07:59:34Z</time>
      </trkpt>
      <trkpt lat="43.92678" lon="1.91944">
        <ele>137</ele>
        <time>2018-07-15T07:59:35Z</time>
      </trkpt>
      <trkpt lat="43.92676" lon="1.91955">
        <ele>137</ele>
        <time>2018-07-15T07:59:36Z</time>
      </trkpt>
      <trkpt lat="43.92674" lon="1.91965">
        <ele>137</ele>
        <time>2018-07-15T07:59:37Z</time>
      </trkpt>
      <trkpt lat="43.92672" lon="1.91975">
        <ele>137</ele>
        <time>2018-07-15T07:59:38Z</time>
      </trkpt>
      <trkpt lat="43.9267" lon="1.91985">
        <ele>136</ele>
        <time>2018-07-15T07:59:39Z</time>
      </trkpt>
      <trkpt lat="43.92668" lon="1.91996">
        <ele>136</ele>
        <time>2018-07-15T07:59:40Z</time>
      </trkpt>
      <trkpt lat="43.92665" lon="1.92006">
        <ele>136</ele>
        <time>2018-07-15T07:59:41Z</time>
      </trkpt>
      <trkpt lat="43.92663" lon="1.92017">
        <ele>136</ele>
        <time>2018-07-15T07:59:42Z</time>
      </trkpt>
      <trkpt lat="43.92661" lon="1.92028">
        <ele>136</ele>
        <time>2018-07-15T07:59:43Z</time>
      </trkpt>
      <trkpt lat="43.92659" lon="1.92038">
        <ele>136</ele>
        <time>2018-07-15T07:59:44Z</time>
      </trkpt>
      <trkpt lat="43.92656" lon="1.92049">
        <ele>136</ele>
        <time>2018-07-15T07:59:45Z</time>
      </trkpt>
      <trkpt lat="43.92654" lon="1.92059">
        <ele>136</ele>
        <time>2018-07-15T07:59:46Z</time>
      </trkpt>
      <trkpt lat="43.92651" lon="1.9207">
        <ele>136</ele>
        <time>2018-07-15T07:59:47Z</time>
      </trkpt>
      <trkpt lat="43.92649" lon="1.9208">
        <ele>136</ele>
        <time>2018-07-15T07:59:48Z</time>
      </trkpt>
      <trkpt lat="43.92647" lon="1.92091">
        <ele>136</ele>
        <time>2018-07-15T07:59:49Z</time>
      </trkpt>
      <trkpt lat="43.92644" lon="1.92101">
        <ele>137</ele>
        <time>2018-07-15T07:59:50Z</time>
      </trkpt>
      <trkpt lat="43.92643" lon="1.92112">
        <ele>137</ele>
        <time>2018-07-15T07:59:51Z</time>
      </trkpt>
      <trkpt lat="43.92641" lon="1.92122">
        <ele>137</ele>
        <time>2018-07-15T07:59:52Z</time>
      </trkpt>
      <trkpt lat="43.92639" lon="1.92133">
        <ele>136</ele>
        <time>2018-07-15T07:59:53Z</time>
      </trkpt>
      <trkpt lat="43.92637" lon="1.92143">
        <ele>136</ele>
        <time>2018-07-15T07:59:54Z</time>
      </trkpt>
      <trkpt lat="43.92635" lon="1.92154">
        <ele>136</ele>
        <time>2018-07-15T07:59:55Z</time>
      </trkpt>
      <trkpt lat="43.92633" lon="1.92164">
        <ele>136</ele>
        <time>2018-07-15T07:59:56Z</time>
      </trkpt>
      <trkpt lat="43.92631" lon="1.92175">
        <ele>136</ele>
        <time>2018-07-15T07:59:57Z</time>
      </trkpt>
      <trkpt lat="43.9263" lon="1.92186">
        <ele>136</ele>
        <time>2018-07-15T07:59:58Z</time>
      </trkpt>
      <trkpt lat="43.92629" lon="1.92197">
        <ele>136</ele>
        <time>2018-07-15T07:59:59Z</time>
      </trkpt>
      <trkpt lat="43.92627" lon="1.92207">
        <ele>136</ele>
        <time>2018-07-15T08:00:00Z</time>
      </trkpt>
      <trkpt lat="43.92626" lon="1.92218">
        <ele>136</ele>
        <time>2018-07-15T08:00:01Z</time>
      </trkpt>
      <trkpt lat="43.92626" lon="1.92229">
        <ele>136</ele>
        <time>2018-07-15T08:00:02Z</time>
      </trkpt>
      <trkpt lat="43.92625" lon="1.9224">
        <ele>136</ele>
        <time>2018-07-15T08:00:03Z</time>
      </trkpt>
      <trkpt lat="43.92625" lon="1.92251">
        <ele>136</ele>
        <time>2018-07-15T08:00:04Z</time>
      </trkpt>
      <trkpt lat="43.92624" lon="1.92262">
        <ele>135</ele>
        <time>2018-07-15T08:00:05Z</time>
      </trkpt>
      <trkpt lat="43.92623" lon="1.92272">
        <ele>135</ele>
        <time>2018-07-15T08:00:06Z</time>
      </trkpt>
      <trkpt lat="43.92622" lon="1.92283">
        <ele>135</ele>
        <time>2018-07-15T08:00:07Z</time>
      </trkpt>
      <trkpt lat="43.92622" lon="1.92294">
        <ele>135</ele>
        <time>2018-07-15T08:00:08Z</time>
      </trkpt>
      <trkpt lat="43.92621" lon="1.92304">
        <ele>135</ele>
        <time>2018-07-15T08:00:09Z</time>
      </trkpt>
      <trkpt lat="43.92621" lon="1.92314">
        <ele>135</ele>
        <time>2018-07-15T08:00:10Z</time>
      </trkpt>
      <trkpt lat="43.9262" lon="1.92324">
        <ele>135</ele>
        <time>2018-07-15T08:00:11Z</time>
      </trkpt>
      <trkpt lat="43.92619" lon="1.92335">
        <ele>136</ele>
        <time>2018-07-15T08:00:12Z</time>
      </trkpt>
      <trkpt lat="43.92618" lon="1.92345">
        <ele>136</ele>
        <time>2018-07-15T08:00:13Z</time>
      </trkpt>
      <trkpt lat="43.92618" lon="1.92355">
        <ele>136</ele>
        <time>2018-07-15T08:00:14Z</time>
      </trkpt>
      <trkpt lat="43.92617" lon="1.92366">
        <ele>136</ele>
        <time>2018-07-15T08:00:15Z</time>
      </trkpt>
      <trkpt lat="43.92616" lon="1.92376">
        <ele>136</ele>
        <time>2018-07-15T08:00:16Z</time>
      </trkpt>
      <trkpt lat="43.92615" lon="1.92387">
        <ele>135</ele>
        <time>2018-07-15T08:00:17Z</time>
      </trkpt>
      <trkpt lat="43.92614" lon="1.92397">
        <ele>136</ele>
        <time>2018-07-15T08:00:18Z</time>
      </trkpt>
      <trkpt lat="43.92612" lon="1.92408">
        <ele>135</ele>
        <time>2018-07-15T08:00:19Z</time>
      </trkpt>
      <trkpt lat="43.9261" lon="1.92419">
        <ele>135</ele>
        <time>2018-07-15T08:00:20Z</time>
      </trkpt>
      <trkpt lat="43.92609" lon="1.92429">
        <ele>135</ele>
        <time>2018-07-15T08:00:21Z</time>
      </trkpt>
      <trkpt lat="43.92606" lon="1.9244">
        <ele>135</ele>
        <time>2018-07-15T08:00:22Z</time>
      </trkpt>
      <trkpt lat="43.92604" lon="1.9245">
        <ele>135</ele>
        <time>2018-07-15T08:00:23Z</time>
      </trkpt>
      <trkpt lat="43.92602" lon="1.92461">
        <ele>135</ele>
        <time>2018-07-15T08:00:24Z</time>
      </trkpt>
      <trkpt lat="43.926" lon="1.92471">
        <ele>135</ele>
        <time>2018-07-15T08:00:25Z</time>
      </trkpt>
      <trkpt lat="43.92598" lon="1.92482">
        <ele>135</ele>
        <time>2018-07-15T08:00:26Z</time>
      </trkpt>
      <trkpt lat="43.92596" lon="1.92493">
        <ele>135</ele>
        <time>2018-07-15T08:00:27Z</time>
      </trkpt>
      <trkpt lat="43.92594" lon="1.92504">
        <ele>135</ele>
        <time>2018-07-15T08:00:28Z</time>
      </trkpt>
      <trkpt lat="43.92591" lon="1.92514">
        <ele>135</ele>
        <time>2018-07-15T08:00:29Z</time>
      </trkpt>
      <trkpt lat="43.92589" lon="1.92525">
        <ele>134</ele>
        <time>2018-07-15T08:00:30Z</time>
      </trkpt>
      <trkpt lat="43.92587" lon="1.92536">
        <ele>134</ele>
        <time>2018-07-15T08:00:31Z</time>
      </trkpt>
      <trkpt lat="43.92584" lon="1.92546">
        <ele>134</ele>
        <time>2018-07-15T08:00:32Z</time>
      </trkpt>
      <trkpt lat="43.92582" lon="1.92557">
        <ele>134</ele>
        <time>2018-07-15T08:00:33Z</time>
      </trkpt>
      <trkpt lat="43.9258" lon="1.92568">
        <ele>134</ele>
        <time>2018-07-15T08:00:34Z</time>
      </trkpt>
      <trkpt lat="43.92577" lon="1.92579">
        <ele>134</ele>
        <time>2018-07-15T08:00:35Z</time>
      </trkpt>
      <trkpt lat="43.92575" lon="1.92589">
        <ele>134</ele>
        <time>2018-07-15T08:00:36Z</time>
      </trkpt>
      <trkpt lat="43.92573" lon="1.926">
        <ele>134</ele>
        <time>2018-07-15T08:00:37Z</time>
      </trkpt>
      <trkpt lat="43.92571" lon="1.92611">
        <ele>134</ele>
        <time>2018-07-15T08:00:38Z</time>
      </trkpt>
      <trkpt lat="43.92568" lon="1.92623">
        <ele>134</ele>
        <time>2018-07-15T08:00:39Z</time>
      </trkpt>
      <trkpt lat="43.92565" lon="1.92634">
        <ele>134</ele>
        <time>2018-07-15T08:00:40Z</time>
      </trkpt>
      <trkpt lat="43.92563" lon="1.92645">
        <ele>134</ele>
        <time>2018-07-15T08:00:41Z</time>
      </trkpt>
      <trkpt lat="43.92561" lon="1.92657">
        <ele>134</ele>
        <time>2018-07-15T08:00:42Z</time>
      </trkpt>
      <trkpt lat="43.92559" lon="1.92668">
        <ele>133</ele>
        <time>2018-07-15T08:00:43Z</time>
      </trkpt>
      <trkpt lat="43.92556" lon="1.9268">
        <ele>133</ele>
        <time>2018-07-15T08:00:44Z</time>
      </trkpt>
      <trkpt lat="43.92554" lon="1.92691">
        <ele>133</ele>
        <time>2018-07-15T08:00:45Z</time>
      </trkpt>
      <trkpt lat="43.92552" lon="1.92702">
        <ele>133</ele>
        <time>2018-07-15T08:00:46Z</time>
      </trkpt>
      <trkpt lat="43.92549" lon="1.92714">
        <ele>133</ele>
        <time>2018-07-15T08:00:47Z</time>
      </trkpt>
      <trkpt lat="43.92547" lon="1.92725">
        <ele>133</ele>
        <time>2018-07-15T08:00:48Z</time>
      </trkpt>
      <trkpt lat="43.92544" lon="1.92736">
        <ele>133</ele>
        <time>2018-07-15T08:00:49Z</time>
      </trkpt>
      <trkpt lat="43.92542" lon="1.92747">
        <ele>133</ele>
        <time>2018-07-15T08:00:50Z</time>
      </trkpt>
      <trkpt lat="43.92539" lon="1.92759">
        <ele>133</ele>
        <time>2018-07-15T08:00:51Z</time>
      </trkpt>
      <trkpt lat="43.92536" lon="1.9277">
        <ele>133</ele>
        <time>2018-07-15T08:00:52Z</time>
      </trkpt>
      <trkpt lat="43.92534" lon="1.92781">
        <ele>133</ele>
        <time>2018-07-15T08:00:53Z</time>
      </trkpt>
      <trkpt lat="43.92532" lon="1.92793">
        <ele>133</ele>
        <time>2018-07-15T08:00:54Z</time>
      </trkpt>
      <trkpt lat="43.9253" lon="1.92803">
        <ele>132</ele>
        <time>2018-07-15T08:00:55Z</time>
      </trkpt>
      <trkpt lat="43.92528" lon="1.92815">
        <ele>132</ele>
        <time>2018-07-15T08:00:56Z</time>
      </trkpt>
      <trkpt lat="43.92525" lon="1.92825">
        <ele>133</ele>
        <time>2018-07-15T08:00:57Z</time>
      </trkpt>
      <trkpt lat="43.92523" lon="1.92836">
        <ele>133</ele>
        <time>2018-07-15T08:00:58Z</time>
      </trkpt>
      <trkpt lat="43.9252" lon="1.92847">
        <ele>133</ele>
        <time>2018-07-15T08:00:59Z</time>
      </trkpt>
      <trkpt lat="43.92517" lon="1.92857">
        <ele>133</ele>
        <time>2018-07-15T08:01:00Z</time>
      </trkpt>
      <trkpt lat="43.92514" lon="1.92867">
        <ele>133</ele>
        <time>2018-07-15T08:01:01Z</time>
      </trkpt>
      <trkpt lat="43.92511" lon="1.92878">
        <ele>133</ele>
        <time>2018-07-15T08:01:02Z</time>
      </trkpt>
      <trkpt lat="43.92508" lon="1.92887">
        <ele>133</ele>
        <time>2018-07-15T08:01:03Z</time>
      </trkpt>
      <trkpt lat="43.92504" lon="1.92897">
        <ele>133</ele>
        <time>2018-07-15T08:01:04Z</time>
      </trkpt>
      <trkpt lat="43.92501" lon="1.92906">
        <ele>133</ele>
        <time>2018-07-15T08:01:05Z</time>
      </trkpt>
      <trkpt lat="43.92497" lon="1.92915">
        <ele>133</ele>
        <time>2018-07-15T08:01:06Z</time>
      </trkpt>
      <trkpt lat="43.92493" lon="1.92924">
        <ele>133</ele>
        <time>2018-07-15T08:01:07Z</time>
      </trkpt>
      <trkpt lat="43.9249" lon="1.92932">
        <ele>133</ele>
        <time>2018-07-15T08:01:08Z</time>
      </trkpt>
      <trkpt lat="43.92486" lon="1.9294">
        <ele>133</ele>
        <time>2018-07-15T08:01:09Z</time>
      </trkpt>
      <trkpt lat="43.92482" lon="1.92947">
        <ele>133</ele>
        <time>2018-07-15T08:01:10Z</time>
      </trkpt>
      <trkpt lat="43.92479" lon="1.92955">
        <ele>133</ele>
        <time>2018-07-15T08:01:11Z</time>
      </trkpt>
      <trkpt lat="43.92476" lon="1.92961">
        <ele>133</ele>
        <time>2018-07-15T08:01:12Z</time>
      </trkpt>
      <trkpt lat="43.92472" lon="1.92968">
        <ele>134</ele>
        <time>2018-07-15T08:01:13Z</time>
      </trkpt>
      <trkpt lat="43.92469" lon="1.92974">
        <ele>134</ele>
        <time>2018-07-15T08:01:14Z</time>
      </trkpt>
      <trkpt lat="43.92466" lon="1.92979">
        <ele>134</ele>
        <time>2018-07-15T08:01:15Z</time>
      </trkpt>
      <trkpt lat="43.92463" lon="1.92985">
        <ele>135</ele>
        <time>2018-07-15T08:01:16Z</time>
      </trkpt>
      <trkpt lat="43.9246" lon="1.9299">
        <ele>135</ele>
        <time>2018-07-15T08:01:17Z</time>
      </trkpt>
      <trkpt lat="43.92457" lon="1.92995">
        <ele>135</ele>
        <time>2018-07-15T08:01:18Z</time>
      </trkpt>
      <trkpt lat="43.92454" lon="1.92999">
        <ele>135</ele>
        <time>2018-07-15T08:01:19Z</time>
      </trkpt>
      <trkpt lat="43.92451" lon="1.93004">
        <ele>135</ele>
        <time>2018-07-15T08:01:20Z</time>
      </trkpt>
      <trkpt lat="43.92448" lon="1.93007">
        <ele>134</ele>
        <time>2018-07-15T08:01:21Z</time>
      </trkpt>
      <trkpt lat="43.92445" lon="1.93008">
        <ele>135</ele>
        <time>2018-07-15T08:01:22Z</time>
      </trkpt>
      <trkpt lat="43.92441" lon="1.93007">
        <ele>135</ele>
        <time>2018-07-15T08:01:23Z</time>
      </trkpt>
      <trkpt lat="43.92438" lon="1.93003">
        <ele>135</ele>
        <time>2018-07-15T08:01:24Z</time>
      </trkpt>
      <trkpt lat="43.92434" lon="1.93">
        <ele>135</ele>
        <time>2018-07-15T08:01:25Z</time>
      </trkpt>
      <trkpt lat="43.92431" lon="1.92996">
        <ele>134</ele>
        <time>2018-07-15T08:01:26Z</time>
      </trkpt>
      <trkpt lat="43.92427" lon="1.92991">
        <ele>134</ele>
        <time>2018-07-15T08:01:27Z</time>
      </trkpt>
      <trkpt lat="43.92424" lon="1.92986">
        <ele>134</ele>
        <time>2018-07-15T08:01:28Z</time>
      </trkpt>
      <trkpt lat="43.9242" lon="1.92982">
        <ele>134</ele>
        <time>2018-07-15T08:01:29Z</time>
      </trkpt>
      <trkpt lat="43.92415" lon="1.92978">
        <ele>133</ele>
        <time>2018-07-15T08:01:30Z</time>
      </trkpt>
      <trkpt lat="43.92411" lon="1.92973">
        <ele>133</ele>
        <time>2018-07-15T08:01:31Z</time>
      </trkpt>
      <trkpt lat="43.92407" lon="1.92969">
        <ele>133</ele>
        <time>2018-07-15T08:01:32Z</time>
      </trkpt>
      <trkpt lat="43.92403" lon="1.92964">
        <ele>133</ele>
        <time>2018-07-15T08:01:33Z</time>
      </trkpt>
      <trkpt lat="43.92399" lon="1.92959">
        <ele>133</ele>
        <time>2018-07-15T08:01:34Z</time>
      </trkpt>
      <trkpt lat="43.92395" lon="1.92954">
        <ele>133</ele>
        <time>2018-07-15T08:01:35Z</time>
      </trkpt>
      <trkpt lat="43.92391" lon="1.9295">
        <ele>133</ele>
        <time>2018-07-15T08:01:36Z</time>
      </trkpt>
      <trkpt lat="43.92387" lon="1.92945">
        <ele>133</ele>
        <time>2018-07-15T08:01:37Z</time>
      </trkpt>
      <trkpt lat="43.92383" lon="1.9294">
        <ele>133</ele>
        <time>2018-07-15T08:01:38Z</time>
      </trkpt>
      <trkpt lat="43.92378" lon="1.92935">
        <ele>133</ele>
        <time>2018-07-15T08:01:39Z</time>
      </trkpt>
      <trkpt lat="43.92374" lon="1.9293">
        <ele>133</ele>
        <time>2018-07-15T08:01:40Z</time>
      </trkpt>
      <trkpt lat="43.9237" lon="1.92925">
        <ele>133</ele>
        <time>2018-07-15T08:01:41Z</time>
      </trkpt>
      <trkpt lat="43.92366" lon="1.9292">
        <ele>133</ele>
        <time>2018-07-15T08:01:42Z</time>
      </trkpt>
      <trkpt lat="43.92361" lon="1.92915">
        <ele>133</ele>
        <time>2018-07-15T08:01:43Z</time>
      </trkpt>
      <trkpt lat="43.92357" lon="1.92909">
        <ele>133</ele>
        <time>2018-07-15T08:01:44Z</time>
      </trkpt>
      <trkpt lat="43.92353" lon="1.92904">
        <ele>133</ele>
        <time>2018-07-15T08:01:45Z</time>
      </trkpt>
      <trkpt lat="43.92349" lon="1.92898">
        <ele>133</ele>
        <time>2018-07-15T08:01:46Z</time>
      </trkpt>
      <trkpt lat="43.92344" lon="1.92893">
        <ele>133</ele>
        <time>2018-07-15T08:01:47Z</time>
      </trkpt>
      <trkpt lat="43.9234" lon="1.92887">
        <ele>133</ele>
        <time>2018-07-15T08:01:48Z</time>
      </trkpt>
      <trkpt lat="43.92335" lon="1.92882">
        <ele>133</ele>
        <time>2018-07-15T08:01:49Z</time>
      </trkpt>
      <trkpt lat="43.92331" lon="1.92877">
        <ele>133</ele>
        <time>2018-07-15T08:01:50Z</time>
      </trkpt>
      <trkpt lat="43.92326" lon="1.92871">
        <ele>133</ele>
        <time>2018-07-15T08:01:51Z</time>
      </trkpt>
      <trkpt lat="43.92322" lon="1.92866">
        <ele>133</ele>
        <time>2018-07-15T08:01:52Z</time>
      </trkpt>
      <trkpt lat="43.92317" lon="1.92861">
        <ele>133</ele>
        <time>2018-07-15T08:01:53Z</time>
      </trkpt>
      <trkpt lat="43.92313" lon="1.92856">
        <ele>133</ele>
        <time>2018-07-15T08:01:54Z</time>
      </trkpt>
      <trkpt lat="43.92308" lon="1.92851">
        <ele>133</ele>
        <time>2018-07-15T08:01:55Z</time>
      </trkpt>
      <trkpt lat="43.92304" lon="1.92845">
        <ele>133</ele>
        <time>2018-07-15T08:01:56Z</time>
      </trkpt>
      <trkpt lat="43.92299" lon="1.92841">
        <ele>133</ele>
        <time>2018-07-15T08:01:57Z</time>
      </trkpt>
      <trkpt lat="43.92294" lon="1.92836">
        <ele>133</ele>
        <time>2018-07-15T08:01:58Z</time>
      </trkpt>
      <trkpt lat="43.9229" lon="1.9283">
        <ele>133</ele>
        <time>2018-07-15T08:01:59Z</time>
      </trkpt>
      <trkpt lat="43.92285" lon="1.92825">
        <ele>133</ele>
        <time>2018-07-15T08:02:00Z</time>
      </trkpt>
      <trkpt lat="43.92281" lon="1.9282">
        <ele>133</ele>
        <time>2018-07-15T08:02:01Z</time>
      </trkpt>
      <trkpt lat="43.92276" lon="1.92815">
        <ele>133</ele>
        <time>2018-07-15T08:02:02Z</time>
      </trkpt>
      <trkpt lat="43.92272" lon="1.9281">
        <ele>133</ele>
        <time>2018-07-15T08:02:03Z</time>
      </trkpt>
      <trkpt lat="43.92267" lon="1.92805">
        <ele>133</ele>
        <time>2018-07-15T08:02:04Z</time>
      </trkpt>
      <trkpt lat="43.92263" lon="1.92799">
        <ele>133</ele>
        <time>2018-07-15T08:02:05Z</time>
      </trkpt>
      <trkpt lat="43.92258" lon="1.92794">
        <ele>133</ele>
        <time>2018-07-15T08:02:06Z</time>
      </trkpt>
      <trkpt lat="43.92253" lon="1.9279">
        <ele>133</ele>
        <time>2018-07-15T08:02:07Z</time>
      </trkpt>
      <trkpt lat="43.92248" lon="1.92785">
        <ele>133</ele>
        <time>2018-07-15T08:02:08Z</time>
      </trkpt>
      <trkpt lat="43.92243" lon="1.9278">
        <ele>133</ele>
        <time>2018-07-15T08:02:09Z</time>
      </trkpt>
      <trkpt lat="43.92238" lon="1.92775">
        <ele>133</ele>
        <time>2018-07-15T08:02:10Z</time>
      </trkpt>
      <trkpt lat="43.92232" lon="1.9277">
        <ele>133</ele>
        <time>2018-07-15T08:02:11Z</time>
      </trkpt>
      <trkpt lat="43.92227" lon="1.92766">
        <ele>133</ele>
        <time>2018-07-15T08:02:12Z</time>
      </trkpt>
      <trkpt lat="43.92222" lon="1.92761">
        <ele>133</ele>
        <time>2018-07-15T08:02:13Z</time>
      </trkpt>
      <trkpt lat="43.92217" lon="1.92756">
        <ele>133</ele>
        <time>2018-07-15T08:02:14Z</time>
      </trkpt>
      <trkpt lat="43.92212" lon="1.92751">
        <ele>133</ele>
        <time>2018-07-15T08:02:15Z</time>
      </trkpt>
      <trkpt lat="43.92207" lon="1.92747">
        <ele>133</ele>
        <time>2018-07-15T08:02:16Z</time>
      </trkpt>
      <trkpt lat="43.92202" lon="1.92742">
        <ele>133</ele>
        <time>2018-07-15T08:02:17Z</time>
      </trkpt>
      <trkpt lat="43.92196" lon="1.92738">
        <ele>133</ele>
        <time>2018-07-15T08:02:18Z</time>
      </trkpt>
      <trkpt lat="43.92191" lon="1.92733">
        <ele>133</ele>
        <time>2018-07-15T08:02:19Z</time>
      </trkpt>
      <trkpt lat="43.92186" lon="1.92728">
        <ele>133</ele>
        <time>2018-07-15T08:02:20Z</time>
      </trkpt>
      <trkpt lat="43.9218" lon="1.92723">
        <ele>133</ele>
        <time>2018-07-15T08:02:21Z</time>
      </trkpt>
      <trkpt lat="43.92175" lon="1.92718">
        <ele>133</ele>
        <time>2018-07-15T08:02:22Z</time>
      </trkpt>
      <trkpt lat="43.9217" lon="1.92713">
        <ele>133</ele>
        <time>2018-07-15T08:02:23Z</time>
      </trkpt>
      <trkpt lat="43.92164" lon="1.92709">
        <ele>133</ele>
        <time>2018-07-15T08:02:24Z</time>
      </trkpt>
      <trkpt lat="43.92159" lon="1.92704">
        <ele>133</ele>
        <time>2018-07-15T08:02:25Z</time>
      </trkpt>
      <trkpt lat="43.92154" lon="1.92699">
        <ele>133</ele>
        <time>2018-07-15T08:02:26Z</time>
      </trkpt>
      <trkpt lat="43.92149" lon="1.92694">
        <ele>133</ele>
        <time>2018-07-15T08:02:27Z</time>
      </trkpt>
      <trkpt lat="43.92143" lon="1.92689">
        <ele>133</ele>
        <time>2018-07-15T08:02:28Z</time>
      </trkpt>
      <trkpt lat="43.92138" lon="1.92684">
        <ele>133</ele>
        <time>2018-07-15T08:02:29Z</time>
      </trkpt>
      <trkpt lat="43.92133" lon="1.92679">
        <ele>133</ele>
        <time>2018-07-15T08:02:30Z</time>
      </trkpt>
      <trkpt lat="43.92127" lon="1.92674">
        <ele>133</ele>
        <time>2018-07-15T08:02:31Z</time>
      </trkpt>
      <trkpt lat="43.92122" lon="1.9267">
        <ele>133</ele>
        <time>2018-07-15T08:02:32Z</time>
      </trkpt>
      <trkpt lat="43.92117" lon="1.92665">
        <ele>133</ele>
        <time>2018-07-15T08:02:33Z</time>
      </trkpt>
      <trkpt lat="43.92112" lon="1.92659">
        <ele>133</ele>
        <time>2018-07-15T08:02:34Z</time>
      </trkpt>
      <trkpt lat="43.92107" lon="1.92653">
        <ele>133</ele>
        <time>2018-07-15T08:02:35Z</time>
      </trkpt>
      <trkpt lat="43.92102" lon="1.92648">
        <ele>133</ele>
        <time>2018-07-15T08:02:36Z</time>
      </trkpt>
      <trkpt lat="43.92097" lon="1.92642">
        <ele>133</ele>
        <time>2018-07-15T08:02:37Z</time>
      </trkpt>
      <trkpt lat="43.92093" lon="1.92636">
        <ele>133</ele>
        <time>2018-07-15T08:02:38Z</time>
      </trkpt>
      <trkpt lat="43.92088" lon="1.92629">
        <ele>132</ele>
        <time>2018-07-15T08:02:39Z</time>
      </trkpt>
      <trkpt lat="43.92083" lon="1.92623">
        <ele>132</ele>
        <time>2018-07-15T08:02:40Z</time>
      </trkpt>
      <trkpt lat="43.92079" lon="1.92616">
        <ele>132</ele>
        <time>2018-07-15T08:02:41Z</time>
      </trkpt>
      <trkpt lat="43.92075" lon="1.92609">
        <ele>132</ele>
        <time>2018-07-15T08:02:42Z</time>
      </trkpt>
      <trkpt lat="43.92071" lon="1.92602">
        <ele>132</ele>
        <time>2018-07-15T08:02:43Z</time>
      </trkpt>
      <trkpt lat="43.92067" lon="1.92594">
        <ele>132</ele>
        <time>2018-07-15T08:02:44Z</time>
      </trkpt>
      <trkpt lat="43.92063" lon="1.92587">
        <ele>132</ele>
        <time>2018-07-15T08:02:45Z</time>
      </trkpt>
      <trkpt lat="43.9206" lon="1.92579">
        <ele>132</ele>
        <time>2018-07-15T08:02:46Z</time>
      </trkpt>
      <trkpt lat="43.92056" lon="1.92571">
        <ele>132</ele>
        <time>2018-07-15T08:02:47Z</time>
      </trkpt>
      <trkpt lat="43.92053" lon="1.92563">
        <ele>132</ele>
        <time>2018-07-15T08:02:48Z</time>
      </trkpt>
      <trkpt lat="43.9205" lon="1.92555">
        <ele>132</ele>
        <time>2018-07-15T08:02:49Z</time>
      </trkpt>
      <trkpt lat="43.92046" lon="1.92547">
        <ele>132</ele>
        <time>2018-07-15T08:02:50Z</time>
      </trkpt>
      <trkpt lat="43.92043" lon="1.92539">
        <ele>132</ele>
        <time>2018-07-15T08:02:51Z</time>
      </trkpt>
      <trkpt lat="43.92039" lon="1.92531">
        <ele>132</ele>
        <time>2018-07-15T08:02:52Z</time>
      </trkpt>
      <trkpt lat="43.92036" lon="1.92524">
        <ele>132</ele>
        <time>2018-07-15T08:02:53Z</time>
      </trkpt>
      <trkpt lat="43.92032" lon="1.92516">
        <ele>132</ele>
        <time>2018-07-15T08:02:54Z</time>
      </trkpt>
      <trkpt lat="43.92029" lon="1.92508">
        <ele>132</ele>
        <time>2018-07-15T08:02:55Z</time>
      </trkpt>
      <trkpt lat="43.92025" lon="1.925">
        <ele>132</ele>
        <time>2018-07-15T08:02:56Z</time>
      </trkpt>
      <trkpt lat="43.92021" lon="1.92493">
        <ele>132</ele>
        <time>2018-07-15T08:02:57Z</time>
      </trkpt>
      <trkpt lat="43.92018" lon="1.92485">
        <ele>132</ele>
        <time>2018-07-15T08:02:58Z</time>
      </trkpt>
      <trkpt lat="43.92014" lon="1.92478">
        <ele>132</ele>
        <time>2018-07-15T08:02:59Z</time>
      </trkpt>
      <trkpt lat="43.9201" lon="1.9247">
        <ele>132</ele>
        <time>2018-07-15T08:03:00Z</time>
      </trkpt>
      <trkpt lat="43.92006" lon="1.92463">
        <ele>132</ele>
        <time>2018-07-15T08:03:01Z</time>
      </trkpt>
      <trkpt lat="43.92001" lon="1.92456">
        <ele>132</ele>
        <time>2018-07-15T08:03:02Z</time>
      </trkpt>
      <trkpt lat="43.91997" lon="1.92449">
        <ele>132</ele>
        <time>2018-07-15T08:03:03Z</time>
      </trkpt>
      <trkpt lat="43.91992" lon="1.92443">
        <ele>132</ele>
        <time>2018-07-15T08:03:04Z</time>
      </trkpt>
      <trkpt lat="43.91988" lon="1.92436">
        <ele>132</ele>
        <time>2018-07-15T08:03:05Z</time>
      </trkpt>
      <trkpt lat="43.91983" lon="1.9243">
        <ele>132</ele>
        <time>2018-07-15T08:03:06Z</time>
      </trkpt>
      <trkpt lat="43.91978" lon="1.92424">
        <ele>132</ele>
        <time>2018-07-15T08:03:07Z</time>
      </trkpt>
      <trkpt lat="43.91972" lon="1.92419">
        <ele>132</ele>
        <time>2018-07-15T08:03:08Z</time>
      </trkpt>
      <trkpt lat="43.91967" lon="1.92413">
        <ele>132</ele>
        <time>2018-07-15T08:03:09Z</time>
      </trkpt>
      <trkpt lat="43.91962" lon="1.92408">
        <ele>132</ele>
        <time>2018-07-15T08:03:10Z</time>
      </trkpt>
      <trkpt lat="43.91956" lon="1.92403">
        <ele>132</ele>
        <time>2018-07-15T08:03:11Z</time>
      </trkpt>
      <trkpt lat="43.91951" lon="1.92398">
        <ele>132</ele>
        <time>2018-07-15T08:03:12Z</time>
      </trkpt>
      <trkpt lat="43.91946" lon="1.92393">
        <ele>132</ele>
        <time>2018-07-15T08:03:13Z</time>
      </trkpt>
      <trkpt lat="43.9194" lon="1.92387">
        <ele>132</ele>
        <time>2018-07-15T08:03:14Z</time>
      </trkpt>
      <trkpt lat="43.91935" lon="1.92382">
        <ele>132</ele>
        <time>2018-07-15T08:03:15Z</time>
      </trkpt>
      <trkpt lat="43.9193" lon="1.92377">
        <ele>132</ele>
        <time>2018-07-15T08:03:16Z</time>
      </trkpt>
      <trkpt lat="43.91924" lon="1.92372">
        <ele>132</ele>
        <time>2018-07-15T08:03:17Z</time>
      </trkpt>
      <trkpt lat="43.91919" lon="1.92367">
        <ele>132</ele>
        <time>2018-07-15T08:03:18Z</time>
      </trkpt>
      <trkpt lat="43.91914" lon="1.92362">
        <ele>132</ele>
        <time>2018-07-15T08:03:19Z</time>
      </trkpt>
      <trkpt lat="43.91908" lon="1.92357">
        <ele>132</ele>
        <time>2018-07-15T08:03:20Z</time>
      </trkpt>
      <trkpt lat="43.91903" lon="1.92352">
        <ele>132</ele>
        <time>2018-07-15T08:03:21Z</time>
      </trkpt>
      <trkpt lat="43.91898" lon="1.92347">
        <ele>132</ele>
        <time>2018-07-15T08:03:22Z</time>
      </trkpt>
      <trkpt lat="43.91892" lon="1.92341">
        <ele>131</ele>
        <time>2018-07-15T08:03:23Z</time>
      </trkpt>
      <trkpt lat="43.91886" lon="1.92336">
        <ele>131</ele>
        <time>2018-07-15T08:03:24Z</time>
      </trkpt>
      <trkpt lat="43.91881" lon="1.92331">
        <ele>132</ele>
        <time>2018-07-15T08:03:25Z</time>
      </trkpt>
      <trkpt lat="43.91876" lon="1.92325">
        <ele>132</ele>
        <time>2018-07-15T08:03:26Z</time>
      </trkpt>
      <trkpt lat="43.91871" lon="1.92319">
        <ele>132</ele>
        <time>2018-07-15T08:03:27Z</time>
      </trkpt>
      <trkpt lat="43.91866" lon="1.92313">
        <ele>132</ele>
        <time>2018-07-15T08:03:28Z</time>
      </trkpt>
      <trkpt lat="43.91861" lon="1.92308">
        <ele>132</ele>
        <time>2018-07-15T08:03:29Z</time>
      </trkpt>
      <trkpt lat="43.91856" lon="1.92302">
        <ele>132</ele>
        <time>2018-07-15T08:03:30Z</time>
      </trkpt>
      <trkpt lat="43.91851" lon="1.92297">
        <ele>132</ele>
        <time>2018-07-15T08:03:31Z</time>
      </trkpt>
      <trkpt lat="43.91846" lon="1.92291">
        <ele>131</ele>
        <time>2018-07-15T08:03:32Z</time>
      </trkpt>
      <trkpt lat="43.91841" lon="1.92285">
        <ele>131</ele>
        <time>2018-07-15T08:03:33Z</time>
      </trkpt>
      <trkpt lat="43.91837" lon="1.92279">
        <ele>131</ele>
        <time>2018-07-15T08:03:34Z</time>
      </trkpt>
      <trkpt lat="43.91832" lon="1.92273">
        <ele>131</ele>
        <time>2018-07-15T08:03:35Z</time>
      </trkpt>
      <trkpt lat="43.91827" lon="1.92266">
        <ele>131</ele>
        <time>2018-07-15T08:03:36Z</time>
      </trkpt>
      <trkpt lat="43.91823" lon="1.9226">
        <ele>131</ele>
        <time>2018-07-15T08:03:37Z</time>
      </trkpt>
      <trkpt lat="43.91818" lon="1.92254">
        <ele>131</ele>
        <time>2018-07-15T08:03:38Z</time>
      </trkpt>
      <trkpt lat="43.91813" lon="1.92249">
        <ele>131</ele>
        <time>2018-07-15T08:03:39Z</time>
      </trkpt>
      <trkpt lat="43.91808" lon="1.92243">
        <ele>131</ele>
        <time>2018-07-15T08:03:40Z</time>
      </trkpt>
      <trkpt lat="43.91804" lon="1.92238">
        <ele>131</ele>
        <time>2018-07-15T08:03:41Z</time>
      </trkpt>
      <trkpt lat="43.91798" lon="1.92233">
        <ele>131</ele>
        <time>2018-07-15T08:03:42Z</time>
      </trkpt>
      <trkpt lat="43.91793" lon="1.92228">
        <ele>131</ele>
        <time>2018-07-15T08:03:43Z</time>
      </trkpt>
      <trkpt lat="43.91787" lon="1.92223">
        <ele>131</ele>
        <time>2018-07-15T08:03:44Z</time>
      </trkpt>
      <trkpt lat="43.91782" lon="1.9222">
        <ele>131</ele>
        <time>2018-07-15T08:03:45Z</time>
      </trkpt>
      <trkpt lat="43.91776" lon="1.92216">
        <ele>131</ele>
        <time>2018-07-15T08:03:46Z</time>
      </trkpt>
      <trkpt lat="43.9177" lon="1.92213">
        <ele>131</ele>
        <time>2018-07-15T08:03:47Z</time>
      </trkpt>
      <trkpt lat="43.91763" lon="1.9221">
        <ele>131</ele>
        <time>2018-07-15T08:03:48Z</time>
      </trkpt>
      <trkpt lat="43.91757" lon="1.92207">
        <ele>131</ele>
        <time>2018-07-15T08:03:49Z</time>
      </trkpt>
      <trkpt lat="43.91751" lon="1.92205">
        <ele>131</ele>
        <time>2018-07-15T08:03:50Z</time>
      </trkpt>
      <trkpt lat="43.91744" lon="1.92203">
        <ele>131</ele>
        <time>2018-07-15T08:03:51Z</time>
      </trkpt>
      <trkpt lat="43.91738" lon="1.922">
        <ele>130</ele>
        <time>2018-07-15T08:03:52Z</time>
      </trkpt>
      <trkpt lat="43.91732" lon="1.92197">
        <ele>130</ele>
        <time>2018-07-15T08:03:53Z</time>
      </trkpt>
      <trkpt lat="43.91726" lon="1.92194">
        <ele>130</ele>
        <time>2018-07-15T08:03:54Z</time>
      </trkpt>
      <trkpt lat="43.9172" lon="1.92189">
        <ele>131</ele>
        <time>2018-07-15T08:03:55Z</time>
      </trkpt>
      <trkpt lat="43.91714" lon="1.92184">
        <ele>131</ele>
        <time>2018-07-15T08:03:56Z</time>
      </trkpt>
      <trkpt lat="43.91709" lon="1.92178">
        <ele>130</ele>
        <time>2018-07-15T08:03:57Z</time>
      </trkpt>
      <trkpt lat="43.91705" lon="1.9217">
        <ele>130</ele>
        <time>2018-07-15T08:03:58Z</time>
      </trkpt>
      <trkpt lat="43.91701" lon="1.92162">
        <ele>130</ele>
        <time>2018-07-15T08:03:59Z</time>
      </trkpt>
      <trkpt lat="43.91697" lon="1.92154">
        <ele>130</ele>
        <time>2018-07-15T08:04:00Z</time>
      </trkpt>
      <trkpt lat="43.91694" lon="1.92146">
        <ele>130</ele>
        <time>2018-07-15T08:04:01Z</time>
      </trkpt>
      <trkpt lat="43.9169" lon="1.92138">
        <ele>130</ele>
        <time>2018-07-15T08:04:02Z</time>
      </trkpt>
      <trkpt lat="43.91687" lon="1.9213">
        <ele>130</ele>
        <time>2018-07-15T08:04:03Z</time>
      </trkpt>
      <trkpt lat="43.91683" lon="1.92122">
        <ele>130</ele>
        <time>2018-07-15T08:04:04Z</time>
      </trkpt>
      <trkpt lat="43.9168" lon="1.92114">
        <ele>130</ele>
        <time>2018-07-15T08:04:05Z</time>
      </trkpt>
      <trkpt lat="43.91676" lon="1.92106">
        <ele>130</ele>
        <time>2018-07-15T08:04:06Z</time>
      </trkpt>
      <trkpt lat="43.91673" lon="1.92097">
        <ele>130</ele>
        <time>2018-07-15T08:04:07Z</time>
      </trkpt>
      <trkpt lat="43.91669" lon="1.92089">
        <ele>130</ele>
        <time>2018-07-15T08:04:08Z</time>
      </trkpt>
      <trkpt lat="43.91666" lon="1.9208">
        <ele>130</ele>
        <time>2018-07-15T08:04:09Z</time>
      </trkpt>
      <trkpt lat="43.91662" lon="1.92072">
        <ele>130</ele>
        <time>2018-07-15T08:04:10Z</time>
      </trkpt>
      <trkpt lat="43.91657" lon="1.92064">
        <ele>129</ele>
        <time>2018-07-15T08:04:11Z</time>
      </trkpt>
      <trkpt lat="43.91652" lon="1.92057">
        <ele>129</ele>
        <time>2018-07-15T08:04:12Z</time>
      </trkpt>
      <trkpt lat="43.91647" lon="1.9205">
        <ele>129</ele>
        <time>2018-07-15T08:04:13Z</time>
      </trkpt>
      <trkpt lat="43.91642" lon="1.92044">
        <ele>129</ele>
        <time>2018-07-15T08:04:14Z</time>
      </trkpt>
      <trkpt lat="43.91636" lon="1.92039">
        <ele>129</ele>
        <time>2018-07-15T08:04:15Z</time>
      </trkpt>
      <trkpt lat="43.91631" lon="1.92033">
        <ele>129</ele>
        <time>2018-07-15T08:04:16Z</time>
      </trkpt>
      <trkpt lat="43.91625" lon="1.92029">
        <ele>129</ele>
        <time>2018-07-15T08:04:17Z</time>
      </trkpt>
      <trkpt lat="43.91619" lon="1.92025">
        <ele>129</ele>
        <time>2018-07-15T08:04:18Z</time>
      </trkpt>
      <trkpt lat="43.91613" lon="1.9202">
        <ele>129</ele>
        <time>2018-07-15T08:04:19Z</time>
      </trkpt>
      <trkpt lat="43.91607" lon="1.92015">
        <ele>129</ele>
        <time>2018-07-15T08:04:20Z</time>
      </trkpt>
      <trkpt lat="43.91601" lon="1.92011">
        <ele>129</ele>
        <time>2018-07-15T08:04:21Z</time>
      </trkpt>
      <trkpt lat="43.91595" lon="1.92006">
        <ele>129</ele>
        <time>2018-07-15T08:04:22Z</time>
      </trkpt>
      <trkpt lat="43.91589" lon="1.92003">
        <ele>129</ele>
        <time>2018-07-15T08:04:23Z</time>
      </trkpt>
      <trkpt lat="43.91583" lon="1.91999">
        <ele>129</ele>
        <time>2018-07-15T08:04:24Z</time>
      </trkpt>
      <trkpt lat="43.91576" lon="1.91996">
        <ele>129</ele>
        <time>2018-07-15T08:04:25Z</time>
      </trkpt>
      <trkpt lat="43.9157" lon="1.91995">
        <ele>129</ele>
        <time>2018-07-15T08:04:26Z</time>
      </trkpt>
      <trkpt lat="43.91563" lon="1.91994">
        <ele>129</ele>
        <time>2018-07-15T08:04:27Z</time>
      </trkpt>
      <trkpt lat="43.91557" lon="1.91993">
        <ele>129</ele>
        <time>2018-07-15T08:04:28Z</time>
      </trkpt>
      <trkpt lat="43.9155" lon="1.91993">
        <ele>129</ele>
        <time>2018-07-15T08:04:29Z</time>
      </trkpt>
      <trkpt lat="43.91544" lon="1.91992">
        <ele>128</ele>
        <time>2018-07-15T08:04:30Z</time>
      </trkpt>
      <trkpt lat="43.91537" lon="1.91991">
        <ele>128</ele>
        <time>2018-07-15T08:04:31Z</time>
      </trkpt>
      <trkpt lat="43.9153" lon="1.9199">
        <ele>128</ele>
        <time>2018-07-15T08:04:32Z</time>
      </trkpt>
      <trkpt lat="43.91524" lon="1.91988">
        <ele>128</ele>
        <time>2018-07-15T08:04:33Z</time>
      </trkpt>
      <trkpt lat="43.91518" lon="1.91986">
        <ele>129</ele>
        <time>2018-07-15T08:04:34Z</time>
      </trkpt>
      <trkpt lat="43.91511" lon="1.91984">
        <ele>128</ele>
        <time>2018-07-15T08:04:35Z</time>
      </trkpt>
      <trkpt lat="43.91505" lon="1.91981">
        <ele>129</ele>
        <time>2018-07-15T08:04:36Z</time>
      </trkpt>
      <trkpt lat="43.91499" lon="1.91978">
        <ele>128</ele>
        <time>2018-07-15T08:04:37Z</time>
      </trkpt>
      <trkpt lat="43.91493" lon="1.91975">
        <ele>128</ele>
        <time>2018-07-15T08:04:38Z</time>
      </trkpt>
      <trkpt lat="43.91487" lon="1.91973">
        <ele>128</ele>
        <time>2018-07-15T08:04:39Z</time>
      </trkpt>
      <trkpt lat="43.91481" lon="1.9197">
        <ele>128</ele>
        <time>2018-07-15T08:04:40Z</time>
      </trkpt>
      <trkpt lat="43.91475" lon="1.91967">
        <ele>128</ele>
        <time>2018-07-15T08:04:41Z</time>
      </trkpt>
      <trkpt lat="43.91469" lon="1.91965">
        <ele>128</ele>
        <time>2018-07-15T08:04:42Z</time>
      </trkpt>
      <trkpt lat="43.91462" lon="1.91962">
        <ele>128</ele>
        <time>2018-07-15T08:04:43Z</time>
      </trkpt>
      <trkpt lat="43.91456" lon="1.9196">
        <ele>128</ele>
        <time>2018-07-15T08:04:44Z</time>
      </trkpt>
      <trkpt lat="43.91451" lon="1.91957">
        <ele>128</ele>
        <time>2018-07-15T08:04:45Z</time>
      </trkpt>
      <trkpt lat="43.91445" lon="1.91954">
        <ele>128</ele>
        <time>2018-07-15T08:04:46Z</time>
      </trkpt>
      <trkpt lat="43.9144" lon="1.91951">
        <ele>128</ele>
        <time>2018-07-15T08:04:47Z</time>
      </trkpt>
      <trkpt lat="43.91435" lon="1.91947">
        <ele>128</ele>
        <time>2018-07-15T08:04:48Z</time>
      </trkpt>
      <trkpt lat="43.9143" lon="1.91942">
        <ele>128</ele>
        <time>2018-07-15T08:04:49Z</time>
      </trkpt>
      <trkpt lat="43.91427" lon="1.91937">
        <ele>129</ele>
        <time>2018-07-15T08:04:50Z</time>
      </trkpt>
      <trkpt lat="43.91423" lon="1.91931">
        <ele>129</ele>
        <time>2018-07-15T08:04:51Z</time>
      </trkpt>
      <trkpt lat="43.91421" lon="1.91925">
        <ele>129</ele>
        <time>2018-07-15T08:04:52Z</time>
      </trkpt>
      <trkpt lat="43.91418" lon="1.9192">
        <ele>128</ele>
        <time>2018-07-15T08:04:53Z</time>
      </trkpt>
      <trkpt lat="43.91416" lon="1.91915">
        <ele>129</ele>
        <time>2018-07-15T08:04:54Z</time>
      </trkpt>
      <trkpt lat="43.91415" lon="1.9191">
        <ele>129</ele>
        <time>2018-07-15T08:04:55Z</time>
      </trkpt>
      <trkpt lat="43.91413" lon="1.91907">
        <ele>129</ele>
        <time>2018-07-15T08:04:56Z</time>
      </trkpt>
      <trkpt lat="43.91411" lon="1.91905">
        <ele>129</ele>
        <time>2018-07-15T08:04:57Z</time>
      </trkpt>
      <trkpt lat="43.91408" lon="1.91905">
        <ele>129</ele>
        <time>2018-07-15T08:04:58Z</time>
      </trkpt>
      <trkpt lat="43.91406" lon="1.91906">
        <ele>129</ele>
        <time>2018-07-15T08:04:59Z</time>
      </trkpt>
      <trkpt lat="43.91405" lon="1.91909">
        <ele>129</ele>
        <time>2018-07-15T08:05:00Z</time>
      </trkpt>
      <trkpt lat="43.91404" lon="1.91911">
        <ele>129</ele>
        <time>2018-07-15T08:05:01Z</time>
      </trkpt>
      <trkpt lat="43.91403" lon="1.91914">
        <ele>130</ele>
        <time>2018-07-15T08:05:02Z</time>
      </trkpt>
      <trkpt lat="43.91404" lon="1.91917">
        <ele>130</ele>
        <time>2018-07-15T08:05:03Z</time>
      </trkpt>
      <trkpt lat="43.91405" lon="1.91919">
        <ele>130</ele>
        <time>2018-07-15T08:05:04Z</time>
      </trkpt>
      <trkpt lat="43.91405" lon="1.91922">
        <ele>130</ele>
        <time>2018-07-15T08:05:05Z</time>
      </trkpt>
      <trkpt lat="43.91404" lon="1.91924">
        <ele>130</ele>
        <time>2018-07-15T08:05:06Z</time>
      </trkpt>
      <trkpt lat="43.91404" lon="1.91925">
        <ele>130</ele>
        <time>2018-07-15T08:05:07Z</time>
      </trkpt>
      <trkpt lat="43.91404" lon="1.91926">
        <ele>130</ele>
        <time>2018-07-15T08:05:08Z</time>
      </trkpt>
      <trkpt lat="43.91404" lon="1.91926">
        <ele>130</ele>
        <time>2018-07-15T08:05:09Z</time>
      </trkpt>
      <trkpt lat="43.91404" lon="1.91926">
        <ele>130</ele>
        <time>2018-07-15T08:05:10Z</time>
      </trkpt>
      <trkpt lat="43.91404" lon="1.91928">
        <ele>130</ele>
        <time>2018-07-15T08:05:12Z</time>
      </trkpt>
      <trkpt lat="43.91403" lon="1.91929">
        <ele>130</ele>
        <time>2018-07-15T08:05:13Z</time>
      </trkpt>
      <trkpt lat="43.91403" lon="1.91929">
        <ele>130</ele>
        <time>2018-07-15T08:05:14Z</time>
      </trkpt>
      <trkpt lat="43.91403" lon="1.9193">
        <ele>130</ele>
        <time>2018-07-15T08:05:15Z</time>
      </trkpt>
      <trkpt lat="43.91403" lon="1.91929">
        <ele>130</ele>
        <time>2018-07-15T08:05:16Z</time>
      </trkpt>
      <trkpt lat="43.91403" lon="1.9193">
        <ele>130</ele>
        <time>2018-07-15T08:05:17Z</time>
      </trkpt>
      <trkpt lat="43.91403" lon="1.9193">
        <ele>130</ele>
        <time>2018-07-15T08:05:56Z</time>
      </trkpt>
      <trkpt lat="43.91403" lon="1.9193">
        <ele>130</ele>
        <time>2018-07-15T08:06:36Z</time>
      </trkpt>
      <trkpt lat="43.91403" lon="1.91929">
        <ele>130</ele>
        <time>2018-07-15T08:07:16Z</time>
      </trkpt>
      <trkpt lat="43.91403" lon="1.9193">
        <ele>130</ele>
        <time>2018-07-15T08:07:56Z</time>
      </trkpt>
      <trkpt lat="43.91403" lon="1.91929">
        <ele>130</ele>
        <time>2018-07-15T08:08:36Z</time>
      </trkpt>
      <trkpt lat="43.91403" lon="1.91929">
        <ele>130</ele>
        <time>2018-07-15T08:09:10Z</time>
      </trkpt>
      <trkpt lat="43.91403" lon="1.91929">
        <ele>131</ele>
        <time>2018-07-15T08:09:11Z</time>
      </trkpt>
      <trkpt lat="43.91403" lon="1.9193">
        <ele>130</ele>
        <time>2018-07-15T08:09:16Z</time>
      </trkpt>
      <trkpt lat="43.91403" lon="1.9193">
        <ele>130</ele>
        <time>2018-07-15T08:09:56Z</time>
      </trkpt>
      <trkpt lat="43.91403" lon="1.9193">
        <ele>130</ele>
        <time>2018-07-15T08:10:22Z</time>
      </trkpt>
      <trkpt lat="43.91403" lon="1.9193">
        <ele>130</ele>
        <time>2018-07-15T08:11:02Z</time>
      </trkpt>
      <trkpt lat="43.91403" lon="1.9193">
        <ele>130</ele>
        <time>2018-07-15T08:11:42Z</time>
      </trkpt>
      <trkpt lat="43.91403" lon="1.9193">
        <ele>130</ele>
        <time>2018-07-15T08:12:22Z</time>
      </trkpt>
      <trkpt lat="43.91403" lon="1.91931">
        <ele>131</ele>
        <time>2018-07-15T08:13:02Z</time>
      </trkpt>
      <trkpt lat="43.91403" lon="1.91931">
        <ele>130</ele>
        <time>2018-07-15T08:13:42Z</time>
      </trkpt>
      <trkpt lat="43.91403" lon="1.91932">
        <ele>131</ele>
        <time>2018-07-15T08:14:22Z</time>
      </trkpt>
      <trkpt lat="43.91403" lon="1.91932">
        <ele>131</ele>
        <time>2018-07-15T08:15:02Z</time>
      </trkpt>
      <trkpt lat="43.91403" lon="1.91932">
        <ele>131</ele>
        <time>2018-07-15T08:15:42Z</time>
      </trkpt>
      <trkpt lat="43.91404" lon="1.91932">
        <ele>131</ele>
        <time>2018-07-15T08:16:22Z</time>
      </trkpt>
      <trkpt lat="43.91403" lon="1.91933">
        <ele>131</ele>
        <time>2018-07-15T08:17:02Z</time>
      </trkpt>
      <trkpt lat="43.91403" lon="1.91933">
        <ele>130</ele>
        <time>2018-07-15T08:17:42Z</time>
      </trkpt>
      <trkpt lat="43.91403" lon="1.91933">
        <ele>130</ele>
        <time>2018-07-15T08:18:22Z</time>
      </trkpt>
      <trkpt lat="43.91404" lon="1.91934">
        <ele>130</ele>
        <time>2018-07-15T08:19:02Z</time>
      </trkpt>
      <trkpt lat="43.91404" lon="1.91934">
        <ele>130</ele>
        <time>2018-07-15T08:19:26Z</time>
      </trkpt>
      <trkpt lat="43.91404" lon="1.91933">
        <ele>130</ele>
        <time>2018-07-15T08:19:27Z</time>
      </trkpt>
      <trkpt lat="43.91405" lon="1.91932">
        <ele>130</ele>
        <time>2018-07-15T08:19:28Z</time>
      </trkpt>
      <trkpt lat="43.91404" lon="1.91929">
        <ele>130</ele>
        <time>2018-07-15T08:19:29Z</time>
      </trkpt>
      <trkpt lat="43.91404" lon="1.91928">
        <ele>130</ele>
        <time>2018-07-15T08:19:30Z</time>
      </trkpt>
      <trkpt lat="43.91403" lon="1.91927">
        <ele>130</ele>
        <time>2018-07-15T08:19:31Z</time>
      </trkpt>
      <trkpt lat="43.91402" lon="1.91926">
        <ele>130</ele>
        <time>2018-07-15T08:19:32Z</time>
      </trkpt>
      <trkpt lat="43.91402" lon="1.91927">
        <ele>130</ele>
        <time>2018-07-15T08:19:33Z</time>
      </trkpt>
      <trkpt lat="43.91403" lon="1.91927">
        <ele>130</ele>
        <time>2018-07-15T08:19:34Z</time>
      </trkpt>
      <trkpt lat="43.91402" lon="1.91927">
        <ele>130</ele>
        <time>2018-07-15T08:19:35Z</time>
      </trkpt>
      <trkpt lat="43.91402" lon="1.91926">
        <ele>130</ele>
        <time>2018-07-15T08:20:15Z</time>
      </trkpt>
      <trkpt lat="43.91403" lon="1.91926">
        <ele>130</ele>
        <time>2018-07-15T08:20:55Z</time>
      </trkpt>
      <trkpt lat="43.91403" lon="1.91926">
        <ele>130</ele>
        <time>2018-07-15T08:21:35Z</time>
      </trkpt>
      <trkpt lat="43.91403" lon="1.91926">
        <ele>130</ele>
        <time>2018-07-15T08:22:15Z</time>
      </trkpt>
      <trkpt lat="43.91403" lon="1.91926">
        <ele>129</ele>
        <time>2018-07-15T08:22:55Z</time>
      </trkpt>
      <trkpt lat="43.91403" lon="1.91926">
        <ele>129</ele>
        <time>2018-07-15T08:23:34Z</time>
      </trkpt>
      <trkpt lat="43.91403" lon="1.91926">
        <ele>129</ele>
        <time>2018-07-15T08:24:15Z</time>
      </trkpt>
      <trkpt lat="43.91403" lon="1.91926">
        <ele>129</ele>
        <time>2018-07-15T08:24:54Z</time>
      </trkpt>
      <trkpt lat="43.91404" lon="1.91926">
        <ele>129</ele>
        <time>2018-07-15T08:25:34Z</time>
      </trkpt>
      <trkpt lat="43.91404" lon="1.91925">
        <ele>129</ele>
        <time>2018-07-15T08:26:14Z</time>
      </trkpt>
      <trkpt lat="43.91404" lon="1.91925">
        <ele>128</ele>
        <time>2018-07-15T08:26:54Z</time>
      </trkpt>
      <trkpt lat="43.91404" lon="1.91925">
        <ele>128</ele>
        <time>2018-07-15T08:26:55Z</time>
      </trkpt>
      <trkpt lat="43.91404" lon="1.91925">
        <ele>128</ele>
        <time>2018-07-15T08:26:59Z</time>
      </trkpt>
      <trkpt lat="43.91404" lon="1.91925">
        <ele>128</ele>
        <time>2018-07-15T08:27:00Z</time>
      </trkpt>
      <trkpt lat="43.91404" lon="1.91925">
        <ele>128</ele>
        <time>2018-07-15T08:27:06Z</time>
      </trkpt>
      <trkpt lat="43.91404" lon="1.91925">
        <ele>128</ele>
        <time>2018-07-15T08:27:07Z</time>
      </trkpt>
      <trkpt lat="43.91404" lon="1.91925">
        <ele>128</ele>
        <time>2018-07-15T08:27:08Z</time>
      </trkpt>
      <trkpt lat="43.91404" lon="1.91925">
        <ele>128</ele>
        <time>2018-07-15T08:27:09Z</time>
      </trkpt>
      <trkpt lat="43.91404" lon="1.91925">
        <ele>128</ele>
        <time>2018-07-15T08:27:10Z</time>
      </trkpt>
      <trkpt lat="43.91404" lon="1.91925">
        <ele>128</ele>
        <time>2018-07-15T08:27:24Z</time>
      </trkpt>
      <trkpt lat="43.91404" lon="1.91925">
        <ele>128</ele>
        <time>2018-07-15T08:27:25Z</time>
      </trkpt>
      <trkpt lat="43.91404" lon="1.91925">
        <ele>128</ele>
        <time>2018-07-15T08:27:34Z</time>
      </trkpt>
      <trkpt lat="43.91404" lon="1.91925">
        <ele>128</ele>
        <time>2018-07-15T08:27:47Z</time>
      </trkpt>
      <trkpt lat="43.91404" lon="1.91925">
        <ele>128</ele>
        <time>2018-07-15T08:27:48Z</time>
      </trkpt>
      <trkpt lat="43.91404" lon="1.91925">
        <ele>128</ele>
        <time>2018-07-15T08:27:57Z</time>
      </trkpt>
      <trkpt lat="43.91404" lon="1.91925">
        <ele>128</ele>
        <time>2018-07-15T08:27:58Z</time>
      </trkpt>
      <trkpt lat="43.91404" lon="1.91925">
        <ele>128</ele>
        <time>2018-07-15T08:28:14Z</time>
      </trkpt>
      <trkpt lat="43.91404" lon="1.91925">
        <ele>128</ele>
        <time>2018-07-15T08:28:26Z</time>
      </trkpt>
      <trkpt lat="43.91404" lon="1.91925">
        <ele>128</ele>
        <time>2018-07-15T08:28:27Z</time>
      </trkpt>
      <trkpt lat="43.91404" lon="1.91925">
        <ele>128</ele>
        <time>2018-07-15T08:28:37Z</time>
      </trkpt>
      <trkpt lat="43.91404" lon="1.91925">
        <ele>128</ele>
        <time>2018-07-15T08:28:38Z</time>
      </trkpt>
      <trkpt lat="43.91404" lon="1.91924">
        <ele>128</ele>
        <time>2018-07-15T08:28:54Z</time>
      </trkpt>
      <trkpt lat="43.91404" lon="1.91924">
        <ele>127</ele>
        <time>2018-07-15T08:29:13Z</time>
      </trkpt>
      <trkpt lat="43.91404" lon="1.91924">
        <ele>127</ele>
        <time>2018-07-15T08:29:14Z</time>
      </trkpt>
      <trkpt lat="43.91404" lon="1.91925">
        <ele>127</ele>
        <time>2018-07-15T08:29:15Z</time>
      </trkpt>
      <trkpt lat="43.91404" lon="1.91925">
        <ele>127</ele>
        <time>2018-07-15T08:29:21Z</time>
      </trkpt>
      <trkpt lat="43.91405" lon="1.91924">
        <ele>127</ele>
        <time>2018-07-15T08:29:22Z</time>
      </trkpt>
      <trkpt lat="43.91405" lon="1.91922">
        <ele>127</ele>
        <time>2018-07-15T08:29:23Z</time>
      </trkpt>
      <trkpt lat="43.91406" lon="1.9192">
        <ele>127</ele>
        <time>2018-07-15T08:29:24Z</time>
      </trkpt>
      <trkpt lat="43.91406" lon="1.91917">
        <ele>127</ele>
        <time>2018-07-15T08:29:25Z</time>
      </trkpt>
      <trkpt lat="43.91407" lon="1.91914">
        <ele>127</ele>
        <time>2018-07-15T08:29:26Z</time>
      </trkpt>
      <trkpt lat="43.91408" lon="1.9191">
        <ele>127</ele>
        <time>2018-07-15T08:29:27Z</time>
      </trkpt>
      <trkpt lat="43.91409" lon="1.91906">
        <ele>127</ele>
        <time>2018-07-15T08:29:28Z</time>
      </trkpt>
      <trkpt lat="43.9141" lon="1.91902">
        <ele>127</ele>
        <time>2018-07-15T08:29:29Z</time>
      </trkpt>
      <trkpt lat="43.9141" lon="1.91898">
        <ele>126</ele>
        <time>2018-07-15T08:29:30Z</time>
      </trkpt>
      <trkpt lat="43.91409" lon="1.91895">
        <ele>126</ele>
        <time>2018-07-15T08:29:31Z</time>
      </trkpt>
      <trkpt lat="43.91408" lon="1.91892">
        <ele>126</ele>
        <time>2018-07-15T08:29:32Z</time>
      </trkpt>
      <trkpt lat="43.91407" lon="1.91888">
        <ele>126</ele>
        <time>2018-07-15T08:29:33Z</time>
      </trkpt>
      <trkpt lat="43.91405" lon="1.91884">
        <ele>126</ele>
        <time>2018-07-15T08:29:34Z</time>
      </trkpt>
      <trkpt lat="43.91404" lon="1.9188">
        <ele>126</ele>
        <time>2018-07-15T08:29:35Z</time>
      </trkpt>
      <trkpt lat="43.91403" lon="1.91876">
        <ele>126</ele>
        <time>2018-07-15T08:29:36Z</time>
      </trkpt>
      <trkpt lat="43.91402" lon="1.91872">
        <ele>126</ele>
        <time>2018-07-15T08:29:37Z</time>
      </trkpt>
      <trkpt lat="43.91401" lon="1.91868">
        <ele>126</ele>
        <time>2018-07-15T08:29:38Z</time>
      </trkpt>
      <trkpt lat="43.914" lon="1.91864">
        <ele>127</ele>
        <time>2018-07-15T08:29:39Z</time>
      </trkpt>
      <trkpt lat="43.914" lon="1.9186">
        <ele>127</ele>
        <time>2018-07-15T08:29:40Z</time>
      </trkpt>
      <trkpt lat="43.91399" lon="1.91857">
        <ele>127</ele>
        <time>2018-07-15T08:29:41Z</time>
      </trkpt>
      <trkpt lat="43.91399" lon="1.91853">
        <ele>126</ele>
        <time>2018-07-15T08:29:42Z</time>
      </trkpt>
      <trkpt lat="43.91398" lon="1.91849">
        <ele>126</ele>
        <time>2018-07-15T08:29:43Z</time>
      </trkpt>
      <trkpt lat="43.91397" lon="1.91844">
        <ele>126</ele>
        <time>2018-07-15T08:29:44Z</time>
      </trkpt>
      <trkpt lat="43.91396" lon="1.9184">
        <ele>126</ele>
        <time>2018-07-15T08:29:45Z</time>
      </trkpt>
      <trkpt lat="43.91394" lon="1.91835">
        <ele>126</ele>
        <time>2018-07-15T08:29:46Z</time>
      </trkpt>
      <trkpt lat="43.91393" lon="1.9183">
        <ele>126</ele>
        <time>2018-07-15T08:29:47Z</time>
      </trkpt>
      <trkpt lat="43.91392" lon="1.91825">
        <ele>126</ele>
        <time>2018-07-15T08:29:48Z</time>
      </trkpt>
      <trkpt lat="43.9139" lon="1.9182">
        <ele>126</ele>
        <time>2018-07-15T08:29:49Z</time>
      </trkpt>
      <trkpt lat="43.91388" lon="1.91815">
        <ele>126</ele>
        <time>2018-07-15T08:29:50Z</time>
      </trkpt>
      <trkpt lat="43.91386" lon="1.91811">
        <ele>126</ele>
        <time>2018-07-15T08:29:51Z</time>
      </trkpt>
      <trkpt lat="43.91384" lon="1.91806">
        <ele>126</ele>
        <time>2018-07-15T08:29:52Z</time>
      </trkpt>
      <trkpt lat="43.91382" lon="1.91802">
        <ele>126</ele>
        <time>2018-07-15T08:29:53Z</time>
      </trkpt>
      <trkpt lat="43.91379" lon="1.91798">
        <ele>126</ele>
        <time>2018-07-15T08:29:54Z</time>
      </trkpt>
      <trkpt lat="43.91376" lon="1.91795">
        <ele>126</ele>
        <time>2018-07-15T08:29:55Z</time>
      </trkpt>
      <trkpt lat="43.91373" lon="1.91791">
        <ele>127</ele>
        <time>2018-07-15T08:29:56Z</time>
      </trkpt>
      <trkpt lat="43.9137" lon="1.91788">
        <ele>127</ele>
        <time>2018-07-15T08:29:57Z</time>
      </trkpt>
      <trkpt lat="43.91367" lon="1.91785">
        <ele>127</ele>
        <time>2018-07-15T08:29:58Z</time>
      </trkpt>
      <trkpt lat="43.91363" lon="1.91781">
        <ele>127</ele>
        <time>2018-07-15T08:29:59Z</time>
      </trkpt>
      <trkpt lat="43.9136" lon="1.91778">
        <ele>127</ele>
        <time>2018-07-15T08:30:00Z</time>
      </trkpt>
      <trkpt lat="43.91357" lon="1.91775">
        <ele>127</ele>
        <time>2018-07-15T08:30:01Z</time>
      </trkpt>
      <trkpt lat="43.91354" lon="1.91772">
        <ele>127</ele>
        <time>2018-07-15T08:30:02Z</time>
      </trkpt>
      <trkpt lat="43.9135" lon="1.91768">
        <ele>126</ele>
        <time>2018-07-15T08:30:03Z</time>
      </trkpt>
      <trkpt lat="43.91347" lon="1.91765">
        <ele>126</ele>
        <time>2018-07-15T08:30:04Z</time>
      </trkpt>
      <trkpt lat="43.91344" lon="1.91761">
        <ele>126</ele>
        <time>2018-07-15T08:30:05Z</time>
      </trkpt>
      <trkpt lat="43.91341" lon="1.91758">
        <ele>126</ele>
        <time>2018-07-15T08:30:06Z</time>
      </trkpt>
      <trkpt lat="43.91338" lon="1.91754">
        <ele>126</ele>
        <time>2018-07-15T08:30:07Z</time>
      </trkpt>
      <trkpt lat="43.91335" lon="1.91749">
        <ele>126</ele>
        <time>2018-07-15T08:30:08Z</time>
      </trkpt>
      <trkpt lat="43.91332" lon="1.91745">
        <ele>126</ele>
        <time>2018-07-15T08:30:09Z</time>
      </trkpt>
      <trkpt lat="43.9133" lon="1.91741">
        <ele>126</ele>
        <time>2018-07-15T08:30:10Z</time>
      </trkpt>
      <trkpt lat="43.91327" lon="1.91736">
        <ele>127</ele>
        <time>2018-07-15T08:30:11Z</time>
      </trkpt>
      <trkpt lat="43.91325" lon="1.91731">
        <ele>127</ele>
        <time>2018-07-15T08:30:12Z</time>
      </trkpt>
      <trkpt lat="43.91322" lon="1.91727">
        <ele>127</ele>
        <time>2018-07-15T08:30:13Z</time>
      </trkpt>
      <trkpt lat="43.9132" lon="1.91722">
        <ele>126</ele>
        <time>2018-07-15T08:30:14Z</time>
      </trkpt>
      <trkpt lat="43.91317" lon="1.91717">
        <ele>126</ele>
        <time>2018-07-15T08:30:15Z</time>
      </trkpt>
      <trkpt lat="43.91315" lon="1.91713">
        <ele>126</ele>
        <time>2018-07-15T08:30:16Z</time>
      </trkpt>
      <trkpt lat="43.91312" lon="1.91708">
        <ele>127</ele>
        <time>2018-07-15T08:30:17Z</time>
      </trkpt>
      <trkpt lat="43.91309" lon="1.91703">
        <ele>127</ele>
        <time>2018-07-15T08:30:18Z</time>
      </trkpt>
      <trkpt lat="43.91307" lon="1.91698">
        <ele>127</ele>
        <time>2018-07-15T08:30:19Z</time>
      </trkpt>
      <trkpt lat="43.91305" lon="1.91693">
        <ele>127</ele>
        <time>2018-07-15T08:30:20Z</time>
      </trkpt>
      <trkpt lat="43.91303" lon="1.91687">
        <ele>127</ele>
        <time>2018-07-15T08:30:21Z</time>
      </trkpt>
      <trkpt lat="43.91301" lon="1.91682">
        <ele>127</ele>
        <time>2018-07-15T08:30:22Z</time>
      </trkpt>
      <trkpt lat="43.91299" lon="1.91677">
        <ele>127</ele>
        <time>2018-07-15T08:30:23Z</time>
      </trkpt>
      <trkpt lat="43.91299" lon="1.91671">
        <ele>127</ele>
        <time>2018-07-15T08:30:24Z</time>
      </trkpt>
      <trkpt lat="43.91298" lon="1.91665">
        <ele>127</ele>
        <time>2018-07-15T08:30:25Z</time>
      </trkpt>
      <trkpt lat="43.91298" lon="1.91659">
        <ele>127</ele>
        <time>2018-07-15T08:30:26Z</time>
      </trkpt>
      <trkpt lat="43.91297" lon="1.91653">
        <ele>127</ele>
        <time>2018-07-15T08:30:27Z</time>
      </trkpt>
      <trkpt lat="43.91297" lon="1.91647">
        <ele>127</ele>
        <time>2018-07-15T08:30:28Z</time>
      </trkpt>
      <trkpt lat="43.91296" lon="1.91641">
        <ele>127</ele>
        <time>2018-07-15T08:30:29Z</time>
      </trkpt>
      <trkpt lat="43.91296" lon="1.91635">
        <ele>127</ele>
        <time>2018-07-15T08:30:30Z</time>
      </trkpt>
      <trkpt lat="43.91295" lon="1.91628">
        <ele>127</ele>
        <time>2018-07-15T08:30:31Z</time>
      </trkpt>
      <trkpt lat="43.91294" lon="1.91622">
        <ele>127</ele>
        <time>2018-07-15T08:30:32Z</time>
      </trkpt>
      <trkpt lat="43.91294" lon="1.91616">
        <ele>127</ele>
        <time>2018-07-15T08:30:33Z</time>
      </trkpt>
      <trkpt lat="43.91293" lon="1.9161">
        <ele>127</ele>
        <time>2018-07-15T08:30:34Z</time>
      </trkpt>
      <trkpt lat="43.91292" lon="1.91604">
        <ele>127</ele>
        <time>2018-07-15T08:30:35Z</time>
      </trkpt>
      <trkpt lat="43.91292" lon="1.91598">
        <ele>127</ele>
        <time>2018-07-15T08:30:36Z</time>
      </trkpt>
      <trkpt lat="43.91291" lon="1.91592">
        <ele>127</ele>
        <time>2018-07-15T08:30:37Z</time>
      </trkpt>
      <trkpt lat="43.9129" lon="1.91586">
        <ele>127</ele>
        <time>2018-07-15T08:30:38Z</time>
      </trkpt>
      <trkpt lat="43.91289" lon="1.9158">
        <ele>127</ele>
        <time>2018-07-15T08:30:39Z</time>
      </trkpt>
      <trkpt lat="43.91289" lon="1.91573">
        <ele>127</ele>
        <time>2018-07-15T08:30:40Z</time>
      </trkpt>
      <trkpt lat="43.91288" lon="1.91567">
        <ele>127</ele>
        <time>2018-07-15T08:30:41Z</time>
      </trkpt>
      <trkpt lat="43.91287" lon="1.91561">
        <ele>127</ele>
        <time>2018-07-15T08:30:42Z</time>
      </trkpt>
      <trkpt lat="43.91286" lon="1.91555">
        <ele>127</ele>
        <time>2018-07-15T08:30:43Z</time>
      </trkpt>
      <trkpt lat="43.91285" lon="1.91549">
        <ele>127</ele>
        <time>2018-07-15T08:30:44Z</time>
      </trkpt>
      <trkpt lat="43.91284" lon="1.91543">
        <ele>127</ele>
        <time>2018-07-15T08:30:45Z</time>
      </trkpt>
      <trkpt lat="43.91283" lon="1.91537">
        <ele>127</ele>
        <time>2018-07-15T08:30:46Z</time>
      </trkpt>
      <trkpt lat="43.91282" lon="1.91531">
        <ele>127</ele>
        <time>2018-07-15T08:30:47Z</time>
      </trkpt>
      <trkpt lat="43.91281" lon="1.91524">
        <ele>127</ele>
        <time>2018-07-15T08:30:48Z</time>
      </trkpt>
      <trkpt lat="43.9128" lon="1.91518">
        <ele>127</ele>
        <time>2018-07-15T08:30:49Z</time>
      </trkpt>
      <trkpt lat="43.91279" lon="1.91512">
        <ele>127</ele>
        <time>2018-07-15T08:30:50Z</time>
      </trkpt>
      <trkpt lat="43.91279" lon="1.91506">
        <ele>127</ele>
        <time>2018-07-15T08:30:51Z</time>
      </trkpt>
      <trkpt lat="43.91278" lon="1.91499">
        <ele>127</ele>
        <time>2018-07-15T08:30:52Z</time>
      </trkpt>
      <trkpt lat="43.91277" lon="1.91493">
        <ele>127</ele>
        <time>2018-07-15T08:30:53Z</time>
      </trkpt>
      <trkpt lat="43.91276" lon="1.91487">
        <ele>127</ele>
        <time>2018-07-15T08:30:54Z</time>
      </trkpt>
      <trkpt lat="43.91274" lon="1.91481">
        <ele>127</ele>
        <time>2018-07-15T08:30:55Z</time>
      </trkpt>
      <trkpt lat="43.91273" lon="1.91475">
        <ele>127</ele>
        <time>2018-07-15T08:30:56Z</time>
      </trkpt>
      <trkpt lat="43.91272" lon="1.91469">
        <ele>127</ele>
        <time>2018-07-15T08:30:57Z</time>
      </trkpt>
      <trkpt lat="43.9127" lon="1.91463">
        <ele>127</ele>
        <time>2018-07-15T08:30:58Z</time>
      </trkpt>
      <trkpt lat="43.91268" lon="1.91457">
        <ele>127</ele>
        <time>2018-07-15T08:30:59Z</time>
      </trkpt>
      <trkpt lat="43.91266" lon="1.9145">
        <ele>127</ele>
        <time>2018-07-15T08:31:00Z</time>
      </trkpt>
      <trkpt lat="43.91263" lon="1.91445">
        <ele>127</ele>
        <time>2018-07-15T08:31:01Z</time>
      </trkpt>
      <trkpt lat="43.91261" lon="1.91439">
        <ele>127</ele>
        <time>2018-07-15T08:31:02Z</time>
      </trkpt>
      <trkpt lat="43.91258" lon="1.91434">
        <ele>127</ele>
        <time>2018-07-15T08:31:03Z</time>
      </trkpt>
      <trkpt lat="43.91255" lon="1.91429">
        <ele>127</ele>
        <time>2018-07-15T08:31:04Z</time>
      </trkpt>
      <trkpt lat="43.91252" lon="1.91424">
        <ele>127</ele>
        <time>2018-07-15T08:31:05Z</time>
      </trkpt>
      <trkpt lat="43.91249" lon="1.91419">
        <ele>127</ele>
        <time>2018-07-15T08:31:06Z</time>
      </trkpt>
      <trkpt lat="43.91246" lon="1.91414">
        <ele>127</ele>
        <time>2018-07-15T08:31:07Z</time>
      </trkpt>
      <trkpt lat="43.91243" lon="1.91409">
        <ele>127</ele>
        <time>2018-07-15T08:31:08Z</time>
      </trkpt>
      <trkpt lat="43.9124" lon="1.91403">
        <ele>127</ele>
        <time>2018-07-15T08:31:09Z</time>
      </trkpt>
      <trkpt lat="43.91237" lon="1.91398">
        <ele>127</ele>
        <time>2018-07-15T08:31:10Z</time>
      </trkpt>
      <trkpt lat="43.91235" lon="1.91393">
        <ele>126</ele>
        <time>2018-07-15T08:31:11Z</time>
      </trkpt>
      <trkpt lat="43.91232" lon="1.91387">
        <ele>126</ele>
        <time>2018-07-15T08:31:12Z</time>
      </trkpt>
      <trkpt lat="43.9123" lon="1.91382">
        <ele>127</ele>
        <time>2018-07-15T08:31:13Z</time>
      </trkpt>
      <trkpt lat="43.91227" lon="1.91376">
        <ele>127</ele>
        <time>2018-07-15T08:31:14Z</time>
      </trkpt>
      <trkpt lat="43.91225" lon="1.9137">
        <ele>126</ele>
        <time>2018-07-15T08:31:15Z</time>
      </trkpt>
      <trkpt lat="43.91222" lon="1.91365">
        <ele>126</ele>
        <time>2018-07-15T08:31:16Z</time>
      </trkpt>
      <trkpt lat="43.9122" lon="1.91359">
        <ele>126</ele>
        <time>2018-07-15T08:31:17Z</time>
      </trkpt>
      <trkpt lat="43.91217" lon="1.91354">
        <ele>126</ele>
        <time>2018-07-15T08:31:18Z</time>
      </trkpt>
      <trkpt lat="43.91214" lon="1.91348">
        <ele>126</ele>
        <time>2018-07-15T08:31:19Z</time>
      </trkpt>
      <trkpt lat="43.91212" lon="1.91343">
        <ele>126</ele>
        <time>2018-07-15T08:31:20Z</time>
      </trkpt>
      <trkpt lat="43.91208" lon="1.91337">
        <ele>126</ele>
        <time>2018-07-15T08:31:21Z</time>
      </trkpt>
      <trkpt lat="43.91205" lon="1.91332">
        <ele>126</ele>
        <time>2018-07-15T08:31:22Z</time>
      </trkpt>
      <trkpt lat="43.91202" lon="1.91327">
        <ele>126</ele>
        <time>2018-07-15T08:31:23Z</time>
      </trkpt>
      <trkpt lat="43.91199" lon="1.91322">
        <ele>126</ele>
        <time>2018-07-15T08:31:24Z</time>
      </trkpt>
      <trkpt lat="43.91196" lon="1.91317">
        <ele>126</ele>
        <time>2018-07-15T08:31:25Z</time>
      </trkpt>
      <trkpt lat="43.91192" lon="1.91312">
        <ele>126</ele>
        <time>2018-07-15T08:31:26Z</time>
      </trkpt>
      <trkpt lat="43.91189" lon="1.91307">
        <ele>126</ele>
        <time>2018-07-15T08:31:27Z</time>
      </trkpt>
      <trkpt lat="43.91185" lon="1.91303">
        <ele>127</ele>
        <time>2018-07-15T08:31:28Z</time>
      </trkpt>
      <trkpt lat="43.91181" lon="1.91299">
        <ele>127</ele>
        <time>2018-07-15T08:31:29Z</time>
      </trkpt>
      <trkpt lat="43.91178" lon="1.91295">
        <ele>126</ele>
        <time>2018-07-15T08:31:30Z</time>
      </trkpt>
      <trkpt lat="43.91173" lon="1.9129">
        <ele>126</ele>
        <time>2018-07-15T08:31:31Z</time>
      </trkpt>
      <trkpt lat="43.91169" lon="1.91287">
        <ele>126</ele>
        <time>2018-07-15T08:31:32Z</time>
      </trkpt>
      <trkpt lat="43.91165" lon="1.91283">
        <ele>126</ele>
        <time>2018-07-15T08:31:33Z</time>
      </trkpt>
      <trkpt lat="43.9116" lon="1.9128">
        <ele>126</ele>
        <time>2018-07-15T08:31:34Z</time>
      </trkpt>
      <trkpt lat="43.91156" lon="1.91276">
        <ele>126</ele>
        <time>2018-07-15T08:31:35Z</time>
      </trkpt>
      <trkpt lat="43.91151" lon="1.91273">
        <ele>126</ele>
        <time>2018-07-15T08:31:36Z</time>
      </trkpt>
      <trkpt lat="43.91147" lon="1.9127">
        <ele>126</ele>
        <time>2018-07-15T08:31:37Z</time>
      </trkpt>
      <trkpt lat="43.91142" lon="1.91267">
        <ele>126</ele>
        <time>2018-07-15T08:31:38Z</time>
      </trkpt>
      <trkpt lat="43.91137" lon="1.91264">
        <ele>126</ele>
        <time>2018-07-15T08:31:39Z</time>
      </trkpt>
      <trkpt lat="43.91133" lon="1.9126">
        <ele>126</ele>
        <time>2018-07-15T08:31:40Z</time>
      </trkpt>
      <trkpt lat="43.91129" lon="1.91256">
        <ele>126</ele>
        <time>2018-07-15T08:31:41Z</time>
      </trkpt>
      <trkpt lat="43.91125" lon="1.91252">
        <ele>126</ele>
        <time>2018-07-15T08:31:42Z</time>
      </trkpt>
      <trkpt lat="43.91121" lon="1.91247">
        <ele>126</ele>
        <time>2018-07-15T08:31:43Z</time>
      </trkpt>
      <trkpt lat="43.91117" lon="1.91242">
        <ele>126</ele>
        <time>2018-07-15T08:31:44Z</time>
      </trkpt>
      <trkpt lat="43.91114" lon="1.91237">
        <ele>126</ele>
        <time>2018-07-15T08:31:45Z</time>
      </trkpt>
      <trkpt lat="43.91111" lon="1.91231">
        <ele>126</ele>
        <time>2018-07-15T08:31:46Z</time>
      </trkpt>
      <trkpt lat="43.91108" lon="1.91225">
        <ele>126</ele>
        <time>2018-07-15T08:31:47Z</time>
      </trkpt>
      <trkpt lat="43.91105" lon="1.9122">
        <ele>126</ele>
        <time>2018-07-15T08:31:48Z</time>
      </trkpt>
      <trkpt lat="43.91102" lon="1.91214">
        <ele>126</ele>
        <time>2018-07-15T08:31:49Z</time>
      </trkpt>
      <trkpt lat="43.91099" lon="1.91209">
        <ele>126</ele>
        <time>2018-07-15T08:31:50Z</time>
      </trkpt>
      <trkpt lat="43.91096" lon="1.91203">
        <ele>126</ele>
        <time>2018-07-15T08:31:51Z</time>
      </trkpt>
      <trkpt lat="43.91093" lon="1.91198">
        <ele>125</ele>
        <time>2018-07-15T08:31:52Z</time>
      </trkpt>
      <trkpt lat="43.9109" lon="1.91192">
        <ele>126</ele>
        <time>2018-07-15T08:31:53Z</time>
      </trkpt>
      <trkpt lat="43.91087" lon="1.91187">
        <ele>125</ele>
        <time>2018-07-15T08:31:54Z</time>
      </trkpt>
      <trkpt lat="43.91083" lon="1.91182">
        <ele>125</ele>
        <time>2018-07-15T08:31:55Z</time>
      </trkpt>
      <trkpt lat="43.9108" lon="1.91177">
        <ele>125</ele>
        <time>2018-07-15T08:31:56Z</time>
      </trkpt>
      <trkpt lat="43.91076" lon="1.91172">
        <ele>125</ele>
        <time>2018-07-15T08:31:57Z</time>
      </trkpt>
      <trkpt lat="43.91072" lon="1.91167">
        <ele>125</ele>
        <time>2018-07-15T08:31:58Z</time>
      </trkpt>
      <trkpt lat="43.91068" lon="1.91162">
        <ele>125</ele>
        <time>2018-07-15T08:31:59Z</time>
      </trkpt>
      <trkpt lat="43.91064" lon="1.91158">
        <ele>125</ele>
        <time>2018-07-15T08:32:00Z</time>
      </trkpt>
      <trkpt lat="43.9106" lon="1.91154">
        <ele>125</ele>
        <time>2018-07-15T08:32:01Z</time>
      </trkpt>
      <trkpt lat="43.91056" lon="1.9115">
        <ele>125</ele>
        <time>2018-07-15T08:32:02Z</time>
      </trkpt>
      <trkpt lat="43.91051" lon="1.91145">
        <ele>125</ele>
        <time>2018-07-15T08:32:03Z</time>
      </trkpt>
      <trkpt lat="43.91047" lon="1.91141">
        <ele>125</ele>
        <time>2018-07-15T08:32:04Z</time>
      </trkpt>
      <trkpt lat="43.91043" lon="1.91137">
        <ele>125</ele>
        <time>2018-07-15T08:32:05Z</time>
      </trkpt>
      <trkpt lat="43.91039" lon="1.91133">
        <ele>125</ele>
        <time>2018-07-15T08:32:06Z</time>
      </trkpt>
      <trkpt lat="43.91034" lon="1.91128">
        <ele>125</ele>
        <time>2018-07-15T08:32:07Z</time>
      </trkpt>
      <trkpt lat="43.9103" lon="1.91124">
        <ele>125</ele>
        <time>2018-07-15T08:32:08Z</time>
      </trkpt>
      <trkpt lat="43.91025" lon="1.91119">
        <ele>125</ele>
        <time>2018-07-15T08:32:09Z</time>
      </trkpt>
      <trkpt lat="43.91021" lon="1.91115">
        <ele>125</ele>
        <time>2018-07-15T08:32:10Z</time>
      </trkpt>
      <trkpt lat="43.91017" lon="1.9111">
        <ele>125</ele>
        <time>2018-07-15T08:32:11Z</time>
      </trkpt>
      <trkpt lat="43.91012" lon="1.91106">
        <ele>125</ele>
        <time>2018-07-15T08:32:12Z</time>
      </trkpt>
      <trkpt lat="43.91008" lon="1.91101">
        <ele>125</ele>
        <time>2018-07-15T08:32:13Z</time>
      </trkpt>
      <trkpt lat="43.91004" lon="1.91097">
        <ele>125</ele>
        <time>2018-07-15T08:32:14Z</time>
      </trkpt>
      <trkpt lat="43.91" lon="1.91091">
        <ele>125</ele>
        <time>2018-07-15T08:32:15Z</time>
      </trkpt>
      <trkpt lat="43.90996" lon="1.91085">
        <ele>125</ele>
        <time>2018-07-15T08:32:16Z</time>
      </trkpt>
      <trkpt lat="43.90992" lon="1.9108">
        <ele>125</ele>
        <time>2018-07-15T08:32:17Z</time>
      </trkpt>
      <trkpt lat="43.90988" lon="1.91074">
        <ele>125</ele>
        <time>2018-07-15T08:32:18Z</time>
      </trkpt>
      <trkpt lat="43.90985" lon="1.91068">
        <ele>125</ele>
        <time>2018-07-15T08:32:19Z</time>
      </trkpt>
      <trkpt lat="43.90981" lon="1.91062">
        <ele>125</ele>
        <time>2018-07-15T08:32:20Z</time>
      </trkpt>
      <trkpt lat="43.90977" lon="1.91056">
        <ele>125</ele>
        <time>2018-07-15T08:32:21Z</time>
      </trkpt>
      <trkpt lat="43.90974" lon="1.9105">
        <ele>125</ele>
        <time>2018-07-15T08:32:22Z</time>
      </trkpt>
      <trkpt lat="43.90972" lon="1.91043">
        <ele>125</ele>
        <time>2018-07-15T08:32:23Z</time>
      </trkpt>
      <trkpt lat="43.90969" lon="1.91037">
        <ele>125</ele>
        <time>2018-07-15T08:32:24Z</time>
      </trkpt>
      <trkpt lat="43.90966" lon="1.9103">
        <ele>125</ele>
        <time>2018-07-15T08:32:25Z</time>
      </trkpt>
      <trkpt lat="43.90963" lon="1.91024">
        <ele>125</ele>
        <time>2018-07-15T08:32:26Z</time>
      </trkpt>
      <trkpt lat="43.90961" lon="1.91017">
        <ele>125</ele>
        <time>2018-07-15T08:32:27Z</time>
      </trkpt>
      <trkpt lat="43.90958" lon="1.9101">
        <ele>125</ele>
        <time>2018-07-15T08:32:28Z</time>
      </trkpt>
      <trkpt lat="43.90955" lon="1.91003">
        <ele>125</ele>
        <time>2018-07-15T08:32:29Z</time>
      </trkpt>
      <trkpt lat="43.90953" lon="1.90996">
        <ele>125</ele>
        <time>2018-07-15T08:32:30Z</time>
      </trkpt>
      <trkpt lat="43.9095" lon="1.9099">
        <ele>125</ele>
        <time>2018-07-15T08:32:31Z</time>
      </trkpt>
      <trkpt lat="43.90947" lon="1.90983">
        <ele>125</ele>
        <time>2018-07-15T08:32:32Z</time>
      </trkpt>
      <trkpt lat="43.90944" lon="1.90977">
        <ele>125</ele>
        <time>2018-07-15T08:32:33Z</time>
      </trkpt>
      <trkpt lat="43.90941" lon="1.90971">
        <ele>125</ele>
        <time>2018-07-15T08:32:34Z</time>
      </trkpt>
      <trkpt lat="43.90938" lon="1.90965">
        <ele>125</ele>
        <time>2018-07-15T08:32:35Z</time>
      </trkpt>
      <trkpt lat="43.90934" lon="1.90959">
        <ele>125</ele>
        <time>2018-07-15T08:32:36Z</time>
      </trkpt>
      <trkpt lat="43.9093" lon="1.90954">
        <ele>125</ele>
        <time>2018-07-15T08:32:37Z</time>
      </trkpt>
      <trkpt lat="43.90926" lon="1.9095">
        <ele>124</ele>
        <time>2018-07-15T08:32:38Z</time>
      </trkpt>
      <trkpt lat="43.90921" lon="1.90946">
        <ele>124</ele>
        <time>2018-07-15T08:32:39Z</time>
      </trkpt>
      <trkpt lat="43.90917" lon="1.90943">
        <ele>124</ele>
        <time>2018-07-15T08:32:40Z</time>
      </trkpt>
      <trkpt lat="43.90912" lon="1.9094">
        <ele>124</ele>
        <time>2018-07-15T08:32:41Z</time>
      </trkpt>
      <trkpt lat="43.90907" lon="1.90937">
        <ele>124</ele>
        <time>2018-07-15T08:32:42Z</time>
      </trkpt>
      <trkpt lat="43.90902" lon="1.90935">
        <ele>124</ele>
        <time>2018-07-15T08:32:43Z</time>
      </trkpt>
      <trkpt lat="43.90897" lon="1.90932">
        <ele>125</ele>
        <time>2018-07-15T08:32:44Z</time>
      </trkpt>
      <trkpt lat="43.90892" lon="1.9093">
        <ele>125</ele>
        <time>2018-07-15T08:32:45Z</time>
      </trkpt>
      <trkpt lat="43.90886" lon="1.90927">
        <ele>125</ele>
        <time>2018-07-15T08:32:46Z</time>
      </trkpt>
      <trkpt lat="43.90882" lon="1.90924">
        <ele>124</ele>
        <time>2018-07-15T08:32:47Z</time>
      </trkpt>
      <trkpt lat="43.90877" lon="1.90922">
        <ele>124</ele>
        <time>2018-07-15T08:32:48Z</time>
      </trkpt>
      <trkpt lat="43.90872" lon="1.90919">
        <ele>124</ele>
        <time>2018-07-15T08:32:49Z</time>
      </trkpt>
      <trkpt lat="43.90867" lon="1.90917">
        <ele>124</ele>
        <time>2018-07-15T08:32:50Z</time>
      </trkpt>
      <trkpt lat="43.90862" lon="1.90914">
        <ele>124</ele>
        <time>2018-07-15T08:32:51Z</time>
      </trkpt>
      <trkpt lat="43.90857" lon="1.90911">
        <ele>124</ele>
        <time>2018-07-15T08:32:52Z</time>
      </trkpt>
      <trkpt lat="43.90852" lon="1.90909">
        <ele>124</ele>
        <time>2018-07-15T08:32:53Z</time>
      </trkpt>
      <trkpt lat="43.90847" lon="1.90907">
        <ele>124</ele>
        <time>2018-07-15T08:32:54Z</time>
      </trkpt>
      <trkpt lat="43.90842" lon="1.90904">
        <ele>124</ele>
        <time>2018-07-15T08:32:55Z</time>
      </trkpt>
      <trkpt lat="43.90837" lon="1.90901">
        <ele>124</ele>
        <time>2018-07-15T08:32:56Z</time>
      </trkpt>
      <trkpt lat="43.90832" lon="1.90898">
        <ele>125</ele>
        <time>2018-07-15T08:32:57Z</time>
      </trkpt>
      <trkpt lat="43.90827" lon="1.90895">
        <ele>125</ele>
        <time>2018-07-15T08:32:58Z</time>
      </trkpt>
      <trkpt lat="43.90822" lon="1.90892">
        <ele>124</ele>
        <time>2018-07-15T08:32:59Z</time>
      </trkpt>
      <trkpt lat="43.90817" lon="1.90889">
        <ele>124</ele>
        <time>2018-07-15T08:33:00Z</time>
      </trkpt>
      <trkpt lat="43.90813" lon="1.90886">
        <ele>124</ele>
        <time>2018-07-15T08:33:01Z</time>
      </trkpt>
      <trkpt lat="43.90808" lon="1.90881">
        <ele>124</ele>
        <time>2018-07-15T08:33:02Z</time>
      </trkpt>
      <trkpt lat="43.90804" lon="1.90877">
        <ele>125</ele>
        <time>2018-07-15T08:33:03Z</time>
      </trkpt>
      <trkpt lat="43.90801" lon="1.90872">
        <ele>125</ele>
        <time>2018-07-15T08:33:04Z</time>
      </trkpt>
      <trkpt lat="43.90798" lon="1.90866">
        <ele>125</ele>
        <time>2018-07-15T08:33:05Z</time>
      </trkpt>
      <trkpt lat="43.90795" lon="1.90859">
        <ele>125</ele>
        <time>2018-07-15T08:33:06Z</time>
      </trkpt>
      <trkpt lat="43.90792" lon="1.90853">
        <ele>124</ele>
        <time>2018-07-15T08:33:07Z</time>
      </trkpt>
      <trkpt lat="43.9079" lon="1.90846">
        <ele>124</ele>
        <time>2018-07-15T08:33:08Z</time>
      </trkpt>
      <trkpt lat="43.90787" lon="1.9084">
        <ele>124</ele>
        <time>2018-07-15T08:33:09Z</time>
      </trkpt>
      <trkpt lat="43.90785" lon="1.90833">
        <ele>124</ele>
        <time>2018-07-15T08:33:10Z</time>
      </trkpt>
      <trkpt lat="43.90782" lon="1.90827">
        <ele>124</ele>
        <time>2018-07-15T08:33:11Z</time>
      </trkpt>
      <trkpt lat="43.9078" lon="1.90821">
        <ele>124</ele>
        <time>2018-07-15T08:33:12Z</time>
      </trkpt>
      <trkpt lat="43.90777" lon="1.90815">
        <ele>124</ele>
        <time>2018-07-15T08:33:13Z</time>
      </trkpt>
      <trkpt lat="43.90775" lon="1.90809">
        <ele>124</ele>
        <time>2018-07-15T08:33:14Z</time>
      </trkpt>
      <trkpt lat="43.90772" lon="1.90803">
        <ele>125</ele>
        <time>2018-07-15T08:33:15Z</time>
      </trkpt>
      <trkpt lat="43.90769" lon="1.90797">
        <ele>125</ele>
        <time>2018-07-15T08:33:16Z</time>
      </trkpt>
      <trkpt lat="43.90766" lon="1.90792">
        <ele>125</ele>
        <time>2018-07-15T08:33:17Z</time>
      </trkpt>
      <trkpt lat="43.90763" lon="1.90786">
        <ele>125</ele>
        <time>2018-07-15T08:33:18Z</time>
      </trkpt>
      <trkpt lat="43.9076" lon="1.90781">
        <ele>125</ele>
        <time>2018-07-15T08:33:19Z</time>
      </trkpt>
      <trkpt lat="43.90756" lon="1.90776">
        <ele>125</ele>
        <time>2018-07-15T08:33:20Z</time>
      </trkpt>
      <trkpt lat="43.90752" lon="1.90772">
        <ele>125</ele>
        <time>2018-07-15T08:33:21Z</time>
      </trkpt>
      <trkpt lat="43.90748" lon="1.90768">
        <ele>125</ele>
        <time>2018-07-15T08:33:22Z</time>
      </trkpt>
      <trkpt lat="43.90743" lon="1.90765">
        <ele>125</ele>
        <time>2018-07-15T08:33:23Z</time>
      </trkpt>
      <trkpt lat="43.90739" lon="1.90762">
        <ele>125</ele>
        <time>2018-07-15T08:33:24Z</time>
      </trkpt>
      <trkpt lat="43.90734" lon="1.90759">
        <ele>125</ele>
        <time>2018-07-15T08:33:25Z</time>
      </trkpt>
      <trkpt lat="43.90729" lon="1.90756">
        <ele>124</ele>
        <time>2018-07-15T08:33:26Z</time>
      </trkpt>
      <trkpt lat="43.90724" lon="1.90753">
        <ele>124</ele>
        <time>2018-07-15T08:33:27Z</time>
      </trkpt>
      <trkpt lat="43.9072" lon="1.90751">
        <ele>124</ele>
        <time>2018-07-15T08:33:28Z</time>
      </trkpt>
      <trkpt lat="43.90715" lon="1.90748">
        <ele>124</ele>
        <time>2018-07-15T08:33:29Z</time>
      </trkpt>
      <trkpt lat="43.9071" lon="1.90746">
        <ele>124</ele>
        <time>2018-07-15T08:33:30Z</time>
      </trkpt>
      <trkpt lat="43.90705" lon="1.90743">
        <ele>124</ele>
        <time>2018-07-15T08:33:31Z</time>
      </trkpt>
      <trkpt lat="43.907" lon="1.90741">
        <ele>125</ele>
        <time>2018-07-15T08:33:32Z</time>
      </trkpt>
      <trkpt lat="43.90695" lon="1.90737">
        <ele>124</ele>
        <time>2018-07-15T08:33:33Z</time>
      </trkpt>
      <trkpt lat="43.9069" lon="1.90735">
        <ele>124</ele>
        <time>2018-07-15T08:33:34Z</time>
      </trkpt>
      <trkpt lat="43.90685" lon="1.90732">
        <ele>124</ele>
        <time>2018-07-15T08:33:35Z</time>
      </trkpt>
      <trkpt lat="43.90681" lon="1.9073">
        <ele>124</ele>
        <time>2018-07-15T08:33:36Z</time>
      </trkpt>
      <trkpt lat="43.90676" lon="1.90726">
        <ele>124</ele>
        <time>2018-07-15T08:33:37Z</time>
      </trkpt>
      <trkpt lat="43.90673" lon="1.90722">
        <ele>124</ele>
        <time>2018-07-15T08:33:38Z</time>
      </trkpt>
      <trkpt lat="43.90669" lon="1.90717">
        <ele>124</ele>
        <time>2018-07-15T08:33:39Z</time>
      </trkpt>
      <trkpt lat="43.90667" lon="1.9071">
        <ele>124</ele>
        <time>2018-07-15T08:33:40Z</time>
      </trkpt>
      <trkpt lat="43.90665" lon="1.90703">
        <ele>124</ele>
        <time>2018-07-15T08:33:41Z</time>
      </trkpt>
      <trkpt lat="43.90664" lon="1.90697">
        <ele>124</ele>
        <time>2018-07-15T08:33:42Z</time>
      </trkpt>
      <trkpt lat="43.90664" lon="1.9069">
        <ele>125</ele>
        <time>2018-07-15T08:33:43Z</time>
      </trkpt>
      <trkpt lat="43.90663" lon="1.90683">
        <ele>125</ele>
        <time>2018-07-15T08:33:44Z</time>
      </trkpt>
      <trkpt lat="43.90662" lon="1.90676">
        <ele>125</ele>
        <time>2018-07-15T08:33:45Z</time>
      </trkpt>
      <trkpt lat="43.90661" lon="1.90669">
        <ele>124</ele>
        <time>2018-07-15T08:33:46Z</time>
      </trkpt>
      <trkpt lat="43.9066" lon="1.90662">
        <ele>124</ele>
        <time>2018-07-15T08:33:47Z</time>
      </trkpt>
      <trkpt lat="43.90659" lon="1.90655">
        <ele>124</ele>
        <time>2018-07-15T08:33:48Z</time>
      </trkpt>
      <trkpt lat="43.90659" lon="1.90648">
        <ele>124</ele>
        <time>2018-07-15T08:33:49Z</time>
      </trkpt>
      <trkpt lat="43.90658" lon="1.90641">
        <ele>124</ele>
        <time>2018-07-15T08:33:50Z</time>
      </trkpt>
      <trkpt lat="43.90657" lon="1.90634">
        <ele>124</ele>
        <time>2018-07-15T08:33:51Z</time>
      </trkpt>
      <trkpt lat="43.90656" lon="1.90627">
        <ele>124</ele>
        <time>2018-07-15T08:33:52Z</time>
      </trkpt>
      <trkpt lat="43.90655" lon="1.9062">
        <ele>124</ele>
        <time>2018-07-15T08:33:53Z</time>
      </trkpt>
      <trkpt lat="43.90654" lon="1.90612">
        <ele>124</ele>
        <time>2018-07-15T08:33:54Z</time>
      </trkpt>
      <trkpt lat="43.90653" lon="1.90605">
        <ele>124</ele>
        <time>2018-07-15T08:33:55Z</time>
      </trkpt>
      <trkpt lat="43.90653" lon="1.90598">
        <ele>124</ele>
        <time>2018-07-15T08:33:56Z</time>
      </trkpt>
      <trkpt lat="43.90652" lon="1.90591">
        <ele>124</ele>
        <time>2018-07-15T08:33:57Z</time>
      </trkpt>
      <trkpt lat="43.90651" lon="1.90583">
        <ele>124</ele>
        <time>2018-07-15T08:33:58Z</time>
      </trkpt>
      <trkpt lat="43.9065" lon="1.90576">
        <ele>124</ele>
        <time>2018-07-15T08:33:59Z</time>
      </trkpt>
      <trkpt lat="43.90649" lon="1.90569">
        <ele>124</ele>
        <time>2018-07-15T08:34:00Z</time>
      </trkpt>
      <trkpt lat="43.90648" lon="1.90562">
        <ele>124</ele>
        <time>2018-07-15T08:34:01Z</time>
      </trkpt>
      <trkpt lat="43.90647" lon="1.90555">
        <ele>124</ele>
        <time>2018-07-15T08:34:02Z</time>
      </trkpt>
      <trkpt lat="43.90646" lon="1.90548">
        <ele>124</ele>
        <time>2018-07-15T08:34:03Z</time>
      </trkpt>
      <trkpt lat="43.90645" lon="1.90541">
        <ele>124</ele>
        <time>2018-07-15T08:34:04Z</time>
      </trkpt>
      <trkpt lat="43.90643" lon="1.90534">
        <ele>124</ele>
        <time>2018-07-15T08:34:05Z</time>
      </trkpt>
      <trkpt lat="43.90642" lon="1.90527">
        <ele>124</ele>
        <time>2018-07-15T08:34:06Z</time>
      </trkpt>
      <trkpt lat="43.90641" lon="1.9052">
        <ele>124</ele>
        <time>2018-07-15T08:34:07Z</time>
      </trkpt>
      <trkpt lat="43.9064" lon="1.90513">
        <ele>124</ele>
        <time>2018-07-15T08:34:08Z</time>
      </trkpt>
      <trkpt lat="43.90638" lon="1.90507">
        <ele>124</ele>
        <time>2018-07-15T08:34:09Z</time>
      </trkpt>
      <trkpt lat="43.90637" lon="1.905">
        <ele>124</ele>
        <time>2018-07-15T08:34:10Z</time>
      </trkpt>
      <trkpt lat="43.90636" lon="1.90493">
        <ele>124</ele>
        <time>2018-07-15T08:34:11Z</time>
      </trkpt>
      <trkpt lat="43.90635" lon="1.90487">
        <ele>124</ele>
        <time>2018-07-15T08:34:12Z</time>
      </trkpt>
      <trkpt lat="43.90633" lon="1.90481">
        <ele>124</ele>
        <time>2018-07-15T08:34:13Z</time>
      </trkpt>
      <trkpt lat="43.90632" lon="1.90474">
        <ele>124</ele>
        <time>2018-07-15T08:34:14Z</time>
      </trkpt>
      <trkpt lat="43.90631" lon="1.90468">
        <ele>124</ele>
        <time>2018-07-15T08:34:15Z</time>
      </trkpt>
      <trkpt lat="43.90631" lon="1.90462">
        <ele>124</ele>
        <time>2018-07-15T08:34:16Z</time>
      </trkpt>
      <trkpt lat="43.90631" lon="1.90457">
        <ele>124</ele>
        <time>2018-07-15T08:34:17Z</time>
      </trkpt>
      <trkpt lat="43.90633" lon="1.90452">
        <ele>124</ele>
        <time>2018-07-15T08:34:18Z</time>
      </trkpt>
      <trkpt lat="43.90634" lon="1.90447">
        <ele>125</ele>
        <time>2018-07-15T08:34:19Z</time>
      </trkpt>
      <trkpt lat="43.90635" lon="1.90443">
        <ele>125</ele>
        <time>2018-07-15T08:34:20Z</time>
      </trkpt>
      <trkpt lat="43.90635" lon="1.9044">
        <ele>125</ele>
        <time>2018-07-15T08:34:21Z</time>
      </trkpt>
      <trkpt lat="43.90635" lon="1.90437">
        <ele>125</ele>
        <time>2018-07-15T08:34:22Z</time>
      </trkpt>
      <trkpt lat="43.90634" lon="1.90435">
        <ele>125</ele>
        <time>2018-07-15T08:34:23Z</time>
      </trkpt>
      <trkpt lat="43.90633" lon="1.90432">
        <ele>125</ele>
        <time>2018-07-15T08:34:24Z</time>
      </trkpt>
      <trkpt lat="43.90631" lon="1.9043">
        <ele>125</ele>
        <time>2018-07-15T08:34:25Z</time>
      </trkpt>
      <trkpt lat="43.90629" lon="1.90428">
        <ele>125</ele>
        <time>2018-07-15T08:34:26Z</time>
      </trkpt>
      <trkpt lat="43.90628" lon="1.90426">
        <ele>125</ele>
        <time>2018-07-15T08:34:27Z</time>
      </trkpt>
      <trkpt lat="43.90627" lon="1.90423">
        <ele>125</ele>
        <time>2018-07-15T08:34:28Z</time>
      </trkpt>
      <trkpt lat="43.90625" lon="1.90421">
        <ele>125</ele>
        <time>2018-07-15T08:34:29Z</time>
      </trkpt>
      <trkpt lat="43.90622" lon="1.90418">
        <ele>125</ele>
        <time>2018-07-15T08:34:30Z</time>
      </trkpt>
      <trkpt lat="43.9062" lon="1.90416">
        <ele>125</ele>
        <time>2018-07-15T08:34:31Z</time>
      </trkpt>
      <trkpt lat="43.90618" lon="1.90412">
        <ele>125</ele>
        <time>2018-07-15T08:34:32Z</time>
      </trkpt>
      <trkpt lat="43.90616" lon="1.90408">
        <ele>125</ele>
        <time>2018-07-15T08:34:33Z</time>
      </trkpt>
      <trkpt lat="43.90615" lon="1.90403">
        <ele>125</ele>
        <time>2018-07-15T08:34:34Z</time>
      </trkpt>
      <trkpt lat="43.90616" lon="1.90398">
        <ele>125</ele>
        <time>2018-07-15T08:34:35Z</time>
      </trkpt>
      <trkpt lat="43.90616" lon="1.90393">
        <ele>124</ele>
        <time>2018-07-15T08:34:36Z</time>
      </trkpt>
      <trkpt lat="43.90617" lon="1.90387">
        <ele>124</ele>
        <time>2018-07-15T08:34:37Z</time>
      </trkpt>
      <trkpt lat="43.90617" lon="1.90381">
        <ele>124</ele>
        <time>2018-07-15T08:34:38Z</time>
      </trkpt>
      <trkpt lat="43.90618" lon="1.90375">
        <ele>124</ele>
        <time>2018-07-15T08:34:39Z</time>
      </trkpt>
      <trkpt lat="43.90619" lon="1.90369">
        <ele>124</ele>
        <time>2018-07-15T08:34:40Z</time>
      </trkpt>
      <trkpt lat="43.90619" lon="1.90364">
        <ele>124</ele>
        <time>2018-07-15T08:34:41Z</time>
      </trkpt>
      <trkpt lat="43.90619" lon="1.90358">
        <ele>124</ele>
        <time>2018-07-15T08:34:42Z</time>
      </trkpt>
      <trkpt lat="43.9062" lon="1.90351">
        <ele>124</ele>
        <time>2018-07-15T08:34:43Z</time>
      </trkpt>
      <trkpt lat="43.9062" lon="1.90345">
        <ele>124</ele>
        <time>2018-07-15T08:34:44Z</time>
      </trkpt>
      <trkpt lat="43.9062" lon="1.90338">
        <ele>124</ele>
        <time>2018-07-15T08:34:45Z</time>
      </trkpt>
      <trkpt lat="43.9062" lon="1.90331">
        <ele>124</ele>
        <time>2018-07-15T08:34:46Z</time>
      </trkpt>
      <trkpt lat="43.90619" lon="1.90324">
        <ele>124</ele>
        <time>2018-07-15T08:34:47Z</time>
      </trkpt>
      <trkpt lat="43.90618" lon="1.90318">
        <ele>124</ele>
        <time>2018-07-15T08:34:48Z</time>
      </trkpt>
      <trkpt lat="43.90616" lon="1.90312">
        <ele>124</ele>
        <time>2018-07-15T08:34:49Z</time>
      </trkpt>
      <trkpt lat="43.90615" lon="1.90305">
        <ele>124</ele>
        <time>2018-07-15T08:34:50Z</time>
      </trkpt>
      <trkpt lat="43.90613" lon="1.90299">
        <ele>125</ele>
        <time>2018-07-15T08:34:51Z</time>
      </trkpt>
      <trkpt lat="43.9061" lon="1.90292">
        <ele>125</ele>
        <time>2018-07-15T08:34:52Z</time>
      </trkpt>
      <trkpt lat="43.90608" lon="1.90286">
        <ele>125</ele>
        <time>2018-07-15T08:34:53Z</time>
      </trkpt>
      <trkpt lat="43.90606" lon="1.90279">
        <ele>125</ele>
        <time>2018-07-15T08:34:54Z</time>
      </trkpt>
      <trkpt lat="43.90604" lon="1.90272">
        <ele>125</ele>
        <time>2018-07-15T08:34:55Z</time>
      </trkpt>
      <trkpt lat="43.90601" lon="1.90266">
        <ele>125</ele>
        <time>2018-07-15T08:34:56Z</time>
      </trkpt>
      <trkpt lat="43.90599" lon="1.90259">
        <ele>125</ele>
        <time>2018-07-15T08:34:57Z</time>
      </trkpt>
      <trkpt lat="43.90597" lon="1.90253">
        <ele>124</ele>
        <time>2018-07-15T08:34:58Z</time>
      </trkpt>
      <trkpt lat="43.90595" lon="1.90246">
        <ele>124</ele>
        <time>2018-07-15T08:34:59Z</time>
      </trkpt>
      <trkpt lat="43.90593" lon="1.90239">
        <ele>124</ele>
        <time>2018-07-15T08:35:00Z</time>
      </trkpt>
      <trkpt lat="43.90591" lon="1.90232">
        <ele>124</ele>
        <time>2018-07-15T08:35:01Z</time>
      </trkpt>
      <trkpt lat="43.90589" lon="1.90225">
        <ele>124</ele>
        <time>2018-07-15T08:35:02Z</time>
      </trkpt>
      <trkpt lat="43.90587" lon="1.90219">
        <ele>125</ele>
        <time>2018-07-15T08:35:03Z</time>
      </trkpt>
      <trkpt lat="43.90585" lon="1.90212">
        <ele>124</ele>
        <time>2018-07-15T08:35:04Z</time>
      </trkpt>
      <trkpt lat="43.90583" lon="1.90206">
        <ele>124</ele>
        <time>2018-07-15T08:35:05Z</time>
      </trkpt>
      <trkpt lat="43.90581" lon="1.902">
        <ele>124</ele>
        <time>2018-07-15T08:35:06Z</time>
      </trkpt>
      <trkpt lat="43.90579" lon="1.90193">
        <ele>124</ele>
        <time>2018-07-15T08:35:07Z</time>
      </trkpt>
      <trkpt lat="43.90577" lon="1.90186">
        <ele>124</ele>
        <time>2018-07-15T08:35:08Z</time>
      </trkpt>
      <trkpt lat="43.90574" lon="1.90179">
        <ele>124</ele>
        <time>2018-07-15T08:35:09Z</time>
      </trkpt>
      <trkpt lat="43.90572" lon="1.90172">
        <ele>124</ele>
        <time>2018-07-15T08:35:10Z</time>
      </trkpt>
      <trkpt lat="43.9057" lon="1.90166">
        <ele>124</ele>
        <time>2018-07-15T08:35:11Z</time>
      </trkpt>
      <trkpt lat="43.90568" lon="1.90159">
        <ele>124</ele>
        <time>2018-07-15T08:35:12Z</time>
      </trkpt>
      <trkpt lat="43.90566" lon="1.90152">
        <ele>124</ele>
        <time>2018-07-15T08:35:13Z</time>
      </trkpt>
      <trkpt lat="43.90564" lon="1.90146">
        <ele>124</ele>
        <time>2018-07-15T08:35:14Z</time>
      </trkpt>
      <trkpt lat="43.90562" lon="1.90139">
        <ele>124</ele>
        <time>2018-07-15T08:35:15Z</time>
      </trkpt>
      <trkpt lat="43.9056" lon="1.90132">
        <ele>124</ele>
        <time>2018-07-15T08:35:16Z</time>
      </trkpt>
      <trkpt lat="43.90558" lon="1.90126">
        <ele>124</ele>
        <time>2018-07-15T08:35:17Z</time>
      </trkpt>
      <trkpt lat="43.90556" lon="1.90119">
        <ele>124</ele>
        <time>2018-07-15T08:35:18Z</time>
      </trkpt>
      <trkpt lat="43.90554" lon="1.90112">
        <ele>124</ele>
        <time>2018-07-15T08:35:19Z</time>
      </trkpt>
      <trkpt lat="43.90552" lon="1.90105">
        <ele>124</ele>
        <time>2018-07-15T08:35:20Z</time>
      </trkpt>
      <trkpt lat="43.90549" lon="1.90099">
        <ele>124</ele>
        <time>2018-07-15T08:35:21Z</time>
      </trkpt>
      <trkpt lat="43.90547" lon="1.90092">
        <ele>124</ele>
        <time>2018-07-15T08:35:22Z</time>
      </trkpt>
      <trkpt lat="43.90545" lon="1.90085">
        <ele>124</ele>
        <time>2018-07-15T08:35:23Z</time>
      </trkpt>
      <trkpt lat="43.90543" lon="1.90079">
        <ele>124</ele>
        <time>2018-07-15T08:35:24Z</time>
      </trkpt>
      <trkpt lat="43.90541" lon="1.90072">
        <ele>124</ele>
        <time>2018-07-15T08:35:25Z</time>
      </trkpt>
      <trkpt lat="43.90539" lon="1.90065">
        <ele>124</ele>
        <time>2018-07-15T08:35:26Z</time>
      </trkpt>
      <trkpt lat="43.90537" lon="1.90058">
        <ele>124</ele>
        <time>2018-07-15T08:35:27Z</time>
      </trkpt>
      <trkpt lat="43.90536" lon="1.90052">
        <ele>124</ele>
        <time>2018-07-15T08:35:28Z</time>
      </trkpt>
      <trkpt lat="43.90534" lon="1.90045">
        <ele>124</ele>
        <time>2018-07-15T08:35:29Z</time>
      </trkpt>
      <trkpt lat="43.90533" lon="1.90037">
        <ele>124</ele>
        <time>2018-07-15T08:35:30Z</time>
      </trkpt>
      <trkpt lat="43.90532" lon="1.9003">
        <ele>124</ele>
        <time>2018-07-15T08:35:31Z</time>
      </trkpt>
      <trkpt lat="43.90531" lon="1.90023">
        <ele>124</ele>
        <time>2018-07-15T08:35:32Z</time>
      </trkpt>
      <trkpt lat="43.9053" lon="1.90016">
        <ele>124</ele>
        <time>2018-07-15T08:35:33Z</time>
      </trkpt>
      <trkpt lat="43.90529" lon="1.90008">
        <ele>124</ele>
        <time>2018-07-15T08:35:34Z</time>
      </trkpt>
      <trkpt lat="43.90528" lon="1.90001">
        <ele>124</ele>
        <time>2018-07-15T08:35:35Z</time>
      </trkpt>
      <trkpt lat="43.90526" lon="1.89994">
        <ele>123</ele>
        <time>2018-07-15T08:35:36Z</time>
      </trkpt>
      <trkpt lat="43.90525" lon="1.89987">
        <ele>123</ele>
        <time>2018-07-15T08:35:37Z</time>
      </trkpt>
      <trkpt lat="43.90524" lon="1.8998">
        <ele>123</ele>
        <time>2018-07-15T08:35:38Z</time>
      </trkpt>
      <trkpt lat="43.90523" lon="1.89973">
        <ele>123</ele>
        <time>2018-07-15T08:35:39Z</time>
      </trkpt>
      <trkpt lat="43.90522" lon="1.89965">
        <ele>123</ele>
        <time>2018-07-15T08:35:40Z</time>
      </trkpt>
      <trkpt lat="43.90521" lon="1.89958">
        <ele>123</ele>
        <time>2018-07-15T08:35:41Z</time>
      </trkpt>
      <trkpt lat="43.9052" lon="1.8995">
        <ele>123</ele>
        <time>2018-07-15T08:35:42Z</time>
      </trkpt>
      <trkpt lat="43.90519" lon="1.89943">
        <ele>123</ele>
        <time>2018-07-15T08:35:43Z</time>
      </trkpt>
      <trkpt lat="43.90519" lon="1.89935">
        <ele>123</ele>
        <time>2018-07-15T08:35:44Z</time>
      </trkpt>
      <trkpt lat="43.90518" lon="1.89927">
        <ele>123</ele>
        <time>2018-07-15T08:35:45Z</time>
      </trkpt>
      <trkpt lat="43.90518" lon="1.89919">
        <ele>123</ele>
        <time>2018-07-15T08:35:46Z</time>
      </trkpt>
      <trkpt lat="43.90517" lon="1.89912">
        <ele>123</ele>
        <time>2018-07-15T08:35:47Z</time>
      </trkpt>
      <trkpt lat="43.90516" lon="1.89905">
        <ele>123</ele>
        <time>2018-07-15T08:35:48Z</time>
      </trkpt>
      <trkpt lat="43.90514" lon="1.89898">
        <ele>123</ele>
        <time>2018-07-15T08:35:49Z</time>
      </trkpt>
      <trkpt lat="43.90513" lon="1.89891">
        <ele>123</ele>
        <time>2018-07-15T08:35:50Z</time>
      </trkpt>
      <trkpt lat="43.90512" lon="1.89884">
        <ele>123</ele>
        <time>2018-07-15T08:35:51Z</time>
      </trkpt>
      <trkpt lat="43.90511" lon="1.89876">
        <ele>123</ele>
        <time>2018-07-15T08:35:52Z</time>
      </trkpt>
      <trkpt lat="43.9051" lon="1.8987">
        <ele>123</ele>
        <time>2018-07-15T08:35:53Z</time>
      </trkpt>
      <trkpt lat="43.90508" lon="1.89863">
        <ele>123</ele>
        <time>2018-07-15T08:35:54Z</time>
      </trkpt>
      <trkpt lat="43.90507" lon="1.89857">
        <ele>123</ele>
        <time>2018-07-15T08:35:55Z</time>
      </trkpt>
      <trkpt lat="43.90505" lon="1.8985">
        <ele>123</ele>
        <time>2018-07-15T08:35:56Z</time>
      </trkpt>
      <trkpt lat="43.90504" lon="1.89844">
        <ele>123</ele>
        <time>2018-07-15T08:35:57Z</time>
      </trkpt>
      <trkpt lat="43.90503" lon="1.89839">
        <ele>123</ele>
        <time>2018-07-15T08:35:58Z</time>
      </trkpt>
      <trkpt lat="43.90503" lon="1.89833">
        <ele>123</ele>
        <time>2018-07-15T08:35:59Z</time>
      </trkpt>
      <trkpt lat="43.90502" lon="1.89828">
        <ele>123</ele>
        <time>2018-07-15T08:36:00Z</time>
      </trkpt>
      <trkpt lat="43.90503" lon="1.89822">
        <ele>123</ele>
        <time>2018-07-15T08:36:01Z</time>
      </trkpt>
      <trkpt lat="43.90503" lon="1.89817">
        <ele>124</ele>
        <time>2018-07-15T08:36:02Z</time>
      </trkpt>
      <trkpt lat="43.90503" lon="1.89811">
        <ele>124</ele>
        <time>2018-07-15T08:36:03Z</time>
      </trkpt>
      <trkpt lat="43.90503" lon="1.89806">
        <ele>124</ele>
        <time>2018-07-15T08:36:04Z</time>
      </trkpt>
      <trkpt lat="43.905" lon="1.89801">
        <ele>124</ele>
        <time>2018-07-15T08:36:05Z</time>
      </trkpt>
      <trkpt lat="43.90497" lon="1.89797">
        <ele>124</ele>
        <time>2018-07-15T08:36:06Z</time>
      </trkpt>
      <trkpt lat="43.90493" lon="1.89794">
        <ele>123</ele>
        <time>2018-07-15T08:36:07Z</time>
      </trkpt>
      <trkpt lat="43.90488" lon="1.89792">
        <ele>123</ele>
        <time>2018-07-15T08:36:08Z</time>
      </trkpt>
      <trkpt lat="43.90483" lon="1.8979">
        <ele>123</ele>
        <time>2018-07-15T08:36:09Z</time>
      </trkpt>
      <trkpt lat="43.90479" lon="1.89787">
        <ele>123</ele>
        <time>2018-07-15T08:36:10Z</time>
      </trkpt>
      <trkpt lat="43.90474" lon="1.89785">
        <ele>123</ele>
        <time>2018-07-15T08:36:11Z</time>
      </trkpt>
      <trkpt lat="43.90469" lon="1.89782">
        <ele>123</ele>
        <time>2018-07-15T08:36:12Z</time>
      </trkpt>
      <trkpt lat="43.90464" lon="1.8978">
        <ele>123</ele>
        <time>2018-07-15T08:36:13Z</time>
      </trkpt>
      <trkpt lat="43.90459" lon="1.89777">
        <ele>123</ele>
        <time>2018-07-15T08:36:14Z</time>
      </trkpt>
      <trkpt lat="43.90454" lon="1.89774">
        <ele>123</ele>
        <time>2018-07-15T08:36:15Z</time>
      </trkpt>
      <trkpt lat="43.90449" lon="1.89771">
        <ele>123</ele>
        <time>2018-07-15T08:36:16Z</time>
      </trkpt>
      <trkpt lat="43.90444" lon="1.89768">
        <ele>123</ele>
        <time>2018-07-15T08:36:17Z</time>
      </trkpt>
      <trkpt lat="43.90439" lon="1.89765">
        <ele>123</ele>
        <time>2018-07-15T08:36:18Z</time>
      </trkpt>
      <trkpt lat="43.90433" lon="1.89763">
        <ele>122</ele>
        <time>2018-07-15T08:36:19Z</time>
      </trkpt>
      <trkpt lat="43.90428" lon="1.8976">
        <ele>122</ele>
        <time>2018-07-15T08:36:20Z</time>
      </trkpt>
      <trkpt lat="43.90423" lon="1.89757">
        <ele>122</ele>
        <time>2018-07-15T08:36:21Z</time>
      </trkpt>
      <trkpt lat="43.90419" lon="1.89755">
        <ele>122</ele>
        <time>2018-07-15T08:36:22Z</time>
      </trkpt>
      <trkpt lat="43.90414" lon="1.89752">
        <ele>122</ele>
        <time>2018-07-15T08:36:23Z</time>
      </trkpt>
      <trkpt lat="43.90409" lon="1.89749">
        <ele>122</ele>
        <time>2018-07-15T08:36:24Z</time>
      </trkpt>
      <trkpt lat="43.90405" lon="1.89747">
        <ele>122</ele>
        <time>2018-07-15T08:36:25Z</time>
      </trkpt>
      <trkpt lat="43.90401" lon="1.89744">
        <ele>122</ele>
        <time>2018-07-15T08:36:26Z</time>
      </trkpt>
      <trkpt lat="43.90397" lon="1.89742">
        <ele>122</ele>
        <time>2018-07-15T08:36:27Z</time>
      </trkpt>
      <trkpt lat="43.90393" lon="1.89739">
        <ele>122</ele>
        <time>2018-07-15T08:36:28Z</time>
      </trkpt>
      <trkpt lat="43.9039" lon="1.89735">
        <ele>122</ele>
        <time>2018-07-15T08:36:29Z</time>
      </trkpt>
      <trkpt lat="43.90388" lon="1.89728">
        <ele>122</ele>
        <time>2018-07-15T08:36:30Z</time>
      </trkpt>
      <trkpt lat="43.90388" lon="1.89721">
        <ele>122</ele>
        <time>2018-07-15T08:36:31Z</time>
      </trkpt>
      <trkpt lat="43.90389" lon="1.89714">
        <ele>122</ele>
        <time>2018-07-15T08:36:32Z</time>
      </trkpt>
      <trkpt lat="43.90391" lon="1.89707">
        <ele>122</ele>
        <time>2018-07-15T08:36:33Z</time>
      </trkpt>
      <trkpt lat="43.90395" lon="1.89701">
        <ele>122</ele>
        <time>2018-07-15T08:36:34Z</time>
      </trkpt>
      <trkpt lat="43.90399" lon="1.89696">
        <ele>121</ele>
        <time>2018-07-15T08:36:35Z</time>
      </trkpt>
      <trkpt lat="43.90404" lon="1.8969">
        <ele>121</ele>
        <time>2018-07-15T08:36:36Z</time>
      </trkpt>
      <trkpt lat="43.90409" lon="1.89685">
        <ele>121</ele>
        <time>2018-07-15T08:36:37Z</time>
      </trkpt>
      <trkpt lat="43.90414" lon="1.8968">
        <ele>121</ele>
        <time>2018-07-15T08:36:38Z</time>
      </trkpt>
      <trkpt lat="43.90419" lon="1.89675">
        <ele>121</ele>
        <time>2018-07-15T08:36:39Z</time>
      </trkpt>
      <trkpt lat="43.90423" lon="1.89671">
        <ele>120</ele>
        <time>2018-07-15T08:36:40Z</time>
      </trkpt>
      <trkpt lat="43.90427" lon="1.89666">
        <ele>120</ele>
        <time>2018-07-15T08:36:41Z</time>
      </trkpt>
      <trkpt lat="43.90431" lon="1.89663">
        <ele>120</ele>
        <time>2018-07-15T08:36:42Z</time>
      </trkpt>
      <trkpt lat="43.90435" lon="1.89659">
        <ele>121</ele>
        <time>2018-07-15T08:36:43Z</time>
      </trkpt>
      <trkpt lat="43.90439" lon="1.89656">
        <ele>121</ele>
        <time>2018-07-15T08:36:44Z</time>
      </trkpt>
      <trkpt lat="43.90443" lon="1.89652">
        <ele>121</ele>
        <time>2018-07-15T08:36:45Z</time>
      </trkpt>
      <trkpt lat="43.90447" lon="1.89648">
        <ele>121</ele>
        <time>2018-07-15T08:36:46Z</time>
      </trkpt>
      <trkpt lat="43.90451" lon="1.89644">
        <ele>121</ele>
        <time>2018-07-15T08:36:47Z</time>
      </trkpt>
      <trkpt lat="43.90455" lon="1.8964">
        <ele>121</ele>
        <time>2018-07-15T08:36:48Z</time>
      </trkpt>
      <trkpt lat="43.90459" lon="1.89635">
        <ele>121</ele>
        <time>2018-07-15T08:36:49Z</time>
      </trkpt>
      <trkpt lat="43.90464" lon="1.8963">
        <ele>121</ele>
        <time>2018-07-15T08:36:50Z</time>
      </trkpt>
      <trkpt lat="43.90468" lon="1.89626">
        <ele>121</ele>
        <time>2018-07-15T08:36:51Z</time>
      </trkpt>
      <trkpt lat="43.90472" lon="1.89621">
        <ele>122</ele>
        <time>2018-07-15T08:36:52Z</time>
      </trkpt>
      <trkpt lat="43.90475" lon="1.89617">
        <ele>122</ele>
        <time>2018-07-15T08:36:53Z</time>
      </trkpt>
      <trkpt lat="43.90479" lon="1.89613">
        <ele>122</ele>
        <time>2018-07-15T08:36:54Z</time>
      </trkpt>
      <trkpt lat="43.90483" lon="1.89609">
        <ele>122</ele>
        <time>2018-07-15T08:36:55Z</time>
      </trkpt>
      <trkpt lat="43.90487" lon="1.89605">
        <ele>122</ele>
        <time>2018-07-15T08:36:56Z</time>
      </trkpt>
      <trkpt lat="43.9049" lon="1.896">
        <ele>122</ele>
        <time>2018-07-15T08:36:57Z</time>
      </trkpt>
      <trkpt lat="43.90492" lon="1.89594">
        <ele>122</ele>
        <time>2018-07-15T08:36:58Z</time>
      </trkpt>
      <trkpt lat="43.90493" lon="1.89588">
        <ele>122</ele>
        <time>2018-07-15T08:36:59Z</time>
      </trkpt>
      <trkpt lat="43.90491" lon="1.89582">
        <ele>122</ele>
        <time>2018-07-15T08:37:00Z</time>
      </trkpt>
      <trkpt lat="43.90489" lon="1.89575">
        <ele>122</ele>
        <time>2018-07-15T08:37:01Z</time>
      </trkpt>
      <trkpt lat="43.90487" lon="1.89568">
        <ele>122</ele>
        <time>2018-07-15T08:37:02Z</time>
      </trkpt>
      <trkpt lat="43.90487" lon="1.89561">
        <ele>122</ele>
        <time>2018-07-15T08:37:03Z</time>
      </trkpt>
      <trkpt lat="43.90488" lon="1.89553">
        <ele>123</ele>
        <time>2018-07-15T08:37:04Z</time>
      </trkpt>
      <trkpt lat="43.90488" lon="1.89546">
        <ele>123</ele>
        <time>2018-07-15T08:37:05Z</time>
      </trkpt>
      <trkpt lat="43.90488" lon="1.89538">
        <ele>123</ele>
        <time>2018-07-15T08:37:06Z</time>
      </trkpt>
      <trkpt lat="43.90488" lon="1.89531">
        <ele>123</ele>
        <time>2018-07-15T08:37:07Z</time>
      </trkpt>
      <trkpt lat="43.90488" lon="1.89523">
        <ele>123</ele>
        <time>2018-07-15T08:37:08Z</time>
      </trkpt>
      <trkpt lat="43.90488" lon="1.89516">
        <ele>123</ele>
        <time>2018-07-15T08:37:09Z</time>
      </trkpt>
      <trkpt lat="43.90488" lon="1.89508">
        <ele>123</ele>
        <time>2018-07-15T08:37:10Z</time>
      </trkpt>
      <trkpt lat="43.90488" lon="1.89501">
        <ele>123</ele>
        <time>2018-07-15T08:37:11Z</time>
      </trkpt>
      <trkpt lat="43.90489" lon="1.89493">
        <ele>124</ele>
        <time>2018-07-15T08:37:12Z</time>
      </trkpt>
      <trkpt lat="43.9049" lon="1.89486">
        <ele>124</ele>
        <time>2018-07-15T08:37:13Z</time>
      </trkpt>
      <trkpt lat="43.90491" lon="1.89479">
        <ele>124</ele>
        <time>2018-07-15T08:37:14Z</time>
      </trkpt>
      <trkpt lat="43.90492" lon="1.89472">
        <ele>124</ele>
        <time>2018-07-15T08:37:15Z</time>
      </trkpt>
      <trkpt lat="43.90493" lon="1.89465">
        <ele>124</ele>
        <time>2018-07-15T08:37:16Z</time>
      </trkpt>
      <trkpt lat="43.90494" lon="1.89458">
        <ele>124</ele>
        <time>2018-07-15T08:37:17Z</time>
      </trkpt>
      <trkpt lat="43.90495" lon="1.89452">
        <ele>124</ele>
        <time>2018-07-15T08:37:18Z</time>
      </trkpt>
      <trkpt lat="43.90495" lon="1.89446">
        <ele>124</ele>
        <time>2018-07-15T08:37:19Z</time>
      </trkpt>
      <trkpt lat="43.90496" lon="1.8944">
        <ele>124</ele>
        <time>2018-07-15T08:37:20Z</time>
      </trkpt>
      <trkpt lat="43.90497" lon="1.89434">
        <ele>124</ele>
        <time>2018-07-15T08:37:21Z</time>
      </trkpt>
      <trkpt lat="43.90497" lon="1.89428">
        <ele>124</ele>
        <time>2018-07-15T08:37:22Z</time>
      </trkpt>
      <trkpt lat="43.90498" lon="1.89422">
        <ele>124</ele>
        <time>2018-07-15T08:37:23Z</time>
      </trkpt>
      <trkpt lat="43.90498" lon="1.89415">
        <ele>124</ele>
        <time>2018-07-15T08:37:24Z</time>
      </trkpt>
      <trkpt lat="43.90498" lon="1.89408">
        <ele>124</ele>
        <time>2018-07-15T08:37:25Z</time>
      </trkpt>
      <trkpt lat="43.90498" lon="1.89401">
        <ele>124</ele>
        <time>2018-07-15T08:37:26Z</time>
      </trkpt>
      <trkpt lat="43.90498" lon="1.89394">
        <ele>124</ele>
        <time>2018-07-15T08:37:27Z</time>
      </trkpt>
      <trkpt lat="43.90498" lon="1.89387">
        <ele>124</ele>
        <time>2018-07-15T08:37:28Z</time>
      </trkpt>
      <trkpt lat="43.90498" lon="1.8938">
        <ele>124</ele>
        <time>2018-07-15T08:37:29Z</time>
      </trkpt>
      <trkpt lat="43.90498" lon="1.89373">
        <ele>124</ele>
        <time>2018-07-15T08:37:30Z</time>
      </trkpt>
      <trkpt lat="43.90498" lon="1.89366">
        <ele>124</ele>
        <time>2018-07-15T08:37:31Z</time>
      </trkpt>
      <trkpt lat="43.90498" lon="1.8936">
        <ele>124</ele>
        <time>2018-07-15T08:37:32Z</time>
      </trkpt>
      <trkpt lat="43.90498" lon="1.89353">
        <ele>124</ele>
        <time>2018-07-15T08:37:33Z</time>
      </trkpt>
      <trkpt lat="43.90497" lon="1.89347">
        <ele>124</ele>
        <time>2018-07-15T08:37:34Z</time>
      </trkpt>
      <trkpt lat="43.90497" lon="1.8934">
        <ele>124</ele>
        <time>2018-07-15T08:37:35Z</time>
      </trkpt>
      <trkpt lat="43.90497" lon="1.89334">
        <ele>124</ele>
        <time>2018-07-15T08:37:36Z</time>
      </trkpt>
      <trkpt lat="43.90497" lon="1.89329">
        <ele>124</ele>
        <time>2018-07-15T08:37:37Z</time>
      </trkpt>
      <trkpt lat="43.90497" lon="1.89324">
        <ele>125</ele>
        <time>2018-07-15T08:37:38Z</time>
      </trkpt>
      <trkpt lat="43.90496" lon="1.89318">
        <ele>125</ele>
        <time>2018-07-15T08:37:39Z</time>
      </trkpt>
      <trkpt lat="43.90496" lon="1.89314">
        <ele>125</ele>
        <time>2018-07-15T08:37:40Z</time>
      </trkpt>
      <trkpt lat="43.90497" lon="1.89312">
        <ele>125</ele>
        <time>2018-07-15T08:37:41Z</time>
      </trkpt>
      <trkpt lat="43.90497" lon="1.89311">
        <ele>125</ele>
        <time>2018-07-15T08:37:42Z</time>
      </trkpt>
      <trkpt lat="43.90497" lon="1.8931">
        <ele>125</ele>
        <time>2018-07-15T08:37:43Z</time>
      </trkpt>
      <trkpt lat="43.90497" lon="1.89308">
        <ele>125</ele>
        <time>2018-07-15T08:37:44Z</time>
      </trkpt>
      <trkpt lat="43.90497" lon="1.89305">
        <ele>126</ele>
        <time>2018-07-15T08:37:45Z</time>
      </trkpt>
      <trkpt lat="43.90495" lon="1.89302">
        <ele>125</ele>
        <time>2018-07-15T08:37:46Z</time>
      </trkpt>
      <trkpt lat="43.90493" lon="1.89301">
        <ele>125</ele>
        <time>2018-07-15T08:37:47Z</time>
      </trkpt>
      <trkpt lat="43.90489" lon="1.893">
        <ele>125</ele>
        <time>2018-07-15T08:37:48Z</time>
      </trkpt>
      <trkpt lat="43.90485" lon="1.893">
        <ele>125</ele>
        <time>2018-07-15T08:37:49Z</time>
      </trkpt>
      <trkpt lat="43.90481" lon="1.893">
        <ele>125</ele>
        <time>2018-07-15T08:37:50Z</time>
      </trkpt>
      <trkpt lat="43.90477" lon="1.893">
        <ele>125</ele>
        <time>2018-07-15T08:37:51Z</time>
      </trkpt>
      <trkpt lat="43.90473" lon="1.89302">
        <ele>125</ele>
        <time>2018-07-15T08:37:52Z</time>
      </trkpt>
      <trkpt lat="43.90468" lon="1.89303">
        <ele>125</ele>
        <time>2018-07-15T08:37:53Z</time>
      </trkpt>
      <trkpt lat="43.90464" lon="1.89304">
        <ele>125</ele>
        <time>2018-07-15T08:37:54Z</time>
      </trkpt>
      <trkpt lat="43.9046" lon="1.89305">
        <ele>125</ele>
        <time>2018-07-15T08:37:55Z</time>
      </trkpt>
      <trkpt lat="43.90456" lon="1.89307">
        <ele>124</ele>
        <time>2018-07-15T08:37:56Z</time>
      </trkpt>
      <trkpt lat="43.90451" lon="1.89309">
        <ele>124</ele>
        <time>2018-07-15T08:37:57Z</time>
      </trkpt>
      <trkpt lat="43.90446" lon="1.8931">
        <ele>124</ele>
        <time>2018-07-15T08:37:58Z</time>
      </trkpt>
      <trkpt lat="43.90441" lon="1.89312">
        <ele>124</ele>
        <time>2018-07-15T08:37:59Z</time>
      </trkpt>
      <trkpt lat="43.90437" lon="1.89313">
        <ele>124</ele>
        <time>2018-07-15T08:38:00Z</time>
      </trkpt>
      <trkpt lat="43.90432" lon="1.89315">
        <ele>124</ele>
        <time>2018-07-15T08:38:01Z</time>
      </trkpt>
      <trkpt lat="43.90427" lon="1.89316">
        <ele>124</ele>
        <time>2018-07-15T08:38:02Z</time>
      </trkpt>
      <trkpt lat="43.90422" lon="1.89317">
        <ele>124</ele>
        <time>2018-07-15T08:38:03Z</time>
      </trkpt>
      <trkpt lat="43.90418" lon="1.89318">
        <ele>123</ele>
        <time>2018-07-15T08:38:04Z</time>
      </trkpt>
      <trkpt lat="43.90413" lon="1.89318">
        <ele>123</ele>
        <time>2018-07-15T08:38:05Z</time>
      </trkpt>
      <trkpt lat="43.90408" lon="1.89317">
        <ele>123</ele>
        <time>2018-07-15T08:38:06Z</time>
      </trkpt>
      <trkpt lat="43.90403" lon="1.89315">
        <ele>123</ele>
        <time>2018-07-15T08:38:07Z</time>
      </trkpt>
      <trkpt lat="43.90399" lon="1.89313">
        <ele>123</ele>
        <time>2018-07-15T08:38:08Z</time>
      </trkpt>
      <trkpt lat="43.90394" lon="1.8931">
        <ele>123</ele>
        <time>2018-07-15T08:38:09Z</time>
      </trkpt>
      <trkpt lat="43.9039" lon="1.89306">
        <ele>123</ele>
        <time>2018-07-15T08:38:10Z</time>
      </trkpt>
      <trkpt lat="43.90386" lon="1.89302">
        <ele>123</ele>
        <time>2018-07-15T08:38:11Z</time>
      </trkpt>
      <trkpt lat="43.90383" lon="1.89297">
        <ele>123</ele>
        <time>2018-07-15T08:38:12Z</time>
      </trkpt>
      <trkpt lat="43.9038" lon="1.89291">
        <ele>123</ele>
        <time>2018-07-15T08:38:13Z</time>
      </trkpt>
      <trkpt lat="43.90377" lon="1.89285">
        <ele>123</ele>
        <time>2018-07-15T08:38:14Z</time>
      </trkpt>
      <trkpt lat="43.90375" lon="1.89279">
        <ele>123</ele>
        <time>2018-07-15T08:38:15Z</time>
      </trkpt>
      <trkpt lat="43.90372" lon="1.89273">
        <ele>123</ele>
        <time>2018-07-15T08:38:16Z</time>
      </trkpt>
      <trkpt lat="43.90371" lon="1.89266">
        <ele>123</ele>
        <time>2018-07-15T08:38:17Z</time>
      </trkpt>
      <trkpt lat="43.90369" lon="1.89259">
        <ele>123</ele>
        <time>2018-07-15T08:38:18Z</time>
      </trkpt>
      <trkpt lat="43.90368" lon="1.89252">
        <ele>122</ele>
        <time>2018-07-15T08:38:19Z</time>
      </trkpt>
      <trkpt lat="43.90366" lon="1.89245">
        <ele>122</ele>
        <time>2018-07-15T08:38:20Z</time>
      </trkpt>
      <trkpt lat="43.90365" lon="1.89239">
        <ele>122</ele>
        <time>2018-07-15T08:38:21Z</time>
      </trkpt>
      <trkpt lat="43.90364" lon="1.89232">
        <ele>122</ele>
        <time>2018-07-15T08:38:22Z</time>
      </trkpt>
      <trkpt lat="43.90362" lon="1.89225">
        <ele>122</ele>
        <time>2018-07-15T08:38:23Z</time>
      </trkpt>
      <trkpt lat="43.90361" lon="1.89217">
        <ele>122</ele>
        <time>2018-07-15T08:38:24Z</time>
      </trkpt>
      <trkpt lat="43.90359" lon="1.8921">
        <ele>122</ele>
        <time>2018-07-15T08:38:25Z</time>
      </trkpt>
      <trkpt lat="43.90357" lon="1.89204">
        <ele>122</ele>
        <time>2018-07-15T08:38:26Z</time>
      </trkpt>
      <trkpt lat="43.90355" lon="1.89197">
        <ele>122</ele>
        <time>2018-07-15T08:38:27Z</time>
      </trkpt>
      <trkpt lat="43.90353" lon="1.89191">
        <ele>122</ele>
        <time>2018-07-15T08:38:28Z</time>
      </trkpt>
      <trkpt lat="43.9035" lon="1.89185">
        <ele>122</ele>
        <time>2018-07-15T08:38:29Z</time>
      </trkpt>
      <trkpt lat="43.90348" lon="1.89179">
        <ele>122</ele>
        <time>2018-07-15T08:38:30Z</time>
      </trkpt>
      <trkpt lat="43.90344" lon="1.89174">
        <ele>122</ele>
        <time>2018-07-15T08:38:31Z</time>
      </trkpt>
      <trkpt lat="43.90341" lon="1.89169">
        <ele>122</ele>
        <time>2018-07-15T08:38:32Z</time>
      </trkpt>
      <trkpt lat="43.90337" lon="1.89163">
        <ele>122</ele>
        <time>2018-07-15T08:38:33Z</time>
      </trkpt>
      <trkpt lat="43.90332" lon="1.89158">
        <ele>122</ele>
        <time>2018-07-15T08:38:34Z</time>
      </trkpt>
      <trkpt lat="43.90328" lon="1.89154">
        <ele>122</ele>
        <time>2018-07-15T08:38:35Z</time>
      </trkpt>
      <trkpt lat="43.90323" lon="1.89152">
        <ele>122</ele>
        <time>2018-07-15T08:38:36Z</time>
      </trkpt>
      <trkpt lat="43.90318" lon="1.89149">
        <ele>122</ele>
        <time>2018-07-15T08:38:37Z</time>
      </trkpt>
      <trkpt lat="43.90313" lon="1.89147">
        <ele>122</ele>
        <time>2018-07-15T08:38:38Z</time>
      </trkpt>
      <trkpt lat="43.90309" lon="1.89145">
        <ele>122</ele>
        <time>2018-07-15T08:38:39Z</time>
      </trkpt>
      <trkpt lat="43.90304" lon="1.89143">
        <ele>122</ele>
        <time>2018-07-15T08:38:40Z</time>
      </trkpt>
      <trkpt lat="43.90299" lon="1.89141">
        <ele>123</ele>
        <time>2018-07-15T08:38:41Z</time>
      </trkpt>
      <trkpt lat="43.90295" lon="1.89139">
        <ele>123</ele>
        <time>2018-07-15T08:38:42Z</time>
      </trkpt>
      <trkpt lat="43.90292" lon="1.89135">
        <ele>123</ele>
        <time>2018-07-15T08:38:43Z</time>
      </trkpt>
      <trkpt lat="43.90289" lon="1.8913">
        <ele>123</ele>
        <time>2018-07-15T08:38:44Z</time>
      </trkpt>
      <trkpt lat="43.90286" lon="1.89125">
        <ele>124</ele>
        <time>2018-07-15T08:38:45Z</time>
      </trkpt>
      <trkpt lat="43.90284" lon="1.8912">
        <ele>124</ele>
        <time>2018-07-15T08:38:46Z</time>
      </trkpt>
      <trkpt lat="43.90281" lon="1.89116">
        <ele>124</ele>
        <time>2018-07-15T08:38:47Z</time>
      </trkpt>
      <trkpt lat="43.90279" lon="1.89112">
        <ele>124</ele>
        <time>2018-07-15T08:38:48Z</time>
      </trkpt>
      <trkpt lat="43.90277" lon="1.89107">
        <ele>124</ele>
        <time>2018-07-15T08:38:49Z</time>
      </trkpt>
      <trkpt lat="43.90274" lon="1.89103">
        <ele>124</ele>
        <time>2018-07-15T08:38:50Z</time>
      </trkpt>
      <trkpt lat="43.90272" lon="1.89099">
        <ele>125</ele>
        <time>2018-07-15T08:38:51Z</time>
      </trkpt>
      <trkpt lat="43.9027" lon="1.89095">
        <ele>125</ele>
        <time>2018-07-15T08:38:52Z</time>
      </trkpt>
      <trkpt lat="43.90267" lon="1.89092">
        <ele>125</ele>
        <time>2018-07-15T08:38:53Z</time>
      </trkpt>
      <trkpt lat="43.90265" lon="1.89089">
        <ele>125</ele>
        <time>2018-07-15T08:38:54Z</time>
      </trkpt>
      <trkpt lat="43.90263" lon="1.89086">
        <ele>125</ele>
        <time>2018-07-15T08:38:55Z</time>
      </trkpt>
      <trkpt lat="43.90259" lon="1.89084">
        <ele>125</ele>
        <time>2018-07-15T08:38:56Z</time>
      </trkpt>
      <trkpt lat="43.90256" lon="1.89081">
        <ele>125</ele>
        <time>2018-07-15T08:38:57Z</time>
      </trkpt>
      <trkpt lat="43.90252" lon="1.89076">
        <ele>124</ele>
        <time>2018-07-15T08:38:58Z</time>
      </trkpt>
      <trkpt lat="43.90249" lon="1.89071">
        <ele>124</ele>
        <time>2018-07-15T08:38:59Z</time>
      </trkpt>
      <trkpt lat="43.90244" lon="1.89067">
        <ele>124</ele>
        <time>2018-07-15T08:39:00Z</time>
      </trkpt>
      <trkpt lat="43.90239" lon="1.89066">
        <ele>124</ele>
        <time>2018-07-15T08:39:01Z</time>
      </trkpt>
      <trkpt lat="43.90233" lon="1.89065">
        <ele>124</ele>
        <time>2018-07-15T08:39:02Z</time>
      </trkpt>
      <trkpt lat="43.90227" lon="1.89065">
        <ele>124</ele>
        <time>2018-07-15T08:39:03Z</time>
      </trkpt>
      <trkpt lat="43.90222" lon="1.89062">
        <ele>123</ele>
        <time>2018-07-15T08:39:04Z</time>
      </trkpt>
      <trkpt lat="43.90218" lon="1.89059">
        <ele>123</ele>
        <time>2018-07-15T08:39:05Z</time>
      </trkpt>
      <trkpt lat="43.90214" lon="1.89054">
        <ele>124</ele>
        <time>2018-07-15T08:39:06Z</time>
      </trkpt>
      <trkpt lat="43.9021" lon="1.89049">
        <ele>124</ele>
        <time>2018-07-15T08:39:07Z</time>
      </trkpt>
      <trkpt lat="43.90206" lon="1.89045">
        <ele>124</ele>
        <time>2018-07-15T08:39:08Z</time>
      </trkpt>
      <trkpt lat="43.90203" lon="1.8904">
        <ele>124</ele>
        <time>2018-07-15T08:39:09Z</time>
      </trkpt>
      <trkpt lat="43.90199" lon="1.89036">
        <ele>125</ele>
        <time>2018-07-15T08:39:10Z</time>
      </trkpt>
      <trkpt lat="43.90195" lon="1.89031">
        <ele>125</ele>
        <time>2018-07-15T08:39:11Z</time>
      </trkpt>
      <trkpt lat="43.90191" lon="1.89027">
        <ele>125</ele>
        <time>2018-07-15T08:39:12Z</time>
      </trkpt>
      <trkpt lat="43.90187" lon="1.89022">
        <ele>125</ele>
        <time>2018-07-15T08:39:13Z</time>
      </trkpt>
      <trkpt lat="43.90183" lon="1.89017">
        <ele>125</ele>
        <time>2018-07-15T08:39:14Z</time>
      </trkpt>
      <trkpt lat="43.90179" lon="1.89012">
        <ele>125</ele>
        <time>2018-07-15T08:39:15Z</time>
      </trkpt>
      <trkpt lat="43.90175" lon="1.89007">
        <ele>125</ele>
        <time>2018-07-15T08:39:16Z</time>
      </trkpt>
      <trkpt lat="43.9017" lon="1.89002">
        <ele>124</ele>
        <time>2018-07-15T08:39:17Z</time>
      </trkpt>
      <trkpt lat="43.90165" lon="1.88997">
        <ele>124</ele>
        <time>2018-07-15T08:39:18Z</time>
      </trkpt>
      <trkpt lat="43.90161" lon="1.88992">
        <ele>124</ele>
        <time>2018-07-15T08:39:19Z</time>
      </trkpt>
      <trkpt lat="43.90157" lon="1.88986">
        <ele>123</ele>
        <time>2018-07-15T08:39:20Z</time>
      </trkpt>
      <trkpt lat="43.90152" lon="1.88981">
        <ele>123</ele>
        <time>2018-07-15T08:39:21Z</time>
      </trkpt>
      <trkpt lat="43.90148" lon="1.88976">
        <ele>123</ele>
        <time>2018-07-15T08:39:22Z</time>
      </trkpt>
      <trkpt lat="43.90143" lon="1.88971">
        <ele>123</ele>
        <time>2018-07-15T08:39:23Z</time>
      </trkpt>
      <trkpt lat="43.90139" lon="1.88967">
        <ele>123</ele>
        <time>2018-07-15T08:39:24Z</time>
      </trkpt>
      <trkpt lat="43.90135" lon="1.88962">
        <ele>123</ele>
        <time>2018-07-15T08:39:25Z</time>
      </trkpt>
      <trkpt lat="43.9013" lon="1.88956">
        <ele>123</ele>
        <time>2018-07-15T08:39:26Z</time>
      </trkpt>
      <trkpt lat="43.90126" lon="1.88951">
        <ele>123</ele>
        <time>2018-07-15T08:39:27Z</time>
      </trkpt>
      <trkpt lat="43.90122" lon="1.88945">
        <ele>123</ele>
        <time>2018-07-15T08:39:28Z</time>
      </trkpt>
      <trkpt lat="43.90119" lon="1.8894">
        <ele>123</ele>
        <time>2018-07-15T08:39:29Z</time>
      </trkpt>
      <trkpt lat="43.90115" lon="1.88935">
        <ele>123</ele>
        <time>2018-07-15T08:39:30Z</time>
      </trkpt>
      <trkpt lat="43.90111" lon="1.88929">
        <ele>123</ele>
        <time>2018-07-15T08:39:31Z</time>
      </trkpt>
      <trkpt lat="43.90107" lon="1.88924">
        <ele>123</ele>
        <time>2018-07-15T08:39:32Z</time>
      </trkpt>
      <trkpt lat="43.90103" lon="1.88919">
        <ele>123</ele>
        <time>2018-07-15T08:39:33Z</time>
      </trkpt>
      <trkpt lat="43.90099" lon="1.88914">
        <ele>123</ele>
        <time>2018-07-15T08:39:34Z</time>
      </trkpt>
      <trkpt lat="43.90094" lon="1.88909">
        <ele>123</ele>
        <time>2018-07-15T08:39:35Z</time>
      </trkpt>
      <trkpt lat="43.9009" lon="1.88905">
        <ele>123</ele>
        <time>2018-07-15T08:39:36Z</time>
      </trkpt>
      <trkpt lat="43.90086" lon="1.88899">
        <ele>123</ele>
        <time>2018-07-15T08:39:37Z</time>
      </trkpt>
      <trkpt lat="43.90081" lon="1.88894">
        <ele>124</ele>
        <time>2018-07-15T08:39:38Z</time>
      </trkpt>
      <trkpt lat="43.90077" lon="1.88889">
        <ele>124</ele>
        <time>2018-07-15T08:39:39Z</time>
      </trkpt>
      <trkpt lat="43.90073" lon="1.88884">
        <ele>124</ele>
        <time>2018-07-15T08:39:40Z</time>
      </trkpt>
      <trkpt lat="43.90069" lon="1.88879">
        <ele>124</ele>
        <time>2018-07-15T08:39:41Z</time>
      </trkpt>
      <trkpt lat="43.90065" lon="1.88874">
        <ele>124</ele>
        <time>2018-07-15T08:39:42Z</time>
      </trkpt>
      <trkpt lat="43.90061" lon="1.88869">
        <ele>124</ele>
        <time>2018-07-15T08:39:43Z</time>
      </trkpt>
      <trkpt lat="43.90056" lon="1.88864">
        <ele>124</ele>
        <time>2018-07-15T08:39:44Z</time>
      </trkpt>
      <trkpt lat="43.90052" lon="1.88859">
        <ele>124</ele>
        <time>2018-07-15T08:39:45Z</time>
      </trkpt>
      <trkpt lat="43.90048" lon="1.88854">
        <ele>124</ele>
        <time>2018-07-15T08:39:46Z</time>
      </trkpt>
      <trkpt lat="43.90044" lon="1.88849">
        <ele>124</ele>
        <time>2018-07-15T08:39:47Z</time>
      </trkpt>
      <trkpt lat="43.90039" lon="1.88845">
        <ele>124</ele>
        <time>2018-07-15T08:39:48Z</time>
      </trkpt>
      <trkpt lat="43.90035" lon="1.8884">
        <ele>124</ele>
        <time>2018-07-15T08:39:49Z</time>
      </trkpt>
      <trkpt lat="43.90031" lon="1.88834">
        <ele>124</ele>
        <time>2018-07-15T08:39:50Z</time>
      </trkpt>
      <trkpt lat="43.90026" lon="1.88829">
        <ele>124</ele>
        <time>2018-07-15T08:39:51Z</time>
      </trkpt>
      <trkpt lat="43.90021" lon="1.88824">
        <ele>124</ele>
        <time>2018-07-15T08:39:52Z</time>
      </trkpt>
      <trkpt lat="43.90017" lon="1.88819">
        <ele>124</ele>
        <time>2018-07-15T08:39:53Z</time>
      </trkpt>
      <trkpt lat="43.90012" lon="1.88813">
        <ele>124</ele>
        <time>2018-07-15T08:39:54Z</time>
      </trkpt>
      <trkpt lat="43.90008" lon="1.88808">
        <ele>124</ele>
        <time>2018-07-15T08:39:55Z</time>
      </trkpt>
      <trkpt lat="43.90003" lon="1.88803">
        <ele>124</ele>
        <time>2018-07-15T08:39:56Z</time>
      </trkpt>
      <trkpt lat="43.89998" lon="1.88797">
        <ele>124</ele>
        <time>2018-07-15T08:39:57Z</time>
      </trkpt>
      <trkpt lat="43.89994" lon="1.88792">
        <ele>124</ele>
        <time>2018-07-15T08:39:58Z</time>
      </trkpt>
      <trkpt lat="43.89989" lon="1.88786">
        <ele>124</ele>
        <time>2018-07-15T08:39:59Z</time>
      </trkpt>
      <trkpt lat="43.89985" lon="1.88781">
        <ele>124</ele>
        <time>2018-07-15T08:40:00Z</time>
      </trkpt>
      <trkpt lat="43.8998" lon="1.88776">
        <ele>123</ele>
        <time>2018-07-15T08:40:01Z</time>
      </trkpt>
      <trkpt lat="43.89976" lon="1.8877">
        <ele>124</ele>
        <time>2018-07-15T08:40:02Z</time>
      </trkpt>
      <trkpt lat="43.89971" lon="1.88765">
        <ele>123</ele>
        <time>2018-07-15T08:40:03Z</time>
      </trkpt>
      <trkpt lat="43.89967" lon="1.88759">
        <ele>123</ele>
        <time>2018-07-15T08:40:04Z</time>
      </trkpt>
      <trkpt lat="43.89962" lon="1.88754">
        <ele>123</ele>
        <time>2018-07-15T08:40:05Z</time>
      </trkpt>
      <trkpt lat="43.89957" lon="1.88748">
        <ele>123</ele>
        <time>2018-07-15T08:40:06Z</time>
      </trkpt>
      <trkpt lat="43.89953" lon="1.88743">
        <ele>123</ele>
        <time>2018-07-15T08:40:07Z</time>
      </trkpt>
      <trkpt lat="43.89948" lon="1.88738">
        <ele>123</ele>
        <time>2018-07-15T08:40:08Z</time>
      </trkpt>
      <trkpt lat="43.89943" lon="1.88733">
        <ele>123</ele>
        <time>2018-07-15T08:40:09Z</time>
      </trkpt>
      <trkpt lat="43.89939" lon="1.88727">
        <ele>123</ele>
        <time>2018-07-15T08:40:10Z</time>
      </trkpt>
      <trkpt lat="43.89935" lon="1.88722">
        <ele>123</ele>
        <time>2018-07-15T08:40:11Z</time>
      </trkpt>
      <trkpt lat="43.8993" lon="1.88717">
        <ele>123</ele>
        <time>2018-07-15T08:40:12Z</time>
      </trkpt>
      <trkpt lat="43.89926" lon="1.88712">
        <ele>123</ele>
        <time>2018-07-15T08:40:13Z</time>
      </trkpt>
      <trkpt lat="43.89921" lon="1.88706">
        <ele>123</ele>
        <time>2018-07-15T08:40:14Z</time>
      </trkpt>
      <trkpt lat="43.89917" lon="1.88701">
        <ele>123</ele>
        <time>2018-07-15T08:40:15Z</time>
      </trkpt>
      <trkpt lat="43.89912" lon="1.88696">
        <ele>123</ele>
        <time>2018-07-15T08:40:16Z</time>
      </trkpt>
      <trkpt lat="43.89907" lon="1.88691">
        <ele>123</ele>
        <time>2018-07-15T08:40:17Z</time>
      </trkpt>
      <trkpt lat="43.89903" lon="1.88685">
        <ele>123</ele>
        <time>2018-07-15T08:40:18Z</time>
      </trkpt>
      <trkpt lat="43.89899" lon="1.8868">
        <ele>123</ele>
        <time>2018-07-15T08:40:19Z</time>
      </trkpt>
      <trkpt lat="43.89894" lon="1.88674">
        <ele>123</ele>
        <time>2018-07-15T08:40:20Z</time>
      </trkpt>
      <trkpt lat="43.89889" lon="1.88669">
        <ele>123</ele>
        <time>2018-07-15T08:40:21Z</time>
      </trkpt>
      <trkpt lat="43.89885" lon="1.88664">
        <ele>123</ele>
        <time>2018-07-15T08:40:22Z</time>
      </trkpt>
      <trkpt lat="43.89881" lon="1.88658">
        <ele>123</ele>
        <time>2018-07-15T08:40:23Z</time>
      </trkpt>
      <trkpt lat="43.89876" lon="1.88653">
        <ele>123</ele>
        <time>2018-07-15T08:40:24Z</time>
      </trkpt>
      <trkpt lat="43.89872" lon="1.88648">
        <ele>123</ele>
        <time>2018-07-15T08:40:25Z</time>
      </trkpt>
      <trkpt lat="43.89867" lon="1.88643">
        <ele>123</ele>
        <time>2018-07-15T08:40:26Z</time>
      </trkpt>
      <trkpt lat="43.89863" lon="1.88637">
        <ele>123</ele>
        <time>2018-07-15T08:40:27Z</time>
      </trkpt>
      <trkpt lat="43.89858" lon="1.88632">
        <ele>123</ele>
        <time>2018-07-15T08:40:28Z</time>
      </trkpt>
      <trkpt lat="43.89854" lon="1.88627">
        <ele>123</ele>
        <time>2018-07-15T08:40:29Z</time>
      </trkpt>
      <trkpt lat="43.89849" lon="1.88622">
        <ele>123</ele>
        <time>2018-07-15T08:40:30Z</time>
      </trkpt>
      <trkpt lat="43.89845" lon="1.88617">
        <ele>123</ele>
        <time>2018-07-15T08:40:31Z</time>
      </trkpt>
      <trkpt lat="43.89841" lon="1.88612">
        <ele>123</ele>
        <time>2018-07-15T08:40:32Z</time>
      </trkpt>
      <trkpt lat="43.89837" lon="1.88607">
        <ele>123</ele>
        <time>2018-07-15T08:40:33Z</time>
      </trkpt>
      <trkpt lat="43.89833" lon="1.88602">
        <ele>123</ele>
        <time>2018-07-15T08:40:34Z</time>
      </trkpt>
      <trkpt lat="43.89829" lon="1.88597">
        <ele>123</ele>
        <time>2018-07-15T08:40:35Z</time>
      </trkpt>
      <trkpt lat="43.89825" lon="1.88592">
        <ele>123</ele>
        <time>2018-07-15T08:40:36Z</time>
      </trkpt>
      <trkpt lat="43.89821" lon="1.88587">
        <ele>123</ele>
        <time>2018-07-15T08:40:37Z</time>
      </trkpt>
      <trkpt lat="43.89817" lon="1.88583">
        <ele>123</ele>
        <time>2018-07-15T08:40:38Z</time>
      </trkpt>
      <trkpt lat="43.89812" lon="1.88578">
        <ele>123</ele>
        <time>2018-07-15T08:40:39Z</time>
      </trkpt>
      <trkpt lat="43.89808" lon="1.88573">
        <ele>123</ele>
        <time>2018-07-15T08:40:40Z</time>
      </trkpt>
      <trkpt lat="43.89803" lon="1.88568">
        <ele>123</ele>
        <time>2018-07-15T08:40:41Z</time>
      </trkpt>
      <trkpt lat="43.89799" lon="1.88563">
        <ele>123</ele>
        <time>2018-07-15T08:40:42Z</time>
      </trkpt>
      <trkpt lat="43.89794" lon="1.88557">
        <ele>123</ele>
        <time>2018-07-15T08:40:43Z</time>
      </trkpt>
      <trkpt lat="43.8979" lon="1.88552">
        <ele>123</ele>
        <time>2018-07-15T08:40:44Z</time>
      </trkpt>
      <trkpt lat="43.89785" lon="1.88547">
        <ele>123</ele>
        <time>2018-07-15T08:40:45Z</time>
      </trkpt>
      <trkpt lat="43.89781" lon="1.88542">
        <ele>123</ele>
        <time>2018-07-15T08:40:46Z</time>
      </trkpt>
      <trkpt lat="43.89777" lon="1.88537">
        <ele>123</ele>
        <time>2018-07-15T08:40:47Z</time>
      </trkpt>
      <trkpt lat="43.89772" lon="1.88531">
        <ele>123</ele>
        <time>2018-07-15T08:40:48Z</time>
      </trkpt>
      <trkpt lat="43.89769" lon="1.88524">
        <ele>123</ele>
        <time>2018-07-15T08:40:49Z</time>
      </trkpt>
      <trkpt lat="43.89766" lon="1.88517">
        <ele>123</ele>
        <time>2018-07-15T08:40:50Z</time>
      </trkpt>
      <trkpt lat="43.89763" lon="1.88509">
        <ele>123</ele>
        <time>2018-07-15T08:40:51Z</time>
      </trkpt>
      <trkpt lat="43.8976" lon="1.88501">
        <ele>123</ele>
        <time>2018-07-15T08:40:52Z</time>
      </trkpt>
      <trkpt lat="43.89758" lon="1.88493">
        <ele>123</ele>
        <time>2018-07-15T08:40:53Z</time>
      </trkpt>
      <trkpt lat="43.89757" lon="1.88485">
        <ele>123</ele>
        <time>2018-07-15T08:40:54Z</time>
      </trkpt>
      <trkpt lat="43.89756" lon="1.88476">
        <ele>123</ele>
        <time>2018-07-15T08:40:55Z</time>
      </trkpt>
      <trkpt lat="43.89752" lon="1.8847">
        <ele>123</ele>
        <time>2018-07-15T08:40:56Z</time>
      </trkpt>
      <trkpt lat="43.89748" lon="1.88466">
        <ele>123</ele>
        <time>2018-07-15T08:40:57Z</time>
      </trkpt>
      <trkpt lat="43.89742" lon="1.88465">
        <ele>123</ele>
        <time>2018-07-15T08:40:58Z</time>
      </trkpt>
      <trkpt lat="43.89737" lon="1.88466">
        <ele>123</ele>
        <time>2018-07-15T08:40:59Z</time>
      </trkpt>
      <trkpt lat="43.89732" lon="1.88465">
        <ele>123</ele>
        <time>2018-07-15T08:41:00Z</time>
      </trkpt>
      <trkpt lat="43.89726" lon="1.88464">
        <ele>123</ele>
        <time>2018-07-15T08:41:01Z</time>
      </trkpt>
      <trkpt lat="43.8972" lon="1.88461">
        <ele>123</ele>
        <time>2018-07-15T08:41:02Z</time>
      </trkpt>
      <trkpt lat="43.89714" lon="1.88458">
        <ele>123</ele>
        <time>2018-07-15T08:41:03Z</time>
      </trkpt>
      <trkpt lat="43.89707" lon="1.88453">
        <ele>123</ele>
        <time>2018-07-15T08:41:04Z</time>
      </trkpt>
      <trkpt lat="43.89701" lon="1.88447">
        <ele>123</ele>
        <time>2018-07-15T08:41:05Z</time>
      </trkpt>
      <trkpt lat="43.89696" lon="1.88441">
        <ele>122</ele>
        <time>2018-07-15T08:41:06Z</time>
      </trkpt>
      <trkpt lat="43.8969" lon="1.88434">
        <ele>122</ele>
        <time>2018-07-15T08:41:07Z</time>
      </trkpt>
      <trkpt lat="43.89685" lon="1.88428">
        <ele>122</ele>
        <time>2018-07-15T08:41:08Z</time>
      </trkpt>
      <trkpt lat="43.89679" lon="1.88422">
        <ele>122</ele>
        <time>2018-07-15T08:41:09Z</time>
      </trkpt>
      <trkpt lat="43.89674" lon="1.88416">
        <ele>122</ele>
        <time>2018-07-15T08:41:10Z</time>
      </trkpt>
      <trkpt lat="43.89669" lon="1.8841">
        <ele>122</ele>
        <time>2018-07-15T08:41:11Z</time>
      </trkpt>
      <trkpt lat="43.89664" lon="1.88405">
        <ele>122</ele>
        <time>2018-07-15T08:41:12Z</time>
      </trkpt>
      <trkpt lat="43.8966" lon="1.88399">
        <ele>123</ele>
        <time>2018-07-15T08:41:13Z</time>
      </trkpt>
      <trkpt lat="43.89656" lon="1.88394">
        <ele>123</ele>
        <time>2018-07-15T08:41:14Z</time>
      </trkpt>
      <trkpt lat="43.89651" lon="1.88389">
        <ele>123</ele>
        <time>2018-07-15T08:41:15Z</time>
      </trkpt>
      <trkpt lat="43.89647" lon="1.88383">
        <ele>123</ele>
        <time>2018-07-15T08:41:16Z</time>
      </trkpt>
      <trkpt lat="43.89642" lon="1.88378">
        <ele>123</ele>
        <time>2018-07-15T08:41:17Z</time>
      </trkpt>
      <trkpt lat="43.89637" lon="1.88372">
        <ele>122</ele>
        <time>2018-07-15T08:41:18Z</time>
      </trkpt>
      <trkpt lat="43.89632" lon="1.88367">
        <ele>122</ele>
        <time>2018-07-15T08:41:19Z</time>
      </trkpt>
      <trkpt lat="43.89628" lon="1.88362">
        <ele>122</ele>
        <time>2018-07-15T08:41:20Z</time>
      </trkpt>
      <trkpt lat="43.89623" lon="1.88356">
        <ele>123</ele>
        <time>2018-07-15T08:41:21Z</time>
      </trkpt>
      <trkpt lat="43.89618" lon="1.88351">
        <ele>123</ele>
        <time>2018-07-15T08:41:22Z</time>
      </trkpt>
      <trkpt lat="43.89614" lon="1.88346">
        <ele>123</ele>
        <time>2018-07-15T08:41:23Z</time>
      </trkpt>
      <trkpt lat="43.8961" lon="1.8834">
        <ele>123</ele>
        <time>2018-07-15T08:41:24Z</time>
      </trkpt>
      <trkpt lat="43.89605" lon="1.88335">
        <ele>123</ele>
        <time>2018-07-15T08:41:25Z</time>
      </trkpt>
      <trkpt lat="43.89601" lon="1.8833">
        <ele>123</ele>
        <time>2018-07-15T08:41:26Z</time>
      </trkpt>
      <trkpt lat="43.89597" lon="1.88325">
        <ele>123</ele>
        <time>2018-07-15T08:41:27Z</time>
      </trkpt>
      <trkpt lat="43.89593" lon="1.8832">
        <ele>123</ele>
        <time>2018-07-15T08:41:28Z</time>
      </trkpt>
      <trkpt lat="43.89588" lon="1.88315">
        <ele>123</ele>
        <time>2018-07-15T08:41:29Z</time>
      </trkpt>
      <trkpt lat="43.89584" lon="1.8831">
        <ele>123</ele>
        <time>2018-07-15T08:41:30Z</time>
      </trkpt>
      <trkpt lat="43.89579" lon="1.88305">
        <ele>123</ele>
        <time>2018-07-15T08:41:31Z</time>
      </trkpt>
      <trkpt lat="43.89575" lon="1.883">
        <ele>123</ele>
        <time>2018-07-15T08:41:32Z</time>
      </trkpt>
      <trkpt lat="43.89571" lon="1.88294">
        <ele>123</ele>
        <time>2018-07-15T08:41:33Z</time>
      </trkpt>
      <trkpt lat="43.89567" lon="1.88289">
        <ele>123</ele>
        <time>2018-07-15T08:41:34Z</time>
      </trkpt>
      <trkpt lat="43.89562" lon="1.88284">
        <ele>123</ele>
        <time>2018-07-15T08:41:35Z</time>
      </trkpt>
      <trkpt lat="43.89558" lon="1.88279">
        <ele>123</ele>
        <time>2018-07-15T08:41:36Z</time>
      </trkpt>
      <trkpt lat="43.89554" lon="1.88274">
        <ele>123</ele>
        <time>2018-07-15T08:41:37Z</time>
      </trkpt>
      <trkpt lat="43.89549" lon="1.88269">
        <ele>123</ele>
        <time>2018-07-15T08:41:38Z</time>
      </trkpt>
      <trkpt lat="43.89545" lon="1.88264">
        <ele>123</ele>
        <time>2018-07-15T08:41:39Z</time>
      </trkpt>
      <trkpt lat="43.89541" lon="1.88259">
        <ele>123</ele>
        <time>2018-07-15T08:41:40Z</time>
      </trkpt>
      <trkpt lat="43.89536" lon="1.88255">
        <ele>123</ele>
        <time>2018-07-15T08:41:41Z</time>
      </trkpt>
      <trkpt lat="43.89532" lon="1.8825">
        <ele>123</ele>
        <time>2018-07-15T08:41:42Z</time>
      </trkpt>
      <trkpt lat="43.89527" lon="1.88245">
        <ele>123</ele>
        <time>2018-07-15T08:41:43Z</time>
      </trkpt>
      <trkpt lat="43.89523" lon="1.8824">
        <ele>123</ele>
        <time>2018-07-15T08:41:44Z</time>
      </trkpt>
      <trkpt lat="43.89518" lon="1.88235">
        <ele>123</ele>
        <time>2018-07-15T08:41:45Z</time>
      </trkpt>
      <trkpt lat="43.89514" lon="1.8823">
        <ele>123</ele>
        <time>2018-07-15T08:41:46Z</time>
      </trkpt>
      <trkpt lat="43.8951" lon="1.88225">
        <ele>123</ele>
        <time>2018-07-15T08:41:47Z</time>
      </trkpt>
      <trkpt lat="43.89505" lon="1.8822">
        <ele>123</ele>
        <time>2018-07-15T08:41:48Z</time>
      </trkpt>
      <trkpt lat="43.895" lon="1.88216">
        <ele>123</ele>
        <time>2018-07-15T08:41:49Z</time>
      </trkpt>
      <trkpt lat="43.89495" lon="1.88211">
        <ele>123</ele>
        <time>2018-07-15T08:41:50Z</time>
      </trkpt>
      <trkpt lat="43.89491" lon="1.88208">
        <ele>123</ele>
        <time>2018-07-15T08:41:51Z</time>
      </trkpt>
      <trkpt lat="43.89486" lon="1.88203">
        <ele>123</ele>
        <time>2018-07-15T08:41:52Z</time>
      </trkpt>
      <trkpt lat="43.89481" lon="1.88199">
        <ele>123</ele>
        <time>2018-07-15T08:41:53Z</time>
      </trkpt>
      <trkpt lat="43.89477" lon="1.88193">
        <ele>123</ele>
        <time>2018-07-15T08:41:54Z</time>
      </trkpt>
      <trkpt lat="43.89473" lon="1.88187">
        <ele>123</ele>
        <time>2018-07-15T08:41:55Z</time>
      </trkpt>
      <trkpt lat="43.89469" lon="1.88181">
        <ele>123</ele>
        <time>2018-07-15T08:41:56Z</time>
      </trkpt>
      <trkpt lat="43.89465" lon="1.88174">
        <ele>123</ele>
        <time>2018-07-15T08:41:57Z</time>
      </trkpt>
      <trkpt lat="43.89461" lon="1.88169">
        <ele>123</ele>
        <time>2018-07-15T08:41:58Z</time>
      </trkpt>
      <trkpt lat="43.89458" lon="1.88164">
        <ele>123</ele>
        <time>2018-07-15T08:41:59Z</time>
      </trkpt>
      <trkpt lat="43.89453" lon="1.88159">
        <ele>123</ele>
        <time>2018-07-15T08:42:00Z</time>
      </trkpt>
      <trkpt lat="43.89449" lon="1.88154">
        <ele>123</ele>
        <time>2018-07-15T08:42:01Z</time>
      </trkpt>
      <trkpt lat="43.89445" lon="1.88149">
        <ele>123</ele>
        <time>2018-07-15T08:42:02Z</time>
      </trkpt>
      <trkpt lat="43.8944" lon="1.88144">
        <ele>123</ele>
        <time>2018-07-15T08:42:03Z</time>
      </trkpt>
      <trkpt lat="43.89435" lon="1.88138">
        <ele>123</ele>
        <time>2018-07-15T08:42:04Z</time>
      </trkpt>
      <trkpt lat="43.89431" lon="1.88133">
        <ele>123</ele>
        <time>2018-07-15T08:42:05Z</time>
      </trkpt>
      <trkpt lat="43.89426" lon="1.88128">
        <ele>123</ele>
        <time>2018-07-15T08:42:06Z</time>
      </trkpt>
      <trkpt lat="43.89422" lon="1.88123">
        <ele>123</ele>
        <time>2018-07-15T08:42:07Z</time>
      </trkpt>
      <trkpt lat="43.89417" lon="1.88118">
        <ele>123</ele>
        <time>2018-07-15T08:42:08Z</time>
      </trkpt>
      <trkpt lat="43.89413" lon="1.88111">
        <ele>123</ele>
        <time>2018-07-15T08:42:09Z</time>
      </trkpt>
      <trkpt lat="43.8941" lon="1.88105">
        <ele>123</ele>
        <time>2018-07-15T08:42:10Z</time>
      </trkpt>
      <trkpt lat="43.89407" lon="1.88097">
        <ele>123</ele>
        <time>2018-07-15T08:42:11Z</time>
      </trkpt>
      <trkpt lat="43.89404" lon="1.8809">
        <ele>122</ele>
        <time>2018-07-15T08:42:12Z</time>
      </trkpt>
      <trkpt lat="43.894" lon="1.88084">
        <ele>122</ele>
        <time>2018-07-15T08:42:13Z</time>
      </trkpt>
      <trkpt lat="43.89396" lon="1.88079">
        <ele>122</ele>
        <time>2018-07-15T08:42:14Z</time>
      </trkpt>
      <trkpt lat="43.89392" lon="1.88074">
        <ele>122</ele>
        <time>2018-07-15T08:42:15Z</time>
      </trkpt>
      <trkpt lat="43.89388" lon="1.88068">
        <ele>122</ele>
        <time>2018-07-15T08:42:16Z</time>
      </trkpt>
      <trkpt lat="43.89386" lon="1.88062">
        <ele>122</ele>
        <time>2018-07-15T08:42:17Z</time>
      </trkpt>
      <trkpt lat="43.89384" lon="1.88055">
        <ele>122</ele>
        <time>2018-07-15T08:42:18Z</time>
      </trkpt>
      <trkpt lat="43.89383" lon="1.88047">
        <ele>122</ele>
        <time>2018-07-15T08:42:19Z</time>
      </trkpt>
      <trkpt lat="43.89384" lon="1.88039">
        <ele>122</ele>
        <time>2018-07-15T08:42:20Z</time>
      </trkpt>
      <trkpt lat="43.89385" lon="1.88031">
        <ele>122</ele>
        <time>2018-07-15T08:42:21Z</time>
      </trkpt>
      <trkpt lat="43.89386" lon="1.88023">
        <ele>122</ele>
        <time>2018-07-15T08:42:22Z</time>
      </trkpt>
      <trkpt lat="43.89385" lon="1.88016">
        <ele>122</ele>
        <time>2018-07-15T08:42:23Z</time>
      </trkpt>
      <trkpt lat="43.89384" lon="1.88008">
        <ele>122</ele>
        <time>2018-07-15T08:42:24Z</time>
      </trkpt>
      <trkpt lat="43.89382" lon="1.88001">
        <ele>122</ele>
        <time>2018-07-15T08:42:25Z</time>
      </trkpt>
      <trkpt lat="43.8938" lon="1.87993">
        <ele>121</ele>
        <time>2018-07-15T08:42:26Z</time>
      </trkpt>
      <trkpt lat="43.89377" lon="1.87985">
        <ele>121</ele>
        <time>2018-07-15T08:42:27Z</time>
      </trkpt>
      <trkpt lat="43.89375" lon="1.87978">
        <ele>121</ele>
        <time>2018-07-15T08:42:28Z</time>
      </trkpt>
      <trkpt lat="43.89373" lon="1.8797">
        <ele>122</ele>
        <time>2018-07-15T08:42:29Z</time>
      </trkpt>
      <trkpt lat="43.8937" lon="1.87962">
        <ele>122</ele>
        <time>2018-07-15T08:42:30Z</time>
      </trkpt>
      <trkpt lat="43.89368" lon="1.87954">
        <ele>122</ele>
        <time>2018-07-15T08:42:31Z</time>
      </trkpt>
      <trkpt lat="43.89365" lon="1.87946">
        <ele>122</ele>
        <time>2018-07-15T08:42:32Z</time>
      </trkpt>
      <trkpt lat="43.89363" lon="1.87938">
        <ele>121</ele>
        <time>2018-07-15T08:42:33Z</time>
      </trkpt>
      <trkpt lat="43.89361" lon="1.87931">
        <ele>121</ele>
        <time>2018-07-15T08:42:34Z</time>
      </trkpt>
      <trkpt lat="43.89359" lon="1.87923">
        <ele>121</ele>
        <time>2018-07-15T08:42:35Z</time>
      </trkpt>
      <trkpt lat="43.89357" lon="1.87915">
        <ele>122</ele>
        <time>2018-07-15T08:42:36Z</time>
      </trkpt>
      <trkpt lat="43.89354" lon="1.87908">
        <ele>122</ele>
        <time>2018-07-15T08:42:37Z</time>
      </trkpt>
      <trkpt lat="43.89353" lon="1.879">
        <ele>122</ele>
        <time>2018-07-15T08:42:38Z</time>
      </trkpt>
      <trkpt lat="43.89351" lon="1.87892">
        <ele>122</ele>
        <time>2018-07-15T08:42:39Z</time>
      </trkpt>
      <trkpt lat="43.89349" lon="1.87884">
        <ele>121</ele>
        <time>2018-07-15T08:42:40Z</time>
      </trkpt>
      <trkpt lat="43.89347" lon="1.87876">
        <ele>121</ele>
        <time>2018-07-15T08:42:41Z</time>
      </trkpt>
      <trkpt lat="43.89345" lon="1.87869">
        <ele>121</ele>
        <time>2018-07-15T08:42:42Z</time>
      </trkpt>
      <trkpt lat="43.89343" lon="1.87861">
        <ele>121</ele>
        <time>2018-07-15T08:42:43Z</time>
      </trkpt>
      <trkpt lat="43.89342" lon="1.87853">
        <ele>121</ele>
        <time>2018-07-15T08:42:44Z</time>
      </trkpt>
      <trkpt lat="43.8934" lon="1.87845">
        <ele>121</ele>
        <time>2018-07-15T08:42:45Z</time>
      </trkpt>
      <trkpt lat="43.89339" lon="1.87838">
        <ele>121</ele>
        <time>2018-07-15T08:42:46Z</time>
      </trkpt>
      <trkpt lat="43.89337" lon="1.8783">
        <ele>121</ele>
        <time>2018-07-15T08:42:47Z</time>
      </trkpt>
      <trkpt lat="43.89336" lon="1.87822">
        <ele>121</ele>
        <time>2018-07-15T08:42:48Z</time>
      </trkpt>
      <trkpt lat="43.89334" lon="1.87814">
        <ele>121</ele>
        <time>2018-07-15T08:42:49Z</time>
      </trkpt>
      <trkpt lat="43.89333" lon="1.87806">
        <ele>121</ele>
        <time>2018-07-15T08:42:50Z</time>
      </trkpt>
      <trkpt lat="43.89331" lon="1.87798">
        <ele>121</ele>
        <time>2018-07-15T08:42:51Z</time>
      </trkpt>
      <trkpt lat="43.8933" lon="1.87791">
        <ele>121</ele>
        <time>2018-07-15T08:42:52Z</time>
      </trkpt>
      <trkpt lat="43.89328" lon="1.87783">
        <ele>121</ele>
        <time>2018-07-15T08:42:53Z</time>
      </trkpt>
      <trkpt lat="43.89327" lon="1.87775">
        <ele>121</ele>
        <time>2018-07-15T08:42:54Z</time>
      </trkpt>
      <trkpt lat="43.89325" lon="1.87767">
        <ele>121</ele>
        <time>2018-07-15T08:42:55Z</time>
      </trkpt>
      <trkpt lat="43.89324" lon="1.87759">
        <ele>121</ele>
        <time>2018-07-15T08:42:56Z</time>
      </trkpt>
      <trkpt lat="43.89322" lon="1.87751">
        <ele>122</ele>
        <time>2018-07-15T08:42:57Z</time>
      </trkpt>
      <trkpt lat="43.89321" lon="1.87743">
        <ele>122</ele>
        <time>2018-07-15T08:42:58Z</time>
      </trkpt>
      <trkpt lat="43.89319" lon="1.87736">
        <ele>122</ele>
        <time>2018-07-15T08:42:59Z</time>
      </trkpt>
      <trkpt lat="43.89318" lon="1.87728">
        <ele>122</ele>
        <time>2018-07-15T08:43:00Z</time>
      </trkpt>
      <trkpt lat="43.89317" lon="1.8772">
        <ele>122</ele>
        <time>2018-07-15T08:43:01Z</time>
      </trkpt>
      <trkpt lat="43.89315" lon="1.87713">
        <ele>122</ele>
        <time>2018-07-15T08:43:02Z</time>
      </trkpt>
      <trkpt lat="43.89314" lon="1.87705">
        <ele>122</ele>
        <time>2018-07-15T08:43:03Z</time>
      </trkpt>
      <trkpt lat="43.89313" lon="1.87698">
        <ele>121</ele>
        <time>2018-07-15T08:43:04Z</time>
      </trkpt>
      <trkpt lat="43.89311" lon="1.87691">
        <ele>121</ele>
        <time>2018-07-15T08:43:05Z</time>
      </trkpt>
      <trkpt lat="43.8931" lon="1.87684">
        <ele>121</ele>
        <time>2018-07-15T08:43:06Z</time>
      </trkpt>
      <trkpt lat="43.89309" lon="1.87678">
        <ele>121</ele>
        <time>2018-07-15T08:43:07Z</time>
      </trkpt>
      <trkpt lat="43.89308" lon="1.87671">
        <ele>121</ele>
        <time>2018-07-15T08:43:08Z</time>
      </trkpt>
      <trkpt lat="43.89307" lon="1.87665">
        <ele>121</ele>
        <time>2018-07-15T08:43:09Z</time>
      </trkpt>
      <trkpt lat="43.89307" lon="1.87658">
        <ele>121</ele>
        <time>2018-07-15T08:43:10Z</time>
      </trkpt>
      <trkpt lat="43.89306" lon="1.87652">
        <ele>121</ele>
        <time>2018-07-15T08:43:11Z</time>
      </trkpt>
      <trkpt lat="43.89305" lon="1.87645">
        <ele>121</ele>
        <time>2018-07-15T08:43:12Z</time>
      </trkpt>
      <trkpt lat="43.89305" lon="1.87638">
        <ele>122</ele>
        <time>2018-07-15T08:43:13Z</time>
      </trkpt>
      <trkpt lat="43.89303" lon="1.87631">
        <ele>122</ele>
        <time>2018-07-15T08:43:14Z</time>
      </trkpt>
      <trkpt lat="43.89302" lon="1.87623">
        <ele>122</ele>
        <time>2018-07-15T08:43:15Z</time>
      </trkpt>
      <trkpt lat="43.89301" lon="1.87615">
        <ele>122</ele>
        <time>2018-07-15T08:43:16Z</time>
      </trkpt>
      <trkpt lat="43.893" lon="1.87607">
        <ele>122</ele>
        <time>2018-07-15T08:43:17Z</time>
      </trkpt>
      <trkpt lat="43.89298" lon="1.87598">
        <ele>121</ele>
        <time>2018-07-15T08:43:18Z</time>
      </trkpt>
      <trkpt lat="43.89297" lon="1.8759">
        <ele>120</ele>
        <time>2018-07-15T08:43:19Z</time>
      </trkpt>
      <trkpt lat="43.89296" lon="1.87582">
        <ele>120</ele>
        <time>2018-07-15T08:43:20Z</time>
      </trkpt>
      <trkpt lat="43.89295" lon="1.87573">
        <ele>120</ele>
        <time>2018-07-15T08:43:21Z</time>
      </trkpt>
      <trkpt lat="43.89294" lon="1.87565">
        <ele>120</ele>
        <time>2018-07-15T08:43:22Z</time>
      </trkpt>
      <trkpt lat="43.89293" lon="1.87557">
        <ele>120</ele>
        <time>2018-07-15T08:43:23Z</time>
      </trkpt>
      <trkpt lat="43.89292" lon="1.8755">
        <ele>120</ele>
        <time>2018-07-15T08:43:24Z</time>
      </trkpt>
      <trkpt lat="43.89292" lon="1.87542">
        <ele>120</ele>
        <time>2018-07-15T08:43:25Z</time>
      </trkpt>
      <trkpt lat="43.8929" lon="1.87534">
        <ele>120</ele>
        <time>2018-07-15T08:43:26Z</time>
      </trkpt>
      <trkpt lat="43.8929" lon="1.87526">
        <ele>120</ele>
        <time>2018-07-15T08:43:27Z</time>
      </trkpt>
      <trkpt lat="43.89289" lon="1.87518">
        <ele>120</ele>
        <time>2018-07-15T08:43:28Z</time>
      </trkpt>
      <trkpt lat="43.89288" lon="1.8751">
        <ele>120</ele>
        <time>2018-07-15T08:43:29Z</time>
      </trkpt>
      <trkpt lat="43.89286" lon="1.87502">
        <ele>120</ele>
        <time>2018-07-15T08:43:30Z</time>
      </trkpt>
      <trkpt lat="43.89285" lon="1.87494">
        <ele>120</ele>
        <time>2018-07-15T08:43:31Z</time>
      </trkpt>
      <trkpt lat="43.89284" lon="1.87486">
        <ele>120</ele>
        <time>2018-07-15T08:43:32Z</time>
      </trkpt>
      <trkpt lat="43.89283" lon="1.87478">
        <ele>121</ele>
        <time>2018-07-15T08:43:33Z</time>
      </trkpt>
      <trkpt lat="43.89283" lon="1.8747">
        <ele>121</ele>
        <time>2018-07-15T08:43:34Z</time>
      </trkpt>
      <trkpt lat="43.89282" lon="1.87462">
        <ele>121</ele>
        <time>2018-07-15T08:43:35Z</time>
      </trkpt>
      <trkpt lat="43.89281" lon="1.87454">
        <ele>121</ele>
        <time>2018-07-15T08:43:36Z</time>
      </trkpt>
      <trkpt lat="43.8928" lon="1.87446">
        <ele>120</ele>
        <time>2018-07-15T08:43:37Z</time>
      </trkpt>
      <trkpt lat="43.89279" lon="1.87438">
        <ele>120</ele>
        <time>2018-07-15T08:43:38Z</time>
      </trkpt>
      <trkpt lat="43.89279" lon="1.8743">
        <ele>120</ele>
        <time>2018-07-15T08:43:39Z</time>
      </trkpt>
      <trkpt lat="43.89278" lon="1.87421">
        <ele>121</ele>
        <time>2018-07-15T08:43:40Z</time>
      </trkpt>
      <trkpt lat="43.89277" lon="1.87413">
        <ele>121</ele>
        <time>2018-07-15T08:43:41Z</time>
      </trkpt>
      <trkpt lat="43.89275" lon="1.87405">
        <ele>121</ele>
        <time>2018-07-15T08:43:42Z</time>
      </trkpt>
      <trkpt lat="43.89274" lon="1.87396">
        <ele>121</ele>
        <time>2018-07-15T08:43:43Z</time>
      </trkpt>
      <trkpt lat="43.89273" lon="1.87388">
        <ele>121</ele>
        <time>2018-07-15T08:43:44Z</time>
      </trkpt>
      <trkpt lat="43.89272" lon="1.8738">
        <ele>120</ele>
        <time>2018-07-15T08:43:45Z</time>
      </trkpt>
      <trkpt lat="43.89271" lon="1.87372">
        <ele>120</ele>
        <time>2018-07-15T08:43:46Z</time>
      </trkpt>
      <trkpt lat="43.8927" lon="1.87363">
        <ele>120</ele>
        <time>2018-07-15T08:43:47Z</time>
      </trkpt>
      <trkpt lat="43.89269" lon="1.87355">
        <ele>120</ele>
        <time>2018-07-15T08:43:48Z</time>
      </trkpt>
      <trkpt lat="43.89269" lon="1.87347">
        <ele>120</ele>
        <time>2018-07-15T08:43:49Z</time>
      </trkpt>
      <trkpt lat="43.89268" lon="1.87339">
        <ele>120</ele>
        <time>2018-07-15T08:43:50Z</time>
      </trkpt>
      <trkpt lat="43.89267" lon="1.8733">
        <ele>120</ele>
        <time>2018-07-15T08:43:51Z</time>
      </trkpt>
      <trkpt lat="43.89266" lon="1.87322">
        <ele>120</ele>
        <time>2018-07-15T08:43:52Z</time>
      </trkpt>
      <trkpt lat="43.89264" lon="1.87314">
        <ele>120</ele>
        <time>2018-07-15T08:43:53Z</time>
      </trkpt>
      <trkpt lat="43.89263" lon="1.87306">
        <ele>120</ele>
        <time>2018-07-15T08:43:54Z</time>
      </trkpt>
      <trkpt lat="43.89262" lon="1.87297">
        <ele>120</ele>
        <time>2018-07-15T08:43:55Z</time>
      </trkpt>
      <trkpt lat="43.89261" lon="1.87289">
        <ele>120</ele>
        <time>2018-07-15T08:43:56Z</time>
      </trkpt>
      <trkpt lat="43.89259" lon="1.87281">
        <ele>120</ele>
        <time>2018-07-15T08:43:57Z</time>
      </trkpt>
      <trkpt lat="43.89258" lon="1.87273">
        <ele>120</ele>
        <time>2018-07-15T08:43:58Z</time>
      </trkpt>
      <trkpt lat="43.89257" lon="1.87265">
        <ele>120</ele>
        <time>2018-07-15T08:43:59Z</time>
      </trkpt>
      <trkpt lat="43.89256" lon="1.87257">
        <ele>120</ele>
        <time>2018-07-15T08:44:00Z</time>
      </trkpt>
      <trkpt lat="43.89254" lon="1.87249">
        <ele>120</ele>
        <time>2018-07-15T08:44:01Z</time>
      </trkpt>
      <trkpt lat="43.89253" lon="1.87241">
        <ele>120</ele>
        <time>2018-07-15T08:44:02Z</time>
      </trkpt>
      <trkpt lat="43.89251" lon="1.87233">
        <ele>120</ele>
        <time>2018-07-15T08:44:03Z</time>
      </trkpt>
      <trkpt lat="43.8925" lon="1.87225">
        <ele>120</ele>
        <time>2018-07-15T08:44:04Z</time>
      </trkpt>
      <trkpt lat="43.89248" lon="1.87217">
        <ele>120</ele>
        <time>2018-07-15T08:44:05Z</time>
      </trkpt>
      <trkpt lat="43.89246" lon="1.87209">
        <ele>120</ele>
        <time>2018-07-15T08:44:06Z</time>
      </trkpt>
      <trkpt lat="43.89244" lon="1.87201">
        <ele>120</ele>
        <time>2018-07-15T08:44:07Z</time>
      </trkpt>
      <trkpt lat="43.89242" lon="1.87193">
        <ele>120</ele>
        <time>2018-07-15T08:44:08Z</time>
      </trkpt>
      <trkpt lat="43.8924" lon="1.87185">
        <ele>120</ele>
        <time>2018-07-15T08:44:09Z</time>
      </trkpt>
      <trkpt lat="43.89238" lon="1.87176">
        <ele>120</ele>
        <time>2018-07-15T08:44:10Z</time>
      </trkpt>
      <trkpt lat="43.89236" lon="1.87168">
        <ele>120</ele>
        <time>2018-07-15T08:44:11Z</time>
      </trkpt>
      <trkpt lat="43.89234" lon="1.8716">
        <ele>120</ele>
        <time>2018-07-15T08:44:12Z</time>
      </trkpt>
      <trkpt lat="43.89232" lon="1.87152">
        <ele>120</ele>
        <time>2018-07-15T08:44:13Z</time>
      </trkpt>
      <trkpt lat="43.89231" lon="1.87144">
        <ele>120</ele>
        <time>2018-07-15T08:44:14Z</time>
      </trkpt>
      <trkpt lat="43.89229" lon="1.87136">
        <ele>120</ele>
        <time>2018-07-15T08:44:15Z</time>
      </trkpt>
      <trkpt lat="43.89227" lon="1.87127">
        <ele>120</ele>
        <time>2018-07-15T08:44:16Z</time>
      </trkpt>
      <trkpt lat="43.89225" lon="1.87119">
        <ele>120</ele>
        <time>2018-07-15T08:44:17Z</time>
      </trkpt>
      <trkpt lat="43.89223" lon="1.87111">
        <ele>120</ele>
        <time>2018-07-15T08:44:18Z</time>
      </trkpt>
      <trkpt lat="43.89221" lon="1.87103">
        <ele>120</ele>
        <time>2018-07-15T08:44:19Z</time>
      </trkpt>
      <trkpt lat="43.89219" lon="1.87095">
        <ele>120</ele>
        <time>2018-07-15T08:44:20Z</time>
      </trkpt>
      <trkpt lat="43.89217" lon="1.87086">
        <ele>120</ele>
        <time>2018-07-15T08:44:21Z</time>
      </trkpt>
      <trkpt lat="43.89216" lon="1.87078">
        <ele>120</ele>
        <time>2018-07-15T08:44:22Z</time>
      </trkpt>
      <trkpt lat="43.89215" lon="1.8707">
        <ele>120</ele>
        <time>2018-07-15T08:44:23Z</time>
      </trkpt>
      <trkpt lat="43.89213" lon="1.87062">
        <ele>120</ele>
        <time>2018-07-15T08:44:24Z</time>
      </trkpt>
      <trkpt lat="43.89211" lon="1.87054">
        <ele>120</ele>
        <time>2018-07-15T08:44:25Z</time>
      </trkpt>
      <trkpt lat="43.8921" lon="1.87045">
        <ele>120</ele>
        <time>2018-07-15T08:44:26Z</time>
      </trkpt>
      <trkpt lat="43.89208" lon="1.87037">
        <ele>120</ele>
        <time>2018-07-15T08:44:27Z</time>
      </trkpt>
      <trkpt lat="43.89207" lon="1.87029">
        <ele>120</ele>
        <time>2018-07-15T08:44:28Z</time>
      </trkpt>
      <trkpt lat="43.89206" lon="1.8702">
        <ele>120</ele>
        <time>2018-07-15T08:44:29Z</time>
      </trkpt>
      <trkpt lat="43.89205" lon="1.87012">
        <ele>120</ele>
        <time>2018-07-15T08:44:30Z</time>
      </trkpt>
      <trkpt lat="43.89204" lon="1.87004">
        <ele>120</ele>
        <time>2018-07-15T08:44:31Z</time>
      </trkpt>
      <trkpt lat="43.89203" lon="1.86995">
        <ele>120</ele>
        <time>2018-07-15T08:44:32Z</time>
      </trkpt>
      <trkpt lat="43.89202" lon="1.86987">
        <ele>120</ele>
        <time>2018-07-15T08:44:33Z</time>
      </trkpt>
      <trkpt lat="43.89201" lon="1.86979">
        <ele>120</ele>
        <time>2018-07-15T08:44:34Z</time>
      </trkpt>
      <trkpt lat="43.892" lon="1.8697">
        <ele>120</ele>
        <time>2018-07-15T08:44:35Z</time>
      </trkpt>
      <trkpt lat="43.89199" lon="1.86962">
        <ele>120</ele>
        <time>2018-07-15T08:44:36Z</time>
      </trkpt>
      <trkpt lat="43.89198" lon="1.86954">
        <ele>120</ele>
        <time>2018-07-15T08:44:37Z</time>
      </trkpt>
      <trkpt lat="43.89196" lon="1.86945">
        <ele>120</ele>
        <time>2018-07-15T08:44:38Z</time>
      </trkpt>
      <trkpt lat="43.89194" lon="1.86937">
        <ele>121</ele>
        <time>2018-07-15T08:44:39Z</time>
      </trkpt>
      <trkpt lat="43.89192" lon="1.86929">
        <ele>121</ele>
        <time>2018-07-15T08:44:40Z</time>
      </trkpt>
      <trkpt lat="43.89189" lon="1.86921">
        <ele>121</ele>
        <time>2018-07-15T08:44:41Z</time>
      </trkpt>
      <trkpt lat="43.89186" lon="1.86913">
        <ele>121</ele>
        <time>2018-07-15T08:44:42Z</time>
      </trkpt>
      <trkpt lat="43.89184" lon="1.86905">
        <ele>121</ele>
        <time>2018-07-15T08:44:43Z</time>
      </trkpt>
      <trkpt lat="43.89181" lon="1.86897">
        <ele>121</ele>
        <time>2018-07-15T08:44:44Z</time>
      </trkpt>
      <trkpt lat="43.89178" lon="1.86889">
        <ele>121</ele>
        <time>2018-07-15T08:44:45Z</time>
      </trkpt>
      <trkpt lat="43.89176" lon="1.86881">
        <ele>121</ele>
        <time>2018-07-15T08:44:46Z</time>
      </trkpt>
      <trkpt lat="43.89173" lon="1.86873">
        <ele>121</ele>
        <time>2018-07-15T08:44:47Z</time>
      </trkpt>
      <trkpt lat="43.89171" lon="1.86865">
        <ele>121</ele>
        <time>2018-07-15T08:44:48Z</time>
      </trkpt>
      <trkpt lat="43.89168" lon="1.86857">
        <ele>121</ele>
        <time>2018-07-15T08:44:49Z</time>
      </trkpt>
      <trkpt lat="43.89165" lon="1.86849">
        <ele>121</ele>
        <time>2018-07-15T08:44:50Z</time>
      </trkpt>
      <trkpt lat="43.89163" lon="1.86841">
        <ele>121</ele>
        <time>2018-07-15T08:44:51Z</time>
      </trkpt>
      <trkpt lat="43.8916" lon="1.86833">
        <ele>121</ele>
        <time>2018-07-15T08:44:52Z</time>
      </trkpt>
      <trkpt lat="43.89157" lon="1.86826">
        <ele>121</ele>
        <time>2018-07-15T08:44:53Z</time>
      </trkpt>
      <trkpt lat="43.89154" lon="1.86817">
        <ele>121</ele>
        <time>2018-07-15T08:44:54Z</time>
      </trkpt>
      <trkpt lat="43.89151" lon="1.8681">
        <ele>121</ele>
        <time>2018-07-15T08:44:55Z</time>
      </trkpt>
      <trkpt lat="43.89149" lon="1.86802">
        <ele>121</ele>
        <time>2018-07-15T08:44:56Z</time>
      </trkpt>
      <trkpt lat="43.89146" lon="1.86794">
        <ele>121</ele>
        <time>2018-07-15T08:44:57Z</time>
      </trkpt>
      <trkpt lat="43.89143" lon="1.86786">
        <ele>121</ele>
        <time>2018-07-15T08:44:58Z</time>
      </trkpt>
      <trkpt lat="43.8914" lon="1.86778">
        <ele>121</ele>
        <time>2018-07-15T08:44:59Z</time>
      </trkpt>
      <trkpt lat="43.89138" lon="1.8677">
        <ele>121</ele>
        <time>2018-07-15T08:45:00Z</time>
      </trkpt>
      <trkpt lat="43.89136" lon="1.86762">
        <ele>121</ele>
        <time>2018-07-15T08:45:01Z</time>
      </trkpt>
      <trkpt lat="43.89133" lon="1.86753">
        <ele>121</ele>
        <time>2018-07-15T08:45:02Z</time>
      </trkpt>
      <trkpt lat="43.89131" lon="1.86745">
        <ele>121</ele>
        <time>2018-07-15T08:45:03Z</time>
      </trkpt>
      <trkpt lat="43.89128" lon="1.86737">
        <ele>121</ele>
        <time>2018-07-15T08:45:04Z</time>
      </trkpt>
      <trkpt lat="43.89126" lon="1.86729">
        <ele>121</ele>
        <time>2018-07-15T08:45:05Z</time>
      </trkpt>
      <trkpt lat="43.89123" lon="1.86721">
        <ele>120</ele>
        <time>2018-07-15T08:45:06Z</time>
      </trkpt>
      <trkpt lat="43.8912" lon="1.86712">
        <ele>121</ele>
        <time>2018-07-15T08:45:07Z</time>
      </trkpt>
      <trkpt lat="43.89118" lon="1.86704">
        <ele>120</ele>
        <time>2018-07-15T08:45:08Z</time>
      </trkpt>
      <trkpt lat="43.89116" lon="1.86696">
        <ele>120</ele>
        <time>2018-07-15T08:45:09Z</time>
      </trkpt>
      <trkpt lat="43.89114" lon="1.86688">
        <ele>120</ele>
        <time>2018-07-15T08:45:10Z</time>
      </trkpt>
      <trkpt lat="43.89111" lon="1.86681">
        <ele>120</ele>
        <time>2018-07-15T08:45:11Z</time>
      </trkpt>
      <trkpt lat="43.89108" lon="1.86673">
        <ele>120</ele>
        <time>2018-07-15T08:45:12Z</time>
      </trkpt>
      <trkpt lat="43.89106" lon="1.86665">
        <ele>120</ele>
        <time>2018-07-15T08:45:13Z</time>
      </trkpt>
      <trkpt lat="43.89102" lon="1.86658">
        <ele>120</ele>
        <time>2018-07-15T08:45:14Z</time>
      </trkpt>
      <trkpt lat="43.89099" lon="1.86651">
        <ele>120</ele>
        <time>2018-07-15T08:45:15Z</time>
      </trkpt>
      <trkpt lat="43.89095" lon="1.86644">
        <ele>120</ele>
        <time>2018-07-15T08:45:16Z</time>
      </trkpt>
      <trkpt lat="43.89091" lon="1.86637">
        <ele>120</ele>
        <time>2018-07-15T08:45:17Z</time>
      </trkpt>
      <trkpt lat="43.89086" lon="1.86631">
        <ele>120</ele>
        <time>2018-07-15T08:45:18Z</time>
      </trkpt>
      <trkpt lat="43.89082" lon="1.86626">
        <ele>121</ele>
        <time>2018-07-15T08:45:19Z</time>
      </trkpt>
      <trkpt lat="43.89077" lon="1.8662">
        <ele>120</ele>
        <time>2018-07-15T08:45:20Z</time>
      </trkpt>
      <trkpt lat="43.89072" lon="1.86615">
        <ele>120</ele>
        <time>2018-07-15T08:45:21Z</time>
      </trkpt>
      <trkpt lat="43.89067" lon="1.8661">
        <ele>120</ele>
        <time>2018-07-15T08:45:22Z</time>
      </trkpt>
      <trkpt lat="43.89062" lon="1.86605">
        <ele>120</ele>
        <time>2018-07-15T08:45:23Z</time>
      </trkpt>
      <trkpt lat="43.89057" lon="1.866">
        <ele>120</ele>
        <time>2018-07-15T08:45:24Z</time>
      </trkpt>
      <trkpt lat="43.89052" lon="1.86594">
        <ele>120</ele>
        <time>2018-07-15T08:45:25Z</time>
      </trkpt>
      <trkpt lat="43.89047" lon="1.86589">
        <ele>120</ele>
        <time>2018-07-15T08:45:26Z</time>
      </trkpt>
      <trkpt lat="43.89042" lon="1.86584">
        <ele>120</ele>
        <time>2018-07-15T08:45:27Z</time>
      </trkpt>
      <trkpt lat="43.89037" lon="1.86579">
        <ele>120</ele>
        <time>2018-07-15T08:45:28Z</time>
      </trkpt>
      <trkpt lat="43.89032" lon="1.86573">
        <ele>120</ele>
        <time>2018-07-15T08:45:29Z</time>
      </trkpt>
      <trkpt lat="43.89027" lon="1.86568">
        <ele>120</ele>
        <time>2018-07-15T08:45:30Z</time>
      </trkpt>
      <trkpt lat="43.89023" lon="1.86562">
        <ele>120</ele>
        <time>2018-07-15T08:45:31Z</time>
      </trkpt>
      <trkpt lat="43.89018" lon="1.86556">
        <ele>120</ele>
        <time>2018-07-15T08:45:32Z</time>
      </trkpt>
      <trkpt lat="43.89014" lon="1.86549">
        <ele>120</ele>
        <time>2018-07-15T08:45:33Z</time>
      </trkpt>
      <trkpt lat="43.89011" lon="1.86542">
        <ele>120</ele>
        <time>2018-07-15T08:45:34Z</time>
      </trkpt>
      <trkpt lat="43.89007" lon="1.86535">
        <ele>120</ele>
        <time>2018-07-15T08:45:35Z</time>
      </trkpt>
      <trkpt lat="43.89004" lon="1.86527">
        <ele>121</ele>
        <time>2018-07-15T08:45:36Z</time>
      </trkpt>
      <trkpt lat="43.89002" lon="1.86519">
        <ele>121</ele>
        <time>2018-07-15T08:45:37Z</time>
      </trkpt>
      <trkpt lat="43.89" lon="1.86511">
        <ele>120</ele>
        <time>2018-07-15T08:45:38Z</time>
      </trkpt>
      <trkpt lat="43.88998" lon="1.86504">
        <ele>120</ele>
        <time>2018-07-15T08:45:39Z</time>
      </trkpt>
      <trkpt lat="43.88996" lon="1.86495">
        <ele>121</ele>
        <time>2018-07-15T08:45:40Z</time>
      </trkpt>
      <trkpt lat="43.88994" lon="1.86488">
        <ele>121</ele>
        <time>2018-07-15T08:45:41Z</time>
      </trkpt>
      <trkpt lat="43.88992" lon="1.8648">
        <ele>121</ele>
        <time>2018-07-15T08:45:42Z</time>
      </trkpt>
      <trkpt lat="43.88991" lon="1.86472">
        <ele>121</ele>
        <time>2018-07-15T08:45:43Z</time>
      </trkpt>
      <trkpt lat="43.88989" lon="1.86465">
        <ele>121</ele>
        <time>2018-07-15T08:45:44Z</time>
      </trkpt>
      <trkpt lat="43.88987" lon="1.86457">
        <ele>121</ele>
        <time>2018-07-15T08:45:45Z</time>
      </trkpt>
      <trkpt lat="43.88986" lon="1.8645">
        <ele>121</ele>
        <time>2018-07-15T08:45:46Z</time>
      </trkpt>
      <trkpt lat="43.88984" lon="1.86443">
        <ele>121</ele>
        <time>2018-07-15T08:45:47Z</time>
      </trkpt>
      <trkpt lat="43.88983" lon="1.86436">
        <ele>121</ele>
        <time>2018-07-15T08:45:48Z</time>
      </trkpt>
      <trkpt lat="43.88983" lon="1.86429">
        <ele>121</ele>
        <time>2018-07-15T08:45:49Z</time>
      </trkpt>
      <trkpt lat="43.88984" lon="1.86423">
        <ele>121</ele>
        <time>2018-07-15T08:45:50Z</time>
      </trkpt>
      <trkpt lat="43.88986" lon="1.86416">
        <ele>121</ele>
        <time>2018-07-15T08:45:51Z</time>
      </trkpt>
      <trkpt lat="43.88989" lon="1.86411">
        <ele>121</ele>
        <time>2018-07-15T08:45:52Z</time>
      </trkpt>
      <trkpt lat="43.88993" lon="1.86407">
        <ele>121</ele>
        <time>2018-07-15T08:45:53Z</time>
      </trkpt>
      <trkpt lat="43.88996" lon="1.86403">
        <ele>121</ele>
        <time>2018-07-15T08:45:54Z</time>
      </trkpt>
      <trkpt lat="43.88999" lon="1.86398">
        <ele>121</ele>
        <time>2018-07-15T08:45:55Z</time>
      </trkpt>
      <trkpt lat="43.89001" lon="1.86392">
        <ele>121</ele>
        <time>2018-07-15T08:45:56Z</time>
      </trkpt>
      <trkpt lat="43.89001" lon="1.86385">
        <ele>121</ele>
        <time>2018-07-15T08:45:57Z</time>
      </trkpt>
      <trkpt lat="43.89" lon="1.86379">
        <ele>121</ele>
        <time>2018-07-15T08:45:58Z</time>
      </trkpt>
      <trkpt lat="43.88997" lon="1.86373">
        <ele>121</ele>
        <time>2018-07-15T08:45:59Z</time>
      </trkpt>
      <trkpt lat="43.88993" lon="1.86366">
        <ele>121</ele>
        <time>2018-07-15T08:46:00Z</time>
      </trkpt>
      <trkpt lat="43.8899" lon="1.8636">
        <ele>121</ele>
        <time>2018-07-15T08:46:01Z</time>
      </trkpt>
      <trkpt lat="43.88986" lon="1.86354">
        <ele>121</ele>
        <time>2018-07-15T08:46:02Z</time>
      </trkpt>
      <trkpt lat="43.88983" lon="1.86347">
        <ele>121</ele>
        <time>2018-07-15T08:46:03Z</time>
      </trkpt>
      <trkpt lat="43.88979" lon="1.86341">
        <ele>121</ele>
        <time>2018-07-15T08:46:04Z</time>
      </trkpt>
      <trkpt lat="43.88975" lon="1.86334">
        <ele>121</ele>
        <time>2018-07-15T08:46:05Z</time>
      </trkpt>
      <trkpt lat="43.88972" lon="1.86328">
        <ele>121</ele>
        <time>2018-07-15T08:46:06Z</time>
      </trkpt>
      <trkpt lat="43.88968" lon="1.8632">
        <ele>121</ele>
        <time>2018-07-15T08:46:07Z</time>
      </trkpt>
      <trkpt lat="43.88965" lon="1.86313">
        <ele>121</ele>
        <time>2018-07-15T08:46:08Z</time>
      </trkpt>
      <trkpt lat="43.88963" lon="1.86305">
        <ele>120</ele>
        <time>2018-07-15T08:46:09Z</time>
      </trkpt>
      <trkpt lat="43.88961" lon="1.86297">
        <ele>120</ele>
        <time>2018-07-15T08:46:10Z</time>
      </trkpt>
      <trkpt lat="43.88959" lon="1.86289">
        <ele>120</ele>
        <time>2018-07-15T08:46:11Z</time>
      </trkpt>
      <trkpt lat="43.88958" lon="1.8628">
        <ele>120</ele>
        <time>2018-07-15T08:46:12Z</time>
      </trkpt>
      <trkpt lat="43.88957" lon="1.86272">
        <ele>120</ele>
        <time>2018-07-15T08:46:13Z</time>
      </trkpt>
      <trkpt lat="43.88955" lon="1.86264">
        <ele>120</ele>
        <time>2018-07-15T08:46:14Z</time>
      </trkpt>
      <trkpt lat="43.88954" lon="1.86255">
        <ele>120</ele>
        <time>2018-07-15T08:46:15Z</time>
      </trkpt>
      <trkpt lat="43.88953" lon="1.86247">
        <ele>120</ele>
        <time>2018-07-15T08:46:16Z</time>
      </trkpt>
      <trkpt lat="43.88951" lon="1.86239">
        <ele>120</ele>
        <time>2018-07-15T08:46:17Z</time>
      </trkpt>
      <trkpt lat="43.88949" lon="1.86231">
        <ele>120</ele>
        <time>2018-07-15T08:46:18Z</time>
      </trkpt>
      <trkpt lat="43.88948" lon="1.86222">
        <ele>120</ele>
        <time>2018-07-15T08:46:19Z</time>
      </trkpt>
      <trkpt lat="43.88946" lon="1.86214">
        <ele>120</ele>
        <time>2018-07-15T08:46:20Z</time>
      </trkpt>
      <trkpt lat="43.88945" lon="1.86206">
        <ele>120</ele>
        <time>2018-07-15T08:46:21Z</time>
      </trkpt>
      <trkpt lat="43.88943" lon="1.86197">
        <ele>120</ele>
        <time>2018-07-15T08:46:22Z</time>
      </trkpt>
      <trkpt lat="43.88942" lon="1.86188">
        <ele>120</ele>
        <time>2018-07-15T08:46:23Z</time>
      </trkpt>
      <trkpt lat="43.88941" lon="1.8618">
        <ele>120</ele>
        <time>2018-07-15T08:46:24Z</time>
      </trkpt>
      <trkpt lat="43.88939" lon="1.86171">
        <ele>120</ele>
        <time>2018-07-15T08:46:25Z</time>
      </trkpt>
      <trkpt lat="43.88938" lon="1.86163">
        <ele>120</ele>
        <time>2018-07-15T08:46:26Z</time>
      </trkpt>
      <trkpt lat="43.88936" lon="1.86154">
        <ele>119</ele>
        <time>2018-07-15T08:46:27Z</time>
      </trkpt>
      <trkpt lat="43.88934" lon="1.86146">
        <ele>119</ele>
        <time>2018-07-15T08:46:28Z</time>
      </trkpt>
      <trkpt lat="43.88933" lon="1.86138">
        <ele>120</ele>
        <time>2018-07-15T08:46:29Z</time>
      </trkpt>
      <trkpt lat="43.88931" lon="1.86129">
        <ele>120</ele>
        <time>2018-07-15T08:46:30Z</time>
      </trkpt>
      <trkpt lat="43.88929" lon="1.86121">
        <ele>120</ele>
        <time>2018-07-15T08:46:31Z</time>
      </trkpt>
      <trkpt lat="43.88928" lon="1.86113">
        <ele>120</ele>
        <time>2018-07-15T08:46:32Z</time>
      </trkpt>
      <trkpt lat="43.88926" lon="1.86105">
        <ele>119</ele>
        <time>2018-07-15T08:46:33Z</time>
      </trkpt>
      <trkpt lat="43.88924" lon="1.86096">
        <ele>119</ele>
        <time>2018-07-15T08:46:34Z</time>
      </trkpt>
      <trkpt lat="43.88922" lon="1.86088">
        <ele>119</ele>
        <time>2018-07-15T08:46:35Z</time>
      </trkpt>
      <trkpt lat="43.8892" lon="1.8608">
        <ele>119</ele>
        <time>2018-07-15T08:46:36Z</time>
      </trkpt>
      <trkpt lat="43.88918" lon="1.86072">
        <ele>120</ele>
        <time>2018-07-15T08:46:37Z</time>
      </trkpt>
      <trkpt lat="43.88915" lon="1.86064">
        <ele>120</ele>
        <time>2018-07-15T08:46:38Z</time>
      </trkpt>
      <trkpt lat="43.88913" lon="1.86056">
        <ele>119</ele>
        <time>2018-07-15T08:46:39Z</time>
      </trkpt>
      <trkpt lat="43.88911" lon="1.86048">
        <ele>119</ele>
        <time>2018-07-15T08:46:40Z</time>
      </trkpt>
      <trkpt lat="43.88908" lon="1.8604">
        <ele>119</ele>
        <time>2018-07-15T08:46:41Z</time>
      </trkpt>
      <trkpt lat="43.88906" lon="1.86032">
        <ele>119</ele>
        <time>2018-07-15T08:46:42Z</time>
      </trkpt>
      <trkpt lat="43.88904" lon="1.86024">
        <ele>119</ele>
        <time>2018-07-15T08:46:43Z</time>
      </trkpt>
      <trkpt lat="43.88902" lon="1.86016">
        <ele>119</ele>
        <time>2018-07-15T08:46:44Z</time>
      </trkpt>
      <trkpt lat="43.88899" lon="1.86008">
        <ele>119</ele>
        <time>2018-07-15T08:46:45Z</time>
      </trkpt>
      <trkpt lat="43.88897" lon="1.86">
        <ele>120</ele>
        <time>2018-07-15T08:46:46Z</time>
      </trkpt>
      <trkpt lat="43.88894" lon="1.85991">
        <ele>120</ele>
        <time>2018-07-15T08:46:47Z</time>
      </trkpt>
      <trkpt lat="43.88892" lon="1.85983">
        <ele>120</ele>
        <time>2018-07-15T08:46:48Z</time>
      </trkpt>
      <trkpt lat="43.8889" lon="1.85974">
        <ele>120</ele>
        <time>2018-07-15T08:46:49Z</time>
      </trkpt>
      <trkpt lat="43.88887" lon="1.85966">
        <ele>120</ele>
        <time>2018-07-15T08:46:50Z</time>
      </trkpt>
      <trkpt lat="43.88885" lon="1.85957">
        <ele>119</ele>
        <time>2018-07-15T08:46:51Z</time>
      </trkpt>
      <trkpt lat="43.88883" lon="1.85949">
        <ele>119</ele>
        <time>2018-07-15T08:46:52Z</time>
      </trkpt>
      <trkpt lat="43.8888" lon="1.85941">
        <ele>119</ele>
        <time>2018-07-15T08:46:53Z</time>
      </trkpt>
      <trkpt lat="43.88878" lon="1.85932">
        <ele>119</ele>
        <time>2018-07-15T08:46:54Z</time>
      </trkpt>
      <trkpt lat="43.88876" lon="1.85924">
        <ele>119</ele>
        <time>2018-07-15T08:46:55Z</time>
      </trkpt>
      <trkpt lat="43.88873" lon="1.85916">
        <ele>119</ele>
        <time>2018-07-15T08:46:56Z</time>
      </trkpt>
      <trkpt lat="43.88871" lon="1.85907">
        <ele>119</ele>
        <time>2018-07-15T08:46:57Z</time>
      </trkpt>
      <trkpt lat="43.88869" lon="1.85899">
        <ele>119</ele>
        <time>2018-07-15T08:46:58Z</time>
      </trkpt>
      <trkpt lat="43.88866" lon="1.8589">
        <ele>119</ele>
        <time>2018-07-15T08:46:59Z</time>
      </trkpt>
      <trkpt lat="43.88864" lon="1.85882">
        <ele>119</ele>
        <time>2018-07-15T08:47:00Z</time>
      </trkpt>
      <trkpt lat="43.88862" lon="1.85874">
        <ele>119</ele>
        <time>2018-07-15T08:47:01Z</time>
      </trkpt>
      <trkpt lat="43.8886" lon="1.85865">
        <ele>119</ele>
        <time>2018-07-15T08:47:02Z</time>
      </trkpt>
      <trkpt lat="43.88859" lon="1.85856">
        <ele>119</ele>
        <time>2018-07-15T08:47:03Z</time>
      </trkpt>
      <trkpt lat="43.88858" lon="1.85847">
        <ele>119</ele>
        <time>2018-07-15T08:47:04Z</time>
      </trkpt>
      <trkpt lat="43.88857" lon="1.85838">
        <ele>120</ele>
        <time>2018-07-15T08:47:05Z</time>
      </trkpt>
      <trkpt lat="43.88856" lon="1.85829">
        <ele>120</ele>
        <time>2018-07-15T08:47:06Z</time>
      </trkpt>
      <trkpt lat="43.88855" lon="1.85819">
        <ele>119</ele>
        <time>2018-07-15T08:47:07Z</time>
      </trkpt>
      <trkpt lat="43.88855" lon="1.8581">
        <ele>119</ele>
        <time>2018-07-15T08:47:08Z</time>
      </trkpt>
      <trkpt lat="43.88854" lon="1.85801">
        <ele>119</ele>
        <time>2018-07-15T08:47:09Z</time>
      </trkpt>
      <trkpt lat="43.88854" lon="1.85793">
        <ele>119</ele>
        <time>2018-07-15T08:47:10Z</time>
      </trkpt>
      <trkpt lat="43.88854" lon="1.85784">
        <ele>119</ele>
        <time>2018-07-15T08:47:11Z</time>
      </trkpt>
      <trkpt lat="43.88854" lon="1.85776">
        <ele>119</ele>
        <time>2018-07-15T08:47:12Z</time>
      </trkpt>
      <trkpt lat="43.88854" lon="1.85767">
        <ele>119</ele>
        <time>2018-07-15T08:47:13Z</time>
      </trkpt>
      <trkpt lat="43.88854" lon="1.85758">
        <ele>119</ele>
        <time>2018-07-15T08:47:14Z</time>
      </trkpt>
      <trkpt lat="43.88854" lon="1.8575">
        <ele>119</ele>
        <time>2018-07-15T08:47:15Z</time>
      </trkpt>
      <trkpt lat="43.88854" lon="1.85741">
        <ele>119</ele>
        <time>2018-07-15T08:47:16Z</time>
      </trkpt>
      <trkpt lat="43.88854" lon="1.85732">
        <ele>119</ele>
        <time>2018-07-15T08:47:17Z</time>
      </trkpt>
      <trkpt lat="43.88854" lon="1.85723">
        <ele>119</ele>
        <time>2018-07-15T08:47:18Z</time>
      </trkpt>
      <trkpt lat="43.88854" lon="1.85714">
        <ele>119</ele>
        <time>2018-07-15T08:47:19Z</time>
      </trkpt>
      <trkpt lat="43.88855" lon="1.85706">
        <ele>119</ele>
        <time>2018-07-15T08:47:20Z</time>
      </trkpt>
      <trkpt lat="43.88855" lon="1.85697">
        <ele>119</ele>
        <time>2018-07-15T08:47:21Z</time>
      </trkpt>
      <trkpt lat="43.88855" lon="1.85689">
        <ele>119</ele>
        <time>2018-07-15T08:47:22Z</time>
      </trkpt>
      <trkpt lat="43.88855" lon="1.8568">
        <ele>120</ele>
        <time>2018-07-15T08:47:23Z</time>
      </trkpt>
      <trkpt lat="43.88855" lon="1.85671">
        <ele>119</ele>
        <time>2018-07-15T08:47:24Z</time>
      </trkpt>
      <trkpt lat="43.88855" lon="1.85663">
        <ele>119</ele>
        <time>2018-07-15T08:47:25Z</time>
      </trkpt>
      <trkpt lat="43.88855" lon="1.85654">
        <ele>119</ele>
        <time>2018-07-15T08:47:26Z</time>
      </trkpt>
      <trkpt lat="43.88856" lon="1.85645">
        <ele>119</ele>
        <time>2018-07-15T08:47:27Z</time>
      </trkpt>
      <trkpt lat="43.88856" lon="1.85636">
        <ele>119</ele>
        <time>2018-07-15T08:47:28Z</time>
      </trkpt>
      <trkpt lat="43.88856" lon="1.85627">
        <ele>119</ele>
        <time>2018-07-15T08:47:29Z</time>
      </trkpt>
      <trkpt lat="43.88856" lon="1.85618">
        <ele>119</ele>
        <time>2018-07-15T08:47:30Z</time>
      </trkpt>
      <trkpt lat="43.88857" lon="1.85609">
        <ele>119</ele>
        <time>2018-07-15T08:47:31Z</time>
      </trkpt>
      <trkpt lat="43.88857" lon="1.856">
        <ele>119</ele>
        <time>2018-07-15T08:47:32Z</time>
      </trkpt>
      <trkpt lat="43.88857" lon="1.85591">
        <ele>119</ele>
        <time>2018-07-15T08:47:33Z</time>
      </trkpt>
      <trkpt lat="43.88857" lon="1.85582">
        <ele>119</ele>
        <time>2018-07-15T08:47:34Z</time>
      </trkpt>
      <trkpt lat="43.88858" lon="1.85573">
        <ele>119</ele>
        <time>2018-07-15T08:47:35Z</time>
      </trkpt>
      <trkpt lat="43.88858" lon="1.85564">
        <ele>119</ele>
        <time>2018-07-15T08:47:36Z</time>
      </trkpt>
      <trkpt lat="43.88858" lon="1.85555">
        <ele>119</ele>
        <time>2018-07-15T08:47:37Z</time>
      </trkpt>
      <trkpt lat="43.88859" lon="1.85546">
        <ele>119</ele>
        <time>2018-07-15T08:47:38Z</time>
      </trkpt>
      <trkpt lat="43.88859" lon="1.85537">
        <ele>119</ele>
        <time>2018-07-15T08:47:39Z</time>
      </trkpt>
      <trkpt lat="43.8886" lon="1.85528">
        <ele>119</ele>
        <time>2018-07-15T08:47:40Z</time>
      </trkpt>
      <trkpt lat="43.8886" lon="1.85519">
        <ele>119</ele>
        <time>2018-07-15T08:47:41Z</time>
      </trkpt>
      <trkpt lat="43.88861" lon="1.8551">
        <ele>119</ele>
        <time>2018-07-15T08:47:42Z</time>
      </trkpt>
      <trkpt lat="43.88861" lon="1.85501">
        <ele>119</ele>
        <time>2018-07-15T08:47:43Z</time>
      </trkpt>
      <trkpt lat="43.88862" lon="1.85492">
        <ele>119</ele>
        <time>2018-07-15T08:47:44Z</time>
      </trkpt>
      <trkpt lat="43.88863" lon="1.85483">
        <ele>119</ele>
        <time>2018-07-15T08:47:45Z</time>
      </trkpt>
      <trkpt lat="43.88864" lon="1.85474">
        <ele>119</ele>
        <time>2018-07-15T08:47:46Z</time>
      </trkpt>
      <trkpt lat="43.88865" lon="1.85465">
        <ele>119</ele>
        <time>2018-07-15T08:47:47Z</time>
      </trkpt>
      <trkpt lat="43.88866" lon="1.85456">
        <ele>119</ele>
        <time>2018-07-15T08:47:48Z</time>
      </trkpt>
      <trkpt lat="43.88867" lon="1.85447">
        <ele>119</ele>
        <time>2018-07-15T08:47:49Z</time>
      </trkpt>
      <trkpt lat="43.88868" lon="1.85438">
        <ele>119</ele>
        <time>2018-07-15T08:47:50Z</time>
      </trkpt>
      <trkpt lat="43.88869" lon="1.85429">
        <ele>119</ele>
        <time>2018-07-15T08:47:51Z</time>
      </trkpt>
      <trkpt lat="43.8887" lon="1.8542">
        <ele>119</ele>
        <time>2018-07-15T08:47:52Z</time>
      </trkpt>
      <trkpt lat="43.88871" lon="1.85411">
        <ele>119</ele>
        <time>2018-07-15T08:47:53Z</time>
      </trkpt>
      <trkpt lat="43.88872" lon="1.85402">
        <ele>119</ele>
        <time>2018-07-15T08:47:54Z</time>
      </trkpt>
      <trkpt lat="43.88873" lon="1.85392">
        <ele>118</ele>
        <time>2018-07-15T08:47:55Z</time>
      </trkpt>
      <trkpt lat="43.88874" lon="1.85383">
        <ele>118</ele>
        <time>2018-07-15T08:47:56Z</time>
      </trkpt>
      <trkpt lat="43.88875" lon="1.85373">
        <ele>118</ele>
        <time>2018-07-15T08:47:57Z</time>
      </trkpt>
      <trkpt lat="43.88876" lon="1.85364">
        <ele>118</ele>
        <time>2018-07-15T08:47:58Z</time>
      </trkpt>
      <trkpt lat="43.88877" lon="1.85355">
        <ele>118</ele>
        <time>2018-07-15T08:47:59Z</time>
      </trkpt>
      <trkpt lat="43.88878" lon="1.85346">
        <ele>118</ele>
        <time>2018-07-15T08:48:00Z</time>
      </trkpt>
      <trkpt lat="43.88879" lon="1.85338">
        <ele>118</ele>
        <time>2018-07-15T08:48:01Z</time>
      </trkpt>
      <trkpt lat="43.88881" lon="1.85329">
        <ele>118</ele>
        <time>2018-07-15T08:48:02Z</time>
      </trkpt>
      <trkpt lat="43.88882" lon="1.8532">
        <ele>118</ele>
        <time>2018-07-15T08:48:03Z</time>
      </trkpt>
      <trkpt lat="43.88883" lon="1.85311">
        <ele>118</ele>
        <time>2018-07-15T08:48:04Z</time>
      </trkpt>
      <trkpt lat="43.88884" lon="1.85302">
        <ele>118</ele>
        <time>2018-07-15T08:48:05Z</time>
      </trkpt>
      <trkpt lat="43.88885" lon="1.85293">
        <ele>118</ele>
        <time>2018-07-15T08:48:06Z</time>
      </trkpt>
      <trkpt lat="43.88886" lon="1.85285">
        <ele>118</ele>
        <time>2018-07-15T08:48:07Z</time>
      </trkpt>
      <trkpt lat="43.88888" lon="1.85276">
        <ele>118</ele>
        <time>2018-07-15T08:48:08Z</time>
      </trkpt>
      <trkpt lat="43.88888" lon="1.85267">
        <ele>118</ele>
        <time>2018-07-15T08:48:09Z</time>
      </trkpt>
      <trkpt lat="43.88889" lon="1.85258">
        <ele>117</ele>
        <time>2018-07-15T08:48:10Z</time>
      </trkpt>
      <trkpt lat="43.8889" lon="1.85249">
        <ele>117</ele>
        <time>2018-07-15T08:48:11Z</time>
      </trkpt>
      <trkpt lat="43.88892" lon="1.8524">
        <ele>117</ele>
        <time>2018-07-15T08:48:12Z</time>
      </trkpt>
      <trkpt lat="43.88893" lon="1.85231">
        <ele>118</ele>
        <time>2018-07-15T08:48:13Z</time>
      </trkpt>
      <trkpt lat="43.88894" lon="1.85222">
        <ele>118</ele>
        <time>2018-07-15T08:48:14Z</time>
      </trkpt>
      <trkpt lat="43.88895" lon="1.85213">
        <ele>118</ele>
        <time>2018-07-15T08:48:15Z</time>
      </trkpt>
      <trkpt lat="43.88896" lon="1.85204">
        <ele>118</ele>
        <time>2018-07-15T08:48:16Z</time>
      </trkpt>
      <trkpt lat="43.88897" lon="1.85195">
        <ele>118</ele>
        <time>2018-07-15T08:48:17Z</time>
      </trkpt>
      <trkpt lat="43.88898" lon="1.85186">
        <ele>118</ele>
        <time>2018-07-15T08:48:18Z</time>
      </trkpt>
      <trkpt lat="43.88899" lon="1.85177">
        <ele>118</ele>
        <time>2018-07-15T08:48:19Z</time>
      </trkpt>
      <trkpt lat="43.889" lon="1.85168">
        <ele>118</ele>
        <time>2018-07-15T08:48:20Z</time>
      </trkpt>
      <trkpt lat="43.88901" lon="1.85159">
        <ele>118</ele>
        <time>2018-07-15T08:48:21Z</time>
      </trkpt>
      <trkpt lat="43.88902" lon="1.8515">
        <ele>118</ele>
        <time>2018-07-15T08:48:22Z</time>
      </trkpt>
      <trkpt lat="43.88903" lon="1.85141">
        <ele>118</ele>
        <time>2018-07-15T08:48:23Z</time>
      </trkpt>
      <trkpt lat="43.88904" lon="1.85132">
        <ele>118</ele>
        <time>2018-07-15T08:48:24Z</time>
      </trkpt>
      <trkpt lat="43.88905" lon="1.85123">
        <ele>118</ele>
        <time>2018-07-15T08:48:25Z</time>
      </trkpt>
      <trkpt lat="43.88906" lon="1.85114">
        <ele>118</ele>
        <time>2018-07-15T08:48:26Z</time>
      </trkpt>
      <trkpt lat="43.88907" lon="1.85105">
        <ele>118</ele>
        <time>2018-07-15T08:48:27Z</time>
      </trkpt>
      <trkpt lat="43.88907" lon="1.85097">
        <ele>118</ele>
        <time>2018-07-15T08:48:28Z</time>
      </trkpt>
      <trkpt lat="43.88909" lon="1.85089">
        <ele>118</ele>
        <time>2018-07-15T08:48:29Z</time>
      </trkpt>
      <trkpt lat="43.88909" lon="1.8508">
        <ele>118</ele>
        <time>2018-07-15T08:48:30Z</time>
      </trkpt>
      <trkpt lat="43.88911" lon="1.85071">
        <ele>118</ele>
        <time>2018-07-15T08:48:31Z</time>
      </trkpt>
      <trkpt lat="43.88912" lon="1.85062">
        <ele>118</ele>
        <time>2018-07-15T08:48:32Z</time>
      </trkpt>
      <trkpt lat="43.88913" lon="1.85053">
        <ele>118</ele>
        <time>2018-07-15T08:48:33Z</time>
      </trkpt>
      <trkpt lat="43.88913" lon="1.85044">
        <ele>118</ele>
        <time>2018-07-15T08:48:34Z</time>
      </trkpt>
      <trkpt lat="43.88915" lon="1.85035">
        <ele>118</ele>
        <time>2018-07-15T08:48:35Z</time>
      </trkpt>
      <trkpt lat="43.88916" lon="1.85026">
        <ele>118</ele>
        <time>2018-07-15T08:48:36Z</time>
      </trkpt>
      <trkpt lat="43.88917" lon="1.85017">
        <ele>118</ele>
        <time>2018-07-15T08:48:37Z</time>
      </trkpt>
      <trkpt lat="43.88918" lon="1.85009">
        <ele>118</ele>
        <time>2018-07-15T08:48:38Z</time>
      </trkpt>
      <trkpt lat="43.88919" lon="1.85">
        <ele>118</ele>
        <time>2018-07-15T08:48:39Z</time>
      </trkpt>
      <trkpt lat="43.8892" lon="1.84991">
        <ele>118</ele>
        <time>2018-07-15T08:48:40Z</time>
      </trkpt>
      <trkpt lat="43.88921" lon="1.84982">
        <ele>118</ele>
        <time>2018-07-15T08:48:41Z</time>
      </trkpt>
      <trkpt lat="43.88922" lon="1.84973">
        <ele>118</ele>
        <time>2018-07-15T08:48:42Z</time>
      </trkpt>
      <trkpt lat="43.88923" lon="1.84964">
        <ele>118</ele>
        <time>2018-07-15T08:48:43Z</time>
      </trkpt>
      <trkpt lat="43.88924" lon="1.84955">
        <ele>118</ele>
        <time>2018-07-15T08:48:44Z</time>
      </trkpt>
      <trkpt lat="43.88925" lon="1.84946">
        <ele>118</ele>
        <time>2018-07-15T08:48:45Z</time>
      </trkpt>
      <trkpt lat="43.88926" lon="1.84937">
        <ele>118</ele>
        <time>2018-07-15T08:48:46Z</time>
      </trkpt>
      <trkpt lat="43.88927" lon="1.84928">
        <ele>118</ele>
        <time>2018-07-15T08:48:47Z</time>
      </trkpt>
      <trkpt lat="43.88928" lon="1.84919">
        <ele>118</ele>
        <time>2018-07-15T08:48:48Z</time>
      </trkpt>
      <trkpt lat="43.88929" lon="1.8491">
        <ele>118</ele>
        <time>2018-07-15T08:48:49Z</time>
      </trkpt>
      <trkpt lat="43.8893" lon="1.84901">
        <ele>118</ele>
        <time>2018-07-15T08:48:50Z</time>
      </trkpt>
      <trkpt lat="43.88931" lon="1.84892">
        <ele>118</ele>
        <time>2018-07-15T08:48:51Z</time>
      </trkpt>
      <trkpt lat="43.88932" lon="1.84883">
        <ele>118</ele>
        <time>2018-07-15T08:48:52Z</time>
      </trkpt>
      <trkpt lat="43.88933" lon="1.84875">
        <ele>118</ele>
        <time>2018-07-15T08:48:53Z</time>
      </trkpt>
      <trkpt lat="43.88934" lon="1.84866">
        <ele>118</ele>
        <time>2018-07-15T08:48:54Z</time>
      </trkpt>
      <trkpt lat="43.88936" lon="1.84857">
        <ele>118</ele>
        <time>2018-07-15T08:48:55Z</time>
      </trkpt>
      <trkpt lat="43.88937" lon="1.84848">
        <ele>118</ele>
        <time>2018-07-15T08:48:56Z</time>
      </trkpt>
      <trkpt lat="43.88938" lon="1.84839">
        <ele>118</ele>
        <time>2018-07-15T08:48:57Z</time>
      </trkpt>
      <trkpt lat="43.88939" lon="1.8483">
        <ele>118</ele>
        <time>2018-07-15T08:48:58Z</time>
      </trkpt>
      <trkpt lat="43.8894" lon="1.84822">
        <ele>118</ele>
        <time>2018-07-15T08:48:59Z</time>
      </trkpt>
      <trkpt lat="43.88941" lon="1.84812">
        <ele>118</ele>
        <time>2018-07-15T08:49:00Z</time>
      </trkpt>
      <trkpt lat="43.88942" lon="1.84803">
        <ele>118</ele>
        <time>2018-07-15T08:49:01Z</time>
      </trkpt>
      <trkpt lat="43.88943" lon="1.84794">
        <ele>118</ele>
        <time>2018-07-15T08:49:02Z</time>
      </trkpt>
      <trkpt lat="43.88944" lon="1.84785">
        <ele>118</ele>
        <time>2018-07-15T08:49:03Z</time>
      </trkpt>
      <trkpt lat="43.88945" lon="1.84776">
        <ele>118</ele>
        <time>2018-07-15T08:49:04Z</time>
      </trkpt>
      <trkpt lat="43.88945" lon="1.84767">
        <ele>118</ele>
        <time>2018-07-15T08:49:05Z</time>
      </trkpt>
      <trkpt lat="43.88946" lon="1.84758">
        <ele>118</ele>
        <time>2018-07-15T08:49:06Z</time>
      </trkpt>
      <trkpt lat="43.88946" lon="1.84749">
        <ele>118</ele>
        <time>2018-07-15T08:49:07Z</time>
      </trkpt>
      <trkpt lat="43.88947" lon="1.8474">
        <ele>118</ele>
        <time>2018-07-15T08:49:08Z</time>
      </trkpt>
      <trkpt lat="43.88947" lon="1.84731">
        <ele>118</ele>
        <time>2018-07-15T08:49:09Z</time>
      </trkpt>
      <trkpt lat="43.88948" lon="1.84722">
        <ele>118</ele>
        <time>2018-07-15T08:49:10Z</time>
      </trkpt>
      <trkpt lat="43.88948" lon="1.84715">
        <ele>118</ele>
        <time>2018-07-15T08:49:11Z</time>
      </trkpt>
      <trkpt lat="43.88949" lon="1.84706">
        <ele>119</ele>
        <time>2018-07-15T08:49:12Z</time>
      </trkpt>
      <trkpt lat="43.88949" lon="1.84698">
        <ele>119</ele>
        <time>2018-07-15T08:49:13Z</time>
      </trkpt>
      <trkpt lat="43.88949" lon="1.84689">
        <ele>119</ele>
        <time>2018-07-15T08:49:14Z</time>
      </trkpt>
      <trkpt lat="43.88948" lon="1.8468">
        <ele>119</ele>
        <time>2018-07-15T08:49:15Z</time>
      </trkpt>
      <trkpt lat="43.88948" lon="1.84671">
        <ele>119</ele>
        <time>2018-07-15T08:49:16Z</time>
      </trkpt>
      <trkpt lat="43.88948" lon="1.84662">
        <ele>119</ele>
        <time>2018-07-15T08:49:17Z</time>
      </trkpt>
      <trkpt lat="43.88947" lon="1.84654">
        <ele>118</ele>
        <time>2018-07-15T08:49:18Z</time>
      </trkpt>
      <trkpt lat="43.88946" lon="1.84645">
        <ele>118</ele>
        <time>2018-07-15T08:49:19Z</time>
      </trkpt>
      <trkpt lat="43.88946" lon="1.84636">
        <ele>118</ele>
        <time>2018-07-15T08:49:20Z</time>
      </trkpt>
      <trkpt lat="43.88944" lon="1.84627">
        <ele>118</ele>
        <time>2018-07-15T08:49:21Z</time>
      </trkpt>
      <trkpt lat="43.88943" lon="1.84619">
        <ele>118</ele>
        <time>2018-07-15T08:49:22Z</time>
      </trkpt>
      <trkpt lat="43.88942" lon="1.8461">
        <ele>118</ele>
        <time>2018-07-15T08:49:23Z</time>
      </trkpt>
      <trkpt lat="43.88941" lon="1.84602">
        <ele>119</ele>
        <time>2018-07-15T08:49:24Z</time>
      </trkpt>
      <trkpt lat="43.88939" lon="1.84593">
        <ele>118</ele>
        <time>2018-07-15T08:49:25Z</time>
      </trkpt>
      <trkpt lat="43.88938" lon="1.84585">
        <ele>118</ele>
        <time>2018-07-15T08:49:26Z</time>
      </trkpt>
      <trkpt lat="43.88936" lon="1.84576">
        <ele>118</ele>
        <time>2018-07-15T08:49:27Z</time>
      </trkpt>
      <trkpt lat="43.88935" lon="1.84568">
        <ele>118</ele>
        <time>2018-07-15T08:49:28Z</time>
      </trkpt>
      <trkpt lat="43.88933" lon="1.84559">
        <ele>118</ele>
        <time>2018-07-15T08:49:29Z</time>
      </trkpt>
      <trkpt lat="43.88932" lon="1.8455">
        <ele>118</ele>
        <time>2018-07-15T08:49:30Z</time>
      </trkpt>
      <trkpt lat="43.8893" lon="1.84542">
        <ele>118</ele>
        <time>2018-07-15T08:49:31Z</time>
      </trkpt>
      <trkpt lat="43.88929" lon="1.84533">
        <ele>118</ele>
        <time>2018-07-15T08:49:32Z</time>
      </trkpt>
      <trkpt lat="43.88927" lon="1.84525">
        <ele>118</ele>
        <time>2018-07-15T08:49:33Z</time>
      </trkpt>
      <trkpt lat="43.88926" lon="1.84516">
        <ele>118</ele>
        <time>2018-07-15T08:49:34Z</time>
      </trkpt>
      <trkpt lat="43.88924" lon="1.84508">
        <ele>118</ele>
        <time>2018-07-15T08:49:35Z</time>
      </trkpt>
      <trkpt lat="43.88922" lon="1.84499">
        <ele>118</ele>
        <time>2018-07-15T08:49:36Z</time>
      </trkpt>
      <trkpt lat="43.8892" lon="1.84491">
        <ele>118</ele>
        <time>2018-07-15T08:49:37Z</time>
      </trkpt>
      <trkpt lat="43.88919" lon="1.84482">
        <ele>118</ele>
        <time>2018-07-15T08:49:38Z</time>
      </trkpt>
      <trkpt lat="43.88917" lon="1.84473">
        <ele>118</ele>
        <time>2018-07-15T08:49:39Z</time>
      </trkpt>
      <trkpt lat="43.88915" lon="1.84465">
        <ele>118</ele>
        <time>2018-07-15T08:49:40Z</time>
      </trkpt>
      <trkpt lat="43.88913" lon="1.84456">
        <ele>118</ele>
        <time>2018-07-15T08:49:41Z</time>
      </trkpt>
      <trkpt lat="43.88911" lon="1.84448">
        <ele>118</ele>
        <time>2018-07-15T08:49:42Z</time>
      </trkpt>
      <trkpt lat="43.88909" lon="1.84439">
        <ele>118</ele>
        <time>2018-07-15T08:49:43Z</time>
      </trkpt>
      <trkpt lat="43.88907" lon="1.8443">
        <ele>118</ele>
        <time>2018-07-15T08:49:44Z</time>
      </trkpt>
      <trkpt lat="43.88905" lon="1.84422">
        <ele>118</ele>
        <time>2018-07-15T08:49:45Z</time>
      </trkpt>
      <trkpt lat="43.88903" lon="1.84413">
        <ele>118</ele>
        <time>2018-07-15T08:49:46Z</time>
      </trkpt>
      <trkpt lat="43.88902" lon="1.84404">
        <ele>118</ele>
        <time>2018-07-15T08:49:47Z</time>
      </trkpt>
      <trkpt lat="43.88899" lon="1.84396">
        <ele>118</ele>
        <time>2018-07-15T08:49:48Z</time>
      </trkpt>
      <trkpt lat="43.88897" lon="1.84387">
        <ele>118</ele>
        <time>2018-07-15T08:49:49Z</time>
      </trkpt>
      <trkpt lat="43.88895" lon="1.84379">
        <ele>118</ele>
        <time>2018-07-15T08:49:50Z</time>
      </trkpt>
      <trkpt lat="43.88893" lon="1.8437">
        <ele>118</ele>
        <time>2018-07-15T08:49:51Z</time>
      </trkpt>
      <trkpt lat="43.88891" lon="1.84361">
        <ele>118</ele>
        <time>2018-07-15T08:49:52Z</time>
      </trkpt>
      <trkpt lat="43.88889" lon="1.84353">
        <ele>118</ele>
        <time>2018-07-15T08:49:53Z</time>
      </trkpt>
      <trkpt lat="43.88886" lon="1.84344">
        <ele>118</ele>
        <time>2018-07-15T08:49:54Z</time>
      </trkpt>
      <trkpt lat="43.88884" lon="1.84335">
        <ele>118</ele>
        <time>2018-07-15T08:49:55Z</time>
      </trkpt>
      <trkpt lat="43.88882" lon="1.84327">
        <ele>118</ele>
        <time>2018-07-15T08:49:56Z</time>
      </trkpt>
      <trkpt lat="43.8888" lon="1.84317">
        <ele>118</ele>
        <time>2018-07-15T08:49:57Z</time>
      </trkpt>
      <trkpt lat="43.88878" lon="1.84309">
        <ele>118</ele>
        <time>2018-07-15T08:49:58Z</time>
      </trkpt>
      <trkpt lat="43.88876" lon="1.843">
        <ele>118</ele>
        <time>2018-07-15T08:49:59Z</time>
      </trkpt>
      <trkpt lat="43.88874" lon="1.84291">
        <ele>118</ele>
        <time>2018-07-15T08:50:00Z</time>
      </trkpt>
      <trkpt lat="43.88872" lon="1.84282">
        <ele>118</ele>
        <time>2018-07-15T08:50:01Z</time>
      </trkpt>
      <trkpt lat="43.88869" lon="1.84274">
        <ele>118</ele>
        <time>2018-07-15T08:50:02Z</time>
      </trkpt>
      <trkpt lat="43.88867" lon="1.84266">
        <ele>118</ele>
        <time>2018-07-15T08:50:03Z</time>
      </trkpt>
      <trkpt lat="43.88864" lon="1.84257">
        <ele>118</ele>
        <time>2018-07-15T08:50:04Z</time>
      </trkpt>
      <trkpt lat="43.88861" lon="1.84249">
        <ele>118</ele>
        <time>2018-07-15T08:50:05Z</time>
      </trkpt>
      <trkpt lat="43.88859" lon="1.8424">
        <ele>118</ele>
        <time>2018-07-15T08:50:06Z</time>
      </trkpt>
      <trkpt lat="43.88856" lon="1.84232">
        <ele>118</ele>
        <time>2018-07-15T08:50:07Z</time>
      </trkpt>
      <trkpt lat="43.88853" lon="1.84224">
        <ele>117</ele>
        <time>2018-07-15T08:50:08Z</time>
      </trkpt>
      <trkpt lat="43.8885" lon="1.84215">
        <ele>117</ele>
        <time>2018-07-15T08:50:09Z</time>
      </trkpt>
      <trkpt lat="43.88847" lon="1.84207">
        <ele>117</ele>
        <time>2018-07-15T08:50:10Z</time>
      </trkpt>
      <trkpt lat="43.88844" lon="1.84199">
        <ele>117</ele>
        <time>2018-07-15T08:50:11Z</time>
      </trkpt>
      <trkpt lat="43.8884" lon="1.84191">
        <ele>117</ele>
        <time>2018-07-15T08:50:12Z</time>
      </trkpt>
      <trkpt lat="43.88838" lon="1.84183">
        <ele>117</ele>
        <time>2018-07-15T08:50:13Z</time>
      </trkpt>
      <trkpt lat="43.88834" lon="1.84174">
        <ele>117</ele>
        <time>2018-07-15T08:50:14Z</time>
      </trkpt>
      <trkpt lat="43.88832" lon="1.84166">
        <ele>117</ele>
        <time>2018-07-15T08:50:15Z</time>
      </trkpt>
      <trkpt lat="43.88829" lon="1.84158">
        <ele>117</ele>
        <time>2018-07-15T08:50:16Z</time>
      </trkpt>
      <trkpt lat="43.88827" lon="1.84149">
        <ele>117</ele>
        <time>2018-07-15T08:50:17Z</time>
      </trkpt>
      <trkpt lat="43.88824" lon="1.8414">
        <ele>117</ele>
        <time>2018-07-15T08:50:18Z</time>
      </trkpt>
      <trkpt lat="43.88822" lon="1.84132">
        <ele>117</ele>
        <time>2018-07-15T08:50:19Z</time>
      </trkpt>
      <trkpt lat="43.8882" lon="1.84123">
        <ele>117</ele>
        <time>2018-07-15T08:50:20Z</time>
      </trkpt>
      <trkpt lat="43.88818" lon="1.84114">
        <ele>117</ele>
        <time>2018-07-15T08:50:21Z</time>
      </trkpt>
      <trkpt lat="43.88816" lon="1.84106">
        <ele>117</ele>
        <time>2018-07-15T08:50:22Z</time>
      </trkpt>
      <trkpt lat="43.88814" lon="1.84097">
        <ele>117</ele>
        <time>2018-07-15T08:50:23Z</time>
      </trkpt>
      <trkpt lat="43.88812" lon="1.84089">
        <ele>117</ele>
        <time>2018-07-15T08:50:24Z</time>
      </trkpt>
      <trkpt lat="43.8881" lon="1.8408">
        <ele>117</ele>
        <time>2018-07-15T08:50:25Z</time>
      </trkpt>
      <trkpt lat="43.88808" lon="1.84072">
        <ele>117</ele>
        <time>2018-07-15T08:50:26Z</time>
      </trkpt>
      <trkpt lat="43.88806" lon="1.84063">
        <ele>117</ele>
        <time>2018-07-15T08:50:27Z</time>
      </trkpt>
      <trkpt lat="43.88804" lon="1.84055">
        <ele>117</ele>
        <time>2018-07-15T08:50:28Z</time>
      </trkpt>
      <trkpt lat="43.88803" lon="1.84046">
        <ele>117</ele>
        <time>2018-07-15T08:50:29Z</time>
      </trkpt>
      <trkpt lat="43.88801" lon="1.84038">
        <ele>117</ele>
        <time>2018-07-15T08:50:30Z</time>
      </trkpt>
      <trkpt lat="43.88799" lon="1.84029">
        <ele>117</ele>
        <time>2018-07-15T08:50:31Z</time>
      </trkpt>
      <trkpt lat="43.88798" lon="1.8402">
        <ele>117</ele>
        <time>2018-07-15T08:50:32Z</time>
      </trkpt>
      <trkpt lat="43.88796" lon="1.84012">
        <ele>117</ele>
        <time>2018-07-15T08:50:33Z</time>
      </trkpt>
      <trkpt lat="43.88794" lon="1.84003">
        <ele>117</ele>
        <time>2018-07-15T08:50:34Z</time>
      </trkpt>
      <trkpt lat="43.88792" lon="1.83995">
        <ele>117</ele>
        <time>2018-07-15T08:50:35Z</time>
      </trkpt>
      <trkpt lat="43.88791" lon="1.83986">
        <ele>117</ele>
        <time>2018-07-15T08:50:36Z</time>
      </trkpt>
      <trkpt lat="43.88789" lon="1.83978">
        <ele>117</ele>
        <time>2018-07-15T08:50:37Z</time>
      </trkpt>
      <trkpt lat="43.88787" lon="1.83969">
        <ele>117</ele>
        <time>2018-07-15T08:50:38Z</time>
      </trkpt>
      <trkpt lat="43.88785" lon="1.8396">
        <ele>117</ele>
        <time>2018-07-15T08:50:39Z</time>
      </trkpt>
      <trkpt lat="43.88783" lon="1.83952">
        <ele>117</ele>
        <time>2018-07-15T08:50:40Z</time>
      </trkpt>
      <trkpt lat="43.88781" lon="1.83943">
        <ele>117</ele>
        <time>2018-07-15T08:50:41Z</time>
      </trkpt>
      <trkpt lat="43.8878" lon="1.83934">
        <ele>117</ele>
        <time>2018-07-15T08:50:42Z</time>
      </trkpt>
      <trkpt lat="43.88778" lon="1.83925">
        <ele>117</ele>
        <time>2018-07-15T08:50:43Z</time>
      </trkpt>
      <trkpt lat="43.88776" lon="1.83916">
        <ele>117</ele>
        <time>2018-07-15T08:50:44Z</time>
      </trkpt>
      <trkpt lat="43.88775" lon="1.83907">
        <ele>117</ele>
        <time>2018-07-15T08:50:45Z</time>
      </trkpt>
      <trkpt lat="43.88773" lon="1.83898">
        <ele>117</ele>
        <time>2018-07-15T08:50:46Z</time>
      </trkpt>
      <trkpt lat="43.88772" lon="1.83889">
        <ele>117</ele>
        <time>2018-07-15T08:50:47Z</time>
      </trkpt>
      <trkpt lat="43.8877" lon="1.8388">
        <ele>117</ele>
        <time>2018-07-15T08:50:48Z</time>
      </trkpt>
      <trkpt lat="43.88768" lon="1.83871">
        <ele>117</ele>
        <time>2018-07-15T08:50:49Z</time>
      </trkpt>
      <trkpt lat="43.88766" lon="1.83862">
        <ele>117</ele>
        <time>2018-07-15T08:50:50Z</time>
      </trkpt>
      <trkpt lat="43.88764" lon="1.83853">
        <ele>117</ele>
        <time>2018-07-15T08:50:51Z</time>
      </trkpt>
      <trkpt lat="43.88763" lon="1.83843">
        <ele>117</ele>
        <time>2018-07-15T08:50:52Z</time>
      </trkpt>
      <trkpt lat="43.88761" lon="1.83833">
        <ele>117</ele>
        <time>2018-07-15T08:50:53Z</time>
      </trkpt>
      <trkpt lat="43.8876" lon="1.83823">
        <ele>116</ele>
        <time>2018-07-15T08:50:54Z</time>
      </trkpt>
      <trkpt lat="43.88759" lon="1.83813">
        <ele>116</ele>
        <time>2018-07-15T08:50:55Z</time>
      </trkpt>
      <trkpt lat="43.88757" lon="1.83803">
        <ele>116</ele>
        <time>2018-07-15T08:50:56Z</time>
      </trkpt>
      <trkpt lat="43.88756" lon="1.83794">
        <ele>116</ele>
        <time>2018-07-15T08:50:57Z</time>
      </trkpt>
      <trkpt lat="43.88755" lon="1.83784">
        <ele>117</ele>
        <time>2018-07-15T08:50:58Z</time>
      </trkpt>
      <trkpt lat="43.88754" lon="1.83775">
        <ele>117</ele>
        <time>2018-07-15T08:50:59Z</time>
      </trkpt>
      <trkpt lat="43.88752" lon="1.83765">
        <ele>117</ele>
        <time>2018-07-15T08:51:00Z</time>
      </trkpt>
      <trkpt lat="43.88751" lon="1.83756">
        <ele>117</ele>
        <time>2018-07-15T08:51:01Z</time>
      </trkpt>
      <trkpt lat="43.8875" lon="1.83747">
        <ele>117</ele>
        <time>2018-07-15T08:51:02Z</time>
      </trkpt>
      <trkpt lat="43.88748" lon="1.83738">
        <ele>117</ele>
        <time>2018-07-15T08:51:03Z</time>
      </trkpt>
      <trkpt lat="43.88748" lon="1.83729">
        <ele>117</ele>
        <time>2018-07-15T08:51:04Z</time>
      </trkpt>
      <trkpt lat="43.88747" lon="1.8372">
        <ele>117</ele>
        <time>2018-07-15T08:51:05Z</time>
      </trkpt>
      <trkpt lat="43.88746" lon="1.83711">
        <ele>117</ele>
        <time>2018-07-15T08:51:06Z</time>
      </trkpt>
      <trkpt lat="43.88746" lon="1.83703">
        <ele>117</ele>
        <time>2018-07-15T08:51:07Z</time>
      </trkpt>
      <trkpt lat="43.88746" lon="1.83695">
        <ele>117</ele>
        <time>2018-07-15T08:51:08Z</time>
      </trkpt>
      <trkpt lat="43.88746" lon="1.83686">
        <ele>117</ele>
        <time>2018-07-15T08:51:09Z</time>
      </trkpt>
      <trkpt lat="43.88746" lon="1.83676">
        <ele>117</ele>
        <time>2018-07-15T08:51:10Z</time>
      </trkpt>
      <trkpt lat="43.88745" lon="1.83667">
        <ele>117</ele>
        <time>2018-07-15T08:51:11Z</time>
      </trkpt>
      <trkpt lat="43.88746" lon="1.83658">
        <ele>117</ele>
        <time>2018-07-15T08:51:12Z</time>
      </trkpt>
      <trkpt lat="43.88745" lon="1.83648">
        <ele>117</ele>
        <time>2018-07-15T08:51:13Z</time>
      </trkpt>
      <trkpt lat="43.88745" lon="1.83639">
        <ele>117</ele>
        <time>2018-07-15T08:51:14Z</time>
      </trkpt>
      <trkpt lat="43.88745" lon="1.83629">
        <ele>117</ele>
        <time>2018-07-15T08:51:15Z</time>
      </trkpt>
      <trkpt lat="43.88745" lon="1.8362">
        <ele>117</ele>
        <time>2018-07-15T08:51:16Z</time>
      </trkpt>
      <trkpt lat="43.88746" lon="1.8361">
        <ele>117</ele>
        <time>2018-07-15T08:51:17Z</time>
      </trkpt>
      <trkpt lat="43.88746" lon="1.83601">
        <ele>117</ele>
        <time>2018-07-15T08:51:18Z</time>
      </trkpt>
      <trkpt lat="43.88747" lon="1.83592">
        <ele>117</ele>
        <time>2018-07-15T08:51:19Z</time>
      </trkpt>
      <trkpt lat="43.88748" lon="1.83583">
        <ele>117</ele>
        <time>2018-07-15T08:51:20Z</time>
      </trkpt>
      <trkpt lat="43.88748" lon="1.83573">
        <ele>117</ele>
        <time>2018-07-15T08:51:21Z</time>
      </trkpt>
      <trkpt lat="43.88749" lon="1.83564">
        <ele>117</ele>
        <time>2018-07-15T08:51:22Z</time>
      </trkpt>
      <trkpt lat="43.8875" lon="1.83555">
        <ele>117</ele>
        <time>2018-07-15T08:51:23Z</time>
      </trkpt>
      <trkpt lat="43.8875" lon="1.83545">
        <ele>117</ele>
        <time>2018-07-15T08:51:24Z</time>
      </trkpt>
      <trkpt lat="43.88751" lon="1.83536">
        <ele>117</ele>
        <time>2018-07-15T08:51:25Z</time>
      </trkpt>
      <trkpt lat="43.88751" lon="1.83526">
        <ele>117</ele>
        <time>2018-07-15T08:51:26Z</time>
      </trkpt>
      <trkpt lat="43.88751" lon="1.83516">
        <ele>116</ele>
        <time>2018-07-15T08:51:27Z</time>
      </trkpt>
      <trkpt lat="43.88752" lon="1.83507">
        <ele>116</ele>
        <time>2018-07-15T08:51:28Z</time>
      </trkpt>
      <trkpt lat="43.88752" lon="1.83497">
        <ele>116</ele>
        <time>2018-07-15T08:51:29Z</time>
      </trkpt>
      <trkpt lat="43.88752" lon="1.83489">
        <ele>117</ele>
        <time>2018-07-15T08:51:30Z</time>
      </trkpt>
      <trkpt lat="43.88752" lon="1.83479">
        <ele>117</ele>
        <time>2018-07-15T08:51:31Z</time>
      </trkpt>
      <trkpt lat="43.88751" lon="1.8347">
        <ele>116</ele>
        <time>2018-07-15T08:51:32Z</time>
      </trkpt>
      <trkpt lat="43.88751" lon="1.83461">
        <ele>117</ele>
        <time>2018-07-15T08:51:33Z</time>
      </trkpt>
      <trkpt lat="43.8875" lon="1.83453">
        <ele>117</ele>
        <time>2018-07-15T08:51:34Z</time>
      </trkpt>
      <trkpt lat="43.88749" lon="1.83445">
        <ele>117</ele>
        <time>2018-07-15T08:51:35Z</time>
      </trkpt>
      <trkpt lat="43.88748" lon="1.83436">
        <ele>117</ele>
        <time>2018-07-15T08:51:36Z</time>
      </trkpt>
      <trkpt lat="43.88747" lon="1.83427">
        <ele>117</ele>
        <time>2018-07-15T08:51:37Z</time>
      </trkpt>
      <trkpt lat="43.88746" lon="1.83419">
        <ele>117</ele>
        <time>2018-07-15T08:51:38Z</time>
      </trkpt>
      <trkpt lat="43.88745" lon="1.8341">
        <ele>117</ele>
        <time>2018-07-15T08:51:39Z</time>
      </trkpt>
      <trkpt lat="43.88745" lon="1.83401">
        <ele>117</ele>
        <time>2018-07-15T08:51:40Z</time>
      </trkpt>
      <trkpt lat="43.88744" lon="1.83392">
        <ele>117</ele>
        <time>2018-07-15T08:51:41Z</time>
      </trkpt>
      <trkpt lat="43.88743" lon="1.83383">
        <ele>117</ele>
        <time>2018-07-15T08:51:42Z</time>
      </trkpt>
      <trkpt lat="43.88743" lon="1.83375">
        <ele>117</ele>
        <time>2018-07-15T08:51:43Z</time>
      </trkpt>
      <trkpt lat="43.88743" lon="1.83366">
        <ele>117</ele>
        <time>2018-07-15T08:51:44Z</time>
      </trkpt>
      <trkpt lat="43.88742" lon="1.83356">
        <ele>117</ele>
        <time>2018-07-15T08:51:45Z</time>
      </trkpt>
      <trkpt lat="43.88742" lon="1.83348">
        <ele>117</ele>
        <time>2018-07-15T08:51:46Z</time>
      </trkpt>
      <trkpt lat="43.88742" lon="1.83338">
        <ele>117</ele>
        <time>2018-07-15T08:51:47Z</time>
      </trkpt>
      <trkpt lat="43.88742" lon="1.83329">
        <ele>116</ele>
        <time>2018-07-15T08:51:48Z</time>
      </trkpt>
      <trkpt lat="43.88742" lon="1.83321">
        <ele>116</ele>
        <time>2018-07-15T08:51:49Z</time>
      </trkpt>
      <trkpt lat="43.88742" lon="1.83312">
        <ele>117</ele>
        <time>2018-07-15T08:51:50Z</time>
      </trkpt>
      <trkpt lat="43.88742" lon="1.83303">
        <ele>117</ele>
        <time>2018-07-15T08:51:51Z</time>
      </trkpt>
      <trkpt lat="43.88742" lon="1.83294">
        <ele>117</ele>
        <time>2018-07-15T08:51:52Z</time>
      </trkpt>
      <trkpt lat="43.88742" lon="1.83285">
        <ele>117</ele>
        <time>2018-07-15T08:51:53Z</time>
      </trkpt>
      <trkpt lat="43.88742" lon="1.83275">
        <ele>117</ele>
        <time>2018-07-15T08:51:54Z</time>
      </trkpt>
      <trkpt lat="43.88743" lon="1.83266">
        <ele>116</ele>
        <time>2018-07-15T08:51:55Z</time>
      </trkpt>
      <trkpt lat="43.88743" lon="1.83257">
        <ele>116</ele>
        <time>2018-07-15T08:51:56Z</time>
      </trkpt>
      <trkpt lat="43.88743" lon="1.83247">
        <ele>116</ele>
        <time>2018-07-15T08:51:57Z</time>
      </trkpt>
      <trkpt lat="43.88743" lon="1.83238">
        <ele>116</ele>
        <time>2018-07-15T08:51:58Z</time>
      </trkpt>
      <trkpt lat="43.88743" lon="1.83229">
        <ele>116</ele>
        <time>2018-07-15T08:51:59Z</time>
      </trkpt>
      <trkpt lat="43.88744" lon="1.8322">
        <ele>116</ele>
        <time>2018-07-15T08:52:00Z</time>
      </trkpt>
      <trkpt lat="43.88745" lon="1.83212">
        <ele>117</ele>
        <time>2018-07-15T08:52:01Z</time>
      </trkpt>
      <trkpt lat="43.88746" lon="1.83203">
        <ele>117</ele>
        <time>2018-07-15T08:52:02Z</time>
      </trkpt>
      <trkpt lat="43.88747" lon="1.83194">
        <ele>117</ele>
        <time>2018-07-15T08:52:03Z</time>
      </trkpt>
      <trkpt lat="43.88748" lon="1.83186">
        <ele>117</ele>
        <time>2018-07-15T08:52:04Z</time>
      </trkpt>
      <trkpt lat="43.88749" lon="1.83176">
        <ele>117</ele>
        <time>2018-07-15T08:52:05Z</time>
      </trkpt>
      <trkpt lat="43.8875" lon="1.83167">
        <ele>117</ele>
        <time>2018-07-15T08:52:06Z</time>
      </trkpt>
      <trkpt lat="43.88752" lon="1.83157">
        <ele>117</ele>
        <time>2018-07-15T08:52:07Z</time>
      </trkpt>
      <trkpt lat="43.88753" lon="1.83148">
        <ele>117</ele>
        <time>2018-07-15T08:52:08Z</time>
      </trkpt>
      <trkpt lat="43.88755" lon="1.83138">
        <ele>117</ele>
        <time>2018-07-15T08:52:09Z</time>
      </trkpt>
      <trkpt lat="43.88756" lon="1.83128">
        <ele>117</ele>
        <time>2018-07-15T08:52:10Z</time>
      </trkpt>
      <trkpt lat="43.88757" lon="1.8312">
        <ele>117</ele>
        <time>2018-07-15T08:52:11Z</time>
      </trkpt>
      <trkpt lat="43.88759" lon="1.83111">
        <ele>117</ele>
        <time>2018-07-15T08:52:12Z</time>
      </trkpt>
      <trkpt lat="43.88759" lon="1.83104">
        <ele>117</ele>
        <time>2018-07-15T08:52:13Z</time>
      </trkpt>
      <trkpt lat="43.88761" lon="1.83096">
        <ele>117</ele>
        <time>2018-07-15T08:52:14Z</time>
      </trkpt>
      <trkpt lat="43.88763" lon="1.83087">
        <ele>117</ele>
        <time>2018-07-15T08:52:15Z</time>
      </trkpt>
      <trkpt lat="43.88765" lon="1.83078">
        <ele>117</ele>
        <time>2018-07-15T08:52:16Z</time>
      </trkpt>
      <trkpt lat="43.88766" lon="1.83069">
        <ele>117</ele>
        <time>2018-07-15T08:52:17Z</time>
      </trkpt>
      <trkpt lat="43.88769" lon="1.83059">
        <ele>117</ele>
        <time>2018-07-15T08:52:18Z</time>
      </trkpt>
      <trkpt lat="43.8877" lon="1.8305">
        <ele>117</ele>
        <time>2018-07-15T08:52:19Z</time>
      </trkpt>
      <trkpt lat="43.88772" lon="1.8304">
        <ele>117</ele>
        <time>2018-07-15T08:52:20Z</time>
      </trkpt>
      <trkpt lat="43.88774" lon="1.83031">
        <ele>117</ele>
        <time>2018-07-15T08:52:21Z</time>
      </trkpt>
      <trkpt lat="43.88775" lon="1.83022">
        <ele>117</ele>
        <time>2018-07-15T08:52:22Z</time>
      </trkpt>
      <trkpt lat="43.88777" lon="1.83013">
        <ele>117</ele>
        <time>2018-07-15T08:52:23Z</time>
      </trkpt>
      <trkpt lat="43.88779" lon="1.83004">
        <ele>117</ele>
        <time>2018-07-15T08:52:24Z</time>
      </trkpt>
      <trkpt lat="43.8878" lon="1.82996">
        <ele>117</ele>
        <time>2018-07-15T08:52:25Z</time>
      </trkpt>
      <trkpt lat="43.88781" lon="1.82987">
        <ele>117</ele>
        <time>2018-07-15T08:52:26Z</time>
      </trkpt>
      <trkpt lat="43.88783" lon="1.82978">
        <ele>117</ele>
        <time>2018-07-15T08:52:27Z</time>
      </trkpt>
      <trkpt lat="43.88784" lon="1.82969">
        <ele>117</ele>
        <time>2018-07-15T08:52:28Z</time>
      </trkpt>
      <trkpt lat="43.88785" lon="1.8296">
        <ele>117</ele>
        <time>2018-07-15T08:52:29Z</time>
      </trkpt>
      <trkpt lat="43.88786" lon="1.82951">
        <ele>117</ele>
        <time>2018-07-15T08:52:30Z</time>
      </trkpt>
      <trkpt lat="43.88787" lon="1.82942">
        <ele>117</ele>
        <time>2018-07-15T08:52:31Z</time>
      </trkpt>
      <trkpt lat="43.88788" lon="1.82933">
        <ele>117</ele>
        <time>2018-07-15T08:52:32Z</time>
      </trkpt>
      <trkpt lat="43.88789" lon="1.82924">
        <ele>117</ele>
        <time>2018-07-15T08:52:33Z</time>
      </trkpt>
      <trkpt lat="43.88789" lon="1.82915">
        <ele>117</ele>
        <time>2018-07-15T08:52:34Z</time>
      </trkpt>
      <trkpt lat="43.88789" lon="1.82906">
        <ele>118</ele>
        <time>2018-07-15T08:52:35Z</time>
      </trkpt>
      <trkpt lat="43.88789" lon="1.82898">
        <ele>118</ele>
        <time>2018-07-15T08:52:36Z</time>
      </trkpt>
      <trkpt lat="43.88788" lon="1.82889">
        <ele>117</ele>
        <time>2018-07-15T08:52:37Z</time>
      </trkpt>
      <trkpt lat="43.88788" lon="1.8288">
        <ele>117</ele>
        <time>2018-07-15T08:52:38Z</time>
      </trkpt>
      <trkpt lat="43.88787" lon="1.82871">
        <ele>117</ele>
        <time>2018-07-15T08:52:39Z</time>
      </trkpt>
      <trkpt lat="43.88787" lon="1.82862">
        <ele>118</ele>
        <time>2018-07-15T08:52:40Z</time>
      </trkpt>
      <trkpt lat="43.88786" lon="1.82853">
        <ele>117</ele>
        <time>2018-07-15T08:52:41Z</time>
      </trkpt>
      <trkpt lat="43.88786" lon="1.82844">
        <ele>118</ele>
        <time>2018-07-15T08:52:42Z</time>
      </trkpt>
      <trkpt lat="43.88785" lon="1.82835">
        <ele>118</ele>
        <time>2018-07-15T08:52:43Z</time>
      </trkpt>
      <trkpt lat="43.88785" lon="1.82826">
        <ele>118</ele>
        <time>2018-07-15T08:52:44Z</time>
      </trkpt>
      <trkpt lat="43.88784" lon="1.82817">
        <ele>118</ele>
        <time>2018-07-15T08:52:45Z</time>
      </trkpt>
      <trkpt lat="43.88784" lon="1.82808">
        <ele>118</ele>
        <time>2018-07-15T08:52:46Z</time>
      </trkpt>
      <trkpt lat="43.88783" lon="1.82799">
        <ele>118</ele>
        <time>2018-07-15T08:52:47Z</time>
      </trkpt>
      <trkpt lat="43.88782" lon="1.8279">
        <ele>118</ele>
        <time>2018-07-15T08:52:48Z</time>
      </trkpt>
      <trkpt lat="43.88781" lon="1.82781">
        <ele>118</ele>
        <time>2018-07-15T08:52:49Z</time>
      </trkpt>
      <trkpt lat="43.88781" lon="1.82773">
        <ele>118</ele>
        <time>2018-07-15T08:52:50Z</time>
      </trkpt>
      <trkpt lat="43.8878" lon="1.82764">
        <ele>118</ele>
        <time>2018-07-15T08:52:51Z</time>
      </trkpt>
      <trkpt lat="43.88779" lon="1.82755">
        <ele>118</ele>
        <time>2018-07-15T08:52:52Z</time>
      </trkpt>
      <trkpt lat="43.88778" lon="1.82747">
        <ele>118</ele>
        <time>2018-07-15T08:52:53Z</time>
      </trkpt>
      <trkpt lat="43.88777" lon="1.82738">
        <ele>118</ele>
        <time>2018-07-15T08:52:54Z</time>
      </trkpt>
      <trkpt lat="43.88776" lon="1.82729">
        <ele>118</ele>
        <time>2018-07-15T08:52:55Z</time>
      </trkpt>
      <trkpt lat="43.88775" lon="1.8272">
        <ele>118</ele>
        <time>2018-07-15T08:52:56Z</time>
      </trkpt>
      <trkpt lat="43.88774" lon="1.82711">
        <ele>118</ele>
        <time>2018-07-15T08:52:57Z</time>
      </trkpt>
      <trkpt lat="43.88773" lon="1.82702">
        <ele>118</ele>
        <time>2018-07-15T08:52:58Z</time>
      </trkpt>
      <trkpt lat="43.88772" lon="1.82694">
        <ele>118</ele>
        <time>2018-07-15T08:52:59Z</time>
      </trkpt>
      <trkpt lat="43.88771" lon="1.82685">
        <ele>118</ele>
        <time>2018-07-15T08:53:00Z</time>
      </trkpt>
      <trkpt lat="43.8877" lon="1.82676">
        <ele>118</ele>
        <time>2018-07-15T08:53:01Z</time>
      </trkpt>
      <trkpt lat="43.88769" lon="1.82667">
        <ele>118</ele>
        <time>2018-07-15T08:53:02Z</time>
      </trkpt>
      <trkpt lat="43.88768" lon="1.82658">
        <ele>118</ele>
        <time>2018-07-15T08:53:03Z</time>
      </trkpt>
      <trkpt lat="43.88767" lon="1.8265">
        <ele>118</ele>
        <time>2018-07-15T08:53:04Z</time>
      </trkpt>
      <trkpt lat="43.88766" lon="1.82641">
        <ele>119</ele>
        <time>2018-07-15T08:53:05Z</time>
      </trkpt>
      <trkpt lat="43.88765" lon="1.82632">
        <ele>119</ele>
        <time>2018-07-15T08:53:06Z</time>
      </trkpt>
      <trkpt lat="43.88764" lon="1.82623">
        <ele>119</ele>
        <time>2018-07-15T08:53:07Z</time>
      </trkpt>
      <trkpt lat="43.88763" lon="1.82614">
        <ele>118</ele>
        <time>2018-07-15T08:53:08Z</time>
      </trkpt>
      <trkpt lat="43.88762" lon="1.82606">
        <ele>118</ele>
        <time>2018-07-15T08:53:09Z</time>
      </trkpt>
      <trkpt lat="43.88761" lon="1.82597">
        <ele>118</ele>
        <time>2018-07-15T08:53:10Z</time>
      </trkpt>
      <trkpt lat="43.8876" lon="1.82589">
        <ele>119</ele>
        <time>2018-07-15T08:53:11Z</time>
      </trkpt>
      <trkpt lat="43.88759" lon="1.8258">
        <ele>119</ele>
        <time>2018-07-15T08:53:12Z</time>
      </trkpt>
      <trkpt lat="43.88758" lon="1.82571">
        <ele>119</ele>
        <time>2018-07-15T08:53:13Z</time>
      </trkpt>
      <trkpt lat="43.88756" lon="1.82563">
        <ele>119</ele>
        <time>2018-07-15T08:53:14Z</time>
      </trkpt>
      <trkpt lat="43.88755" lon="1.82554">
        <ele>119</ele>
        <time>2018-07-15T08:53:15Z</time>
      </trkpt>
      <trkpt lat="43.88754" lon="1.82546">
        <ele>119</ele>
        <time>2018-07-15T08:53:16Z</time>
      </trkpt>
      <trkpt lat="43.88753" lon="1.82537">
        <ele>119</ele>
        <time>2018-07-15T08:53:17Z</time>
      </trkpt>
      <trkpt lat="43.88752" lon="1.82528">
        <ele>119</ele>
        <time>2018-07-15T08:53:18Z</time>
      </trkpt>
      <trkpt lat="43.88751" lon="1.82519">
        <ele>119</ele>
        <time>2018-07-15T08:53:19Z</time>
      </trkpt>
      <trkpt lat="43.8875" lon="1.8251">
        <ele>119</ele>
        <time>2018-07-15T08:53:20Z</time>
      </trkpt>
      <trkpt lat="43.88749" lon="1.82502">
        <ele>119</ele>
        <time>2018-07-15T08:53:21Z</time>
      </trkpt>
      <trkpt lat="43.88748" lon="1.82493">
        <ele>119</ele>
        <time>2018-07-15T08:53:22Z</time>
      </trkpt>
      <trkpt lat="43.88747" lon="1.82485">
        <ele>119</ele>
        <time>2018-07-15T08:53:23Z</time>
      </trkpt>
      <trkpt lat="43.88746" lon="1.82476">
        <ele>119</ele>
        <time>2018-07-15T08:53:24Z</time>
      </trkpt>
      <trkpt lat="43.88745" lon="1.82467">
        <ele>120</ele>
        <time>2018-07-15T08:53:25Z</time>
      </trkpt>
      <trkpt lat="43.88744" lon="1.82458">
        <ele>120</ele>
        <time>2018-07-15T08:53:26Z</time>
      </trkpt>
      <trkpt lat="43.88742" lon="1.82449">
        <ele>120</ele>
        <time>2018-07-15T08:53:27Z</time>
      </trkpt>
      <trkpt lat="43.88742" lon="1.8244">
        <ele>120</ele>
        <time>2018-07-15T08:53:28Z</time>
      </trkpt>
      <trkpt lat="43.88741" lon="1.82432">
        <ele>119</ele>
        <time>2018-07-15T08:53:29Z</time>
      </trkpt>
      <trkpt lat="43.8874" lon="1.82423">
        <ele>120</ele>
        <time>2018-07-15T08:53:30Z</time>
      </trkpt>
      <trkpt lat="43.88739" lon="1.82414">
        <ele>120</ele>
        <time>2018-07-15T08:53:31Z</time>
      </trkpt>
      <trkpt lat="43.88738" lon="1.82406">
        <ele>120</ele>
        <time>2018-07-15T08:53:32Z</time>
      </trkpt>
      <trkpt lat="43.88738" lon="1.82397">
        <ele>120</ele>
        <time>2018-07-15T08:53:33Z</time>
      </trkpt>
      <trkpt lat="43.88737" lon="1.82389">
        <ele>120</ele>
        <time>2018-07-15T08:53:34Z</time>
      </trkpt>
      <trkpt lat="43.88736" lon="1.8238">
        <ele>120</ele>
        <time>2018-07-15T08:53:35Z</time>
      </trkpt>
      <trkpt lat="43.88736" lon="1.82371">
        <ele>120</ele>
        <time>2018-07-15T08:53:36Z</time>
      </trkpt>
      <trkpt lat="43.88735" lon="1.82362">
        <ele>120</ele>
        <time>2018-07-15T08:53:37Z</time>
      </trkpt>
      <trkpt lat="43.88734" lon="1.82354">
        <ele>120</ele>
        <time>2018-07-15T08:53:38Z</time>
      </trkpt>
      <trkpt lat="43.88733" lon="1.82345">
        <ele>120</ele>
        <time>2018-07-15T08:53:39Z</time>
      </trkpt>
      <trkpt lat="43.88733" lon="1.82337">
        <ele>121</ele>
        <time>2018-07-15T08:53:40Z</time>
      </trkpt>
      <trkpt lat="43.88732" lon="1.82328">
        <ele>121</ele>
        <time>2018-07-15T08:53:41Z</time>
      </trkpt>
      <trkpt lat="43.88732" lon="1.82319">
        <ele>120</ele>
        <time>2018-07-15T08:53:42Z</time>
      </trkpt>
      <trkpt lat="43.88732" lon="1.8231">
        <ele>120</ele>
        <time>2018-07-15T08:53:43Z</time>
      </trkpt>
      <trkpt lat="43.88731" lon="1.82301">
        <ele>121</ele>
        <time>2018-07-15T08:53:44Z</time>
      </trkpt>
      <trkpt lat="43.88731" lon="1.82293">
        <ele>121</ele>
        <time>2018-07-15T08:53:45Z</time>
      </trkpt>
      <trkpt lat="43.88731" lon="1.82284">
        <ele>121</ele>
        <time>2018-07-15T08:53:46Z</time>
      </trkpt>
      <trkpt lat="43.88731" lon="1.82275">
        <ele>121</ele>
        <time>2018-07-15T08:53:47Z</time>
      </trkpt>
      <trkpt lat="43.88731" lon="1.82266">
        <ele>121</ele>
        <time>2018-07-15T08:53:48Z</time>
      </trkpt>
      <trkpt lat="43.88731" lon="1.82258">
        <ele>121</ele>
        <time>2018-07-15T08:53:49Z</time>
      </trkpt>
      <trkpt lat="43.88731" lon="1.82249">
        <ele>121</ele>
        <time>2018-07-15T08:53:50Z</time>
      </trkpt>
      <trkpt lat="43.88732" lon="1.82241">
        <ele>121</ele>
        <time>2018-07-15T08:53:51Z</time>
      </trkpt>
      <trkpt lat="43.88733" lon="1.82232">
        <ele>121</ele>
        <time>2018-07-15T08:53:52Z</time>
      </trkpt>
      <trkpt lat="43.88734" lon="1.82224">
        <ele>121</ele>
        <time>2018-07-15T08:53:53Z</time>
      </trkpt>
      <trkpt lat="43.88735" lon="1.82216">
        <ele>121</ele>
        <time>2018-07-15T08:53:54Z</time>
      </trkpt>
      <trkpt lat="43.88736" lon="1.82208">
        <ele>122</ele>
        <time>2018-07-15T08:53:55Z</time>
      </trkpt>
      <trkpt lat="43.88737" lon="1.82199">
        <ele>121</ele>
        <time>2018-07-15T08:53:56Z</time>
      </trkpt>
      <trkpt lat="43.88739" lon="1.82191">
        <ele>122</ele>
        <time>2018-07-15T08:53:57Z</time>
      </trkpt>
      <trkpt lat="43.8874" lon="1.82183">
        <ele>122</ele>
        <time>2018-07-15T08:53:58Z</time>
      </trkpt>
      <trkpt lat="43.88741" lon="1.82175">
        <ele>122</ele>
        <time>2018-07-15T08:53:59Z</time>
      </trkpt>
      <trkpt lat="43.88743" lon="1.82167">
        <ele>122</ele>
        <time>2018-07-15T08:54:00Z</time>
      </trkpt>
      <trkpt lat="43.88744" lon="1.82159">
        <ele>122</ele>
        <time>2018-07-15T08:54:01Z</time>
      </trkpt>
      <trkpt lat="43.88745" lon="1.82151">
        <ele>123</ele>
        <time>2018-07-15T08:54:02Z</time>
      </trkpt>
      <trkpt lat="43.88747" lon="1.82142">
        <ele>123</ele>
        <time>2018-07-15T08:54:03Z</time>
      </trkpt>
      <trkpt lat="43.88748" lon="1.82134">
        <ele>123</ele>
        <time>2018-07-15T08:54:04Z</time>
      </trkpt>
      <trkpt lat="43.8875" lon="1.82126">
        <ele>123</ele>
        <time>2018-07-15T08:54:05Z</time>
      </trkpt>
      <trkpt lat="43.88752" lon="1.82119">
        <ele>123</ele>
        <time>2018-07-15T08:54:06Z</time>
      </trkpt>
      <trkpt lat="43.88753" lon="1.82111">
        <ele>123</ele>
        <time>2018-07-15T08:54:07Z</time>
      </trkpt>
      <trkpt lat="43.88755" lon="1.82103">
        <ele>123</ele>
        <time>2018-07-15T08:54:08Z</time>
      </trkpt>
      <trkpt lat="43.88756" lon="1.82095">
        <ele>123</ele>
        <time>2018-07-15T08:54:09Z</time>
      </trkpt>
      <trkpt lat="43.88757" lon="1.82087">
        <ele>123</ele>
        <time>2018-07-15T08:54:10Z</time>
      </trkpt>
      <trkpt lat="43.88759" lon="1.8208">
        <ele>123</ele>
        <time>2018-07-15T08:54:11Z</time>
      </trkpt>
      <trkpt lat="43.8876" lon="1.82072">
        <ele>123</ele>
        <time>2018-07-15T08:54:12Z</time>
      </trkpt>
      <trkpt lat="43.88761" lon="1.82064">
        <ele>123</ele>
        <time>2018-07-15T08:54:13Z</time>
      </trkpt>
      <trkpt lat="43.88761" lon="1.82056">
        <ele>123</ele>
        <time>2018-07-15T08:54:14Z</time>
      </trkpt>
      <trkpt lat="43.88762" lon="1.82048">
        <ele>123</ele>
        <time>2018-07-15T08:54:15Z</time>
      </trkpt>
      <trkpt lat="43.88763" lon="1.8204">
        <ele>123</ele>
        <time>2018-07-15T08:54:16Z</time>
      </trkpt>
      <trkpt lat="43.88763" lon="1.82031">
        <ele>124</ele>
        <time>2018-07-15T08:54:17Z</time>
      </trkpt>
      <trkpt lat="43.88764" lon="1.82023">
        <ele>123</ele>
        <time>2018-07-15T08:54:18Z</time>
      </trkpt>
      <trkpt lat="43.88764" lon="1.82015">
        <ele>123</ele>
        <time>2018-07-15T08:54:19Z</time>
      </trkpt>
      <trkpt lat="43.88764" lon="1.82007">
        <ele>123</ele>
        <time>2018-07-15T08:54:20Z</time>
      </trkpt>
      <trkpt lat="43.88764" lon="1.81999">
        <ele>123</ele>
        <time>2018-07-15T08:54:21Z</time>
      </trkpt>
      <trkpt lat="43.88764" lon="1.81991">
        <ele>123</ele>
        <time>2018-07-15T08:54:22Z</time>
      </trkpt>
      <trkpt lat="43.88764" lon="1.81983">
        <ele>123</ele>
        <time>2018-07-15T08:54:23Z</time>
      </trkpt>
      <trkpt lat="43.88765" lon="1.81974">
        <ele>123</ele>
        <time>2018-07-15T08:54:24Z</time>
      </trkpt>
      <trkpt lat="43.88765" lon="1.81966">
        <ele>123</ele>
        <time>2018-07-15T08:54:25Z</time>
      </trkpt>
      <trkpt lat="43.88767" lon="1.81958">
        <ele>124</ele>
        <time>2018-07-15T08:54:26Z</time>
      </trkpt>
      <trkpt lat="43.88768" lon="1.81951">
        <ele>124</ele>
        <time>2018-07-15T08:54:27Z</time>
      </trkpt>
      <trkpt lat="43.88768" lon="1.81943">
        <ele>124</ele>
        <time>2018-07-15T08:54:28Z</time>
      </trkpt>
      <trkpt lat="43.88768" lon="1.81935">
        <ele>124</ele>
        <time>2018-07-15T08:54:29Z</time>
      </trkpt>
      <trkpt lat="43.88766" lon="1.81928">
        <ele>124</ele>
        <time>2018-07-15T08:54:30Z</time>
      </trkpt>
      <trkpt lat="43.88765" lon="1.8192">
        <ele>124</ele>
        <time>2018-07-15T08:54:31Z</time>
      </trkpt>
      <trkpt lat="43.88763" lon="1.81913">
        <ele>124</ele>
        <time>2018-07-15T08:54:32Z</time>
      </trkpt>
      <trkpt lat="43.88761" lon="1.81905">
        <ele>124</ele>
        <time>2018-07-15T08:54:33Z</time>
      </trkpt>
      <trkpt lat="43.8876" lon="1.81897">
        <ele>124</ele>
        <time>2018-07-15T08:54:34Z</time>
      </trkpt>
      <trkpt lat="43.88759" lon="1.81889">
        <ele>124</ele>
        <time>2018-07-15T08:54:35Z</time>
      </trkpt>
      <trkpt lat="43.88757" lon="1.81881">
        <ele>124</ele>
        <time>2018-07-15T08:54:36Z</time>
      </trkpt>
      <trkpt lat="43.88755" lon="1.81873">
        <ele>124</ele>
        <time>2018-07-15T08:54:37Z</time>
      </trkpt>
      <trkpt lat="43.88754" lon="1.81865">
        <ele>124</ele>
        <time>2018-07-15T08:54:38Z</time>
      </trkpt>
      <trkpt lat="43.88752" lon="1.81857">
        <ele>125</ele>
        <time>2018-07-15T08:54:39Z</time>
      </trkpt>
      <trkpt lat="43.88751" lon="1.81849">
        <ele>125</ele>
        <time>2018-07-15T08:54:40Z</time>
      </trkpt>
      <trkpt lat="43.88749" lon="1.81841">
        <ele>125</ele>
        <time>2018-07-15T08:54:41Z</time>
      </trkpt>
      <trkpt lat="43.88747" lon="1.81833">
        <ele>125</ele>
        <time>2018-07-15T08:54:42Z</time>
      </trkpt>
      <trkpt lat="43.88746" lon="1.81825">
        <ele>125</ele>
        <time>2018-07-15T08:54:43Z</time>
      </trkpt>
      <trkpt lat="43.88744" lon="1.81817">
        <ele>125</ele>
        <time>2018-07-15T08:54:44Z</time>
      </trkpt>
      <trkpt lat="43.88742" lon="1.81809">
        <ele>125</ele>
        <time>2018-07-15T08:54:45Z</time>
      </trkpt>
      <trkpt lat="43.88741" lon="1.81801">
        <ele>125</ele>
        <time>2018-07-15T08:54:46Z</time>
      </trkpt>
      <trkpt lat="43.88739" lon="1.81794">
        <ele>125</ele>
        <time>2018-07-15T08:54:47Z</time>
      </trkpt>
      <trkpt lat="43.88737" lon="1.81786">
        <ele>125</ele>
        <time>2018-07-15T08:54:48Z</time>
      </trkpt>
      <trkpt lat="43.88736" lon="1.81778">
        <ele>125</ele>
        <time>2018-07-15T08:54:49Z</time>
      </trkpt>
      <trkpt lat="43.88735" lon="1.8177">
        <ele>126</ele>
        <time>2018-07-15T08:54:50Z</time>
      </trkpt>
      <trkpt lat="43.88733" lon="1.81762">
        <ele>126</ele>
        <time>2018-07-15T08:54:51Z</time>
      </trkpt>
      <trkpt lat="43.88732" lon="1.81754">
        <ele>126</ele>
        <time>2018-07-15T08:54:52Z</time>
      </trkpt>
      <trkpt lat="43.8873" lon="1.81746">
        <ele>126</ele>
        <time>2018-07-15T08:54:53Z</time>
      </trkpt>
      <trkpt lat="43.88729" lon="1.81739">
        <ele>126</ele>
        <time>2018-07-15T08:54:54Z</time>
      </trkpt>
      <trkpt lat="43.88727" lon="1.81731">
        <ele>126</ele>
        <time>2018-07-15T08:54:55Z</time>
      </trkpt>
      <trkpt lat="43.88725" lon="1.81724">
        <ele>126</ele>
        <time>2018-07-15T08:54:56Z</time>
      </trkpt>
      <trkpt lat="43.88724" lon="1.81717">
        <ele>126</ele>
        <time>2018-07-15T08:54:57Z</time>
      </trkpt>
      <trkpt lat="43.88722" lon="1.81709">
        <ele>126</ele>
        <time>2018-07-15T08:54:58Z</time>
      </trkpt>
      <trkpt lat="43.8872" lon="1.81701">
        <ele>126</ele>
        <time>2018-07-15T08:54:59Z</time>
      </trkpt>
      <trkpt lat="43.88718" lon="1.81694">
        <ele>126</ele>
        <time>2018-07-15T08:55:00Z</time>
      </trkpt>
      <trkpt lat="43.88716" lon="1.81686">
        <ele>126</ele>
        <time>2018-07-15T08:55:01Z</time>
      </trkpt>
      <trkpt lat="43.88714" lon="1.81679">
        <ele>126</ele>
        <time>2018-07-15T08:55:02Z</time>
      </trkpt>
      <trkpt lat="43.88712" lon="1.81671">
        <ele>126</ele>
        <time>2018-07-15T08:55:03Z</time>
      </trkpt>
      <trkpt lat="43.8871" lon="1.81663">
        <ele>126</ele>
        <time>2018-07-15T08:55:04Z</time>
      </trkpt>
      <trkpt lat="43.88708" lon="1.81655">
        <ele>126</ele>
        <time>2018-07-15T08:55:05Z</time>
      </trkpt>
      <trkpt lat="43.88706" lon="1.81647">
        <ele>127</ele>
        <time>2018-07-15T08:55:06Z</time>
      </trkpt>
      <trkpt lat="43.88704" lon="1.8164">
        <ele>127</ele>
        <time>2018-07-15T08:55:07Z</time>
      </trkpt>
      <trkpt lat="43.88702" lon="1.81632">
        <ele>127</ele>
        <time>2018-07-15T08:55:08Z</time>
      </trkpt>
      <trkpt lat="43.88699" lon="1.81624">
        <ele>127</ele>
        <time>2018-07-15T08:55:09Z</time>
      </trkpt>
      <trkpt lat="43.88697" lon="1.81616">
        <ele>127</ele>
        <time>2018-07-15T08:55:10Z</time>
      </trkpt>
      <trkpt lat="43.88695" lon="1.81609">
        <ele>127</ele>
        <time>2018-07-15T08:55:11Z</time>
      </trkpt>
      <trkpt lat="43.88693" lon="1.81601">
        <ele>127</ele>
        <time>2018-07-15T08:55:12Z</time>
      </trkpt>
      <trkpt lat="43.88691" lon="1.81594">
        <ele>127</ele>
        <time>2018-07-15T08:55:13Z</time>
      </trkpt>
      <trkpt lat="43.88689" lon="1.81586">
        <ele>127</ele>
        <time>2018-07-15T08:55:14Z</time>
      </trkpt>
      <trkpt lat="43.88688" lon="1.81579">
        <ele>127</ele>
        <time>2018-07-15T08:55:15Z</time>
      </trkpt>
      <trkpt lat="43.88686" lon="1.81571">
        <ele>127</ele>
        <time>2018-07-15T08:55:16Z</time>
      </trkpt>
      <trkpt lat="43.88684" lon="1.81563">
        <ele>128</ele>
        <time>2018-07-15T08:55:17Z</time>
      </trkpt>
      <trkpt lat="43.88682" lon="1.81556">
        <ele>128</ele>
        <time>2018-07-15T08:55:18Z</time>
      </trkpt>
      <trkpt lat="43.8868" lon="1.81548">
        <ele>128</ele>
        <time>2018-07-15T08:55:19Z</time>
      </trkpt>
      <trkpt lat="43.88678" lon="1.8154">
        <ele>128</ele>
        <time>2018-07-15T08:55:20Z</time>
      </trkpt>
      <trkpt lat="43.88676" lon="1.81532">
        <ele>128</ele>
        <time>2018-07-15T08:55:21Z</time>
      </trkpt>
      <trkpt lat="43.88674" lon="1.81524">
        <ele>128</ele>
        <time>2018-07-15T08:55:22Z</time>
      </trkpt>
      <trkpt lat="43.88671" lon="1.81517">
        <ele>128</ele>
        <time>2018-07-15T08:55:23Z</time>
      </trkpt>
      <trkpt lat="43.88669" lon="1.81509">
        <ele>128</ele>
        <time>2018-07-15T08:55:24Z</time>
      </trkpt>
      <trkpt lat="43.88667" lon="1.81501">
        <ele>128</ele>
        <time>2018-07-15T08:55:25Z</time>
      </trkpt>
      <trkpt lat="43.88664" lon="1.81493">
        <ele>128</ele>
        <time>2018-07-15T08:55:26Z</time>
      </trkpt>
      <trkpt lat="43.88662" lon="1.81486">
        <ele>128</ele>
        <time>2018-07-15T08:55:27Z</time>
      </trkpt>
      <trkpt lat="43.88661" lon="1.8148">
        <ele>128</ele>
        <time>2018-07-15T08:55:28Z</time>
      </trkpt>
      <trkpt lat="43.88659" lon="1.81473">
        <ele>128</ele>
        <time>2018-07-15T08:55:29Z</time>
      </trkpt>
      <trkpt lat="43.88657" lon="1.81466">
        <ele>128</ele>
        <time>2018-07-15T08:55:30Z</time>
      </trkpt>
      <trkpt lat="43.88655" lon="1.81459">
        <ele>128</ele>
        <time>2018-07-15T08:55:31Z</time>
      </trkpt>
      <trkpt lat="43.88652" lon="1.8145">
        <ele>129</ele>
        <time>2018-07-15T08:55:32Z</time>
      </trkpt>
      <trkpt lat="43.8865" lon="1.81442">
        <ele>128</ele>
        <time>2018-07-15T08:55:33Z</time>
      </trkpt>
      <trkpt lat="43.88648" lon="1.81434">
        <ele>129</ele>
        <time>2018-07-15T08:55:34Z</time>
      </trkpt>
      <trkpt lat="43.88645" lon="1.81426">
        <ele>129</ele>
        <time>2018-07-15T08:55:35Z</time>
      </trkpt>
      <trkpt lat="43.88643" lon="1.81418">
        <ele>129</ele>
        <time>2018-07-15T08:55:36Z</time>
      </trkpt>
      <trkpt lat="43.88641" lon="1.8141">
        <ele>128</ele>
        <time>2018-07-15T08:55:37Z</time>
      </trkpt>
      <trkpt lat="43.88638" lon="1.81402">
        <ele>129</ele>
        <time>2018-07-15T08:55:38Z</time>
      </trkpt>
      <trkpt lat="43.88635" lon="1.81395">
        <ele>129</ele>
        <time>2018-07-15T08:55:39Z</time>
      </trkpt>
      <trkpt lat="43.88633" lon="1.81387">
        <ele>129</ele>
        <time>2018-07-15T08:55:40Z</time>
      </trkpt>
      <trkpt lat="43.8863" lon="1.81379">
        <ele>129</ele>
        <time>2018-07-15T08:55:41Z</time>
      </trkpt>
      <trkpt lat="43.88628" lon="1.81371">
        <ele>129</ele>
        <time>2018-07-15T08:55:42Z</time>
      </trkpt>
      <trkpt lat="43.88626" lon="1.81363">
        <ele>130</ele>
        <time>2018-07-15T08:55:43Z</time>
      </trkpt>
      <trkpt lat="43.88623" lon="1.81355">
        <ele>130</ele>
        <time>2018-07-15T08:55:44Z</time>
      </trkpt>
      <trkpt lat="43.88621" lon="1.81347">
        <ele>130</ele>
        <time>2018-07-15T08:55:45Z</time>
      </trkpt>
      <trkpt lat="43.88618" lon="1.81338">
        <ele>130</ele>
        <time>2018-07-15T08:55:46Z</time>
      </trkpt>
      <trkpt lat="43.88616" lon="1.8133">
        <ele>130</ele>
        <time>2018-07-15T08:55:47Z</time>
      </trkpt>
      <trkpt lat="43.88613" lon="1.81322">
        <ele>129</ele>
        <time>2018-07-15T08:55:48Z</time>
      </trkpt>
      <trkpt lat="43.8861" lon="1.81315">
        <ele>130</ele>
        <time>2018-07-15T08:55:49Z</time>
      </trkpt>
      <trkpt lat="43.88608" lon="1.81307">
        <ele>130</ele>
        <time>2018-07-15T08:55:50Z</time>
      </trkpt>
      <trkpt lat="43.88606" lon="1.81299">
        <ele>130</ele>
        <time>2018-07-15T08:55:51Z</time>
      </trkpt>
      <trkpt lat="43.88603" lon="1.81292">
        <ele>130</ele>
        <time>2018-07-15T08:55:52Z</time>
      </trkpt>
      <trkpt lat="43.88601" lon="1.81284">
        <ele>130</ele>
        <time>2018-07-15T08:55:53Z</time>
      </trkpt>
      <trkpt lat="43.88599" lon="1.81276">
        <ele>130</ele>
        <time>2018-07-15T08:55:54Z</time>
      </trkpt>
      <trkpt lat="43.88597" lon="1.81268">
        <ele>130</ele>
        <time>2018-07-15T08:55:55Z</time>
      </trkpt>
      <trkpt lat="43.88594" lon="1.8126">
        <ele>130</ele>
        <time>2018-07-15T08:55:56Z</time>
      </trkpt>
      <trkpt lat="43.88592" lon="1.81252">
        <ele>130</ele>
        <time>2018-07-15T08:55:57Z</time>
      </trkpt>
      <trkpt lat="43.8859" lon="1.81244">
        <ele>130</ele>
        <time>2018-07-15T08:55:58Z</time>
      </trkpt>
      <trkpt lat="43.88587" lon="1.81236">
        <ele>131</ele>
        <time>2018-07-15T08:55:59Z</time>
      </trkpt>
      <trkpt lat="43.88584" lon="1.81228">
        <ele>131</ele>
        <time>2018-07-15T08:56:00Z</time>
      </trkpt>
      <trkpt lat="43.88582" lon="1.8122">
        <ele>131</ele>
        <time>2018-07-15T08:56:01Z</time>
      </trkpt>
      <trkpt lat="43.8858" lon="1.81212">
        <ele>131</ele>
        <time>2018-07-15T08:56:02Z</time>
      </trkpt>
      <trkpt lat="43.88577" lon="1.81204">
        <ele>130</ele>
        <time>2018-07-15T08:56:03Z</time>
      </trkpt>
      <trkpt lat="43.88575" lon="1.81196">
        <ele>131</ele>
        <time>2018-07-15T08:56:04Z</time>
      </trkpt>
      <trkpt lat="43.88572" lon="1.81188">
        <ele>131</ele>
        <time>2018-07-15T08:56:05Z</time>
      </trkpt>
      <trkpt lat="43.8857" lon="1.8118">
        <ele>131</ele>
        <time>2018-07-15T08:56:06Z</time>
      </trkpt>
      <trkpt lat="43.88567" lon="1.81172">
        <ele>130</ele>
        <time>2018-07-15T08:56:07Z</time>
      </trkpt>
      <trkpt lat="43.88565" lon="1.81164">
        <ele>131</ele>
        <time>2018-07-15T08:56:08Z</time>
      </trkpt>
      <trkpt lat="43.88563" lon="1.81156">
        <ele>130</ele>
        <time>2018-07-15T08:56:09Z</time>
      </trkpt>
      <trkpt lat="43.88561" lon="1.81148">
        <ele>130</ele>
        <time>2018-07-15T08:56:10Z</time>
      </trkpt>
      <trkpt lat="43.88559" lon="1.81141">
        <ele>130</ele>
        <time>2018-07-15T08:56:11Z</time>
      </trkpt>
      <trkpt lat="43.88557" lon="1.81133">
        <ele>130</ele>
        <time>2018-07-15T08:56:12Z</time>
      </trkpt>
      <trkpt lat="43.88554" lon="1.81125">
        <ele>130</ele>
        <time>2018-07-15T08:56:13Z</time>
      </trkpt>
      <trkpt lat="43.88552" lon="1.81116">
        <ele>130</ele>
        <time>2018-07-15T08:56:14Z</time>
      </trkpt>
      <trkpt lat="43.88549" lon="1.81109">
        <ele>130</ele>
        <time>2018-07-15T08:56:15Z</time>
      </trkpt>
      <trkpt lat="43.88547" lon="1.81101">
        <ele>130</ele>
        <time>2018-07-15T08:56:16Z</time>
      </trkpt>
      <trkpt lat="43.88544" lon="1.81093">
        <ele>130</ele>
        <time>2018-07-15T08:56:17Z</time>
      </trkpt>
      <trkpt lat="43.88542" lon="1.81085">
        <ele>130</ele>
        <time>2018-07-15T08:56:18Z</time>
      </trkpt>
      <trkpt lat="43.88539" lon="1.81076">
        <ele>130</ele>
        <time>2018-07-15T08:56:19Z</time>
      </trkpt>
      <trkpt lat="43.88537" lon="1.81068">
        <ele>130</ele>
        <time>2018-07-15T08:56:20Z</time>
      </trkpt>
      <trkpt lat="43.88535" lon="1.8106">
        <ele>130</ele>
        <time>2018-07-15T08:56:21Z</time>
      </trkpt>
      <trkpt lat="43.88532" lon="1.81051">
        <ele>130</ele>
        <time>2018-07-15T08:56:22Z</time>
      </trkpt>
      <trkpt lat="43.8853" lon="1.81042">
        <ele>131</ele>
        <time>2018-07-15T08:56:23Z</time>
      </trkpt>
      <trkpt lat="43.88527" lon="1.81034">
        <ele>130</ele>
        <time>2018-07-15T08:56:24Z</time>
      </trkpt>
      <trkpt lat="43.88525" lon="1.81025">
        <ele>130</ele>
        <time>2018-07-15T08:56:25Z</time>
      </trkpt>
      <trkpt lat="43.88523" lon="1.81016">
        <ele>130</ele>
        <time>2018-07-15T08:56:26Z</time>
      </trkpt>
      <trkpt lat="43.8852" lon="1.81008">
        <ele>130</ele>
        <time>2018-07-15T08:56:27Z</time>
      </trkpt>
      <trkpt lat="43.88518" lon="1.80999">
        <ele>130</ele>
        <time>2018-07-15T08:56:28Z</time>
      </trkpt>
      <trkpt lat="43.88516" lon="1.80991">
        <ele>131</ele>
        <time>2018-07-15T08:56:29Z</time>
      </trkpt>
      <trkpt lat="43.88514" lon="1.80982">
        <ele>131</ele>
        <time>2018-07-15T08:56:30Z</time>
      </trkpt>
      <trkpt lat="43.88512" lon="1.80974">
        <ele>131</ele>
        <time>2018-07-15T08:56:31Z</time>
      </trkpt>
      <trkpt lat="43.8851" lon="1.80966">
        <ele>131</ele>
        <time>2018-07-15T08:56:32Z</time>
      </trkpt>
      <trkpt lat="43.88508" lon="1.80958">
        <ele>131</ele>
        <time>2018-07-15T08:56:33Z</time>
      </trkpt>
      <trkpt lat="43.88506" lon="1.80949">
        <ele>131</ele>
        <time>2018-07-15T08:56:34Z</time>
      </trkpt>
      <trkpt lat="43.88504" lon="1.80941">
        <ele>131</ele>
        <time>2018-07-15T08:56:35Z</time>
      </trkpt>
      <trkpt lat="43.88501" lon="1.80932">
        <ele>131</ele>
        <time>2018-07-15T08:56:36Z</time>
      </trkpt>
      <trkpt lat="43.88499" lon="1.80923">
        <ele>131</ele>
        <time>2018-07-15T08:56:37Z</time>
      </trkpt>
      <trkpt lat="43.88497" lon="1.80915">
        <ele>131</ele>
        <time>2018-07-15T08:56:38Z</time>
      </trkpt>
      <trkpt lat="43.88494" lon="1.80906">
        <ele>131</ele>
        <time>2018-07-15T08:56:39Z</time>
      </trkpt>
      <trkpt lat="43.88492" lon="1.80897">
        <ele>130</ele>
        <time>2018-07-15T08:56:40Z</time>
      </trkpt>
      <trkpt lat="43.8849" lon="1.80889">
        <ele>130</ele>
        <time>2018-07-15T08:56:41Z</time>
      </trkpt>
      <trkpt lat="43.88488" lon="1.80881">
        <ele>130</ele>
        <time>2018-07-15T08:56:42Z</time>
      </trkpt>
      <trkpt lat="43.88486" lon="1.80873">
        <ele>130</ele>
        <time>2018-07-15T08:56:43Z</time>
      </trkpt>
      <trkpt lat="43.88484" lon="1.80865">
        <ele>130</ele>
        <time>2018-07-15T08:56:44Z</time>
      </trkpt>
      <trkpt lat="43.88481" lon="1.80856">
        <ele>130</ele>
        <time>2018-07-15T08:56:45Z</time>
      </trkpt>
      <trkpt lat="43.88479" lon="1.80848">
        <ele>130</ele>
        <time>2018-07-15T08:56:46Z</time>
      </trkpt>
      <trkpt lat="43.88477" lon="1.80839">
        <ele>130</ele>
        <time>2018-07-15T08:56:47Z</time>
      </trkpt>
      <trkpt lat="43.88474" lon="1.8083">
        <ele>130</ele>
        <time>2018-07-15T08:56:48Z</time>
      </trkpt>
      <trkpt lat="43.88472" lon="1.80821">
        <ele>130</ele>
        <time>2018-07-15T08:56:49Z</time>
      </trkpt>
      <trkpt lat="43.8847" lon="1.80813">
        <ele>130</ele>
        <time>2018-07-15T08:56:50Z</time>
      </trkpt>
      <trkpt lat="43.88467" lon="1.80804">
        <ele>130</ele>
        <time>2018-07-15T08:56:51Z</time>
      </trkpt>
      <trkpt lat="43.88465" lon="1.80795">
        <ele>130</ele>
        <time>2018-07-15T08:56:52Z</time>
      </trkpt>
      <trkpt lat="43.88463" lon="1.80787">
        <ele>130</ele>
        <time>2018-07-15T08:56:53Z</time>
      </trkpt>
      <trkpt lat="43.8846" lon="1.80778">
        <ele>130</ele>
        <time>2018-07-15T08:56:54Z</time>
      </trkpt>
      <trkpt lat="43.88458" lon="1.8077">
        <ele>130</ele>
        <time>2018-07-15T08:56:55Z</time>
      </trkpt>
      <trkpt lat="43.88456" lon="1.80761">
        <ele>130</ele>
        <time>2018-07-15T08:56:56Z</time>
      </trkpt>
      <trkpt lat="43.88453" lon="1.80753">
        <ele>130</ele>
        <time>2018-07-15T08:56:57Z</time>
      </trkpt>
      <trkpt lat="43.88451" lon="1.80744">
        <ele>130</ele>
        <time>2018-07-15T08:56:58Z</time>
      </trkpt>
      <trkpt lat="43.88449" lon="1.80735">
        <ele>130</ele>
        <time>2018-07-15T08:56:59Z</time>
      </trkpt>
      <trkpt lat="43.88447" lon="1.80726">
        <ele>130</ele>
        <time>2018-07-15T08:57:00Z</time>
      </trkpt>
      <trkpt lat="43.88444" lon="1.80717">
        <ele>130</ele>
        <time>2018-07-15T08:57:01Z</time>
      </trkpt>
      <trkpt lat="43.88442" lon="1.80709">
        <ele>129</ele>
        <time>2018-07-15T08:57:02Z</time>
      </trkpt>
      <trkpt lat="43.8844" lon="1.807">
        <ele>129</ele>
        <time>2018-07-15T08:57:03Z</time>
      </trkpt>
      <trkpt lat="43.88438" lon="1.80691">
        <ele>129</ele>
        <time>2018-07-15T08:57:04Z</time>
      </trkpt>
      <trkpt lat="43.88435" lon="1.80682">
        <ele>130</ele>
        <time>2018-07-15T08:57:05Z</time>
      </trkpt>
      <trkpt lat="43.88433" lon="1.80674">
        <ele>130</ele>
        <time>2018-07-15T08:57:06Z</time>
      </trkpt>
      <trkpt lat="43.88431" lon="1.80665">
        <ele>130</ele>
        <time>2018-07-15T08:57:07Z</time>
      </trkpt>
      <trkpt lat="43.88429" lon="1.80657">
        <ele>130</ele>
        <time>2018-07-15T08:57:08Z</time>
      </trkpt>
      <trkpt lat="43.88426" lon="1.80648">
        <ele>129</ele>
        <time>2018-07-15T08:57:09Z</time>
      </trkpt>
      <trkpt lat="43.88424" lon="1.8064">
        <ele>130</ele>
        <time>2018-07-15T08:57:10Z</time>
      </trkpt>
      <trkpt lat="43.88422" lon="1.80631">
        <ele>130</ele>
        <time>2018-07-15T08:57:11Z</time>
      </trkpt>
      <trkpt lat="43.88419" lon="1.80623">
        <ele>129</ele>
        <time>2018-07-15T08:57:12Z</time>
      </trkpt>
      <trkpt lat="43.88417" lon="1.80614">
        <ele>129</ele>
        <time>2018-07-15T08:57:13Z</time>
      </trkpt>
      <trkpt lat="43.88415" lon="1.80605">
        <ele>130</ele>
        <time>2018-07-15T08:57:14Z</time>
      </trkpt>
      <trkpt lat="43.88412" lon="1.80597">
        <ele>130</ele>
        <time>2018-07-15T08:57:15Z</time>
      </trkpt>
      <trkpt lat="43.8841" lon="1.80589">
        <ele>130</ele>
        <time>2018-07-15T08:57:16Z</time>
      </trkpt>
      <trkpt lat="43.88408" lon="1.8058">
        <ele>130</ele>
        <time>2018-07-15T08:57:17Z</time>
      </trkpt>
      <trkpt lat="43.88406" lon="1.80572">
        <ele>130</ele>
        <time>2018-07-15T08:57:18Z</time>
      </trkpt>
      <trkpt lat="43.88404" lon="1.80564">
        <ele>130</ele>
        <time>2018-07-15T08:57:19Z</time>
      </trkpt>
      <trkpt lat="43.88401" lon="1.80556">
        <ele>130</ele>
        <time>2018-07-15T08:57:20Z</time>
      </trkpt>
      <trkpt lat="43.88399" lon="1.80547">
        <ele>130</ele>
        <time>2018-07-15T08:57:21Z</time>
      </trkpt>
      <trkpt lat="43.88397" lon="1.80539">
        <ele>129</ele>
        <time>2018-07-15T08:57:22Z</time>
      </trkpt>
      <trkpt lat="43.88395" lon="1.8053">
        <ele>129</ele>
        <time>2018-07-15T08:57:23Z</time>
      </trkpt>
      <trkpt lat="43.88393" lon="1.80521">
        <ele>129</ele>
        <time>2018-07-15T08:57:24Z</time>
      </trkpt>
      <trkpt lat="43.88391" lon="1.80513">
        <ele>129</ele>
        <time>2018-07-15T08:57:25Z</time>
      </trkpt>
      <trkpt lat="43.88389" lon="1.80504">
        <ele>129</ele>
        <time>2018-07-15T08:57:26Z</time>
      </trkpt>
      <trkpt lat="43.88388" lon="1.80495">
        <ele>129</ele>
        <time>2018-07-15T08:57:27Z</time>
      </trkpt>
      <trkpt lat="43.88387" lon="1.80486">
        <ele>129</ele>
        <time>2018-07-15T08:57:28Z</time>
      </trkpt>
      <trkpt lat="43.88386" lon="1.80477">
        <ele>129</ele>
        <time>2018-07-15T08:57:29Z</time>
      </trkpt>
      <trkpt lat="43.88385" lon="1.80468">
        <ele>129</ele>
        <time>2018-07-15T08:57:30Z</time>
      </trkpt>
      <trkpt lat="43.88384" lon="1.80459">
        <ele>129</ele>
        <time>2018-07-15T08:57:31Z</time>
      </trkpt>
      <trkpt lat="43.88383" lon="1.8045">
        <ele>129</ele>
        <time>2018-07-15T08:57:32Z</time>
      </trkpt>
      <trkpt lat="43.88382" lon="1.80441">
        <ele>129</ele>
        <time>2018-07-15T08:57:33Z</time>
      </trkpt>
      <trkpt lat="43.88381" lon="1.80433">
        <ele>129</ele>
        <time>2018-07-15T08:57:34Z</time>
      </trkpt>
      <trkpt lat="43.88379" lon="1.80425">
        <ele>130</ele>
        <time>2018-07-15T08:57:35Z</time>
      </trkpt>
      <trkpt lat="43.88376" lon="1.80417">
        <ele>130</ele>
        <time>2018-07-15T08:57:36Z</time>
      </trkpt>
      <trkpt lat="43.88374" lon="1.80408">
        <ele>130</ele>
        <time>2018-07-15T08:57:37Z</time>
      </trkpt>
      <trkpt lat="43.88372" lon="1.804">
        <ele>129</ele>
        <time>2018-07-15T08:57:38Z</time>
      </trkpt>
      <trkpt lat="43.8837" lon="1.80392">
        <ele>129</ele>
        <time>2018-07-15T08:57:39Z</time>
      </trkpt>
      <trkpt lat="43.88368" lon="1.80383">
        <ele>129</ele>
        <time>2018-07-15T08:57:40Z</time>
      </trkpt>
      <trkpt lat="43.88365" lon="1.80375">
        <ele>129</ele>
        <time>2018-07-15T08:57:41Z</time>
      </trkpt>
      <trkpt lat="43.88362" lon="1.80367">
        <ele>129</ele>
        <time>2018-07-15T08:57:42Z</time>
      </trkpt>
      <trkpt lat="43.8836" lon="1.80358">
        <ele>129</ele>
        <time>2018-07-15T08:57:43Z</time>
      </trkpt>
      <trkpt lat="43.88357" lon="1.8035">
        <ele>129</ele>
        <time>2018-07-15T08:57:44Z</time>
      </trkpt>
      <trkpt lat="43.88354" lon="1.80341">
        <ele>129</ele>
        <time>2018-07-15T08:57:45Z</time>
      </trkpt>
      <trkpt lat="43.88351" lon="1.80333">
        <ele>129</ele>
        <time>2018-07-15T08:57:46Z</time>
      </trkpt>
      <trkpt lat="43.88348" lon="1.80325">
        <ele>129</ele>
        <time>2018-07-15T08:57:47Z</time>
      </trkpt>
      <trkpt lat="43.88345" lon="1.80316">
        <ele>129</ele>
        <time>2018-07-15T08:57:48Z</time>
      </trkpt>
      <trkpt lat="43.88342" lon="1.80308">
        <ele>129</ele>
        <time>2018-07-15T08:57:49Z</time>
      </trkpt>
      <trkpt lat="43.88339" lon="1.803">
        <ele>129</ele>
        <time>2018-07-15T08:57:50Z</time>
      </trkpt>
      <trkpt lat="43.88337" lon="1.80291">
        <ele>129</ele>
        <time>2018-07-15T08:57:51Z</time>
      </trkpt>
      <trkpt lat="43.88334" lon="1.80283">
        <ele>129</ele>
        <time>2018-07-15T08:57:52Z</time>
      </trkpt>
      <trkpt lat="43.88331" lon="1.80275">
        <ele>129</ele>
        <time>2018-07-15T08:57:53Z</time>
      </trkpt>
      <trkpt lat="43.88328" lon="1.80266">
        <ele>129</ele>
        <time>2018-07-15T08:57:54Z</time>
      </trkpt>
      <trkpt lat="43.88326" lon="1.80258">
        <ele>129</ele>
        <time>2018-07-15T08:57:55Z</time>
      </trkpt>
      <trkpt lat="43.88323" lon="1.80249">
        <ele>129</ele>
        <time>2018-07-15T08:57:56Z</time>
      </trkpt>
      <trkpt lat="43.8832" lon="1.80241">
        <ele>129</ele>
        <time>2018-07-15T08:57:57Z</time>
      </trkpt>
      <trkpt lat="43.88318" lon="1.80233">
        <ele>129</ele>
        <time>2018-07-15T08:57:58Z</time>
      </trkpt>
      <trkpt lat="43.88315" lon="1.80224">
        <ele>129</ele>
        <time>2018-07-15T08:57:59Z</time>
      </trkpt>
      <trkpt lat="43.88313" lon="1.80215">
        <ele>129</ele>
        <time>2018-07-15T08:58:00Z</time>
      </trkpt>
      <trkpt lat="43.8831" lon="1.80207">
        <ele>129</ele>
        <time>2018-07-15T08:58:01Z</time>
      </trkpt>
      <trkpt lat="43.88308" lon="1.80198">
        <ele>129</ele>
        <time>2018-07-15T08:58:02Z</time>
      </trkpt>
      <trkpt lat="43.88305" lon="1.80189">
        <ele>129</ele>
        <time>2018-07-15T08:58:03Z</time>
      </trkpt>
      <trkpt lat="43.88303" lon="1.80181">
        <ele>129</ele>
        <time>2018-07-15T08:58:04Z</time>
      </trkpt>
      <trkpt lat="43.883" lon="1.80172">
        <ele>128</ele>
        <time>2018-07-15T08:58:05Z</time>
      </trkpt>
      <trkpt lat="43.88298" lon="1.80164">
        <ele>128</ele>
        <time>2018-07-15T08:58:06Z</time>
      </trkpt>
      <trkpt lat="43.88295" lon="1.80156">
        <ele>128</ele>
        <time>2018-07-15T08:58:07Z</time>
      </trkpt>
      <trkpt lat="43.88291" lon="1.80148">
        <ele>128</ele>
        <time>2018-07-15T08:58:08Z</time>
      </trkpt>
      <trkpt lat="43.88288" lon="1.80139">
        <ele>128</ele>
        <time>2018-07-15T08:58:09Z</time>
      </trkpt>
      <trkpt lat="43.88285" lon="1.80131">
        <ele>128</ele>
        <time>2018-07-15T08:58:10Z</time>
      </trkpt>
      <trkpt lat="43.88281" lon="1.80122">
        <ele>128</ele>
        <time>2018-07-15T08:58:11Z</time>
      </trkpt>
      <trkpt lat="43.88278" lon="1.80114">
        <ele>128</ele>
        <time>2018-07-15T08:58:12Z</time>
      </trkpt>
      <trkpt lat="43.88274" lon="1.80105">
        <ele>128</ele>
        <time>2018-07-15T08:58:13Z</time>
      </trkpt>
      <trkpt lat="43.88271" lon="1.80097">
        <ele>128</ele>
        <time>2018-07-15T08:58:14Z</time>
      </trkpt>
      <trkpt lat="43.88268" lon="1.80088">
        <ele>128</ele>
        <time>2018-07-15T08:58:15Z</time>
      </trkpt>
      <trkpt lat="43.88265" lon="1.80079">
        <ele>128</ele>
        <time>2018-07-15T08:58:16Z</time>
      </trkpt>
      <trkpt lat="43.88262" lon="1.8007">
        <ele>128</ele>
        <time>2018-07-15T08:58:17Z</time>
      </trkpt>
      <trkpt lat="43.8826" lon="1.80061">
        <ele>128</ele>
        <time>2018-07-15T08:58:18Z</time>
      </trkpt>
      <trkpt lat="43.88257" lon="1.80051">
        <ele>127</ele>
        <time>2018-07-15T08:58:19Z</time>
      </trkpt>
      <trkpt lat="43.88254" lon="1.80042">
        <ele>127</ele>
        <time>2018-07-15T08:58:20Z</time>
      </trkpt>
      <trkpt lat="43.88252" lon="1.80033">
        <ele>127</ele>
        <time>2018-07-15T08:58:21Z</time>
      </trkpt>
      <trkpt lat="43.8825" lon="1.80023">
        <ele>127</ele>
        <time>2018-07-15T08:58:22Z</time>
      </trkpt>
      <trkpt lat="43.88248" lon="1.80014">
        <ele>127</ele>
        <time>2018-07-15T08:58:23Z</time>
      </trkpt>
      <trkpt lat="43.88246" lon="1.80005">
        <ele>127</ele>
        <time>2018-07-15T08:58:24Z</time>
      </trkpt>
      <trkpt lat="43.88244" lon="1.79995">
        <ele>127</ele>
        <time>2018-07-15T08:58:25Z</time>
      </trkpt>
      <trkpt lat="43.88242" lon="1.79986">
        <ele>127</ele>
        <time>2018-07-15T08:58:26Z</time>
      </trkpt>
      <trkpt lat="43.88241" lon="1.79976">
        <ele>127</ele>
        <time>2018-07-15T08:58:27Z</time>
      </trkpt>
      <trkpt lat="43.8824" lon="1.79967">
        <ele>127</ele>
        <time>2018-07-15T08:58:28Z</time>
      </trkpt>
      <trkpt lat="43.88239" lon="1.79957">
        <ele>127</ele>
        <time>2018-07-15T08:58:29Z</time>
      </trkpt>
      <trkpt lat="43.88238" lon="1.79948">
        <ele>127</ele>
        <time>2018-07-15T08:58:30Z</time>
      </trkpt>
      <trkpt lat="43.88236" lon="1.79939">
        <ele>127</ele>
        <time>2018-07-15T08:58:31Z</time>
      </trkpt>
      <trkpt lat="43.88234" lon="1.79931">
        <ele>127</ele>
        <time>2018-07-15T08:58:32Z</time>
      </trkpt>
      <trkpt lat="43.88232" lon="1.79922">
        <ele>127</ele>
        <time>2018-07-15T08:58:33Z</time>
      </trkpt>
      <trkpt lat="43.88229" lon="1.79914">
        <ele>127</ele>
        <time>2018-07-15T08:58:34Z</time>
      </trkpt>
      <trkpt lat="43.88226" lon="1.79906">
        <ele>127</ele>
        <time>2018-07-15T08:58:35Z</time>
      </trkpt>
      <trkpt lat="43.88222" lon="1.79898">
        <ele>127</ele>
        <time>2018-07-15T08:58:36Z</time>
      </trkpt>
      <trkpt lat="43.88218" lon="1.7989">
        <ele>127</ele>
        <time>2018-07-15T08:58:37Z</time>
      </trkpt>
      <trkpt lat="43.88214" lon="1.79883">
        <ele>127</ele>
        <time>2018-07-15T08:58:38Z</time>
      </trkpt>
      <trkpt lat="43.8821" lon="1.79877">
        <ele>127</ele>
        <time>2018-07-15T08:58:39Z</time>
      </trkpt>
      <trkpt lat="43.88205" lon="1.7987">
        <ele>127</ele>
        <time>2018-07-15T08:58:40Z</time>
      </trkpt>
      <trkpt lat="43.88201" lon="1.79865">
        <ele>128</ele>
        <time>2018-07-15T08:58:41Z</time>
      </trkpt>
      <trkpt lat="43.88196" lon="1.79858">
        <ele>128</ele>
        <time>2018-07-15T08:58:42Z</time>
      </trkpt>
      <trkpt lat="43.88191" lon="1.79851">
        <ele>128</ele>
        <time>2018-07-15T08:58:43Z</time>
      </trkpt>
      <trkpt lat="43.88186" lon="1.79845">
        <ele>127</ele>
        <time>2018-07-15T08:58:44Z</time>
      </trkpt>
      <trkpt lat="43.88181" lon="1.79838">
        <ele>127</ele>
        <time>2018-07-15T08:58:45Z</time>
      </trkpt>
      <trkpt lat="43.88176" lon="1.79831">
        <ele>127</ele>
        <time>2018-07-15T08:58:46Z</time>
      </trkpt>
      <trkpt lat="43.88171" lon="1.79824">
        <ele>127</ele>
        <time>2018-07-15T08:58:47Z</time>
      </trkpt>
      <trkpt lat="43.88167" lon="1.79816">
        <ele>127</ele>
        <time>2018-07-15T08:58:48Z</time>
      </trkpt>
      <trkpt lat="43.88163" lon="1.79808">
        <ele>127</ele>
        <time>2018-07-15T08:58:49Z</time>
      </trkpt>
      <trkpt lat="43.88159" lon="1.798">
        <ele>126</ele>
        <time>2018-07-15T08:58:50Z</time>
      </trkpt>
      <trkpt lat="43.88155" lon="1.79792">
        <ele>126</ele>
        <time>2018-07-15T08:58:51Z</time>
      </trkpt>
      <trkpt lat="43.88152" lon="1.79783">
        <ele>126</ele>
        <time>2018-07-15T08:58:52Z</time>
      </trkpt>
      <trkpt lat="43.88148" lon="1.79775">
        <ele>126</ele>
        <time>2018-07-15T08:58:53Z</time>
      </trkpt>
      <trkpt lat="43.88145" lon="1.79767">
        <ele>126</ele>
        <time>2018-07-15T08:58:54Z</time>
      </trkpt>
      <trkpt lat="43.88142" lon="1.79758">
        <ele>126</ele>
        <time>2018-07-15T08:58:55Z</time>
      </trkpt>
      <trkpt lat="43.88139" lon="1.79749">
        <ele>126</ele>
        <time>2018-07-15T08:58:56Z</time>
      </trkpt>
      <trkpt lat="43.88136" lon="1.7974">
        <ele>126</ele>
        <time>2018-07-15T08:58:57Z</time>
      </trkpt>
      <trkpt lat="43.88134" lon="1.79731">
        <ele>126</ele>
        <time>2018-07-15T08:58:58Z</time>
      </trkpt>
      <trkpt lat="43.88131" lon="1.79723">
        <ele>126</ele>
        <time>2018-07-15T08:58:59Z</time>
      </trkpt>
      <trkpt lat="43.88128" lon="1.79714">
        <ele>126</ele>
        <time>2018-07-15T08:59:00Z</time>
      </trkpt>
      <trkpt lat="43.88125" lon="1.79705">
        <ele>126</ele>
        <time>2018-07-15T08:59:01Z</time>
      </trkpt>
      <trkpt lat="43.88123" lon="1.79696">
        <ele>126</ele>
        <time>2018-07-15T08:59:02Z</time>
      </trkpt>
      <trkpt lat="43.8812" lon="1.79687">
        <ele>126</ele>
        <time>2018-07-15T08:59:03Z</time>
      </trkpt>
      <trkpt lat="43.88118" lon="1.79678">
        <ele>126</ele>
        <time>2018-07-15T08:59:04Z</time>
      </trkpt>
      <trkpt lat="43.88115" lon="1.7967">
        <ele>126</ele>
        <time>2018-07-15T08:59:05Z</time>
      </trkpt>
      <trkpt lat="43.88112" lon="1.79661">
        <ele>125</ele>
        <time>2018-07-15T08:59:06Z</time>
      </trkpt>
      <trkpt lat="43.8811" lon="1.79653">
        <ele>125</ele>
        <time>2018-07-15T08:59:07Z</time>
      </trkpt>
      <trkpt lat="43.88107" lon="1.79644">
        <ele>125</ele>
        <time>2018-07-15T08:59:08Z</time>
      </trkpt>
      <trkpt lat="43.88105" lon="1.79635">
        <ele>125</ele>
        <time>2018-07-15T08:59:09Z</time>
      </trkpt>
      <trkpt lat="43.88102" lon="1.79627">
        <ele>125</ele>
        <time>2018-07-15T08:59:10Z</time>
      </trkpt>
      <trkpt lat="43.881" lon="1.79618">
        <ele>125</ele>
        <time>2018-07-15T08:59:11Z</time>
      </trkpt>
      <trkpt lat="43.88097" lon="1.79609">
        <ele>125</ele>
        <time>2018-07-15T08:59:12Z</time>
      </trkpt>
      <trkpt lat="43.88094" lon="1.796">
        <ele>125</ele>
        <time>2018-07-15T08:59:13Z</time>
      </trkpt>
      <trkpt lat="43.88091" lon="1.79591">
        <ele>125</ele>
        <time>2018-07-15T08:59:14Z</time>
      </trkpt>
      <trkpt lat="43.88088" lon="1.79582">
        <ele>125</ele>
        <time>2018-07-15T08:59:15Z</time>
      </trkpt>
      <trkpt lat="43.88085" lon="1.79574">
        <ele>125</ele>
        <time>2018-07-15T08:59:16Z</time>
      </trkpt>
      <trkpt lat="43.88081" lon="1.79565">
        <ele>125</ele>
        <time>2018-07-15T08:59:17Z</time>
      </trkpt>
      <trkpt lat="43.88078" lon="1.79557">
        <ele>124</ele>
        <time>2018-07-15T08:59:18Z</time>
      </trkpt>
      <trkpt lat="43.88075" lon="1.79549">
        <ele>124</ele>
        <time>2018-07-15T08:59:19Z</time>
      </trkpt>
      <trkpt lat="43.88071" lon="1.79541">
        <ele>124</ele>
        <time>2018-07-15T08:59:20Z</time>
      </trkpt>
      <trkpt lat="43.88067" lon="1.79533">
        <ele>124</ele>
        <time>2018-07-15T08:59:21Z</time>
      </trkpt>
      <trkpt lat="43.88063" lon="1.79524">
        <ele>124</ele>
        <time>2018-07-15T08:59:22Z</time>
      </trkpt>
      <trkpt lat="43.88059" lon="1.79516">
        <ele>124</ele>
        <time>2018-07-15T08:59:23Z</time>
      </trkpt>
      <trkpt lat="43.88055" lon="1.79508">
        <ele>124</ele>
        <time>2018-07-15T08:59:24Z</time>
      </trkpt>
      <trkpt lat="43.88051" lon="1.795">
        <ele>124</ele>
        <time>2018-07-15T08:59:25Z</time>
      </trkpt>
      <trkpt lat="43.88047" lon="1.79492">
        <ele>124</ele>
        <time>2018-07-15T08:59:26Z</time>
      </trkpt>
      <trkpt lat="43.88043" lon="1.79483">
        <ele>124</ele>
        <time>2018-07-15T08:59:27Z</time>
      </trkpt>
      <trkpt lat="43.88039" lon="1.79475">
        <ele>124</ele>
        <time>2018-07-15T08:59:28Z</time>
      </trkpt>
      <trkpt lat="43.88035" lon="1.79467">
        <ele>123</ele>
        <time>2018-07-15T08:59:29Z</time>
      </trkpt>
      <trkpt lat="43.88031" lon="1.79459">
        <ele>123</ele>
        <time>2018-07-15T08:59:30Z</time>
      </trkpt>
      <trkpt lat="43.88027" lon="1.79451">
        <ele>123</ele>
        <time>2018-07-15T08:59:31Z</time>
      </trkpt>
      <trkpt lat="43.88023" lon="1.79443">
        <ele>123</ele>
        <time>2018-07-15T08:59:32Z</time>
      </trkpt>
      <trkpt lat="43.8802" lon="1.79435">
        <ele>124</ele>
        <time>2018-07-15T08:59:33Z</time>
      </trkpt>
      <trkpt lat="43.88015" lon="1.79427">
        <ele>123</ele>
        <time>2018-07-15T08:59:34Z</time>
      </trkpt>
      <trkpt lat="43.88011" lon="1.7942">
        <ele>123</ele>
        <time>2018-07-15T08:59:35Z</time>
      </trkpt>
      <trkpt lat="43.88008" lon="1.79412">
        <ele>123</ele>
        <time>2018-07-15T08:59:36Z</time>
      </trkpt>
      <trkpt lat="43.88003" lon="1.79405">
        <ele>123</ele>
        <time>2018-07-15T08:59:37Z</time>
      </trkpt>
      <trkpt lat="43.88" lon="1.79398">
        <ele>123</ele>
        <time>2018-07-15T08:59:38Z</time>
      </trkpt>
      <trkpt lat="43.87996" lon="1.79391">
        <ele>123</ele>
        <time>2018-07-15T08:59:39Z</time>
      </trkpt>
      <trkpt lat="43.87992" lon="1.79383">
        <ele>123</ele>
        <time>2018-07-15T08:59:40Z</time>
      </trkpt>
      <trkpt lat="43.87988" lon="1.79375">
        <ele>123</ele>
        <time>2018-07-15T08:59:41Z</time>
      </trkpt>
      <trkpt lat="43.87985" lon="1.79368">
        <ele>124</ele>
        <time>2018-07-15T08:59:42Z</time>
      </trkpt>
      <trkpt lat="43.87981" lon="1.79361">
        <ele>123</ele>
        <time>2018-07-15T08:59:43Z</time>
      </trkpt>
      <trkpt lat="43.87977" lon="1.79355">
        <ele>123</ele>
        <time>2018-07-15T08:59:44Z</time>
      </trkpt>
      <trkpt lat="43.87972" lon="1.79347">
        <ele>123</ele>
        <time>2018-07-15T08:59:45Z</time>
      </trkpt>
      <trkpt lat="43.87968" lon="1.7934">
        <ele>123</ele>
        <time>2018-07-15T08:59:46Z</time>
      </trkpt>
      <trkpt lat="43.87965" lon="1.79333">
        <ele>123</ele>
        <time>2018-07-15T08:59:47Z</time>
      </trkpt>
      <trkpt lat="43.8796" lon="1.79325">
        <ele>123</ele>
        <time>2018-07-15T08:59:48Z</time>
      </trkpt>
      <trkpt lat="43.87955" lon="1.79318">
        <ele>123</ele>
        <time>2018-07-15T08:59:49Z</time>
      </trkpt>
      <trkpt lat="43.87951" lon="1.79311">
        <ele>123</ele>
        <time>2018-07-15T08:59:50Z</time>
      </trkpt>
      <trkpt lat="43.87948" lon="1.79303">
        <ele>123</ele>
        <time>2018-07-15T08:59:51Z</time>
      </trkpt>
      <trkpt lat="43.87943" lon="1.79295">
        <ele>123</ele>
        <time>2018-07-15T08:59:52Z</time>
      </trkpt>
      <trkpt lat="43.87939" lon="1.79288">
        <ele>123</ele>
        <time>2018-07-15T08:59:53Z</time>
      </trkpt>
      <trkpt lat="43.87934" lon="1.7928">
        <ele>123</ele>
        <time>2018-07-15T08:59:54Z</time>
      </trkpt>
      <trkpt lat="43.8793" lon="1.79272">
        <ele>123</ele>
        <time>2018-07-15T08:59:55Z</time>
      </trkpt>
      <trkpt lat="43.87925" lon="1.79264">
        <ele>123</ele>
        <time>2018-07-15T08:59:56Z</time>
      </trkpt>
      <trkpt lat="43.87921" lon="1.79256">
        <ele>123</ele>
        <time>2018-07-15T08:59:57Z</time>
      </trkpt>
      <trkpt lat="43.87916" lon="1.79249">
        <ele>123</ele>
        <time>2018-07-15T08:59:58Z</time>
      </trkpt>
      <trkpt lat="43.87912" lon="1.79241">
        <ele>123</ele>
        <time>2018-07-15T08:59:59Z</time>
      </trkpt>
      <trkpt lat="43.87908" lon="1.79234">
        <ele>123</ele>
        <time>2018-07-15T09:00:00Z</time>
      </trkpt>
      <trkpt lat="43.87903" lon="1.79226">
        <ele>123</ele>
        <time>2018-07-15T09:00:01Z</time>
      </trkpt>
      <trkpt lat="43.87899" lon="1.79219">
        <ele>123</ele>
        <time>2018-07-15T09:00:02Z</time>
      </trkpt>
      <trkpt lat="43.87895" lon="1.79212">
        <ele>122</ele>
        <time>2018-07-15T09:00:03Z</time>
      </trkpt>
      <trkpt lat="43.87891" lon="1.79204">
        <ele>122</ele>
        <time>2018-07-15T09:00:04Z</time>
      </trkpt>
      <trkpt lat="43.87887" lon="1.79197">
        <ele>122</ele>
        <time>2018-07-15T09:00:05Z</time>
      </trkpt>
      <trkpt lat="43.87882" lon="1.79189">
        <ele>123</ele>
        <time>2018-07-15T09:00:06Z</time>
      </trkpt>
      <trkpt lat="43.87878" lon="1.79182">
        <ele>123</ele>
        <time>2018-07-15T09:00:07Z</time>
      </trkpt>
      <trkpt lat="43.87874" lon="1.79174">
        <ele>123</ele>
        <time>2018-07-15T09:00:08Z</time>
      </trkpt>
      <trkpt lat="43.8787" lon="1.79167">
        <ele>123</ele>
        <time>2018-07-15T09:00:09Z</time>
      </trkpt>
      <trkpt lat="43.87866" lon="1.79159">
        <ele>123</ele>
        <time>2018-07-15T09:00:10Z</time>
      </trkpt>
      <trkpt lat="43.87863" lon="1.79151">
        <ele>123</ele>
        <time>2018-07-15T09:00:11Z</time>
      </trkpt>
      <trkpt lat="43.87859" lon="1.79143">
        <ele>122</ele>
        <time>2018-07-15T09:00:12Z</time>
      </trkpt>
      <trkpt lat="43.87856" lon="1.79135">
        <ele>122</ele>
        <time>2018-07-15T09:00:13Z</time>
      </trkpt>
      <trkpt lat="43.87853" lon="1.79127">
        <ele>122</ele>
        <time>2018-07-15T09:00:14Z</time>
      </trkpt>
      <trkpt lat="43.8785" lon="1.79119">
        <ele>123</ele>
        <time>2018-07-15T09:00:15Z</time>
      </trkpt>
      <trkpt lat="43.87847" lon="1.79112">
        <ele>123</ele>
        <time>2018-07-15T09:00:16Z</time>
      </trkpt>
      <trkpt lat="43.87844" lon="1.79104">
        <ele>123</ele>
        <time>2018-07-15T09:00:17Z</time>
      </trkpt>
      <trkpt lat="43.8784" lon="1.79097">
        <ele>123</ele>
        <time>2018-07-15T09:00:18Z</time>
      </trkpt>
      <trkpt lat="43.87837" lon="1.79089">
        <ele>123</ele>
        <time>2018-07-15T09:00:19Z</time>
      </trkpt>
      <trkpt lat="43.87834" lon="1.79082">
        <ele>123</ele>
        <time>2018-07-15T09:00:20Z</time>
      </trkpt>
      <trkpt lat="43.8783" lon="1.79075">
        <ele>123</ele>
        <time>2018-07-15T09:00:21Z</time>
      </trkpt>
      <trkpt lat="43.87826" lon="1.79068">
        <ele>123</ele>
        <time>2018-07-15T09:00:22Z</time>
      </trkpt>
      <trkpt lat="43.87822" lon="1.79061">
        <ele>123</ele>
        <time>2018-07-15T09:00:23Z</time>
      </trkpt>
      <trkpt lat="43.87818" lon="1.79053">
        <ele>123</ele>
        <time>2018-07-15T09:00:24Z</time>
      </trkpt>
      <trkpt lat="43.87814" lon="1.79046">
        <ele>123</ele>
        <time>2018-07-15T09:00:25Z</time>
      </trkpt>
      <trkpt lat="43.87811" lon="1.79039">
        <ele>123</ele>
        <time>2018-07-15T09:00:26Z</time>
      </trkpt>
      <trkpt lat="43.87807" lon="1.79031">
        <ele>123</ele>
        <time>2018-07-15T09:00:27Z</time>
      </trkpt>
      <trkpt lat="43.87804" lon="1.79024">
        <ele>123</ele>
        <time>2018-07-15T09:00:28Z</time>
      </trkpt>
      <trkpt lat="43.878" lon="1.79017">
        <ele>123</ele>
        <time>2018-07-15T09:00:29Z</time>
      </trkpt>
      <trkpt lat="43.87797" lon="1.79009">
        <ele>123</ele>
        <time>2018-07-15T09:00:30Z</time>
      </trkpt>
      <trkpt lat="43.87794" lon="1.79001">
        <ele>123</ele>
        <time>2018-07-15T09:00:31Z</time>
      </trkpt>
      <trkpt lat="43.87791" lon="1.78993">
        <ele>123</ele>
        <time>2018-07-15T09:00:32Z</time>
      </trkpt>
      <trkpt lat="43.87787" lon="1.78986">
        <ele>123</ele>
        <time>2018-07-15T09:00:33Z</time>
      </trkpt>
      <trkpt lat="43.87784" lon="1.78978">
        <ele>123</ele>
        <time>2018-07-15T09:00:34Z</time>
      </trkpt>
      <trkpt lat="43.87781" lon="1.7897">
        <ele>123</ele>
        <time>2018-07-15T09:00:35Z</time>
      </trkpt>
      <trkpt lat="43.87778" lon="1.78963">
        <ele>123</ele>
        <time>2018-07-15T09:00:36Z</time>
      </trkpt>
      <trkpt lat="43.87775" lon="1.78955">
        <ele>123</ele>
        <time>2018-07-15T09:00:37Z</time>
      </trkpt>
      <trkpt lat="43.87772" lon="1.78947">
        <ele>123</ele>
        <time>2018-07-15T09:00:38Z</time>
      </trkpt>
      <trkpt lat="43.87769" lon="1.78939">
        <ele>123</ele>
        <time>2018-07-15T09:00:39Z</time>
      </trkpt>
      <trkpt lat="43.87766" lon="1.78932">
        <ele>123</ele>
        <time>2018-07-15T09:00:40Z</time>
      </trkpt>
      <trkpt lat="43.87764" lon="1.78924">
        <ele>123</ele>
        <time>2018-07-15T09:00:41Z</time>
      </trkpt>
      <trkpt lat="43.87762" lon="1.78916">
        <ele>123</ele>
        <time>2018-07-15T09:00:42Z</time>
      </trkpt>
      <trkpt lat="43.8776" lon="1.78907">
        <ele>123</ele>
        <time>2018-07-15T09:00:43Z</time>
      </trkpt>
      <trkpt lat="43.87759" lon="1.78898">
        <ele>123</ele>
        <time>2018-07-15T09:00:44Z</time>
      </trkpt>
      <trkpt lat="43.87757" lon="1.78889">
        <ele>123</ele>
        <time>2018-07-15T09:00:45Z</time>
      </trkpt>
      <trkpt lat="43.87756" lon="1.78881">
        <ele>123</ele>
        <time>2018-07-15T09:00:46Z</time>
      </trkpt>
      <trkpt lat="43.87755" lon="1.78872">
        <ele>123</ele>
        <time>2018-07-15T09:00:47Z</time>
      </trkpt>
      <trkpt lat="43.87754" lon="1.78863">
        <ele>123</ele>
        <time>2018-07-15T09:00:48Z</time>
      </trkpt>
      <trkpt lat="43.87754" lon="1.78854">
        <ele>123</ele>
        <time>2018-07-15T09:00:49Z</time>
      </trkpt>
      <trkpt lat="43.87753" lon="1.78846">
        <ele>123</ele>
        <time>2018-07-15T09:00:50Z</time>
      </trkpt>
      <trkpt lat="43.87752" lon="1.78837">
        <ele>123</ele>
        <time>2018-07-15T09:00:51Z</time>
      </trkpt>
      <trkpt lat="43.87751" lon="1.78829">
        <ele>123</ele>
        <time>2018-07-15T09:00:52Z</time>
      </trkpt>
      <trkpt lat="43.8775" lon="1.7882">
        <ele>123</ele>
        <time>2018-07-15T09:00:53Z</time>
      </trkpt>
      <trkpt lat="43.87749" lon="1.78811">
        <ele>123</ele>
        <time>2018-07-15T09:00:54Z</time>
      </trkpt>
      <trkpt lat="43.87748" lon="1.78803">
        <ele>123</ele>
        <time>2018-07-15T09:00:55Z</time>
      </trkpt>
      <trkpt lat="43.87747" lon="1.78795">
        <ele>123</ele>
        <time>2018-07-15T09:00:56Z</time>
      </trkpt>
      <trkpt lat="43.87746" lon="1.78787">
        <ele>123</ele>
        <time>2018-07-15T09:00:57Z</time>
      </trkpt>
      <trkpt lat="43.87746" lon="1.78779">
        <ele>123</ele>
        <time>2018-07-15T09:00:58Z</time>
      </trkpt>
      <trkpt lat="43.87746" lon="1.78772">
        <ele>123</ele>
        <time>2018-07-15T09:00:59Z</time>
      </trkpt>
      <trkpt lat="43.87745" lon="1.78764">
        <ele>123</ele>
        <time>2018-07-15T09:01:00Z</time>
      </trkpt>
      <trkpt lat="43.87744" lon="1.78757">
        <ele>123</ele>
        <time>2018-07-15T09:01:01Z</time>
      </trkpt>
      <trkpt lat="43.87743" lon="1.7875">
        <ele>123</ele>
        <time>2018-07-15T09:01:02Z</time>
      </trkpt>
      <trkpt lat="43.87743" lon="1.78743">
        <ele>123</ele>
        <time>2018-07-15T09:01:03Z</time>
      </trkpt>
      <trkpt lat="43.87742" lon="1.78736">
        <ele>123</ele>
        <time>2018-07-15T09:01:04Z</time>
      </trkpt>
      <trkpt lat="43.87741" lon="1.78729">
        <ele>123</ele>
        <time>2018-07-15T09:01:05Z</time>
      </trkpt>
      <trkpt lat="43.87741" lon="1.78721">
        <ele>123</ele>
        <time>2018-07-15T09:01:06Z</time>
      </trkpt>
      <trkpt lat="43.8774" lon="1.78715">
        <ele>123</ele>
        <time>2018-07-15T09:01:07Z</time>
      </trkpt>
      <trkpt lat="43.87739" lon="1.78709">
        <ele>124</ele>
        <time>2018-07-15T09:01:08Z</time>
      </trkpt>
      <trkpt lat="43.87738" lon="1.78702">
        <ele>124</ele>
        <time>2018-07-15T09:01:09Z</time>
      </trkpt>
      <trkpt lat="43.87738" lon="1.78696">
        <ele>124</ele>
        <time>2018-07-15T09:01:10Z</time>
      </trkpt>
      <trkpt lat="43.87739" lon="1.7869">
        <ele>124</ele>
        <time>2018-07-15T09:01:11Z</time>
      </trkpt>
      <trkpt lat="43.87741" lon="1.78686">
        <ele>124</ele>
        <time>2018-07-15T09:01:12Z</time>
      </trkpt>
      <trkpt lat="43.87744" lon="1.78682">
        <ele>124</ele>
        <time>2018-07-15T09:01:13Z</time>
      </trkpt>
      <trkpt lat="43.87748" lon="1.78679">
        <ele>124</ele>
        <time>2018-07-15T09:01:14Z</time>
      </trkpt>
      <trkpt lat="43.87752" lon="1.78676">
        <ele>124</ele>
        <time>2018-07-15T09:01:15Z</time>
      </trkpt>
      <trkpt lat="43.87756" lon="1.78673">
        <ele>124</ele>
        <time>2018-07-15T09:01:16Z</time>
      </trkpt>
      <trkpt lat="43.8776" lon="1.7867">
        <ele>124</ele>
        <time>2018-07-15T09:01:17Z</time>
      </trkpt>
      <trkpt lat="43.87765" lon="1.78667">
        <ele>124</ele>
        <time>2018-07-15T09:01:18Z</time>
      </trkpt>
      <trkpt lat="43.87769" lon="1.78663">
        <ele>124</ele>
        <time>2018-07-15T09:01:19Z</time>
      </trkpt>
      <trkpt lat="43.87774" lon="1.7866">
        <ele>124</ele>
        <time>2018-07-15T09:01:20Z</time>
      </trkpt>
      <trkpt lat="43.87778" lon="1.78656">
        <ele>124</ele>
        <time>2018-07-15T09:01:21Z</time>
      </trkpt>
      <trkpt lat="43.87782" lon="1.78652">
        <ele>124</ele>
        <time>2018-07-15T09:01:22Z</time>
      </trkpt>
      <trkpt lat="43.87786" lon="1.78649">
        <ele>125</ele>
        <time>2018-07-15T09:01:23Z</time>
      </trkpt>
      <trkpt lat="43.8779" lon="1.78645">
        <ele>125</ele>
        <time>2018-07-15T09:01:24Z</time>
      </trkpt>
      <trkpt lat="43.87794" lon="1.78642">
        <ele>125</ele>
        <time>2018-07-15T09:01:25Z</time>
      </trkpt>
      <trkpt lat="43.87797" lon="1.78638">
        <ele>125</ele>
        <time>2018-07-15T09:01:26Z</time>
      </trkpt>
      <trkpt lat="43.87801" lon="1.78634">
        <ele>125</ele>
        <time>2018-07-15T09:01:27Z</time>
      </trkpt>
      <trkpt lat="43.87805" lon="1.78631">
        <ele>125</ele>
        <time>2018-07-15T09:01:28Z</time>
      </trkpt>
      <trkpt lat="43.87808" lon="1.78628">
        <ele>125</ele>
        <time>2018-07-15T09:01:29Z</time>
      </trkpt>
      <trkpt lat="43.87812" lon="1.78625">
        <ele>126</ele>
        <time>2018-07-15T09:01:30Z</time>
      </trkpt>
      <trkpt lat="43.87816" lon="1.78622">
        <ele>126</ele>
        <time>2018-07-15T09:01:31Z</time>
      </trkpt>
      <trkpt lat="43.8782" lon="1.78619">
        <ele>126</ele>
        <time>2018-07-15T09:01:32Z</time>
      </trkpt>
      <trkpt lat="43.87823" lon="1.78616">
        <ele>126</ele>
        <time>2018-07-15T09:01:33Z</time>
      </trkpt>
      <trkpt lat="43.87827" lon="1.78612">
        <ele>126</ele>
        <time>2018-07-15T09:01:34Z</time>
      </trkpt>
      <trkpt lat="43.8783" lon="1.78609">
        <ele>126</ele>
        <time>2018-07-15T09:01:35Z</time>
      </trkpt>
      <trkpt lat="43.87834" lon="1.78605">
        <ele>126</ele>
        <time>2018-07-15T09:01:36Z</time>
      </trkpt>
      <trkpt lat="43.87837" lon="1.78602">
        <ele>126</ele>
        <time>2018-07-15T09:01:37Z</time>
      </trkpt>
      <trkpt lat="43.87841" lon="1.78598">
        <ele>127</ele>
        <time>2018-07-15T09:01:38Z</time>
      </trkpt>
      <trkpt lat="43.87844" lon="1.78595">
        <ele>127</ele>
        <time>2018-07-15T09:01:39Z</time>
      </trkpt>
      <trkpt lat="43.87848" lon="1.78593">
        <ele>127</ele>
        <time>2018-07-15T09:01:40Z</time>
      </trkpt>
      <trkpt lat="43.87851" lon="1.7859">
        <ele>127</ele>
        <time>2018-07-15T09:01:41Z</time>
      </trkpt>
      <trkpt lat="43.87855" lon="1.78587">
        <ele>127</ele>
        <time>2018-07-15T09:01:42Z</time>
      </trkpt>
      <trkpt lat="43.87858" lon="1.78585">
        <ele>127</ele>
        <time>2018-07-15T09:01:43Z</time>
      </trkpt>
      <trkpt lat="43.87861" lon="1.78581">
        <ele>127</ele>
        <time>2018-07-15T09:01:44Z</time>
      </trkpt>
      <trkpt lat="43.87864" lon="1.78578">
        <ele>128</ele>
        <time>2018-07-15T09:01:45Z</time>
      </trkpt>
      <trkpt lat="43.87868" lon="1.78575">
        <ele>128</ele>
        <time>2018-07-15T09:01:46Z</time>
      </trkpt>
      <trkpt lat="43.87871" lon="1.78571">
        <ele>128</ele>
        <time>2018-07-15T09:01:47Z</time>
      </trkpt>
      <trkpt lat="43.87874" lon="1.78568">
        <ele>128</ele>
        <time>2018-07-15T09:01:48Z</time>
      </trkpt>
      <trkpt lat="43.87877" lon="1.78564">
        <ele>128</ele>
        <time>2018-07-15T09:01:49Z</time>
      </trkpt>
      <trkpt lat="43.8788" lon="1.78561">
        <ele>129</ele>
        <time>2018-07-15T09:01:50Z</time>
      </trkpt>
      <trkpt lat="43.87883" lon="1.78558">
        <ele>129</ele>
        <time>2018-07-15T09:01:51Z</time>
      </trkpt>
      <trkpt lat="43.87886" lon="1.78555">
        <ele>129</ele>
        <time>2018-07-15T09:01:52Z</time>
      </trkpt>
      <trkpt lat="43.87889" lon="1.78551">
        <ele>129</ele>
        <time>2018-07-15T09:01:53Z</time>
      </trkpt>
      <trkpt lat="43.87892" lon="1.78548">
        <ele>129</ele>
        <time>2018-07-15T09:01:54Z</time>
      </trkpt>
      <trkpt lat="43.87895" lon="1.78545">
        <ele>129</ele>
        <time>2018-07-15T09:01:55Z</time>
      </trkpt>
      <trkpt lat="43.87898" lon="1.78541">
        <ele>129</ele>
        <time>2018-07-15T09:01:56Z</time>
      </trkpt>
      <trkpt lat="43.87901" lon="1.78537">
        <ele>130</ele>
        <time>2018-07-15T09:01:57Z</time>
      </trkpt>
      <trkpt lat="43.87904" lon="1.78533">
        <ele>130</ele>
        <time>2018-07-15T09:01:58Z</time>
      </trkpt>
      <trkpt lat="43.87907" lon="1.7853">
        <ele>130</ele>
        <time>2018-07-15T09:01:59Z</time>
      </trkpt>
      <trkpt lat="43.8791" lon="1.78526">
        <ele>130</ele>
        <time>2018-07-15T09:02:00Z</time>
      </trkpt>
      <trkpt lat="43.87913" lon="1.78523">
        <ele>130</ele>
        <time>2018-07-15T09:02:01Z</time>
      </trkpt>
      <trkpt lat="43.87916" lon="1.78519">
        <ele>130</ele>
        <time>2018-07-15T09:02:02Z</time>
      </trkpt>
      <trkpt lat="43.87919" lon="1.78515">
        <ele>131</ele>
        <time>2018-07-15T09:02:03Z</time>
      </trkpt>
      <trkpt lat="43.87922" lon="1.78512">
        <ele>131</ele>
        <time>2018-07-15T09:02:04Z</time>
      </trkpt>
      <trkpt lat="43.87925" lon="1.78508">
        <ele>131</ele>
        <time>2018-07-15T09:02:05Z</time>
      </trkpt>
      <trkpt lat="43.87928" lon="1.78504">
        <ele>131</ele>
        <time>2018-07-15T09:02:06Z</time>
      </trkpt>
      <trkpt lat="43.87931" lon="1.78501">
        <ele>131</ele>
        <time>2018-07-15T09:02:07Z</time>
      </trkpt>
      <trkpt lat="43.87934" lon="1.78497">
        <ele>131</ele>
        <time>2018-07-15T09:02:08Z</time>
      </trkpt>
      <trkpt lat="43.87937" lon="1.78493">
        <ele>132</ele>
        <time>2018-07-15T09:02:09Z</time>
      </trkpt>
      <trkpt lat="43.8794" lon="1.78488">
        <ele>132</ele>
        <time>2018-07-15T09:02:10Z</time>
      </trkpt>
      <trkpt lat="43.87943" lon="1.78485">
        <ele>132</ele>
        <time>2018-07-15T09:02:11Z</time>
      </trkpt>
      <trkpt lat="43.87946" lon="1.78481">
        <ele>132</ele>
        <time>2018-07-15T09:02:12Z</time>
      </trkpt>
      <trkpt lat="43.87949" lon="1.78478">
        <ele>132</ele>
        <time>2018-07-15T09:02:13Z</time>
      </trkpt>
      <trkpt lat="43.87953" lon="1.78475">
        <ele>132</ele>
        <time>2018-07-15T09:02:14Z</time>
      </trkpt>
      <trkpt lat="43.87956" lon="1.78471">
        <ele>133</ele>
        <time>2018-07-15T09:02:15Z</time>
      </trkpt>
      <trkpt lat="43.87959" lon="1.78467">
        <ele>133</ele>
        <time>2018-07-15T09:02:16Z</time>
      </trkpt>
      <trkpt lat="43.87962" lon="1.78463">
        <ele>133</ele>
        <time>2018-07-15T09:02:17Z</time>
      </trkpt>
      <trkpt lat="43.87965" lon="1.7846">
        <ele>133</ele>
        <time>2018-07-15T09:02:18Z</time>
      </trkpt>
      <trkpt lat="43.87969" lon="1.78456">
        <ele>133</ele>
        <time>2018-07-15T09:02:19Z</time>
      </trkpt>
      <trkpt lat="43.87972" lon="1.78452">
        <ele>133</ele>
        <time>2018-07-15T09:02:20Z</time>
      </trkpt>
      <trkpt lat="43.87975" lon="1.78448">
        <ele>133</ele>
        <time>2018-07-15T09:02:21Z</time>
      </trkpt>
      <trkpt lat="43.87978" lon="1.78445">
        <ele>133</ele>
        <time>2018-07-15T09:02:22Z</time>
      </trkpt>
      <trkpt lat="43.87981" lon="1.78442">
        <ele>134</ele>
        <time>2018-07-15T09:02:23Z</time>
      </trkpt>
      <trkpt lat="43.87985" lon="1.78438">
        <ele>134</ele>
        <time>2018-07-15T09:02:24Z</time>
      </trkpt>
      <trkpt lat="43.87988" lon="1.78435">
        <ele>134</ele>
        <time>2018-07-15T09:02:25Z</time>
      </trkpt>
      <trkpt lat="43.87991" lon="1.78431">
        <ele>134</ele>
        <time>2018-07-15T09:02:26Z</time>
      </trkpt>
      <trkpt lat="43.87994" lon="1.78428">
        <ele>135</ele>
        <time>2018-07-15T09:02:27Z</time>
      </trkpt>
      <trkpt lat="43.87997" lon="1.78424">
        <ele>135</ele>
        <time>2018-07-15T09:02:28Z</time>
      </trkpt>
      <trkpt lat="43.87999" lon="1.78421">
        <ele>135</ele>
        <time>2018-07-15T09:02:29Z</time>
      </trkpt>
      <trkpt lat="43.88003" lon="1.78418">
        <ele>135</ele>
        <time>2018-07-15T09:02:30Z</time>
      </trkpt>
      <trkpt lat="43.88006" lon="1.78415">
        <ele>136</ele>
        <time>2018-07-15T09:02:31Z</time>
      </trkpt>
      <trkpt lat="43.88009" lon="1.78411">
        <ele>136</ele>
        <time>2018-07-15T09:02:32Z</time>
      </trkpt>
      <trkpt lat="43.88012" lon="1.78408">
        <ele>136</ele>
        <time>2018-07-15T09:02:33Z</time>
      </trkpt>
      <trkpt lat="43.88016" lon="1.78405">
        <ele>136</ele>
        <time>2018-07-15T09:02:34Z</time>
      </trkpt>
      <trkpt lat="43.88019" lon="1.78403">
        <ele>136</ele>
        <time>2018-07-15T09:02:35Z</time>
      </trkpt>
      <trkpt lat="43.88023" lon="1.784">
        <ele>136</ele>
        <time>2018-07-15T09:02:36Z</time>
      </trkpt>
      <trkpt lat="43.88026" lon="1.78397">
        <ele>136</ele>
        <time>2018-07-15T09:02:37Z</time>
      </trkpt>
      <trkpt lat="43.88029" lon="1.78394">
        <ele>136</ele>
        <time>2018-07-15T09:02:38Z</time>
      </trkpt>
      <trkpt lat="43.88033" lon="1.78392">
        <ele>137</ele>
        <time>2018-07-15T09:02:39Z</time>
      </trkpt>
      <trkpt lat="43.88036" lon="1.7839">
        <ele>137</ele>
        <time>2018-07-15T09:02:40Z</time>
      </trkpt>
      <trkpt lat="43.8804" lon="1.78388">
        <ele>137</ele>
        <time>2018-07-15T09:02:41Z</time>
      </trkpt>
      <trkpt lat="43.88043" lon="1.78386">
        <ele>137</ele>
        <time>2018-07-15T09:02:42Z</time>
      </trkpt>
      <trkpt lat="43.88046" lon="1.78383">
        <ele>137</ele>
        <time>2018-07-15T09:02:43Z</time>
      </trkpt>
      <trkpt lat="43.88049" lon="1.78381">
        <ele>138</ele>
        <time>2018-07-15T09:02:44Z</time>
      </trkpt>
      <trkpt lat="43.88052" lon="1.78379">
        <ele>138</ele>
        <time>2018-07-15T09:02:45Z</time>
      </trkpt>
      <trkpt lat="43.88056" lon="1.78378">
        <ele>138</ele>
        <time>2018-07-15T09:02:46Z</time>
      </trkpt>
      <trkpt lat="43.88059" lon="1.78376">
        <ele>138</ele>
        <time>2018-07-15T09:02:47Z</time>
      </trkpt>
      <trkpt lat="43.88062" lon="1.78374">
        <ele>139</ele>
        <time>2018-07-15T09:02:48Z</time>
      </trkpt>
      <trkpt lat="43.88065" lon="1.78372">
        <ele>139</ele>
        <time>2018-07-15T09:02:49Z</time>
      </trkpt>
      <trkpt lat="43.88068" lon="1.7837">
        <ele>139</ele>
        <time>2018-07-15T09:02:50Z</time>
      </trkpt>
      <trkpt lat="43.88072" lon="1.78369">
        <ele>139</ele>
        <time>2018-07-15T09:02:51Z</time>
      </trkpt>
      <trkpt lat="43.88075" lon="1.78367">
        <ele>139</ele>
        <time>2018-07-15T09:02:52Z</time>
      </trkpt>
      <trkpt lat="43.88079" lon="1.78365">
        <ele>139</ele>
        <time>2018-07-15T09:02:53Z</time>
      </trkpt>
      <trkpt lat="43.88082" lon="1.78363">
        <ele>139</ele>
        <time>2018-07-15T09:02:54Z</time>
      </trkpt>
      <trkpt lat="43.88085" lon="1.7836">
        <ele>140</ele>
        <time>2018-07-15T09:02:55Z</time>
      </trkpt>
      <trkpt lat="43.88089" lon="1.78358">
        <ele>140</ele>
        <time>2018-07-15T09:02:56Z</time>
      </trkpt>
      <trkpt lat="43.88092" lon="1.78356">
        <ele>140</ele>
        <time>2018-07-15T09:02:57Z</time>
      </trkpt>
      <trkpt lat="43.88095" lon="1.78355">
        <ele>140</ele>
        <time>2018-07-15T09:02:58Z</time>
      </trkpt>
      <trkpt lat="43.88098" lon="1.78353">
        <ele>140</ele>
        <time>2018-07-15T09:02:59Z</time>
      </trkpt>
      <trkpt lat="43.88102" lon="1.78351">
        <ele>140</ele>
        <time>2018-07-15T09:03:00Z</time>
      </trkpt>
      <trkpt lat="43.88105" lon="1.78349">
        <ele>140</ele>
        <time>2018-07-15T09:03:01Z</time>
      </trkpt>
      <trkpt lat="43.88108" lon="1.78347">
        <ele>140</ele>
        <time>2018-07-15T09:03:02Z</time>
      </trkpt>
      <trkpt lat="43.88111" lon="1.78345">
        <ele>140</ele>
        <time>2018-07-15T09:03:03Z</time>
      </trkpt>
      <trkpt lat="43.88115" lon="1.78343">
        <ele>141</ele>
        <time>2018-07-15T09:03:04Z</time>
      </trkpt>
      <trkpt lat="43.88118" lon="1.78342">
        <ele>141</ele>
        <time>2018-07-15T09:03:05Z</time>
      </trkpt>
      <trkpt lat="43.88122" lon="1.7834">
        <ele>141</ele>
        <time>2018-07-15T09:03:06Z</time>
      </trkpt>
      <trkpt lat="43.88125" lon="1.78337">
        <ele>141</ele>
        <time>2018-07-15T09:03:07Z</time>
      </trkpt>
      <trkpt lat="43.88128" lon="1.78335">
        <ele>141</ele>
        <time>2018-07-15T09:03:08Z</time>
      </trkpt>
      <trkpt lat="43.88131" lon="1.78333">
        <ele>141</ele>
        <time>2018-07-15T09:03:09Z</time>
      </trkpt>
      <trkpt lat="43.88134" lon="1.78331">
        <ele>141</ele>
        <time>2018-07-15T09:03:10Z</time>
      </trkpt>
      <trkpt lat="43.88138" lon="1.78329">
        <ele>142</ele>
        <time>2018-07-15T09:03:11Z</time>
      </trkpt>
      <trkpt lat="43.88141" lon="1.78327">
        <ele>142</ele>
        <time>2018-07-15T09:03:12Z</time>
      </trkpt>
      <trkpt lat="43.88144" lon="1.78324">
        <ele>142</ele>
        <time>2018-07-15T09:03:13Z</time>
      </trkpt>
      <trkpt lat="43.88147" lon="1.78322">
        <ele>142</ele>
        <time>2018-07-15T09:03:14Z</time>
      </trkpt>
      <trkpt lat="43.88151" lon="1.7832">
        <ele>143</ele>
        <time>2018-07-15T09:03:15Z</time>
      </trkpt>
      <trkpt lat="43.88154" lon="1.78318">
        <ele>143</ele>
        <time>2018-07-15T09:03:16Z</time>
      </trkpt>
      <trkpt lat="43.88157" lon="1.78315">
        <ele>143</ele>
        <time>2018-07-15T09:03:17Z</time>
      </trkpt>
      <trkpt lat="43.8816" lon="1.78312">
        <ele>143</ele>
        <time>2018-07-15T09:03:18Z</time>
      </trkpt>
      <trkpt lat="43.88163" lon="1.7831">
        <ele>143</ele>
        <time>2018-07-15T09:03:19Z</time>
      </trkpt>
      <trkpt lat="43.88166" lon="1.78307">
        <ele>143</ele>
        <time>2018-07-15T09:03:20Z</time>
      </trkpt>
      <trkpt lat="43.88169" lon="1.78304">
        <ele>143</ele>
        <time>2018-07-15T09:03:21Z</time>
      </trkpt>
      <trkpt lat="43.88172" lon="1.78301">
        <ele>144</ele>
        <time>2018-07-15T09:03:22Z</time>
      </trkpt>
      <trkpt lat="43.88174" lon="1.78298">
        <ele>144</ele>
        <time>2018-07-15T09:03:23Z</time>
      </trkpt>
      <trkpt lat="43.88177" lon="1.78295">
        <ele>144</ele>
        <time>2018-07-15T09:03:24Z</time>
      </trkpt>
      <trkpt lat="43.8818" lon="1.78292">
        <ele>144</ele>
        <time>2018-07-15T09:03:25Z</time>
      </trkpt>
      <trkpt lat="43.88183" lon="1.78288">
        <ele>144</ele>
        <time>2018-07-15T09:03:26Z</time>
      </trkpt>
      <trkpt lat="43.88186" lon="1.78284">
        <ele>144</ele>
        <time>2018-07-15T09:03:27Z</time>
      </trkpt>
      <trkpt lat="43.88188" lon="1.7828">
        <ele>145</ele>
        <time>2018-07-15T09:03:28Z</time>
      </trkpt>
      <trkpt lat="43.88191" lon="1.78277">
        <ele>145</ele>
        <time>2018-07-15T09:03:29Z</time>
      </trkpt>
      <trkpt lat="43.88193" lon="1.78273">
        <ele>145</ele>
        <time>2018-07-15T09:03:30Z</time>
      </trkpt>
      <trkpt lat="43.88196" lon="1.78269">
        <ele>145</ele>
        <time>2018-07-15T09:03:31Z</time>
      </trkpt>
      <trkpt lat="43.88199" lon="1.78265">
        <ele>145</ele>
        <time>2018-07-15T09:03:32Z</time>
      </trkpt>
      <trkpt lat="43.88201" lon="1.78261">
        <ele>145</ele>
        <time>2018-07-15T09:03:33Z</time>
      </trkpt>
      <trkpt lat="43.88203" lon="1.78257">
        <ele>145</ele>
        <time>2018-07-15T09:03:34Z</time>
      </trkpt>
      <trkpt lat="43.88206" lon="1.78254">
        <ele>145</ele>
        <time>2018-07-15T09:03:35Z</time>
      </trkpt>
      <trkpt lat="43.88208" lon="1.78251">
        <ele>145</ele>
        <time>2018-07-15T09:03:36Z</time>
      </trkpt>
      <trkpt lat="43.88211" lon="1.78247">
        <ele>146</ele>
        <time>2018-07-15T09:03:37Z</time>
      </trkpt>
      <trkpt lat="43.88213" lon="1.78244">
        <ele>146</ele>
        <time>2018-07-15T09:03:38Z</time>
      </trkpt>
      <trkpt lat="43.88216" lon="1.7824">
        <ele>146</ele>
        <time>2018-07-15T09:03:39Z</time>
      </trkpt>
      <trkpt lat="43.88218" lon="1.78237">
        <ele>146</ele>
        <time>2018-07-15T09:03:40Z</time>
      </trkpt>
      <trkpt lat="43.88221" lon="1.78233">
        <ele>146</ele>
        <time>2018-07-15T09:03:41Z</time>
      </trkpt>
      <trkpt lat="43.88223" lon="1.78229">
        <ele>146</ele>
        <time>2018-07-15T09:03:42Z</time>
      </trkpt>
      <trkpt lat="43.88225" lon="1.78226">
        <ele>147</ele>
        <time>2018-07-15T09:03:43Z</time>
      </trkpt>
      <trkpt lat="43.88227" lon="1.78222">
        <ele>147</ele>
        <time>2018-07-15T09:03:44Z</time>
      </trkpt>
      <trkpt lat="43.8823" lon="1.78219">
        <ele>147</ele>
        <time>2018-07-15T09:03:45Z</time>
      </trkpt>
      <trkpt lat="43.88232" lon="1.78216">
        <ele>147</ele>
        <time>2018-07-15T09:03:46Z</time>
      </trkpt>
      <trkpt lat="43.88235" lon="1.78212">
        <ele>147</ele>
        <time>2018-07-15T09:03:47Z</time>
      </trkpt>
      <trkpt lat="43.88237" lon="1.78209">
        <ele>147</ele>
        <time>2018-07-15T09:03:48Z</time>
      </trkpt>
      <trkpt lat="43.8824" lon="1.78206">
        <ele>147</ele>
        <time>2018-07-15T09:03:49Z</time>
      </trkpt>
      <trkpt lat="43.88242" lon="1.78202">
        <ele>148</ele>
        <time>2018-07-15T09:03:50Z</time>
      </trkpt>
      <trkpt lat="43.88244" lon="1.78199">
        <ele>148</ele>
        <time>2018-07-15T09:03:51Z</time>
      </trkpt>
      <trkpt lat="43.88246" lon="1.78195">
        <ele>148</ele>
        <time>2018-07-15T09:03:52Z</time>
      </trkpt>
      <trkpt lat="43.88249" lon="1.78191">
        <ele>148</ele>
        <time>2018-07-15T09:03:53Z</time>
      </trkpt>
      <trkpt lat="43.88251" lon="1.78188">
        <ele>148</ele>
        <time>2018-07-15T09:03:54Z</time>
      </trkpt>
      <trkpt lat="43.88254" lon="1.78185">
        <ele>148</ele>
        <time>2018-07-15T09:03:55Z</time>
      </trkpt>
      <trkpt lat="43.88256" lon="1.78181">
        <ele>149</ele>
        <time>2018-07-15T09:03:56Z</time>
      </trkpt>
      <trkpt lat="43.88258" lon="1.78178">
        <ele>149</ele>
        <time>2018-07-15T09:03:57Z</time>
      </trkpt>
      <trkpt lat="43.8826" lon="1.78174">
        <ele>149</ele>
        <time>2018-07-15T09:03:58Z</time>
      </trkpt>
      <trkpt lat="43.88263" lon="1.78171">
        <ele>149</ele>
        <time>2018-07-15T09:03:59Z</time>
      </trkpt>
      <trkpt lat="43.88265" lon="1.78168">
        <ele>149</ele>
        <time>2018-07-15T09:04:00Z</time>
      </trkpt>
      <trkpt lat="43.88268" lon="1.78164">
        <ele>149</ele>
        <time>2018-07-15T09:04:01Z</time>
      </trkpt>
      <trkpt lat="43.8827" lon="1.78161">
        <ele>149</ele>
        <time>2018-07-15T09:04:02Z</time>
      </trkpt>
      <trkpt lat="43.88272" lon="1.78158">
        <ele>150</ele>
        <time>2018-07-15T09:04:03Z</time>
      </trkpt>
      <trkpt lat="43.88275" lon="1.78154">
        <ele>150</ele>
        <time>2018-07-15T09:04:04Z</time>
      </trkpt>
      <trkpt lat="43.88277" lon="1.7815">
        <ele>150</ele>
        <time>2018-07-15T09:04:05Z</time>
      </trkpt>
      <trkpt lat="43.88279" lon="1.78147">
        <ele>150</ele>
        <time>2018-07-15T09:04:06Z</time>
      </trkpt>
      <trkpt lat="43.88282" lon="1.78143">
        <ele>150</ele>
        <time>2018-07-15T09:04:07Z</time>
      </trkpt>
      <trkpt lat="43.88284" lon="1.7814">
        <ele>150</ele>
        <time>2018-07-15T09:04:08Z</time>
      </trkpt>
      <trkpt lat="43.88287" lon="1.78137">
        <ele>150</ele>
        <time>2018-07-15T09:04:09Z</time>
      </trkpt>
      <trkpt lat="43.88289" lon="1.78133">
        <ele>150</ele>
        <time>2018-07-15T09:04:10Z</time>
      </trkpt>
      <trkpt lat="43.88292" lon="1.7813">
        <ele>150</ele>
        <time>2018-07-15T09:04:11Z</time>
      </trkpt>
      <trkpt lat="43.88294" lon="1.78126">
        <ele>151</ele>
        <time>2018-07-15T09:04:12Z</time>
      </trkpt>
      <trkpt lat="43.88297" lon="1.78122">
        <ele>151</ele>
        <time>2018-07-15T09:04:13Z</time>
      </trkpt>
      <trkpt lat="43.88299" lon="1.78119">
        <ele>151</ele>
        <time>2018-07-15T09:04:14Z</time>
      </trkpt>
      <trkpt lat="43.88302" lon="1.78115">
        <ele>151</ele>
        <time>2018-07-15T09:04:15Z</time>
      </trkpt>
      <trkpt lat="43.88304" lon="1.78112">
        <ele>151</ele>
        <time>2018-07-15T09:04:16Z</time>
      </trkpt>
      <trkpt lat="43.88307" lon="1.78108">
        <ele>151</ele>
        <time>2018-07-15T09:04:17Z</time>
      </trkpt>
      <trkpt lat="43.88309" lon="1.78105">
        <ele>151</ele>
        <time>2018-07-15T09:04:18Z</time>
      </trkpt>
      <trkpt lat="43.88311" lon="1.78101">
        <ele>152</ele>
        <time>2018-07-15T09:04:19Z</time>
      </trkpt>
      <trkpt lat="43.88314" lon="1.78098">
        <ele>152</ele>
        <time>2018-07-15T09:04:20Z</time>
      </trkpt>
      <trkpt lat="43.88316" lon="1.78094">
        <ele>152</ele>
        <time>2018-07-15T09:04:21Z</time>
      </trkpt>
      <trkpt lat="43.88318" lon="1.78091">
        <ele>152</ele>
        <time>2018-07-15T09:04:22Z</time>
      </trkpt>
      <trkpt lat="43.88321" lon="1.78087">
        <ele>152</ele>
        <time>2018-07-15T09:04:23Z</time>
      </trkpt>
      <trkpt lat="43.88323" lon="1.78084">
        <ele>152</ele>
        <time>2018-07-15T09:04:24Z</time>
      </trkpt>
      <trkpt lat="43.88326" lon="1.7808">
        <ele>152</ele>
        <time>2018-07-15T09:04:25Z</time>
      </trkpt>
      <trkpt lat="43.88329" lon="1.78078">
        <ele>152</ele>
        <time>2018-07-15T09:04:26Z</time>
      </trkpt>
      <trkpt lat="43.88331" lon="1.78074">
        <ele>153</ele>
        <time>2018-07-15T09:04:27Z</time>
      </trkpt>
      <trkpt lat="43.88334" lon="1.7807">
        <ele>153</ele>
        <time>2018-07-15T09:04:28Z</time>
      </trkpt>
      <trkpt lat="43.88337" lon="1.78067">
        <ele>152</ele>
        <time>2018-07-15T09:04:29Z</time>
      </trkpt>
      <trkpt lat="43.8834" lon="1.78063">
        <ele>152</ele>
        <time>2018-07-15T09:04:30Z</time>
      </trkpt>
      <trkpt lat="43.88343" lon="1.78059">
        <ele>152</ele>
        <time>2018-07-15T09:04:31Z</time>
      </trkpt>
      <trkpt lat="43.88346" lon="1.78055">
        <ele>152</ele>
        <time>2018-07-15T09:04:32Z</time>
      </trkpt>
      <trkpt lat="43.8835" lon="1.78051">
        <ele>152</ele>
        <time>2018-07-15T09:04:33Z</time>
      </trkpt>
      <trkpt lat="43.88354" lon="1.78047">
        <ele>152</ele>
        <time>2018-07-15T09:04:34Z</time>
      </trkpt>
      <trkpt lat="43.88358" lon="1.78042">
        <ele>151</ele>
        <time>2018-07-15T09:04:35Z</time>
      </trkpt>
      <trkpt lat="43.88362" lon="1.78038">
        <ele>151</ele>
        <time>2018-07-15T09:04:36Z</time>
      </trkpt>
      <trkpt lat="43.88366" lon="1.78033">
        <ele>151</ele>
        <time>2018-07-15T09:04:37Z</time>
      </trkpt>
      <trkpt lat="43.88371" lon="1.78029">
        <ele>151</ele>
        <time>2018-07-15T09:04:38Z</time>
      </trkpt>
      <trkpt lat="43.88375" lon="1.78024">
        <ele>150</ele>
        <time>2018-07-15T09:04:39Z</time>
      </trkpt>
      <trkpt lat="43.8838" lon="1.78019">
        <ele>150</ele>
        <time>2018-07-15T09:04:40Z</time>
      </trkpt>
      <trkpt lat="43.88385" lon="1.78014">
        <ele>150</ele>
        <time>2018-07-15T09:04:41Z</time>
      </trkpt>
      <trkpt lat="43.8839" lon="1.78009">
        <ele>149</ele>
        <time>2018-07-15T09:04:42Z</time>
      </trkpt>
      <trkpt lat="43.88395" lon="1.78004">
        <ele>149</ele>
        <time>2018-07-15T09:04:43Z</time>
      </trkpt>
      <trkpt lat="43.884" lon="1.77998">
        <ele>149</ele>
        <time>2018-07-15T09:04:44Z</time>
      </trkpt>
      <trkpt lat="43.88405" lon="1.77993">
        <ele>149</ele>
        <time>2018-07-15T09:04:45Z</time>
      </trkpt>
      <trkpt lat="43.88411" lon="1.77987">
        <ele>148</ele>
        <time>2018-07-15T09:04:46Z</time>
      </trkpt>
      <trkpt lat="43.88416" lon="1.77981">
        <ele>148</ele>
        <time>2018-07-15T09:04:47Z</time>
      </trkpt>
      <trkpt lat="43.88422" lon="1.77975">
        <ele>148</ele>
        <time>2018-07-15T09:04:48Z</time>
      </trkpt>
      <trkpt lat="43.88428" lon="1.77968">
        <ele>147</ele>
        <time>2018-07-15T09:04:49Z</time>
      </trkpt>
      <trkpt lat="43.88434" lon="1.77962">
        <ele>147</ele>
        <time>2018-07-15T09:04:50Z</time>
      </trkpt>
      <trkpt lat="43.88439" lon="1.77955">
        <ele>146</ele>
        <time>2018-07-15T09:04:51Z</time>
      </trkpt>
      <trkpt lat="43.88445" lon="1.77948">
        <ele>146</ele>
        <time>2018-07-15T09:04:52Z</time>
      </trkpt>
      <trkpt lat="43.8845" lon="1.77941">
        <ele>146</ele>
        <time>2018-07-15T09:04:53Z</time>
      </trkpt>
      <trkpt lat="43.88456" lon="1.77932">
        <ele>145</ele>
        <time>2018-07-15T09:04:54Z</time>
      </trkpt>
      <trkpt lat="43.88461" lon="1.77924">
        <ele>145</ele>
        <time>2018-07-15T09:04:55Z</time>
      </trkpt>
      <trkpt lat="43.88466" lon="1.77915">
        <ele>144</ele>
        <time>2018-07-15T09:04:56Z</time>
      </trkpt>
      <trkpt lat="43.88471" lon="1.77906">
        <ele>144</ele>
        <time>2018-07-15T09:04:57Z</time>
      </trkpt>
      <trkpt lat="43.88475" lon="1.77896">
        <ele>144</ele>
        <time>2018-07-15T09:04:58Z</time>
      </trkpt>
      <trkpt lat="43.8848" lon="1.77886">
        <ele>143</ele>
        <time>2018-07-15T09:04:59Z</time>
      </trkpt>
      <trkpt lat="43.88484" lon="1.77876">
        <ele>143</ele>
        <time>2018-07-15T09:05:00Z</time>
      </trkpt>
      <trkpt lat="43.88488" lon="1.77865">
        <ele>142</ele>
        <time>2018-07-15T09:05:01Z</time>
      </trkpt>
      <trkpt lat="43.88492" lon="1.77854">
        <ele>142</ele>
        <time>2018-07-15T09:05:02Z</time>
      </trkpt>
      <trkpt lat="43.88495" lon="1.77843">
        <ele>141</ele>
        <time>2018-07-15T09:05:03Z</time>
      </trkpt>
      <trkpt lat="43.88498" lon="1.77833">
        <ele>141</ele>
        <time>2018-07-15T09:05:04Z</time>
      </trkpt>
      <trkpt lat="43.88501" lon="1.77822">
        <ele>141</ele>
        <time>2018-07-15T09:05:05Z</time>
      </trkpt>
      <trkpt lat="43.88504" lon="1.77811">
        <ele>140</ele>
        <time>2018-07-15T09:05:06Z</time>
      </trkpt>
      <trkpt lat="43.88507" lon="1.778">
        <ele>140</ele>
        <time>2018-07-15T09:05:07Z</time>
      </trkpt>
      <trkpt lat="43.8851" lon="1.77789">
        <ele>140</ele>
        <time>2018-07-15T09:05:08Z</time>
      </trkpt>
      <trkpt lat="43.88514" lon="1.77778">
        <ele>140</ele>
        <time>2018-07-15T09:05:09Z</time>
      </trkpt>
      <trkpt lat="43.88517" lon="1.77768">
        <ele>140</ele>
        <time>2018-07-15T09:05:10Z</time>
      </trkpt>
      <trkpt lat="43.88521" lon="1.77758">
        <ele>139</ele>
        <time>2018-07-15T09:05:11Z</time>
      </trkpt>
      <trkpt lat="43.88524" lon="1.77748">
        <ele>139</ele>
        <time>2018-07-15T09:05:12Z</time>
      </trkpt>
      <trkpt lat="43.88527" lon="1.77738">
        <ele>139</ele>
        <time>2018-07-15T09:05:13Z</time>
      </trkpt>
      <trkpt lat="43.8853" lon="1.77728">
        <ele>139</ele>
        <time>2018-07-15T09:05:14Z</time>
      </trkpt>
      <trkpt lat="43.88532" lon="1.77719">
        <ele>139</ele>
        <time>2018-07-15T09:05:15Z</time>
      </trkpt>
      <trkpt lat="43.88535" lon="1.77709">
        <ele>139</ele>
        <time>2018-07-15T09:05:16Z</time>
      </trkpt>
      <trkpt lat="43.88537" lon="1.777">
        <ele>139</ele>
        <time>2018-07-15T09:05:17Z</time>
      </trkpt>
      <trkpt lat="43.8854" lon="1.77691">
        <ele>139</ele>
        <time>2018-07-15T09:05:18Z</time>
      </trkpt>
      <trkpt lat="43.88543" lon="1.77682">
        <ele>139</ele>
        <time>2018-07-15T09:05:19Z</time>
      </trkpt>
      <trkpt lat="43.88546" lon="1.77673">
        <ele>139</ele>
        <time>2018-07-15T09:05:20Z</time>
      </trkpt>
      <trkpt lat="43.88549" lon="1.77664">
        <ele>139</ele>
        <time>2018-07-15T09:05:21Z</time>
      </trkpt>
      <trkpt lat="43.88552" lon="1.77656">
        <ele>139</ele>
        <time>2018-07-15T09:05:22Z</time>
      </trkpt>
      <trkpt lat="43.88555" lon="1.77647">
        <ele>139</ele>
        <time>2018-07-15T09:05:23Z</time>
      </trkpt>
      <trkpt lat="43.88558" lon="1.77638">
        <ele>139</ele>
        <time>2018-07-15T09:05:24Z</time>
      </trkpt>
      <trkpt lat="43.88561" lon="1.77629">
        <ele>139</ele>
        <time>2018-07-15T09:05:25Z</time>
      </trkpt>
      <trkpt lat="43.88563" lon="1.77621">
        <ele>139</ele>
        <time>2018-07-15T09:05:26Z</time>
      </trkpt>
      <trkpt lat="43.88566" lon="1.77613">
        <ele>139</ele>
        <time>2018-07-15T09:05:27Z</time>
      </trkpt>
      <trkpt lat="43.88569" lon="1.77604">
        <ele>139</ele>
        <time>2018-07-15T09:05:28Z</time>
      </trkpt>
      <trkpt lat="43.88571" lon="1.77596">
        <ele>139</ele>
        <time>2018-07-15T09:05:29Z</time>
      </trkpt>
      <trkpt lat="43.88574" lon="1.77587">
        <ele>139</ele>
        <time>2018-07-15T09:05:30Z</time>
      </trkpt>
      <trkpt lat="43.88577" lon="1.77578">
        <ele>139</ele>
        <time>2018-07-15T09:05:31Z</time>
      </trkpt>
      <trkpt lat="43.8858" lon="1.7757">
        <ele>139</ele>
        <time>2018-07-15T09:05:32Z</time>
      </trkpt>
      <trkpt lat="43.88583" lon="1.77562">
        <ele>139</ele>
        <time>2018-07-15T09:05:33Z</time>
      </trkpt>
      <trkpt lat="43.88587" lon="1.77555">
        <ele>139</ele>
        <time>2018-07-15T09:05:34Z</time>
      </trkpt>
      <trkpt lat="43.8859" lon="1.77546">
        <ele>139</ele>
        <time>2018-07-15T09:05:35Z</time>
      </trkpt>
      <trkpt lat="43.88593" lon="1.77538">
        <ele>139</ele>
        <time>2018-07-15T09:05:36Z</time>
      </trkpt>
      <trkpt lat="43.88597" lon="1.7753">
        <ele>139</ele>
        <time>2018-07-15T09:05:37Z</time>
      </trkpt>
      <trkpt lat="43.886" lon="1.77523">
        <ele>139</ele>
        <time>2018-07-15T09:05:38Z</time>
      </trkpt>
      <trkpt lat="43.88604" lon="1.77515">
        <ele>139</ele>
        <time>2018-07-15T09:05:39Z</time>
      </trkpt>
      <trkpt lat="43.88608" lon="1.77508">
        <ele>139</ele>
        <time>2018-07-15T09:05:40Z</time>
      </trkpt>
      <trkpt lat="43.88611" lon="1.775">
        <ele>139</ele>
        <time>2018-07-15T09:05:41Z</time>
      </trkpt>
      <trkpt lat="43.88615" lon="1.77493">
        <ele>139</ele>
        <time>2018-07-15T09:05:42Z</time>
      </trkpt>
      <trkpt lat="43.88619" lon="1.77486">
        <ele>139</ele>
        <time>2018-07-15T09:05:43Z</time>
      </trkpt>
      <trkpt lat="43.88623" lon="1.77479">
        <ele>138</ele>
        <time>2018-07-15T09:05:44Z</time>
      </trkpt>
      <trkpt lat="43.88627" lon="1.77471">
        <ele>138</ele>
        <time>2018-07-15T09:05:45Z</time>
      </trkpt>
      <trkpt lat="43.88632" lon="1.77464">
        <ele>138</ele>
        <time>2018-07-15T09:05:46Z</time>
      </trkpt>
      <trkpt lat="43.88636" lon="1.77457">
        <ele>138</ele>
        <time>2018-07-15T09:05:47Z</time>
      </trkpt>
      <trkpt lat="43.88641" lon="1.7745">
        <ele>138</ele>
        <time>2018-07-15T09:05:48Z</time>
      </trkpt>
      <trkpt lat="43.88646" lon="1.77443">
        <ele>138</ele>
        <time>2018-07-15T09:05:49Z</time>
      </trkpt>
      <trkpt lat="43.88651" lon="1.77436">
        <ele>138</ele>
        <time>2018-07-15T09:05:50Z</time>
      </trkpt>
      <trkpt lat="43.88656" lon="1.77429">
        <ele>137</ele>
        <time>2018-07-15T09:05:51Z</time>
      </trkpt>
      <trkpt lat="43.88661" lon="1.77423">
        <ele>137</ele>
        <time>2018-07-15T09:05:52Z</time>
      </trkpt>
      <trkpt lat="43.88667" lon="1.77417">
        <ele>137</ele>
        <time>2018-07-15T09:05:53Z</time>
      </trkpt>
      <trkpt lat="43.88673" lon="1.77412">
        <ele>137</ele>
        <time>2018-07-15T09:05:54Z</time>
      </trkpt>
      <trkpt lat="43.88679" lon="1.77407">
        <ele>137</ele>
        <time>2018-07-15T09:05:55Z</time>
      </trkpt>
      <trkpt lat="43.88684" lon="1.77402">
        <ele>137</ele>
        <time>2018-07-15T09:05:56Z</time>
      </trkpt>
      <trkpt lat="43.8869" lon="1.77397">
        <ele>137</ele>
        <time>2018-07-15T09:05:57Z</time>
      </trkpt>
      <trkpt lat="43.88696" lon="1.77393">
        <ele>137</ele>
        <time>2018-07-15T09:05:58Z</time>
      </trkpt>
      <trkpt lat="43.88702" lon="1.77387">
        <ele>137</ele>
        <time>2018-07-15T09:05:59Z</time>
      </trkpt>
      <trkpt lat="43.88708" lon="1.77382">
        <ele>137</ele>
        <time>2018-07-15T09:06:00Z</time>
      </trkpt>
      <trkpt lat="43.88714" lon="1.77377">
        <ele>137</ele>
        <time>2018-07-15T09:06:01Z</time>
      </trkpt>
      <trkpt lat="43.8872" lon="1.77372">
        <ele>137</ele>
        <time>2018-07-15T09:06:02Z</time>
      </trkpt>
      <trkpt lat="43.88725" lon="1.77367">
        <ele>137</ele>
        <time>2018-07-15T09:06:03Z</time>
      </trkpt>
      <trkpt lat="43.88731" lon="1.77363">
        <ele>137</ele>
        <time>2018-07-15T09:06:04Z</time>
      </trkpt>
      <trkpt lat="43.88737" lon="1.77359">
        <ele>137</ele>
        <time>2018-07-15T09:06:05Z</time>
      </trkpt>
      <trkpt lat="43.88742" lon="1.77354">
        <ele>137</ele>
        <time>2018-07-15T09:06:06Z</time>
      </trkpt>
      <trkpt lat="43.88747" lon="1.7735">
        <ele>137</ele>
        <time>2018-07-15T09:06:07Z</time>
      </trkpt>
      <trkpt lat="43.88752" lon="1.77346">
        <ele>137</ele>
        <time>2018-07-15T09:06:08Z</time>
      </trkpt>
      <trkpt lat="43.88758" lon="1.77341">
        <ele>137</ele>
        <time>2018-07-15T09:06:09Z</time>
      </trkpt>
      <trkpt lat="43.88762" lon="1.77338">
        <ele>137</ele>
        <time>2018-07-15T09:06:10Z</time>
      </trkpt>
      <trkpt lat="43.88767" lon="1.77333">
        <ele>137</ele>
        <time>2018-07-15T09:06:11Z</time>
      </trkpt>
      <trkpt lat="43.88772" lon="1.77329">
        <ele>137</ele>
        <time>2018-07-15T09:06:12Z</time>
      </trkpt>
      <trkpt lat="43.88777" lon="1.77327">
        <ele>137</ele>
        <time>2018-07-15T09:06:13Z</time>
      </trkpt>
      <trkpt lat="43.88782" lon="1.77324">
        <ele>137</ele>
        <time>2018-07-15T09:06:14Z</time>
      </trkpt>
      <trkpt lat="43.88787" lon="1.7732">
        <ele>138</ele>
        <time>2018-07-15T09:06:15Z</time>
      </trkpt>
      <trkpt lat="43.88791" lon="1.77316">
        <ele>138</ele>
        <time>2018-07-15T09:06:16Z</time>
      </trkpt>
      <trkpt lat="43.88795" lon="1.77312">
        <ele>138</ele>
        <time>2018-07-15T09:06:17Z</time>
      </trkpt>
      <trkpt lat="43.888" lon="1.77309">
        <ele>139</ele>
        <time>2018-07-15T09:06:18Z</time>
      </trkpt>
      <trkpt lat="43.88804" lon="1.77305">
        <ele>139</ele>
        <time>2018-07-15T09:06:19Z</time>
      </trkpt>
      <trkpt lat="43.88808" lon="1.77302">
        <ele>140</ele>
        <time>2018-07-15T09:06:20Z</time>
      </trkpt>
      <trkpt lat="43.88812" lon="1.77299">
        <ele>140</ele>
        <time>2018-07-15T09:06:21Z</time>
      </trkpt>
      <trkpt lat="43.88815" lon="1.77296">
        <ele>140</ele>
        <time>2018-07-15T09:06:22Z</time>
      </trkpt>
      <trkpt lat="43.88819" lon="1.77292">
        <ele>140</ele>
        <time>2018-07-15T09:06:23Z</time>
      </trkpt>
      <trkpt lat="43.88822" lon="1.77289">
        <ele>140</ele>
        <time>2018-07-15T09:06:24Z</time>
      </trkpt>
      <trkpt lat="43.88825" lon="1.77286">
        <ele>141</ele>
        <time>2018-07-15T09:06:25Z</time>
      </trkpt>
      <trkpt lat="43.88828" lon="1.77283">
        <ele>141</ele>
        <time>2018-07-15T09:06:26Z</time>
      </trkpt>
      <trkpt lat="43.88831" lon="1.7728">
        <ele>141</ele>
        <time>2018-07-15T09:06:27Z</time>
      </trkpt>
      <trkpt lat="43.88834" lon="1.77277">
        <ele>141</ele>
        <time>2018-07-15T09:06:28Z</time>
      </trkpt>
      <trkpt lat="43.88837" lon="1.77274">
        <ele>142</ele>
        <time>2018-07-15T09:06:29Z</time>
      </trkpt>
      <trkpt lat="43.8884" lon="1.77271">
        <ele>142</ele>
        <time>2018-07-15T09:06:30Z</time>
      </trkpt>
      <trkpt lat="43.88842" lon="1.77267">
        <ele>142</ele>
        <time>2018-07-15T09:06:31Z</time>
      </trkpt>
      <trkpt lat="43.88844" lon="1.77264">
        <ele>142</ele>
        <time>2018-07-15T09:06:32Z</time>
      </trkpt>
      <trkpt lat="43.88846" lon="1.7726">
        <ele>143</ele>
        <time>2018-07-15T09:06:33Z</time>
      </trkpt>
      <trkpt lat="43.88848" lon="1.77257">
        <ele>143</ele>
        <time>2018-07-15T09:06:34Z</time>
      </trkpt>
      <trkpt lat="43.8885" lon="1.77254">
        <ele>143</ele>
        <time>2018-07-15T09:06:35Z</time>
      </trkpt>
      <trkpt lat="43.88851" lon="1.77251">
        <ele>143</ele>
        <time>2018-07-15T09:06:36Z</time>
      </trkpt>
      <trkpt lat="43.88853" lon="1.77247">
        <ele>143</ele>
        <time>2018-07-15T09:06:37Z</time>
      </trkpt>
      <trkpt lat="43.88855" lon="1.77243">
        <ele>143</ele>
        <time>2018-07-15T09:06:38Z</time>
      </trkpt>
      <trkpt lat="43.88857" lon="1.7724">
        <ele>144</ele>
        <time>2018-07-15T09:06:39Z</time>
      </trkpt>
      <trkpt lat="43.88859" lon="1.77236">
        <ele>144</ele>
        <time>2018-07-15T09:06:40Z</time>
      </trkpt>
      <trkpt lat="43.8886" lon="1.77232">
        <ele>144</ele>
        <time>2018-07-15T09:06:41Z</time>
      </trkpt>
      <trkpt lat="43.88862" lon="1.77228">
        <ele>144</ele>
        <time>2018-07-15T09:06:42Z</time>
      </trkpt>
      <trkpt lat="43.88863" lon="1.77224">
        <ele>144</ele>
        <time>2018-07-15T09:06:43Z</time>
      </trkpt>
      <trkpt lat="43.88865" lon="1.7722">
        <ele>144</ele>
        <time>2018-07-15T09:06:44Z</time>
      </trkpt>
      <trkpt lat="43.88866" lon="1.77217">
        <ele>145</ele>
        <time>2018-07-15T09:06:45Z</time>
      </trkpt>
      <trkpt lat="43.88868" lon="1.77214">
        <ele>145</ele>
        <time>2018-07-15T09:06:46Z</time>
      </trkpt>
      <trkpt lat="43.88869" lon="1.7721">
        <ele>145</ele>
        <time>2018-07-15T09:06:47Z</time>
      </trkpt>
      <trkpt lat="43.88871" lon="1.77206">
        <ele>145</ele>
        <time>2018-07-15T09:06:48Z</time>
      </trkpt>
      <trkpt lat="43.88872" lon="1.77203">
        <ele>146</ele>
        <time>2018-07-15T09:06:49Z</time>
      </trkpt>
      <trkpt lat="43.88874" lon="1.77199">
        <ele>146</ele>
        <time>2018-07-15T09:06:50Z</time>
      </trkpt>
      <trkpt lat="43.88875" lon="1.77195">
        <ele>146</ele>
        <time>2018-07-15T09:06:51Z</time>
      </trkpt>
      <trkpt lat="43.88877" lon="1.77192">
        <ele>146</ele>
        <time>2018-07-15T09:06:52Z</time>
      </trkpt>
      <trkpt lat="43.88878" lon="1.77188">
        <ele>146</ele>
        <time>2018-07-15T09:06:53Z</time>
      </trkpt>
      <trkpt lat="43.88879" lon="1.77184">
        <ele>147</ele>
        <time>2018-07-15T09:06:54Z</time>
      </trkpt>
      <trkpt lat="43.88881" lon="1.77181">
        <ele>147</ele>
        <time>2018-07-15T09:06:55Z</time>
      </trkpt>
      <trkpt lat="43.88883" lon="1.77177">
        <ele>147</ele>
        <time>2018-07-15T09:06:56Z</time>
      </trkpt>
      <trkpt lat="43.88884" lon="1.77172">
        <ele>147</ele>
        <time>2018-07-15T09:06:57Z</time>
      </trkpt>
      <trkpt lat="43.88885" lon="1.77169">
        <ele>147</ele>
        <time>2018-07-15T09:06:58Z</time>
      </trkpt>
      <trkpt lat="43.88887" lon="1.77165">
        <ele>147</ele>
        <time>2018-07-15T09:06:59Z</time>
      </trkpt>
      <trkpt lat="43.88888" lon="1.77162">
        <ele>148</ele>
        <time>2018-07-15T09:07:00Z</time>
      </trkpt>
      <trkpt lat="43.8889" lon="1.77158">
        <ele>148</ele>
        <time>2018-07-15T09:07:01Z</time>
      </trkpt>
      <trkpt lat="43.88891" lon="1.77154">
        <ele>148</ele>
        <time>2018-07-15T09:07:02Z</time>
      </trkpt>
      <trkpt lat="43.88893" lon="1.7715">
        <ele>148</ele>
        <time>2018-07-15T09:07:03Z</time>
      </trkpt>
      <trkpt lat="43.88894" lon="1.77147">
        <ele>149</ele>
        <time>2018-07-15T09:07:04Z</time>
      </trkpt>
      <trkpt lat="43.88895" lon="1.77143">
        <ele>149</ele>
        <time>2018-07-15T09:07:05Z</time>
      </trkpt>
      <trkpt lat="43.88897" lon="1.77139">
        <ele>149</ele>
        <time>2018-07-15T09:07:06Z</time>
      </trkpt>
      <trkpt lat="43.88898" lon="1.77136">
        <ele>149</ele>
        <time>2018-07-15T09:07:07Z</time>
      </trkpt>
      <trkpt lat="43.88899" lon="1.77132">
        <ele>149</ele>
        <time>2018-07-15T09:07:08Z</time>
      </trkpt>
      <trkpt lat="43.88901" lon="1.77128">
        <ele>149</ele>
        <time>2018-07-15T09:07:09Z</time>
      </trkpt>
      <trkpt lat="43.88903" lon="1.77125">
        <ele>150</ele>
        <time>2018-07-15T09:07:10Z</time>
      </trkpt>
      <trkpt lat="43.88904" lon="1.77121">
        <ele>150</ele>
        <time>2018-07-15T09:07:11Z</time>
      </trkpt>
      <trkpt lat="43.88906" lon="1.77118">
        <ele>150</ele>
        <time>2018-07-15T09:07:12Z</time>
      </trkpt>
      <trkpt lat="43.88908" lon="1.77114">
        <ele>150</ele>
        <time>2018-07-15T09:07:13Z</time>
      </trkpt>
      <trkpt lat="43.88909" lon="1.77111">
        <ele>150</ele>
        <time>2018-07-15T09:07:14Z</time>
      </trkpt>
      <trkpt lat="43.88911" lon="1.77107">
        <ele>150</ele>
        <time>2018-07-15T09:07:15Z</time>
      </trkpt>
      <trkpt lat="43.88912" lon="1.77103">
        <ele>151</ele>
        <time>2018-07-15T09:07:16Z</time>
      </trkpt>
      <trkpt lat="43.88913" lon="1.77099">
        <ele>151</ele>
        <time>2018-07-15T09:07:17Z</time>
      </trkpt>
      <trkpt lat="43.88914" lon="1.77096">
        <ele>151</ele>
        <time>2018-07-15T09:07:18Z</time>
      </trkpt>
      <trkpt lat="43.88916" lon="1.77092">
        <ele>151</ele>
        <time>2018-07-15T09:07:19Z</time>
      </trkpt>
      <trkpt lat="43.88917" lon="1.77088">
        <ele>151</ele>
        <time>2018-07-15T09:07:20Z</time>
      </trkpt>
      <trkpt lat="43.88918" lon="1.77085">
        <ele>151</ele>
        <time>2018-07-15T09:07:21Z</time>
      </trkpt>
      <trkpt lat="43.8892" lon="1.77081">
        <ele>152</ele>
        <time>2018-07-15T09:07:22Z</time>
      </trkpt>
      <trkpt lat="43.88921" lon="1.77078">
        <ele>152</ele>
        <time>2018-07-15T09:07:23Z</time>
      </trkpt>
      <trkpt lat="43.88923" lon="1.77075">
        <ele>152</ele>
        <time>2018-07-15T09:07:24Z</time>
      </trkpt>
      <trkpt lat="43.88924" lon="1.77071">
        <ele>152</ele>
        <time>2018-07-15T09:07:25Z</time>
      </trkpt>
      <trkpt lat="43.88926" lon="1.77067">
        <ele>152</ele>
        <time>2018-07-15T09:07:26Z</time>
      </trkpt>
      <trkpt lat="43.88927" lon="1.77064">
        <ele>153</ele>
        <time>2018-07-15T09:07:27Z</time>
      </trkpt>
      <trkpt lat="43.88929" lon="1.7706">
        <ele>152</ele>
        <time>2018-07-15T09:07:28Z</time>
      </trkpt>
      <trkpt lat="43.8893" lon="1.77056">
        <ele>153</ele>
        <time>2018-07-15T09:07:29Z</time>
      </trkpt>
      <trkpt lat="43.88932" lon="1.77053">
        <ele>153</ele>
        <time>2018-07-15T09:07:30Z</time>
      </trkpt>
      <trkpt lat="43.88932" lon="1.77048">
        <ele>153</ele>
        <time>2018-07-15T09:07:31Z</time>
      </trkpt>
      <trkpt lat="43.88934" lon="1.77045">
        <ele>153</ele>
        <time>2018-07-15T09:07:32Z</time>
      </trkpt>
      <trkpt lat="43.88936" lon="1.77041">
        <ele>153</ele>
        <time>2018-07-15T09:07:33Z</time>
      </trkpt>
      <trkpt lat="43.88937" lon="1.77038">
        <ele>154</ele>
        <time>2018-07-15T09:07:34Z</time>
      </trkpt>
      <trkpt lat="43.88939" lon="1.77035">
        <ele>154</ele>
        <time>2018-07-15T09:07:35Z</time>
      </trkpt>
      <trkpt lat="43.8894" lon="1.77031">
        <ele>154</ele>
        <time>2018-07-15T09:07:36Z</time>
      </trkpt>
      <trkpt lat="43.88942" lon="1.77028">
        <ele>154</ele>
        <time>2018-07-15T09:07:37Z</time>
      </trkpt>
      <trkpt lat="43.88943" lon="1.77024">
        <ele>154</ele>
        <time>2018-07-15T09:07:38Z</time>
      </trkpt>
      <trkpt lat="43.88945" lon="1.77021">
        <ele>154</ele>
        <time>2018-07-15T09:07:39Z</time>
      </trkpt>
      <trkpt lat="43.88946" lon="1.77017">
        <ele>155</ele>
        <time>2018-07-15T09:07:40Z</time>
      </trkpt>
      <trkpt lat="43.88948" lon="1.77013">
        <ele>155</ele>
        <time>2018-07-15T09:07:41Z</time>
      </trkpt>
      <trkpt lat="43.88949" lon="1.77009">
        <ele>155</ele>
        <time>2018-07-15T09:07:42Z</time>
      </trkpt>
      <trkpt lat="43.88951" lon="1.77006">
        <ele>155</ele>
        <time>2018-07-15T09:07:43Z</time>
      </trkpt>
      <trkpt lat="43.88952" lon="1.77002">
        <ele>155</ele>
        <time>2018-07-15T09:07:44Z</time>
      </trkpt>
      <trkpt lat="43.88954" lon="1.76998">
        <ele>156</ele>
        <time>2018-07-15T09:07:45Z</time>
      </trkpt>
      <trkpt lat="43.88955" lon="1.76995">
        <ele>156</ele>
        <time>2018-07-15T09:07:46Z</time>
      </trkpt>
      <trkpt lat="43.88957" lon="1.76991">
        <ele>156</ele>
        <time>2018-07-15T09:07:47Z</time>
      </trkpt>
      <trkpt lat="43.88958" lon="1.76987">
        <ele>156</ele>
        <time>2018-07-15T09:07:48Z</time>
      </trkpt>
      <trkpt lat="43.88959" lon="1.76983">
        <ele>156</ele>
        <time>2018-07-15T09:07:49Z</time>
      </trkpt>
      <trkpt lat="43.8896" lon="1.76979">
        <ele>156</ele>
        <time>2018-07-15T09:07:50Z</time>
      </trkpt>
      <trkpt lat="43.88961" lon="1.76975">
        <ele>156</ele>
        <time>2018-07-15T09:07:51Z</time>
      </trkpt>
      <trkpt lat="43.88962" lon="1.76971">
        <ele>157</ele>
        <time>2018-07-15T09:07:52Z</time>
      </trkpt>
      <trkpt lat="43.88963" lon="1.76967">
        <ele>157</ele>
        <time>2018-07-15T09:07:53Z</time>
      </trkpt>
      <trkpt lat="43.88964" lon="1.76964">
        <ele>157</ele>
        <time>2018-07-15T09:07:54Z</time>
      </trkpt>
      <trkpt lat="43.88965" lon="1.7696">
        <ele>157</ele>
        <time>2018-07-15T09:07:55Z</time>
      </trkpt>
      <trkpt lat="43.88966" lon="1.76956">
        <ele>157</ele>
        <time>2018-07-15T09:07:56Z</time>
      </trkpt>
      <trkpt lat="43.88967" lon="1.76952">
        <ele>157</ele>
        <time>2018-07-15T09:07:57Z</time>
      </trkpt>
      <trkpt lat="43.88968" lon="1.76948">
        <ele>158</ele>
        <time>2018-07-15T09:07:58Z</time>
      </trkpt>
      <trkpt lat="43.88969" lon="1.76944">
        <ele>158</ele>
        <time>2018-07-15T09:07:59Z</time>
      </trkpt>
      <trkpt lat="43.88969" lon="1.7694">
        <ele>158</ele>
        <time>2018-07-15T09:08:00Z</time>
      </trkpt>
      <trkpt lat="43.8897" lon="1.76936">
        <ele>158</ele>
        <time>2018-07-15T09:08:01Z</time>
      </trkpt>
      <trkpt lat="43.8897" lon="1.76932">
        <ele>158</ele>
        <time>2018-07-15T09:08:02Z</time>
      </trkpt>
      <trkpt lat="43.88971" lon="1.76928">
        <ele>158</ele>
        <time>2018-07-15T09:08:03Z</time>
      </trkpt>
      <trkpt lat="43.88971" lon="1.76923">
        <ele>159</ele>
        <time>2018-07-15T09:08:04Z</time>
      </trkpt>
      <trkpt lat="43.88971" lon="1.76919">
        <ele>159</ele>
        <time>2018-07-15T09:08:05Z</time>
      </trkpt>
      <trkpt lat="43.88972" lon="1.76915">
        <ele>159</ele>
        <time>2018-07-15T09:08:06Z</time>
      </trkpt>
      <trkpt lat="43.88972" lon="1.76911">
        <ele>159</ele>
        <time>2018-07-15T09:08:07Z</time>
      </trkpt>
      <trkpt lat="43.88972" lon="1.76906">
        <ele>160</ele>
        <time>2018-07-15T09:08:08Z</time>
      </trkpt>
      <trkpt lat="43.88973" lon="1.76902">
        <ele>160</ele>
        <time>2018-07-15T09:08:09Z</time>
      </trkpt>
      <trkpt lat="43.88973" lon="1.76898">
        <ele>160</ele>
        <time>2018-07-15T09:08:10Z</time>
      </trkpt>
      <trkpt lat="43.88974" lon="1.76894">
        <ele>160</ele>
        <time>2018-07-15T09:08:11Z</time>
      </trkpt>
      <trkpt lat="43.88974" lon="1.76889">
        <ele>160</ele>
        <time>2018-07-15T09:08:12Z</time>
      </trkpt>
      <trkpt lat="43.88975" lon="1.76885">
        <ele>160</ele>
        <time>2018-07-15T09:08:13Z</time>
      </trkpt>
      <trkpt lat="43.88975" lon="1.7688">
        <ele>161</ele>
        <time>2018-07-15T09:08:14Z</time>
      </trkpt>
      <trkpt lat="43.88975" lon="1.76876">
        <ele>161</ele>
        <time>2018-07-15T09:08:15Z</time>
      </trkpt>
      <trkpt lat="43.88976" lon="1.76872">
        <ele>161</ele>
        <time>2018-07-15T09:08:16Z</time>
      </trkpt>
      <trkpt lat="43.88976" lon="1.76868">
        <ele>161</ele>
        <time>2018-07-15T09:08:17Z</time>
      </trkpt>
      <trkpt lat="43.88977" lon="1.76864">
        <ele>161</ele>
        <time>2018-07-15T09:08:18Z</time>
      </trkpt>
      <trkpt lat="43.88977" lon="1.7686">
        <ele>162</ele>
        <time>2018-07-15T09:08:19Z</time>
      </trkpt>
      <trkpt lat="43.88978" lon="1.76856">
        <ele>162</ele>
        <time>2018-07-15T09:08:20Z</time>
      </trkpt>
      <trkpt lat="43.88979" lon="1.76852">
        <ele>162</ele>
        <time>2018-07-15T09:08:21Z</time>
      </trkpt>
      <trkpt lat="43.8898" lon="1.76848">
        <ele>162</ele>
        <time>2018-07-15T09:08:22Z</time>
      </trkpt>
      <trkpt lat="43.88981" lon="1.76843">
        <ele>163</ele>
        <time>2018-07-15T09:08:23Z</time>
      </trkpt>
      <trkpt lat="43.88982" lon="1.76839">
        <ele>163</ele>
        <time>2018-07-15T09:08:24Z</time>
      </trkpt>
      <trkpt lat="43.88983" lon="1.76836">
        <ele>163</ele>
        <time>2018-07-15T09:08:25Z</time>
      </trkpt>
      <trkpt lat="43.88984" lon="1.76832">
        <ele>163</ele>
        <time>2018-07-15T09:08:26Z</time>
      </trkpt>
      <trkpt lat="43.88986" lon="1.76829">
        <ele>163</ele>
        <time>2018-07-15T09:08:27Z</time>
      </trkpt>
      <trkpt lat="43.88987" lon="1.76825">
        <ele>163</ele>
        <time>2018-07-15T09:08:28Z</time>
      </trkpt>
      <trkpt lat="43.88988" lon="1.76821">
        <ele>163</ele>
        <time>2018-07-15T09:08:29Z</time>
      </trkpt>
      <trkpt lat="43.88989" lon="1.76818">
        <ele>164</ele>
        <time>2018-07-15T09:08:30Z</time>
      </trkpt>
      <trkpt lat="43.8899" lon="1.76814">
        <ele>164</ele>
        <time>2018-07-15T09:08:31Z</time>
      </trkpt>
      <trkpt lat="43.88991" lon="1.7681">
        <ele>164</ele>
        <time>2018-07-15T09:08:32Z</time>
      </trkpt>
      <trkpt lat="43.88992" lon="1.76806">
        <ele>164</ele>
        <time>2018-07-15T09:08:33Z</time>
      </trkpt>
      <trkpt lat="43.88993" lon="1.76802">
        <ele>165</ele>
        <time>2018-07-15T09:08:34Z</time>
      </trkpt>
      <trkpt lat="43.88994" lon="1.76798">
        <ele>165</ele>
        <time>2018-07-15T09:08:35Z</time>
      </trkpt>
      <trkpt lat="43.88995" lon="1.76794">
        <ele>165</ele>
        <time>2018-07-15T09:08:36Z</time>
      </trkpt>
      <trkpt lat="43.88997" lon="1.76791">
        <ele>165</ele>
        <time>2018-07-15T09:08:37Z</time>
      </trkpt>
      <trkpt lat="43.88998" lon="1.76787">
        <ele>165</ele>
        <time>2018-07-15T09:08:38Z</time>
      </trkpt>
      <trkpt lat="43.89" lon="1.76784">
        <ele>165</ele>
        <time>2018-07-15T09:08:39Z</time>
      </trkpt>
      <trkpt lat="43.89001" lon="1.7678">
        <ele>165</ele>
        <time>2018-07-15T09:08:40Z</time>
      </trkpt>
      <trkpt lat="43.89002" lon="1.76777">
        <ele>166</ele>
        <time>2018-07-15T09:08:41Z</time>
      </trkpt>
      <trkpt lat="43.89004" lon="1.76773">
        <ele>166</ele>
        <time>2018-07-15T09:08:42Z</time>
      </trkpt>
      <trkpt lat="43.89006" lon="1.76769">
        <ele>166</ele>
        <time>2018-07-15T09:08:43Z</time>
      </trkpt>
      <trkpt lat="43.89008" lon="1.76764">
        <ele>166</ele>
        <time>2018-07-15T09:08:44Z</time>
      </trkpt>
      <trkpt lat="43.8901" lon="1.7676">
        <ele>166</ele>
        <time>2018-07-15T09:08:45Z</time>
      </trkpt>
      <trkpt lat="43.89011" lon="1.76756">
        <ele>167</ele>
        <time>2018-07-15T09:08:46Z</time>
      </trkpt>
      <trkpt lat="43.89012" lon="1.76751">
        <ele>167</ele>
        <time>2018-07-15T09:08:47Z</time>
      </trkpt>
      <trkpt lat="43.89013" lon="1.76747">
        <ele>167</ele>
        <time>2018-07-15T09:08:48Z</time>
      </trkpt>
      <trkpt lat="43.89014" lon="1.76743">
        <ele>167</ele>
        <time>2018-07-15T09:08:49Z</time>
      </trkpt>
      <trkpt lat="43.89015" lon="1.76739">
        <ele>167</ele>
        <time>2018-07-15T09:08:50Z</time>
      </trkpt>
      <trkpt lat="43.89016" lon="1.76736">
        <ele>168</ele>
        <time>2018-07-15T09:08:51Z</time>
      </trkpt>
      <trkpt lat="43.89018" lon="1.76732">
        <ele>168</ele>
        <time>2018-07-15T09:08:52Z</time>
      </trkpt>
      <trkpt lat="43.89019" lon="1.76729">
        <ele>168</ele>
        <time>2018-07-15T09:08:53Z</time>
      </trkpt>
      <trkpt lat="43.8902" lon="1.76726">
        <ele>168</ele>
        <time>2018-07-15T09:08:54Z</time>
      </trkpt>
      <trkpt lat="43.89021" lon="1.76722">
        <ele>169</ele>
        <time>2018-07-15T09:08:55Z</time>
      </trkpt>
      <trkpt lat="43.89023" lon="1.7672">
        <ele>169</ele>
        <time>2018-07-15T09:08:56Z</time>
      </trkpt>
      <trkpt lat="43.89024" lon="1.76716">
        <ele>169</ele>
        <time>2018-07-15T09:08:57Z</time>
      </trkpt>
      <trkpt lat="43.89025" lon="1.76713">
        <ele>169</ele>
        <time>2018-07-15T09:08:58Z</time>
      </trkpt>
      <trkpt lat="43.89026" lon="1.76709">
        <ele>169</ele>
        <time>2018-07-15T09:08:59Z</time>
      </trkpt>
      <trkpt lat="43.89027" lon="1.76705">
        <ele>169</ele>
        <time>2018-07-15T09:09:00Z</time>
      </trkpt>
      <trkpt lat="43.89029" lon="1.76701">
        <ele>170</ele>
        <time>2018-07-15T09:09:01Z</time>
      </trkpt>
      <trkpt lat="43.8903" lon="1.76698">
        <ele>170</ele>
        <time>2018-07-15T09:09:02Z</time>
      </trkpt>
      <trkpt lat="43.89031" lon="1.76694">
        <ele>170</ele>
        <time>2018-07-15T09:09:03Z</time>
      </trkpt>
      <trkpt lat="43.89033" lon="1.76691">
        <ele>170</ele>
        <time>2018-07-15T09:09:04Z</time>
      </trkpt>
      <trkpt lat="43.89034" lon="1.76687">
        <ele>170</ele>
        <time>2018-07-15T09:09:05Z</time>
      </trkpt>
      <trkpt lat="43.89035" lon="1.76684">
        <ele>171</ele>
        <time>2018-07-15T09:09:06Z</time>
      </trkpt>
      <trkpt lat="43.89036" lon="1.7668">
        <ele>171</ele>
        <time>2018-07-15T09:09:07Z</time>
      </trkpt>
      <trkpt lat="43.89038" lon="1.76675">
        <ele>171</ele>
        <time>2018-07-15T09:09:08Z</time>
      </trkpt>
      <trkpt lat="43.89039" lon="1.76672">
        <ele>171</ele>
        <time>2018-07-15T09:09:09Z</time>
      </trkpt>
      <trkpt lat="43.89041" lon="1.76668">
        <ele>171</ele>
        <time>2018-07-15T09:09:10Z</time>
      </trkpt>
      <trkpt lat="43.89042" lon="1.76664">
        <ele>171</ele>
        <time>2018-07-15T09:09:11Z</time>
      </trkpt>
      <trkpt lat="43.89043" lon="1.76661">
        <ele>172</ele>
        <time>2018-07-15T09:09:12Z</time>
      </trkpt>
      <trkpt lat="43.89045" lon="1.76657">
        <ele>172</ele>
        <time>2018-07-15T09:09:13Z</time>
      </trkpt>
      <trkpt lat="43.89046" lon="1.76653">
        <ele>172</ele>
        <time>2018-07-15T09:09:14Z</time>
      </trkpt>
      <trkpt lat="43.89047" lon="1.7665">
        <ele>173</ele>
        <time>2018-07-15T09:09:15Z</time>
      </trkpt>
      <trkpt lat="43.89049" lon="1.76646">
        <ele>173</ele>
        <time>2018-07-15T09:09:16Z</time>
      </trkpt>
      <trkpt lat="43.8905" lon="1.76642">
        <ele>173</ele>
        <time>2018-07-15T09:09:17Z</time>
      </trkpt>
      <trkpt lat="43.89051" lon="1.76638">
        <ele>173</ele>
        <time>2018-07-15T09:09:18Z</time>
      </trkpt>
      <trkpt lat="43.89053" lon="1.76635">
        <ele>173</ele>
        <time>2018-07-15T09:09:19Z</time>
      </trkpt>
      <trkpt lat="43.89054" lon="1.76632">
        <ele>174</ele>
        <time>2018-07-15T09:09:20Z</time>
      </trkpt>
      <trkpt lat="43.89055" lon="1.76628">
        <ele>174</ele>
        <time>2018-07-15T09:09:21Z</time>
      </trkpt>
      <trkpt lat="43.89056" lon="1.76624">
        <ele>174</ele>
        <time>2018-07-15T09:09:22Z</time>
      </trkpt>
      <trkpt lat="43.89057" lon="1.7662">
        <ele>174</ele>
        <time>2018-07-15T09:09:23Z</time>
      </trkpt>
      <trkpt lat="43.89058" lon="1.76616">
        <ele>174</ele>
        <time>2018-07-15T09:09:24Z</time>
      </trkpt>
      <trkpt lat="43.8906" lon="1.76612">
        <ele>175</ele>
        <time>2018-07-15T09:09:25Z</time>
      </trkpt>
      <trkpt lat="43.89062" lon="1.76609">
        <ele>175</ele>
        <time>2018-07-15T09:09:26Z</time>
      </trkpt>
      <trkpt lat="43.89063" lon="1.76605">
        <ele>175</ele>
        <time>2018-07-15T09:09:27Z</time>
      </trkpt>
      <trkpt lat="43.89064" lon="1.76601">
        <ele>175</ele>
        <time>2018-07-15T09:09:28Z</time>
      </trkpt>
      <trkpt lat="43.89065" lon="1.76598">
        <ele>175</ele>
        <time>2018-07-15T09:09:29Z</time>
      </trkpt>
      <trkpt lat="43.89067" lon="1.76594">
        <ele>175</ele>
        <time>2018-07-15T09:09:30Z</time>
      </trkpt>
      <trkpt lat="43.89069" lon="1.76591">
        <ele>176</ele>
        <time>2018-07-15T09:09:31Z</time>
      </trkpt>
      <trkpt lat="43.8907" lon="1.76588">
        <ele>176</ele>
        <time>2018-07-15T09:09:32Z</time>
      </trkpt>
      <trkpt lat="43.89072" lon="1.76584">
        <ele>176</ele>
        <time>2018-07-15T09:09:33Z</time>
      </trkpt>
      <trkpt lat="43.89073" lon="1.7658">
        <ele>176</ele>
        <time>2018-07-15T09:09:34Z</time>
      </trkpt>
      <trkpt lat="43.89074" lon="1.76576">
        <ele>176</ele>
        <time>2018-07-15T09:09:35Z</time>
      </trkpt>
      <trkpt lat="43.89075" lon="1.76572">
        <ele>177</ele>
        <time>2018-07-15T09:09:36Z</time>
      </trkpt>
      <trkpt lat="43.89077" lon="1.76569">
        <ele>177</ele>
        <time>2018-07-15T09:09:37Z</time>
      </trkpt>
      <trkpt lat="43.89078" lon="1.76565">
        <ele>177</ele>
        <time>2018-07-15T09:09:38Z</time>
      </trkpt>
      <trkpt lat="43.89079" lon="1.7656">
        <ele>177</ele>
        <time>2018-07-15T09:09:39Z</time>
      </trkpt>
      <trkpt lat="43.89081" lon="1.76556">
        <ele>177</ele>
        <time>2018-07-15T09:09:40Z</time>
      </trkpt>
      <trkpt lat="43.89082" lon="1.76552">
        <ele>178</ele>
        <time>2018-07-15T09:09:41Z</time>
      </trkpt>
      <trkpt lat="43.89084" lon="1.76548">
        <ele>178</ele>
        <time>2018-07-15T09:09:42Z</time>
      </trkpt>
      <trkpt lat="43.89085" lon="1.76544">
        <ele>178</ele>
        <time>2018-07-15T09:09:43Z</time>
      </trkpt>
      <trkpt lat="43.89087" lon="1.76541">
        <ele>178</ele>
        <time>2018-07-15T09:09:44Z</time>
      </trkpt>
      <trkpt lat="43.89088" lon="1.76537">
        <ele>179</ele>
        <time>2018-07-15T09:09:45Z</time>
      </trkpt>
      <trkpt lat="43.89089" lon="1.76533">
        <ele>179</ele>
        <time>2018-07-15T09:09:46Z</time>
      </trkpt>
      <trkpt lat="43.89091" lon="1.7653">
        <ele>179</ele>
        <time>2018-07-15T09:09:47Z</time>
      </trkpt>
      <trkpt lat="43.89092" lon="1.76526">
        <ele>179</ele>
        <time>2018-07-15T09:09:48Z</time>
      </trkpt>
      <trkpt lat="43.89093" lon="1.76522">
        <ele>179</ele>
        <time>2018-07-15T09:09:49Z</time>
      </trkpt>
      <trkpt lat="43.89095" lon="1.76519">
        <ele>179</ele>
        <time>2018-07-15T09:09:50Z</time>
      </trkpt>
      <trkpt lat="43.89096" lon="1.76515">
        <ele>179</ele>
        <time>2018-07-15T09:09:51Z</time>
      </trkpt>
      <trkpt lat="43.89098" lon="1.76511">
        <ele>180</ele>
        <time>2018-07-15T09:09:52Z</time>
      </trkpt>
      <trkpt lat="43.89099" lon="1.76508">
        <ele>180</ele>
        <time>2018-07-15T09:09:53Z</time>
      </trkpt>
      <trkpt lat="43.89101" lon="1.76504">
        <ele>180</ele>
        <time>2018-07-15T09:09:54Z</time>
      </trkpt>
      <trkpt lat="43.89102" lon="1.76501">
        <ele>180</ele>
        <time>2018-07-15T09:09:55Z</time>
      </trkpt>
      <trkpt lat="43.89104" lon="1.76497">
        <ele>180</ele>
        <time>2018-07-15T09:09:56Z</time>
      </trkpt>
      <trkpt lat="43.89106" lon="1.76494">
        <ele>180</ele>
        <time>2018-07-15T09:09:57Z</time>
      </trkpt>
      <trkpt lat="43.89107" lon="1.7649">
        <ele>181</ele>
        <time>2018-07-15T09:09:58Z</time>
      </trkpt>
      <trkpt lat="43.89109" lon="1.76487">
        <ele>181</ele>
        <time>2018-07-15T09:09:59Z</time>
      </trkpt>
      <trkpt lat="43.89111" lon="1.76483">
        <ele>181</ele>
        <time>2018-07-15T09:10:00Z</time>
      </trkpt>
      <trkpt lat="43.89113" lon="1.7648">
        <ele>181</ele>
        <time>2018-07-15T09:10:01Z</time>
      </trkpt>
      <trkpt lat="43.89114" lon="1.76476">
        <ele>181</ele>
        <time>2018-07-15T09:10:02Z</time>
      </trkpt>
      <trkpt lat="43.89116" lon="1.76472">
        <ele>181</ele>
        <time>2018-07-15T09:10:03Z</time>
      </trkpt>
      <trkpt lat="43.89118" lon="1.76469">
        <ele>182</ele>
        <time>2018-07-15T09:10:04Z</time>
      </trkpt>
      <trkpt lat="43.8912" lon="1.76465">
        <ele>182</ele>
        <time>2018-07-15T09:10:05Z</time>
      </trkpt>
      <trkpt lat="43.89122" lon="1.76461">
        <ele>182</ele>
        <time>2018-07-15T09:10:06Z</time>
      </trkpt>
      <trkpt lat="43.89124" lon="1.76457">
        <ele>182</ele>
        <time>2018-07-15T09:10:07Z</time>
      </trkpt>
      <trkpt lat="43.89126" lon="1.76453">
        <ele>182</ele>
        <time>2018-07-15T09:10:08Z</time>
      </trkpt>
      <trkpt lat="43.89129" lon="1.76449">
        <ele>182</ele>
        <time>2018-07-15T09:10:09Z</time>
      </trkpt>
      <trkpt lat="43.89131" lon="1.76445">
        <ele>183</ele>
        <time>2018-07-15T09:10:10Z</time>
      </trkpt>
      <trkpt lat="43.89134" lon="1.76441">
        <ele>183</ele>
        <time>2018-07-15T09:10:11Z</time>
      </trkpt>
      <trkpt lat="43.89136" lon="1.76437">
        <ele>183</ele>
        <time>2018-07-15T09:10:12Z</time>
      </trkpt>
      <trkpt lat="43.89138" lon="1.76434">
        <ele>183</ele>
        <time>2018-07-15T09:10:13Z</time>
      </trkpt>
      <trkpt lat="43.89139" lon="1.76429">
        <ele>184</ele>
        <time>2018-07-15T09:10:14Z</time>
      </trkpt>
      <trkpt lat="43.89141" lon="1.76425">
        <ele>184</ele>
        <time>2018-07-15T09:10:15Z</time>
      </trkpt>
      <trkpt lat="43.89142" lon="1.76422">
        <ele>184</ele>
        <time>2018-07-15T09:10:16Z</time>
      </trkpt>
      <trkpt lat="43.89144" lon="1.76418">
        <ele>184</ele>
        <time>2018-07-15T09:10:17Z</time>
      </trkpt>
      <trkpt lat="43.89145" lon="1.76414">
        <ele>185</ele>
        <time>2018-07-15T09:10:18Z</time>
      </trkpt>
      <trkpt lat="43.89147" lon="1.7641">
        <ele>185</ele>
        <time>2018-07-15T09:10:19Z</time>
      </trkpt>
      <trkpt lat="43.89148" lon="1.76407">
        <ele>185</ele>
        <time>2018-07-15T09:10:20Z</time>
      </trkpt>
      <trkpt lat="43.8915" lon="1.76403">
        <ele>185</ele>
        <time>2018-07-15T09:10:21Z</time>
      </trkpt>
      <trkpt lat="43.89152" lon="1.76399">
        <ele>185</ele>
        <time>2018-07-15T09:10:22Z</time>
      </trkpt>
      <trkpt lat="43.89153" lon="1.76396">
        <ele>185</ele>
        <time>2018-07-15T09:10:23Z</time>
      </trkpt>
      <trkpt lat="43.89155" lon="1.76392">
        <ele>186</ele>
        <time>2018-07-15T09:10:24Z</time>
      </trkpt>
      <trkpt lat="43.89157" lon="1.76389">
        <ele>186</ele>
        <time>2018-07-15T09:10:25Z</time>
      </trkpt>
      <trkpt lat="43.89158" lon="1.76386">
        <ele>186</ele>
        <time>2018-07-15T09:10:26Z</time>
      </trkpt>
      <trkpt lat="43.8916" lon="1.76383">
        <ele>186</ele>
        <time>2018-07-15T09:10:27Z</time>
      </trkpt>
      <trkpt lat="43.89162" lon="1.76379">
        <ele>186</ele>
        <time>2018-07-15T09:10:28Z</time>
      </trkpt>
      <trkpt lat="43.89164" lon="1.76377">
        <ele>187</ele>
        <time>2018-07-15T09:10:29Z</time>
      </trkpt>
      <trkpt lat="43.89166" lon="1.76374">
        <ele>187</ele>
        <time>2018-07-15T09:10:30Z</time>
      </trkpt>
      <trkpt lat="43.89168" lon="1.76371">
        <ele>187</ele>
        <time>2018-07-15T09:10:31Z</time>
      </trkpt>
      <trkpt lat="43.8917" lon="1.76368">
        <ele>187</ele>
        <time>2018-07-15T09:10:32Z</time>
      </trkpt>
      <trkpt lat="43.89173" lon="1.76365">
        <ele>187</ele>
        <time>2018-07-15T09:10:33Z</time>
      </trkpt>
      <trkpt lat="43.89175" lon="1.76362">
        <ele>188</ele>
        <time>2018-07-15T09:10:34Z</time>
      </trkpt>
      <trkpt lat="43.89177" lon="1.7636">
        <ele>188</ele>
        <time>2018-07-15T09:10:35Z</time>
      </trkpt>
      <trkpt lat="43.89179" lon="1.76357">
        <ele>188</ele>
        <time>2018-07-15T09:10:36Z</time>
      </trkpt>
      <trkpt lat="43.89181" lon="1.76354">
        <ele>188</ele>
        <time>2018-07-15T09:10:37Z</time>
      </trkpt>
      <trkpt lat="43.89183" lon="1.76351">
        <ele>188</ele>
        <time>2018-07-15T09:10:38Z</time>
      </trkpt>
      <trkpt lat="43.89186" lon="1.76349">
        <ele>188</ele>
        <time>2018-07-15T09:10:39Z</time>
      </trkpt>
      <trkpt lat="43.89188" lon="1.76347">
        <ele>189</ele>
        <time>2018-07-15T09:10:40Z</time>
      </trkpt>
      <trkpt lat="43.89191" lon="1.76344">
        <ele>189</ele>
        <time>2018-07-15T09:10:41Z</time>
      </trkpt>
      <trkpt lat="43.89193" lon="1.76342">
        <ele>189</ele>
        <time>2018-07-15T09:10:42Z</time>
      </trkpt>
      <trkpt lat="43.89196" lon="1.7634">
        <ele>189</ele>
        <time>2018-07-15T09:10:43Z</time>
      </trkpt>
      <trkpt lat="43.89199" lon="1.76337">
        <ele>190</ele>
        <time>2018-07-15T09:10:44Z</time>
      </trkpt>
      <trkpt lat="43.89201" lon="1.76335">
        <ele>190</ele>
        <time>2018-07-15T09:10:45Z</time>
      </trkpt>
      <trkpt lat="43.89204" lon="1.76333">
        <ele>190</ele>
        <time>2018-07-15T09:10:46Z</time>
      </trkpt>
      <trkpt lat="43.89206" lon="1.76332">
        <ele>190</ele>
        <time>2018-07-15T09:10:47Z</time>
      </trkpt>
      <trkpt lat="43.89209" lon="1.7633">
        <ele>190</ele>
        <time>2018-07-15T09:10:48Z</time>
      </trkpt>
      <trkpt lat="43.89212" lon="1.76328">
        <ele>190</ele>
        <time>2018-07-15T09:10:49Z</time>
      </trkpt>
      <trkpt lat="43.89214" lon="1.76327">
        <ele>191</ele>
        <time>2018-07-15T09:10:50Z</time>
      </trkpt>
      <trkpt lat="43.89217" lon="1.76326">
        <ele>191</ele>
        <time>2018-07-15T09:10:51Z</time>
      </trkpt>
      <trkpt lat="43.8922" lon="1.76324">
        <ele>191</ele>
        <time>2018-07-15T09:10:52Z</time>
      </trkpt>
      <trkpt lat="43.89222" lon="1.76322">
        <ele>191</ele>
        <time>2018-07-15T09:10:53Z</time>
      </trkpt>
      <trkpt lat="43.89225" lon="1.7632">
        <ele>191</ele>
        <time>2018-07-15T09:10:54Z</time>
      </trkpt>
      <trkpt lat="43.89228" lon="1.76318">
        <ele>192</ele>
        <time>2018-07-15T09:10:55Z</time>
      </trkpt>
      <trkpt lat="43.8923" lon="1.76317">
        <ele>192</ele>
        <time>2018-07-15T09:10:56Z</time>
      </trkpt>
      <trkpt lat="43.89233" lon="1.76315">
        <ele>192</ele>
        <time>2018-07-15T09:10:57Z</time>
      </trkpt>
      <trkpt lat="43.89236" lon="1.76314">
        <ele>192</ele>
        <time>2018-07-15T09:10:58Z</time>
      </trkpt>
      <trkpt lat="43.89239" lon="1.76312">
        <ele>192</ele>
        <time>2018-07-15T09:10:59Z</time>
      </trkpt>
      <trkpt lat="43.89242" lon="1.76311">
        <ele>192</ele>
        <time>2018-07-15T09:11:00Z</time>
      </trkpt>
      <trkpt lat="43.89244" lon="1.76309">
        <ele>193</ele>
        <time>2018-07-15T09:11:01Z</time>
      </trkpt>
      <trkpt lat="43.89247" lon="1.76308">
        <ele>193</ele>
        <time>2018-07-15T09:11:02Z</time>
      </trkpt>
      <trkpt lat="43.89251" lon="1.76307">
        <ele>193</ele>
        <time>2018-07-15T09:11:03Z</time>
      </trkpt>
      <trkpt lat="43.89253" lon="1.76305">
        <ele>193</ele>
        <time>2018-07-15T09:11:04Z</time>
      </trkpt>
      <trkpt lat="43.89256" lon="1.76304">
        <ele>193</ele>
        <time>2018-07-15T09:11:05Z</time>
      </trkpt>
      <trkpt lat="43.89259" lon="1.76303">
        <ele>193</ele>
        <time>2018-07-15T09:11:06Z</time>
      </trkpt>
      <trkpt lat="43.89262" lon="1.76301">
        <ele>194</ele>
        <time>2018-07-15T09:11:07Z</time>
      </trkpt>
      <trkpt lat="43.89265" lon="1.76299">
        <ele>194</ele>
        <time>2018-07-15T09:11:08Z</time>
      </trkpt>
      <trkpt lat="43.89267" lon="1.76297">
        <ele>194</ele>
        <time>2018-07-15T09:11:09Z</time>
      </trkpt>
      <trkpt lat="43.8927" lon="1.76296">
        <ele>194</ele>
        <time>2018-07-15T09:11:10Z</time>
      </trkpt>
      <trkpt lat="43.89273" lon="1.76295">
        <ele>194</ele>
        <time>2018-07-15T09:11:11Z</time>
      </trkpt>
      <trkpt lat="43.89276" lon="1.76293">
        <ele>194</ele>
        <time>2018-07-15T09:11:12Z</time>
      </trkpt>
      <trkpt lat="43.89279" lon="1.76291">
        <ele>195</ele>
        <time>2018-07-15T09:11:13Z</time>
      </trkpt>
      <trkpt lat="43.89281" lon="1.7629">
        <ele>195</ele>
        <time>2018-07-15T09:11:14Z</time>
      </trkpt>
      <trkpt lat="43.89284" lon="1.76288">
        <ele>195</ele>
        <time>2018-07-15T09:11:15Z</time>
      </trkpt>
      <trkpt lat="43.89287" lon="1.76286">
        <ele>196</ele>
        <time>2018-07-15T09:11:16Z</time>
      </trkpt>
      <trkpt lat="43.8929" lon="1.76284">
        <ele>195</ele>
        <time>2018-07-15T09:11:17Z</time>
      </trkpt>
      <trkpt lat="43.89293" lon="1.76282">
        <ele>196</ele>
        <time>2018-07-15T09:11:18Z</time>
      </trkpt>
      <trkpt lat="43.89296" lon="1.7628">
        <ele>196</ele>
        <time>2018-07-15T09:11:19Z</time>
      </trkpt>
      <trkpt lat="43.89299" lon="1.76278">
        <ele>196</ele>
        <time>2018-07-15T09:11:20Z</time>
      </trkpt>
      <trkpt lat="43.89302" lon="1.76276">
        <ele>196</ele>
        <time>2018-07-15T09:11:21Z</time>
      </trkpt>
      <trkpt lat="43.89304" lon="1.76274">
        <ele>196</ele>
        <time>2018-07-15T09:11:22Z</time>
      </trkpt>
      <trkpt lat="43.89307" lon="1.76272">
        <ele>196</ele>
        <time>2018-07-15T09:11:23Z</time>
      </trkpt>
      <trkpt lat="43.8931" lon="1.76271">
        <ele>196</ele>
        <time>2018-07-15T09:11:24Z</time>
      </trkpt>
      <trkpt lat="43.89312" lon="1.76269">
        <ele>197</ele>
        <time>2018-07-15T09:11:25Z</time>
      </trkpt>
      <trkpt lat="43.89315" lon="1.76267">
        <ele>197</ele>
        <time>2018-07-15T09:11:26Z</time>
      </trkpt>
      <trkpt lat="43.89317" lon="1.76265">
        <ele>197</ele>
        <time>2018-07-15T09:11:27Z</time>
      </trkpt>
      <trkpt lat="43.8932" lon="1.76263">
        <ele>197</ele>
        <time>2018-07-15T09:11:28Z</time>
      </trkpt>
      <trkpt lat="43.89323" lon="1.76261">
        <ele>197</ele>
        <time>2018-07-15T09:11:29Z</time>
      </trkpt>
      <trkpt lat="43.89325" lon="1.7626">
        <ele>197</ele>
        <time>2018-07-15T09:11:30Z</time>
      </trkpt>
      <trkpt lat="43.89328" lon="1.76257">
        <ele>198</ele>
        <time>2018-07-15T09:11:31Z</time>
      </trkpt>
      <trkpt lat="43.89331" lon="1.76254">
        <ele>198</ele>
        <time>2018-07-15T09:11:32Z</time>
      </trkpt>
      <trkpt lat="43.89334" lon="1.76252">
        <ele>198</ele>
        <time>2018-07-15T09:11:33Z</time>
      </trkpt>
      <trkpt lat="43.89336" lon="1.7625">
        <ele>198</ele>
        <time>2018-07-15T09:11:34Z</time>
      </trkpt>
      <trkpt lat="43.89339" lon="1.76248">
        <ele>199</ele>
        <time>2018-07-15T09:11:35Z</time>
      </trkpt>
      <trkpt lat="43.89341" lon="1.76246">
        <ele>199</ele>
        <time>2018-07-15T09:11:36Z</time>
      </trkpt>
      <trkpt lat="43.89344" lon="1.76244">
        <ele>199</ele>
        <time>2018-07-15T09:11:37Z</time>
      </trkpt>
      <trkpt lat="43.89346" lon="1.76241">
        <ele>199</ele>
        <time>2018-07-15T09:11:38Z</time>
      </trkpt>
      <trkpt lat="43.89349" lon="1.76238">
        <ele>199</ele>
        <time>2018-07-15T09:11:39Z</time>
      </trkpt>
      <trkpt lat="43.89352" lon="1.76237">
        <ele>200</ele>
        <time>2018-07-15T09:11:40Z</time>
      </trkpt>
      <trkpt lat="43.89354" lon="1.76234">
        <ele>200</ele>
        <time>2018-07-15T09:11:41Z</time>
      </trkpt>
      <trkpt lat="43.89356" lon="1.76232">
        <ele>200</ele>
        <time>2018-07-15T09:11:42Z</time>
      </trkpt>
      <trkpt lat="43.89359" lon="1.7623">
        <ele>200</ele>
        <time>2018-07-15T09:11:43Z</time>
      </trkpt>
      <trkpt lat="43.89361" lon="1.76229">
        <ele>200</ele>
        <time>2018-07-15T09:11:44Z</time>
      </trkpt>
      <trkpt lat="43.89364" lon="1.76227">
        <ele>200</ele>
        <time>2018-07-15T09:11:45Z</time>
      </trkpt>
      <trkpt lat="43.89366" lon="1.76225">
        <ele>201</ele>
        <time>2018-07-15T09:11:46Z</time>
      </trkpt>
      <trkpt lat="43.89369" lon="1.76223">
        <ele>201</ele>
        <time>2018-07-15T09:11:47Z</time>
      </trkpt>
      <trkpt lat="43.89372" lon="1.76222">
        <ele>201</ele>
        <time>2018-07-15T09:11:48Z</time>
      </trkpt>
      <trkpt lat="43.89374" lon="1.7622">
        <ele>201</ele>
        <time>2018-07-15T09:11:49Z</time>
      </trkpt>
      <trkpt lat="43.89377" lon="1.76219">
        <ele>201</ele>
        <time>2018-07-15T09:11:50Z</time>
      </trkpt>
      <trkpt lat="43.8938" lon="1.76217">
        <ele>201</ele>
        <time>2018-07-15T09:11:51Z</time>
      </trkpt>
      <trkpt lat="43.89383" lon="1.76215">
        <ele>202</ele>
        <time>2018-07-15T09:11:52Z</time>
      </trkpt>
      <trkpt lat="43.89386" lon="1.76213">
        <ele>202</ele>
        <time>2018-07-15T09:11:53Z</time>
      </trkpt>
      <trkpt lat="43.89389" lon="1.76211">
        <ele>202</ele>
        <time>2018-07-15T09:11:54Z</time>
      </trkpt>
      <trkpt lat="43.89392" lon="1.7621">
        <ele>202</ele>
        <time>2018-07-15T09:11:55Z</time>
      </trkpt>
      <trkpt lat="43.89395" lon="1.76209">
        <ele>202</ele>
        <time>2018-07-15T09:11:56Z</time>
      </trkpt>
      <trkpt lat="43.89398" lon="1.76207">
        <ele>202</ele>
        <time>2018-07-15T09:11:57Z</time>
      </trkpt>
      <trkpt lat="43.89401" lon="1.76205">
        <ele>203</ele>
        <time>2018-07-15T09:11:58Z</time>
      </trkpt>
      <trkpt lat="43.89404" lon="1.76204">
        <ele>203</ele>
        <time>2018-07-15T09:11:59Z</time>
      </trkpt>
      <trkpt lat="43.89406" lon="1.76202">
        <ele>203</ele>
        <time>2018-07-15T09:12:00Z</time>
      </trkpt>
      <trkpt lat="43.89409" lon="1.76201">
        <ele>203</ele>
        <time>2018-07-15T09:12:01Z</time>
      </trkpt>
      <trkpt lat="43.89412" lon="1.76199">
        <ele>203</ele>
        <time>2018-07-15T09:12:02Z</time>
      </trkpt>
      <trkpt lat="43.89415" lon="1.76198">
        <ele>203</ele>
        <time>2018-07-15T09:12:03Z</time>
      </trkpt>
      <trkpt lat="43.89418" lon="1.76197">
        <ele>204</ele>
        <time>2018-07-15T09:12:04Z</time>
      </trkpt>
      <trkpt lat="43.89421" lon="1.76196">
        <ele>204</ele>
        <time>2018-07-15T09:12:05Z</time>
      </trkpt>
      <trkpt lat="43.89424" lon="1.76195">
        <ele>204</ele>
        <time>2018-07-15T09:12:06Z</time>
      </trkpt>
      <trkpt lat="43.89426" lon="1.76194">
        <ele>204</ele>
        <time>2018-07-15T09:12:07Z</time>
      </trkpt>
      <trkpt lat="43.89429" lon="1.76193">
        <ele>204</ele>
        <time>2018-07-15T09:12:08Z</time>
      </trkpt>
      <trkpt lat="43.89432" lon="1.76193">
        <ele>205</ele>
        <time>2018-07-15T09:12:09Z</time>
      </trkpt>
      <trkpt lat="43.89435" lon="1.76192">
        <ele>205</ele>
        <time>2018-07-15T09:12:10Z</time>
      </trkpt>
      <trkpt lat="43.89438" lon="1.76191">
        <ele>205</ele>
        <time>2018-07-15T09:12:11Z</time>
      </trkpt>
      <trkpt lat="43.89441" lon="1.7619">
        <ele>205</ele>
        <time>2018-07-15T09:12:12Z</time>
      </trkpt>
      <trkpt lat="43.89443" lon="1.76189">
        <ele>205</ele>
        <time>2018-07-15T09:12:13Z</time>
      </trkpt>
      <trkpt lat="43.89446" lon="1.76188">
        <ele>205</ele>
        <time>2018-07-15T09:12:14Z</time>
      </trkpt>
      <trkpt lat="43.89449" lon="1.76187">
        <ele>205</ele>
        <time>2018-07-15T09:12:15Z</time>
      </trkpt>
      <trkpt lat="43.89452" lon="1.76187">
        <ele>206</ele>
        <time>2018-07-15T09:12:16Z</time>
      </trkpt>
      <trkpt lat="43.89456" lon="1.76186">
        <ele>206</ele>
        <time>2018-07-15T09:12:17Z</time>
      </trkpt>
      <trkpt lat="43.89459" lon="1.76186">
        <ele>206</ele>
        <time>2018-07-15T09:12:18Z</time>
      </trkpt>
      <trkpt lat="43.89462" lon="1.76186">
        <ele>206</ele>
        <time>2018-07-15T09:12:19Z</time>
      </trkpt>
      <trkpt lat="43.89465" lon="1.76186">
        <ele>206</ele>
        <time>2018-07-15T09:12:20Z</time>
      </trkpt>
      <trkpt lat="43.89468" lon="1.76186">
        <ele>207</ele>
        <time>2018-07-15T09:12:21Z</time>
      </trkpt>
      <trkpt lat="43.89471" lon="1.76185">
        <ele>207</ele>
        <time>2018-07-15T09:12:22Z</time>
      </trkpt>
      <trkpt lat="43.89474" lon="1.76185">
        <ele>207</ele>
        <time>2018-07-15T09:12:23Z</time>
      </trkpt>
      <trkpt lat="43.89477" lon="1.76185">
        <ele>207</ele>
        <time>2018-07-15T09:12:24Z</time>
      </trkpt>
      <trkpt lat="43.8948" lon="1.76184">
        <ele>207</ele>
        <time>2018-07-15T09:12:25Z</time>
      </trkpt>
      <trkpt lat="43.89482" lon="1.76184">
        <ele>207</ele>
        <time>2018-07-15T09:12:26Z</time>
      </trkpt>
      <trkpt lat="43.89485" lon="1.76184">
        <ele>207</ele>
        <time>2018-07-15T09:12:27Z</time>
      </trkpt>
      <trkpt lat="43.89489" lon="1.76184">
        <ele>208</ele>
        <time>2018-07-15T09:12:28Z</time>
      </trkpt>
      <trkpt lat="43.89491" lon="1.76184">
        <ele>208</ele>
        <time>2018-07-15T09:12:29Z</time>
      </trkpt>
      <trkpt lat="43.89494" lon="1.76184">
        <ele>208</ele>
        <time>2018-07-15T09:12:30Z</time>
      </trkpt>
      <trkpt lat="43.89498" lon="1.76185">
        <ele>208</ele>
        <time>2018-07-15T09:12:31Z</time>
      </trkpt>
      <trkpt lat="43.895" lon="1.76185">
        <ele>208</ele>
        <time>2018-07-15T09:12:32Z</time>
      </trkpt>
      <trkpt lat="43.89503" lon="1.76185">
        <ele>208</ele>
        <time>2018-07-15T09:12:33Z</time>
      </trkpt>
      <trkpt lat="43.89506" lon="1.76185">
        <ele>209</ele>
        <time>2018-07-15T09:12:34Z</time>
      </trkpt>
      <trkpt lat="43.89509" lon="1.76184">
        <ele>209</ele>
        <time>2018-07-15T09:12:35Z</time>
      </trkpt>
      <trkpt lat="43.89512" lon="1.76184">
        <ele>209</ele>
        <time>2018-07-15T09:12:36Z</time>
      </trkpt>
      <trkpt lat="43.89515" lon="1.76183">
        <ele>209</ele>
        <time>2018-07-15T09:12:37Z</time>
      </trkpt>
      <trkpt lat="43.89519" lon="1.76184">
        <ele>209</ele>
        <time>2018-07-15T09:12:38Z</time>
      </trkpt>
      <trkpt lat="43.89521" lon="1.76184">
        <ele>209</ele>
        <time>2018-07-15T09:12:39Z</time>
      </trkpt>
      <trkpt lat="43.89524" lon="1.76184">
        <ele>209</ele>
        <time>2018-07-15T09:12:40Z</time>
      </trkpt>
      <trkpt lat="43.89527" lon="1.76183">
        <ele>210</ele>
        <time>2018-07-15T09:12:41Z</time>
      </trkpt>
      <trkpt lat="43.8953" lon="1.76183">
        <ele>210</ele>
        <time>2018-07-15T09:12:42Z</time>
      </trkpt>
      <trkpt lat="43.89533" lon="1.76182">
        <ele>210</ele>
        <time>2018-07-15T09:12:43Z</time>
      </trkpt>
      <trkpt lat="43.89536" lon="1.76181">
        <ele>210</ele>
        <time>2018-07-15T09:12:44Z</time>
      </trkpt>
      <trkpt lat="43.89539" lon="1.7618">
        <ele>211</ele>
        <time>2018-07-15T09:12:45Z</time>
      </trkpt>
      <trkpt lat="43.89542" lon="1.7618">
        <ele>211</ele>
        <time>2018-07-15T09:12:46Z</time>
      </trkpt>
      <trkpt lat="43.89545" lon="1.76178">
        <ele>211</ele>
        <time>2018-07-15T09:12:47Z</time>
      </trkpt>
      <trkpt lat="43.89548" lon="1.76178">
        <ele>211</ele>
        <time>2018-07-15T09:12:48Z</time>
      </trkpt>
      <trkpt lat="43.89551" lon="1.76177">
        <ele>211</ele>
        <time>2018-07-15T09:12:49Z</time>
      </trkpt>
      <trkpt lat="43.89554" lon="1.76175">
        <ele>211</ele>
        <time>2018-07-15T09:12:50Z</time>
      </trkpt>
      <trkpt lat="43.89557" lon="1.76175">
        <ele>212</ele>
        <time>2018-07-15T09:12:51Z</time>
      </trkpt>
      <trkpt lat="43.8956" lon="1.76174">
        <ele>212</ele>
        <time>2018-07-15T09:12:52Z</time>
      </trkpt>
      <trkpt lat="43.89563" lon="1.76174">
        <ele>212</ele>
        <time>2018-07-15T09:12:53Z</time>
      </trkpt>
      <trkpt lat="43.89566" lon="1.76173">
        <ele>213</ele>
        <time>2018-07-15T09:12:54Z</time>
      </trkpt>
      <trkpt lat="43.8957" lon="1.76172">
        <ele>213</ele>
        <time>2018-07-15T09:12:55Z</time>
      </trkpt>
      <trkpt lat="43.89573" lon="1.76171">
        <ele>213</ele>
        <time>2018-07-15T09:12:56Z</time>
      </trkpt>
      <trkpt lat="43.89576" lon="1.7617">
        <ele>213</ele>
        <time>2018-07-15T09:12:57Z</time>
      </trkpt>
      <trkpt lat="43.89579" lon="1.76169">
        <ele>213</ele>
        <time>2018-07-15T09:12:58Z</time>
      </trkpt>
      <trkpt lat="43.89583" lon="1.76168">
        <ele>213</ele>
        <time>2018-07-15T09:12:59Z</time>
      </trkpt>
      <trkpt lat="43.89586" lon="1.76167">
        <ele>213</ele>
        <time>2018-07-15T09:13:00Z</time>
      </trkpt>
      <trkpt lat="43.8959" lon="1.76166">
        <ele>213</ele>
        <time>2018-07-15T09:13:01Z</time>
      </trkpt>
      <trkpt lat="43.89594" lon="1.76166">
        <ele>213</ele>
        <time>2018-07-15T09:13:02Z</time>
      </trkpt>
      <trkpt lat="43.89598" lon="1.76165">
        <ele>214</ele>
        <time>2018-07-15T09:13:03Z</time>
      </trkpt>
      <trkpt lat="43.89602" lon="1.76164">
        <ele>214</ele>
        <time>2018-07-15T09:13:04Z</time>
      </trkpt>
      <trkpt lat="43.89605" lon="1.76163">
        <ele>214</ele>
        <time>2018-07-15T09:13:05Z</time>
      </trkpt>
      <trkpt lat="43.89608" lon="1.76161">
        <ele>215</ele>
        <time>2018-07-15T09:13:06Z</time>
      </trkpt>
      <trkpt lat="43.89611" lon="1.7616">
        <ele>215</ele>
        <time>2018-07-15T09:13:07Z</time>
      </trkpt>
      <trkpt lat="43.89615" lon="1.76158">
        <ele>215</ele>
        <time>2018-07-15T09:13:08Z</time>
      </trkpt>
      <trkpt lat="43.89618" lon="1.76156">
        <ele>215</ele>
        <time>2018-07-15T09:13:09Z</time>
      </trkpt>
      <trkpt lat="43.8962" lon="1.76153">
        <ele>215</ele>
        <time>2018-07-15T09:13:10Z</time>
      </trkpt>
      <trkpt lat="43.89622" lon="1.76151">
        <ele>215</ele>
        <time>2018-07-15T09:13:11Z</time>
      </trkpt>
      <trkpt lat="43.89625" lon="1.76149">
        <ele>216</ele>
        <time>2018-07-15T09:13:12Z</time>
      </trkpt>
      <trkpt lat="43.89627" lon="1.76147">
        <ele>216</ele>
        <time>2018-07-15T09:13:13Z</time>
      </trkpt>
      <trkpt lat="43.8963" lon="1.76144">
        <ele>216</ele>
        <time>2018-07-15T09:13:14Z</time>
      </trkpt>
      <trkpt lat="43.89632" lon="1.76142">
        <ele>216</ele>
        <time>2018-07-15T09:13:15Z</time>
      </trkpt>
      <trkpt lat="43.89634" lon="1.7614">
        <ele>216</ele>
        <time>2018-07-15T09:13:16Z</time>
      </trkpt>
      <trkpt lat="43.89636" lon="1.76138">
        <ele>216</ele>
        <time>2018-07-15T09:13:17Z</time>
      </trkpt>
      <trkpt lat="43.89638" lon="1.76136">
        <ele>216</ele>
        <time>2018-07-15T09:13:18Z</time>
      </trkpt>
      <trkpt lat="43.8964" lon="1.76133">
        <ele>217</ele>
        <time>2018-07-15T09:13:19Z</time>
      </trkpt>
      <trkpt lat="43.89643" lon="1.7613">
        <ele>217</ele>
        <time>2018-07-15T09:13:20Z</time>
      </trkpt>
      <trkpt lat="43.89645" lon="1.76126">
        <ele>217</ele>
        <time>2018-07-15T09:13:21Z</time>
      </trkpt>
      <trkpt lat="43.89647" lon="1.76123">
        <ele>217</ele>
        <time>2018-07-15T09:13:22Z</time>
      </trkpt>
      <trkpt lat="43.89649" lon="1.76119">
        <ele>217</ele>
        <time>2018-07-15T09:13:23Z</time>
      </trkpt>
      <trkpt lat="43.89651" lon="1.76116">
        <ele>217</ele>
        <time>2018-07-15T09:13:24Z</time>
      </trkpt>
      <trkpt lat="43.89653" lon="1.76112">
        <ele>217</ele>
        <time>2018-07-15T09:13:25Z</time>
      </trkpt>
      <trkpt lat="43.89655" lon="1.76108">
        <ele>217</ele>
        <time>2018-07-15T09:13:26Z</time>
      </trkpt>
      <trkpt lat="43.89656" lon="1.76103">
        <ele>217</ele>
        <time>2018-07-15T09:13:27Z</time>
      </trkpt>
      <trkpt lat="43.89658" lon="1.76099">
        <ele>217</ele>
        <time>2018-07-15T09:13:28Z</time>
      </trkpt>
      <trkpt lat="43.8966" lon="1.76095">
        <ele>217</ele>
        <time>2018-07-15T09:13:29Z</time>
      </trkpt>
      <trkpt lat="43.89662" lon="1.76091">
        <ele>217</ele>
        <time>2018-07-15T09:13:30Z</time>
      </trkpt>
      <trkpt lat="43.89664" lon="1.76087">
        <ele>217</ele>
        <time>2018-07-15T09:13:31Z</time>
      </trkpt>
      <trkpt lat="43.89667" lon="1.76082">
        <ele>217</ele>
        <time>2018-07-15T09:13:32Z</time>
      </trkpt>
      <trkpt lat="43.89669" lon="1.76078">
        <ele>218</ele>
        <time>2018-07-15T09:13:33Z</time>
      </trkpt>
      <trkpt lat="43.89671" lon="1.76073">
        <ele>218</ele>
        <time>2018-07-15T09:13:34Z</time>
      </trkpt>
      <trkpt lat="43.89673" lon="1.76069">
        <ele>218</ele>
        <time>2018-07-15T09:13:35Z</time>
      </trkpt>
      <trkpt lat="43.89675" lon="1.76064">
        <ele>218</ele>
        <time>2018-07-15T09:13:36Z</time>
      </trkpt>
      <trkpt lat="43.89678" lon="1.7606">
        <ele>218</ele>
        <time>2018-07-15T09:13:37Z</time>
      </trkpt>
      <trkpt lat="43.8968" lon="1.76056">
        <ele>218</ele>
        <time>2018-07-15T09:13:38Z</time>
      </trkpt>
      <trkpt lat="43.89683" lon="1.76051">
        <ele>218</ele>
        <time>2018-07-15T09:13:39Z</time>
      </trkpt>
      <trkpt lat="43.89686" lon="1.76047">
        <ele>218</ele>
        <time>2018-07-15T09:13:40Z</time>
      </trkpt>
      <trkpt lat="43.89689" lon="1.76043">
        <ele>218</ele>
        <time>2018-07-15T09:13:41Z</time>
      </trkpt>
      <trkpt lat="43.89692" lon="1.76038">
        <ele>218</ele>
        <time>2018-07-15T09:13:42Z</time>
      </trkpt>
      <trkpt lat="43.89695" lon="1.76034">
        <ele>218</ele>
        <time>2018-07-15T09:13:43Z</time>
      </trkpt>
      <trkpt lat="43.89698" lon="1.76031">
        <ele>219</ele>
        <time>2018-07-15T09:13:44Z</time>
      </trkpt>
      <trkpt lat="43.89702" lon="1.76027">
        <ele>219</ele>
        <time>2018-07-15T09:13:45Z</time>
      </trkpt>
      <trkpt lat="43.89705" lon="1.76023">
        <ele>219</ele>
        <time>2018-07-15T09:13:46Z</time>
      </trkpt>
      <trkpt lat="43.89708" lon="1.76019">
        <ele>219</ele>
        <time>2018-07-15T09:13:47Z</time>
      </trkpt>
      <trkpt lat="43.89711" lon="1.76015">
        <ele>219</ele>
        <time>2018-07-15T09:13:48Z</time>
      </trkpt>
      <trkpt lat="43.89714" lon="1.7601">
        <ele>219</ele>
        <time>2018-07-15T09:13:49Z</time>
      </trkpt>
      <trkpt lat="43.89718" lon="1.76006">
        <ele>219</ele>
        <time>2018-07-15T09:13:50Z</time>
      </trkpt>
      <trkpt lat="43.89721" lon="1.76002">
        <ele>219</ele>
        <time>2018-07-15T09:13:51Z</time>
      </trkpt>
      <trkpt lat="43.89724" lon="1.75998">
        <ele>219</ele>
        <time>2018-07-15T09:13:52Z</time>
      </trkpt>
      <trkpt lat="43.89728" lon="1.75993">
        <ele>219</ele>
        <time>2018-07-15T09:13:53Z</time>
      </trkpt>
      <trkpt lat="43.89731" lon="1.7599">
        <ele>219</ele>
        <time>2018-07-15T09:13:54Z</time>
      </trkpt>
      <trkpt lat="43.89734" lon="1.75986">
        <ele>219</ele>
        <time>2018-07-15T09:13:55Z</time>
      </trkpt>
      <trkpt lat="43.89738" lon="1.75981">
        <ele>219</ele>
        <time>2018-07-15T09:13:56Z</time>
      </trkpt>
      <trkpt lat="43.89741" lon="1.75978">
        <ele>219</ele>
        <time>2018-07-15T09:13:57Z</time>
      </trkpt>
      <trkpt lat="43.89744" lon="1.75974">
        <ele>220</ele>
        <time>2018-07-15T09:13:58Z</time>
      </trkpt>
      <trkpt lat="43.89748" lon="1.7597">
        <ele>220</ele>
        <time>2018-07-15T09:13:59Z</time>
      </trkpt>
      <trkpt lat="43.89751" lon="1.75966">
        <ele>220</ele>
        <time>2018-07-15T09:14:00Z</time>
      </trkpt>
      <trkpt lat="43.89754" lon="1.75963">
        <ele>220</ele>
        <time>2018-07-15T09:14:01Z</time>
      </trkpt>
      <trkpt lat="43.89758" lon="1.75959">
        <ele>220</ele>
        <time>2018-07-15T09:14:02Z</time>
      </trkpt>
      <trkpt lat="43.89761" lon="1.75955">
        <ele>220</ele>
        <time>2018-07-15T09:14:03Z</time>
      </trkpt>
      <trkpt lat="43.89764" lon="1.75951">
        <ele>220</ele>
        <time>2018-07-15T09:14:04Z</time>
      </trkpt>
      <trkpt lat="43.89768" lon="1.75947">
        <ele>220</ele>
        <time>2018-07-15T09:14:05Z</time>
      </trkpt>
      <trkpt lat="43.89771" lon="1.75943">
        <ele>220</ele>
        <time>2018-07-15T09:14:06Z</time>
      </trkpt>
      <trkpt lat="43.89774" lon="1.75939">
        <ele>220</ele>
        <time>2018-07-15T09:14:07Z</time>
      </trkpt>
      <trkpt lat="43.89778" lon="1.75936">
        <ele>220</ele>
        <time>2018-07-15T09:14:08Z</time>
      </trkpt>
      <trkpt lat="43.89781" lon="1.75932">
        <ele>220</ele>
        <time>2018-07-15T09:14:09Z</time>
      </trkpt>
      <trkpt lat="43.89784" lon="1.75928">
        <ele>220</ele>
        <time>2018-07-15T09:14:10Z</time>
      </trkpt>
      <trkpt lat="43.89788" lon="1.75924">
        <ele>221</ele>
        <time>2018-07-15T09:14:11Z</time>
      </trkpt>
      <trkpt lat="43.89791" lon="1.7592">
        <ele>221</ele>
        <time>2018-07-15T09:14:12Z</time>
      </trkpt>
      <trkpt lat="43.89794" lon="1.75916">
        <ele>221</ele>
        <time>2018-07-15T09:14:13Z</time>
      </trkpt>
      <trkpt lat="43.89797" lon="1.75912">
        <ele>221</ele>
        <time>2018-07-15T09:14:14Z</time>
      </trkpt>
      <trkpt lat="43.898" lon="1.75908">
        <ele>221</ele>
        <time>2018-07-15T09:14:15Z</time>
      </trkpt>
      <trkpt lat="43.89804" lon="1.75904">
        <ele>221</ele>
        <time>2018-07-15T09:14:16Z</time>
      </trkpt>
      <trkpt lat="43.89807" lon="1.759">
        <ele>221</ele>
        <time>2018-07-15T09:14:17Z</time>
      </trkpt>
      <trkpt lat="43.8981" lon="1.75897">
        <ele>221</ele>
        <time>2018-07-15T09:14:18Z</time>
      </trkpt>
      <trkpt lat="43.89813" lon="1.75893">
        <ele>221</ele>
        <time>2018-07-15T09:14:19Z</time>
      </trkpt>
      <trkpt lat="43.89817" lon="1.75889">
        <ele>221</ele>
        <time>2018-07-15T09:14:20Z</time>
      </trkpt>
      <trkpt lat="43.8982" lon="1.75885">
        <ele>221</ele>
        <time>2018-07-15T09:14:21Z</time>
      </trkpt>
      <trkpt lat="43.89823" lon="1.75882">
        <ele>221</ele>
        <time>2018-07-15T09:14:22Z</time>
      </trkpt>
      <trkpt lat="43.89826" lon="1.75877">
        <ele>221</ele>
        <time>2018-07-15T09:14:23Z</time>
      </trkpt>
      <trkpt lat="43.89829" lon="1.75874">
        <ele>222</ele>
        <time>2018-07-15T09:14:24Z</time>
      </trkpt>
      <trkpt lat="43.89832" lon="1.7587">
        <ele>222</ele>
        <time>2018-07-15T09:14:25Z</time>
      </trkpt>
      <trkpt lat="43.89835" lon="1.75867">
        <ele>222</ele>
        <time>2018-07-15T09:14:26Z</time>
      </trkpt>
      <trkpt lat="43.89839" lon="1.75864">
        <ele>222</ele>
        <time>2018-07-15T09:14:27Z</time>
      </trkpt>
      <trkpt lat="43.89842" lon="1.75861">
        <ele>222</ele>
        <time>2018-07-15T09:14:28Z</time>
      </trkpt>
      <trkpt lat="43.89845" lon="1.75857">
        <ele>222</ele>
        <time>2018-07-15T09:14:29Z</time>
      </trkpt>
      <trkpt lat="43.89848" lon="1.75854">
        <ele>222</ele>
        <time>2018-07-15T09:14:30Z</time>
      </trkpt>
      <trkpt lat="43.89852" lon="1.75851">
        <ele>222</ele>
        <time>2018-07-15T09:14:31Z</time>
      </trkpt>
      <trkpt lat="43.89855" lon="1.75847">
        <ele>222</ele>
        <time>2018-07-15T09:14:32Z</time>
      </trkpt>
      <trkpt lat="43.89858" lon="1.75844">
        <ele>222</ele>
        <time>2018-07-15T09:14:33Z</time>
      </trkpt>
      <trkpt lat="43.89861" lon="1.75841">
        <ele>222</ele>
        <time>2018-07-15T09:14:34Z</time>
      </trkpt>
      <trkpt lat="43.89865" lon="1.75837">
        <ele>223</ele>
        <time>2018-07-15T09:14:35Z</time>
      </trkpt>
      <trkpt lat="43.89868" lon="1.75833">
        <ele>223</ele>
        <time>2018-07-15T09:14:36Z</time>
      </trkpt>
      <trkpt lat="43.89872" lon="1.75829">
        <ele>223</ele>
        <time>2018-07-15T09:14:37Z</time>
      </trkpt>
      <trkpt lat="43.89876" lon="1.75825">
        <ele>223</ele>
        <time>2018-07-15T09:14:38Z</time>
      </trkpt>
      <trkpt lat="43.89879" lon="1.75821">
        <ele>223</ele>
        <time>2018-07-15T09:14:39Z</time>
      </trkpt>
      <trkpt lat="43.89883" lon="1.75818">
        <ele>222</ele>
        <time>2018-07-15T09:14:40Z</time>
      </trkpt>
      <trkpt lat="43.89887" lon="1.75814">
        <ele>222</ele>
        <time>2018-07-15T09:14:41Z</time>
      </trkpt>
      <trkpt lat="43.89892" lon="1.75811">
        <ele>222</ele>
        <time>2018-07-15T09:14:42Z</time>
      </trkpt>
      <trkpt lat="43.89896" lon="1.75807">
        <ele>222</ele>
        <time>2018-07-15T09:14:43Z</time>
      </trkpt>
      <trkpt lat="43.89901" lon="1.75804">
        <ele>222</ele>
        <time>2018-07-15T09:14:44Z</time>
      </trkpt>
      <trkpt lat="43.89905" lon="1.75801">
        <ele>222</ele>
        <time>2018-07-15T09:14:45Z</time>
      </trkpt>
      <trkpt lat="43.89909" lon="1.75797">
        <ele>222</ele>
        <time>2018-07-15T09:14:46Z</time>
      </trkpt>
      <trkpt lat="43.89914" lon="1.75794">
        <ele>222</ele>
        <time>2018-07-15T09:14:47Z</time>
      </trkpt>
      <trkpt lat="43.89918" lon="1.7579">
        <ele>222</ele>
        <time>2018-07-15T09:14:48Z</time>
      </trkpt>
      <trkpt lat="43.89923" lon="1.75787">
        <ele>222</ele>
        <time>2018-07-15T09:14:49Z</time>
      </trkpt>
      <trkpt lat="43.89928" lon="1.75782">
        <ele>222</ele>
        <time>2018-07-15T09:14:50Z</time>
      </trkpt>
      <trkpt lat="43.89933" lon="1.75778">
        <ele>222</ele>
        <time>2018-07-15T09:14:51Z</time>
      </trkpt>
      <trkpt lat="43.89938" lon="1.75773">
        <ele>221</ele>
        <time>2018-07-15T09:14:52Z</time>
      </trkpt>
      <trkpt lat="43.89943" lon="1.75768">
        <ele>221</ele>
        <time>2018-07-15T09:14:53Z</time>
      </trkpt>
      <trkpt lat="43.89947" lon="1.75764">
        <ele>221</ele>
        <time>2018-07-15T09:14:54Z</time>
      </trkpt>
      <trkpt lat="43.89952" lon="1.75759">
        <ele>221</ele>
        <time>2018-07-15T09:14:55Z</time>
      </trkpt>
      <trkpt lat="43.89957" lon="1.75753">
        <ele>221</ele>
        <time>2018-07-15T09:14:56Z</time>
      </trkpt>
      <trkpt lat="43.89962" lon="1.75748">
        <ele>221</ele>
        <time>2018-07-15T09:14:57Z</time>
      </trkpt>
      <trkpt lat="43.89966" lon="1.75742">
        <ele>221</ele>
        <time>2018-07-15T09:14:58Z</time>
      </trkpt>
      <trkpt lat="43.89971" lon="1.75736">
        <ele>221</ele>
        <time>2018-07-15T09:14:59Z</time>
      </trkpt>
      <trkpt lat="43.89976" lon="1.7573">
        <ele>220</ele>
        <time>2018-07-15T09:15:00Z</time>
      </trkpt>
      <trkpt lat="43.8998" lon="1.75724">
        <ele>220</ele>
        <time>2018-07-15T09:15:01Z</time>
      </trkpt>
      <trkpt lat="43.89984" lon="1.75718">
        <ele>220</ele>
        <time>2018-07-15T09:15:02Z</time>
      </trkpt>
      <trkpt lat="43.89989" lon="1.75712">
        <ele>220</ele>
        <time>2018-07-15T09:15:03Z</time>
      </trkpt>
      <trkpt lat="43.89993" lon="1.75705">
        <ele>220</ele>
        <time>2018-07-15T09:15:04Z</time>
      </trkpt>
      <trkpt lat="43.89997" lon="1.75699">
        <ele>220</ele>
        <time>2018-07-15T09:15:05Z</time>
      </trkpt>
      <trkpt lat="43.90001" lon="1.75693">
        <ele>220</ele>
        <time>2018-07-15T09:15:06Z</time>
      </trkpt>
      <trkpt lat="43.90005" lon="1.75687">
        <ele>220</ele>
        <time>2018-07-15T09:15:07Z</time>
      </trkpt>
      <trkpt lat="43.90009" lon="1.75681">
        <ele>220</ele>
        <time>2018-07-15T09:15:08Z</time>
      </trkpt>
      <trkpt lat="43.90013" lon="1.75675">
        <ele>220</ele>
        <time>2018-07-15T09:15:09Z</time>
      </trkpt>
      <trkpt lat="43.90017" lon="1.75669">
        <ele>220</ele>
        <time>2018-07-15T09:15:10Z</time>
      </trkpt>
      <trkpt lat="43.90021" lon="1.75663">
        <ele>220</ele>
        <time>2018-07-15T09:15:11Z</time>
      </trkpt>
      <trkpt lat="43.90025" lon="1.75657">
        <ele>220</ele>
        <time>2018-07-15T09:15:12Z</time>
      </trkpt>
      <trkpt lat="43.90029" lon="1.75651">
        <ele>220</ele>
        <time>2018-07-15T09:15:13Z</time>
      </trkpt>
      <trkpt lat="43.90033" lon="1.75646">
        <ele>220</ele>
        <time>2018-07-15T09:15:14Z</time>
      </trkpt>
      <trkpt lat="43.90037" lon="1.7564">
        <ele>220</ele>
        <time>2018-07-15T09:15:15Z</time>
      </trkpt>
      <trkpt lat="43.90041" lon="1.75635">
        <ele>219</ele>
        <time>2018-07-15T09:15:16Z</time>
      </trkpt>
      <trkpt lat="43.90046" lon="1.75629">
        <ele>219</ele>
        <time>2018-07-15T09:15:17Z</time>
      </trkpt>
      <trkpt lat="43.9005" lon="1.75624">
        <ele>219</ele>
        <time>2018-07-15T09:15:18Z</time>
      </trkpt>
      <trkpt lat="43.90055" lon="1.75618">
        <ele>219</ele>
        <time>2018-07-15T09:15:19Z</time>
      </trkpt>
      <trkpt lat="43.90059" lon="1.75612">
        <ele>219</ele>
        <time>2018-07-15T09:15:20Z</time>
      </trkpt>
      <trkpt lat="43.90064" lon="1.75607">
        <ele>219</ele>
        <time>2018-07-15T09:15:21Z</time>
      </trkpt>
      <trkpt lat="43.90068" lon="1.75602">
        <ele>219</ele>
        <time>2018-07-15T09:15:22Z</time>
      </trkpt>
      <trkpt lat="43.90073" lon="1.75597">
        <ele>219</ele>
        <time>2018-07-15T09:15:23Z</time>
      </trkpt>
      <trkpt lat="43.90078" lon="1.75592">
        <ele>219</ele>
        <time>2018-07-15T09:15:24Z</time>
      </trkpt>
      <trkpt lat="43.90083" lon="1.75588">
        <ele>219</ele>
        <time>2018-07-15T09:15:25Z</time>
      </trkpt>
      <trkpt lat="43.90088" lon="1.75583">
        <ele>219</ele>
        <time>2018-07-15T09:15:26Z</time>
      </trkpt>
      <trkpt lat="43.90093" lon="1.7558">
        <ele>219</ele>
        <time>2018-07-15T09:15:27Z</time>
      </trkpt>
      <trkpt lat="43.90098" lon="1.75575">
        <ele>219</ele>
        <time>2018-07-15T09:15:28Z</time>
      </trkpt>
      <trkpt lat="43.90103" lon="1.75571">
        <ele>219</ele>
        <time>2018-07-15T09:15:29Z</time>
      </trkpt>
      <trkpt lat="43.90108" lon="1.75567">
        <ele>219</ele>
        <time>2018-07-15T09:15:30Z</time>
      </trkpt>
      <trkpt lat="43.90113" lon="1.75564">
        <ele>219</ele>
        <time>2018-07-15T09:15:31Z</time>
      </trkpt>
      <trkpt lat="43.90118" lon="1.7556">
        <ele>219</ele>
        <time>2018-07-15T09:15:32Z</time>
      </trkpt>
      <trkpt lat="43.90123" lon="1.75556">
        <ele>219</ele>
        <time>2018-07-15T09:15:33Z</time>
      </trkpt>
      <trkpt lat="43.90128" lon="1.75553">
        <ele>219</ele>
        <time>2018-07-15T09:15:34Z</time>
      </trkpt>
      <trkpt lat="43.90133" lon="1.75549">
        <ele>219</ele>
        <time>2018-07-15T09:15:35Z</time>
      </trkpt>
      <trkpt lat="43.90138" lon="1.75545">
        <ele>219</ele>
        <time>2018-07-15T09:15:36Z</time>
      </trkpt>
      <trkpt lat="43.90143" lon="1.75542">
        <ele>219</ele>
        <time>2018-07-15T09:15:37Z</time>
      </trkpt>
      <trkpt lat="43.90148" lon="1.75538">
        <ele>219</ele>
        <time>2018-07-15T09:15:38Z</time>
      </trkpt>
      <trkpt lat="43.90152" lon="1.75534">
        <ele>219</ele>
        <time>2018-07-15T09:15:39Z</time>
      </trkpt>
      <trkpt lat="43.90157" lon="1.7553">
        <ele>219</ele>
        <time>2018-07-15T09:15:40Z</time>
      </trkpt>
      <trkpt lat="43.90162" lon="1.75526">
        <ele>219</ele>
        <time>2018-07-15T09:15:41Z</time>
      </trkpt>
      <trkpt lat="43.90167" lon="1.75522">
        <ele>220</ele>
        <time>2018-07-15T09:15:42Z</time>
      </trkpt>
      <trkpt lat="43.90172" lon="1.75519">
        <ele>220</ele>
        <time>2018-07-15T09:15:43Z</time>
      </trkpt>
      <trkpt lat="43.90177" lon="1.75516">
        <ele>220</ele>
        <time>2018-07-15T09:15:44Z</time>
      </trkpt>
      <trkpt lat="43.90182" lon="1.75513">
        <ele>220</ele>
        <time>2018-07-15T09:15:45Z</time>
      </trkpt>
      <trkpt lat="43.90187" lon="1.75509">
        <ele>220</ele>
        <time>2018-07-15T09:15:46Z</time>
      </trkpt>
      <trkpt lat="43.90191" lon="1.75505">
        <ele>220</ele>
        <time>2018-07-15T09:15:47Z</time>
      </trkpt>
      <trkpt lat="43.90196" lon="1.75501">
        <ele>220</ele>
        <time>2018-07-15T09:15:48Z</time>
      </trkpt>
      <trkpt lat="43.90201" lon="1.75497">
        <ele>220</ele>
        <time>2018-07-15T09:15:49Z</time>
      </trkpt>
      <trkpt lat="43.90206" lon="1.75494">
        <ele>220</ele>
        <time>2018-07-15T09:15:50Z</time>
      </trkpt>
      <trkpt lat="43.90212" lon="1.7549">
        <ele>220</ele>
        <time>2018-07-15T09:15:51Z</time>
      </trkpt>
      <trkpt lat="43.90216" lon="1.75486">
        <ele>220</ele>
        <time>2018-07-15T09:15:52Z</time>
      </trkpt>
      <trkpt lat="43.90221" lon="1.75482">
        <ele>220</ele>
        <time>2018-07-15T09:15:53Z</time>
      </trkpt>
      <trkpt lat="43.90226" lon="1.75477">
        <ele>220</ele>
        <time>2018-07-15T09:15:54Z</time>
      </trkpt>
      <trkpt lat="43.90231" lon="1.75472">
        <ele>219</ele>
        <time>2018-07-15T09:15:55Z</time>
      </trkpt>
      <trkpt lat="43.90236" lon="1.75467">
        <ele>219</ele>
        <time>2018-07-15T09:15:56Z</time>
      </trkpt>
      <trkpt lat="43.9024" lon="1.75461">
        <ele>219</ele>
        <time>2018-07-15T09:15:57Z</time>
      </trkpt>
      <trkpt lat="43.90245" lon="1.75455">
        <ele>218</ele>
        <time>2018-07-15T09:15:58Z</time>
      </trkpt>
      <trkpt lat="43.9025" lon="1.75448">
        <ele>218</ele>
        <time>2018-07-15T09:15:59Z</time>
      </trkpt>
      <trkpt lat="43.90255" lon="1.75441">
        <ele>218</ele>
        <time>2018-07-15T09:16:00Z</time>
      </trkpt>
      <trkpt lat="43.9026" lon="1.75434">
        <ele>218</ele>
        <time>2018-07-15T09:16:01Z</time>
      </trkpt>
      <trkpt lat="43.90265" lon="1.75426">
        <ele>217</ele>
        <time>2018-07-15T09:16:02Z</time>
      </trkpt>
      <trkpt lat="43.9027" lon="1.75418">
        <ele>217</ele>
        <time>2018-07-15T09:16:03Z</time>
      </trkpt>
      <trkpt lat="43.90275" lon="1.7541">
        <ele>216</ele>
        <time>2018-07-15T09:16:04Z</time>
      </trkpt>
      <trkpt lat="43.90281" lon="1.75401">
        <ele>215</ele>
        <time>2018-07-15T09:16:05Z</time>
      </trkpt>
      <trkpt lat="43.90286" lon="1.75392">
        <ele>214</ele>
        <time>2018-07-15T09:16:06Z</time>
      </trkpt>
      <trkpt lat="43.90291" lon="1.75383">
        <ele>214</ele>
        <time>2018-07-15T09:16:07Z</time>
      </trkpt>
      <trkpt lat="43.90297" lon="1.75374">
        <ele>213</ele>
        <time>2018-07-15T09:16:08Z</time>
      </trkpt>
      <trkpt lat="43.90303" lon="1.75365">
        <ele>213</ele>
        <time>2018-07-15T09:16:09Z</time>
      </trkpt>
      <trkpt lat="43.90308" lon="1.75356">
        <ele>212</ele>
        <time>2018-07-15T09:16:10Z</time>
      </trkpt>
      <trkpt lat="43.90314" lon="1.75346">
        <ele>211</ele>
        <time>2018-07-15T09:16:11Z</time>
      </trkpt>
      <trkpt lat="43.90321" lon="1.75336">
        <ele>210</ele>
        <time>2018-07-15T09:16:12Z</time>
      </trkpt>
      <trkpt lat="43.90327" lon="1.75326">
        <ele>210</ele>
        <time>2018-07-15T09:16:13Z</time>
      </trkpt>
      <trkpt lat="43.90333" lon="1.75315">
        <ele>209</ele>
        <time>2018-07-15T09:16:14Z</time>
      </trkpt>
      <trkpt lat="43.90339" lon="1.75305">
        <ele>209</ele>
        <time>2018-07-15T09:16:15Z</time>
      </trkpt>
      <trkpt lat="43.90345" lon="1.75295">
        <ele>208</ele>
        <time>2018-07-15T09:16:16Z</time>
      </trkpt>
      <trkpt lat="43.90352" lon="1.75285">
        <ele>208</ele>
        <time>2018-07-15T09:16:17Z</time>
      </trkpt>
      <trkpt lat="43.90358" lon="1.75274">
        <ele>207</ele>
        <time>2018-07-15T09:16:18Z</time>
      </trkpt>
      <trkpt lat="43.90364" lon="1.75263">
        <ele>207</ele>
        <time>2018-07-15T09:16:19Z</time>
      </trkpt>
      <trkpt lat="43.9037" lon="1.75251">
        <ele>206</ele>
        <time>2018-07-15T09:16:20Z</time>
      </trkpt>
      <trkpt lat="43.90375" lon="1.7524">
        <ele>206</ele>
        <time>2018-07-15T09:16:21Z</time>
      </trkpt>
      <trkpt lat="43.90381" lon="1.75227">
        <ele>206</ele>
        <time>2018-07-15T09:16:22Z</time>
      </trkpt>
      <trkpt lat="43.90385" lon="1.75214">
        <ele>205</ele>
        <time>2018-07-15T09:16:23Z</time>
      </trkpt>
      <trkpt lat="43.90389" lon="1.752">
        <ele>204</ele>
        <time>2018-07-15T09:16:24Z</time>
      </trkpt>
      <trkpt lat="43.90393" lon="1.75186">
        <ele>203</ele>
        <time>2018-07-15T09:16:25Z</time>
      </trkpt>
      <trkpt lat="43.90397" lon="1.75172">
        <ele>202</ele>
        <time>2018-07-15T09:16:26Z</time>
      </trkpt>
      <trkpt lat="43.90401" lon="1.75158">
        <ele>202</ele>
        <time>2018-07-15T09:16:27Z</time>
      </trkpt>
      <trkpt lat="43.90404" lon="1.75144">
        <ele>200</ele>
        <time>2018-07-15T09:16:28Z</time>
      </trkpt>
      <trkpt lat="43.90408" lon="1.7513">
        <ele>200</ele>
        <time>2018-07-15T09:16:29Z</time>
      </trkpt>
      <trkpt lat="43.90412" lon="1.75116">
        <ele>199</ele>
        <time>2018-07-15T09:16:30Z</time>
      </trkpt>
      <trkpt lat="43.90417" lon="1.75102">
        <ele>199</ele>
        <time>2018-07-15T09:16:31Z</time>
      </trkpt>
      <trkpt lat="43.90422" lon="1.75088">
        <ele>198</ele>
        <time>2018-07-15T09:16:32Z</time>
      </trkpt>
      <trkpt lat="43.90428" lon="1.75075">
        <ele>198</ele>
        <time>2018-07-15T09:16:33Z</time>
      </trkpt>
      <trkpt lat="43.90434" lon="1.75062">
        <ele>197</ele>
        <time>2018-07-15T09:16:34Z</time>
      </trkpt>
      <trkpt lat="43.90441" lon="1.75049">
        <ele>197</ele>
        <time>2018-07-15T09:16:35Z</time>
      </trkpt>
      <trkpt lat="43.90447" lon="1.75036">
        <ele>196</ele>
        <time>2018-07-15T09:16:36Z</time>
      </trkpt>
      <trkpt lat="43.90454" lon="1.75024">
        <ele>195</ele>
        <time>2018-07-15T09:16:37Z</time>
      </trkpt>
      <trkpt lat="43.90461" lon="1.75011">
        <ele>194</ele>
        <time>2018-07-15T09:16:38Z</time>
      </trkpt>
      <trkpt lat="43.90469" lon="1.75">
        <ele>194</ele>
        <time>2018-07-15T09:16:39Z</time>
      </trkpt>
      <trkpt lat="43.90478" lon="1.74989">
        <ele>193</ele>
        <time>2018-07-15T09:16:40Z</time>
      </trkpt>
      <trkpt lat="43.90487" lon="1.74979">
        <ele>192</ele>
        <time>2018-07-15T09:16:41Z</time>
      </trkpt>
      <trkpt lat="43.90498" lon="1.74971">
        <ele>191</ele>
        <time>2018-07-15T09:16:42Z</time>
      </trkpt>
      <trkpt lat="43.90509" lon="1.74964">
        <ele>191</ele>
        <time>2018-07-15T09:16:43Z</time>
      </trkpt>
      <trkpt lat="43.9052" lon="1.74957">
        <ele>189</ele>
        <time>2018-07-15T09:16:44Z</time>
      </trkpt>
      <trkpt lat="43.9053" lon="1.74949">
        <ele>189</ele>
        <time>2018-07-15T09:16:45Z</time>
      </trkpt>
      <trkpt lat="43.90541" lon="1.7494">
        <ele>188</ele>
        <time>2018-07-15T09:16:46Z</time>
      </trkpt>
      <trkpt lat="43.9055" lon="1.7493">
        <ele>187</ele>
        <time>2018-07-15T09:16:47Z</time>
      </trkpt>
      <trkpt lat="43.90558" lon="1.74918">
        <ele>187</ele>
        <time>2018-07-15T09:16:48Z</time>
      </trkpt>
      <trkpt lat="43.90565" lon="1.74906">
        <ele>186</ele>
        <time>2018-07-15T09:16:49Z</time>
      </trkpt>
      <trkpt lat="43.90572" lon="1.74892">
        <ele>186</ele>
        <time>2018-07-15T09:16:50Z</time>
      </trkpt>
      <trkpt lat="43.90578" lon="1.74878">
        <ele>185</ele>
        <time>2018-07-15T09:16:51Z</time>
      </trkpt>
      <trkpt lat="43.90583" lon="1.74864">
        <ele>184</ele>
        <time>2018-07-15T09:16:52Z</time>
      </trkpt>
      <trkpt lat="43.90588" lon="1.74849">
        <ele>183</ele>
        <time>2018-07-15T09:16:53Z</time>
      </trkpt>
      <trkpt lat="43.90593" lon="1.74834">
        <ele>182</ele>
        <time>2018-07-15T09:16:54Z</time>
      </trkpt>
      <trkpt lat="43.90598" lon="1.74818">
        <ele>181</ele>
        <time>2018-07-15T09:16:55Z</time>
      </trkpt>
      <trkpt lat="43.90604" lon="1.74804">
        <ele>181</ele>
        <time>2018-07-15T09:16:56Z</time>
      </trkpt>
      <trkpt lat="43.9061" lon="1.74789">
        <ele>180</ele>
        <time>2018-07-15T09:16:57Z</time>
      </trkpt>
      <trkpt lat="43.90616" lon="1.74775">
        <ele>179</ele>
        <time>2018-07-15T09:16:58Z</time>
      </trkpt>
      <trkpt lat="43.90623" lon="1.74761">
        <ele>179</ele>
        <time>2018-07-15T09:16:59Z</time>
      </trkpt>
      <trkpt lat="43.90629" lon="1.74747">
        <ele>178</ele>
        <time>2018-07-15T09:17:00Z</time>
      </trkpt>
      <trkpt lat="43.90636" lon="1.74733">
        <ele>177</ele>
        <time>2018-07-15T09:17:01Z</time>
      </trkpt>
      <trkpt lat="43.90643" lon="1.74719">
        <ele>176</ele>
        <time>2018-07-15T09:17:02Z</time>
      </trkpt>
      <trkpt lat="43.9065" lon="1.74706">
        <ele>175</ele>
        <time>2018-07-15T09:17:03Z</time>
      </trkpt>
      <trkpt lat="43.90658" lon="1.74694">
        <ele>175</ele>
        <time>2018-07-15T09:17:04Z</time>
      </trkpt>
      <trkpt lat="43.90667" lon="1.74683">
        <ele>174</ele>
        <time>2018-07-15T09:17:05Z</time>
      </trkpt>
      <trkpt lat="43.90677" lon="1.74674">
        <ele>174</ele>
        <time>2018-07-15T09:17:06Z</time>
      </trkpt>
      <trkpt lat="43.90687" lon="1.74667">
        <ele>173</ele>
        <time>2018-07-15T09:17:07Z</time>
      </trkpt>
      <trkpt lat="43.90698" lon="1.74661">
        <ele>173</ele>
        <time>2018-07-15T09:17:08Z</time>
      </trkpt>
      <trkpt lat="43.90709" lon="1.74657">
        <ele>172</ele>
        <time>2018-07-15T09:17:09Z</time>
      </trkpt>
      <trkpt lat="43.90721" lon="1.74655">
        <ele>172</ele>
        <time>2018-07-15T09:17:10Z</time>
      </trkpt>
      <trkpt lat="43.90733" lon="1.74654">
        <ele>172</ele>
        <time>2018-07-15T09:17:11Z</time>
      </trkpt>
      <trkpt lat="43.90745" lon="1.74654">
        <ele>171</ele>
        <time>2018-07-15T09:17:12Z</time>
      </trkpt>
      <trkpt lat="43.90758" lon="1.74657">
        <ele>169</ele>
        <time>2018-07-15T09:17:13Z</time>
      </trkpt>
      <trkpt lat="43.90771" lon="1.74662">
        <ele>168</ele>
        <time>2018-07-15T09:17:14Z</time>
      </trkpt>
      <trkpt lat="43.90783" lon="1.74667">
        <ele>167</ele>
        <time>2018-07-15T09:17:15Z</time>
      </trkpt>
      <trkpt lat="43.90795" lon="1.74672">
        <ele>164</ele>
        <time>2018-07-15T09:17:16Z</time>
      </trkpt>
      <trkpt lat="43.90806" lon="1.74677">
        <ele>163</ele>
        <time>2018-07-15T09:17:17Z</time>
      </trkpt>
      <trkpt lat="43.90816" lon="1.74682">
        <ele>162</ele>
        <time>2018-07-15T09:17:18Z</time>
      </trkpt>
      <trkpt lat="43.90825" lon="1.74686">
        <ele>162</ele>
        <time>2018-07-15T09:17:19Z</time>
      </trkpt>
      <trkpt lat="43.90833" lon="1.74691">
        <ele>162</ele>
        <time>2018-07-15T09:17:20Z</time>
      </trkpt>
      <trkpt lat="43.9084" lon="1.74696">
        <ele>162</ele>
        <time>2018-07-15T09:17:21Z</time>
      </trkpt>
      <trkpt lat="43.90847" lon="1.74701">
        <ele>161</ele>
        <time>2018-07-15T09:17:22Z</time>
      </trkpt>
      <trkpt lat="43.90852" lon="1.74707">
        <ele>161</ele>
        <time>2018-07-15T09:17:23Z</time>
      </trkpt>
      <trkpt lat="43.90857" lon="1.74713">
        <ele>161</ele>
        <time>2018-07-15T09:17:24Z</time>
      </trkpt>
      <trkpt lat="43.90862" lon="1.74721">
        <ele>161</ele>
        <time>2018-07-15T09:17:25Z</time>
      </trkpt>
      <trkpt lat="43.90867" lon="1.74729">
        <ele>160</ele>
        <time>2018-07-15T09:17:26Z</time>
      </trkpt>
      <trkpt lat="43.90872" lon="1.74738">
        <ele>159</ele>
        <time>2018-07-15T09:17:27Z</time>
      </trkpt>
      <trkpt lat="43.90876" lon="1.74748">
        <ele>158</ele>
        <time>2018-07-15T09:17:28Z</time>
      </trkpt>
      <trkpt lat="43.9088" lon="1.74759">
        <ele>158</ele>
        <time>2018-07-15T09:17:29Z</time>
      </trkpt>
      <trkpt lat="43.90884" lon="1.74769">
        <ele>157</ele>
        <time>2018-07-15T09:17:30Z</time>
      </trkpt>
      <trkpt lat="43.90887" lon="1.7478">
        <ele>157</ele>
        <time>2018-07-15T09:17:31Z</time>
      </trkpt>
      <trkpt lat="43.9089" lon="1.74789">
        <ele>156</ele>
        <time>2018-07-15T09:17:32Z</time>
      </trkpt>
      <trkpt lat="43.90894" lon="1.74797">
        <ele>155</ele>
        <time>2018-07-15T09:17:33Z</time>
      </trkpt>
      <trkpt lat="43.90898" lon="1.74804">
        <ele>155</ele>
        <time>2018-07-15T09:17:34Z</time>
      </trkpt>
      <trkpt lat="43.90903" lon="1.74809">
        <ele>155</ele>
        <time>2018-07-15T09:17:35Z</time>
      </trkpt>
      <trkpt lat="43.90907" lon="1.74813">
        <ele>155</ele>
        <time>2018-07-15T09:17:36Z</time>
      </trkpt>
      <trkpt lat="43.9091" lon="1.74816">
        <ele>155</ele>
        <time>2018-07-15T09:17:37Z</time>
      </trkpt>
      <trkpt lat="43.90912" lon="1.74818">
        <ele>155</ele>
        <time>2018-07-15T09:17:38Z</time>
      </trkpt>
      <trkpt lat="43.90913" lon="1.74818">
        <ele>155</ele>
        <time>2018-07-15T09:17:39Z</time>
      </trkpt>
      <trkpt lat="43.90914" lon="1.74819">
        <ele>156</ele>
        <time>2018-07-15T09:17:40Z</time>
      </trkpt>
      <trkpt lat="43.90914" lon="1.74819">
        <ele>156</ele>
        <time>2018-07-15T09:17:41Z</time>
      </trkpt>
      <trkpt lat="43.90914" lon="1.74819">
        <ele>156</ele>
        <time>2018-07-15T09:17:42Z</time>
      </trkpt>
      <trkpt lat="43.90914" lon="1.74819">
        <ele>156</ele>
        <time>2018-07-15T09:17:43Z</time>
      </trkpt>
      <trkpt lat="43.90914" lon="1.74819">
        <ele>156</ele>
        <time>2018-07-15T09:17:50Z</time>
      </trkpt>
      <trkpt lat="43.90915" lon="1.7482">
        <ele>156</ele>
        <time>2018-07-15T09:17:51Z</time>
      </trkpt>
      <trkpt lat="43.90916" lon="1.74821">
        <ele>156</ele>
        <time>2018-07-15T09:17:52Z</time>
      </trkpt>
      <trkpt lat="43.90917" lon="1.74822">
        <ele>156</ele>
        <time>2018-07-15T09:17:53Z</time>
      </trkpt>
      <trkpt lat="43.90919" lon="1.74823">
        <ele>156</ele>
        <time>2018-07-15T09:17:54Z</time>
      </trkpt>
      <trkpt lat="43.90921" lon="1.74823">
        <ele>156</ele>
        <time>2018-07-15T09:17:55Z</time>
      </trkpt>
      <trkpt lat="43.90924" lon="1.74824">
        <ele>156</ele>
        <time>2018-07-15T09:17:56Z</time>
      </trkpt>
      <trkpt lat="43.90927" lon="1.74825">
        <ele>156</ele>
        <time>2018-07-15T09:17:57Z</time>
      </trkpt>
      <trkpt lat="43.9093" lon="1.74826">
        <ele>156</ele>
        <time>2018-07-15T09:17:58Z</time>
      </trkpt>
      <trkpt lat="43.90934" lon="1.74828">
        <ele>156</ele>
        <time>2018-07-15T09:17:59Z</time>
      </trkpt>
      <trkpt lat="43.90938" lon="1.7483">
        <ele>156</ele>
        <time>2018-07-15T09:18:00Z</time>
      </trkpt>
      <trkpt lat="43.90942" lon="1.74833">
        <ele>155</ele>
        <time>2018-07-15T09:18:01Z</time>
      </trkpt>
      <trkpt lat="43.90946" lon="1.74837">
        <ele>155</ele>
        <time>2018-07-15T09:18:02Z</time>
      </trkpt>
      <trkpt lat="43.9095" lon="1.74841">
        <ele>155</ele>
        <time>2018-07-15T09:18:03Z</time>
      </trkpt>
      <trkpt lat="43.90954" lon="1.74845">
        <ele>154</ele>
        <time>2018-07-15T09:18:04Z</time>
      </trkpt>
      <trkpt lat="43.90958" lon="1.74849">
        <ele>154</ele>
        <time>2018-07-15T09:18:05Z</time>
      </trkpt>
      <trkpt lat="43.90962" lon="1.74854">
        <ele>154</ele>
        <time>2018-07-15T09:18:06Z</time>
      </trkpt>
      <trkpt lat="43.90966" lon="1.74858">
        <ele>154</ele>
        <time>2018-07-15T09:18:07Z</time>
      </trkpt>
      <trkpt lat="43.90969" lon="1.74861">
        <ele>154</ele>
        <time>2018-07-15T09:18:08Z</time>
      </trkpt>
      <trkpt lat="43.90972" lon="1.74865">
        <ele>154</ele>
        <time>2018-07-15T09:18:09Z</time>
      </trkpt>
      <trkpt lat="43.90976" lon="1.74869">
        <ele>155</ele>
        <time>2018-07-15T09:18:10Z</time>
      </trkpt>
      <trkpt lat="43.90979" lon="1.74873">
        <ele>154</ele>
        <time>2018-07-15T09:18:11Z</time>
      </trkpt>
      <trkpt lat="43.90983" lon="1.74877">
        <ele>155</ele>
        <time>2018-07-15T09:18:12Z</time>
      </trkpt>
      <trkpt lat="43.90986" lon="1.74881">
        <ele>155</ele>
        <time>2018-07-15T09:18:13Z</time>
      </trkpt>
      <trkpt lat="43.9099" lon="1.74884">
        <ele>154</ele>
        <time>2018-07-15T09:18:14Z</time>
      </trkpt>
      <trkpt lat="43.90993" lon="1.74887">
        <ele>154</ele>
        <time>2018-07-15T09:18:15Z</time>
      </trkpt>
      <trkpt lat="43.90996" lon="1.7489">
        <ele>155</ele>
        <time>2018-07-15T09:18:16Z</time>
      </trkpt>
      <trkpt lat="43.91" lon="1.74894">
        <ele>155</ele>
        <time>2018-07-15T09:18:17Z</time>
      </trkpt>
      <trkpt lat="43.91004" lon="1.74897">
        <ele>155</ele>
        <time>2018-07-15T09:18:18Z</time>
      </trkpt>
      <trkpt lat="43.91008" lon="1.74901">
        <ele>155</ele>
        <time>2018-07-15T09:18:19Z</time>
      </trkpt>
      <trkpt lat="43.91012" lon="1.74904">
        <ele>155</ele>
        <time>2018-07-15T09:18:20Z</time>
      </trkpt>
      <trkpt lat="43.91016" lon="1.74908">
        <ele>155</ele>
        <time>2018-07-15T09:18:21Z</time>
      </trkpt>
      <trkpt lat="43.9102" lon="1.74911">
        <ele>154</ele>
        <time>2018-07-15T09:18:22Z</time>
      </trkpt>
      <trkpt lat="43.91024" lon="1.74915">
        <ele>154</ele>
        <time>2018-07-15T09:18:23Z</time>
      </trkpt>
      <trkpt lat="43.91028" lon="1.74918">
        <ele>154</ele>
        <time>2018-07-15T09:18:24Z</time>
      </trkpt>
      <trkpt lat="43.91032" lon="1.74922">
        <ele>154</ele>
        <time>2018-07-15T09:18:25Z</time>
      </trkpt>
      <trkpt lat="43.91037" lon="1.74924">
        <ele>154</ele>
        <time>2018-07-15T09:18:26Z</time>
      </trkpt>
      <trkpt lat="43.91042" lon="1.74927">
        <ele>154</ele>
        <time>2018-07-15T09:18:27Z</time>
      </trkpt>
      <trkpt lat="43.91047" lon="1.7493">
        <ele>154</ele>
        <time>2018-07-15T09:18:28Z</time>
      </trkpt>
      <trkpt lat="43.91051" lon="1.74933">
        <ele>154</ele>
        <time>2018-07-15T09:18:29Z</time>
      </trkpt>
      <trkpt lat="43.91056" lon="1.74935">
        <ele>154</ele>
        <time>2018-07-15T09:18:30Z</time>
      </trkpt>
      <trkpt lat="43.91061" lon="1.74938">
        <ele>154</ele>
        <time>2018-07-15T09:18:31Z</time>
      </trkpt>
      <trkpt lat="43.91066" lon="1.7494">
        <ele>154</ele>
        <time>2018-07-15T09:18:32Z</time>
      </trkpt>
      <trkpt lat="43.91071" lon="1.74941">
        <ele>154</ele>
        <time>2018-07-15T09:18:33Z</time>
      </trkpt>
      <trkpt lat="43.91075" lon="1.74942">
        <ele>154</ele>
        <time>2018-07-15T09:18:34Z</time>
      </trkpt>
      <trkpt lat="43.9108" lon="1.74944">
        <ele>154</ele>
        <time>2018-07-15T09:18:35Z</time>
      </trkpt>
      <trkpt lat="43.91085" lon="1.74945">
        <ele>154</ele>
        <time>2018-07-15T09:18:36Z</time>
      </trkpt>
      <trkpt lat="43.9109" lon="1.74946">
        <ele>154</ele>
        <time>2018-07-15T09:18:37Z</time>
      </trkpt>
      <trkpt lat="43.91095" lon="1.74947">
        <ele>154</ele>
        <time>2018-07-15T09:18:38Z</time>
      </trkpt>
      <trkpt lat="43.911" lon="1.74948">
        <ele>154</ele>
        <time>2018-07-15T09:18:39Z</time>
      </trkpt>
      <trkpt lat="43.91105" lon="1.74948">
        <ele>154</ele>
        <time>2018-07-15T09:18:40Z</time>
      </trkpt>
      <trkpt lat="43.9111" lon="1.74949">
        <ele>154</ele>
        <time>2018-07-15T09:18:41Z</time>
      </trkpt>
      <trkpt lat="43.91114" lon="1.74949">
        <ele>154</ele>
        <time>2018-07-15T09:18:42Z</time>
      </trkpt>
      <trkpt lat="43.91119" lon="1.74949">
        <ele>155</ele>
        <time>2018-07-15T09:18:43Z</time>
      </trkpt>
      <trkpt lat="43.91124" lon="1.74948">
        <ele>155</ele>
        <time>2018-07-15T09:18:44Z</time>
      </trkpt>
      <trkpt lat="43.91128" lon="1.74948">
        <ele>155</ele>
        <time>2018-07-15T09:18:45Z</time>
      </trkpt>
      <trkpt lat="43.91132" lon="1.74948">
        <ele>155</ele>
        <time>2018-07-15T09:18:46Z</time>
      </trkpt>
      <trkpt lat="43.91137" lon="1.74948">
        <ele>156</ele>
        <time>2018-07-15T09:18:47Z</time>
      </trkpt>
      <trkpt lat="43.91141" lon="1.74948">
        <ele>156</ele>
        <time>2018-07-15T09:18:48Z</time>
      </trkpt>
      <trkpt lat="43.91145" lon="1.74948">
        <ele>156</ele>
        <time>2018-07-15T09:18:49Z</time>
      </trkpt>
      <trkpt lat="43.91149" lon="1.74948">
        <ele>156</ele>
        <time>2018-07-15T09:18:50Z</time>
      </trkpt>
      <trkpt lat="43.91153" lon="1.74948">
        <ele>156</ele>
        <time>2018-07-15T09:18:51Z</time>
      </trkpt>
      <trkpt lat="43.91157" lon="1.74948">
        <ele>156</ele>
        <time>2018-07-15T09:18:52Z</time>
      </trkpt>
      <trkpt lat="43.91161" lon="1.74947">
        <ele>157</ele>
        <time>2018-07-15T09:18:53Z</time>
      </trkpt>
      <trkpt lat="43.91165" lon="1.74947">
        <ele>157</ele>
        <time>2018-07-15T09:18:54Z</time>
      </trkpt>
      <trkpt lat="43.91169" lon="1.74947">
        <ele>157</ele>
        <time>2018-07-15T09:18:55Z</time>
      </trkpt>
      <trkpt lat="43.91172" lon="1.74947">
        <ele>157</ele>
        <time>2018-07-15T09:18:56Z</time>
      </trkpt>
      <trkpt lat="43.91176" lon="1.74947">
        <ele>158</ele>
        <time>2018-07-15T09:18:57Z</time>
      </trkpt>
      <trkpt lat="43.91179" lon="1.74947">
        <ele>158</ele>
        <time>2018-07-15T09:18:58Z</time>
      </trkpt>
      <trkpt lat="43.91183" lon="1.74947">
        <ele>158</ele>
        <time>2018-07-15T09:18:59Z</time>
      </trkpt>
      <trkpt lat="43.91186" lon="1.74947">
        <ele>158</ele>
        <time>2018-07-15T09:19:00Z</time>
      </trkpt>
      <trkpt lat="43.9119" lon="1.74946">
        <ele>158</ele>
        <time>2018-07-15T09:19:01Z</time>
      </trkpt>
      <trkpt lat="43.91193" lon="1.74946">
        <ele>158</ele>
        <time>2018-07-15T09:19:02Z</time>
      </trkpt>
      <trkpt lat="43.91196" lon="1.74946">
        <ele>159</ele>
        <time>2018-07-15T09:19:03Z</time>
      </trkpt>
      <trkpt lat="43.91199" lon="1.74945">
        <ele>159</ele>
        <time>2018-07-15T09:19:04Z</time>
      </trkpt>
      <trkpt lat="43.91202" lon="1.74945">
        <ele>159</ele>
        <time>2018-07-15T09:19:05Z</time>
      </trkpt>
      <trkpt lat="43.91205" lon="1.74945">
        <ele>159</ele>
        <time>2018-07-15T09:19:06Z</time>
      </trkpt>
      <trkpt lat="43.91208" lon="1.74945">
        <ele>159</ele>
        <time>2018-07-15T09:19:07Z</time>
      </trkpt>
      <trkpt lat="43.91211" lon="1.74944">
        <ele>160</ele>
        <time>2018-07-15T09:19:08Z</time>
      </trkpt>
      <trkpt lat="43.91215" lon="1.74944">
        <ele>160</ele>
        <time>2018-07-15T09:19:09Z</time>
      </trkpt>
      <trkpt lat="43.91218" lon="1.74944">
        <ele>160</ele>
        <time>2018-07-15T09:19:10Z</time>
      </trkpt>
      <trkpt lat="43.91221" lon="1.74944">
        <ele>160</ele>
        <time>2018-07-15T09:19:11Z</time>
      </trkpt>
      <trkpt lat="43.91224" lon="1.74943">
        <ele>160</ele>
        <time>2018-07-15T09:19:12Z</time>
      </trkpt>
      <trkpt lat="43.91227" lon="1.74943">
        <ele>160</ele>
        <time>2018-07-15T09:19:13Z</time>
      </trkpt>
      <trkpt lat="43.9123" lon="1.74942">
        <ele>160</ele>
        <time>2018-07-15T09:19:14Z</time>
      </trkpt>
      <trkpt lat="43.91233" lon="1.74942">
        <ele>160</ele>
        <time>2018-07-15T09:19:15Z</time>
      </trkpt>
      <trkpt lat="43.91237" lon="1.74941">
        <ele>161</ele>
        <time>2018-07-15T09:19:16Z</time>
      </trkpt>
      <trkpt lat="43.9124" lon="1.74939">
        <ele>161</ele>
        <time>2018-07-15T09:19:17Z</time>
      </trkpt>
      <trkpt lat="43.91244" lon="1.74938">
        <ele>161</ele>
        <time>2018-07-15T09:19:18Z</time>
      </trkpt>
      <trkpt lat="43.91248" lon="1.74937">
        <ele>161</ele>
        <time>2018-07-15T09:19:19Z</time>
      </trkpt>
      <trkpt lat="43.91251" lon="1.74936">
        <ele>161</ele>
        <time>2018-07-15T09:19:20Z</time>
      </trkpt>
      <trkpt lat="43.91255" lon="1.74935">
        <ele>161</ele>
        <time>2018-07-15T09:19:21Z</time>
      </trkpt>
      <trkpt lat="43.91258" lon="1.74934">
        <ele>161</ele>
        <time>2018-07-15T09:19:22Z</time>
      </trkpt>
      <trkpt lat="43.91262" lon="1.74933">
        <ele>161</ele>
        <time>2018-07-15T09:19:23Z</time>
      </trkpt>
      <trkpt lat="43.91266" lon="1.74931">
        <ele>161</ele>
        <time>2018-07-15T09:19:24Z</time>
      </trkpt>
      <trkpt lat="43.9127" lon="1.7493">
        <ele>161</ele>
        <time>2018-07-15T09:19:25Z</time>
      </trkpt>
      <trkpt lat="43.91274" lon="1.74928">
        <ele>161</ele>
        <time>2018-07-15T09:19:26Z</time>
      </trkpt>
      <trkpt lat="43.91278" lon="1.74927">
        <ele>161</ele>
        <time>2018-07-15T09:19:27Z</time>
      </trkpt>
      <trkpt lat="43.91282" lon="1.74925">
        <ele>161</ele>
        <time>2018-07-15T09:19:28Z</time>
      </trkpt>
      <trkpt lat="43.91286" lon="1.74923">
        <ele>161</ele>
        <time>2018-07-15T09:19:29Z</time>
      </trkpt>
      <trkpt lat="43.9129" lon="1.74921">
        <ele>161</ele>
        <time>2018-07-15T09:19:30Z</time>
      </trkpt>
      <trkpt lat="43.91294" lon="1.74919">
        <ele>162</ele>
        <time>2018-07-15T09:19:31Z</time>
      </trkpt>
      <trkpt lat="43.91299" lon="1.74918">
        <ele>162</ele>
        <time>2018-07-15T09:19:32Z</time>
      </trkpt>
      <trkpt lat="43.91303" lon="1.74916">
        <ele>162</ele>
        <time>2018-07-15T09:19:33Z</time>
      </trkpt>
      <trkpt lat="43.91307" lon="1.74914">
        <ele>162</ele>
        <time>2018-07-15T09:19:34Z</time>
      </trkpt>
      <trkpt lat="43.91311" lon="1.74912">
        <ele>162</ele>
        <time>2018-07-15T09:19:35Z</time>
      </trkpt>
      <trkpt lat="43.91315" lon="1.74909">
        <ele>162</ele>
        <time>2018-07-15T09:19:36Z</time>
      </trkpt>
      <trkpt lat="43.91319" lon="1.74907">
        <ele>162</ele>
        <time>2018-07-15T09:19:37Z</time>
      </trkpt>
      <trkpt lat="43.91323" lon="1.74905">
        <ele>162</ele>
        <time>2018-07-15T09:19:38Z</time>
      </trkpt>
      <trkpt lat="43.91327" lon="1.74902">
        <ele>163</ele>
        <time>2018-07-15T09:19:39Z</time>
      </trkpt>
      <trkpt lat="43.9133" lon="1.749">
        <ele>163</ele>
        <time>2018-07-15T09:19:40Z</time>
      </trkpt>
      <trkpt lat="43.91333" lon="1.74897">
        <ele>163</ele>
        <time>2018-07-15T09:19:41Z</time>
      </trkpt>
      <trkpt lat="43.91337" lon="1.74895">
        <ele>163</ele>
        <time>2018-07-15T09:19:42Z</time>
      </trkpt>
      <trkpt lat="43.91341" lon="1.74892">
        <ele>163</ele>
        <time>2018-07-15T09:19:43Z</time>
      </trkpt>
      <trkpt lat="43.91345" lon="1.7489">
        <ele>163</ele>
        <time>2018-07-15T09:19:44Z</time>
      </trkpt>
      <trkpt lat="43.91348" lon="1.74887">
        <ele>163</ele>
        <time>2018-07-15T09:19:45Z</time>
      </trkpt>
      <trkpt lat="43.91352" lon="1.74885">
        <ele>163</ele>
        <time>2018-07-15T09:19:46Z</time>
      </trkpt>
      <trkpt lat="43.91355" lon="1.74882">
        <ele>163</ele>
        <time>2018-07-15T09:19:47Z</time>
      </trkpt>
      <trkpt lat="43.91358" lon="1.74878">
        <ele>163</ele>
        <time>2018-07-15T09:19:48Z</time>
      </trkpt>
      <trkpt lat="43.91361" lon="1.74875">
        <ele>163</ele>
        <time>2018-07-15T09:19:49Z</time>
      </trkpt>
      <trkpt lat="43.91364" lon="1.74871">
        <ele>164</ele>
        <time>2018-07-15T09:19:50Z</time>
      </trkpt>
      <trkpt lat="43.91367" lon="1.74868">
        <ele>164</ele>
        <time>2018-07-15T09:19:51Z</time>
      </trkpt>
      <trkpt lat="43.9137" lon="1.74865">
        <ele>164</ele>
        <time>2018-07-15T09:19:52Z</time>
      </trkpt>
      <trkpt lat="43.91373" lon="1.74861">
        <ele>164</ele>
        <time>2018-07-15T09:19:53Z</time>
      </trkpt>
      <trkpt lat="43.91375" lon="1.74857">
        <ele>165</ele>
        <time>2018-07-15T09:19:54Z</time>
      </trkpt>
      <trkpt lat="43.91378" lon="1.74853">
        <ele>165</ele>
        <time>2018-07-15T09:19:55Z</time>
      </trkpt>
      <trkpt lat="43.9138" lon="1.7485">
        <ele>165</ele>
        <time>2018-07-15T09:19:56Z</time>
      </trkpt>
      <trkpt lat="43.91382" lon="1.74846">
        <ele>165</ele>
        <time>2018-07-15T09:19:57Z</time>
      </trkpt>
      <trkpt lat="43.91385" lon="1.74842">
        <ele>165</ele>
        <time>2018-07-15T09:19:58Z</time>
      </trkpt>
      <trkpt lat="43.91387" lon="1.74838">
        <ele>165</ele>
        <time>2018-07-15T09:19:59Z</time>
      </trkpt>
      <trkpt lat="43.91389" lon="1.74834">
        <ele>165</ele>
        <time>2018-07-15T09:20:00Z</time>
      </trkpt>
      <trkpt lat="43.91392" lon="1.7483">
        <ele>165</ele>
        <time>2018-07-15T09:20:01Z</time>
      </trkpt>
      <trkpt lat="43.91394" lon="1.74826">
        <ele>166</ele>
        <time>2018-07-15T09:20:02Z</time>
      </trkpt>
      <trkpt lat="43.91397" lon="1.74821">
        <ele>165</ele>
        <time>2018-07-15T09:20:03Z</time>
      </trkpt>
      <trkpt lat="43.91399" lon="1.74817">
        <ele>166</ele>
        <time>2018-07-15T09:20:04Z</time>
      </trkpt>
      <trkpt lat="43.91401" lon="1.74813">
        <ele>166</ele>
        <time>2018-07-15T09:20:05Z</time>
      </trkpt>
      <trkpt lat="43.91403" lon="1.74809">
        <ele>166</ele>
        <time>2018-07-15T09:20:06Z</time>
      </trkpt>
      <trkpt lat="43.91406" lon="1.74806">
        <ele>166</ele>
        <time>2018-07-15T09:20:07Z</time>
      </trkpt>
      <trkpt lat="43.91408" lon="1.74802">
        <ele>167</ele>
        <time>2018-07-15T09:20:08Z</time>
      </trkpt>
      <trkpt lat="43.9141" lon="1.74798">
        <ele>167</ele>
        <time>2018-07-15T09:20:09Z</time>
      </trkpt>
      <trkpt lat="43.91413" lon="1.74794">
        <ele>167</ele>
        <time>2018-07-15T09:20:10Z</time>
      </trkpt>
      <trkpt lat="43.91415" lon="1.7479">
        <ele>167</ele>
        <time>2018-07-15T09:20:11Z</time>
      </trkpt>
      <trkpt lat="43.91417" lon="1.74786">
        <ele>167</ele>
        <time>2018-07-15T09:20:12Z</time>
      </trkpt>
      <trkpt lat="43.91419" lon="1.74782">
        <ele>167</ele>
        <time>2018-07-15T09:20:13Z</time>
      </trkpt>
      <trkpt lat="43.91422" lon="1.74779">
        <ele>167</ele>
        <time>2018-07-15T09:20:14Z</time>
      </trkpt>
      <trkpt lat="43.91424" lon="1.74775">
        <ele>168</ele>
        <time>2018-07-15T09:20:15Z</time>
      </trkpt>
      <trkpt lat="43.91426" lon="1.74771">
        <ele>168</ele>
        <time>2018-07-15T09:20:16Z</time>
      </trkpt>
      <trkpt lat="43.91428" lon="1.74767">
        <ele>168</ele>
        <time>2018-07-15T09:20:17Z</time>
      </trkpt>
      <trkpt lat="43.91431" lon="1.74763">
        <ele>168</ele>
        <time>2018-07-15T09:20:18Z</time>
      </trkpt>
      <trkpt lat="43.91433" lon="1.74759">
        <ele>168</ele>
        <time>2018-07-15T09:20:19Z</time>
      </trkpt>
      <trkpt lat="43.91435" lon="1.74755">
        <ele>168</ele>
        <time>2018-07-15T09:20:20Z</time>
      </trkpt>
      <trkpt lat="43.91437" lon="1.74752">
        <ele>169</ele>
        <time>2018-07-15T09:20:21Z</time>
      </trkpt>
      <trkpt lat="43.91439" lon="1.74748">
        <ele>169</ele>
        <time>2018-07-15T09:20:22Z</time>
      </trkpt>
      <trkpt lat="43.91441" lon="1.74744">
        <ele>169</ele>
        <time>2018-07-15T09:20:23Z</time>
      </trkpt>
      <trkpt lat="43.91444" lon="1.7474">
        <ele>169</ele>
        <time>2018-07-15T09:20:24Z</time>
      </trkpt>
      <trkpt lat="43.91446" lon="1.74736">
        <ele>170</ele>
        <time>2018-07-15T09:20:25Z</time>
      </trkpt>
      <trkpt lat="43.91449" lon="1.74733">
        <ele>170</ele>
        <time>2018-07-15T09:20:26Z</time>
      </trkpt>
      <trkpt lat="43.91451" lon="1.74729">
        <ele>170</ele>
        <time>2018-07-15T09:20:27Z</time>
      </trkpt>
      <trkpt lat="43.91454" lon="1.74725">
        <ele>170</ele>
        <time>2018-07-15T09:20:28Z</time>
      </trkpt>
      <trkpt lat="43.91456" lon="1.74721">
        <ele>170</ele>
        <time>2018-07-15T09:20:29Z</time>
      </trkpt>
      <trkpt lat="43.91458" lon="1.74717">
        <ele>170</ele>
        <time>2018-07-15T09:20:30Z</time>
      </trkpt>
      <trkpt lat="43.9146" lon="1.74713">
        <ele>170</ele>
        <time>2018-07-15T09:20:31Z</time>
      </trkpt>
      <trkpt lat="43.91462" lon="1.74709">
        <ele>170</ele>
        <time>2018-07-15T09:20:32Z</time>
      </trkpt>
      <trkpt lat="43.91465" lon="1.74705">
        <ele>171</ele>
        <time>2018-07-15T09:20:33Z</time>
      </trkpt>
      <trkpt lat="43.91467" lon="1.74701">
        <ele>171</ele>
        <time>2018-07-15T09:20:34Z</time>
      </trkpt>
      <trkpt lat="43.91469" lon="1.74697">
        <ele>171</ele>
        <time>2018-07-15T09:20:35Z</time>
      </trkpt>
      <trkpt lat="43.91472" lon="1.74693">
        <ele>171</ele>
        <time>2018-07-15T09:20:36Z</time>
      </trkpt>
      <trkpt lat="43.91474" lon="1.74689">
        <ele>171</ele>
        <time>2018-07-15T09:20:37Z</time>
      </trkpt>
      <trkpt lat="43.91477" lon="1.74685">
        <ele>171</ele>
        <time>2018-07-15T09:20:38Z</time>
      </trkpt>
      <trkpt lat="43.91479" lon="1.74681">
        <ele>172</ele>
        <time>2018-07-15T09:20:39Z</time>
      </trkpt>
      <trkpt lat="43.91481" lon="1.74677">
        <ele>172</ele>
        <time>2018-07-15T09:20:40Z</time>
      </trkpt>
      <trkpt lat="43.91484" lon="1.74673">
        <ele>172</ele>
        <time>2018-07-15T09:20:41Z</time>
      </trkpt>
      <trkpt lat="43.91486" lon="1.7467">
        <ele>172</ele>
        <time>2018-07-15T09:20:42Z</time>
      </trkpt>
      <trkpt lat="43.91489" lon="1.74666">
        <ele>172</ele>
        <time>2018-07-15T09:20:43Z</time>
      </trkpt>
      <trkpt lat="43.91491" lon="1.74662">
        <ele>173</ele>
        <time>2018-07-15T09:20:44Z</time>
      </trkpt>
      <trkpt lat="43.91494" lon="1.74658">
        <ele>173</ele>
        <time>2018-07-15T09:20:45Z</time>
      </trkpt>
      <trkpt lat="43.91496" lon="1.74654">
        <ele>173</ele>
        <time>2018-07-15T09:20:46Z</time>
      </trkpt>
      <trkpt lat="43.91498" lon="1.74651">
        <ele>173</ele>
        <time>2018-07-15T09:20:47Z</time>
      </trkpt>
      <trkpt lat="43.915" lon="1.74647">
        <ele>173</ele>
        <time>2018-07-15T09:20:48Z</time>
      </trkpt>
      <trkpt lat="43.91502" lon="1.74643">
        <ele>173</ele>
        <time>2018-07-15T09:20:49Z</time>
      </trkpt>
      <trkpt lat="43.91505" lon="1.74639">
        <ele>173</ele>
        <time>2018-07-15T09:20:50Z</time>
      </trkpt>
      <trkpt lat="43.91507" lon="1.74635">
        <ele>173</ele>
        <time>2018-07-15T09:20:51Z</time>
      </trkpt>
      <trkpt lat="43.91509" lon="1.74631">
        <ele>173</ele>
        <time>2018-07-15T09:20:52Z</time>
      </trkpt>
      <trkpt lat="43.91511" lon="1.74627">
        <ele>174</ele>
        <time>2018-07-15T09:20:53Z</time>
      </trkpt>
      <trkpt lat="43.91513" lon="1.74623">
        <ele>174</ele>
        <time>2018-07-15T09:20:54Z</time>
      </trkpt>
      <trkpt lat="43.91516" lon="1.74619">
        <ele>174</ele>
        <time>2018-07-15T09:20:55Z</time>
      </trkpt>
      <trkpt lat="43.91518" lon="1.74615">
        <ele>174</ele>
        <time>2018-07-15T09:20:56Z</time>
      </trkpt>
      <trkpt lat="43.91521" lon="1.74612">
        <ele>174</ele>
        <time>2018-07-15T09:20:57Z</time>
      </trkpt>
      <trkpt lat="43.91523" lon="1.74608">
        <ele>175</ele>
        <time>2018-07-15T09:20:58Z</time>
      </trkpt>
      <trkpt lat="43.91525" lon="1.74605">
        <ele>175</ele>
        <time>2018-07-15T09:20:59Z</time>
      </trkpt>
      <trkpt lat="43.91528" lon="1.74601">
        <ele>175</ele>
        <time>2018-07-15T09:21:00Z</time>
      </trkpt>
      <trkpt lat="43.9153" lon="1.74597">
        <ele>175</ele>
        <time>2018-07-15T09:21:01Z</time>
      </trkpt>
      <trkpt lat="43.91532" lon="1.74593">
        <ele>175</ele>
        <time>2018-07-15T09:21:02Z</time>
      </trkpt>
      <trkpt lat="43.91534" lon="1.74589">
        <ele>176</ele>
        <time>2018-07-15T09:21:03Z</time>
      </trkpt>
      <trkpt lat="43.91536" lon="1.74586">
        <ele>176</ele>
        <time>2018-07-15T09:21:04Z</time>
      </trkpt>
      <trkpt lat="43.91538" lon="1.74582">
        <ele>176</ele>
        <time>2018-07-15T09:21:05Z</time>
      </trkpt>
      <trkpt lat="43.9154" lon="1.74578">
        <ele>176</ele>
        <time>2018-07-15T09:21:06Z</time>
      </trkpt>
      <trkpt lat="43.91543" lon="1.74574">
        <ele>176</ele>
        <time>2018-07-15T09:21:07Z</time>
      </trkpt>
      <trkpt lat="43.91545" lon="1.7457">
        <ele>176</ele>
        <time>2018-07-15T09:21:08Z</time>
      </trkpt>
      <trkpt lat="43.91547" lon="1.74566">
        <ele>176</ele>
        <time>2018-07-15T09:21:09Z</time>
      </trkpt>
      <trkpt lat="43.91549" lon="1.74563">
        <ele>176</ele>
        <time>2018-07-15T09:21:10Z</time>
      </trkpt>
      <trkpt lat="43.91551" lon="1.74559">
        <ele>177</ele>
        <time>2018-07-15T09:21:11Z</time>
      </trkpt>
      <trkpt lat="43.91554" lon="1.74555">
        <ele>177</ele>
        <time>2018-07-15T09:21:12Z</time>
      </trkpt>
      <trkpt lat="43.91556" lon="1.74551">
        <ele>177</ele>
        <time>2018-07-15T09:21:13Z</time>
      </trkpt>
      <trkpt lat="43.91558" lon="1.74547">
        <ele>177</ele>
        <time>2018-07-15T09:21:14Z</time>
      </trkpt>
      <trkpt lat="43.91561" lon="1.74544">
        <ele>177</ele>
        <time>2018-07-15T09:21:15Z</time>
      </trkpt>
      <trkpt lat="43.91563" lon="1.7454">
        <ele>178</ele>
        <time>2018-07-15T09:21:16Z</time>
      </trkpt>
      <trkpt lat="43.91565" lon="1.74536">
        <ele>178</ele>
        <time>2018-07-15T09:21:17Z</time>
      </trkpt>
      <trkpt lat="43.91568" lon="1.74531">
        <ele>178</ele>
        <time>2018-07-15T09:21:18Z</time>
      </trkpt>
      <trkpt lat="43.9157" lon="1.74527">
        <ele>178</ele>
        <time>2018-07-15T09:21:19Z</time>
      </trkpt>
      <trkpt lat="43.91572" lon="1.74523">
        <ele>178</ele>
        <time>2018-07-15T09:21:20Z</time>
      </trkpt>
      <trkpt lat="43.91575" lon="1.74519">
        <ele>178</ele>
        <time>2018-07-15T09:21:21Z</time>
      </trkpt>
      <trkpt lat="43.91577" lon="1.74515">
        <ele>178</ele>
        <time>2018-07-15T09:21:22Z</time>
      </trkpt>
      <trkpt lat="43.9158" lon="1.74511">
        <ele>178</ele>
        <time>2018-07-15T09:21:23Z</time>
      </trkpt>
      <trkpt lat="43.91582" lon="1.74507">
        <ele>179</ele>
        <time>2018-07-15T09:21:24Z</time>
      </trkpt>
      <trkpt lat="43.91585" lon="1.74503">
        <ele>179</ele>
        <time>2018-07-15T09:21:25Z</time>
      </trkpt>
      <trkpt lat="43.91587" lon="1.74499">
        <ele>179</ele>
        <time>2018-07-15T09:21:26Z</time>
      </trkpt>
      <trkpt lat="43.91589" lon="1.74495">
        <ele>179</ele>
        <time>2018-07-15T09:21:27Z</time>
      </trkpt>
      <trkpt lat="43.91592" lon="1.7449">
        <ele>179</ele>
        <time>2018-07-15T09:21:28Z</time>
      </trkpt>
      <trkpt lat="43.91594" lon="1.74486">
        <ele>179</ele>
        <time>2018-07-15T09:21:29Z</time>
      </trkpt>
      <trkpt lat="43.91597" lon="1.74482">
        <ele>179</ele>
        <time>2018-07-15T09:21:30Z</time>
      </trkpt>
      <trkpt lat="43.91599" lon="1.74477">
        <ele>179</ele>
        <time>2018-07-15T09:21:31Z</time>
      </trkpt>
      <trkpt lat="43.91602" lon="1.74474">
        <ele>179</ele>
        <time>2018-07-15T09:21:32Z</time>
      </trkpt>
      <trkpt lat="43.91604" lon="1.7447">
        <ele>179</ele>
        <time>2018-07-15T09:21:33Z</time>
      </trkpt>
      <trkpt lat="43.91607" lon="1.74466">
        <ele>179</ele>
        <time>2018-07-15T09:21:34Z</time>
      </trkpt>
      <trkpt lat="43.91609" lon="1.74462">
        <ele>179</ele>
        <time>2018-07-15T09:21:35Z</time>
      </trkpt>
      <trkpt lat="43.91611" lon="1.74458">
        <ele>179</ele>
        <time>2018-07-15T09:21:36Z</time>
      </trkpt>
      <trkpt lat="43.91614" lon="1.74454">
        <ele>180</ele>
        <time>2018-07-15T09:21:37Z</time>
      </trkpt>
      <trkpt lat="43.91616" lon="1.7445">
        <ele>180</ele>
        <time>2018-07-15T09:21:38Z</time>
      </trkpt>
      <trkpt lat="43.91618" lon="1.74446">
        <ele>180</ele>
        <time>2018-07-15T09:21:39Z</time>
      </trkpt>
      <trkpt lat="43.91621" lon="1.74441">
        <ele>181</ele>
        <time>2018-07-15T09:21:40Z</time>
      </trkpt>
      <trkpt lat="43.91623" lon="1.74437">
        <ele>181</ele>
        <time>2018-07-15T09:21:41Z</time>
      </trkpt>
      <trkpt lat="43.91625" lon="1.74432">
        <ele>181</ele>
        <time>2018-07-15T09:21:42Z</time>
      </trkpt>
      <trkpt lat="43.91627" lon="1.74428">
        <ele>181</ele>
        <time>2018-07-15T09:21:43Z</time>
      </trkpt>
      <trkpt lat="43.9163" lon="1.74424">
        <ele>181</ele>
        <time>2018-07-15T09:21:44Z</time>
      </trkpt>
      <trkpt lat="43.91632" lon="1.74419">
        <ele>181</ele>
        <time>2018-07-15T09:21:45Z</time>
      </trkpt>
      <trkpt lat="43.91634" lon="1.74415">
        <ele>181</ele>
        <time>2018-07-15T09:21:46Z</time>
      </trkpt>
      <trkpt lat="43.91635" lon="1.7441">
        <ele>181</ele>
        <time>2018-07-15T09:21:47Z</time>
      </trkpt>
      <trkpt lat="43.91637" lon="1.74406">
        <ele>182</ele>
        <time>2018-07-15T09:21:48Z</time>
      </trkpt>
      <trkpt lat="43.91639" lon="1.74401">
        <ele>182</ele>
        <time>2018-07-15T09:21:49Z</time>
      </trkpt>
      <trkpt lat="43.9164" lon="1.74396">
        <ele>182</ele>
        <time>2018-07-15T09:21:50Z</time>
      </trkpt>
      <trkpt lat="43.91642" lon="1.74391">
        <ele>182</ele>
        <time>2018-07-15T09:21:51Z</time>
      </trkpt>
      <trkpt lat="43.91644" lon="1.74386">
        <ele>182</ele>
        <time>2018-07-15T09:21:52Z</time>
      </trkpt>
      <trkpt lat="43.91646" lon="1.74381">
        <ele>182</ele>
        <time>2018-07-15T09:21:53Z</time>
      </trkpt>
      <trkpt lat="43.91647" lon="1.74376">
        <ele>182</ele>
        <time>2018-07-15T09:21:54Z</time>
      </trkpt>
      <trkpt lat="43.91648" lon="1.74371">
        <ele>182</ele>
        <time>2018-07-15T09:21:55Z</time>
      </trkpt>
      <trkpt lat="43.9165" lon="1.74366">
        <ele>183</ele>
        <time>2018-07-15T09:21:56Z</time>
      </trkpt>
      <trkpt lat="43.91651" lon="1.74361">
        <ele>183</ele>
        <time>2018-07-15T09:21:57Z</time>
      </trkpt>
      <trkpt lat="43.91652" lon="1.74357">
        <ele>183</ele>
        <time>2018-07-15T09:21:58Z</time>
      </trkpt>
      <trkpt lat="43.91653" lon="1.74352">
        <ele>183</ele>
        <time>2018-07-15T09:21:59Z</time>
      </trkpt>
      <trkpt lat="43.91654" lon="1.74347">
        <ele>183</ele>
        <time>2018-07-15T09:22:00Z</time>
      </trkpt>
      <trkpt lat="43.91655" lon="1.74341">
        <ele>183</ele>
        <time>2018-07-15T09:22:01Z</time>
      </trkpt>
      <trkpt lat="43.91656" lon="1.74337">
        <ele>183</ele>
        <time>2018-07-15T09:22:02Z</time>
      </trkpt>
      <trkpt lat="43.91657" lon="1.74331">
        <ele>183</ele>
        <time>2018-07-15T09:22:03Z</time>
      </trkpt>
      <trkpt lat="43.91658" lon="1.74326">
        <ele>184</ele>
        <time>2018-07-15T09:22:04Z</time>
      </trkpt>
      <trkpt lat="43.9166" lon="1.74321">
        <ele>184</ele>
        <time>2018-07-15T09:22:05Z</time>
      </trkpt>
      <trkpt lat="43.91662" lon="1.74316">
        <ele>184</ele>
        <time>2018-07-15T09:22:06Z</time>
      </trkpt>
      <trkpt lat="43.91663" lon="1.74311">
        <ele>184</ele>
        <time>2018-07-15T09:22:07Z</time>
      </trkpt>
      <trkpt lat="43.91665" lon="1.74306">
        <ele>184</ele>
        <time>2018-07-15T09:22:08Z</time>
      </trkpt>
      <trkpt lat="43.91667" lon="1.74301">
        <ele>184</ele>
        <time>2018-07-15T09:22:09Z</time>
      </trkpt>
      <trkpt lat="43.91668" lon="1.74295">
        <ele>185</ele>
        <time>2018-07-15T09:22:10Z</time>
      </trkpt>
      <trkpt lat="43.91671" lon="1.7429">
        <ele>185</ele>
        <time>2018-07-15T09:22:11Z</time>
      </trkpt>
      <trkpt lat="43.91674" lon="1.74285">
        <ele>185</ele>
        <time>2018-07-15T09:22:12Z</time>
      </trkpt>
      <trkpt lat="43.91676" lon="1.74279">
        <ele>185</ele>
        <time>2018-07-15T09:22:13Z</time>
      </trkpt>
      <trkpt lat="43.91679" lon="1.74273">
        <ele>185</ele>
        <time>2018-07-15T09:22:14Z</time>
      </trkpt>
      <trkpt lat="43.91682" lon="1.74268">
        <ele>186</ele>
        <time>2018-07-15T09:22:15Z</time>
      </trkpt>
      <trkpt lat="43.91684" lon="1.74263">
        <ele>186</ele>
        <time>2018-07-15T09:22:16Z</time>
      </trkpt>
      <trkpt lat="43.91687" lon="1.74258">
        <ele>186</ele>
        <time>2018-07-15T09:22:17Z</time>
      </trkpt>
      <trkpt lat="43.9169" lon="1.74252">
        <ele>186</ele>
        <time>2018-07-15T09:22:18Z</time>
      </trkpt>
      <trkpt lat="43.91692" lon="1.74248">
        <ele>186</ele>
        <time>2018-07-15T09:22:19Z</time>
      </trkpt>
      <trkpt lat="43.91695" lon="1.74243">
        <ele>187</ele>
        <time>2018-07-15T09:22:20Z</time>
      </trkpt>
      <trkpt lat="43.91697" lon="1.74238">
        <ele>187</ele>
        <time>2018-07-15T09:22:21Z</time>
      </trkpt>
      <trkpt lat="43.91699" lon="1.74233">
        <ele>187</ele>
        <time>2018-07-15T09:22:22Z</time>
      </trkpt>
      <trkpt lat="43.91701" lon="1.74228">
        <ele>188</ele>
        <time>2018-07-15T09:22:23Z</time>
      </trkpt>
      <trkpt lat="43.91702" lon="1.74223">
        <ele>188</ele>
        <time>2018-07-15T09:22:24Z</time>
      </trkpt>
      <trkpt lat="43.91704" lon="1.74218">
        <ele>188</ele>
        <time>2018-07-15T09:22:25Z</time>
      </trkpt>
      <trkpt lat="43.91706" lon="1.74214">
        <ele>188</ele>
        <time>2018-07-15T09:22:26Z</time>
      </trkpt>
      <trkpt lat="43.91708" lon="1.7421">
        <ele>189</ele>
        <time>2018-07-15T09:22:27Z</time>
      </trkpt>
      <trkpt lat="43.9171" lon="1.74205">
        <ele>189</ele>
        <time>2018-07-15T09:22:28Z</time>
      </trkpt>
      <trkpt lat="43.91712" lon="1.74201">
        <ele>189</ele>
        <time>2018-07-15T09:22:29Z</time>
      </trkpt>
      <trkpt lat="43.91713" lon="1.74196">
        <ele>189</ele>
        <time>2018-07-15T09:22:30Z</time>
      </trkpt>
      <trkpt lat="43.91715" lon="1.74191">
        <ele>189</ele>
        <time>2018-07-15T09:22:31Z</time>
      </trkpt>
      <trkpt lat="43.91717" lon="1.74187">
        <ele>189</ele>
        <time>2018-07-15T09:22:32Z</time>
      </trkpt>
      <trkpt lat="43.91718" lon="1.74183">
        <ele>190</ele>
        <time>2018-07-15T09:22:33Z</time>
      </trkpt>
      <trkpt lat="43.91719" lon="1.74178">
        <ele>190</ele>
        <time>2018-07-15T09:22:34Z</time>
      </trkpt>
      <trkpt lat="43.91721" lon="1.74173">
        <ele>190</ele>
        <time>2018-07-15T09:22:35Z</time>
      </trkpt>
      <trkpt lat="43.91722" lon="1.74168">
        <ele>190</ele>
        <time>2018-07-15T09:22:36Z</time>
      </trkpt>
      <trkpt lat="43.91724" lon="1.74163">
        <ele>190</ele>
        <time>2018-07-15T09:22:37Z</time>
      </trkpt>
      <trkpt lat="43.91725" lon="1.74158">
        <ele>190</ele>
        <time>2018-07-15T09:22:38Z</time>
      </trkpt>
      <trkpt lat="43.91726" lon="1.74153">
        <ele>190</ele>
        <time>2018-07-15T09:22:39Z</time>
      </trkpt>
      <trkpt lat="43.91728" lon="1.74148">
        <ele>190</ele>
        <time>2018-07-15T09:22:40Z</time>
      </trkpt>
      <trkpt lat="43.91729" lon="1.74143">
        <ele>190</ele>
        <time>2018-07-15T09:22:41Z</time>
      </trkpt>
      <trkpt lat="43.9173" lon="1.74138">
        <ele>190</ele>
        <time>2018-07-15T09:22:42Z</time>
      </trkpt>
      <trkpt lat="43.9173" lon="1.74134">
        <ele>191</ele>
        <time>2018-07-15T09:22:43Z</time>
      </trkpt>
      <trkpt lat="43.91731" lon="1.74129">
        <ele>191</ele>
        <time>2018-07-15T09:22:44Z</time>
      </trkpt>
      <trkpt lat="43.91732" lon="1.74124">
        <ele>191</ele>
        <time>2018-07-15T09:22:45Z</time>
      </trkpt>
      <trkpt lat="43.91733" lon="1.74119">
        <ele>191</ele>
        <time>2018-07-15T09:22:46Z</time>
      </trkpt>
      <trkpt lat="43.91733" lon="1.74114">
        <ele>192</ele>
        <time>2018-07-15T09:22:47Z</time>
      </trkpt>
      <trkpt lat="43.91734" lon="1.7411">
        <ele>192</ele>
        <time>2018-07-15T09:22:48Z</time>
      </trkpt>
      <trkpt lat="43.91735" lon="1.74105">
        <ele>192</ele>
        <time>2018-07-15T09:22:49Z</time>
      </trkpt>
      <trkpt lat="43.91736" lon="1.741">
        <ele>192</ele>
        <time>2018-07-15T09:22:50Z</time>
      </trkpt>
      <trkpt lat="43.91737" lon="1.74096">
        <ele>192</ele>
        <time>2018-07-15T09:22:51Z</time>
      </trkpt>
      <trkpt lat="43.91737" lon="1.74091">
        <ele>193</ele>
        <time>2018-07-15T09:22:52Z</time>
      </trkpt>
      <trkpt lat="43.91738" lon="1.74086">
        <ele>193</ele>
        <time>2018-07-15T09:22:53Z</time>
      </trkpt>
      <trkpt lat="43.91739" lon="1.74081">
        <ele>193</ele>
        <time>2018-07-15T09:22:54Z</time>
      </trkpt>
      <trkpt lat="43.91739" lon="1.74076">
        <ele>193</ele>
        <time>2018-07-15T09:22:55Z</time>
      </trkpt>
      <trkpt lat="43.91739" lon="1.74071">
        <ele>193</ele>
        <time>2018-07-15T09:22:56Z</time>
      </trkpt>
      <trkpt lat="43.91739" lon="1.74065">
        <ele>193</ele>
        <time>2018-07-15T09:22:57Z</time>
      </trkpt>
      <trkpt lat="43.91739" lon="1.7406">
        <ele>193</ele>
        <time>2018-07-15T09:22:58Z</time>
      </trkpt>
      <trkpt lat="43.9174" lon="1.74055">
        <ele>193</ele>
        <time>2018-07-15T09:22:59Z</time>
      </trkpt>
      <trkpt lat="43.9174" lon="1.7405">
        <ele>194</ele>
        <time>2018-07-15T09:23:00Z</time>
      </trkpt>
      <trkpt lat="43.9174" lon="1.74044">
        <ele>194</ele>
        <time>2018-07-15T09:23:01Z</time>
      </trkpt>
      <trkpt lat="43.91741" lon="1.74039">
        <ele>194</ele>
        <time>2018-07-15T09:23:02Z</time>
      </trkpt>
      <trkpt lat="43.91741" lon="1.74034">
        <ele>194</ele>
        <time>2018-07-15T09:23:03Z</time>
      </trkpt>
      <trkpt lat="43.91742" lon="1.74029">
        <ele>194</ele>
        <time>2018-07-15T09:23:04Z</time>
      </trkpt>
      <trkpt lat="43.91742" lon="1.74024">
        <ele>195</ele>
        <time>2018-07-15T09:23:05Z</time>
      </trkpt>
      <trkpt lat="43.91743" lon="1.74018">
        <ele>195</ele>
        <time>2018-07-15T09:23:06Z</time>
      </trkpt>
      <trkpt lat="43.91743" lon="1.74013">
        <ele>195</ele>
        <time>2018-07-15T09:23:07Z</time>
      </trkpt>
      <trkpt lat="43.91743" lon="1.74008">
        <ele>195</ele>
        <time>2018-07-15T09:23:08Z</time>
      </trkpt>
      <trkpt lat="43.91744" lon="1.74003">
        <ele>195</ele>
        <time>2018-07-15T09:23:09Z</time>
      </trkpt>
      <trkpt lat="43.91745" lon="1.73997">
        <ele>195</ele>
        <time>2018-07-15T09:23:10Z</time>
      </trkpt>
      <trkpt lat="43.91746" lon="1.73992">
        <ele>195</ele>
        <time>2018-07-15T09:23:11Z</time>
      </trkpt>
      <trkpt lat="43.91746" lon="1.73987">
        <ele>196</ele>
        <time>2018-07-15T09:23:12Z</time>
      </trkpt>
      <trkpt lat="43.91747" lon="1.73982">
        <ele>196</ele>
        <time>2018-07-15T09:23:13Z</time>
      </trkpt>
      <trkpt lat="43.91748" lon="1.73977">
        <ele>196</ele>
        <time>2018-07-15T09:23:14Z</time>
      </trkpt>
      <trkpt lat="43.91749" lon="1.73972">
        <ele>196</ele>
        <time>2018-07-15T09:23:15Z</time>
      </trkpt>
      <trkpt lat="43.9175" lon="1.73966">
        <ele>197</ele>
        <time>2018-07-15T09:23:16Z</time>
      </trkpt>
      <trkpt lat="43.91751" lon="1.73961">
        <ele>197</ele>
        <time>2018-07-15T09:23:17Z</time>
      </trkpt>
      <trkpt lat="43.91753" lon="1.73956">
        <ele>197</ele>
        <time>2018-07-15T09:23:18Z</time>
      </trkpt>
      <trkpt lat="43.91754" lon="1.73951">
        <ele>197</ele>
        <time>2018-07-15T09:23:19Z</time>
      </trkpt>
      <trkpt lat="43.91756" lon="1.73946">
        <ele>197</ele>
        <time>2018-07-15T09:23:20Z</time>
      </trkpt>
      <trkpt lat="43.91757" lon="1.73941">
        <ele>197</ele>
        <time>2018-07-15T09:23:21Z</time>
      </trkpt>
      <trkpt lat="43.91759" lon="1.73936">
        <ele>197</ele>
        <time>2018-07-15T09:23:22Z</time>
      </trkpt>
      <trkpt lat="43.9176" lon="1.73931">
        <ele>198</ele>
        <time>2018-07-15T09:23:23Z</time>
      </trkpt>
      <trkpt lat="43.91761" lon="1.73926">
        <ele>198</ele>
        <time>2018-07-15T09:23:24Z</time>
      </trkpt>
      <trkpt lat="43.91763" lon="1.73921">
        <ele>198</ele>
        <time>2018-07-15T09:23:25Z</time>
      </trkpt>
      <trkpt lat="43.91766" lon="1.73917">
        <ele>198</ele>
        <time>2018-07-15T09:23:26Z</time>
      </trkpt>
      <trkpt lat="43.91768" lon="1.73912">
        <ele>198</ele>
        <time>2018-07-15T09:23:27Z</time>
      </trkpt>
      <trkpt lat="43.9177" lon="1.73907">
        <ele>198</ele>
        <time>2018-07-15T09:23:28Z</time>
      </trkpt>
      <trkpt lat="43.91772" lon="1.73902">
        <ele>198</ele>
        <time>2018-07-15T09:23:29Z</time>
      </trkpt>
      <trkpt lat="43.91774" lon="1.73897">
        <ele>198</ele>
        <time>2018-07-15T09:23:30Z</time>
      </trkpt>
      <trkpt lat="43.91776" lon="1.73893">
        <ele>199</ele>
        <time>2018-07-15T09:23:31Z</time>
      </trkpt>
      <trkpt lat="43.91778" lon="1.73889">
        <ele>199</ele>
        <time>2018-07-15T09:23:32Z</time>
      </trkpt>
      <trkpt lat="43.91781" lon="1.73884">
        <ele>199</ele>
        <time>2018-07-15T09:23:33Z</time>
      </trkpt>
      <trkpt lat="43.91783" lon="1.7388">
        <ele>199</ele>
        <time>2018-07-15T09:23:34Z</time>
      </trkpt>
      <trkpt lat="43.91786" lon="1.73876">
        <ele>199</ele>
        <time>2018-07-15T09:23:35Z</time>
      </trkpt>
      <trkpt lat="43.91788" lon="1.73872">
        <ele>199</ele>
        <time>2018-07-15T09:23:36Z</time>
      </trkpt>
      <trkpt lat="43.91791" lon="1.73868">
        <ele>199</ele>
        <time>2018-07-15T09:23:37Z</time>
      </trkpt>
      <trkpt lat="43.91794" lon="1.73864">
        <ele>200</ele>
        <time>2018-07-15T09:23:38Z</time>
      </trkpt>
      <trkpt lat="43.91797" lon="1.7386">
        <ele>200</ele>
        <time>2018-07-15T09:23:39Z</time>
      </trkpt>
      <trkpt lat="43.918" lon="1.73856">
        <ele>200</ele>
        <time>2018-07-15T09:23:40Z</time>
      </trkpt>
      <trkpt lat="43.91802" lon="1.73853">
        <ele>200</ele>
        <time>2018-07-15T09:23:41Z</time>
      </trkpt>
      <trkpt lat="43.91805" lon="1.73849">
        <ele>200</ele>
        <time>2018-07-15T09:23:42Z</time>
      </trkpt>
      <trkpt lat="43.91808" lon="1.73846">
        <ele>200</ele>
        <time>2018-07-15T09:23:43Z</time>
      </trkpt>
      <trkpt lat="43.91811" lon="1.73843">
        <ele>201</ele>
        <time>2018-07-15T09:23:44Z</time>
      </trkpt>
      <trkpt lat="43.91814" lon="1.73839">
        <ele>201</ele>
        <time>2018-07-15T09:23:45Z</time>
      </trkpt>
      <trkpt lat="43.91817" lon="1.73836">
        <ele>201</ele>
        <time>2018-07-15T09:23:46Z</time>
      </trkpt>
      <trkpt lat="43.91819" lon="1.73833">
        <ele>201</ele>
        <time>2018-07-15T09:23:47Z</time>
      </trkpt>
      <trkpt lat="43.91822" lon="1.73829">
        <ele>201</ele>
        <time>2018-07-15T09:23:48Z</time>
      </trkpt>
      <trkpt lat="43.91825" lon="1.73825">
        <ele>201</ele>
        <time>2018-07-15T09:23:49Z</time>
      </trkpt>
      <trkpt lat="43.91828" lon="1.73822">
        <ele>201</ele>
        <time>2018-07-15T09:23:50Z</time>
      </trkpt>
      <trkpt lat="43.91831" lon="1.73818">
        <ele>202</ele>
        <time>2018-07-15T09:23:51Z</time>
      </trkpt>
      <trkpt lat="43.91834" lon="1.73815">
        <ele>202</ele>
        <time>2018-07-15T09:23:52Z</time>
      </trkpt>
      <trkpt lat="43.91837" lon="1.73811">
        <ele>202</ele>
        <time>2018-07-15T09:23:53Z</time>
      </trkpt>
      <trkpt lat="43.91839" lon="1.73808">
        <ele>202</ele>
        <time>2018-07-15T09:23:54Z</time>
      </trkpt>
      <trkpt lat="43.91842" lon="1.73805">
        <ele>202</ele>
        <time>2018-07-15T09:23:55Z</time>
      </trkpt>
      <trkpt lat="43.91845" lon="1.73801">
        <ele>202</ele>
        <time>2018-07-15T09:23:56Z</time>
      </trkpt>
      <trkpt lat="43.91848" lon="1.73798">
        <ele>202</ele>
        <time>2018-07-15T09:23:57Z</time>
      </trkpt>
      <trkpt lat="43.91851" lon="1.73794">
        <ele>203</ele>
        <time>2018-07-15T09:23:58Z</time>
      </trkpt>
      <trkpt lat="43.91853" lon="1.73791">
        <ele>203</ele>
        <time>2018-07-15T09:23:59Z</time>
      </trkpt>
      <trkpt lat="43.91856" lon="1.73787">
        <ele>203</ele>
        <time>2018-07-15T09:24:00Z</time>
      </trkpt>
      <trkpt lat="43.91859" lon="1.73783">
        <ele>203</ele>
        <time>2018-07-15T09:24:01Z</time>
      </trkpt>
      <trkpt lat="43.91862" lon="1.7378">
        <ele>203</ele>
        <time>2018-07-15T09:24:02Z</time>
      </trkpt>
      <trkpt lat="43.91865" lon="1.73776">
        <ele>203</ele>
        <time>2018-07-15T09:24:03Z</time>
      </trkpt>
      <trkpt lat="43.91868" lon="1.73773">
        <ele>203</ele>
        <time>2018-07-15T09:24:04Z</time>
      </trkpt>
      <trkpt lat="43.91871" lon="1.7377">
        <ele>204</ele>
        <time>2018-07-15T09:24:05Z</time>
      </trkpt>
      <trkpt lat="43.91873" lon="1.73766">
        <ele>204</ele>
        <time>2018-07-15T09:24:06Z</time>
      </trkpt>
      <trkpt lat="43.91876" lon="1.73763">
        <ele>204</ele>
        <time>2018-07-15T09:24:07Z</time>
      </trkpt>
      <trkpt lat="43.91878" lon="1.73759">
        <ele>204</ele>
        <time>2018-07-15T09:24:08Z</time>
      </trkpt>
      <trkpt lat="43.91879" lon="1.73754">
        <ele>204</ele>
        <time>2018-07-15T09:24:09Z</time>
      </trkpt>
      <trkpt lat="43.91877" lon="1.7375">
        <ele>204</ele>
        <time>2018-07-15T09:24:10Z</time>
      </trkpt>
      <trkpt lat="43.91875" lon="1.73748">
        <ele>205</ele>
        <time>2018-07-15T09:24:11Z</time>
      </trkpt>
      <trkpt lat="43.91872" lon="1.73748">
        <ele>205</ele>
        <time>2018-07-15T09:24:12Z</time>
      </trkpt>
      <trkpt lat="43.91868" lon="1.73749">
        <ele>205</ele>
        <time>2018-07-15T09:24:13Z</time>
      </trkpt>
      <trkpt lat="43.91865" lon="1.73752">
        <ele>205</ele>
        <time>2018-07-15T09:24:14Z</time>
      </trkpt>
      <trkpt lat="43.91862" lon="1.73755">
        <ele>205</ele>
        <time>2018-07-15T09:24:15Z</time>
      </trkpt>
      <trkpt lat="43.91858" lon="1.73757">
        <ele>204</ele>
        <time>2018-07-15T09:24:16Z</time>
      </trkpt>
      <trkpt lat="43.91854" lon="1.7376">
        <ele>204</ele>
        <time>2018-07-15T09:24:17Z</time>
      </trkpt>
      <trkpt lat="43.91851" lon="1.73762">
        <ele>204</ele>
        <time>2018-07-15T09:24:18Z</time>
      </trkpt>
      <trkpt lat="43.91847" lon="1.73765">
        <ele>204</ele>
        <time>2018-07-15T09:24:19Z</time>
      </trkpt>
      <trkpt lat="43.91843" lon="1.73767">
        <ele>204</ele>
        <time>2018-07-15T09:24:20Z</time>
      </trkpt>
      <trkpt lat="43.9184" lon="1.73769">
        <ele>204</ele>
        <time>2018-07-15T09:24:21Z</time>
      </trkpt>
      <trkpt lat="43.91836" lon="1.73771">
        <ele>204</ele>
        <time>2018-07-15T09:24:22Z</time>
      </trkpt>
      <trkpt lat="43.91832" lon="1.73773">
        <ele>204</ele>
        <time>2018-07-15T09:24:23Z</time>
      </trkpt>
      <trkpt lat="43.91829" lon="1.73774">
        <ele>204</ele>
        <time>2018-07-15T09:24:24Z</time>
      </trkpt>
      <trkpt lat="43.91825" lon="1.73773">
        <ele>204</ele>
        <time>2018-07-15T09:24:25Z</time>
      </trkpt>
      <trkpt lat="43.91823" lon="1.7377">
        <ele>204</ele>
        <time>2018-07-15T09:24:26Z</time>
      </trkpt>
      <trkpt lat="43.91822" lon="1.73767">
        <ele>204</ele>
        <time>2018-07-15T09:24:27Z</time>
      </trkpt>
      <trkpt lat="43.91821" lon="1.73764">
        <ele>205</ele>
        <time>2018-07-15T09:24:28Z</time>
      </trkpt>
      <trkpt lat="43.91821" lon="1.7376">
        <ele>205</ele>
        <time>2018-07-15T09:24:29Z</time>
      </trkpt>
      <trkpt lat="43.9182" lon="1.73756">
        <ele>205</ele>
        <time>2018-07-15T09:24:30Z</time>
      </trkpt>
      <trkpt lat="43.91819" lon="1.73752">
        <ele>205</ele>
        <time>2018-07-15T09:24:31Z</time>
      </trkpt>
      <trkpt lat="43.91818" lon="1.73748">
        <ele>205</ele>
        <time>2018-07-15T09:24:32Z</time>
      </trkpt>
      <trkpt lat="43.91817" lon="1.73744">
        <ele>205</ele>
        <time>2018-07-15T09:24:33Z</time>
      </trkpt>
      <trkpt lat="43.91816" lon="1.73739">
        <ele>205</ele>
        <time>2018-07-15T09:24:34Z</time>
      </trkpt>
      <trkpt lat="43.91815" lon="1.73734">
        <ele>205</ele>
        <time>2018-07-15T09:24:35Z</time>
      </trkpt>
      <trkpt lat="43.91814" lon="1.73729">
        <ele>205</ele>
        <time>2018-07-15T09:24:36Z</time>
      </trkpt>
      <trkpt lat="43.91814" lon="1.73724">
        <ele>205</ele>
        <time>2018-07-15T09:24:37Z</time>
      </trkpt>
      <trkpt lat="43.91814" lon="1.73718">
        <ele>205</ele>
        <time>2018-07-15T09:24:38Z</time>
      </trkpt>
      <trkpt lat="43.91814" lon="1.73712">
        <ele>204</ele>
        <time>2018-07-15T09:24:39Z</time>
      </trkpt>
      <trkpt lat="43.91815" lon="1.73706">
        <ele>204</ele>
        <time>2018-07-15T09:24:40Z</time>
      </trkpt>
      <trkpt lat="43.91816" lon="1.73699">
        <ele>204</ele>
        <time>2018-07-15T09:24:41Z</time>
      </trkpt>
      <trkpt lat="43.91816" lon="1.73691">
        <ele>203</ele>
        <time>2018-07-15T09:24:42Z</time>
      </trkpt>
      <trkpt lat="43.91818" lon="1.73683">
        <ele>203</ele>
        <time>2018-07-15T09:24:43Z</time>
      </trkpt>
      <trkpt lat="43.91819" lon="1.73674">
        <ele>203</ele>
        <time>2018-07-15T09:24:44Z</time>
      </trkpt>
      <trkpt lat="43.9182" lon="1.73663">
        <ele>203</ele>
        <time>2018-07-15T09:24:45Z</time>
      </trkpt>
      <trkpt lat="43.9182" lon="1.73652">
        <ele>202</ele>
        <time>2018-07-15T09:24:46Z</time>
      </trkpt>
      <trkpt lat="43.91821" lon="1.73641">
        <ele>200</ele>
        <time>2018-07-15T09:24:47Z</time>
      </trkpt>
      <trkpt lat="43.91822" lon="1.73629">
        <ele>199</ele>
        <time>2018-07-15T09:24:48Z</time>
      </trkpt>
      <trkpt lat="43.91823" lon="1.73618">
        <ele>198</ele>
        <time>2018-07-15T09:24:49Z</time>
      </trkpt>
      <trkpt lat="43.91824" lon="1.73606">
        <ele>199</ele>
        <time>2018-07-15T09:24:50Z</time>
      </trkpt>
      <trkpt lat="43.91825" lon="1.73595">
        <ele>198</ele>
        <time>2018-07-15T09:24:51Z</time>
      </trkpt>
      <trkpt lat="43.91826" lon="1.73583">
        <ele>197</ele>
        <time>2018-07-15T09:24:52Z</time>
      </trkpt>
      <trkpt lat="43.91826" lon="1.73572">
        <ele>197</ele>
        <time>2018-07-15T09:24:53Z</time>
      </trkpt>
      <trkpt lat="43.91825" lon="1.7356">
        <ele>198</ele>
        <time>2018-07-15T09:24:54Z</time>
      </trkpt>
      <trkpt lat="43.91825" lon="1.73549">
        <ele>197</ele>
        <time>2018-07-15T09:24:55Z</time>
      </trkpt>
      <trkpt lat="43.91824" lon="1.73538">
        <ele>196</ele>
        <time>2018-07-15T09:24:56Z</time>
      </trkpt>
      <trkpt lat="43.91823" lon="1.73528">
        <ele>195</ele>
        <time>2018-07-15T09:24:57Z</time>
      </trkpt>
      <trkpt lat="43.91823" lon="1.73518">
        <ele>195</ele>
        <time>2018-07-15T09:24:58Z</time>
      </trkpt>
      <trkpt lat="43.91822" lon="1.73508">
        <ele>196</ele>
        <time>2018-07-15T09:24:59Z</time>
      </trkpt>
      <trkpt lat="43.91822" lon="1.73499">
        <ele>197</ele>
        <time>2018-07-15T09:25:00Z</time>
      </trkpt>
      <trkpt lat="43.91821" lon="1.7349">
        <ele>197</ele>
        <time>2018-07-15T09:25:01Z</time>
      </trkpt>
      <trkpt lat="43.91821" lon="1.73483">
        <ele>197</ele>
        <time>2018-07-15T09:25:02Z</time>
      </trkpt>
      <trkpt lat="43.91821" lon="1.73478">
        <ele>198</ele>
        <time>2018-07-15T09:25:03Z</time>
      </trkpt>
      <trkpt lat="43.91821" lon="1.73474">
        <ele>199</ele>
        <time>2018-07-15T09:25:04Z</time>
      </trkpt>
      <trkpt lat="43.91822" lon="1.7347">
        <ele>199</ele>
        <time>2018-07-15T09:25:05Z</time>
      </trkpt>
      <trkpt lat="43.91823" lon="1.73465">
        <ele>199</ele>
        <time>2018-07-15T09:25:06Z</time>
      </trkpt>
      <trkpt lat="43.91823" lon="1.73461">
        <ele>198</ele>
        <time>2018-07-15T09:25:07Z</time>
      </trkpt>
      <trkpt lat="43.91823" lon="1.73456">
        <ele>198</ele>
        <time>2018-07-15T09:25:08Z</time>
      </trkpt>
      <trkpt lat="43.91822" lon="1.73452">
        <ele>198</ele>
        <time>2018-07-15T09:25:09Z</time>
      </trkpt>
      <trkpt lat="43.91822" lon="1.73448">
        <ele>198</ele>
        <time>2018-07-15T09:25:10Z</time>
      </trkpt>
      <trkpt lat="43.91822" lon="1.73443">
        <ele>198</ele>
        <time>2018-07-15T09:25:11Z</time>
      </trkpt>
      <trkpt lat="43.91823" lon="1.73439">
        <ele>198</ele>
        <time>2018-07-15T09:25:12Z</time>
      </trkpt>
      <trkpt lat="43.91824" lon="1.73436">
        <ele>198</ele>
        <time>2018-07-15T09:25:13Z</time>
      </trkpt>
      <trkpt lat="43.91826" lon="1.73434">
        <ele>198</ele>
        <time>2018-07-15T09:25:14Z</time>
      </trkpt>
      <trkpt lat="43.91827" lon="1.73431">
        <ele>198</ele>
        <time>2018-07-15T09:25:15Z</time>
      </trkpt>
      <trkpt lat="43.91826" lon="1.7343">
        <ele>198</ele>
        <time>2018-07-15T09:25:16Z</time>
      </trkpt>
      <trkpt lat="43.91825" lon="1.73429">
        <ele>198</ele>
        <time>2018-07-15T09:25:17Z</time>
      </trkpt>
      <trkpt lat="43.91823" lon="1.73428">
        <ele>198</ele>
        <time>2018-07-15T09:25:18Z</time>
      </trkpt>
      <trkpt lat="43.91822" lon="1.73429">
        <ele>198</ele>
        <time>2018-07-15T09:25:19Z</time>
      </trkpt>
      <trkpt lat="43.91821" lon="1.7343">
        <ele>198</ele>
        <time>2018-07-15T09:25:20Z</time>
      </trkpt>
      <trkpt lat="43.91819" lon="1.73432">
        <ele>198</ele>
        <time>2018-07-15T09:25:21Z</time>
      </trkpt>
      <trkpt lat="43.91818" lon="1.73434">
        <ele>198</ele>
        <time>2018-07-15T09:25:22Z</time>
      </trkpt>
      <trkpt lat="43.91817" lon="1.73437">
        <ele>198</ele>
        <time>2018-07-15T09:25:23Z</time>
      </trkpt>
      <trkpt lat="43.91816" lon="1.73438">
        <ele>197</ele>
        <time>2018-07-15T09:25:24Z</time>
      </trkpt>
      <trkpt lat="43.91816" lon="1.73439">
        <ele>197</ele>
        <time>2018-07-15T09:25:25Z</time>
      </trkpt>
      <trkpt lat="43.91816" lon="1.73439">
        <ele>198</ele>
        <time>2018-07-15T09:25:26Z</time>
      </trkpt>
      <trkpt lat="43.91816" lon="1.73439">
        <ele>198</ele>
        <time>2018-07-15T09:25:27Z</time>
      </trkpt>
      <trkpt lat="43.91816" lon="1.7344">
        <ele>198</ele>
        <time>2018-07-15T09:25:28Z</time>
      </trkpt>
      <trkpt lat="43.91816" lon="1.73439">
        <ele>198</ele>
        <time>2018-07-15T09:25:29Z</time>
      </trkpt>
      <trkpt lat="43.91816" lon="1.73439">
        <ele>197</ele>
        <time>2018-07-15T09:25:40Z</time>
      </trkpt>
      <trkpt lat="43.91816" lon="1.73439">
        <ele>198</ele>
        <time>2018-07-15T09:25:59Z</time>
      </trkpt>
      <trkpt lat="43.91816" lon="1.73439">
        <ele>198</ele>
        <time>2018-07-15T09:26:00Z</time>
      </trkpt>
      <trkpt lat="43.91816" lon="1.73439">
        <ele>198</ele>
        <time>2018-07-15T09:26:01Z</time>
      </trkpt>
      <trkpt lat="43.91816" lon="1.73439">
        <ele>198</ele>
        <time>2018-07-15T09:26:02Z</time>
      </trkpt>
      <trkpt lat="43.91816" lon="1.73439">
        <ele>198</ele>
        <time>2018-07-15T09:26:03Z</time>
      </trkpt>
      <trkpt lat="43.91816" lon="1.73439">
        <ele>200</ele>
        <time>2018-07-15T09:26:07Z</time>
      </trkpt>
      <trkpt lat="43.91816" lon="1.73439">
        <ele>198</ele>
        <time>2018-07-15T09:26:12Z</time>
      </trkpt>
      <trkpt lat="43.91816" lon="1.73439">
        <ele>198</ele>
        <time>2018-07-15T09:26:14Z</time>
      </trkpt>
      <trkpt lat="43.91816" lon="1.73439">
        <ele>199</ele>
        <time>2018-07-15T09:26:15Z</time>
      </trkpt>
      <trkpt lat="43.91816" lon="1.73439">
        <ele>198</ele>
        <time>2018-07-15T09:26:42Z</time>
      </trkpt>
      <trkpt lat="43.91816" lon="1.73439">
        <ele>198</ele>
        <time>2018-07-15T09:27:22Z</time>
      </trkpt>
      <trkpt lat="43.91816" lon="1.7344">
        <ele>198</ele>
        <time>2018-07-15T09:28:02Z</time>
      </trkpt>
      <trkpt lat="43.91815" lon="1.7344">
        <ele>198</ele>
        <time>2018-07-15T09:28:42Z</time>
      </trkpt>
      <trkpt lat="43.91815" lon="1.7344">
        <ele>198</ele>
        <time>2018-07-15T09:29:22Z</time>
      </trkpt>
      <trkpt lat="43.91815" lon="1.73439">
        <ele>198</ele>
        <time>2018-07-15T09:30:02Z</time>
      </trkpt>
      <trkpt lat="43.91815" lon="1.7344">
        <ele>199</ele>
        <time>2018-07-15T09:30:42Z</time>
      </trkpt>
      <trkpt lat="43.91815" lon="1.7344">
        <ele>199</ele>
        <time>2018-07-15T09:31:22Z</time>
      </trkpt>
      <trkpt lat="43.91815" lon="1.7344">
        <ele>199</ele>
        <time>2018-07-15T09:32:02Z</time>
      </trkpt>
      <trkpt lat="43.91815" lon="1.7344">
        <ele>199</ele>
        <time>2018-07-15T09:32:42Z</time>
      </trkpt>
      <trkpt lat="43.91815" lon="1.73439">
        <ele>199</ele>
        <time>2018-07-15T09:33:22Z</time>
      </trkpt>
      <trkpt lat="43.91815" lon="1.73439">
        <ele>199</ele>
        <time>2018-07-15T09:34:02Z</time>
      </trkpt>
      <trkpt lat="43.91815" lon="1.73439">
        <ele>199</ele>
        <time>2018-07-15T09:34:42Z</time>
      </trkpt>
      <trkpt lat="43.91815" lon="1.73439">
        <ele>199</ele>
        <time>2018-07-15T09:35:22Z</time>
      </trkpt>
      <trkpt lat="43.91815" lon="1.73438">
        <ele>199</ele>
        <time>2018-07-15T09:36:03Z</time>
      </trkpt>
      <trkpt lat="43.91815" lon="1.73439">
        <ele>199</ele>
        <time>2018-07-15T09:36:43Z</time>
      </trkpt>
      <trkpt lat="43.91815" lon="1.73439">
        <ele>199</ele>
        <time>2018-07-15T09:37:23Z</time>
      </trkpt>
      <trkpt lat="43.91815" lon="1.73438">
        <ele>199</ele>
        <time>2018-07-15T09:38:03Z</time>
      </trkpt>
      <trkpt lat="43.91816" lon="1.73439">
        <ele>199</ele>
        <time>2018-07-15T09:38:43Z</time>
      </trkpt>
      <trkpt lat="43.91815" lon="1.73438">
        <ele>200</ele>
        <time>2018-07-15T09:39:23Z</time>
      </trkpt>
      <trkpt lat="43.91816" lon="1.73439">
        <ele>200</ele>
        <time>2018-07-15T09:40:03Z</time>
      </trkpt>
      <trkpt lat="43.91814" lon="1.73439">
        <ele>200</ele>
        <time>2018-07-15T09:40:43Z</time>
      </trkpt>
      <trkpt lat="43.91814" lon="1.73439">
        <ele>200</ele>
        <time>2018-07-15T09:41:23Z</time>
      </trkpt>
      <trkpt lat="43.91815" lon="1.73439">
        <ele>200</ele>
        <time>2018-07-15T09:42:03Z</time>
      </trkpt>
      <trkpt lat="43.91815" lon="1.73439">
        <ele>200</ele>
        <time>2018-07-15T09:42:43Z</time>
      </trkpt>
      <trkpt lat="43.91815" lon="1.73439">
        <ele>200</ele>
        <time>2018-07-15T09:43:23Z</time>
      </trkpt>
      <trkpt lat="43.91815" lon="1.73439">
        <ele>200</ele>
        <time>2018-07-15T09:44:03Z</time>
      </trkpt>
      <trkpt lat="43.91816" lon="1.73439">
        <ele>199</ele>
        <time>2018-07-15T09:44:43Z</time>
      </trkpt>
      <trkpt lat="43.91816" lon="1.73439">
        <ele>199</ele>
        <time>2018-07-15T09:45:23Z</time>
      </trkpt>
      <trkpt lat="43.91815" lon="1.7344">
        <ele>199</ele>
        <time>2018-07-15T09:46:03Z</time>
      </trkpt>
      <trkpt lat="43.91815" lon="1.7344">
        <ele>199</ele>
        <time>2018-07-15T09:46:43Z</time>
      </trkpt>
      <trkpt lat="43.91815" lon="1.73441">
        <ele>199</ele>
        <time>2018-07-15T09:47:02Z</time>
      </trkpt>
      <trkpt lat="43.91816" lon="1.73441">
        <ele>199</ele>
        <time>2018-07-15T09:47:03Z</time>
      </trkpt>
      <trkpt lat="43.91815" lon="1.73441">
        <ele>199</ele>
        <time>2018-07-15T09:47:04Z</time>
      </trkpt>
      <trkpt lat="43.91815" lon="1.73441">
        <ele>199</ele>
        <time>2018-07-15T09:47:05Z</time>
      </trkpt>
      <trkpt lat="43.91816" lon="1.73441">
        <ele>199</ele>
        <time>2018-07-15T09:47:10Z</time>
      </trkpt>
      <trkpt lat="43.91815" lon="1.73441">
        <ele>199</ele>
        <time>2018-07-15T09:47:11Z</time>
      </trkpt>
      <trkpt lat="43.91815" lon="1.73441">
        <ele>199</ele>
        <time>2018-07-15T09:47:12Z</time>
      </trkpt>
      <trkpt lat="43.91815" lon="1.73441">
        <ele>199</ele>
        <time>2018-07-15T09:47:22Z</time>
      </trkpt>
      <trkpt lat="43.91816" lon="1.73442">
        <ele>199</ele>
        <time>2018-07-15T09:47:23Z</time>
      </trkpt>
      <trkpt lat="43.91817" lon="1.73442">
        <ele>199</ele>
        <time>2018-07-15T09:47:24Z</time>
      </trkpt>
      <trkpt lat="43.91818" lon="1.73443">
        <ele>199</ele>
        <time>2018-07-15T09:47:25Z</time>
      </trkpt>
      <trkpt lat="43.91817" lon="1.73443">
        <ele>199</ele>
        <time>2018-07-15T09:47:26Z</time>
      </trkpt>
      <trkpt lat="43.91818" lon="1.73443">
        <ele>199</ele>
        <time>2018-07-15T09:47:27Z</time>
      </trkpt>
      <trkpt lat="43.91818" lon="1.73443">
        <ele>200</ele>
        <time>2018-07-15T09:47:31Z</time>
      </trkpt>
      <trkpt lat="43.91819" lon="1.73443">
        <ele>200</ele>
        <time>2018-07-15T09:47:32Z</time>
      </trkpt>
      <trkpt lat="43.91818" lon="1.73443">
        <ele>199</ele>
        <time>2018-07-15T09:47:33Z</time>
      </trkpt>
      <trkpt lat="43.91819" lon="1.73443">
        <ele>200</ele>
        <time>2018-07-15T09:47:34Z</time>
      </trkpt>
      <trkpt lat="43.91819" lon="1.73443">
        <ele>200</ele>
        <time>2018-07-15T09:47:49Z</time>
      </trkpt>
      <trkpt lat="43.91819" lon="1.73444">
        <ele>200</ele>
        <time>2018-07-15T09:47:50Z</time>
      </trkpt>
      <trkpt lat="43.91819" lon="1.73444">
        <ele>200</ele>
        <time>2018-07-15T09:47:51Z</time>
      </trkpt>
      <trkpt lat="43.91819" lon="1.73444">
        <ele>200</ele>
        <time>2018-07-15T09:47:52Z</time>
      </trkpt>
      <trkpt lat="43.91819" lon="1.73444">
        <ele>200</ele>
        <time>2018-07-15T09:47:55Z</time>
      </trkpt>
      <trkpt lat="43.91819" lon="1.73445">
        <ele>200</ele>
        <time>2018-07-15T09:48:18Z</time>
      </trkpt>
      <trkpt lat="43.9182" lon="1.73447">
        <ele>199</ele>
        <time>2018-07-15T09:48:19Z</time>
      </trkpt>
      <trkpt lat="43.9182" lon="1.73448">
        <ele>199</ele>
        <time>2018-07-15T09:48:20Z</time>
      </trkpt>
      <trkpt lat="43.91821" lon="1.73449">
        <ele>199</ele>
        <time>2018-07-15T09:48:21Z</time>
      </trkpt>
      <trkpt lat="43.91822" lon="1.73451">
        <ele>199</ele>
        <time>2018-07-15T09:48:22Z</time>
      </trkpt>
      <trkpt lat="43.91822" lon="1.73454">
        <ele>199</ele>
        <time>2018-07-15T09:48:23Z</time>
      </trkpt>
      <trkpt lat="43.91822" lon="1.73456">
        <ele>199</ele>
        <time>2018-07-15T09:48:24Z</time>
      </trkpt>
      <trkpt lat="43.91822" lon="1.73459">
        <ele>199</ele>
        <time>2018-07-15T09:48:25Z</time>
      </trkpt>
      <trkpt lat="43.91823" lon="1.7346">
        <ele>199</ele>
        <time>2018-07-15T09:48:26Z</time>
      </trkpt>
      <trkpt lat="43.91822" lon="1.73463">
        <ele>199</ele>
        <time>2018-07-15T09:48:27Z</time>
      </trkpt>
      <trkpt lat="43.91822" lon="1.73465">
        <ele>199</ele>
        <time>2018-07-15T09:48:28Z</time>
      </trkpt>
      <trkpt lat="43.91821" lon="1.73468">
        <ele>199</ele>
        <time>2018-07-15T09:48:29Z</time>
      </trkpt>
      <trkpt lat="43.91821" lon="1.73471">
        <ele>199</ele>
        <time>2018-07-15T09:48:30Z</time>
      </trkpt>
      <trkpt lat="43.9182" lon="1.73473">
        <ele>199</ele>
        <time>2018-07-15T09:48:31Z</time>
      </trkpt>
      <trkpt lat="43.9182" lon="1.73476">
        <ele>199</ele>
        <time>2018-07-15T09:48:32Z</time>
      </trkpt>
      <trkpt lat="43.9182" lon="1.73479">
        <ele>200</ele>
        <time>2018-07-15T09:48:33Z</time>
      </trkpt>
      <trkpt lat="43.9182" lon="1.73482">
        <ele>200</ele>
        <time>2018-07-15T09:48:34Z</time>
      </trkpt>
      <trkpt lat="43.9182" lon="1.73486">
        <ele>200</ele>
        <time>2018-07-15T09:48:35Z</time>
      </trkpt>
      <trkpt lat="43.9182" lon="1.7349">
        <ele>200</ele>
        <time>2018-07-15T09:48:36Z</time>
      </trkpt>
      <trkpt lat="43.9182" lon="1.73494">
        <ele>200</ele>
        <time>2018-07-15T09:48:37Z</time>
      </trkpt>
      <trkpt lat="43.9182" lon="1.73497">
        <ele>200</ele>
        <time>2018-07-15T09:48:38Z</time>
      </trkpt>
      <trkpt lat="43.9182" lon="1.73501">
        <ele>200</ele>
        <time>2018-07-15T09:48:39Z</time>
      </trkpt>
      <trkpt lat="43.9182" lon="1.73505">
        <ele>200</ele>
        <time>2018-07-15T09:48:40Z</time>
      </trkpt>
      <trkpt lat="43.91821" lon="1.7351">
        <ele>200</ele>
        <time>2018-07-15T09:48:41Z</time>
      </trkpt>
      <trkpt lat="43.91821" lon="1.73514">
        <ele>200</ele>
        <time>2018-07-15T09:48:42Z</time>
      </trkpt>
      <trkpt lat="43.91822" lon="1.73518">
        <ele>200</ele>
        <time>2018-07-15T09:48:43Z</time>
      </trkpt>
      <trkpt lat="43.91822" lon="1.73523">
        <ele>200</ele>
        <time>2018-07-15T09:48:44Z</time>
      </trkpt>
      <trkpt lat="43.91822" lon="1.73527">
        <ele>200</ele>
        <time>2018-07-15T09:48:45Z</time>
      </trkpt>
      <trkpt lat="43.91822" lon="1.73531">
        <ele>200</ele>
        <time>2018-07-15T09:48:46Z</time>
      </trkpt>
      <trkpt lat="43.91822" lon="1.73536">
        <ele>200</ele>
        <time>2018-07-15T09:48:47Z</time>
      </trkpt>
      <trkpt lat="43.91822" lon="1.73541">
        <ele>200</ele>
        <time>2018-07-15T09:48:48Z</time>
      </trkpt>
      <trkpt lat="43.91822" lon="1.73546">
        <ele>200</ele>
        <time>2018-07-15T09:48:49Z</time>
      </trkpt>
      <trkpt lat="43.91822" lon="1.73551">
        <ele>200</ele>
        <time>2018-07-15T09:48:50Z</time>
      </trkpt>
      <trkpt lat="43.91822" lon="1.73556">
        <ele>200</ele>
        <time>2018-07-15T09:48:51Z</time>
      </trkpt>
      <trkpt lat="43.91823" lon="1.73561">
        <ele>200</ele>
        <time>2018-07-15T09:48:52Z</time>
      </trkpt>
      <trkpt lat="43.91823" lon="1.73566">
        <ele>200</ele>
        <time>2018-07-15T09:48:53Z</time>
      </trkpt>
      <trkpt lat="43.91823" lon="1.7357">
        <ele>200</ele>
        <time>2018-07-15T09:48:54Z</time>
      </trkpt>
      <trkpt lat="43.91823" lon="1.73575">
        <ele>200</ele>
        <time>2018-07-15T09:48:55Z</time>
      </trkpt>
      <trkpt lat="43.91823" lon="1.73579">
        <ele>200</ele>
        <time>2018-07-15T09:48:56Z</time>
      </trkpt>
      <trkpt lat="43.91823" lon="1.73584">
        <ele>200</ele>
        <time>2018-07-15T09:48:57Z</time>
      </trkpt>
      <trkpt lat="43.91823" lon="1.73588">
        <ele>200</ele>
        <time>2018-07-15T09:48:58Z</time>
      </trkpt>
      <trkpt lat="43.91822" lon="1.73593">
        <ele>200</ele>
        <time>2018-07-15T09:48:59Z</time>
      </trkpt>
      <trkpt lat="43.91822" lon="1.73597">
        <ele>200</ele>
        <time>2018-07-15T09:49:00Z</time>
      </trkpt>
      <trkpt lat="43.91822" lon="1.73602">
        <ele>200</ele>
        <time>2018-07-15T09:49:01Z</time>
      </trkpt>
      <trkpt lat="43.91821" lon="1.73606">
        <ele>200</ele>
        <time>2018-07-15T09:49:02Z</time>
      </trkpt>
      <trkpt lat="43.91821" lon="1.7361">
        <ele>200</ele>
        <time>2018-07-15T09:49:03Z</time>
      </trkpt>
      <trkpt lat="43.91821" lon="1.73615">
        <ele>200</ele>
        <time>2018-07-15T09:49:04Z</time>
      </trkpt>
      <trkpt lat="43.91821" lon="1.73619">
        <ele>201</ele>
        <time>2018-07-15T09:49:05Z</time>
      </trkpt>
      <trkpt lat="43.9182" lon="1.73623">
        <ele>201</ele>
        <time>2018-07-15T09:49:06Z</time>
      </trkpt>
      <trkpt lat="43.9182" lon="1.73628">
        <ele>201</ele>
        <time>2018-07-15T09:49:07Z</time>
      </trkpt>
      <trkpt lat="43.91819" lon="1.73632">
        <ele>201</ele>
        <time>2018-07-15T09:49:08Z</time>
      </trkpt>
      <trkpt lat="43.91819" lon="1.73636">
        <ele>201</ele>
        <time>2018-07-15T09:49:09Z</time>
      </trkpt>
      <trkpt lat="43.91818" lon="1.7364">
        <ele>201</ele>
        <time>2018-07-15T09:49:10Z</time>
      </trkpt>
      <trkpt lat="43.91818" lon="1.73644">
        <ele>202</ele>
        <time>2018-07-15T09:49:11Z</time>
      </trkpt>
      <trkpt lat="43.91818" lon="1.73648">
        <ele>202</ele>
        <time>2018-07-15T09:49:12Z</time>
      </trkpt>
      <trkpt lat="43.91817" lon="1.73653">
        <ele>202</ele>
        <time>2018-07-15T09:49:13Z</time>
      </trkpt>
      <trkpt lat="43.91817" lon="1.73657">
        <ele>202</ele>
        <time>2018-07-15T09:49:14Z</time>
      </trkpt>
      <trkpt lat="43.91817" lon="1.73662">
        <ele>202</ele>
        <time>2018-07-15T09:49:15Z</time>
      </trkpt>
      <trkpt lat="43.91817" lon="1.73666">
        <ele>202</ele>
        <time>2018-07-15T09:49:16Z</time>
      </trkpt>
      <trkpt lat="43.91817" lon="1.7367">
        <ele>203</ele>
        <time>2018-07-15T09:49:17Z</time>
      </trkpt>
      <trkpt lat="43.91816" lon="1.73674">
        <ele>203</ele>
        <time>2018-07-15T09:49:18Z</time>
      </trkpt>
      <trkpt lat="43.91816" lon="1.73678">
        <ele>203</ele>
        <time>2018-07-15T09:49:19Z</time>
      </trkpt>
      <trkpt lat="43.91815" lon="1.73682">
        <ele>203</ele>
        <time>2018-07-15T09:49:20Z</time>
      </trkpt>
      <trkpt lat="43.91815" lon="1.73686">
        <ele>204</ele>
        <time>2018-07-15T09:49:21Z</time>
      </trkpt>
      <trkpt lat="43.91814" lon="1.7369">
        <ele>204</ele>
        <time>2018-07-15T09:49:22Z</time>
      </trkpt>
      <trkpt lat="43.91814" lon="1.73694">
        <ele>205</ele>
        <time>2018-07-15T09:49:23Z</time>
      </trkpt>
      <trkpt lat="43.91813" lon="1.73698">
        <ele>205</ele>
        <time>2018-07-15T09:49:24Z</time>
      </trkpt>
      <trkpt lat="43.91813" lon="1.73702">
        <ele>205</ele>
        <time>2018-07-15T09:49:25Z</time>
      </trkpt>
      <trkpt lat="43.91812" lon="1.73705">
        <ele>205</ele>
        <time>2018-07-15T09:49:26Z</time>
      </trkpt>
      <trkpt lat="43.91812" lon="1.7371">
        <ele>205</ele>
        <time>2018-07-15T09:49:27Z</time>
      </trkpt>
      <trkpt lat="43.91811" lon="1.73714">
        <ele>206</ele>
        <time>2018-07-15T09:49:28Z</time>
      </trkpt>
      <trkpt lat="43.91811" lon="1.73717">
        <ele>206</ele>
        <time>2018-07-15T09:49:29Z</time>
      </trkpt>
      <trkpt lat="43.91811" lon="1.73721">
        <ele>206</ele>
        <time>2018-07-15T09:49:30Z</time>
      </trkpt>
      <trkpt lat="43.91811" lon="1.73725">
        <ele>206</ele>
        <time>2018-07-15T09:49:31Z</time>
      </trkpt>
      <trkpt lat="43.91811" lon="1.73729">
        <ele>207</ele>
        <time>2018-07-15T09:49:32Z</time>
      </trkpt>
      <trkpt lat="43.91811" lon="1.73733">
        <ele>206</ele>
        <time>2018-07-15T09:49:33Z</time>
      </trkpt>
      <trkpt lat="43.91811" lon="1.73737">
        <ele>206</ele>
        <time>2018-07-15T09:49:34Z</time>
      </trkpt>
      <trkpt lat="43.91811" lon="1.73741">
        <ele>206</ele>
        <time>2018-07-15T09:49:35Z</time>
      </trkpt>
      <trkpt lat="43.91812" lon="1.73745">
        <ele>207</ele>
        <time>2018-07-15T09:49:36Z</time>
      </trkpt>
      <trkpt lat="43.91812" lon="1.73749">
        <ele>207</ele>
        <time>2018-07-15T09:49:37Z</time>
      </trkpt>
      <trkpt lat="43.91813" lon="1.73752">
        <ele>207</ele>
        <time>2018-07-15T09:49:38Z</time>
      </trkpt>
      <trkpt lat="43.91813" lon="1.73756">
        <ele>207</ele>
        <time>2018-07-15T09:49:39Z</time>
      </trkpt>
      <trkpt lat="43.91815" lon="1.7376">
        <ele>207</ele>
        <time>2018-07-15T09:49:40Z</time>
      </trkpt>
      <trkpt lat="43.91816" lon="1.73764">
        <ele>207</ele>
        <time>2018-07-15T09:49:41Z</time>
      </trkpt>
      <trkpt lat="43.91817" lon="1.73768">
        <ele>207</ele>
        <time>2018-07-15T09:49:42Z</time>
      </trkpt>
      <trkpt lat="43.91819" lon="1.7377">
        <ele>207</ele>
        <time>2018-07-15T09:49:43Z</time>
      </trkpt>
      <trkpt lat="43.91821" lon="1.73773">
        <ele>207</ele>
        <time>2018-07-15T09:49:44Z</time>
      </trkpt>
      <trkpt lat="43.91824" lon="1.73775">
        <ele>206</ele>
        <time>2018-07-15T09:49:45Z</time>
      </trkpt>
      <trkpt lat="43.91828" lon="1.73774">
        <ele>206</ele>
        <time>2018-07-15T09:49:46Z</time>
      </trkpt>
      <trkpt lat="43.91832" lon="1.73773">
        <ele>206</ele>
        <time>2018-07-15T09:49:47Z</time>
      </trkpt>
      <trkpt lat="43.91835" lon="1.73771">
        <ele>206</ele>
        <time>2018-07-15T09:49:48Z</time>
      </trkpt>
      <trkpt lat="43.91839" lon="1.7377">
        <ele>206</ele>
        <time>2018-07-15T09:49:49Z</time>
      </trkpt>
      <trkpt lat="43.91843" lon="1.73768">
        <ele>206</ele>
        <time>2018-07-15T09:49:50Z</time>
      </trkpt>
      <trkpt lat="43.91846" lon="1.73766">
        <ele>206</ele>
        <time>2018-07-15T09:49:51Z</time>
      </trkpt>
      <trkpt lat="43.9185" lon="1.73764">
        <ele>206</ele>
        <time>2018-07-15T09:49:52Z</time>
      </trkpt>
      <trkpt lat="43.91853" lon="1.73762">
        <ele>206</ele>
        <time>2018-07-15T09:49:53Z</time>
      </trkpt>
      <trkpt lat="43.91857" lon="1.7376">
        <ele>206</ele>
        <time>2018-07-15T09:49:54Z</time>
      </trkpt>
      <trkpt lat="43.9186" lon="1.73757">
        <ele>206</ele>
        <time>2018-07-15T09:49:55Z</time>
      </trkpt>
      <trkpt lat="43.91863" lon="1.73756">
        <ele>206</ele>
        <time>2018-07-15T09:49:56Z</time>
      </trkpt>
      <trkpt lat="43.91867" lon="1.73754">
        <ele>206</ele>
        <time>2018-07-15T09:49:57Z</time>
      </trkpt>
      <trkpt lat="43.9187" lon="1.73753">
        <ele>207</ele>
        <time>2018-07-15T09:49:58Z</time>
      </trkpt>
      <trkpt lat="43.91873" lon="1.73751">
        <ele>207</ele>
        <time>2018-07-15T09:49:59Z</time>
      </trkpt>
      <trkpt lat="43.91877" lon="1.7375">
        <ele>207</ele>
        <time>2018-07-15T09:50:00Z</time>
      </trkpt>
      <trkpt lat="43.9188" lon="1.73751">
        <ele>207</ele>
        <time>2018-07-15T09:50:01Z</time>
      </trkpt>
      <trkpt lat="43.91884" lon="1.73752">
        <ele>207</ele>
        <time>2018-07-15T09:50:02Z</time>
      </trkpt>
      <trkpt lat="43.91887" lon="1.73751">
        <ele>207</ele>
        <time>2018-07-15T09:50:03Z</time>
      </trkpt>
      <trkpt lat="43.9189" lon="1.73749">
        <ele>207</ele>
        <time>2018-07-15T09:50:04Z</time>
      </trkpt>
      <trkpt lat="43.91893" lon="1.73746">
        <ele>207</ele>
        <time>2018-07-15T09:50:05Z</time>
      </trkpt>
      <trkpt lat="43.91895" lon="1.73742">
        <ele>207</ele>
        <time>2018-07-15T09:50:06Z</time>
      </trkpt>
      <trkpt lat="43.91898" lon="1.73739">
        <ele>207</ele>
        <time>2018-07-15T09:50:07Z</time>
      </trkpt>
      <trkpt lat="43.919" lon="1.73735">
        <ele>207</ele>
        <time>2018-07-15T09:50:08Z</time>
      </trkpt>
      <trkpt lat="43.91903" lon="1.73732">
        <ele>207</ele>
        <time>2018-07-15T09:50:09Z</time>
      </trkpt>
      <trkpt lat="43.91905" lon="1.73729">
        <ele>207</ele>
        <time>2018-07-15T09:50:10Z</time>
      </trkpt>
      <trkpt lat="43.91908" lon="1.73725">
        <ele>208</ele>
        <time>2018-07-15T09:50:11Z</time>
      </trkpt>
      <trkpt lat="43.9191" lon="1.73721">
        <ele>208</ele>
        <time>2018-07-15T09:50:12Z</time>
      </trkpt>
      <trkpt lat="43.91912" lon="1.73718">
        <ele>208</ele>
        <time>2018-07-15T09:50:13Z</time>
      </trkpt>
      <trkpt lat="43.91915" lon="1.73715">
        <ele>208</ele>
        <time>2018-07-15T09:50:14Z</time>
      </trkpt>
      <trkpt lat="43.91917" lon="1.73712">
        <ele>208</ele>
        <time>2018-07-15T09:50:15Z</time>
      </trkpt>
      <trkpt lat="43.9192" lon="1.73709">
        <ele>208</ele>
        <time>2018-07-15T09:50:16Z</time>
      </trkpt>
      <trkpt lat="43.91922" lon="1.73707">
        <ele>208</ele>
        <time>2018-07-15T09:50:17Z</time>
      </trkpt>
      <trkpt lat="43.91925" lon="1.73704">
        <ele>209</ele>
        <time>2018-07-15T09:50:18Z</time>
      </trkpt>
      <trkpt lat="43.91928" lon="1.73701">
        <ele>209</ele>
        <time>2018-07-15T09:50:19Z</time>
      </trkpt>
      <trkpt lat="43.9193" lon="1.73698">
        <ele>209</ele>
        <time>2018-07-15T09:50:20Z</time>
      </trkpt>
      <trkpt lat="43.91933" lon="1.73695">
        <ele>209</ele>
        <time>2018-07-15T09:50:21Z</time>
      </trkpt>
      <trkpt lat="43.91935" lon="1.73692">
        <ele>209</ele>
        <time>2018-07-15T09:50:22Z</time>
      </trkpt>
      <trkpt lat="43.91938" lon="1.73689">
        <ele>209</ele>
        <time>2018-07-15T09:50:23Z</time>
      </trkpt>
      <trkpt lat="43.9194" lon="1.73686">
        <ele>209</ele>
        <time>2018-07-15T09:50:24Z</time>
      </trkpt>
      <trkpt lat="43.91943" lon="1.73683">
        <ele>209</ele>
        <time>2018-07-15T09:50:25Z</time>
      </trkpt>
      <trkpt lat="43.91946" lon="1.73679">
        <ele>209</ele>
        <time>2018-07-15T09:50:26Z</time>
      </trkpt>
      <trkpt lat="43.91948" lon="1.73676">
        <ele>209</ele>
        <time>2018-07-15T09:50:27Z</time>
      </trkpt>
      <trkpt lat="43.91951" lon="1.73673">
        <ele>209</ele>
        <time>2018-07-15T09:50:28Z</time>
      </trkpt>
      <trkpt lat="43.91953" lon="1.7367">
        <ele>209</ele>
        <time>2018-07-15T09:50:29Z</time>
      </trkpt>
      <trkpt lat="43.91956" lon="1.73667">
        <ele>210</ele>
        <time>2018-07-15T09:50:30Z</time>
      </trkpt>
      <trkpt lat="43.91959" lon="1.73663">
        <ele>210</ele>
        <time>2018-07-15T09:50:31Z</time>
      </trkpt>
      <trkpt lat="43.91961" lon="1.7366">
        <ele>210</ele>
        <time>2018-07-15T09:50:32Z</time>
      </trkpt>
      <trkpt lat="43.91964" lon="1.73657">
        <ele>210</ele>
        <time>2018-07-15T09:50:33Z</time>
      </trkpt>
      <trkpt lat="43.91966" lon="1.73654">
        <ele>210</ele>
        <time>2018-07-15T09:50:34Z</time>
      </trkpt>
      <trkpt lat="43.91969" lon="1.73651">
        <ele>210</ele>
        <time>2018-07-15T09:50:35Z</time>
      </trkpt>
      <trkpt lat="43.91971" lon="1.73648">
        <ele>211</ele>
        <time>2018-07-15T09:50:36Z</time>
      </trkpt>
      <trkpt lat="43.91974" lon="1.73644">
        <ele>211</ele>
        <time>2018-07-15T09:50:37Z</time>
      </trkpt>
      <trkpt lat="43.91976" lon="1.73641">
        <ele>211</ele>
        <time>2018-07-15T09:50:38Z</time>
      </trkpt>
      <trkpt lat="43.91979" lon="1.73638">
        <ele>211</ele>
        <time>2018-07-15T09:50:39Z</time>
      </trkpt>
      <trkpt lat="43.91982" lon="1.73634">
        <ele>211</ele>
        <time>2018-07-15T09:50:40Z</time>
      </trkpt>
      <trkpt lat="43.91984" lon="1.73631">
        <ele>211</ele>
        <time>2018-07-15T09:50:41Z</time>
      </trkpt>
      <trkpt lat="43.91987" lon="1.73628">
        <ele>211</ele>
        <time>2018-07-15T09:50:42Z</time>
      </trkpt>
      <trkpt lat="43.91989" lon="1.73625">
        <ele>212</ele>
        <time>2018-07-15T09:50:43Z</time>
      </trkpt>
      <trkpt lat="43.91992" lon="1.73621">
        <ele>212</ele>
        <time>2018-07-15T09:50:44Z</time>
      </trkpt>
      <trkpt lat="43.91994" lon="1.73618">
        <ele>212</ele>
        <time>2018-07-15T09:50:45Z</time>
      </trkpt>
      <trkpt lat="43.91997" lon="1.73615">
        <ele>212</ele>
        <time>2018-07-15T09:50:46Z</time>
      </trkpt>
      <trkpt lat="43.92" lon="1.73612">
        <ele>212</ele>
        <time>2018-07-15T09:50:47Z</time>
      </trkpt>
      <trkpt lat="43.92002" lon="1.73609">
        <ele>212</ele>
        <time>2018-07-15T09:50:48Z</time>
      </trkpt>
      <trkpt lat="43.92005" lon="1.73605">
        <ele>212</ele>
        <time>2018-07-15T09:50:49Z</time>
      </trkpt>
      <trkpt lat="43.92008" lon="1.73602">
        <ele>212</ele>
        <time>2018-07-15T09:50:50Z</time>
      </trkpt>
      <trkpt lat="43.9201" lon="1.73599">
        <ele>212</ele>
        <time>2018-07-15T09:50:51Z</time>
      </trkpt>
      <trkpt lat="43.92013" lon="1.73596">
        <ele>213</ele>
        <time>2018-07-15T09:50:52Z</time>
      </trkpt>
      <trkpt lat="43.92016" lon="1.73593">
        <ele>213</ele>
        <time>2018-07-15T09:50:53Z</time>
      </trkpt>
      <trkpt lat="43.92019" lon="1.7359">
        <ele>212</ele>
        <time>2018-07-15T09:50:54Z</time>
      </trkpt>
      <trkpt lat="43.92021" lon="1.73587">
        <ele>213</ele>
        <time>2018-07-15T09:50:55Z</time>
      </trkpt>
      <trkpt lat="43.92024" lon="1.73584">
        <ele>213</ele>
        <time>2018-07-15T09:50:56Z</time>
      </trkpt>
      <trkpt lat="43.92026" lon="1.7358">
        <ele>213</ele>
        <time>2018-07-15T09:50:57Z</time>
      </trkpt>
      <trkpt lat="43.92028" lon="1.73577">
        <ele>213</ele>
        <time>2018-07-15T09:50:58Z</time>
      </trkpt>
      <trkpt lat="43.92031" lon="1.73574">
        <ele>213</ele>
        <time>2018-07-15T09:50:59Z</time>
      </trkpt>
      <trkpt lat="43.92033" lon="1.73571">
        <ele>214</ele>
        <time>2018-07-15T09:51:00Z</time>
      </trkpt>
      <trkpt lat="43.92036" lon="1.73568">
        <ele>214</ele>
        <time>2018-07-15T09:51:01Z</time>
      </trkpt>
      <trkpt lat="43.92038" lon="1.73564">
        <ele>214</ele>
        <time>2018-07-15T09:51:02Z</time>
      </trkpt>
      <trkpt lat="43.92041" lon="1.73561">
        <ele>214</ele>
        <time>2018-07-15T09:51:03Z</time>
      </trkpt>
      <trkpt lat="43.92043" lon="1.73558">
        <ele>214</ele>
        <time>2018-07-15T09:51:04Z</time>
      </trkpt>
      <trkpt lat="43.92045" lon="1.73555">
        <ele>214</ele>
        <time>2018-07-15T09:51:05Z</time>
      </trkpt>
      <trkpt lat="43.92047" lon="1.73552">
        <ele>215</ele>
        <time>2018-07-15T09:51:06Z</time>
      </trkpt>
      <trkpt lat="43.9205" lon="1.73549">
        <ele>215</ele>
        <time>2018-07-15T09:51:07Z</time>
      </trkpt>
      <trkpt lat="43.92052" lon="1.73546">
        <ele>215</ele>
        <time>2018-07-15T09:51:08Z</time>
      </trkpt>
      <trkpt lat="43.92053" lon="1.73542">
        <ele>215</ele>
        <time>2018-07-15T09:51:09Z</time>
      </trkpt>
      <trkpt lat="43.92055" lon="1.73537">
        <ele>215</ele>
        <time>2018-07-15T09:51:10Z</time>
      </trkpt>
      <trkpt lat="43.92058" lon="1.73533">
        <ele>215</ele>
        <time>2018-07-15T09:51:11Z</time>
      </trkpt>
      <trkpt lat="43.9206" lon="1.73528">
        <ele>215</ele>
        <time>2018-07-15T09:51:12Z</time>
      </trkpt>
      <trkpt lat="43.92062" lon="1.73524">
        <ele>216</ele>
        <time>2018-07-15T09:51:13Z</time>
      </trkpt>
      <trkpt lat="43.92065" lon="1.7352">
        <ele>216</ele>
        <time>2018-07-15T09:51:14Z</time>
      </trkpt>
      <trkpt lat="43.92066" lon="1.73515">
        <ele>216</ele>
        <time>2018-07-15T09:51:15Z</time>
      </trkpt>
      <trkpt lat="43.92068" lon="1.73511">
        <ele>216</ele>
        <time>2018-07-15T09:51:16Z</time>
      </trkpt>
      <trkpt lat="43.9207" lon="1.73507">
        <ele>216</ele>
        <time>2018-07-15T09:51:17Z</time>
      </trkpt>
      <trkpt lat="43.92071" lon="1.73503">
        <ele>216</ele>
        <time>2018-07-15T09:51:18Z</time>
      </trkpt>
      <trkpt lat="43.92072" lon="1.73499">
        <ele>217</ele>
        <time>2018-07-15T09:51:19Z</time>
      </trkpt>
      <trkpt lat="43.92073" lon="1.73495">
        <ele>217</ele>
        <time>2018-07-15T09:51:20Z</time>
      </trkpt>
      <trkpt lat="43.92074" lon="1.73491">
        <ele>217</ele>
        <time>2018-07-15T09:51:21Z</time>
      </trkpt>
      <trkpt lat="43.92075" lon="1.73486">
        <ele>217</ele>
        <time>2018-07-15T09:51:22Z</time>
      </trkpt>
      <trkpt lat="43.92077" lon="1.73482">
        <ele>218</ele>
        <time>2018-07-15T09:51:23Z</time>
      </trkpt>
      <trkpt lat="43.92078" lon="1.73478">
        <ele>218</ele>
        <time>2018-07-15T09:51:24Z</time>
      </trkpt>
      <trkpt lat="43.9208" lon="1.73475">
        <ele>218</ele>
        <time>2018-07-15T09:51:25Z</time>
      </trkpt>
      <trkpt lat="43.92082" lon="1.73471">
        <ele>218</ele>
        <time>2018-07-15T09:51:26Z</time>
      </trkpt>
      <trkpt lat="43.92084" lon="1.73468">
        <ele>218</ele>
        <time>2018-07-15T09:51:27Z</time>
      </trkpt>
      <trkpt lat="43.92087" lon="1.73464">
        <ele>218</ele>
        <time>2018-07-15T09:51:28Z</time>
      </trkpt>
      <trkpt lat="43.92089" lon="1.7346">
        <ele>218</ele>
        <time>2018-07-15T09:51:29Z</time>
      </trkpt>
      <trkpt lat="43.92091" lon="1.73457">
        <ele>218</ele>
        <time>2018-07-15T09:51:30Z</time>
      </trkpt>
      <trkpt lat="43.92093" lon="1.73454">
        <ele>219</ele>
        <time>2018-07-15T09:51:31Z</time>
      </trkpt>
      <trkpt lat="43.92095" lon="1.7345">
        <ele>219</ele>
        <time>2018-07-15T09:51:32Z</time>
      </trkpt>
      <trkpt lat="43.92098" lon="1.73447">
        <ele>219</ele>
        <time>2018-07-15T09:51:33Z</time>
      </trkpt>
      <trkpt lat="43.92101" lon="1.73443">
        <ele>219</ele>
        <time>2018-07-15T09:51:34Z</time>
      </trkpt>
      <trkpt lat="43.92104" lon="1.7344">
        <ele>219</ele>
        <time>2018-07-15T09:51:35Z</time>
      </trkpt>
      <trkpt lat="43.92106" lon="1.73437">
        <ele>219</ele>
        <time>2018-07-15T09:51:36Z</time>
      </trkpt>
      <trkpt lat="43.92109" lon="1.73434">
        <ele>219</ele>
        <time>2018-07-15T09:51:37Z</time>
      </trkpt>
      <trkpt lat="43.92112" lon="1.73431">
        <ele>219</ele>
        <time>2018-07-15T09:51:38Z</time>
      </trkpt>
      <trkpt lat="43.92114" lon="1.73428">
        <ele>220</ele>
        <time>2018-07-15T09:51:39Z</time>
      </trkpt>
      <trkpt lat="43.92117" lon="1.73425">
        <ele>220</ele>
        <time>2018-07-15T09:51:40Z</time>
      </trkpt>
      <trkpt lat="43.9212" lon="1.73422">
        <ele>220</ele>
        <time>2018-07-15T09:51:41Z</time>
      </trkpt>
      <trkpt lat="43.92122" lon="1.73419">
        <ele>220</ele>
        <time>2018-07-15T09:51:42Z</time>
      </trkpt>
      <trkpt lat="43.92125" lon="1.73416">
        <ele>220</ele>
        <time>2018-07-15T09:51:43Z</time>
      </trkpt>
      <trkpt lat="43.92127" lon="1.73413">
        <ele>220</ele>
        <time>2018-07-15T09:51:44Z</time>
      </trkpt>
      <trkpt lat="43.9213" lon="1.73411">
        <ele>220</ele>
        <time>2018-07-15T09:51:45Z</time>
      </trkpt>
      <trkpt lat="43.92133" lon="1.73408">
        <ele>220</ele>
        <time>2018-07-15T09:51:46Z</time>
      </trkpt>
      <trkpt lat="43.92135" lon="1.73405">
        <ele>221</ele>
        <time>2018-07-15T09:51:47Z</time>
      </trkpt>
      <trkpt lat="43.92138" lon="1.73401">
        <ele>221</ele>
        <time>2018-07-15T09:51:48Z</time>
      </trkpt>
      <trkpt lat="43.9214" lon="1.73398">
        <ele>221</ele>
        <time>2018-07-15T09:51:49Z</time>
      </trkpt>
      <trkpt lat="43.92143" lon="1.73395">
        <ele>221</ele>
        <time>2018-07-15T09:51:50Z</time>
      </trkpt>
      <trkpt lat="43.92145" lon="1.73391">
        <ele>221</ele>
        <time>2018-07-15T09:51:51Z</time>
      </trkpt>
      <trkpt lat="43.92146" lon="1.73387">
        <ele>221</ele>
        <time>2018-07-15T09:51:52Z</time>
      </trkpt>
      <trkpt lat="43.92148" lon="1.73383">
        <ele>221</ele>
        <time>2018-07-15T09:51:53Z</time>
      </trkpt>
      <trkpt lat="43.92149" lon="1.73379">
        <ele>222</ele>
        <time>2018-07-15T09:51:54Z</time>
      </trkpt>
      <trkpt lat="43.92151" lon="1.73374">
        <ele>222</ele>
        <time>2018-07-15T09:51:55Z</time>
      </trkpt>
      <trkpt lat="43.92152" lon="1.73369">
        <ele>222</ele>
        <time>2018-07-15T09:51:56Z</time>
      </trkpt>
      <trkpt lat="43.92153" lon="1.73365">
        <ele>222</ele>
        <time>2018-07-15T09:51:57Z</time>
      </trkpt>
      <trkpt lat="43.92154" lon="1.7336">
        <ele>222</ele>
        <time>2018-07-15T09:51:58Z</time>
      </trkpt>
      <trkpt lat="43.92155" lon="1.73355">
        <ele>222</ele>
        <time>2018-07-15T09:51:59Z</time>
      </trkpt>
      <trkpt lat="43.92156" lon="1.73351">
        <ele>222</ele>
        <time>2018-07-15T09:52:00Z</time>
      </trkpt>
      <trkpt lat="43.92156" lon="1.73346">
        <ele>222</ele>
        <time>2018-07-15T09:52:01Z</time>
      </trkpt>
      <trkpt lat="43.92156" lon="1.73341">
        <ele>223</ele>
        <time>2018-07-15T09:52:02Z</time>
      </trkpt>
      <trkpt lat="43.92158" lon="1.73336">
        <ele>223</ele>
        <time>2018-07-15T09:52:03Z</time>
      </trkpt>
      <trkpt lat="43.92159" lon="1.73331">
        <ele>223</ele>
        <time>2018-07-15T09:52:04Z</time>
      </trkpt>
      <trkpt lat="43.92159" lon="1.73327">
        <ele>223</ele>
        <time>2018-07-15T09:52:05Z</time>
      </trkpt>
      <trkpt lat="43.9216" lon="1.73322">
        <ele>223</ele>
        <time>2018-07-15T09:52:06Z</time>
      </trkpt>
      <trkpt lat="43.92161" lon="1.73318">
        <ele>223</ele>
        <time>2018-07-15T09:52:07Z</time>
      </trkpt>
      <trkpt lat="43.92162" lon="1.73313">
        <ele>224</ele>
        <time>2018-07-15T09:52:08Z</time>
      </trkpt>
      <trkpt lat="43.92163" lon="1.73308">
        <ele>224</ele>
        <time>2018-07-15T09:52:09Z</time>
      </trkpt>
      <trkpt lat="43.92165" lon="1.73304">
        <ele>224</ele>
        <time>2018-07-15T09:52:10Z</time>
      </trkpt>
      <trkpt lat="43.92166" lon="1.733">
        <ele>224</ele>
        <time>2018-07-15T09:52:11Z</time>
      </trkpt>
      <trkpt lat="43.92168" lon="1.73296">
        <ele>224</ele>
        <time>2018-07-15T09:52:12Z</time>
      </trkpt>
      <trkpt lat="43.9217" lon="1.73292">
        <ele>224</ele>
        <time>2018-07-15T09:52:13Z</time>
      </trkpt>
      <trkpt lat="43.92173" lon="1.73287">
        <ele>224</ele>
        <time>2018-07-15T09:52:14Z</time>
      </trkpt>
      <trkpt lat="43.92175" lon="1.73284">
        <ele>225</ele>
        <time>2018-07-15T09:52:15Z</time>
      </trkpt>
      <trkpt lat="43.92178" lon="1.7328">
        <ele>225</ele>
        <time>2018-07-15T09:52:16Z</time>
      </trkpt>
      <trkpt lat="43.92181" lon="1.73277">
        <ele>225</ele>
        <time>2018-07-15T09:52:17Z</time>
      </trkpt>
      <trkpt lat="43.92184" lon="1.73274">
        <ele>225</ele>
        <time>2018-07-15T09:52:18Z</time>
      </trkpt>
      <trkpt lat="43.92188" lon="1.73272">
        <ele>225</ele>
        <time>2018-07-15T09:52:19Z</time>
      </trkpt>
      <trkpt lat="43.92191" lon="1.7327">
        <ele>225</ele>
        <time>2018-07-15T09:52:20Z</time>
      </trkpt>
      <trkpt lat="43.92195" lon="1.73268">
        <ele>225</ele>
        <time>2018-07-15T09:52:21Z</time>
      </trkpt>
      <trkpt lat="43.92199" lon="1.73267">
        <ele>225</ele>
        <time>2018-07-15T09:52:22Z</time>
      </trkpt>
      <trkpt lat="43.92202" lon="1.73265">
        <ele>225</ele>
        <time>2018-07-15T09:52:23Z</time>
      </trkpt>
      <trkpt lat="43.92206" lon="1.73264">
        <ele>225</ele>
        <time>2018-07-15T09:52:24Z</time>
      </trkpt>
      <trkpt lat="43.92209" lon="1.73263">
        <ele>225</ele>
        <time>2018-07-15T09:52:25Z</time>
      </trkpt>
      <trkpt lat="43.92213" lon="1.73262">
        <ele>225</ele>
        <time>2018-07-15T09:52:26Z</time>
      </trkpt>
      <trkpt lat="43.92216" lon="1.73261">
        <ele>226</ele>
        <time>2018-07-15T09:52:27Z</time>
      </trkpt>
      <trkpt lat="43.9222" lon="1.73261">
        <ele>226</ele>
        <time>2018-07-15T09:52:28Z</time>
      </trkpt>
      <trkpt lat="43.92224" lon="1.7326">
        <ele>226</ele>
        <time>2018-07-15T09:52:29Z</time>
      </trkpt>
      <trkpt lat="43.92227" lon="1.7326">
        <ele>226</ele>
        <time>2018-07-15T09:52:30Z</time>
      </trkpt>
      <trkpt lat="43.92231" lon="1.7326">
        <ele>226</ele>
        <time>2018-07-15T09:52:31Z</time>
      </trkpt>
      <trkpt lat="43.92235" lon="1.73259">
        <ele>227</ele>
        <time>2018-07-15T09:52:32Z</time>
      </trkpt>
      <trkpt lat="43.92238" lon="1.73259">
        <ele>227</ele>
        <time>2018-07-15T09:52:33Z</time>
      </trkpt>
      <trkpt lat="43.92242" lon="1.73259">
        <ele>227</ele>
        <time>2018-07-15T09:52:34Z</time>
      </trkpt>
      <trkpt lat="43.92246" lon="1.73259">
        <ele>227</ele>
        <time>2018-07-15T09:52:35Z</time>
      </trkpt>
      <trkpt lat="43.92249" lon="1.73259">
        <ele>227</ele>
        <time>2018-07-15T09:52:36Z</time>
      </trkpt>
      <trkpt lat="43.92253" lon="1.73259">
        <ele>227</ele>
        <time>2018-07-15T09:52:37Z</time>
      </trkpt>
      <trkpt lat="43.92257" lon="1.73259">
        <ele>227</ele>
        <time>2018-07-15T09:52:38Z</time>
      </trkpt>
      <trkpt lat="43.92261" lon="1.73259">
        <ele>227</ele>
        <time>2018-07-15T09:52:39Z</time>
      </trkpt>
      <trkpt lat="43.92265" lon="1.73259">
        <ele>227</ele>
        <time>2018-07-15T09:52:40Z</time>
      </trkpt>
      <trkpt lat="43.92269" lon="1.73259">
        <ele>227</ele>
        <time>2018-07-15T09:52:41Z</time>
      </trkpt>
      <trkpt lat="43.92272" lon="1.73259">
        <ele>227</ele>
        <time>2018-07-15T09:52:42Z</time>
      </trkpt>
      <trkpt lat="43.92276" lon="1.73259">
        <ele>227</ele>
        <time>2018-07-15T09:52:43Z</time>
      </trkpt>
      <trkpt lat="43.9228" lon="1.7326">
        <ele>227</ele>
        <time>2018-07-15T09:52:44Z</time>
      </trkpt>
      <trkpt lat="43.92284" lon="1.7326">
        <ele>227</ele>
        <time>2018-07-15T09:52:45Z</time>
      </trkpt>
      <trkpt lat="43.92287" lon="1.7326">
        <ele>227</ele>
        <time>2018-07-15T09:52:46Z</time>
      </trkpt>
      <trkpt lat="43.92291" lon="1.73259">
        <ele>227</ele>
        <time>2018-07-15T09:52:47Z</time>
      </trkpt>
      <trkpt lat="43.92294" lon="1.73259">
        <ele>227</ele>
        <time>2018-07-15T09:52:48Z</time>
      </trkpt>
      <trkpt lat="43.92298" lon="1.73259">
        <ele>228</ele>
        <time>2018-07-15T09:52:49Z</time>
      </trkpt>
      <trkpt lat="43.92302" lon="1.73258">
        <ele>228</ele>
        <time>2018-07-15T09:52:50Z</time>
      </trkpt>
      <trkpt lat="43.92306" lon="1.73257">
        <ele>228</ele>
        <time>2018-07-15T09:52:51Z</time>
      </trkpt>
      <trkpt lat="43.92309" lon="1.73256">
        <ele>228</ele>
        <time>2018-07-15T09:52:52Z</time>
      </trkpt>
      <trkpt lat="43.92313" lon="1.73256">
        <ele>228</ele>
        <time>2018-07-15T09:52:53Z</time>
      </trkpt>
      <trkpt lat="43.92317" lon="1.73255">
        <ele>228</ele>
        <time>2018-07-15T09:52:54Z</time>
      </trkpt>
      <trkpt lat="43.9232" lon="1.73253">
        <ele>229</ele>
        <time>2018-07-15T09:52:55Z</time>
      </trkpt>
      <trkpt lat="43.92324" lon="1.73252">
        <ele>229</ele>
        <time>2018-07-15T09:52:56Z</time>
      </trkpt>
      <trkpt lat="43.92328" lon="1.73251">
        <ele>229</ele>
        <time>2018-07-15T09:52:57Z</time>
      </trkpt>
      <trkpt lat="43.92331" lon="1.73249">
        <ele>229</ele>
        <time>2018-07-15T09:52:58Z</time>
      </trkpt>
      <trkpt lat="43.92335" lon="1.73247">
        <ele>229</ele>
        <time>2018-07-15T09:52:59Z</time>
      </trkpt>
      <trkpt lat="43.92338" lon="1.73245">
        <ele>229</ele>
        <time>2018-07-15T09:53:00Z</time>
      </trkpt>
      <trkpt lat="43.92342" lon="1.73244">
        <ele>229</ele>
        <time>2018-07-15T09:53:01Z</time>
      </trkpt>
      <trkpt lat="43.92345" lon="1.73242">
        <ele>230</ele>
        <time>2018-07-15T09:53:02Z</time>
      </trkpt>
      <trkpt lat="43.92349" lon="1.7324">
        <ele>230</ele>
        <time>2018-07-15T09:53:03Z</time>
      </trkpt>
      <trkpt lat="43.92352" lon="1.73238">
        <ele>230</ele>
        <time>2018-07-15T09:53:04Z</time>
      </trkpt>
      <trkpt lat="43.92356" lon="1.73236">
        <ele>230</ele>
        <time>2018-07-15T09:53:05Z</time>
      </trkpt>
      <trkpt lat="43.9236" lon="1.73235">
        <ele>230</ele>
        <time>2018-07-15T09:53:06Z</time>
      </trkpt>
      <trkpt lat="43.92363" lon="1.73233">
        <ele>230</ele>
        <time>2018-07-15T09:53:07Z</time>
      </trkpt>
      <trkpt lat="43.92367" lon="1.73231">
        <ele>231</ele>
        <time>2018-07-15T09:53:08Z</time>
      </trkpt>
      <trkpt lat="43.9237" lon="1.7323">
        <ele>231</ele>
        <time>2018-07-15T09:53:09Z</time>
      </trkpt>
      <trkpt lat="43.92374" lon="1.73228">
        <ele>231</ele>
        <time>2018-07-15T09:53:10Z</time>
      </trkpt>
      <trkpt lat="43.92378" lon="1.73227">
        <ele>231</ele>
        <time>2018-07-15T09:53:11Z</time>
      </trkpt>
      <trkpt lat="43.92381" lon="1.73225">
        <ele>231</ele>
        <time>2018-07-15T09:53:12Z</time>
      </trkpt>
      <trkpt lat="43.92385" lon="1.73224">
        <ele>231</ele>
        <time>2018-07-15T09:53:13Z</time>
      </trkpt>
      <trkpt lat="43.92389" lon="1.73222">
        <ele>231</ele>
        <time>2018-07-15T09:53:14Z</time>
      </trkpt>
      <trkpt lat="43.92392" lon="1.73221">
        <ele>231</ele>
        <time>2018-07-15T09:53:15Z</time>
      </trkpt>
      <trkpt lat="43.92396" lon="1.7322">
        <ele>231</ele>
        <time>2018-07-15T09:53:16Z</time>
      </trkpt>
      <trkpt lat="43.924" lon="1.73219">
        <ele>231</ele>
        <time>2018-07-15T09:53:17Z</time>
      </trkpt>
      <trkpt lat="43.92403" lon="1.73218">
        <ele>231</ele>
        <time>2018-07-15T09:53:18Z</time>
      </trkpt>
      <trkpt lat="43.92407" lon="1.73218">
        <ele>232</ele>
        <time>2018-07-15T09:53:19Z</time>
      </trkpt>
      <trkpt lat="43.92411" lon="1.73217">
        <ele>232</ele>
        <time>2018-07-15T09:53:20Z</time>
      </trkpt>
      <trkpt lat="43.92415" lon="1.73216">
        <ele>232</ele>
        <time>2018-07-15T09:53:21Z</time>
      </trkpt>
      <trkpt lat="43.92419" lon="1.73216">
        <ele>232</ele>
        <time>2018-07-15T09:53:22Z</time>
      </trkpt>
      <trkpt lat="43.92423" lon="1.73215">
        <ele>232</ele>
        <time>2018-07-15T09:53:23Z</time>
      </trkpt>
      <trkpt lat="43.92427" lon="1.73214">
        <ele>232</ele>
        <time>2018-07-15T09:53:24Z</time>
      </trkpt>
      <trkpt lat="43.92431" lon="1.73213">
        <ele>232</ele>
        <time>2018-07-15T09:53:25Z</time>
      </trkpt>
      <trkpt lat="43.92435" lon="1.73212">
        <ele>232</ele>
        <time>2018-07-15T09:53:26Z</time>
      </trkpt>
      <trkpt lat="43.92439" lon="1.73211">
        <ele>232</ele>
        <time>2018-07-15T09:53:27Z</time>
      </trkpt>
      <trkpt lat="43.92443" lon="1.7321">
        <ele>233</ele>
        <time>2018-07-15T09:53:28Z</time>
      </trkpt>
      <trkpt lat="43.92447" lon="1.73209">
        <ele>233</ele>
        <time>2018-07-15T09:53:29Z</time>
      </trkpt>
      <trkpt lat="43.92451" lon="1.73208">
        <ele>233</ele>
        <time>2018-07-15T09:53:30Z</time>
      </trkpt>
      <trkpt lat="43.92455" lon="1.73206">
        <ele>233</ele>
        <time>2018-07-15T09:53:31Z</time>
      </trkpt>
      <trkpt lat="43.92459" lon="1.73205">
        <ele>233</ele>
        <time>2018-07-15T09:53:32Z</time>
      </trkpt>
      <trkpt lat="43.92463" lon="1.73203">
        <ele>233</ele>
        <time>2018-07-15T09:53:33Z</time>
      </trkpt>
      <trkpt lat="43.92467" lon="1.732">
        <ele>233</ele>
        <time>2018-07-15T09:53:34Z</time>
      </trkpt>
      <trkpt lat="43.92471" lon="1.73198">
        <ele>234</ele>
        <time>2018-07-15T09:53:35Z</time>
      </trkpt>
      <trkpt lat="43.92475" lon="1.73195">
        <ele>234</ele>
        <time>2018-07-15T09:53:36Z</time>
      </trkpt>
      <trkpt lat="43.92479" lon="1.73191">
        <ele>234</ele>
        <time>2018-07-15T09:53:37Z</time>
      </trkpt>
      <trkpt lat="43.92483" lon="1.73188">
        <ele>234</ele>
        <time>2018-07-15T09:53:38Z</time>
      </trkpt>
      <trkpt lat="43.92487" lon="1.73185">
        <ele>234</ele>
        <time>2018-07-15T09:53:39Z</time>
      </trkpt>
      <trkpt lat="43.92491" lon="1.73182">
        <ele>234</ele>
        <time>2018-07-15T09:53:40Z</time>
      </trkpt>
      <trkpt lat="43.92494" lon="1.73179">
        <ele>234</ele>
        <time>2018-07-15T09:53:41Z</time>
      </trkpt>
      <trkpt lat="43.92498" lon="1.73176">
        <ele>234</ele>
        <time>2018-07-15T09:53:42Z</time>
      </trkpt>
      <trkpt lat="43.92502" lon="1.73172">
        <ele>234</ele>
        <time>2018-07-15T09:53:43Z</time>
      </trkpt>
      <trkpt lat="43.92505" lon="1.73168">
        <ele>234</ele>
        <time>2018-07-15T09:53:44Z</time>
      </trkpt>
      <trkpt lat="43.92509" lon="1.73165">
        <ele>234</ele>
        <time>2018-07-15T09:53:45Z</time>
      </trkpt>
      <trkpt lat="43.92512" lon="1.73162">
        <ele>234</ele>
        <time>2018-07-15T09:53:46Z</time>
      </trkpt>
      <trkpt lat="43.92516" lon="1.73157">
        <ele>235</ele>
        <time>2018-07-15T09:53:47Z</time>
      </trkpt>
      <trkpt lat="43.92519" lon="1.73154">
        <ele>235</ele>
        <time>2018-07-15T09:53:48Z</time>
      </trkpt>
      <trkpt lat="43.92522" lon="1.73149">
        <ele>235</ele>
        <time>2018-07-15T09:53:49Z</time>
      </trkpt>
      <trkpt lat="43.92526" lon="1.73145">
        <ele>235</ele>
        <time>2018-07-15T09:53:50Z</time>
      </trkpt>
      <trkpt lat="43.9253" lon="1.7314">
        <ele>235</ele>
        <time>2018-07-15T09:53:51Z</time>
      </trkpt>
      <trkpt lat="43.92533" lon="1.73135">
        <ele>235</ele>
        <time>2018-07-15T09:53:52Z</time>
      </trkpt>
      <trkpt lat="43.92537" lon="1.7313">
        <ele>235</ele>
        <time>2018-07-15T09:53:53Z</time>
      </trkpt>
      <trkpt lat="43.9254" lon="1.73125">
        <ele>235</ele>
        <time>2018-07-15T09:53:54Z</time>
      </trkpt>
      <trkpt lat="43.92543" lon="1.7312">
        <ele>236</ele>
        <time>2018-07-15T09:53:55Z</time>
      </trkpt>
      <trkpt lat="43.92546" lon="1.73115">
        <ele>236</ele>
        <time>2018-07-15T09:53:56Z</time>
      </trkpt>
      <trkpt lat="43.92548" lon="1.73109">
        <ele>236</ele>
        <time>2018-07-15T09:53:57Z</time>
      </trkpt>
      <trkpt lat="43.92551" lon="1.73104">
        <ele>236</ele>
        <time>2018-07-15T09:53:58Z</time>
      </trkpt>
      <trkpt lat="43.92553" lon="1.73098">
        <ele>236</ele>
        <time>2018-07-15T09:53:59Z</time>
      </trkpt>
      <trkpt lat="43.92555" lon="1.73093">
        <ele>236</ele>
        <time>2018-07-15T09:54:00Z</time>
      </trkpt>
      <trkpt lat="43.92557" lon="1.73087">
        <ele>236</ele>
        <time>2018-07-15T09:54:01Z</time>
      </trkpt>
      <trkpt lat="43.92558" lon="1.73081">
        <ele>236</ele>
        <time>2018-07-15T09:54:02Z</time>
      </trkpt>
      <trkpt lat="43.9256" lon="1.73075">
        <ele>236</ele>
        <time>2018-07-15T09:54:03Z</time>
      </trkpt>
      <trkpt lat="43.92562" lon="1.73069">
        <ele>236</ele>
        <time>2018-07-15T09:54:04Z</time>
      </trkpt>
      <trkpt lat="43.92564" lon="1.73063">
        <ele>236</ele>
        <time>2018-07-15T09:54:05Z</time>
      </trkpt>
      <trkpt lat="43.92566" lon="1.73056">
        <ele>236</ele>
        <time>2018-07-15T09:54:06Z</time>
      </trkpt>
      <trkpt lat="43.92568" lon="1.7305">
        <ele>236</ele>
        <time>2018-07-15T09:54:07Z</time>
      </trkpt>
      <trkpt lat="43.9257" lon="1.73043">
        <ele>236</ele>
        <time>2018-07-15T09:54:08Z</time>
      </trkpt>
      <trkpt lat="43.92571" lon="1.73036">
        <ele>236</ele>
        <time>2018-07-15T09:54:09Z</time>
      </trkpt>
      <trkpt lat="43.92573" lon="1.73029">
        <ele>235</ele>
        <time>2018-07-15T09:54:10Z</time>
      </trkpt>
      <trkpt lat="43.92575" lon="1.73022">
        <ele>235</ele>
        <time>2018-07-15T09:54:11Z</time>
      </trkpt>
      <trkpt lat="43.92577" lon="1.73014">
        <ele>235</ele>
        <time>2018-07-15T09:54:12Z</time>
      </trkpt>
      <trkpt lat="43.9258" lon="1.73007">
        <ele>235</ele>
        <time>2018-07-15T09:54:13Z</time>
      </trkpt>
      <trkpt lat="43.92582" lon="1.73">
        <ele>235</ele>
        <time>2018-07-15T09:54:14Z</time>
      </trkpt>
      <trkpt lat="43.92584" lon="1.72992">
        <ele>235</ele>
        <time>2018-07-15T09:54:15Z</time>
      </trkpt>
      <trkpt lat="43.92586" lon="1.72983">
        <ele>234</ele>
        <time>2018-07-15T09:54:16Z</time>
      </trkpt>
      <trkpt lat="43.92588" lon="1.72975">
        <ele>234</ele>
        <time>2018-07-15T09:54:17Z</time>
      </trkpt>
      <trkpt lat="43.92591" lon="1.72967">
        <ele>234</ele>
        <time>2018-07-15T09:54:18Z</time>
      </trkpt>
      <trkpt lat="43.92594" lon="1.72958">
        <ele>233</ele>
        <time>2018-07-15T09:54:19Z</time>
      </trkpt>
      <trkpt lat="43.92597" lon="1.7295">
        <ele>233</ele>
        <time>2018-07-15T09:54:20Z</time>
      </trkpt>
      <trkpt lat="43.92601" lon="1.72941">
        <ele>232</ele>
        <time>2018-07-15T09:54:21Z</time>
      </trkpt>
      <trkpt lat="43.92604" lon="1.72933">
        <ele>232</ele>
        <time>2018-07-15T09:54:22Z</time>
      </trkpt>
      <trkpt lat="43.92608" lon="1.72925">
        <ele>232</ele>
        <time>2018-07-15T09:54:23Z</time>
      </trkpt>
      <trkpt lat="43.92612" lon="1.72917">
        <ele>232</ele>
        <time>2018-07-15T09:54:24Z</time>
      </trkpt>
      <trkpt lat="43.92617" lon="1.72909">
        <ele>232</ele>
        <time>2018-07-15T09:54:25Z</time>
      </trkpt>
      <trkpt lat="43.92622" lon="1.72901">
        <ele>232</ele>
        <time>2018-07-15T09:54:26Z</time>
      </trkpt>
      <trkpt lat="43.92627" lon="1.72894">
        <ele>232</ele>
        <time>2018-07-15T09:54:27Z</time>
      </trkpt>
      <trkpt lat="43.92632" lon="1.72887">
        <ele>232</ele>
        <time>2018-07-15T09:54:28Z</time>
      </trkpt>
      <trkpt lat="43.92637" lon="1.72881">
        <ele>232</ele>
        <time>2018-07-15T09:54:29Z</time>
      </trkpt>
      <trkpt lat="43.92641" lon="1.72875">
        <ele>232</ele>
        <time>2018-07-15T09:54:30Z</time>
      </trkpt>
      <trkpt lat="43.92646" lon="1.72869">
        <ele>232</ele>
        <time>2018-07-15T09:54:31Z</time>
      </trkpt>
      <trkpt lat="43.92651" lon="1.72864">
        <ele>232</ele>
        <time>2018-07-15T09:54:32Z</time>
      </trkpt>
      <trkpt lat="43.92655" lon="1.72859">
        <ele>232</ele>
        <time>2018-07-15T09:54:33Z</time>
      </trkpt>
      <trkpt lat="43.9266" lon="1.72854">
        <ele>232</ele>
        <time>2018-07-15T09:54:34Z</time>
      </trkpt>
      <trkpt lat="43.92664" lon="1.7285">
        <ele>232</ele>
        <time>2018-07-15T09:54:35Z</time>
      </trkpt>
      <trkpt lat="43.92669" lon="1.72846">
        <ele>232</ele>
        <time>2018-07-15T09:54:36Z</time>
      </trkpt>
      <trkpt lat="43.92674" lon="1.72842">
        <ele>232</ele>
        <time>2018-07-15T09:54:37Z</time>
      </trkpt>
      <trkpt lat="43.92678" lon="1.72837">
        <ele>233</ele>
        <time>2018-07-15T09:54:38Z</time>
      </trkpt>
      <trkpt lat="43.92682" lon="1.72833">
        <ele>233</ele>
        <time>2018-07-15T09:54:39Z</time>
      </trkpt>
      <trkpt lat="43.92687" lon="1.7283">
        <ele>233</ele>
        <time>2018-07-15T09:54:40Z</time>
      </trkpt>
      <trkpt lat="43.92691" lon="1.72826">
        <ele>233</ele>
        <time>2018-07-15T09:54:41Z</time>
      </trkpt>
      <trkpt lat="43.92696" lon="1.72823">
        <ele>233</ele>
        <time>2018-07-15T09:54:42Z</time>
      </trkpt>
      <trkpt lat="43.927" lon="1.72819">
        <ele>233</ele>
        <time>2018-07-15T09:54:43Z</time>
      </trkpt>
      <trkpt lat="43.92704" lon="1.72816">
        <ele>233</ele>
        <time>2018-07-15T09:54:44Z</time>
      </trkpt>
      <trkpt lat="43.92708" lon="1.72814">
        <ele>233</ele>
        <time>2018-07-15T09:54:45Z</time>
      </trkpt>
      <trkpt lat="43.92712" lon="1.72811">
        <ele>233</ele>
        <time>2018-07-15T09:54:46Z</time>
      </trkpt>
      <trkpt lat="43.92717" lon="1.72807">
        <ele>234</ele>
        <time>2018-07-15T09:54:47Z</time>
      </trkpt>
      <trkpt lat="43.92721" lon="1.72804">
        <ele>234</ele>
        <time>2018-07-15T09:54:48Z</time>
      </trkpt>
      <trkpt lat="43.92725" lon="1.728">
        <ele>234</ele>
        <time>2018-07-15T09:54:49Z</time>
      </trkpt>
      <trkpt lat="43.9273" lon="1.72797">
        <ele>234</ele>
        <time>2018-07-15T09:54:50Z</time>
      </trkpt>
      <trkpt lat="43.92734" lon="1.72794">
        <ele>234</ele>
        <time>2018-07-15T09:54:51Z</time>
      </trkpt>
      <trkpt lat="43.92739" lon="1.72791">
        <ele>234</ele>
        <time>2018-07-15T09:54:52Z</time>
      </trkpt>
      <trkpt lat="43.92743" lon="1.72788">
        <ele>234</ele>
        <time>2018-07-15T09:54:53Z</time>
      </trkpt>
      <trkpt lat="43.92748" lon="1.72785">
        <ele>234</ele>
        <time>2018-07-15T09:54:54Z</time>
      </trkpt>
      <trkpt lat="43.92752" lon="1.72782">
        <ele>235</ele>
        <time>2018-07-15T09:54:55Z</time>
      </trkpt>
      <trkpt lat="43.92757" lon="1.72779">
        <ele>235</ele>
        <time>2018-07-15T09:54:56Z</time>
      </trkpt>
      <trkpt lat="43.92761" lon="1.72776">
        <ele>235</ele>
        <time>2018-07-15T09:54:57Z</time>
      </trkpt>
      <trkpt lat="43.92765" lon="1.72773">
        <ele>236</ele>
        <time>2018-07-15T09:54:58Z</time>
      </trkpt>
      <trkpt lat="43.9277" lon="1.7277">
        <ele>236</ele>
        <time>2018-07-15T09:54:59Z</time>
      </trkpt>
      <trkpt lat="43.92774" lon="1.72767">
        <ele>236</ele>
        <time>2018-07-15T09:55:00Z</time>
      </trkpt>
      <trkpt lat="43.92779" lon="1.72764">
        <ele>236</ele>
        <time>2018-07-15T09:55:01Z</time>
      </trkpt>
      <trkpt lat="43.92784" lon="1.72762">
        <ele>236</ele>
        <time>2018-07-15T09:55:02Z</time>
      </trkpt>
      <trkpt lat="43.92789" lon="1.7276">
        <ele>237</ele>
        <time>2018-07-15T09:55:03Z</time>
      </trkpt>
      <trkpt lat="43.92794" lon="1.72757">
        <ele>237</ele>
        <time>2018-07-15T09:55:04Z</time>
      </trkpt>
      <trkpt lat="43.92799" lon="1.72754">
        <ele>237</ele>
        <time>2018-07-15T09:55:05Z</time>
      </trkpt>
      <trkpt lat="43.92804" lon="1.72752">
        <ele>237</ele>
        <time>2018-07-15T09:55:06Z</time>
      </trkpt>
      <trkpt lat="43.92809" lon="1.72751">
        <ele>237</ele>
        <time>2018-07-15T09:55:07Z</time>
      </trkpt>
      <trkpt lat="43.92813" lon="1.7275">
        <ele>237</ele>
        <time>2018-07-15T09:55:08Z</time>
      </trkpt>
      <trkpt lat="43.92819" lon="1.72749">
        <ele>237</ele>
        <time>2018-07-15T09:55:09Z</time>
      </trkpt>
      <trkpt lat="43.92824" lon="1.72749">
        <ele>237</ele>
        <time>2018-07-15T09:55:10Z</time>
      </trkpt>
      <trkpt lat="43.92829" lon="1.72746">
        <ele>237</ele>
        <time>2018-07-15T09:55:11Z</time>
      </trkpt>
      <trkpt lat="43.92834" lon="1.72746">
        <ele>237</ele>
        <time>2018-07-15T09:55:12Z</time>
      </trkpt>
      <trkpt lat="43.92839" lon="1.72746">
        <ele>237</ele>
        <time>2018-07-15T09:55:13Z</time>
      </trkpt>
      <trkpt lat="43.92844" lon="1.72745">
        <ele>237</ele>
        <time>2018-07-15T09:55:14Z</time>
      </trkpt>
      <trkpt lat="43.9285" lon="1.72744">
        <ele>237</ele>
        <time>2018-07-15T09:55:15Z</time>
      </trkpt>
      <trkpt lat="43.92856" lon="1.72745">
        <ele>237</ele>
        <time>2018-07-15T09:55:16Z</time>
      </trkpt>
      <trkpt lat="43.92861" lon="1.72746">
        <ele>237</ele>
        <time>2018-07-15T09:55:17Z</time>
      </trkpt>
      <trkpt lat="43.92866" lon="1.72747">
        <ele>237</ele>
        <time>2018-07-15T09:55:18Z</time>
      </trkpt>
      <trkpt lat="43.92872" lon="1.72748">
        <ele>237</ele>
        <time>2018-07-15T09:55:19Z</time>
      </trkpt>
      <trkpt lat="43.92877" lon="1.72748">
        <ele>237</ele>
        <time>2018-07-15T09:55:20Z</time>
      </trkpt>
      <trkpt lat="43.92882" lon="1.7275">
        <ele>237</ele>
        <time>2018-07-15T09:55:21Z</time>
      </trkpt>
      <trkpt lat="43.92887" lon="1.72751">
        <ele>237</ele>
        <time>2018-07-15T09:55:22Z</time>
      </trkpt>
      <trkpt lat="43.92893" lon="1.72752">
        <ele>237</ele>
        <time>2018-07-15T09:55:23Z</time>
      </trkpt>
      <trkpt lat="43.92898" lon="1.72754">
        <ele>237</ele>
        <time>2018-07-15T09:55:24Z</time>
      </trkpt>
      <trkpt lat="43.92903" lon="1.72755">
        <ele>237</ele>
        <time>2018-07-15T09:55:25Z</time>
      </trkpt>
      <trkpt lat="43.92909" lon="1.72756">
        <ele>237</ele>
        <time>2018-07-15T09:55:26Z</time>
      </trkpt>
      <trkpt lat="43.92914" lon="1.72757">
        <ele>237</ele>
        <time>2018-07-15T09:55:27Z</time>
      </trkpt>
      <trkpt lat="43.9292" lon="1.72758">
        <ele>237</ele>
        <time>2018-07-15T09:55:28Z</time>
      </trkpt>
      <trkpt lat="43.92926" lon="1.72759">
        <ele>236</ele>
        <time>2018-07-15T09:55:29Z</time>
      </trkpt>
      <trkpt lat="43.92932" lon="1.72761">
        <ele>237</ele>
        <time>2018-07-15T09:55:30Z</time>
      </trkpt>
      <trkpt lat="43.92938" lon="1.72762">
        <ele>237</ele>
        <time>2018-07-15T09:55:31Z</time>
      </trkpt>
      <trkpt lat="43.92944" lon="1.72762">
        <ele>237</ele>
        <time>2018-07-15T09:55:32Z</time>
      </trkpt>
      <trkpt lat="43.9295" lon="1.72762">
        <ele>237</ele>
        <time>2018-07-15T09:55:33Z</time>
      </trkpt>
      <trkpt lat="43.92955" lon="1.72763">
        <ele>236</ele>
        <time>2018-07-15T09:55:34Z</time>
      </trkpt>
      <trkpt lat="43.92961" lon="1.72763">
        <ele>236</ele>
        <time>2018-07-15T09:55:35Z</time>
      </trkpt>
      <trkpt lat="43.92967" lon="1.72764">
        <ele>236</ele>
        <time>2018-07-15T09:55:36Z</time>
      </trkpt>
      <trkpt lat="43.92973" lon="1.72764">
        <ele>236</ele>
        <time>2018-07-15T09:55:37Z</time>
      </trkpt>
      <trkpt lat="43.92979" lon="1.72764">
        <ele>236</ele>
        <time>2018-07-15T09:55:38Z</time>
      </trkpt>
      <trkpt lat="43.92985" lon="1.72763">
        <ele>236</ele>
        <time>2018-07-15T09:55:39Z</time>
      </trkpt>
      <trkpt lat="43.92991" lon="1.72762">
        <ele>237</ele>
        <time>2018-07-15T09:55:40Z</time>
      </trkpt>
      <trkpt lat="43.92997" lon="1.72761">
        <ele>237</ele>
        <time>2018-07-15T09:55:41Z</time>
      </trkpt>
      <trkpt lat="43.93004" lon="1.72759">
        <ele>237</ele>
        <time>2018-07-15T09:55:42Z</time>
      </trkpt>
      <trkpt lat="43.9301" lon="1.72758">
        <ele>237</ele>
        <time>2018-07-15T09:55:43Z</time>
      </trkpt>
      <trkpt lat="43.93017" lon="1.72756">
        <ele>237</ele>
        <time>2018-07-15T09:55:44Z</time>
      </trkpt>
      <trkpt lat="43.93024" lon="1.72755">
        <ele>237</ele>
        <time>2018-07-15T09:55:45Z</time>
      </trkpt>
      <trkpt lat="43.9303" lon="1.72755">
        <ele>237</ele>
        <time>2018-07-15T09:55:46Z</time>
      </trkpt>
      <trkpt lat="43.93036" lon="1.72755">
        <ele>237</ele>
        <time>2018-07-15T09:55:47Z</time>
      </trkpt>
      <trkpt lat="43.93042" lon="1.72755">
        <ele>237</ele>
        <time>2018-07-15T09:55:48Z</time>
      </trkpt>
      <trkpt lat="43.93048" lon="1.72755">
        <ele>237</ele>
        <time>2018-07-15T09:55:49Z</time>
      </trkpt>
      <trkpt lat="43.93055" lon="1.72755">
        <ele>237</ele>
        <time>2018-07-15T09:55:50Z</time>
      </trkpt>
      <trkpt lat="43.93061" lon="1.72755">
        <ele>237</ele>
        <time>2018-07-15T09:55:51Z</time>
      </trkpt>
      <trkpt lat="43.93067" lon="1.72756">
        <ele>237</ele>
        <time>2018-07-15T09:55:52Z</time>
      </trkpt>
      <trkpt lat="43.93073" lon="1.72757">
        <ele>237</ele>
        <time>2018-07-15T09:55:53Z</time>
      </trkpt>
      <trkpt lat="43.93079" lon="1.72758">
        <ele>237</ele>
        <time>2018-07-15T09:55:54Z</time>
      </trkpt>
      <trkpt lat="43.93085" lon="1.72758">
        <ele>237</ele>
        <time>2018-07-15T09:55:55Z</time>
      </trkpt>
      <trkpt lat="43.9309" lon="1.72758">
        <ele>237</ele>
        <time>2018-07-15T09:55:56Z</time>
      </trkpt>
      <trkpt lat="43.93096" lon="1.72759">
        <ele>237</ele>
        <time>2018-07-15T09:55:57Z</time>
      </trkpt>
      <trkpt lat="43.93102" lon="1.72759">
        <ele>237</ele>
        <time>2018-07-15T09:55:58Z</time>
      </trkpt>
      <trkpt lat="43.93108" lon="1.72759">
        <ele>237</ele>
        <time>2018-07-15T09:55:59Z</time>
      </trkpt>
      <trkpt lat="43.93113" lon="1.72759">
        <ele>237</ele>
        <time>2018-07-15T09:56:00Z</time>
      </trkpt>
      <trkpt lat="43.93118" lon="1.72759">
        <ele>237</ele>
        <time>2018-07-15T09:56:01Z</time>
      </trkpt>
      <trkpt lat="43.93124" lon="1.72758">
        <ele>237</ele>
        <time>2018-07-15T09:56:02Z</time>
      </trkpt>
      <trkpt lat="43.93129" lon="1.72757">
        <ele>237</ele>
        <time>2018-07-15T09:56:03Z</time>
      </trkpt>
      <trkpt lat="43.93134" lon="1.72756">
        <ele>237</ele>
        <time>2018-07-15T09:56:04Z</time>
      </trkpt>
      <trkpt lat="43.93139" lon="1.72754">
        <ele>237</ele>
        <time>2018-07-15T09:56:05Z</time>
      </trkpt>
      <trkpt lat="43.93145" lon="1.72752">
        <ele>237</ele>
        <time>2018-07-15T09:56:06Z</time>
      </trkpt>
      <trkpt lat="43.9315" lon="1.7275">
        <ele>237</ele>
        <time>2018-07-15T09:56:07Z</time>
      </trkpt>
      <trkpt lat="43.93154" lon="1.72747">
        <ele>237</ele>
        <time>2018-07-15T09:56:08Z</time>
      </trkpt>
      <trkpt lat="43.93159" lon="1.72744">
        <ele>237</ele>
        <time>2018-07-15T09:56:09Z</time>
      </trkpt>
      <trkpt lat="43.93164" lon="1.72741">
        <ele>237</ele>
        <time>2018-07-15T09:56:10Z</time>
      </trkpt>
      <trkpt lat="43.93169" lon="1.72738">
        <ele>237</ele>
        <time>2018-07-15T09:56:11Z</time>
      </trkpt>
      <trkpt lat="43.93175" lon="1.72734">
        <ele>237</ele>
        <time>2018-07-15T09:56:12Z</time>
      </trkpt>
      <trkpt lat="43.9318" lon="1.72731">
        <ele>237</ele>
        <time>2018-07-15T09:56:13Z</time>
      </trkpt>
      <trkpt lat="43.93186" lon="1.72727">
        <ele>237</ele>
        <time>2018-07-15T09:56:14Z</time>
      </trkpt>
      <trkpt lat="43.93191" lon="1.72723">
        <ele>238</ele>
        <time>2018-07-15T09:56:15Z</time>
      </trkpt>
      <trkpt lat="43.93197" lon="1.72719">
        <ele>238</ele>
        <time>2018-07-15T09:56:16Z</time>
      </trkpt>
      <trkpt lat="43.93202" lon="1.72714">
        <ele>237</ele>
        <time>2018-07-15T09:56:17Z</time>
      </trkpt>
      <trkpt lat="43.93208" lon="1.7271">
        <ele>237</ele>
        <time>2018-07-15T09:56:18Z</time>
      </trkpt>
      <trkpt lat="43.93213" lon="1.72706">
        <ele>237</ele>
        <time>2018-07-15T09:56:19Z</time>
      </trkpt>
      <trkpt lat="43.93219" lon="1.72701">
        <ele>237</ele>
        <time>2018-07-15T09:56:20Z</time>
      </trkpt>
      <trkpt lat="43.93224" lon="1.72696">
        <ele>237</ele>
        <time>2018-07-15T09:56:21Z</time>
      </trkpt>
      <trkpt lat="43.9323" lon="1.72692">
        <ele>237</ele>
        <time>2018-07-15T09:56:22Z</time>
      </trkpt>
      <trkpt lat="43.93236" lon="1.72686">
        <ele>236</ele>
        <time>2018-07-15T09:56:23Z</time>
      </trkpt>
      <trkpt lat="43.93241" lon="1.72681">
        <ele>236</ele>
        <time>2018-07-15T09:56:24Z</time>
      </trkpt>
      <trkpt lat="43.93247" lon="1.72675">
        <ele>236</ele>
        <time>2018-07-15T09:56:25Z</time>
      </trkpt>
      <trkpt lat="43.93253" lon="1.72668">
        <ele>236</ele>
        <time>2018-07-15T09:56:26Z</time>
      </trkpt>
      <trkpt lat="43.93259" lon="1.72663">
        <ele>235</ele>
        <time>2018-07-15T09:56:27Z</time>
      </trkpt>
      <trkpt lat="43.93265" lon="1.72657">
        <ele>235</ele>
        <time>2018-07-15T09:56:28Z</time>
      </trkpt>
      <trkpt lat="43.93271" lon="1.72652">
        <ele>235</ele>
        <time>2018-07-15T09:56:29Z</time>
      </trkpt>
      <trkpt lat="43.93277" lon="1.72645">
        <ele>234</ele>
        <time>2018-07-15T09:56:30Z</time>
      </trkpt>
      <trkpt lat="43.93283" lon="1.72639">
        <ele>234</ele>
        <time>2018-07-15T09:56:31Z</time>
      </trkpt>
      <trkpt lat="43.93288" lon="1.72631">
        <ele>234</ele>
        <time>2018-07-15T09:56:32Z</time>
      </trkpt>
      <trkpt lat="43.93293" lon="1.72624">
        <ele>234</ele>
        <time>2018-07-15T09:56:33Z</time>
      </trkpt>
      <trkpt lat="43.93298" lon="1.72617">
        <ele>233</ele>
        <time>2018-07-15T09:56:34Z</time>
      </trkpt>
      <trkpt lat="43.93304" lon="1.7261">
        <ele>233</ele>
        <time>2018-07-15T09:56:35Z</time>
      </trkpt>
      <trkpt lat="43.93309" lon="1.72602">
        <ele>234</ele>
        <time>2018-07-15T09:56:36Z</time>
      </trkpt>
      <trkpt lat="43.93315" lon="1.72595">
        <ele>234</ele>
        <time>2018-07-15T09:56:37Z</time>
      </trkpt>
      <trkpt lat="43.93321" lon="1.72589">
        <ele>233</ele>
        <time>2018-07-15T09:56:38Z</time>
      </trkpt>
      <trkpt lat="43.93327" lon="1.72582">
        <ele>233</ele>
        <time>2018-07-15T09:56:39Z</time>
      </trkpt>
      <trkpt lat="43.93334" lon="1.72575">
        <ele>233</ele>
        <time>2018-07-15T09:56:40Z</time>
      </trkpt>
      <trkpt lat="43.93341" lon="1.7257">
        <ele>233</ele>
        <time>2018-07-15T09:56:41Z</time>
      </trkpt>
      <trkpt lat="43.93348" lon="1.72565">
        <ele>233</ele>
        <time>2018-07-15T09:56:42Z</time>
      </trkpt>
      <trkpt lat="43.93355" lon="1.72561">
        <ele>233</ele>
        <time>2018-07-15T09:56:43Z</time>
      </trkpt>
      <trkpt lat="43.93363" lon="1.72558">
        <ele>233</ele>
        <time>2018-07-15T09:56:44Z</time>
      </trkpt>
      <trkpt lat="43.93371" lon="1.72555">
        <ele>232</ele>
        <time>2018-07-15T09:56:45Z</time>
      </trkpt>
      <trkpt lat="43.93378" lon="1.72553">
        <ele>233</ele>
        <time>2018-07-15T09:56:46Z</time>
      </trkpt>
      <trkpt lat="43.93385" lon="1.72551">
        <ele>233</ele>
        <time>2018-07-15T09:56:47Z</time>
      </trkpt>
      <trkpt lat="43.93392" lon="1.72549">
        <ele>233</ele>
        <time>2018-07-15T09:56:48Z</time>
      </trkpt>
      <trkpt lat="43.93399" lon="1.72547">
        <ele>233</ele>
        <time>2018-07-15T09:56:49Z</time>
      </trkpt>
      <trkpt lat="43.93406" lon="1.72544">
        <ele>233</ele>
        <time>2018-07-15T09:56:50Z</time>
      </trkpt>
      <trkpt lat="43.93413" lon="1.72542">
        <ele>233</ele>
        <time>2018-07-15T09:56:51Z</time>
      </trkpt>
      <trkpt lat="43.93419" lon="1.7254">
        <ele>234</ele>
        <time>2018-07-15T09:56:52Z</time>
      </trkpt>
      <trkpt lat="43.93425" lon="1.72538">
        <ele>234</ele>
        <time>2018-07-15T09:56:53Z</time>
      </trkpt>
      <trkpt lat="43.93431" lon="1.72536">
        <ele>234</ele>
        <time>2018-07-15T09:56:54Z</time>
      </trkpt>
      <trkpt lat="43.93438" lon="1.72534">
        <ele>234</ele>
        <time>2018-07-15T09:56:55Z</time>
      </trkpt>
      <trkpt lat="43.93445" lon="1.72531">
        <ele>234</ele>
        <time>2018-07-15T09:56:56Z</time>
      </trkpt>
      <trkpt lat="43.93451" lon="1.72529">
        <ele>234</ele>
        <time>2018-07-15T09:56:57Z</time>
      </trkpt>
      <trkpt lat="43.93457" lon="1.72527">
        <ele>234</ele>
        <time>2018-07-15T09:56:58Z</time>
      </trkpt>
      <trkpt lat="43.93464" lon="1.72525">
        <ele>235</ele>
        <time>2018-07-15T09:56:59Z</time>
      </trkpt>
      <trkpt lat="43.9347" lon="1.72523">
        <ele>234</ele>
        <time>2018-07-15T09:57:00Z</time>
      </trkpt>
      <trkpt lat="43.93477" lon="1.72521">
        <ele>234</ele>
        <time>2018-07-15T09:57:01Z</time>
      </trkpt>
      <trkpt lat="43.93483" lon="1.72519">
        <ele>234</ele>
        <time>2018-07-15T09:57:02Z</time>
      </trkpt>
      <trkpt lat="43.9349" lon="1.72517">
        <ele>234</ele>
        <time>2018-07-15T09:57:03Z</time>
      </trkpt>
      <trkpt lat="43.93496" lon="1.72515">
        <ele>234</ele>
        <time>2018-07-15T09:57:04Z</time>
      </trkpt>
      <trkpt lat="43.93503" lon="1.72512">
        <ele>234</ele>
        <time>2018-07-15T09:57:05Z</time>
      </trkpt>
      <trkpt lat="43.93509" lon="1.72509">
        <ele>234</ele>
        <time>2018-07-15T09:57:06Z</time>
      </trkpt>
      <trkpt lat="43.93516" lon="1.72507">
        <ele>234</ele>
        <time>2018-07-15T09:57:07Z</time>
      </trkpt>
      <trkpt lat="43.93523" lon="1.72504">
        <ele>235</ele>
        <time>2018-07-15T09:57:08Z</time>
      </trkpt>
      <trkpt lat="43.93529" lon="1.72502">
        <ele>235</ele>
        <time>2018-07-15T09:57:09Z</time>
      </trkpt>
      <trkpt lat="43.93536" lon="1.72501">
        <ele>235</ele>
        <time>2018-07-15T09:57:10Z</time>
      </trkpt>
      <trkpt lat="43.93543" lon="1.725">
        <ele>235</ele>
        <time>2018-07-15T09:57:11Z</time>
      </trkpt>
      <trkpt lat="43.9355" lon="1.72499">
        <ele>235</ele>
        <time>2018-07-15T09:57:12Z</time>
      </trkpt>
      <trkpt lat="43.93557" lon="1.72498">
        <ele>235</ele>
        <time>2018-07-15T09:57:13Z</time>
      </trkpt>
      <trkpt lat="43.93564" lon="1.72497">
        <ele>235</ele>
        <time>2018-07-15T09:57:14Z</time>
      </trkpt>
      <trkpt lat="43.93571" lon="1.72496">
        <ele>235</ele>
        <time>2018-07-15T09:57:15Z</time>
      </trkpt>
      <trkpt lat="43.93578" lon="1.72495">
        <ele>235</ele>
        <time>2018-07-15T09:57:16Z</time>
      </trkpt>
      <trkpt lat="43.93585" lon="1.72494">
        <ele>236</ele>
        <time>2018-07-15T09:57:17Z</time>
      </trkpt>
      <trkpt lat="43.93591" lon="1.72492">
        <ele>236</ele>
        <time>2018-07-15T09:57:18Z</time>
      </trkpt>
      <trkpt lat="43.93598" lon="1.7249">
        <ele>236</ele>
        <time>2018-07-15T09:57:19Z</time>
      </trkpt>
      <trkpt lat="43.93604" lon="1.72486">
        <ele>236</ele>
        <time>2018-07-15T09:57:20Z</time>
      </trkpt>
      <trkpt lat="43.9361" lon="1.72482">
        <ele>236</ele>
        <time>2018-07-15T09:57:21Z</time>
      </trkpt>
      <trkpt lat="43.93615" lon="1.72478">
        <ele>236</ele>
        <time>2018-07-15T09:57:22Z</time>
      </trkpt>
      <trkpt lat="43.93621" lon="1.72473">
        <ele>236</ele>
        <time>2018-07-15T09:57:23Z</time>
      </trkpt>
      <trkpt lat="43.93626" lon="1.72468">
        <ele>237</ele>
        <time>2018-07-15T09:57:24Z</time>
      </trkpt>
      <trkpt lat="43.9363" lon="1.72463">
        <ele>237</ele>
        <time>2018-07-15T09:57:25Z</time>
      </trkpt>
      <trkpt lat="43.93635" lon="1.72457">
        <ele>237</ele>
        <time>2018-07-15T09:57:26Z</time>
      </trkpt>
      <trkpt lat="43.9364" lon="1.72451">
        <ele>237</ele>
        <time>2018-07-15T09:57:27Z</time>
      </trkpt>
      <trkpt lat="43.93644" lon="1.72446">
        <ele>238</ele>
        <time>2018-07-15T09:57:28Z</time>
      </trkpt>
      <trkpt lat="43.93648" lon="1.7244">
        <ele>238</ele>
        <time>2018-07-15T09:57:29Z</time>
      </trkpt>
      <trkpt lat="43.93652" lon="1.72435">
        <ele>238</ele>
        <time>2018-07-15T09:57:30Z</time>
      </trkpt>
      <trkpt lat="43.93656" lon="1.7243">
        <ele>239</ele>
        <time>2018-07-15T09:57:31Z</time>
      </trkpt>
      <trkpt lat="43.9366" lon="1.72425">
        <ele>239</ele>
        <time>2018-07-15T09:57:32Z</time>
      </trkpt>
      <trkpt lat="43.93664" lon="1.72421">
        <ele>239</ele>
        <time>2018-07-15T09:57:33Z</time>
      </trkpt>
      <trkpt lat="43.93667" lon="1.72416">
        <ele>239</ele>
        <time>2018-07-15T09:57:34Z</time>
      </trkpt>
      <trkpt lat="43.93671" lon="1.72411">
        <ele>240</ele>
        <time>2018-07-15T09:57:35Z</time>
      </trkpt>
      <trkpt lat="43.93675" lon="1.72406">
        <ele>240</ele>
        <time>2018-07-15T09:57:36Z</time>
      </trkpt>
      <trkpt lat="43.93679" lon="1.72404">
        <ele>240</ele>
        <time>2018-07-15T09:57:37Z</time>
      </trkpt>
      <trkpt lat="43.93684" lon="1.724">
        <ele>241</ele>
        <time>2018-07-15T09:57:38Z</time>
      </trkpt>
      <trkpt lat="43.93688" lon="1.72397">
        <ele>241</ele>
        <time>2018-07-15T09:57:39Z</time>
      </trkpt>
      <trkpt lat="43.93693" lon="1.72394">
        <ele>241</ele>
        <time>2018-07-15T09:57:40Z</time>
      </trkpt>
      <trkpt lat="43.93698" lon="1.72392">
        <ele>241</ele>
        <time>2018-07-15T09:57:41Z</time>
      </trkpt>
      <trkpt lat="43.93703" lon="1.72389">
        <ele>241</ele>
        <time>2018-07-15T09:57:42Z</time>
      </trkpt>
      <trkpt lat="43.93708" lon="1.72387">
        <ele>241</ele>
        <time>2018-07-15T09:57:43Z</time>
      </trkpt>
      <trkpt lat="43.93713" lon="1.72386">
        <ele>242</ele>
        <time>2018-07-15T09:57:44Z</time>
      </trkpt>
      <trkpt lat="43.93717" lon="1.72384">
        <ele>242</ele>
        <time>2018-07-15T09:57:45Z</time>
      </trkpt>
      <trkpt lat="43.93723" lon="1.72382">
        <ele>242</ele>
        <time>2018-07-15T09:57:46Z</time>
      </trkpt>
      <trkpt lat="43.93728" lon="1.7238">
        <ele>242</ele>
        <time>2018-07-15T09:57:47Z</time>
      </trkpt>
      <trkpt lat="43.93733" lon="1.72378">
        <ele>242</ele>
        <time>2018-07-15T09:57:48Z</time>
      </trkpt>
      <trkpt lat="43.93739" lon="1.72377">
        <ele>242</ele>
        <time>2018-07-15T09:57:49Z</time>
      </trkpt>
      <trkpt lat="43.93743" lon="1.72375">
        <ele>242</ele>
        <time>2018-07-15T09:57:50Z</time>
      </trkpt>
      <trkpt lat="43.93749" lon="1.72373">
        <ele>242</ele>
        <time>2018-07-15T09:57:51Z</time>
      </trkpt>
      <trkpt lat="43.93754" lon="1.72371">
        <ele>242</ele>
        <time>2018-07-15T09:57:52Z</time>
      </trkpt>
      <trkpt lat="43.9376" lon="1.72369">
        <ele>241</ele>
        <time>2018-07-15T09:57:53Z</time>
      </trkpt>
      <trkpt lat="43.93765" lon="1.72366">
        <ele>242</ele>
        <time>2018-07-15T09:57:54Z</time>
      </trkpt>
      <trkpt lat="43.93771" lon="1.72362">
        <ele>242</ele>
        <time>2018-07-15T09:57:55Z</time>
      </trkpt>
      <trkpt lat="43.93776" lon="1.72357">
        <ele>242</ele>
        <time>2018-07-15T09:57:56Z</time>
      </trkpt>
      <trkpt lat="43.93781" lon="1.72354">
        <ele>242</ele>
        <time>2018-07-15T09:57:57Z</time>
      </trkpt>
      <trkpt lat="43.93787" lon="1.72349">
        <ele>242</ele>
        <time>2018-07-15T09:57:58Z</time>
      </trkpt>
      <trkpt lat="43.93792" lon="1.72344">
        <ele>242</ele>
        <time>2018-07-15T09:57:59Z</time>
      </trkpt>
      <trkpt lat="43.93798" lon="1.72338">
        <ele>242</ele>
        <time>2018-07-15T09:58:00Z</time>
      </trkpt>
      <trkpt lat="43.93803" lon="1.72332">
        <ele>242</ele>
        <time>2018-07-15T09:58:01Z</time>
      </trkpt>
      <trkpt lat="43.93808" lon="1.72326">
        <ele>242</ele>
        <time>2018-07-15T09:58:02Z</time>
      </trkpt>
      <trkpt lat="43.93813" lon="1.7232">
        <ele>242</ele>
        <time>2018-07-15T09:58:03Z</time>
      </trkpt>
      <trkpt lat="43.93817" lon="1.72314">
        <ele>242</ele>
        <time>2018-07-15T09:58:04Z</time>
      </trkpt>
      <trkpt lat="43.93822" lon="1.72308">
        <ele>242</ele>
        <time>2018-07-15T09:58:05Z</time>
      </trkpt>
      <trkpt lat="43.93827" lon="1.72302">
        <ele>242</ele>
        <time>2018-07-15T09:58:06Z</time>
      </trkpt>
      <trkpt lat="43.93831" lon="1.72296">
        <ele>242</ele>
        <time>2018-07-15T09:58:07Z</time>
      </trkpt>
      <trkpt lat="43.93836" lon="1.72289">
        <ele>243</ele>
        <time>2018-07-15T09:58:08Z</time>
      </trkpt>
      <trkpt lat="43.9384" lon="1.72283">
        <ele>243</ele>
        <time>2018-07-15T09:58:09Z</time>
      </trkpt>
      <trkpt lat="43.93844" lon="1.72277">
        <ele>242</ele>
        <time>2018-07-15T09:58:10Z</time>
      </trkpt>
      <trkpt lat="43.93848" lon="1.7227">
        <ele>243</ele>
        <time>2018-07-15T09:58:11Z</time>
      </trkpt>
      <trkpt lat="43.93852" lon="1.72264">
        <ele>243</ele>
        <time>2018-07-15T09:58:12Z</time>
      </trkpt>
      <trkpt lat="43.93857" lon="1.72258">
        <ele>243</ele>
        <time>2018-07-15T09:58:13Z</time>
      </trkpt>
      <trkpt lat="43.93862" lon="1.72252">
        <ele>243</ele>
        <time>2018-07-15T09:58:14Z</time>
      </trkpt>
      <trkpt lat="43.93866" lon="1.72246">
        <ele>243</ele>
        <time>2018-07-15T09:58:15Z</time>
      </trkpt>
      <trkpt lat="43.93871" lon="1.72239">
        <ele>243</ele>
        <time>2018-07-15T09:58:16Z</time>
      </trkpt>
      <trkpt lat="43.93876" lon="1.72233">
        <ele>243</ele>
        <time>2018-07-15T09:58:17Z</time>
      </trkpt>
      <trkpt lat="43.93881" lon="1.72227">
        <ele>242</ele>
        <time>2018-07-15T09:58:18Z</time>
      </trkpt>
      <trkpt lat="43.93886" lon="1.72221">
        <ele>242</ele>
        <time>2018-07-15T09:58:19Z</time>
      </trkpt>
      <trkpt lat="43.93891" lon="1.72215">
        <ele>242</ele>
        <time>2018-07-15T09:58:20Z</time>
      </trkpt>
      <trkpt lat="43.93896" lon="1.72209">
        <ele>242</ele>
        <time>2018-07-15T09:58:21Z</time>
      </trkpt>
      <trkpt lat="43.93901" lon="1.72203">
        <ele>242</ele>
        <time>2018-07-15T09:58:22Z</time>
      </trkpt>
      <trkpt lat="43.93906" lon="1.72197">
        <ele>242</ele>
        <time>2018-07-15T09:58:23Z</time>
      </trkpt>
      <trkpt lat="43.93912" lon="1.72191">
        <ele>243</ele>
        <time>2018-07-15T09:58:24Z</time>
      </trkpt>
      <trkpt lat="43.93917" lon="1.72185">
        <ele>243</ele>
        <time>2018-07-15T09:58:25Z</time>
      </trkpt>
      <trkpt lat="43.93923" lon="1.72179">
        <ele>243</ele>
        <time>2018-07-15T09:58:26Z</time>
      </trkpt>
      <trkpt lat="43.93928" lon="1.72174">
        <ele>243</ele>
        <time>2018-07-15T09:58:27Z</time>
      </trkpt>
      <trkpt lat="43.93934" lon="1.72168">
        <ele>243</ele>
        <time>2018-07-15T09:58:28Z</time>
      </trkpt>
      <trkpt lat="43.93939" lon="1.72162">
        <ele>243</ele>
        <time>2018-07-15T09:58:29Z</time>
      </trkpt>
      <trkpt lat="43.93945" lon="1.72156">
        <ele>243</ele>
        <time>2018-07-15T09:58:30Z</time>
      </trkpt>
      <trkpt lat="43.93951" lon="1.72151">
        <ele>243</ele>
        <time>2018-07-15T09:58:31Z</time>
      </trkpt>
      <trkpt lat="43.93957" lon="1.72146">
        <ele>243</ele>
        <time>2018-07-15T09:58:32Z</time>
      </trkpt>
      <trkpt lat="43.93962" lon="1.7214">
        <ele>243</ele>
        <time>2018-07-15T09:58:33Z</time>
      </trkpt>
      <trkpt lat="43.93968" lon="1.72134">
        <ele>243</ele>
        <time>2018-07-15T09:58:34Z</time>
      </trkpt>
      <trkpt lat="43.93974" lon="1.72128">
        <ele>243</ele>
        <time>2018-07-15T09:58:35Z</time>
      </trkpt>
      <trkpt lat="43.9398" lon="1.72122">
        <ele>243</ele>
        <time>2018-07-15T09:58:36Z</time>
      </trkpt>
      <trkpt lat="43.93986" lon="1.72117">
        <ele>242</ele>
        <time>2018-07-15T09:58:37Z</time>
      </trkpt>
      <trkpt lat="43.93992" lon="1.72111">
        <ele>242</ele>
        <time>2018-07-15T09:58:38Z</time>
      </trkpt>
      <trkpt lat="43.93998" lon="1.72106">
        <ele>242</ele>
        <time>2018-07-15T09:58:39Z</time>
      </trkpt>
      <trkpt lat="43.94005" lon="1.72101">
        <ele>242</ele>
        <time>2018-07-15T09:58:40Z</time>
      </trkpt>
      <trkpt lat="43.94011" lon="1.72096">
        <ele>243</ele>
        <time>2018-07-15T09:58:41Z</time>
      </trkpt>
      <trkpt lat="43.94018" lon="1.72091">
        <ele>243</ele>
        <time>2018-07-15T09:58:42Z</time>
      </trkpt>
      <trkpt lat="43.94024" lon="1.72085">
        <ele>243</ele>
        <time>2018-07-15T09:58:43Z</time>
      </trkpt>
      <trkpt lat="43.9403" lon="1.7208">
        <ele>242</ele>
        <time>2018-07-15T09:58:44Z</time>
      </trkpt>
      <trkpt lat="43.94036" lon="1.72075">
        <ele>242</ele>
        <time>2018-07-15T09:58:45Z</time>
      </trkpt>
      <trkpt lat="43.94043" lon="1.72071">
        <ele>242</ele>
        <time>2018-07-15T09:58:46Z</time>
      </trkpt>
      <trkpt lat="43.94049" lon="1.72066">
        <ele>242</ele>
        <time>2018-07-15T09:58:47Z</time>
      </trkpt>
      <trkpt lat="43.94055" lon="1.72061">
        <ele>242</ele>
        <time>2018-07-15T09:58:48Z</time>
      </trkpt>
      <trkpt lat="43.94061" lon="1.72056">
        <ele>242</ele>
        <time>2018-07-15T09:58:49Z</time>
      </trkpt>
      <trkpt lat="43.94068" lon="1.72051">
        <ele>242</ele>
        <time>2018-07-15T09:58:50Z</time>
      </trkpt>
      <trkpt lat="43.94074" lon="1.72046">
        <ele>242</ele>
        <time>2018-07-15T09:58:51Z</time>
      </trkpt>
      <trkpt lat="43.9408" lon="1.72042">
        <ele>242</ele>
        <time>2018-07-15T09:58:52Z</time>
      </trkpt>
      <trkpt lat="43.94086" lon="1.72037">
        <ele>242</ele>
        <time>2018-07-15T09:58:53Z</time>
      </trkpt>
      <trkpt lat="43.94092" lon="1.72032">
        <ele>242</ele>
        <time>2018-07-15T09:58:54Z</time>
      </trkpt>
      <trkpt lat="43.94098" lon="1.72028">
        <ele>242</ele>
        <time>2018-07-15T09:58:55Z</time>
      </trkpt>
      <trkpt lat="43.94103" lon="1.72024">
        <ele>243</ele>
        <time>2018-07-15T09:58:56Z</time>
      </trkpt>
      <trkpt lat="43.94109" lon="1.7202">
        <ele>243</ele>
        <time>2018-07-15T09:58:57Z</time>
      </trkpt>
      <trkpt lat="43.94114" lon="1.72016">
        <ele>243</ele>
        <time>2018-07-15T09:58:58Z</time>
      </trkpt>
      <trkpt lat="43.94119" lon="1.72013">
        <ele>243</ele>
        <time>2018-07-15T09:58:59Z</time>
      </trkpt>
      <trkpt lat="43.94124" lon="1.72009">
        <ele>243</ele>
        <time>2018-07-15T09:59:00Z</time>
      </trkpt>
      <trkpt lat="43.94128" lon="1.72006">
        <ele>243</ele>
        <time>2018-07-15T09:59:01Z</time>
      </trkpt>
      <trkpt lat="43.94133" lon="1.72003">
        <ele>243</ele>
        <time>2018-07-15T09:59:02Z</time>
      </trkpt>
      <trkpt lat="43.94137" lon="1.72">
        <ele>243</ele>
        <time>2018-07-15T09:59:03Z</time>
      </trkpt>
      <trkpt lat="43.94142" lon="1.71997">
        <ele>244</ele>
        <time>2018-07-15T09:59:04Z</time>
      </trkpt>
      <trkpt lat="43.94145" lon="1.71994">
        <ele>244</ele>
        <time>2018-07-15T09:59:05Z</time>
      </trkpt>
      <trkpt lat="43.94149" lon="1.71992">
        <ele>244</ele>
        <time>2018-07-15T09:59:06Z</time>
      </trkpt>
      <trkpt lat="43.94153" lon="1.7199">
        <ele>244</ele>
        <time>2018-07-15T09:59:07Z</time>
      </trkpt>
      <trkpt lat="43.94156" lon="1.71987">
        <ele>244</ele>
        <time>2018-07-15T09:59:08Z</time>
      </trkpt>
      <trkpt lat="43.9416" lon="1.71985">
        <ele>244</ele>
        <time>2018-07-15T09:59:09Z</time>
      </trkpt>
      <trkpt lat="43.94163" lon="1.71983">
        <ele>244</ele>
        <time>2018-07-15T09:59:10Z</time>
      </trkpt>
      <trkpt lat="43.94166" lon="1.71982">
        <ele>244</ele>
        <time>2018-07-15T09:59:11Z</time>
      </trkpt>
      <trkpt lat="43.9417" lon="1.71982">
        <ele>244</ele>
        <time>2018-07-15T09:59:12Z</time>
      </trkpt>
      <trkpt lat="43.94173" lon="1.71983">
        <ele>245</ele>
        <time>2018-07-15T09:59:13Z</time>
      </trkpt>
      <trkpt lat="43.94176" lon="1.71987">
        <ele>245</ele>
        <time>2018-07-15T09:59:14Z</time>
      </trkpt>
      <trkpt lat="43.94178" lon="1.71992">
        <ele>245</ele>
        <time>2018-07-15T09:59:15Z</time>
      </trkpt>
      <trkpt lat="43.94179" lon="1.71998">
        <ele>244</ele>
        <time>2018-07-15T09:59:16Z</time>
      </trkpt>
      <trkpt lat="43.94181" lon="1.72004">
        <ele>244</ele>
        <time>2018-07-15T09:59:17Z</time>
      </trkpt>
      <trkpt lat="43.94182" lon="1.7201">
        <ele>244</ele>
        <time>2018-07-15T09:59:18Z</time>
      </trkpt>
      <trkpt lat="43.94184" lon="1.72017">
        <ele>244</ele>
        <time>2018-07-15T09:59:19Z</time>
      </trkpt>
      <trkpt lat="43.94186" lon="1.72025">
        <ele>243</ele>
        <time>2018-07-15T09:59:20Z</time>
      </trkpt>
      <trkpt lat="43.94187" lon="1.72032">
        <ele>243</ele>
        <time>2018-07-15T09:59:21Z</time>
      </trkpt>
      <trkpt lat="43.94188" lon="1.72039">
        <ele>243</ele>
        <time>2018-07-15T09:59:22Z</time>
      </trkpt>
      <trkpt lat="43.9419" lon="1.72047">
        <ele>242</ele>
        <time>2018-07-15T09:59:23Z</time>
      </trkpt>
      <trkpt lat="43.94192" lon="1.72055">
        <ele>242</ele>
        <time>2018-07-15T09:59:24Z</time>
      </trkpt>
      <trkpt lat="43.94194" lon="1.72063">
        <ele>242</ele>
        <time>2018-07-15T09:59:25Z</time>
      </trkpt>
      <trkpt lat="43.94196" lon="1.72071">
        <ele>242</ele>
        <time>2018-07-15T09:59:26Z</time>
      </trkpt>
      <trkpt lat="43.94198" lon="1.7208">
        <ele>242</ele>
        <time>2018-07-15T09:59:27Z</time>
      </trkpt>
      <trkpt lat="43.94201" lon="1.72088">
        <ele>241</ele>
        <time>2018-07-15T09:59:28Z</time>
      </trkpt>
      <trkpt lat="43.94203" lon="1.72097">
        <ele>241</ele>
        <time>2018-07-15T09:59:29Z</time>
      </trkpt>
      <trkpt lat="43.94205" lon="1.72105">
        <ele>241</ele>
        <time>2018-07-15T09:59:30Z</time>
      </trkpt>
      <trkpt lat="43.94207" lon="1.72114">
        <ele>241</ele>
        <time>2018-07-15T09:59:31Z</time>
      </trkpt>
      <trkpt lat="43.94209" lon="1.72122">
        <ele>241</ele>
        <time>2018-07-15T09:59:32Z</time>
      </trkpt>
      <trkpt lat="43.94211" lon="1.72131">
        <ele>241</ele>
        <time>2018-07-15T09:59:33Z</time>
      </trkpt>
      <trkpt lat="43.94212" lon="1.72139">
        <ele>241</ele>
        <time>2018-07-15T09:59:34Z</time>
      </trkpt>
      <trkpt lat="43.94215" lon="1.72148">
        <ele>241</ele>
        <time>2018-07-15T09:59:35Z</time>
      </trkpt>
      <trkpt lat="43.94217" lon="1.72156">
        <ele>241</ele>
        <time>2018-07-15T09:59:36Z</time>
      </trkpt>
      <trkpt lat="43.94219" lon="1.72165">
        <ele>241</ele>
        <time>2018-07-15T09:59:37Z</time>
      </trkpt>
      <trkpt lat="43.94221" lon="1.72173">
        <ele>241</ele>
        <time>2018-07-15T09:59:38Z</time>
      </trkpt>
      <trkpt lat="43.94224" lon="1.72182">
        <ele>241</ele>
        <time>2018-07-15T09:59:39Z</time>
      </trkpt>
      <trkpt lat="43.94226" lon="1.72191">
        <ele>241</ele>
        <time>2018-07-15T09:59:40Z</time>
      </trkpt>
      <trkpt lat="43.94228" lon="1.72201">
        <ele>240</ele>
        <time>2018-07-15T09:59:41Z</time>
      </trkpt>
      <trkpt lat="43.9423" lon="1.7221">
        <ele>240</ele>
        <time>2018-07-15T09:59:42Z</time>
      </trkpt>
      <trkpt lat="43.94232" lon="1.72219">
        <ele>240</ele>
        <time>2018-07-15T09:59:43Z</time>
      </trkpt>
      <trkpt lat="43.94234" lon="1.72228">
        <ele>240</ele>
        <time>2018-07-15T09:59:44Z</time>
      </trkpt>
      <trkpt lat="43.94236" lon="1.72237">
        <ele>240</ele>
        <time>2018-07-15T09:59:45Z</time>
      </trkpt>
      <trkpt lat="43.94238" lon="1.72247">
        <ele>240</ele>
        <time>2018-07-15T09:59:46Z</time>
      </trkpt>
      <trkpt lat="43.9424" lon="1.72256">
        <ele>240</ele>
        <time>2018-07-15T09:59:47Z</time>
      </trkpt>
      <trkpt lat="43.94241" lon="1.72266">
        <ele>241</ele>
        <time>2018-07-15T09:59:48Z</time>
      </trkpt>
      <trkpt lat="43.94242" lon="1.72276">
        <ele>241</ele>
        <time>2018-07-15T09:59:49Z</time>
      </trkpt>
      <trkpt lat="43.94243" lon="1.72286">
        <ele>240</ele>
        <time>2018-07-15T09:59:50Z</time>
      </trkpt>
      <trkpt lat="43.94243" lon="1.72296">
        <ele>240</ele>
        <time>2018-07-15T09:59:51Z</time>
      </trkpt>
      <trkpt lat="43.94242" lon="1.72307">
        <ele>240</ele>
        <time>2018-07-15T09:59:52Z</time>
      </trkpt>
      <trkpt lat="43.94241" lon="1.72317">
        <ele>240</ele>
        <time>2018-07-15T09:59:53Z</time>
      </trkpt>
      <trkpt lat="43.94241" lon="1.72327">
        <ele>240</ele>
        <time>2018-07-15T09:59:54Z</time>
      </trkpt>
      <trkpt lat="43.94239" lon="1.72337">
        <ele>240</ele>
        <time>2018-07-15T09:59:55Z</time>
      </trkpt>
      <trkpt lat="43.94238" lon="1.72347">
        <ele>240</ele>
        <time>2018-07-15T09:59:56Z</time>
      </trkpt>
      <trkpt lat="43.94236" lon="1.72356">
        <ele>240</ele>
        <time>2018-07-15T09:59:57Z</time>
      </trkpt>
      <trkpt lat="43.94235" lon="1.72366">
        <ele>240</ele>
        <time>2018-07-15T09:59:58Z</time>
      </trkpt>
      <trkpt lat="43.94234" lon="1.72375">
        <ele>240</ele>
        <time>2018-07-15T09:59:59Z</time>
      </trkpt>
      <trkpt lat="43.94232" lon="1.72384">
        <ele>240</ele>
        <time>2018-07-15T10:00:00Z</time>
      </trkpt>
      <trkpt lat="43.94231" lon="1.72394">
        <ele>240</ele>
        <time>2018-07-15T10:00:01Z</time>
      </trkpt>
      <trkpt lat="43.94229" lon="1.72404">
        <ele>240</ele>
        <time>2018-07-15T10:00:02Z</time>
      </trkpt>
      <trkpt lat="43.94228" lon="1.72413">
        <ele>240</ele>
        <time>2018-07-15T10:00:03Z</time>
      </trkpt>
      <trkpt lat="43.94226" lon="1.72422">
        <ele>240</ele>
        <time>2018-07-15T10:00:04Z</time>
      </trkpt>
      <trkpt lat="43.94224" lon="1.72431">
        <ele>240</ele>
        <time>2018-07-15T10:00:05Z</time>
      </trkpt>
      <trkpt lat="43.94223" lon="1.7244">
        <ele>240</ele>
        <time>2018-07-15T10:00:06Z</time>
      </trkpt>
      <trkpt lat="43.94222" lon="1.72449">
        <ele>240</ele>
        <time>2018-07-15T10:00:07Z</time>
      </trkpt>
      <trkpt lat="43.94221" lon="1.72459">
        <ele>240</ele>
        <time>2018-07-15T10:00:08Z</time>
      </trkpt>
      <trkpt lat="43.94221" lon="1.72468">
        <ele>240</ele>
        <time>2018-07-15T10:00:09Z</time>
      </trkpt>
      <trkpt lat="43.9422" lon="1.72477">
        <ele>240</ele>
        <time>2018-07-15T10:00:10Z</time>
      </trkpt>
      <trkpt lat="43.9422" lon="1.72487">
        <ele>240</ele>
        <time>2018-07-15T10:00:11Z</time>
      </trkpt>
      <trkpt lat="43.94221" lon="1.72496">
        <ele>240</ele>
        <time>2018-07-15T10:00:12Z</time>
      </trkpt>
      <trkpt lat="43.94222" lon="1.72506">
        <ele>239</ele>
        <time>2018-07-15T10:00:13Z</time>
      </trkpt>
      <trkpt lat="43.94223" lon="1.72516">
        <ele>239</ele>
        <time>2018-07-15T10:00:14Z</time>
      </trkpt>
      <trkpt lat="43.94224" lon="1.72525">
        <ele>239</ele>
        <time>2018-07-15T10:00:15Z</time>
      </trkpt>
      <trkpt lat="43.94225" lon="1.72534">
        <ele>239</ele>
        <time>2018-07-15T10:00:16Z</time>
      </trkpt>
      <trkpt lat="43.94225" lon="1.72544">
        <ele>240</ele>
        <time>2018-07-15T10:00:17Z</time>
      </trkpt>
      <trkpt lat="43.94225" lon="1.72554">
        <ele>239</ele>
        <time>2018-07-15T10:00:18Z</time>
      </trkpt>
      <trkpt lat="43.94224" lon="1.72564">
        <ele>240</ele>
        <time>2018-07-15T10:00:19Z</time>
      </trkpt>
      <trkpt lat="43.94223" lon="1.72574">
        <ele>240</ele>
        <time>2018-07-15T10:00:20Z</time>
      </trkpt>
      <trkpt lat="43.94222" lon="1.72583">
        <ele>240</ele>
        <time>2018-07-15T10:00:21Z</time>
      </trkpt>
      <trkpt lat="43.94222" lon="1.72593">
        <ele>239</ele>
        <time>2018-07-15T10:00:22Z</time>
      </trkpt>
      <trkpt lat="43.94221" lon="1.72603">
        <ele>239</ele>
        <time>2018-07-15T10:00:23Z</time>
      </trkpt>
      <trkpt lat="43.9422" lon="1.72612">
        <ele>239</ele>
        <time>2018-07-15T10:00:24Z</time>
      </trkpt>
      <trkpt lat="43.94219" lon="1.72622">
        <ele>239</ele>
        <time>2018-07-15T10:00:25Z</time>
      </trkpt>
      <trkpt lat="43.94218" lon="1.7263">
        <ele>239</ele>
        <time>2018-07-15T10:00:26Z</time>
      </trkpt>
      <trkpt lat="43.94217" lon="1.72639">
        <ele>239</ele>
        <time>2018-07-15T10:00:27Z</time>
      </trkpt>
      <trkpt lat="43.94216" lon="1.72647">
        <ele>239</ele>
        <time>2018-07-15T10:00:28Z</time>
      </trkpt>
      <trkpt lat="43.94215" lon="1.72656">
        <ele>240</ele>
        <time>2018-07-15T10:00:29Z</time>
      </trkpt>
      <trkpt lat="43.94214" lon="1.72664">
        <ele>240</ele>
        <time>2018-07-15T10:00:30Z</time>
      </trkpt>
      <trkpt lat="43.94214" lon="1.72673">
        <ele>240</ele>
        <time>2018-07-15T10:00:31Z</time>
      </trkpt>
      <trkpt lat="43.94213" lon="1.72682">
        <ele>240</ele>
        <time>2018-07-15T10:00:32Z</time>
      </trkpt>
      <trkpt lat="43.94211" lon="1.7269">
        <ele>240</ele>
        <time>2018-07-15T10:00:33Z</time>
      </trkpt>
      <trkpt lat="43.9421" lon="1.72699">
        <ele>240</ele>
        <time>2018-07-15T10:00:34Z</time>
      </trkpt>
      <trkpt lat="43.94208" lon="1.72707">
        <ele>240</ele>
        <time>2018-07-15T10:00:35Z</time>
      </trkpt>
      <trkpt lat="43.94207" lon="1.72716">
        <ele>240</ele>
        <time>2018-07-15T10:00:36Z</time>
      </trkpt>
      <trkpt lat="43.94204" lon="1.72724">
        <ele>240</ele>
        <time>2018-07-15T10:00:37Z</time>
      </trkpt>
      <trkpt lat="43.94202" lon="1.72732">
        <ele>240</ele>
        <time>2018-07-15T10:00:38Z</time>
      </trkpt>
      <trkpt lat="43.94199" lon="1.72741">
        <ele>240</ele>
        <time>2018-07-15T10:00:39Z</time>
      </trkpt>
      <trkpt lat="43.94196" lon="1.72749">
        <ele>240</ele>
        <time>2018-07-15T10:00:40Z</time>
      </trkpt>
      <trkpt lat="43.94193" lon="1.72757">
        <ele>240</ele>
        <time>2018-07-15T10:00:41Z</time>
      </trkpt>
      <trkpt lat="43.9419" lon="1.72765">
        <ele>240</ele>
        <time>2018-07-15T10:00:42Z</time>
      </trkpt>
      <trkpt lat="43.94188" lon="1.72773">
        <ele>240</ele>
        <time>2018-07-15T10:00:43Z</time>
      </trkpt>
      <trkpt lat="43.94185" lon="1.7278">
        <ele>240</ele>
        <time>2018-07-15T10:00:44Z</time>
      </trkpt>
      <trkpt lat="43.94183" lon="1.72788">
        <ele>240</ele>
        <time>2018-07-15T10:00:45Z</time>
      </trkpt>
      <trkpt lat="43.9418" lon="1.72796">
        <ele>240</ele>
        <time>2018-07-15T10:00:46Z</time>
      </trkpt>
      <trkpt lat="43.94177" lon="1.72803">
        <ele>240</ele>
        <time>2018-07-15T10:00:47Z</time>
      </trkpt>
      <trkpt lat="43.94175" lon="1.72811">
        <ele>240</ele>
        <time>2018-07-15T10:00:48Z</time>
      </trkpt>
      <trkpt lat="43.94172" lon="1.72819">
        <ele>240</ele>
        <time>2018-07-15T10:00:49Z</time>
      </trkpt>
      <trkpt lat="43.94169" lon="1.72827">
        <ele>241</ele>
        <time>2018-07-15T10:00:50Z</time>
      </trkpt>
      <trkpt lat="43.94166" lon="1.72835">
        <ele>241</ele>
        <time>2018-07-15T10:00:51Z</time>
      </trkpt>
      <trkpt lat="43.94163" lon="1.72842">
        <ele>241</ele>
        <time>2018-07-15T10:00:52Z</time>
      </trkpt>
      <trkpt lat="43.94161" lon="1.7285">
        <ele>240</ele>
        <time>2018-07-15T10:00:53Z</time>
      </trkpt>
      <trkpt lat="43.94158" lon="1.72857">
        <ele>240</ele>
        <time>2018-07-15T10:00:54Z</time>
      </trkpt>
      <trkpt lat="43.94155" lon="1.72866">
        <ele>240</ele>
        <time>2018-07-15T10:00:55Z</time>
      </trkpt>
      <trkpt lat="43.94152" lon="1.72874">
        <ele>240</ele>
        <time>2018-07-15T10:00:56Z</time>
      </trkpt>
      <trkpt lat="43.9415" lon="1.72883">
        <ele>240</ele>
        <time>2018-07-15T10:00:57Z</time>
      </trkpt>
      <trkpt lat="43.94147" lon="1.72891">
        <ele>240</ele>
        <time>2018-07-15T10:00:58Z</time>
      </trkpt>
      <trkpt lat="43.94145" lon="1.72899">
        <ele>239</ele>
        <time>2018-07-15T10:00:59Z</time>
      </trkpt>
      <trkpt lat="43.94143" lon="1.72907">
        <ele>239</ele>
        <time>2018-07-15T10:01:00Z</time>
      </trkpt>
      <trkpt lat="43.94141" lon="1.72915">
        <ele>239</ele>
        <time>2018-07-15T10:01:01Z</time>
      </trkpt>
      <trkpt lat="43.94139" lon="1.72924">
        <ele>239</ele>
        <time>2018-07-15T10:01:02Z</time>
      </trkpt>
      <trkpt lat="43.94136" lon="1.72932">
        <ele>239</ele>
        <time>2018-07-15T10:01:03Z</time>
      </trkpt>
      <trkpt lat="43.94134" lon="1.7294">
        <ele>239</ele>
        <time>2018-07-15T10:01:04Z</time>
      </trkpt>
      <trkpt lat="43.94132" lon="1.72949">
        <ele>239</ele>
        <time>2018-07-15T10:01:05Z</time>
      </trkpt>
      <trkpt lat="43.9413" lon="1.72957">
        <ele>239</ele>
        <time>2018-07-15T10:01:06Z</time>
      </trkpt>
      <trkpt lat="43.94128" lon="1.72965">
        <ele>239</ele>
        <time>2018-07-15T10:01:07Z</time>
      </trkpt>
      <trkpt lat="43.94126" lon="1.72974">
        <ele>239</ele>
        <time>2018-07-15T10:01:08Z</time>
      </trkpt>
      <trkpt lat="43.94124" lon="1.72982">
        <ele>239</ele>
        <time>2018-07-15T10:01:09Z</time>
      </trkpt>
      <trkpt lat="43.94122" lon="1.7299">
        <ele>239</ele>
        <time>2018-07-15T10:01:10Z</time>
      </trkpt>
      <trkpt lat="43.9412" lon="1.72998">
        <ele>239</ele>
        <time>2018-07-15T10:01:11Z</time>
      </trkpt>
      <trkpt lat="43.94118" lon="1.73007">
        <ele>239</ele>
        <time>2018-07-15T10:01:12Z</time>
      </trkpt>
      <trkpt lat="43.94117" lon="1.73015">
        <ele>239</ele>
        <time>2018-07-15T10:01:13Z</time>
      </trkpt>
      <trkpt lat="43.94115" lon="1.73023">
        <ele>239</ele>
        <time>2018-07-15T10:01:14Z</time>
      </trkpt>
      <trkpt lat="43.94113" lon="1.73031">
        <ele>239</ele>
        <time>2018-07-15T10:01:15Z</time>
      </trkpt>
      <trkpt lat="43.94111" lon="1.73039">
        <ele>239</ele>
        <time>2018-07-15T10:01:16Z</time>
      </trkpt>
      <trkpt lat="43.94109" lon="1.73048">
        <ele>239</ele>
        <time>2018-07-15T10:01:17Z</time>
      </trkpt>
      <trkpt lat="43.94107" lon="1.73056">
        <ele>239</ele>
        <time>2018-07-15T10:01:18Z</time>
      </trkpt>
      <trkpt lat="43.94104" lon="1.73065">
        <ele>239</ele>
        <time>2018-07-15T10:01:19Z</time>
      </trkpt>
      <trkpt lat="43.94102" lon="1.73073">
        <ele>239</ele>
        <time>2018-07-15T10:01:20Z</time>
      </trkpt>
      <trkpt lat="43.94099" lon="1.73081">
        <ele>239</ele>
        <time>2018-07-15T10:01:21Z</time>
      </trkpt>
      <trkpt lat="43.94095" lon="1.73089">
        <ele>239</ele>
        <time>2018-07-15T10:01:22Z</time>
      </trkpt>
      <trkpt lat="43.94091" lon="1.73096">
        <ele>239</ele>
        <time>2018-07-15T10:01:23Z</time>
      </trkpt>
      <trkpt lat="43.94087" lon="1.73103">
        <ele>239</ele>
        <time>2018-07-15T10:01:24Z</time>
      </trkpt>
      <trkpt lat="43.94082" lon="1.73109">
        <ele>239</ele>
        <time>2018-07-15T10:01:25Z</time>
      </trkpt>
      <trkpt lat="43.94078" lon="1.73116">
        <ele>239</ele>
        <time>2018-07-15T10:01:26Z</time>
      </trkpt>
      <trkpt lat="43.94073" lon="1.73123">
        <ele>239</ele>
        <time>2018-07-15T10:01:27Z</time>
      </trkpt>
      <trkpt lat="43.94068" lon="1.73129">
        <ele>239</ele>
        <time>2018-07-15T10:01:28Z</time>
      </trkpt>
      <trkpt lat="43.94063" lon="1.73135">
        <ele>239</ele>
        <time>2018-07-15T10:01:29Z</time>
      </trkpt>
      <trkpt lat="43.94059" lon="1.73141">
        <ele>239</ele>
        <time>2018-07-15T10:01:30Z</time>
      </trkpt>
      <trkpt lat="43.94055" lon="1.73147">
        <ele>239</ele>
        <time>2018-07-15T10:01:31Z</time>
      </trkpt>
      <trkpt lat="43.94051" lon="1.73154">
        <ele>239</ele>
        <time>2018-07-15T10:01:32Z</time>
      </trkpt>
      <trkpt lat="43.94046" lon="1.7316">
        <ele>239</ele>
        <time>2018-07-15T10:01:33Z</time>
      </trkpt>
      <trkpt lat="43.94042" lon="1.73167">
        <ele>240</ele>
        <time>2018-07-15T10:01:34Z</time>
      </trkpt>
      <trkpt lat="43.94038" lon="1.73175">
        <ele>240</ele>
        <time>2018-07-15T10:01:35Z</time>
      </trkpt>
      <trkpt lat="43.94034" lon="1.73181">
        <ele>240</ele>
        <time>2018-07-15T10:01:36Z</time>
      </trkpt>
      <trkpt lat="43.94031" lon="1.73188">
        <ele>240</ele>
        <time>2018-07-15T10:01:37Z</time>
      </trkpt>
      <trkpt lat="43.94028" lon="1.73196">
        <ele>240</ele>
        <time>2018-07-15T10:01:38Z</time>
      </trkpt>
      <trkpt lat="43.94026" lon="1.73204">
        <ele>240</ele>
        <time>2018-07-15T10:01:39Z</time>
      </trkpt>
      <trkpt lat="43.94024" lon="1.73213">
        <ele>240</ele>
        <time>2018-07-15T10:01:40Z</time>
      </trkpt>
      <trkpt lat="43.94021" lon="1.73221">
        <ele>240</ele>
        <time>2018-07-15T10:01:41Z</time>
      </trkpt>
      <trkpt lat="43.9402" lon="1.7323">
        <ele>240</ele>
        <time>2018-07-15T10:01:42Z</time>
      </trkpt>
      <trkpt lat="43.94018" lon="1.73239">
        <ele>240</ele>
        <time>2018-07-15T10:01:43Z</time>
      </trkpt>
      <trkpt lat="43.94016" lon="1.73248">
        <ele>239</ele>
        <time>2018-07-15T10:01:44Z</time>
      </trkpt>
      <trkpt lat="43.94013" lon="1.73257">
        <ele>239</ele>
        <time>2018-07-15T10:01:45Z</time>
      </trkpt>
      <trkpt lat="43.94012" lon="1.73266">
        <ele>239</ele>
        <time>2018-07-15T10:01:46Z</time>
      </trkpt>
      <trkpt lat="43.9401" lon="1.73275">
        <ele>240</ele>
        <time>2018-07-15T10:01:47Z</time>
      </trkpt>
      <trkpt lat="43.94009" lon="1.73285">
        <ele>240</ele>
        <time>2018-07-15T10:01:48Z</time>
      </trkpt>
      <trkpt lat="43.94007" lon="1.73293">
        <ele>240</ele>
        <time>2018-07-15T10:01:49Z</time>
      </trkpt>
      <trkpt lat="43.94006" lon="1.73302">
        <ele>240</ele>
        <time>2018-07-15T10:01:50Z</time>
      </trkpt>
      <trkpt lat="43.94006" lon="1.73311">
        <ele>240</ele>
        <time>2018-07-15T10:01:51Z</time>
      </trkpt>
      <trkpt lat="43.94005" lon="1.7332">
        <ele>240</ele>
        <time>2018-07-15T10:01:52Z</time>
      </trkpt>
      <trkpt lat="43.94004" lon="1.73329">
        <ele>240</ele>
        <time>2018-07-15T10:01:53Z</time>
      </trkpt>
      <trkpt lat="43.94004" lon="1.73337">
        <ele>240</ele>
        <time>2018-07-15T10:01:54Z</time>
      </trkpt>
      <trkpt lat="43.94004" lon="1.73347">
        <ele>239</ele>
        <time>2018-07-15T10:01:55Z</time>
      </trkpt>
      <trkpt lat="43.94003" lon="1.73356">
        <ele>239</ele>
        <time>2018-07-15T10:01:56Z</time>
      </trkpt>
      <trkpt lat="43.94003" lon="1.73365">
        <ele>239</ele>
        <time>2018-07-15T10:01:57Z</time>
      </trkpt>
      <trkpt lat="43.94003" lon="1.73375">
        <ele>239</ele>
        <time>2018-07-15T10:01:58Z</time>
      </trkpt>
      <trkpt lat="43.94003" lon="1.73384">
        <ele>239</ele>
        <time>2018-07-15T10:01:59Z</time>
      </trkpt>
      <trkpt lat="43.94003" lon="1.73393">
        <ele>239</ele>
        <time>2018-07-15T10:02:00Z</time>
      </trkpt>
      <trkpt lat="43.94003" lon="1.73402">
        <ele>239</ele>
        <time>2018-07-15T10:02:01Z</time>
      </trkpt>
      <trkpt lat="43.94003" lon="1.73411">
        <ele>239</ele>
        <time>2018-07-15T10:02:02Z</time>
      </trkpt>
      <trkpt lat="43.94004" lon="1.7342">
        <ele>239</ele>
        <time>2018-07-15T10:02:03Z</time>
      </trkpt>
      <trkpt lat="43.94004" lon="1.7343">
        <ele>239</ele>
        <time>2018-07-15T10:02:04Z</time>
      </trkpt>
      <trkpt lat="43.94004" lon="1.73439">
        <ele>239</ele>
        <time>2018-07-15T10:02:05Z</time>
      </trkpt>
      <trkpt lat="43.94005" lon="1.73449">
        <ele>239</ele>
        <time>2018-07-15T10:02:06Z</time>
      </trkpt>
      <trkpt lat="43.94005" lon="1.73458">
        <ele>239</ele>
        <time>2018-07-15T10:02:07Z</time>
      </trkpt>
      <trkpt lat="43.94006" lon="1.73467">
        <ele>239</ele>
        <time>2018-07-15T10:02:08Z</time>
      </trkpt>
      <trkpt lat="43.94007" lon="1.73476">
        <ele>239</ele>
        <time>2018-07-15T10:02:09Z</time>
      </trkpt>
      <trkpt lat="43.94009" lon="1.73485">
        <ele>239</ele>
        <time>2018-07-15T10:02:10Z</time>
      </trkpt>
      <trkpt lat="43.94011" lon="1.73494">
        <ele>239</ele>
        <time>2018-07-15T10:02:11Z</time>
      </trkpt>
      <trkpt lat="43.94014" lon="1.73503">
        <ele>239</ele>
        <time>2018-07-15T10:02:12Z</time>
      </trkpt>
      <trkpt lat="43.94016" lon="1.73512">
        <ele>239</ele>
        <time>2018-07-15T10:02:13Z</time>
      </trkpt>
      <trkpt lat="43.94017" lon="1.73521">
        <ele>239</ele>
        <time>2018-07-15T10:02:14Z</time>
      </trkpt>
      <trkpt lat="43.94019" lon="1.73529">
        <ele>239</ele>
        <time>2018-07-15T10:02:15Z</time>
      </trkpt>
      <trkpt lat="43.94021" lon="1.73537">
        <ele>239</ele>
        <time>2018-07-15T10:02:16Z</time>
      </trkpt>
      <trkpt lat="43.94021" lon="1.73545">
        <ele>239</ele>
        <time>2018-07-15T10:02:17Z</time>
      </trkpt>
      <trkpt lat="43.94023" lon="1.73553">
        <ele>240</ele>
        <time>2018-07-15T10:02:18Z</time>
      </trkpt>
      <trkpt lat="43.94024" lon="1.73562">
        <ele>240</ele>
        <time>2018-07-15T10:02:19Z</time>
      </trkpt>
      <trkpt lat="43.94025" lon="1.73571">
        <ele>240</ele>
        <time>2018-07-15T10:02:20Z</time>
      </trkpt>
      <trkpt lat="43.94026" lon="1.73579">
        <ele>240</ele>
        <time>2018-07-15T10:02:21Z</time>
      </trkpt>
      <trkpt lat="43.94028" lon="1.73587">
        <ele>240</ele>
        <time>2018-07-15T10:02:22Z</time>
      </trkpt>
      <trkpt lat="43.94029" lon="1.73594">
        <ele>240</ele>
        <time>2018-07-15T10:02:23Z</time>
      </trkpt>
      <trkpt lat="43.94031" lon="1.73602">
        <ele>240</ele>
        <time>2018-07-15T10:02:24Z</time>
      </trkpt>
      <trkpt lat="43.94032" lon="1.7361">
        <ele>240</ele>
        <time>2018-07-15T10:02:25Z</time>
      </trkpt>
      <trkpt lat="43.94033" lon="1.73618">
        <ele>241</ele>
        <time>2018-07-15T10:02:26Z</time>
      </trkpt>
      <trkpt lat="43.94035" lon="1.73626">
        <ele>241</ele>
        <time>2018-07-15T10:02:27Z</time>
      </trkpt>
      <trkpt lat="43.94036" lon="1.73634">
        <ele>241</ele>
        <time>2018-07-15T10:02:28Z</time>
      </trkpt>
      <trkpt lat="43.94037" lon="1.73642">
        <ele>241</ele>
        <time>2018-07-15T10:02:29Z</time>
      </trkpt>
      <trkpt lat="43.94039" lon="1.7365">
        <ele>241</ele>
        <time>2018-07-15T10:02:30Z</time>
      </trkpt>
      <trkpt lat="43.9404" lon="1.73658">
        <ele>241</ele>
        <time>2018-07-15T10:02:31Z</time>
      </trkpt>
      <trkpt lat="43.94043" lon="1.73667">
        <ele>240</ele>
        <time>2018-07-15T10:02:32Z</time>
      </trkpt>
      <trkpt lat="43.94044" lon="1.73676">
        <ele>240</ele>
        <time>2018-07-15T10:02:33Z</time>
      </trkpt>
      <trkpt lat="43.94046" lon="1.73684">
        <ele>240</ele>
        <time>2018-07-15T10:02:34Z</time>
      </trkpt>
      <trkpt lat="43.94049" lon="1.73694">
        <ele>240</ele>
        <time>2018-07-15T10:02:35Z</time>
      </trkpt>
      <trkpt lat="43.9405" lon="1.73703">
        <ele>239</ele>
        <time>2018-07-15T10:02:36Z</time>
      </trkpt>
      <trkpt lat="43.94053" lon="1.73713">
        <ele>239</ele>
        <time>2018-07-15T10:02:37Z</time>
      </trkpt>
      <trkpt lat="43.94055" lon="1.73722">
        <ele>239</ele>
        <time>2018-07-15T10:02:38Z</time>
      </trkpt>
      <trkpt lat="43.94056" lon="1.73732">
        <ele>239</ele>
        <time>2018-07-15T10:02:39Z</time>
      </trkpt>
      <trkpt lat="43.94056" lon="1.73742">
        <ele>239</ele>
        <time>2018-07-15T10:02:40Z</time>
      </trkpt>
      <trkpt lat="43.94057" lon="1.73751">
        <ele>239</ele>
        <time>2018-07-15T10:02:41Z</time>
      </trkpt>
      <trkpt lat="43.94056" lon="1.7376">
        <ele>239</ele>
        <time>2018-07-15T10:02:42Z</time>
      </trkpt>
      <trkpt lat="43.94056" lon="1.73769">
        <ele>239</ele>
        <time>2018-07-15T10:02:43Z</time>
      </trkpt>
      <trkpt lat="43.94055" lon="1.73777">
        <ele>240</ele>
        <time>2018-07-15T10:02:44Z</time>
      </trkpt>
      <trkpt lat="43.94054" lon="1.73786">
        <ele>240</ele>
        <time>2018-07-15T10:02:45Z</time>
      </trkpt>
      <trkpt lat="43.94054" lon="1.73794">
        <ele>240</ele>
        <time>2018-07-15T10:02:46Z</time>
      </trkpt>
      <trkpt lat="43.94054" lon="1.73803">
        <ele>240</ele>
        <time>2018-07-15T10:02:47Z</time>
      </trkpt>
      <trkpt lat="43.94053" lon="1.73812">
        <ele>239</ele>
        <time>2018-07-15T10:02:48Z</time>
      </trkpt>
      <trkpt lat="43.94052" lon="1.73821">
        <ele>240</ele>
        <time>2018-07-15T10:02:49Z</time>
      </trkpt>
      <trkpt lat="43.94051" lon="1.73829">
        <ele>240</ele>
        <time>2018-07-15T10:02:50Z</time>
      </trkpt>
      <trkpt lat="43.94049" lon="1.73837">
        <ele>240</ele>
        <time>2018-07-15T10:02:51Z</time>
      </trkpt>
      <trkpt lat="43.94048" lon="1.73845">
        <ele>240</ele>
        <time>2018-07-15T10:02:52Z</time>
      </trkpt>
      <trkpt lat="43.94046" lon="1.73853">
        <ele>240</ele>
        <time>2018-07-15T10:02:53Z</time>
      </trkpt>
      <trkpt lat="43.94046" lon="1.73861">
        <ele>240</ele>
        <time>2018-07-15T10:02:54Z</time>
      </trkpt>
      <trkpt lat="43.94045" lon="1.73869">
        <ele>240</ele>
        <time>2018-07-15T10:02:55Z</time>
      </trkpt>
      <trkpt lat="43.94044" lon="1.73877">
        <ele>240</ele>
        <time>2018-07-15T10:02:56Z</time>
      </trkpt>
      <trkpt lat="43.94044" lon="1.73885">
        <ele>241</ele>
        <time>2018-07-15T10:02:57Z</time>
      </trkpt>
      <trkpt lat="43.94043" lon="1.73894">
        <ele>241</ele>
        <time>2018-07-15T10:02:58Z</time>
      </trkpt>
      <trkpt lat="43.94041" lon="1.73903">
        <ele>241</ele>
        <time>2018-07-15T10:02:59Z</time>
      </trkpt>
      <trkpt lat="43.9404" lon="1.73911">
        <ele>241</ele>
        <time>2018-07-15T10:03:00Z</time>
      </trkpt>
      <trkpt lat="43.94038" lon="1.7392">
        <ele>241</ele>
        <time>2018-07-15T10:03:01Z</time>
      </trkpt>
      <trkpt lat="43.94037" lon="1.73929">
        <ele>241</ele>
        <time>2018-07-15T10:03:02Z</time>
      </trkpt>
      <trkpt lat="43.94036" lon="1.73938">
        <ele>241</ele>
        <time>2018-07-15T10:03:03Z</time>
      </trkpt>
      <trkpt lat="43.94035" lon="1.73946">
        <ele>241</ele>
        <time>2018-07-15T10:03:04Z</time>
      </trkpt>
      <trkpt lat="43.94035" lon="1.73954">
        <ele>241</ele>
        <time>2018-07-15T10:03:05Z</time>
      </trkpt>
      <trkpt lat="43.94034" lon="1.73963">
        <ele>241</ele>
        <time>2018-07-15T10:03:06Z</time>
      </trkpt>
      <trkpt lat="43.94033" lon="1.73972">
        <ele>240</ele>
        <time>2018-07-15T10:03:07Z</time>
      </trkpt>
      <trkpt lat="43.94032" lon="1.73981">
        <ele>241</ele>
        <time>2018-07-15T10:03:08Z</time>
      </trkpt>
      <trkpt lat="43.94031" lon="1.7399">
        <ele>240</ele>
        <time>2018-07-15T10:03:09Z</time>
      </trkpt>
      <trkpt lat="43.94031" lon="1.73999">
        <ele>240</ele>
        <time>2018-07-15T10:03:10Z</time>
      </trkpt>
      <trkpt lat="43.94031" lon="1.74008">
        <ele>240</ele>
        <time>2018-07-15T10:03:11Z</time>
      </trkpt>
      <trkpt lat="43.9403" lon="1.74017">
        <ele>240</ele>
        <time>2018-07-15T10:03:12Z</time>
      </trkpt>
      <trkpt lat="43.9403" lon="1.74027">
        <ele>240</ele>
        <time>2018-07-15T10:03:13Z</time>
      </trkpt>
      <trkpt lat="43.94031" lon="1.74036">
        <ele>240</ele>
        <time>2018-07-15T10:03:14Z</time>
      </trkpt>
      <trkpt lat="43.94031" lon="1.74046">
        <ele>240</ele>
        <time>2018-07-15T10:03:15Z</time>
      </trkpt>
      <trkpt lat="43.94032" lon="1.74055">
        <ele>240</ele>
        <time>2018-07-15T10:03:16Z</time>
      </trkpt>
      <trkpt lat="43.94032" lon="1.74065">
        <ele>240</ele>
        <time>2018-07-15T10:03:17Z</time>
      </trkpt>
      <trkpt lat="43.94033" lon="1.74074">
        <ele>240</ele>
        <time>2018-07-15T10:03:18Z</time>
      </trkpt>
      <trkpt lat="43.94033" lon="1.74084">
        <ele>239</ele>
        <time>2018-07-15T10:03:19Z</time>
      </trkpt>
      <trkpt lat="43.94034" lon="1.74093">
        <ele>239</ele>
        <time>2018-07-15T10:03:20Z</time>
      </trkpt>
      <trkpt lat="43.94034" lon="1.74102">
        <ele>239</ele>
        <time>2018-07-15T10:03:21Z</time>
      </trkpt>
      <trkpt lat="43.94034" lon="1.74111">
        <ele>239</ele>
        <time>2018-07-15T10:03:22Z</time>
      </trkpt>
      <trkpt lat="43.94033" lon="1.7412">
        <ele>239</ele>
        <time>2018-07-15T10:03:23Z</time>
      </trkpt>
      <trkpt lat="43.94033" lon="1.74129">
        <ele>239</ele>
        <time>2018-07-15T10:03:24Z</time>
      </trkpt>
      <trkpt lat="43.94031" lon="1.74138">
        <ele>240</ele>
        <time>2018-07-15T10:03:25Z</time>
      </trkpt>
      <trkpt lat="43.9403" lon="1.74147">
        <ele>240</ele>
        <time>2018-07-15T10:03:26Z</time>
      </trkpt>
      <trkpt lat="43.94029" lon="1.74156">
        <ele>240</ele>
        <time>2018-07-15T10:03:27Z</time>
      </trkpt>
      <trkpt lat="43.94028" lon="1.74164">
        <ele>240</ele>
        <time>2018-07-15T10:03:28Z</time>
      </trkpt>
      <trkpt lat="43.94027" lon="1.74173">
        <ele>240</ele>
        <time>2018-07-15T10:03:29Z</time>
      </trkpt>
      <trkpt lat="43.94025" lon="1.74181">
        <ele>240</ele>
        <time>2018-07-15T10:03:30Z</time>
      </trkpt>
      <trkpt lat="43.94024" lon="1.74189">
        <ele>241</ele>
        <time>2018-07-15T10:03:31Z</time>
      </trkpt>
      <trkpt lat="43.94022" lon="1.74197">
        <ele>241</ele>
        <time>2018-07-15T10:03:32Z</time>
      </trkpt>
      <trkpt lat="43.9402" lon="1.74204">
        <ele>241</ele>
        <time>2018-07-15T10:03:33Z</time>
      </trkpt>
      <trkpt lat="43.94019" lon="1.74212">
        <ele>241</ele>
        <time>2018-07-15T10:03:34Z</time>
      </trkpt>
      <trkpt lat="43.94017" lon="1.7422">
        <ele>241</ele>
        <time>2018-07-15T10:03:35Z</time>
      </trkpt>
      <trkpt lat="43.94015" lon="1.74227">
        <ele>241</ele>
        <time>2018-07-15T10:03:36Z</time>
      </trkpt>
      <trkpt lat="43.94014" lon="1.74234">
        <ele>241</ele>
        <time>2018-07-15T10:03:37Z</time>
      </trkpt>
      <trkpt lat="43.94014" lon="1.74242">
        <ele>242</ele>
        <time>2018-07-15T10:03:38Z</time>
      </trkpt>
      <trkpt lat="43.94013" lon="1.74248">
        <ele>242</ele>
        <time>2018-07-15T10:03:39Z</time>
      </trkpt>
      <trkpt lat="43.94013" lon="1.74254">
        <ele>243</ele>
        <time>2018-07-15T10:03:40Z</time>
      </trkpt>
      <trkpt lat="43.94012" lon="1.7426">
        <ele>243</ele>
        <time>2018-07-15T10:03:41Z</time>
      </trkpt>
      <trkpt lat="43.94011" lon="1.74266">
        <ele>243</ele>
        <time>2018-07-15T10:03:42Z</time>
      </trkpt>
      <trkpt lat="43.9401" lon="1.74272">
        <ele>243</ele>
        <time>2018-07-15T10:03:43Z</time>
      </trkpt>
      <trkpt lat="43.94008" lon="1.74279">
        <ele>243</ele>
        <time>2018-07-15T10:03:44Z</time>
      </trkpt>
      <trkpt lat="43.94007" lon="1.74285">
        <ele>243</ele>
        <time>2018-07-15T10:03:45Z</time>
      </trkpt>
      <trkpt lat="43.94005" lon="1.74292">
        <ele>243</ele>
        <time>2018-07-15T10:03:46Z</time>
      </trkpt>
      <trkpt lat="43.94004" lon="1.74299">
        <ele>243</ele>
        <time>2018-07-15T10:03:47Z</time>
      </trkpt>
      <trkpt lat="43.94001" lon="1.74306">
        <ele>244</ele>
        <time>2018-07-15T10:03:48Z</time>
      </trkpt>
      <trkpt lat="43.93999" lon="1.74313">
        <ele>244</ele>
        <time>2018-07-15T10:03:49Z</time>
      </trkpt>
      <trkpt lat="43.93996" lon="1.7432">
        <ele>244</ele>
        <time>2018-07-15T10:03:50Z</time>
      </trkpt>
      <trkpt lat="43.93994" lon="1.74326">
        <ele>244</ele>
        <time>2018-07-15T10:03:51Z</time>
      </trkpt>
      <trkpt lat="43.93992" lon="1.74332">
        <ele>245</ele>
        <time>2018-07-15T10:03:52Z</time>
      </trkpt>
      <trkpt lat="43.93989" lon="1.74337">
        <ele>245</ele>
        <time>2018-07-15T10:03:53Z</time>
      </trkpt>
      <trkpt lat="43.93987" lon="1.74342">
        <ele>245</ele>
        <time>2018-07-15T10:03:54Z</time>
      </trkpt>
      <trkpt lat="43.93984" lon="1.74349">
        <ele>245</ele>
        <time>2018-07-15T10:03:55Z</time>
      </trkpt>
      <trkpt lat="43.93981" lon="1.74355">
        <ele>245</ele>
        <time>2018-07-15T10:03:56Z</time>
      </trkpt>
      <trkpt lat="43.93979" lon="1.7436">
        <ele>245</ele>
        <time>2018-07-15T10:03:57Z</time>
      </trkpt>
      <trkpt lat="43.93977" lon="1.74366">
        <ele>245</ele>
        <time>2018-07-15T10:03:58Z</time>
      </trkpt>
      <trkpt lat="43.93974" lon="1.74372">
        <ele>245</ele>
        <time>2018-07-15T10:03:59Z</time>
      </trkpt>
      <trkpt lat="43.93972" lon="1.74378">
        <ele>246</ele>
        <time>2018-07-15T10:04:00Z</time>
      </trkpt>
      <trkpt lat="43.9397" lon="1.74384">
        <ele>246</ele>
        <time>2018-07-15T10:04:01Z</time>
      </trkpt>
      <trkpt lat="43.93968" lon="1.7439">
        <ele>246</ele>
        <time>2018-07-15T10:04:02Z</time>
      </trkpt>
      <trkpt lat="43.93967" lon="1.74396">
        <ele>245</ele>
        <time>2018-07-15T10:04:03Z</time>
      </trkpt>
      <trkpt lat="43.93965" lon="1.74402">
        <ele>246</ele>
        <time>2018-07-15T10:04:04Z</time>
      </trkpt>
      <trkpt lat="43.93964" lon="1.74408">
        <ele>246</ele>
        <time>2018-07-15T10:04:05Z</time>
      </trkpt>
      <trkpt lat="43.93963" lon="1.74415">
        <ele>246</ele>
        <time>2018-07-15T10:04:06Z</time>
      </trkpt>
      <trkpt lat="43.93962" lon="1.74422">
        <ele>246</ele>
        <time>2018-07-15T10:04:07Z</time>
      </trkpt>
      <trkpt lat="43.93961" lon="1.74429">
        <ele>246</ele>
        <time>2018-07-15T10:04:08Z</time>
      </trkpt>
      <trkpt lat="43.9396" lon="1.74436">
        <ele>246</ele>
        <time>2018-07-15T10:04:09Z</time>
      </trkpt>
      <trkpt lat="43.93959" lon="1.74443">
        <ele>246</ele>
        <time>2018-07-15T10:04:10Z</time>
      </trkpt>
      <trkpt lat="43.93958" lon="1.7445">
        <ele>246</ele>
        <time>2018-07-15T10:04:11Z</time>
      </trkpt>
      <trkpt lat="43.93957" lon="1.74457">
        <ele>246</ele>
        <time>2018-07-15T10:04:12Z</time>
      </trkpt>
      <trkpt lat="43.93956" lon="1.74465">
        <ele>246</ele>
        <time>2018-07-15T10:04:13Z</time>
      </trkpt>
      <trkpt lat="43.93955" lon="1.74473">
        <ele>246</ele>
        <time>2018-07-15T10:04:14Z</time>
      </trkpt>
      <trkpt lat="43.93954" lon="1.74481">
        <ele>246</ele>
        <time>2018-07-15T10:04:15Z</time>
      </trkpt>
      <trkpt lat="43.93952" lon="1.74489">
        <ele>246</ele>
        <time>2018-07-15T10:04:16Z</time>
      </trkpt>
      <trkpt lat="43.9395" lon="1.74498">
        <ele>246</ele>
        <time>2018-07-15T10:04:17Z</time>
      </trkpt>
      <trkpt lat="43.93948" lon="1.74508">
        <ele>246</ele>
        <time>2018-07-15T10:04:18Z</time>
      </trkpt>
      <trkpt lat="43.93947" lon="1.74517">
        <ele>246</ele>
        <time>2018-07-15T10:04:19Z</time>
      </trkpt>
      <trkpt lat="43.93945" lon="1.74528">
        <ele>245</ele>
        <time>2018-07-15T10:04:20Z</time>
      </trkpt>
      <trkpt lat="43.93943" lon="1.74538">
        <ele>245</ele>
        <time>2018-07-15T10:04:21Z</time>
      </trkpt>
      <trkpt lat="43.93942" lon="1.74548">
        <ele>245</ele>
        <time>2018-07-15T10:04:22Z</time>
      </trkpt>
      <trkpt lat="43.9394" lon="1.74557">
        <ele>245</ele>
        <time>2018-07-15T10:04:23Z</time>
      </trkpt>
      <trkpt lat="43.93939" lon="1.74567">
        <ele>245</ele>
        <time>2018-07-15T10:04:24Z</time>
      </trkpt>
      <trkpt lat="43.93938" lon="1.74576">
        <ele>245</ele>
        <time>2018-07-15T10:04:25Z</time>
      </trkpt>
      <trkpt lat="43.93937" lon="1.74585">
        <ele>244</ele>
        <time>2018-07-15T10:04:26Z</time>
      </trkpt>
      <trkpt lat="43.93936" lon="1.74595">
        <ele>244</ele>
        <time>2018-07-15T10:04:27Z</time>
      </trkpt>
      <trkpt lat="43.93935" lon="1.74604">
        <ele>244</ele>
        <time>2018-07-15T10:04:28Z</time>
      </trkpt>
      <trkpt lat="43.93935" lon="1.74613">
        <ele>244</ele>
        <time>2018-07-15T10:04:29Z</time>
      </trkpt>
      <trkpt lat="43.93935" lon="1.74622">
        <ele>244</ele>
        <time>2018-07-15T10:04:30Z</time>
      </trkpt>
      <trkpt lat="43.93934" lon="1.74631">
        <ele>244</ele>
        <time>2018-07-15T10:04:31Z</time>
      </trkpt>
      <trkpt lat="43.93934" lon="1.74641">
        <ele>244</ele>
        <time>2018-07-15T10:04:32Z</time>
      </trkpt>
      <trkpt lat="43.93934" lon="1.7465">
        <ele>243</ele>
        <time>2018-07-15T10:04:33Z</time>
      </trkpt>
      <trkpt lat="43.93934" lon="1.74659">
        <ele>243</ele>
        <time>2018-07-15T10:04:34Z</time>
      </trkpt>
      <trkpt lat="43.93934" lon="1.74669">
        <ele>243</ele>
        <time>2018-07-15T10:04:35Z</time>
      </trkpt>
      <trkpt lat="43.93933" lon="1.74678">
        <ele>243</ele>
        <time>2018-07-15T10:04:36Z</time>
      </trkpt>
      <trkpt lat="43.93933" lon="1.74687">
        <ele>243</ele>
        <time>2018-07-15T10:04:37Z</time>
      </trkpt>
      <trkpt lat="43.93932" lon="1.74696">
        <ele>243</ele>
        <time>2018-07-15T10:04:38Z</time>
      </trkpt>
      <trkpt lat="43.93932" lon="1.74706">
        <ele>243</ele>
        <time>2018-07-15T10:04:39Z</time>
      </trkpt>
      <trkpt lat="43.93931" lon="1.74715">
        <ele>243</ele>
        <time>2018-07-15T10:04:40Z</time>
      </trkpt>
      <trkpt lat="43.93931" lon="1.74725">
        <ele>243</ele>
        <time>2018-07-15T10:04:41Z</time>
      </trkpt>
      <trkpt lat="43.9393" lon="1.74735">
        <ele>243</ele>
        <time>2018-07-15T10:04:42Z</time>
      </trkpt>
      <trkpt lat="43.9393" lon="1.74745">
        <ele>242</ele>
        <time>2018-07-15T10:04:43Z</time>
      </trkpt>
      <trkpt lat="43.93929" lon="1.74755">
        <ele>242</ele>
        <time>2018-07-15T10:04:44Z</time>
      </trkpt>
      <trkpt lat="43.93929" lon="1.74764">
        <ele>242</ele>
        <time>2018-07-15T10:04:45Z</time>
      </trkpt>
      <trkpt lat="43.93928" lon="1.74775">
        <ele>242</ele>
        <time>2018-07-15T10:04:46Z</time>
      </trkpt>
      <trkpt lat="43.93928" lon="1.74785">
        <ele>242</ele>
        <time>2018-07-15T10:04:47Z</time>
      </trkpt>
      <trkpt lat="43.93928" lon="1.74795">
        <ele>242</ele>
        <time>2018-07-15T10:04:48Z</time>
      </trkpt>
      <trkpt lat="43.93928" lon="1.74805">
        <ele>241</ele>
        <time>2018-07-15T10:04:49Z</time>
      </trkpt>
      <trkpt lat="43.93928" lon="1.74816">
        <ele>241</ele>
        <time>2018-07-15T10:04:50Z</time>
      </trkpt>
      <trkpt lat="43.93928" lon="1.74826">
        <ele>241</ele>
        <time>2018-07-15T10:04:51Z</time>
      </trkpt>
      <trkpt lat="43.93929" lon="1.74836">
        <ele>242</ele>
        <time>2018-07-15T10:04:52Z</time>
      </trkpt>
      <trkpt lat="43.93929" lon="1.74847">
        <ele>242</ele>
        <time>2018-07-15T10:04:53Z</time>
      </trkpt>
      <trkpt lat="43.93929" lon="1.74857">
        <ele>242</ele>
        <time>2018-07-15T10:04:54Z</time>
      </trkpt>
      <trkpt lat="43.93929" lon="1.74867">
        <ele>241</ele>
        <time>2018-07-15T10:04:55Z</time>
      </trkpt>
      <trkpt lat="43.9393" lon="1.74877">
        <ele>242</ele>
        <time>2018-07-15T10:04:56Z</time>
      </trkpt>
      <trkpt lat="43.9393" lon="1.74887">
        <ele>242</ele>
        <time>2018-07-15T10:04:57Z</time>
      </trkpt>
      <trkpt lat="43.93931" lon="1.74897">
        <ele>242</ele>
        <time>2018-07-15T10:04:58Z</time>
      </trkpt>
      <trkpt lat="43.93931" lon="1.74907">
        <ele>242</ele>
        <time>2018-07-15T10:04:59Z</time>
      </trkpt>
      <trkpt lat="43.93931" lon="1.74917">
        <ele>242</ele>
        <time>2018-07-15T10:05:00Z</time>
      </trkpt>
      <trkpt lat="43.93932" lon="1.74927">
        <ele>242</ele>
        <time>2018-07-15T10:05:01Z</time>
      </trkpt>
      <trkpt lat="43.93932" lon="1.74937">
        <ele>242</ele>
        <time>2018-07-15T10:05:02Z</time>
      </trkpt>
      <trkpt lat="43.93931" lon="1.74946">
        <ele>242</ele>
        <time>2018-07-15T10:05:03Z</time>
      </trkpt>
      <trkpt lat="43.93931" lon="1.74956">
        <ele>242</ele>
        <time>2018-07-15T10:05:04Z</time>
      </trkpt>
      <trkpt lat="43.9393" lon="1.74965">
        <ele>242</ele>
        <time>2018-07-15T10:05:05Z</time>
      </trkpt>
      <trkpt lat="43.93928" lon="1.74974">
        <ele>243</ele>
        <time>2018-07-15T10:05:06Z</time>
      </trkpt>
      <trkpt lat="43.93926" lon="1.74983">
        <ele>243</ele>
        <time>2018-07-15T10:05:07Z</time>
      </trkpt>
      <trkpt lat="43.93923" lon="1.74991">
        <ele>243</ele>
        <time>2018-07-15T10:05:08Z</time>
      </trkpt>
      <trkpt lat="43.93919" lon="1.74998">
        <ele>243</ele>
        <time>2018-07-15T10:05:09Z</time>
      </trkpt>
      <trkpt lat="43.93915" lon="1.75006">
        <ele>243</ele>
        <time>2018-07-15T10:05:10Z</time>
      </trkpt>
      <trkpt lat="43.93911" lon="1.75013">
        <ele>243</ele>
        <time>2018-07-15T10:05:11Z</time>
      </trkpt>
      <trkpt lat="43.93906" lon="1.7502">
        <ele>243</ele>
        <time>2018-07-15T10:05:12Z</time>
      </trkpt>
      <trkpt lat="43.93901" lon="1.75026">
        <ele>243</ele>
        <time>2018-07-15T10:05:13Z</time>
      </trkpt>
      <trkpt lat="43.93897" lon="1.75033">
        <ele>243</ele>
        <time>2018-07-15T10:05:14Z</time>
      </trkpt>
      <trkpt lat="43.93892" lon="1.7504">
        <ele>243</ele>
        <time>2018-07-15T10:05:15Z</time>
      </trkpt>
      <trkpt lat="43.93888" lon="1.75046">
        <ele>243</ele>
        <time>2018-07-15T10:05:16Z</time>
      </trkpt>
      <trkpt lat="43.93883" lon="1.75052">
        <ele>243</ele>
        <time>2018-07-15T10:05:17Z</time>
      </trkpt>
      <trkpt lat="43.93879" lon="1.75059">
        <ele>243</ele>
        <time>2018-07-15T10:05:18Z</time>
      </trkpt>
      <trkpt lat="43.93874" lon="1.75065">
        <ele>243</ele>
        <time>2018-07-15T10:05:19Z</time>
      </trkpt>
      <trkpt lat="43.93869" lon="1.75072">
        <ele>243</ele>
        <time>2018-07-15T10:05:20Z</time>
      </trkpt>
      <trkpt lat="43.93865" lon="1.75078">
        <ele>243</ele>
        <time>2018-07-15T10:05:21Z</time>
      </trkpt>
      <trkpt lat="43.93861" lon="1.75085">
        <ele>243</ele>
        <time>2018-07-15T10:05:22Z</time>
      </trkpt>
      <trkpt lat="43.93857" lon="1.75091">
        <ele>243</ele>
        <time>2018-07-15T10:05:23Z</time>
      </trkpt>
      <trkpt lat="43.93853" lon="1.75098">
        <ele>243</ele>
        <time>2018-07-15T10:05:24Z</time>
      </trkpt>
      <trkpt lat="43.93849" lon="1.75105">
        <ele>243</ele>
        <time>2018-07-15T10:05:25Z</time>
      </trkpt>
      <trkpt lat="43.93846" lon="1.75111">
        <ele>244</ele>
        <time>2018-07-15T10:05:26Z</time>
      </trkpt>
      <trkpt lat="43.93843" lon="1.75118">
        <ele>244</ele>
        <time>2018-07-15T10:05:27Z</time>
      </trkpt>
      <trkpt lat="43.9384" lon="1.75125">
        <ele>244</ele>
        <time>2018-07-15T10:05:28Z</time>
      </trkpt>
      <trkpt lat="43.93838" lon="1.75132">
        <ele>244</ele>
        <time>2018-07-15T10:05:29Z</time>
      </trkpt>
      <trkpt lat="43.93835" lon="1.75139">
        <ele>244</ele>
        <time>2018-07-15T10:05:30Z</time>
      </trkpt>
      <trkpt lat="43.93833" lon="1.75147">
        <ele>244</ele>
        <time>2018-07-15T10:05:31Z</time>
      </trkpt>
      <trkpt lat="43.93831" lon="1.75155">
        <ele>244</ele>
        <time>2018-07-15T10:05:32Z</time>
      </trkpt>
      <trkpt lat="43.93829" lon="1.75163">
        <ele>245</ele>
        <time>2018-07-15T10:05:33Z</time>
      </trkpt>
      <trkpt lat="43.93827" lon="1.75171">
        <ele>245</ele>
        <time>2018-07-15T10:05:34Z</time>
      </trkpt>
      <trkpt lat="43.93825" lon="1.75179">
        <ele>245</ele>
        <time>2018-07-15T10:05:35Z</time>
      </trkpt>
      <trkpt lat="43.93824" lon="1.75188">
        <ele>245</ele>
        <time>2018-07-15T10:05:36Z</time>
      </trkpt>
      <trkpt lat="43.93823" lon="1.75196">
        <ele>245</ele>
        <time>2018-07-15T10:05:37Z</time>
      </trkpt>
      <trkpt lat="43.93822" lon="1.75205">
        <ele>246</ele>
        <time>2018-07-15T10:05:38Z</time>
      </trkpt>
      <trkpt lat="43.93821" lon="1.75213">
        <ele>245</ele>
        <time>2018-07-15T10:05:39Z</time>
      </trkpt>
      <trkpt lat="43.9382" lon="1.75221">
        <ele>246</ele>
        <time>2018-07-15T10:05:40Z</time>
      </trkpt>
      <trkpt lat="43.93819" lon="1.75229">
        <ele>245</ele>
        <time>2018-07-15T10:05:41Z</time>
      </trkpt>
      <trkpt lat="43.93818" lon="1.75238">
        <ele>246</ele>
        <time>2018-07-15T10:05:42Z</time>
      </trkpt>
      <trkpt lat="43.93817" lon="1.75246">
        <ele>246</ele>
        <time>2018-07-15T10:05:43Z</time>
      </trkpt>
      <trkpt lat="43.93816" lon="1.75255">
        <ele>246</ele>
        <time>2018-07-15T10:05:44Z</time>
      </trkpt>
      <trkpt lat="43.93815" lon="1.75263">
        <ele>246</ele>
        <time>2018-07-15T10:05:45Z</time>
      </trkpt>
      <trkpt lat="43.93814" lon="1.75272">
        <ele>245</ele>
        <time>2018-07-15T10:05:46Z</time>
      </trkpt>
      <trkpt lat="43.93813" lon="1.75281">
        <ele>245</ele>
        <time>2018-07-15T10:05:47Z</time>
      </trkpt>
      <trkpt lat="43.93812" lon="1.7529">
        <ele>245</ele>
        <time>2018-07-15T10:05:48Z</time>
      </trkpt>
      <trkpt lat="43.93811" lon="1.753">
        <ele>245</ele>
        <time>2018-07-15T10:05:49Z</time>
      </trkpt>
      <trkpt lat="43.9381" lon="1.7531">
        <ele>245</ele>
        <time>2018-07-15T10:05:50Z</time>
      </trkpt>
      <trkpt lat="43.93809" lon="1.75319">
        <ele>244</ele>
        <time>2018-07-15T10:05:51Z</time>
      </trkpt>
      <trkpt lat="43.93808" lon="1.75329">
        <ele>244</ele>
        <time>2018-07-15T10:05:52Z</time>
      </trkpt>
      <trkpt lat="43.93807" lon="1.75339">
        <ele>244</ele>
        <time>2018-07-15T10:05:53Z</time>
      </trkpt>
      <trkpt lat="43.93805" lon="1.75348">
        <ele>244</ele>
        <time>2018-07-15T10:05:54Z</time>
      </trkpt>
      <trkpt lat="43.93804" lon="1.75358">
        <ele>244</ele>
        <time>2018-07-15T10:05:55Z</time>
      </trkpt>
      <trkpt lat="43.93803" lon="1.75368">
        <ele>244</ele>
        <time>2018-07-15T10:05:56Z</time>
      </trkpt>
      <trkpt lat="43.93802" lon="1.75378">
        <ele>243</ele>
        <time>2018-07-15T10:05:57Z</time>
      </trkpt>
      <trkpt lat="43.93801" lon="1.75387">
        <ele>243</ele>
        <time>2018-07-15T10:05:58Z</time>
      </trkpt>
      <trkpt lat="43.938" lon="1.75397">
        <ele>243</ele>
        <time>2018-07-15T10:05:59Z</time>
      </trkpt>
      <trkpt lat="43.93799" lon="1.75407">
        <ele>243</ele>
        <time>2018-07-15T10:06:00Z</time>
      </trkpt>
      <trkpt lat="43.93798" lon="1.75417">
        <ele>243</ele>
        <time>2018-07-15T10:06:01Z</time>
      </trkpt>
      <trkpt lat="43.93797" lon="1.75426">
        <ele>242</ele>
        <time>2018-07-15T10:06:02Z</time>
      </trkpt>
      <trkpt lat="43.93796" lon="1.75435">
        <ele>242</ele>
        <time>2018-07-15T10:06:03Z</time>
      </trkpt>
      <trkpt lat="43.93796" lon="1.75445">
        <ele>242</ele>
        <time>2018-07-15T10:06:04Z</time>
      </trkpt>
      <trkpt lat="43.93795" lon="1.75454">
        <ele>242</ele>
        <time>2018-07-15T10:06:05Z</time>
      </trkpt>
      <trkpt lat="43.93793" lon="1.75464">
        <ele>242</ele>
        <time>2018-07-15T10:06:06Z</time>
      </trkpt>
      <trkpt lat="43.93792" lon="1.75473">
        <ele>242</ele>
        <time>2018-07-15T10:06:07Z</time>
      </trkpt>
      <trkpt lat="43.93791" lon="1.75482">
        <ele>242</ele>
        <time>2018-07-15T10:06:08Z</time>
      </trkpt>
      <trkpt lat="43.93789" lon="1.75491">
        <ele>242</ele>
        <time>2018-07-15T10:06:09Z</time>
      </trkpt>
      <trkpt lat="43.93787" lon="1.755">
        <ele>242</ele>
        <time>2018-07-15T10:06:10Z</time>
      </trkpt>
      <trkpt lat="43.93786" lon="1.75508">
        <ele>243</ele>
        <time>2018-07-15T10:06:11Z</time>
      </trkpt>
      <trkpt lat="43.93785" lon="1.75516">
        <ele>243</ele>
        <time>2018-07-15T10:06:12Z</time>
      </trkpt>
      <trkpt lat="43.93783" lon="1.75524">
        <ele>244</ele>
        <time>2018-07-15T10:06:13Z</time>
      </trkpt>
      <trkpt lat="43.93782" lon="1.75532">
        <ele>244</ele>
        <time>2018-07-15T10:06:14Z</time>
      </trkpt>
      <trkpt lat="43.93781" lon="1.7554">
        <ele>244</ele>
        <time>2018-07-15T10:06:15Z</time>
      </trkpt>
      <trkpt lat="43.9378" lon="1.75549">
        <ele>244</ele>
        <time>2018-07-15T10:06:16Z</time>
      </trkpt>
      <trkpt lat="43.93779" lon="1.75557">
        <ele>244</ele>
        <time>2018-07-15T10:06:17Z</time>
      </trkpt>
      <trkpt lat="43.93778" lon="1.75565">
        <ele>245</ele>
        <time>2018-07-15T10:06:18Z</time>
      </trkpt>
      <trkpt lat="43.93777" lon="1.75572">
        <ele>245</ele>
        <time>2018-07-15T10:06:19Z</time>
      </trkpt>
      <trkpt lat="43.93776" lon="1.7558">
        <ele>245</ele>
        <time>2018-07-15T10:06:20Z</time>
      </trkpt>
      <trkpt lat="43.93776" lon="1.75587">
        <ele>246</ele>
        <time>2018-07-15T10:06:21Z</time>
      </trkpt>
      <trkpt lat="43.93775" lon="1.75595">
        <ele>246</ele>
        <time>2018-07-15T10:06:22Z</time>
      </trkpt>
      <trkpt lat="43.93775" lon="1.75603">
        <ele>246</ele>
        <time>2018-07-15T10:06:23Z</time>
      </trkpt>
      <trkpt lat="43.93774" lon="1.7561">
        <ele>246</ele>
        <time>2018-07-15T10:06:24Z</time>
      </trkpt>
      <trkpt lat="43.93775" lon="1.75618">
        <ele>246</ele>
        <time>2018-07-15T10:06:25Z</time>
      </trkpt>
      <trkpt lat="43.93775" lon="1.75625">
        <ele>246</ele>
        <time>2018-07-15T10:06:26Z</time>
      </trkpt>
      <trkpt lat="43.93775" lon="1.75632">
        <ele>247</ele>
        <time>2018-07-15T10:06:27Z</time>
      </trkpt>
      <trkpt lat="43.93775" lon="1.75639">
        <ele>247</ele>
        <time>2018-07-15T10:06:28Z</time>
      </trkpt>
      <trkpt lat="43.93776" lon="1.75646">
        <ele>247</ele>
        <time>2018-07-15T10:06:29Z</time>
      </trkpt>
      <trkpt lat="43.93776" lon="1.75653">
        <ele>247</ele>
        <time>2018-07-15T10:06:30Z</time>
      </trkpt>
      <trkpt lat="43.93777" lon="1.75661">
        <ele>247</ele>
        <time>2018-07-15T10:06:31Z</time>
      </trkpt>
      <trkpt lat="43.93778" lon="1.7567">
        <ele>247</ele>
        <time>2018-07-15T10:06:32Z</time>
      </trkpt>
      <trkpt lat="43.93779" lon="1.75678">
        <ele>247</ele>
        <time>2018-07-15T10:06:33Z</time>
      </trkpt>
      <trkpt lat="43.9378" lon="1.75687">
        <ele>247</ele>
        <time>2018-07-15T10:06:34Z</time>
      </trkpt>
      <trkpt lat="43.93782" lon="1.75697">
        <ele>246</ele>
        <time>2018-07-15T10:06:35Z</time>
      </trkpt>
      <trkpt lat="43.93783" lon="1.75707">
        <ele>246</ele>
        <time>2018-07-15T10:06:36Z</time>
      </trkpt>
      <trkpt lat="43.93784" lon="1.75716">
        <ele>245</ele>
        <time>2018-07-15T10:06:37Z</time>
      </trkpt>
      <trkpt lat="43.93785" lon="1.75727">
        <ele>245</ele>
        <time>2018-07-15T10:06:38Z</time>
      </trkpt>
      <trkpt lat="43.93787" lon="1.75737">
        <ele>245</ele>
        <time>2018-07-15T10:06:39Z</time>
      </trkpt>
      <trkpt lat="43.93789" lon="1.75748">
        <ele>244</ele>
        <time>2018-07-15T10:06:40Z</time>
      </trkpt>
      <trkpt lat="43.9379" lon="1.75758">
        <ele>244</ele>
        <time>2018-07-15T10:06:41Z</time>
      </trkpt>
      <trkpt lat="43.93792" lon="1.75769">
        <ele>244</ele>
        <time>2018-07-15T10:06:42Z</time>
      </trkpt>
      <trkpt lat="43.93794" lon="1.75779">
        <ele>243</ele>
        <time>2018-07-15T10:06:43Z</time>
      </trkpt>
      <trkpt lat="43.93795" lon="1.75789">
        <ele>243</ele>
        <time>2018-07-15T10:06:44Z</time>
      </trkpt>
      <trkpt lat="43.93797" lon="1.75799">
        <ele>243</ele>
        <time>2018-07-15T10:06:45Z</time>
      </trkpt>
      <trkpt lat="43.93798" lon="1.75809">
        <ele>243</ele>
        <time>2018-07-15T10:06:46Z</time>
      </trkpt>
      <trkpt lat="43.938" lon="1.75819">
        <ele>243</ele>
        <time>2018-07-15T10:06:47Z</time>
      </trkpt>
      <trkpt lat="43.93801" lon="1.75829">
        <ele>242</ele>
        <time>2018-07-15T10:06:48Z</time>
      </trkpt>
      <trkpt lat="43.93803" lon="1.75839">
        <ele>242</ele>
        <time>2018-07-15T10:06:49Z</time>
      </trkpt>
      <trkpt lat="43.93805" lon="1.7585">
        <ele>242</ele>
        <time>2018-07-15T10:06:50Z</time>
      </trkpt>
      <trkpt lat="43.93806" lon="1.7586">
        <ele>242</ele>
        <time>2018-07-15T10:06:51Z</time>
      </trkpt>
      <trkpt lat="43.93807" lon="1.75871">
        <ele>241</ele>
        <time>2018-07-15T10:06:52Z</time>
      </trkpt>
      <trkpt lat="43.93809" lon="1.75882">
        <ele>241</ele>
        <time>2018-07-15T10:06:53Z</time>
      </trkpt>
      <trkpt lat="43.93809" lon="1.75893">
        <ele>241</ele>
        <time>2018-07-15T10:06:54Z</time>
      </trkpt>
      <trkpt lat="43.93809" lon="1.75904">
        <ele>241</ele>
        <time>2018-07-15T10:06:55Z</time>
      </trkpt>
      <trkpt lat="43.93809" lon="1.75915">
        <ele>240</ele>
        <time>2018-07-15T10:06:56Z</time>
      </trkpt>
      <trkpt lat="43.93808" lon="1.75925">
        <ele>240</ele>
        <time>2018-07-15T10:06:57Z</time>
      </trkpt>
      <trkpt lat="43.93806" lon="1.75935">
        <ele>240</ele>
        <time>2018-07-15T10:06:58Z</time>
      </trkpt>
      <trkpt lat="43.93804" lon="1.75945">
        <ele>240</ele>
        <time>2018-07-15T10:06:59Z</time>
      </trkpt>
      <trkpt lat="43.93802" lon="1.75954">
        <ele>240</ele>
        <time>2018-07-15T10:07:00Z</time>
      </trkpt>
      <trkpt lat="43.93798" lon="1.75963">
        <ele>240</ele>
        <time>2018-07-15T10:07:01Z</time>
      </trkpt>
      <trkpt lat="43.93794" lon="1.75971">
        <ele>240</ele>
        <time>2018-07-15T10:07:02Z</time>
      </trkpt>
      <trkpt lat="43.93789" lon="1.75978">
        <ele>239</ele>
        <time>2018-07-15T10:07:03Z</time>
      </trkpt>
      <trkpt lat="43.93784" lon="1.75985">
        <ele>240</ele>
        <time>2018-07-15T10:07:04Z</time>
      </trkpt>
      <trkpt lat="43.93779" lon="1.75991">
        <ele>240</ele>
        <time>2018-07-15T10:07:05Z</time>
      </trkpt>
      <trkpt lat="43.93773" lon="1.75997">
        <ele>240</ele>
        <time>2018-07-15T10:07:06Z</time>
      </trkpt>
      <trkpt lat="43.93768" lon="1.76003">
        <ele>240</ele>
        <time>2018-07-15T10:07:07Z</time>
      </trkpt>
      <trkpt lat="43.93763" lon="1.76009">
        <ele>240</ele>
        <time>2018-07-15T10:07:08Z</time>
      </trkpt>
      <trkpt lat="43.93757" lon="1.76015">
        <ele>240</ele>
        <time>2018-07-15T10:07:09Z</time>
      </trkpt>
      <trkpt lat="43.93753" lon="1.76021">
        <ele>241</ele>
        <time>2018-07-15T10:07:10Z</time>
      </trkpt>
      <trkpt lat="43.93748" lon="1.76027">
        <ele>241</ele>
        <time>2018-07-15T10:07:11Z</time>
      </trkpt>
      <trkpt lat="43.93743" lon="1.76032">
        <ele>241</ele>
        <time>2018-07-15T10:07:12Z</time>
      </trkpt>
      <trkpt lat="43.93738" lon="1.76038">
        <ele>241</ele>
        <time>2018-07-15T10:07:13Z</time>
      </trkpt>
      <trkpt lat="43.93734" lon="1.76044">
        <ele>241</ele>
        <time>2018-07-15T10:07:14Z</time>
      </trkpt>
      <trkpt lat="43.9373" lon="1.7605">
        <ele>241</ele>
        <time>2018-07-15T10:07:15Z</time>
      </trkpt>
      <trkpt lat="43.93726" lon="1.76056">
        <ele>241</ele>
        <time>2018-07-15T10:07:16Z</time>
      </trkpt>
      <trkpt lat="43.93722" lon="1.76062">
        <ele>241</ele>
        <time>2018-07-15T10:07:17Z</time>
      </trkpt>
      <trkpt lat="43.93718" lon="1.76069">
        <ele>241</ele>
        <time>2018-07-15T10:07:18Z</time>
      </trkpt>
      <trkpt lat="43.93714" lon="1.76075">
        <ele>242</ele>
        <time>2018-07-15T10:07:19Z</time>
      </trkpt>
      <trkpt lat="43.93711" lon="1.76082">
        <ele>242</ele>
        <time>2018-07-15T10:07:20Z</time>
      </trkpt>
      <trkpt lat="43.93707" lon="1.76088">
        <ele>242</ele>
        <time>2018-07-15T10:07:21Z</time>
      </trkpt>
      <trkpt lat="43.93703" lon="1.76096">
        <ele>242</ele>
        <time>2018-07-15T10:07:22Z</time>
      </trkpt>
      <trkpt lat="43.93699" lon="1.76103">
        <ele>242</ele>
        <time>2018-07-15T10:07:23Z</time>
      </trkpt>
      <trkpt lat="43.93696" lon="1.76111">
        <ele>242</ele>
        <time>2018-07-15T10:07:24Z</time>
      </trkpt>
      <trkpt lat="43.93692" lon="1.76118">
        <ele>242</ele>
        <time>2018-07-15T10:07:25Z</time>
      </trkpt>
      <trkpt lat="43.93689" lon="1.76126">
        <ele>242</ele>
        <time>2018-07-15T10:07:26Z</time>
      </trkpt>
      <trkpt lat="43.93686" lon="1.76134">
        <ele>242</ele>
        <time>2018-07-15T10:07:27Z</time>
      </trkpt>
      <trkpt lat="43.93683" lon="1.76141">
        <ele>242</ele>
        <time>2018-07-15T10:07:28Z</time>
      </trkpt>
      <trkpt lat="43.9368" lon="1.76149">
        <ele>242</ele>
        <time>2018-07-15T10:07:29Z</time>
      </trkpt>
      <trkpt lat="43.93677" lon="1.76158">
        <ele>242</ele>
        <time>2018-07-15T10:07:30Z</time>
      </trkpt>
      <trkpt lat="43.93673" lon="1.76166">
        <ele>241</ele>
        <time>2018-07-15T10:07:31Z</time>
      </trkpt>
      <trkpt lat="43.9367" lon="1.76174">
        <ele>241</ele>
        <time>2018-07-15T10:07:32Z</time>
      </trkpt>
      <trkpt lat="43.93666" lon="1.76182">
        <ele>241</ele>
        <time>2018-07-15T10:07:33Z</time>
      </trkpt>
      <trkpt lat="43.93662" lon="1.7619">
        <ele>241</ele>
        <time>2018-07-15T10:07:34Z</time>
      </trkpt>
      <trkpt lat="43.93658" lon="1.76198">
        <ele>241</ele>
        <time>2018-07-15T10:07:35Z</time>
      </trkpt>
      <trkpt lat="43.93653" lon="1.76206">
        <ele>240</ele>
        <time>2018-07-15T10:07:36Z</time>
      </trkpt>
      <trkpt lat="43.93648" lon="1.76213">
        <ele>240</ele>
        <time>2018-07-15T10:07:37Z</time>
      </trkpt>
      <trkpt lat="43.93642" lon="1.76219">
        <ele>240</ele>
        <time>2018-07-15T10:07:38Z</time>
      </trkpt>
      <trkpt lat="43.93637" lon="1.76225">
        <ele>241</ele>
        <time>2018-07-15T10:07:39Z</time>
      </trkpt>
      <trkpt lat="43.93632" lon="1.76231">
        <ele>241</ele>
        <time>2018-07-15T10:07:40Z</time>
      </trkpt>
      <trkpt lat="43.93627" lon="1.76237">
        <ele>241</ele>
        <time>2018-07-15T10:07:41Z</time>
      </trkpt>
      <trkpt lat="43.93621" lon="1.76243">
        <ele>241</ele>
        <time>2018-07-15T10:07:42Z</time>
      </trkpt>
      <trkpt lat="43.93616" lon="1.76249">
        <ele>241</ele>
        <time>2018-07-15T10:07:43Z</time>
      </trkpt>
      <trkpt lat="43.93611" lon="1.76254">
        <ele>241</ele>
        <time>2018-07-15T10:07:44Z</time>
      </trkpt>
      <trkpt lat="43.93606" lon="1.76259">
        <ele>242</ele>
        <time>2018-07-15T10:07:45Z</time>
      </trkpt>
      <trkpt lat="43.93601" lon="1.76264">
        <ele>242</ele>
        <time>2018-07-15T10:07:46Z</time>
      </trkpt>
      <trkpt lat="43.93596" lon="1.76269">
        <ele>243</ele>
        <time>2018-07-15T10:07:47Z</time>
      </trkpt>
      <trkpt lat="43.93591" lon="1.76275">
        <ele>243</ele>
        <time>2018-07-15T10:07:48Z</time>
      </trkpt>
      <trkpt lat="43.93587" lon="1.7628">
        <ele>243</ele>
        <time>2018-07-15T10:07:49Z</time>
      </trkpt>
      <trkpt lat="43.93582" lon="1.76286">
        <ele>243</ele>
        <time>2018-07-15T10:07:50Z</time>
      </trkpt>
      <trkpt lat="43.93578" lon="1.76292">
        <ele>243</ele>
        <time>2018-07-15T10:07:51Z</time>
      </trkpt>
      <trkpt lat="43.93574" lon="1.76297">
        <ele>243</ele>
        <time>2018-07-15T10:07:52Z</time>
      </trkpt>
      <trkpt lat="43.9357" lon="1.76302">
        <ele>243</ele>
        <time>2018-07-15T10:07:53Z</time>
      </trkpt>
      <trkpt lat="43.93565" lon="1.76308">
        <ele>243</ele>
        <time>2018-07-15T10:07:54Z</time>
      </trkpt>
      <trkpt lat="43.93561" lon="1.76314">
        <ele>243</ele>
        <time>2018-07-15T10:07:55Z</time>
      </trkpt>
      <trkpt lat="43.93557" lon="1.7632">
        <ele>243</ele>
        <time>2018-07-15T10:07:56Z</time>
      </trkpt>
      <trkpt lat="43.93554" lon="1.76327">
        <ele>242</ele>
        <time>2018-07-15T10:07:57Z</time>
      </trkpt>
      <trkpt lat="43.9355" lon="1.76334">
        <ele>242</ele>
        <time>2018-07-15T10:07:58Z</time>
      </trkpt>
      <trkpt lat="43.93546" lon="1.76341">
        <ele>242</ele>
        <time>2018-07-15T10:07:59Z</time>
      </trkpt>
      <trkpt lat="43.93542" lon="1.76349">
        <ele>242</ele>
        <time>2018-07-15T10:08:00Z</time>
      </trkpt>
      <trkpt lat="43.93539" lon="1.76356">
        <ele>242</ele>
        <time>2018-07-15T10:08:01Z</time>
      </trkpt>
      <trkpt lat="43.93536" lon="1.76363">
        <ele>242</ele>
        <time>2018-07-15T10:08:02Z</time>
      </trkpt>
      <trkpt lat="43.93532" lon="1.76371">
        <ele>242</ele>
        <time>2018-07-15T10:08:03Z</time>
      </trkpt>
      <trkpt lat="43.93529" lon="1.76379">
        <ele>243</ele>
        <time>2018-07-15T10:08:04Z</time>
      </trkpt>
      <trkpt lat="43.93525" lon="1.76387">
        <ele>243</ele>
        <time>2018-07-15T10:08:05Z</time>
      </trkpt>
      <trkpt lat="43.93522" lon="1.76394">
        <ele>243</ele>
        <time>2018-07-15T10:08:06Z</time>
      </trkpt>
      <trkpt lat="43.93518" lon="1.76402">
        <ele>243</ele>
        <time>2018-07-15T10:08:07Z</time>
      </trkpt>
      <trkpt lat="43.93515" lon="1.7641">
        <ele>243</ele>
        <time>2018-07-15T10:08:08Z</time>
      </trkpt>
      <trkpt lat="43.93512" lon="1.76418">
        <ele>243</ele>
        <time>2018-07-15T10:08:09Z</time>
      </trkpt>
      <trkpt lat="43.93509" lon="1.76426">
        <ele>243</ele>
        <time>2018-07-15T10:08:10Z</time>
      </trkpt>
      <trkpt lat="43.93506" lon="1.76433">
        <ele>243</ele>
        <time>2018-07-15T10:08:11Z</time>
      </trkpt>
      <trkpt lat="43.93503" lon="1.7644">
        <ele>244</ele>
        <time>2018-07-15T10:08:12Z</time>
      </trkpt>
      <trkpt lat="43.935" lon="1.76448">
        <ele>244</ele>
        <time>2018-07-15T10:08:13Z</time>
      </trkpt>
      <trkpt lat="43.93497" lon="1.76454">
        <ele>244</ele>
        <time>2018-07-15T10:08:14Z</time>
      </trkpt>
      <trkpt lat="43.93494" lon="1.76461">
        <ele>244</ele>
        <time>2018-07-15T10:08:15Z</time>
      </trkpt>
      <trkpt lat="43.93491" lon="1.76468">
        <ele>244</ele>
        <time>2018-07-15T10:08:16Z</time>
      </trkpt>
      <trkpt lat="43.93488" lon="1.76476">
        <ele>244</ele>
        <time>2018-07-15T10:08:17Z</time>
      </trkpt>
      <trkpt lat="43.93486" lon="1.76482">
        <ele>244</ele>
        <time>2018-07-15T10:08:18Z</time>
      </trkpt>
      <trkpt lat="43.93483" lon="1.76489">
        <ele>244</ele>
        <time>2018-07-15T10:08:19Z</time>
      </trkpt>
      <trkpt lat="43.93481" lon="1.76496">
        <ele>244</ele>
        <time>2018-07-15T10:08:20Z</time>
      </trkpt>
      <trkpt lat="43.93478" lon="1.76503">
        <ele>244</ele>
        <time>2018-07-15T10:08:21Z</time>
      </trkpt>
      <trkpt lat="43.93474" lon="1.76511">
        <ele>244</ele>
        <time>2018-07-15T10:08:22Z</time>
      </trkpt>
      <trkpt lat="43.93473" lon="1.76516">
        <ele>244</ele>
        <time>2018-07-15T10:08:23Z</time>
      </trkpt>
      <trkpt lat="43.9347" lon="1.76523">
        <ele>243</ele>
        <time>2018-07-15T10:08:24Z</time>
      </trkpt>
      <trkpt lat="43.93467" lon="1.76529">
        <ele>243</ele>
        <time>2018-07-15T10:08:25Z</time>
      </trkpt>
      <trkpt lat="43.93465" lon="1.76536">
        <ele>244</ele>
        <time>2018-07-15T10:08:26Z</time>
      </trkpt>
      <trkpt lat="43.93462" lon="1.76543">
        <ele>244</ele>
        <time>2018-07-15T10:08:27Z</time>
      </trkpt>
      <trkpt lat="43.93459" lon="1.76551">
        <ele>244</ele>
        <time>2018-07-15T10:08:28Z</time>
      </trkpt>
      <trkpt lat="43.93456" lon="1.76558">
        <ele>244</ele>
        <time>2018-07-15T10:08:29Z</time>
      </trkpt>
      <trkpt lat="43.93453" lon="1.76565">
        <ele>244</ele>
        <time>2018-07-15T10:08:30Z</time>
      </trkpt>
      <trkpt lat="43.9345" lon="1.76573">
        <ele>243</ele>
        <time>2018-07-15T10:08:31Z</time>
      </trkpt>
      <trkpt lat="43.93447" lon="1.76581">
        <ele>244</ele>
        <time>2018-07-15T10:08:32Z</time>
      </trkpt>
      <trkpt lat="43.93444" lon="1.76588">
        <ele>243</ele>
        <time>2018-07-15T10:08:33Z</time>
      </trkpt>
      <trkpt lat="43.93442" lon="1.76595">
        <ele>243</ele>
        <time>2018-07-15T10:08:34Z</time>
      </trkpt>
      <trkpt lat="43.93439" lon="1.76603">
        <ele>243</ele>
        <time>2018-07-15T10:08:35Z</time>
      </trkpt>
      <trkpt lat="43.93436" lon="1.7661">
        <ele>243</ele>
        <time>2018-07-15T10:08:36Z</time>
      </trkpt>
      <trkpt lat="43.93432" lon="1.76618">
        <ele>243</ele>
        <time>2018-07-15T10:08:37Z</time>
      </trkpt>
      <trkpt lat="43.93429" lon="1.76626">
        <ele>244</ele>
        <time>2018-07-15T10:08:38Z</time>
      </trkpt>
      <trkpt lat="43.93425" lon="1.76634">
        <ele>243</ele>
        <time>2018-07-15T10:08:39Z</time>
      </trkpt>
      <trkpt lat="43.93421" lon="1.76642">
        <ele>244</ele>
        <time>2018-07-15T10:08:40Z</time>
      </trkpt>
      <trkpt lat="43.93418" lon="1.7665">
        <ele>244</ele>
        <time>2018-07-15T10:08:41Z</time>
      </trkpt>
      <trkpt lat="43.93415" lon="1.76658">
        <ele>244</ele>
        <time>2018-07-15T10:08:42Z</time>
      </trkpt>
      <trkpt lat="43.93412" lon="1.76666">
        <ele>244</ele>
        <time>2018-07-15T10:08:43Z</time>
      </trkpt>
      <trkpt lat="43.93408" lon="1.76674">
        <ele>243</ele>
        <time>2018-07-15T10:08:44Z</time>
      </trkpt>
      <trkpt lat="43.93405" lon="1.76682">
        <ele>243</ele>
        <time>2018-07-15T10:08:45Z</time>
      </trkpt>
      <trkpt lat="43.93402" lon="1.76691">
        <ele>243</ele>
        <time>2018-07-15T10:08:46Z</time>
      </trkpt>
      <trkpt lat="43.93398" lon="1.76699">
        <ele>244</ele>
        <time>2018-07-15T10:08:47Z</time>
      </trkpt>
      <trkpt lat="43.93394" lon="1.76707">
        <ele>244</ele>
        <time>2018-07-15T10:08:48Z</time>
      </trkpt>
      <trkpt lat="43.93391" lon="1.76716">
        <ele>244</ele>
        <time>2018-07-15T10:08:49Z</time>
      </trkpt>
      <trkpt lat="43.93388" lon="1.76724">
        <ele>244</ele>
        <time>2018-07-15T10:08:50Z</time>
      </trkpt>
      <trkpt lat="43.93385" lon="1.76733">
        <ele>244</ele>
        <time>2018-07-15T10:08:51Z</time>
      </trkpt>
      <trkpt lat="43.93382" lon="1.76741">
        <ele>244</ele>
        <time>2018-07-15T10:08:52Z</time>
      </trkpt>
      <trkpt lat="43.9338" lon="1.76749">
        <ele>243</ele>
        <time>2018-07-15T10:08:53Z</time>
      </trkpt>
      <trkpt lat="43.93378" lon="1.76757">
        <ele>243</ele>
        <time>2018-07-15T10:08:54Z</time>
      </trkpt>
      <trkpt lat="43.93377" lon="1.76766">
        <ele>243</ele>
        <time>2018-07-15T10:08:55Z</time>
      </trkpt>
      <trkpt lat="43.93376" lon="1.76774">
        <ele>243</ele>
        <time>2018-07-15T10:08:56Z</time>
      </trkpt>
      <trkpt lat="43.93375" lon="1.76783">
        <ele>243</ele>
        <time>2018-07-15T10:08:57Z</time>
      </trkpt>
      <trkpt lat="43.93375" lon="1.76792">
        <ele>243</ele>
        <time>2018-07-15T10:08:58Z</time>
      </trkpt>
      <trkpt lat="43.93375" lon="1.76801">
        <ele>244</ele>
        <time>2018-07-15T10:08:59Z</time>
      </trkpt>
      <trkpt lat="43.93375" lon="1.7681">
        <ele>244</ele>
        <time>2018-07-15T10:09:00Z</time>
      </trkpt>
      <trkpt lat="43.93375" lon="1.7682">
        <ele>244</ele>
        <time>2018-07-15T10:09:01Z</time>
      </trkpt>
      <trkpt lat="43.93376" lon="1.76829">
        <ele>243</ele>
        <time>2018-07-15T10:09:02Z</time>
      </trkpt>
      <trkpt lat="43.93377" lon="1.76838">
        <ele>244</ele>
        <time>2018-07-15T10:09:03Z</time>
      </trkpt>
      <trkpt lat="43.93379" lon="1.76848">
        <ele>244</ele>
        <time>2018-07-15T10:09:04Z</time>
      </trkpt>
      <trkpt lat="43.9338" lon="1.76857">
        <ele>244</ele>
        <time>2018-07-15T10:09:05Z</time>
      </trkpt>
      <trkpt lat="43.93382" lon="1.76866">
        <ele>244</ele>
        <time>2018-07-15T10:09:06Z</time>
      </trkpt>
      <trkpt lat="43.93383" lon="1.76875">
        <ele>244</ele>
        <time>2018-07-15T10:09:07Z</time>
      </trkpt>
      <trkpt lat="43.93385" lon="1.76884">
        <ele>244</ele>
        <time>2018-07-15T10:09:08Z</time>
      </trkpt>
      <trkpt lat="43.93387" lon="1.76894">
        <ele>245</ele>
        <time>2018-07-15T10:09:09Z</time>
      </trkpt>
      <trkpt lat="43.93389" lon="1.76904">
        <ele>245</ele>
        <time>2018-07-15T10:09:10Z</time>
      </trkpt>
      <trkpt lat="43.93391" lon="1.76915">
        <ele>245</ele>
        <time>2018-07-15T10:09:11Z</time>
      </trkpt>
      <trkpt lat="43.93393" lon="1.76924">
        <ele>245</ele>
        <time>2018-07-15T10:09:12Z</time>
      </trkpt>
      <trkpt lat="43.93396" lon="1.76934">
        <ele>245</ele>
        <time>2018-07-15T10:09:13Z</time>
      </trkpt>
      <trkpt lat="43.93399" lon="1.76942">
        <ele>245</ele>
        <time>2018-07-15T10:09:14Z</time>
      </trkpt>
      <trkpt lat="43.93402" lon="1.76951">
        <ele>245</ele>
        <time>2018-07-15T10:09:15Z</time>
      </trkpt>
      <trkpt lat="43.93404" lon="1.76959">
        <ele>245</ele>
        <time>2018-07-15T10:09:16Z</time>
      </trkpt>
      <trkpt lat="43.93407" lon="1.76967">
        <ele>245</ele>
        <time>2018-07-15T10:09:17Z</time>
      </trkpt>
      <trkpt lat="43.9341" lon="1.76975">
        <ele>245</ele>
        <time>2018-07-15T10:09:18Z</time>
      </trkpt>
      <trkpt lat="43.93414" lon="1.76983">
        <ele>246</ele>
        <time>2018-07-15T10:09:19Z</time>
      </trkpt>
      <trkpt lat="43.93417" lon="1.7699">
        <ele>246</ele>
        <time>2018-07-15T10:09:20Z</time>
      </trkpt>
      <trkpt lat="43.93421" lon="1.76997">
        <ele>246</ele>
        <time>2018-07-15T10:09:21Z</time>
      </trkpt>
      <trkpt lat="43.93425" lon="1.77004">
        <ele>246</ele>
        <time>2018-07-15T10:09:22Z</time>
      </trkpt>
      <trkpt lat="43.93429" lon="1.77011">
        <ele>247</ele>
        <time>2018-07-15T10:09:23Z</time>
      </trkpt>
      <trkpt lat="43.93432" lon="1.77018">
        <ele>247</ele>
        <time>2018-07-15T10:09:24Z</time>
      </trkpt>
      <trkpt lat="43.93436" lon="1.77025">
        <ele>247</ele>
        <time>2018-07-15T10:09:25Z</time>
      </trkpt>
      <trkpt lat="43.9344" lon="1.77032">
        <ele>247</ele>
        <time>2018-07-15T10:09:26Z</time>
      </trkpt>
      <trkpt lat="43.93444" lon="1.77038">
        <ele>247</ele>
        <time>2018-07-15T10:09:27Z</time>
      </trkpt>
      <trkpt lat="43.93447" lon="1.77044">
        <ele>247</ele>
        <time>2018-07-15T10:09:28Z</time>
      </trkpt>
      <trkpt lat="43.93452" lon="1.7705">
        <ele>247</ele>
        <time>2018-07-15T10:09:29Z</time>
      </trkpt>
      <trkpt lat="43.93456" lon="1.77056">
        <ele>247</ele>
        <time>2018-07-15T10:09:30Z</time>
      </trkpt>
      <trkpt lat="43.9346" lon="1.77061">
        <ele>247</ele>
        <time>2018-07-15T10:09:31Z</time>
      </trkpt>
      <trkpt lat="43.93464" lon="1.77067">
        <ele>247</ele>
        <time>2018-07-15T10:09:32Z</time>
      </trkpt>
      <trkpt lat="43.93467" lon="1.77073">
        <ele>247</ele>
        <time>2018-07-15T10:09:33Z</time>
      </trkpt>
      <trkpt lat="43.93471" lon="1.7708">
        <ele>247</ele>
        <time>2018-07-15T10:09:34Z</time>
      </trkpt>
      <trkpt lat="43.93474" lon="1.77086">
        <ele>247</ele>
        <time>2018-07-15T10:09:35Z</time>
      </trkpt>
      <trkpt lat="43.93478" lon="1.77093">
        <ele>247</ele>
        <time>2018-07-15T10:09:36Z</time>
      </trkpt>
      <trkpt lat="43.93482" lon="1.77099">
        <ele>247</ele>
        <time>2018-07-15T10:09:37Z</time>
      </trkpt>
      <trkpt lat="43.93486" lon="1.77106">
        <ele>247</ele>
        <time>2018-07-15T10:09:38Z</time>
      </trkpt>
      <trkpt lat="43.9349" lon="1.77112">
        <ele>247</ele>
        <time>2018-07-15T10:09:39Z</time>
      </trkpt>
      <trkpt lat="43.93494" lon="1.77119">
        <ele>246</ele>
        <time>2018-07-15T10:09:40Z</time>
      </trkpt>
      <trkpt lat="43.93498" lon="1.77125">
        <ele>247</ele>
        <time>2018-07-15T10:09:41Z</time>
      </trkpt>
      <trkpt lat="43.93502" lon="1.77131">
        <ele>246</ele>
        <time>2018-07-15T10:09:42Z</time>
      </trkpt>
      <trkpt lat="43.93506" lon="1.77138">
        <ele>246</ele>
        <time>2018-07-15T10:09:43Z</time>
      </trkpt>
      <trkpt lat="43.9351" lon="1.77145">
        <ele>246</ele>
        <time>2018-07-15T10:09:44Z</time>
      </trkpt>
      <trkpt lat="43.93513" lon="1.77151">
        <ele>246</ele>
        <time>2018-07-15T10:09:45Z</time>
      </trkpt>
      <trkpt lat="43.93517" lon="1.77158">
        <ele>246</ele>
        <time>2018-07-15T10:09:46Z</time>
      </trkpt>
      <trkpt lat="43.93521" lon="1.77164">
        <ele>246</ele>
        <time>2018-07-15T10:09:47Z</time>
      </trkpt>
      <trkpt lat="43.93525" lon="1.77171">
        <ele>246</ele>
        <time>2018-07-15T10:09:48Z</time>
      </trkpt>
      <trkpt lat="43.93529" lon="1.77177">
        <ele>246</ele>
        <time>2018-07-15T10:09:49Z</time>
      </trkpt>
      <trkpt lat="43.93533" lon="1.77184">
        <ele>246</ele>
        <time>2018-07-15T10:09:50Z</time>
      </trkpt>
      <trkpt lat="43.93537" lon="1.7719">
        <ele>246</ele>
        <time>2018-07-15T10:09:51Z</time>
      </trkpt>
      <trkpt lat="43.93541" lon="1.77197">
        <ele>246</ele>
        <time>2018-07-15T10:09:52Z</time>
      </trkpt>
      <trkpt lat="43.93545" lon="1.77204">
        <ele>246</ele>
        <time>2018-07-15T10:09:53Z</time>
      </trkpt>
      <trkpt lat="43.9355" lon="1.77212">
        <ele>246</ele>
        <time>2018-07-15T10:09:54Z</time>
      </trkpt>
      <trkpt lat="43.93554" lon="1.77219">
        <ele>245</ele>
        <time>2018-07-15T10:09:55Z</time>
      </trkpt>
      <trkpt lat="43.93557" lon="1.77227">
        <ele>245</ele>
        <time>2018-07-15T10:09:56Z</time>
      </trkpt>
      <trkpt lat="43.9356" lon="1.77236">
        <ele>245</ele>
        <time>2018-07-15T10:09:57Z</time>
      </trkpt>
      <trkpt lat="43.93563" lon="1.77245">
        <ele>245</ele>
        <time>2018-07-15T10:09:58Z</time>
      </trkpt>
      <trkpt lat="43.93564" lon="1.77253">
        <ele>245</ele>
        <time>2018-07-15T10:09:59Z</time>
      </trkpt>
      <trkpt lat="43.93566" lon="1.77262">
        <ele>245</ele>
        <time>2018-07-15T10:10:00Z</time>
      </trkpt>
      <trkpt lat="43.93568" lon="1.77271">
        <ele>245</ele>
        <time>2018-07-15T10:10:01Z</time>
      </trkpt>
      <trkpt lat="43.93569" lon="1.77279">
        <ele>245</ele>
        <time>2018-07-15T10:10:02Z</time>
      </trkpt>
      <trkpt lat="43.9357" lon="1.77288">
        <ele>246</ele>
        <time>2018-07-15T10:10:03Z</time>
      </trkpt>
      <trkpt lat="43.93572" lon="1.77296">
        <ele>245</ele>
        <time>2018-07-15T10:10:04Z</time>
      </trkpt>
      <trkpt lat="43.93573" lon="1.77305">
        <ele>246</ele>
        <time>2018-07-15T10:10:05Z</time>
      </trkpt>
      <trkpt lat="43.93574" lon="1.77314">
        <ele>246</ele>
        <time>2018-07-15T10:10:06Z</time>
      </trkpt>
      <trkpt lat="43.93575" lon="1.77322">
        <ele>246</ele>
        <time>2018-07-15T10:10:07Z</time>
      </trkpt>
      <trkpt lat="43.93577" lon="1.77331">
        <ele>246</ele>
        <time>2018-07-15T10:10:08Z</time>
      </trkpt>
      <trkpt lat="43.93578" lon="1.77339">
        <ele>246</ele>
        <time>2018-07-15T10:10:09Z</time>
      </trkpt>
      <trkpt lat="43.93581" lon="1.77348">
        <ele>246</ele>
        <time>2018-07-15T10:10:10Z</time>
      </trkpt>
      <trkpt lat="43.93583" lon="1.77356">
        <ele>246</ele>
        <time>2018-07-15T10:10:11Z</time>
      </trkpt>
      <trkpt lat="43.93585" lon="1.77363">
        <ele>246</ele>
        <time>2018-07-15T10:10:12Z</time>
      </trkpt>
      <trkpt lat="43.93587" lon="1.77371">
        <ele>246</ele>
        <time>2018-07-15T10:10:13Z</time>
      </trkpt>
      <trkpt lat="43.93589" lon="1.77379">
        <ele>246</ele>
        <time>2018-07-15T10:10:14Z</time>
      </trkpt>
      <trkpt lat="43.93591" lon="1.77386">
        <ele>246</ele>
        <time>2018-07-15T10:10:15Z</time>
      </trkpt>
      <trkpt lat="43.93593" lon="1.77394">
        <ele>247</ele>
        <time>2018-07-15T10:10:16Z</time>
      </trkpt>
      <trkpt lat="43.93595" lon="1.77401">
        <ele>247</ele>
        <time>2018-07-15T10:10:17Z</time>
      </trkpt>
      <trkpt lat="43.93597" lon="1.77409">
        <ele>247</ele>
        <time>2018-07-15T10:10:18Z</time>
      </trkpt>
      <trkpt lat="43.93599" lon="1.77416">
        <ele>247</ele>
        <time>2018-07-15T10:10:19Z</time>
      </trkpt>
      <trkpt lat="43.93602" lon="1.77424">
        <ele>247</ele>
        <time>2018-07-15T10:10:20Z</time>
      </trkpt>
      <trkpt lat="43.93605" lon="1.77432">
        <ele>247</ele>
        <time>2018-07-15T10:10:21Z</time>
      </trkpt>
      <trkpt lat="43.93609" lon="1.77439">
        <ele>247</ele>
        <time>2018-07-15T10:10:22Z</time>
      </trkpt>
      <trkpt lat="43.93613" lon="1.77446">
        <ele>247</ele>
        <time>2018-07-15T10:10:23Z</time>
      </trkpt>
      <trkpt lat="43.93617" lon="1.77454">
        <ele>247</ele>
        <time>2018-07-15T10:10:24Z</time>
      </trkpt>
      <trkpt lat="43.93622" lon="1.7746">
        <ele>247</ele>
        <time>2018-07-15T10:10:25Z</time>
      </trkpt>
      <trkpt lat="43.93626" lon="1.77467">
        <ele>247</ele>
        <time>2018-07-15T10:10:26Z</time>
      </trkpt>
      <trkpt lat="43.93631" lon="1.77474">
        <ele>247</ele>
        <time>2018-07-15T10:10:27Z</time>
      </trkpt>
      <trkpt lat="43.93636" lon="1.7748">
        <ele>247</ele>
        <time>2018-07-15T10:10:28Z</time>
      </trkpt>
      <trkpt lat="43.93641" lon="1.77486">
        <ele>247</ele>
        <time>2018-07-15T10:10:29Z</time>
      </trkpt>
      <trkpt lat="43.93646" lon="1.77491">
        <ele>247</ele>
        <time>2018-07-15T10:10:30Z</time>
      </trkpt>
      <trkpt lat="43.93651" lon="1.77497">
        <ele>247</ele>
        <time>2018-07-15T10:10:31Z</time>
      </trkpt>
      <trkpt lat="43.93657" lon="1.77503">
        <ele>247</ele>
        <time>2018-07-15T10:10:32Z</time>
      </trkpt>
      <trkpt lat="43.93662" lon="1.77509">
        <ele>247</ele>
        <time>2018-07-15T10:10:33Z</time>
      </trkpt>
      <trkpt lat="43.93668" lon="1.77515">
        <ele>246</ele>
        <time>2018-07-15T10:10:34Z</time>
      </trkpt>
      <trkpt lat="43.93674" lon="1.77521">
        <ele>246</ele>
        <time>2018-07-15T10:10:35Z</time>
      </trkpt>
      <trkpt lat="43.93681" lon="1.77527">
        <ele>246</ele>
        <time>2018-07-15T10:10:36Z</time>
      </trkpt>
      <trkpt lat="43.93687" lon="1.77532">
        <ele>245</ele>
        <time>2018-07-15T10:10:37Z</time>
      </trkpt>
      <trkpt lat="43.93694" lon="1.77537">
        <ele>245</ele>
        <time>2018-07-15T10:10:38Z</time>
      </trkpt>
      <trkpt lat="43.93701" lon="1.77542">
        <ele>245</ele>
        <time>2018-07-15T10:10:39Z</time>
      </trkpt>
      <trkpt lat="43.93709" lon="1.77547">
        <ele>245</ele>
        <time>2018-07-15T10:10:40Z</time>
      </trkpt>
      <trkpt lat="43.93716" lon="1.77552">
        <ele>245</ele>
        <time>2018-07-15T10:10:41Z</time>
      </trkpt>
      <trkpt lat="43.93723" lon="1.77558">
        <ele>245</ele>
        <time>2018-07-15T10:10:42Z</time>
      </trkpt>
      <trkpt lat="43.9373" lon="1.77563">
        <ele>245</ele>
        <time>2018-07-15T10:10:43Z</time>
      </trkpt>
      <trkpt lat="43.93737" lon="1.77567">
        <ele>245</ele>
        <time>2018-07-15T10:10:44Z</time>
      </trkpt>
      <trkpt lat="43.93744" lon="1.77572">
        <ele>245</ele>
        <time>2018-07-15T10:10:45Z</time>
      </trkpt>
      <trkpt lat="43.93751" lon="1.77576">
        <ele>245</ele>
        <time>2018-07-15T10:10:46Z</time>
      </trkpt>
      <trkpt lat="43.93757" lon="1.7758">
        <ele>246</ele>
        <time>2018-07-15T10:10:47Z</time>
      </trkpt>
      <trkpt lat="43.93764" lon="1.77585">
        <ele>245</ele>
        <time>2018-07-15T10:10:48Z</time>
      </trkpt>
      <trkpt lat="43.93771" lon="1.77589">
        <ele>245</ele>
        <time>2018-07-15T10:10:49Z</time>
      </trkpt>
      <trkpt lat="43.93777" lon="1.77594">
        <ele>245</ele>
        <time>2018-07-15T10:10:50Z</time>
      </trkpt>
      <trkpt lat="43.93784" lon="1.77598">
        <ele>246</ele>
        <time>2018-07-15T10:10:51Z</time>
      </trkpt>
      <trkpt lat="43.93791" lon="1.77602">
        <ele>246</ele>
        <time>2018-07-15T10:10:52Z</time>
      </trkpt>
      <trkpt lat="43.93797" lon="1.77607">
        <ele>246</ele>
        <time>2018-07-15T10:10:53Z</time>
      </trkpt>
      <trkpt lat="43.93803" lon="1.77611">
        <ele>246</ele>
        <time>2018-07-15T10:10:54Z</time>
      </trkpt>
      <trkpt lat="43.9381" lon="1.77615">
        <ele>246</ele>
        <time>2018-07-15T10:10:55Z</time>
      </trkpt>
      <trkpt lat="43.93816" lon="1.77619">
        <ele>247</ele>
        <time>2018-07-15T10:10:56Z</time>
      </trkpt>
      <trkpt lat="43.93822" lon="1.77624">
        <ele>247</ele>
        <time>2018-07-15T10:10:57Z</time>
      </trkpt>
      <trkpt lat="43.93828" lon="1.77628">
        <ele>248</ele>
        <time>2018-07-15T10:10:58Z</time>
      </trkpt>
      <trkpt lat="43.93834" lon="1.77632">
        <ele>248</ele>
        <time>2018-07-15T10:10:59Z</time>
      </trkpt>
      <trkpt lat="43.9384" lon="1.77637">
        <ele>248</ele>
        <time>2018-07-15T10:11:00Z</time>
      </trkpt>
      <trkpt lat="43.93846" lon="1.77641">
        <ele>249</ele>
        <time>2018-07-15T10:11:01Z</time>
      </trkpt>
      <trkpt lat="43.93853" lon="1.77645">
        <ele>249</ele>
        <time>2018-07-15T10:11:02Z</time>
      </trkpt>
      <trkpt lat="43.93859" lon="1.77649">
        <ele>250</ele>
        <time>2018-07-15T10:11:03Z</time>
      </trkpt>
      <trkpt lat="43.93865" lon="1.77653">
        <ele>250</ele>
        <time>2018-07-15T10:11:04Z</time>
      </trkpt>
      <trkpt lat="43.93871" lon="1.77657">
        <ele>250</ele>
        <time>2018-07-15T10:11:05Z</time>
      </trkpt>
      <trkpt lat="43.93877" lon="1.77661">
        <ele>250</ele>
        <time>2018-07-15T10:11:06Z</time>
      </trkpt>
      <trkpt lat="43.93883" lon="1.77665">
        <ele>250</ele>
        <time>2018-07-15T10:11:07Z</time>
      </trkpt>
      <trkpt lat="43.93889" lon="1.7767">
        <ele>251</ele>
        <time>2018-07-15T10:11:08Z</time>
      </trkpt>
      <trkpt lat="43.93895" lon="1.77674">
        <ele>251</ele>
        <time>2018-07-15T10:11:09Z</time>
      </trkpt>
      <trkpt lat="43.93901" lon="1.77679">
        <ele>251</ele>
        <time>2018-07-15T10:11:10Z</time>
      </trkpt>
      <trkpt lat="43.93908" lon="1.77683">
        <ele>251</ele>
        <time>2018-07-15T10:11:11Z</time>
      </trkpt>
      <trkpt lat="43.93914" lon="1.77688">
        <ele>251</ele>
        <time>2018-07-15T10:11:12Z</time>
      </trkpt>
      <trkpt lat="43.9392" lon="1.77692">
        <ele>252</ele>
        <time>2018-07-15T10:11:13Z</time>
      </trkpt>
      <trkpt lat="43.93926" lon="1.77697">
        <ele>252</ele>
        <time>2018-07-15T10:11:14Z</time>
      </trkpt>
      <trkpt lat="43.93932" lon="1.77701">
        <ele>252</ele>
        <time>2018-07-15T10:11:15Z</time>
      </trkpt>
      <trkpt lat="43.93937" lon="1.77706">
        <ele>252</ele>
        <time>2018-07-15T10:11:16Z</time>
      </trkpt>
      <trkpt lat="43.93943" lon="1.77711">
        <ele>252</ele>
        <time>2018-07-15T10:11:17Z</time>
      </trkpt>
      <trkpt lat="43.93948" lon="1.77717">
        <ele>253</ele>
        <time>2018-07-15T10:11:18Z</time>
      </trkpt>
      <trkpt lat="43.93953" lon="1.77722">
        <ele>253</ele>
        <time>2018-07-15T10:11:19Z</time>
      </trkpt>
      <trkpt lat="43.93958" lon="1.77727">
        <ele>253</ele>
        <time>2018-07-15T10:11:20Z</time>
      </trkpt>
      <trkpt lat="43.93963" lon="1.77731">
        <ele>254</ele>
        <time>2018-07-15T10:11:21Z</time>
      </trkpt>
      <trkpt lat="43.93967" lon="1.77735">
        <ele>254</ele>
        <time>2018-07-15T10:11:22Z</time>
      </trkpt>
      <trkpt lat="43.93972" lon="1.77738">
        <ele>254</ele>
        <time>2018-07-15T10:11:23Z</time>
      </trkpt>
      <trkpt lat="43.93978" lon="1.77742">
        <ele>254</ele>
        <time>2018-07-15T10:11:24Z</time>
      </trkpt>
      <trkpt lat="43.93983" lon="1.77744">
        <ele>254</ele>
        <time>2018-07-15T10:11:25Z</time>
      </trkpt>
      <trkpt lat="43.93989" lon="1.77747">
        <ele>253</ele>
        <time>2018-07-15T10:11:26Z</time>
      </trkpt>
      <trkpt lat="43.93995" lon="1.77749">
        <ele>253</ele>
        <time>2018-07-15T10:11:27Z</time>
      </trkpt>
      <trkpt lat="43.94002" lon="1.77752">
        <ele>252</ele>
        <time>2018-07-15T10:11:28Z</time>
      </trkpt>
      <trkpt lat="43.94009" lon="1.77753">
        <ele>252</ele>
        <time>2018-07-15T10:11:29Z</time>
      </trkpt>
      <trkpt lat="43.94017" lon="1.77755">
        <ele>251</ele>
        <time>2018-07-15T10:11:30Z</time>
      </trkpt>
      <trkpt lat="43.94024" lon="1.77756">
        <ele>251</ele>
        <time>2018-07-15T10:11:31Z</time>
      </trkpt>
      <trkpt lat="43.94032" lon="1.77758">
        <ele>250</ele>
        <time>2018-07-15T10:11:32Z</time>
      </trkpt>
      <trkpt lat="43.94041" lon="1.7776">
        <ele>249</ele>
        <time>2018-07-15T10:11:33Z</time>
      </trkpt>
      <trkpt lat="43.9405" lon="1.77761">
        <ele>249</ele>
        <time>2018-07-15T10:11:34Z</time>
      </trkpt>
      <trkpt lat="43.94059" lon="1.77763">
        <ele>248</ele>
        <time>2018-07-15T10:11:35Z</time>
      </trkpt>
      <trkpt lat="43.94068" lon="1.77766">
        <ele>248</ele>
        <time>2018-07-15T10:11:36Z</time>
      </trkpt>
      <trkpt lat="43.94077" lon="1.7777">
        <ele>247</ele>
        <time>2018-07-15T10:11:37Z</time>
      </trkpt>
      <trkpt lat="43.94086" lon="1.77773">
        <ele>246</ele>
        <time>2018-07-15T10:11:38Z</time>
      </trkpt>
      <trkpt lat="43.94094" lon="1.77776">
        <ele>246</ele>
        <time>2018-07-15T10:11:39Z</time>
      </trkpt>
      <trkpt lat="43.94102" lon="1.7778">
        <ele>245</ele>
        <time>2018-07-15T10:11:40Z</time>
      </trkpt>
      <trkpt lat="43.9411" lon="1.77785">
        <ele>245</ele>
        <time>2018-07-15T10:11:41Z</time>
      </trkpt>
      <trkpt lat="43.94117" lon="1.77789">
        <ele>245</ele>
        <time>2018-07-15T10:11:42Z</time>
      </trkpt>
      <trkpt lat="43.94124" lon="1.77794">
        <ele>245</ele>
        <time>2018-07-15T10:11:43Z</time>
      </trkpt>
      <trkpt lat="43.94131" lon="1.77799">
        <ele>244</ele>
        <time>2018-07-15T10:11:44Z</time>
      </trkpt>
      <trkpt lat="43.94138" lon="1.77804">
        <ele>244</ele>
        <time>2018-07-15T10:11:45Z</time>
      </trkpt>
      <trkpt lat="43.94144" lon="1.77809">
        <ele>245</ele>
        <time>2018-07-15T10:11:46Z</time>
      </trkpt>
      <trkpt lat="43.94151" lon="1.77814">
        <ele>245</ele>
        <time>2018-07-15T10:11:47Z</time>
      </trkpt>
      <trkpt lat="43.94158" lon="1.77819">
        <ele>245</ele>
        <time>2018-07-15T10:11:48Z</time>
      </trkpt>
      <trkpt lat="43.94164" lon="1.77823">
        <ele>245</ele>
        <time>2018-07-15T10:11:49Z</time>
      </trkpt>
      <trkpt lat="43.94171" lon="1.77828">
        <ele>245</ele>
        <time>2018-07-15T10:11:50Z</time>
      </trkpt>
      <trkpt lat="43.94177" lon="1.77832">
        <ele>245</ele>
        <time>2018-07-15T10:11:51Z</time>
      </trkpt>
      <trkpt lat="43.94183" lon="1.77836">
        <ele>245</ele>
        <time>2018-07-15T10:11:52Z</time>
      </trkpt>
      <trkpt lat="43.94189" lon="1.77841">
        <ele>245</ele>
        <time>2018-07-15T10:11:53Z</time>
      </trkpt>
      <trkpt lat="43.94195" lon="1.77846">
        <ele>245</ele>
        <time>2018-07-15T10:11:54Z</time>
      </trkpt>
      <trkpt lat="43.94202" lon="1.7785">
        <ele>245</ele>
        <time>2018-07-15T10:11:55Z</time>
      </trkpt>
      <trkpt lat="43.94208" lon="1.77855">
        <ele>245</ele>
        <time>2018-07-15T10:11:56Z</time>
      </trkpt>
      <trkpt lat="43.94214" lon="1.7786">
        <ele>245</ele>
        <time>2018-07-15T10:11:57Z</time>
      </trkpt>
      <trkpt lat="43.9422" lon="1.77866">
        <ele>244</ele>
        <time>2018-07-15T10:11:58Z</time>
      </trkpt>
      <trkpt lat="43.94226" lon="1.77873">
        <ele>244</ele>
        <time>2018-07-15T10:11:59Z</time>
      </trkpt>
      <trkpt lat="43.94231" lon="1.7788">
        <ele>244</ele>
        <time>2018-07-15T10:12:00Z</time>
      </trkpt>
      <trkpt lat="43.94236" lon="1.77889">
        <ele>244</ele>
        <time>2018-07-15T10:12:01Z</time>
      </trkpt>
      <trkpt lat="43.94241" lon="1.77897">
        <ele>243</ele>
        <time>2018-07-15T10:12:02Z</time>
      </trkpt>
      <trkpt lat="43.94244" lon="1.77907">
        <ele>243</ele>
        <time>2018-07-15T10:12:03Z</time>
      </trkpt>
      <trkpt lat="43.94247" lon="1.77917">
        <ele>243</ele>
        <time>2018-07-15T10:12:04Z</time>
      </trkpt>
      <trkpt lat="43.9425" lon="1.77927">
        <ele>243</ele>
        <time>2018-07-15T10:12:05Z</time>
      </trkpt>
      <trkpt lat="43.94252" lon="1.77938">
        <ele>243</ele>
        <time>2018-07-15T10:12:06Z</time>
      </trkpt>
      <trkpt lat="43.94254" lon="1.77949">
        <ele>243</ele>
        <time>2018-07-15T10:12:07Z</time>
      </trkpt>
      <trkpt lat="43.94255" lon="1.7796">
        <ele>243</ele>
        <time>2018-07-15T10:12:08Z</time>
      </trkpt>
      <trkpt lat="43.94256" lon="1.77971">
        <ele>243</ele>
        <time>2018-07-15T10:12:09Z</time>
      </trkpt>
      <trkpt lat="43.94257" lon="1.77981">
        <ele>243</ele>
        <time>2018-07-15T10:12:10Z</time>
      </trkpt>
      <trkpt lat="43.94257" lon="1.77992">
        <ele>243</ele>
        <time>2018-07-15T10:12:11Z</time>
      </trkpt>
      <trkpt lat="43.94256" lon="1.78003">
        <ele>243</ele>
        <time>2018-07-15T10:12:12Z</time>
      </trkpt>
      <trkpt lat="43.94255" lon="1.78013">
        <ele>244</ele>
        <time>2018-07-15T10:12:13Z</time>
      </trkpt>
      <trkpt lat="43.94254" lon="1.78023">
        <ele>244</ele>
        <time>2018-07-15T10:12:14Z</time>
      </trkpt>
      <trkpt lat="43.94252" lon="1.78032">
        <ele>244</ele>
        <time>2018-07-15T10:12:15Z</time>
      </trkpt>
      <trkpt lat="43.9425" lon="1.78042">
        <ele>244</ele>
        <time>2018-07-15T10:12:16Z</time>
      </trkpt>
      <trkpt lat="43.94249" lon="1.78051">
        <ele>245</ele>
        <time>2018-07-15T10:12:17Z</time>
      </trkpt>
      <trkpt lat="43.94247" lon="1.78061">
        <ele>245</ele>
        <time>2018-07-15T10:12:18Z</time>
      </trkpt>
      <trkpt lat="43.94245" lon="1.7807">
        <ele>246</ele>
        <time>2018-07-15T10:12:19Z</time>
      </trkpt>
      <trkpt lat="43.94243" lon="1.78079">
        <ele>246</ele>
        <time>2018-07-15T10:12:20Z</time>
      </trkpt>
      <trkpt lat="43.94241" lon="1.78088">
        <ele>246</ele>
        <time>2018-07-15T10:12:21Z</time>
      </trkpt>
      <trkpt lat="43.94239" lon="1.78098">
        <ele>246</ele>
        <time>2018-07-15T10:12:22Z</time>
      </trkpt>
      <trkpt lat="43.94237" lon="1.78106">
        <ele>247</ele>
        <time>2018-07-15T10:12:23Z</time>
      </trkpt>
      <trkpt lat="43.94234" lon="1.78115">
        <ele>247</ele>
        <time>2018-07-15T10:12:24Z</time>
      </trkpt>
      <trkpt lat="43.94232" lon="1.78124">
        <ele>247</ele>
        <time>2018-07-15T10:12:25Z</time>
      </trkpt>
      <trkpt lat="43.9423" lon="1.78132">
        <ele>248</ele>
        <time>2018-07-15T10:12:26Z</time>
      </trkpt>
      <trkpt lat="43.94228" lon="1.78141">
        <ele>248</ele>
        <time>2018-07-15T10:12:27Z</time>
      </trkpt>
      <trkpt lat="43.94226" lon="1.78149">
        <ele>248</ele>
        <time>2018-07-15T10:12:28Z</time>
      </trkpt>
      <trkpt lat="43.94223" lon="1.78158">
        <ele>248</ele>
        <time>2018-07-15T10:12:29Z</time>
      </trkpt>
      <trkpt lat="43.94221" lon="1.78166">
        <ele>248</ele>
        <time>2018-07-15T10:12:30Z</time>
      </trkpt>
      <trkpt lat="43.94218" lon="1.78175">
        <ele>248</ele>
        <time>2018-07-15T10:12:31Z</time>
      </trkpt>
      <trkpt lat="43.94215" lon="1.78182">
        <ele>248</ele>
        <time>2018-07-15T10:12:32Z</time>
      </trkpt>
      <trkpt lat="43.94212" lon="1.7819">
        <ele>248</ele>
        <time>2018-07-15T10:12:33Z</time>
      </trkpt>
      <trkpt lat="43.94208" lon="1.78197">
        <ele>248</ele>
        <time>2018-07-15T10:12:34Z</time>
      </trkpt>
      <trkpt lat="43.94204" lon="1.78204">
        <ele>248</ele>
        <time>2018-07-15T10:12:35Z</time>
      </trkpt>
      <trkpt lat="43.942" lon="1.7821">
        <ele>249</ele>
        <time>2018-07-15T10:12:36Z</time>
      </trkpt>
      <trkpt lat="43.94196" lon="1.78217">
        <ele>249</ele>
        <time>2018-07-15T10:12:37Z</time>
      </trkpt>
      <trkpt lat="43.94192" lon="1.78222">
        <ele>250</ele>
        <time>2018-07-15T10:12:38Z</time>
      </trkpt>
      <trkpt lat="43.94189" lon="1.78228">
        <ele>250</ele>
        <time>2018-07-15T10:12:39Z</time>
      </trkpt>
      <trkpt lat="43.94185" lon="1.78233">
        <ele>250</ele>
        <time>2018-07-15T10:12:40Z</time>
      </trkpt>
      <trkpt lat="43.94181" lon="1.78237">
        <ele>250</ele>
        <time>2018-07-15T10:12:41Z</time>
      </trkpt>
      <trkpt lat="43.94178" lon="1.78242">
        <ele>251</ele>
        <time>2018-07-15T10:12:42Z</time>
      </trkpt>
      <trkpt lat="43.94174" lon="1.78246">
        <ele>251</ele>
        <time>2018-07-15T10:12:43Z</time>
      </trkpt>
      <trkpt lat="43.9417" lon="1.78251">
        <ele>251</ele>
        <time>2018-07-15T10:12:44Z</time>
      </trkpt>
      <trkpt lat="43.94166" lon="1.78255">
        <ele>251</ele>
        <time>2018-07-15T10:12:45Z</time>
      </trkpt>
      <trkpt lat="43.94163" lon="1.78259">
        <ele>251</ele>
        <time>2018-07-15T10:12:46Z</time>
      </trkpt>
      <trkpt lat="43.94158" lon="1.78262">
        <ele>251</ele>
        <time>2018-07-15T10:12:47Z</time>
      </trkpt>
      <trkpt lat="43.94154" lon="1.78266">
        <ele>251</ele>
        <time>2018-07-15T10:12:48Z</time>
      </trkpt>
      <trkpt lat="43.9415" lon="1.7827">
        <ele>251</ele>
        <time>2018-07-15T10:12:49Z</time>
      </trkpt>
      <trkpt lat="43.94146" lon="1.78274">
        <ele>251</ele>
        <time>2018-07-15T10:12:50Z</time>
      </trkpt>
      <trkpt lat="43.94142" lon="1.78279">
        <ele>251</ele>
        <time>2018-07-15T10:12:51Z</time>
      </trkpt>
      <trkpt lat="43.94138" lon="1.78283">
        <ele>251</ele>
        <time>2018-07-15T10:12:52Z</time>
      </trkpt>
      <trkpt lat="43.94134" lon="1.78287">
        <ele>251</ele>
        <time>2018-07-15T10:12:53Z</time>
      </trkpt>
      <trkpt lat="43.94129" lon="1.78291">
        <ele>251</ele>
        <time>2018-07-15T10:12:54Z</time>
      </trkpt>
      <trkpt lat="43.94125" lon="1.78295">
        <ele>251</ele>
        <time>2018-07-15T10:12:55Z</time>
      </trkpt>
      <trkpt lat="43.9412" lon="1.78299">
        <ele>251</ele>
        <time>2018-07-15T10:12:56Z</time>
      </trkpt>
      <trkpt lat="43.94116" lon="1.78303">
        <ele>250</ele>
        <time>2018-07-15T10:12:57Z</time>
      </trkpt>
      <trkpt lat="43.94112" lon="1.78307">
        <ele>250</ele>
        <time>2018-07-15T10:12:58Z</time>
      </trkpt>
      <trkpt lat="43.94107" lon="1.78311">
        <ele>250</ele>
        <time>2018-07-15T10:12:59Z</time>
      </trkpt>
      <trkpt lat="43.94102" lon="1.78316">
        <ele>250</ele>
        <time>2018-07-15T10:13:00Z</time>
      </trkpt>
      <trkpt lat="43.94097" lon="1.7832">
        <ele>250</ele>
        <time>2018-07-15T10:13:01Z</time>
      </trkpt>
      <trkpt lat="43.94093" lon="1.78324">
        <ele>250</ele>
        <time>2018-07-15T10:13:02Z</time>
      </trkpt>
      <trkpt lat="43.94088" lon="1.78328">
        <ele>250</ele>
        <time>2018-07-15T10:13:03Z</time>
      </trkpt>
      <trkpt lat="43.94083" lon="1.78332">
        <ele>251</ele>
        <time>2018-07-15T10:13:04Z</time>
      </trkpt>
      <trkpt lat="43.94079" lon="1.78336">
        <ele>250</ele>
        <time>2018-07-15T10:13:05Z</time>
      </trkpt>
      <trkpt lat="43.94075" lon="1.7834">
        <ele>250</ele>
        <time>2018-07-15T10:13:06Z</time>
      </trkpt>
      <trkpt lat="43.94071" lon="1.78344">
        <ele>250</ele>
        <time>2018-07-15T10:13:07Z</time>
      </trkpt>
      <trkpt lat="43.94067" lon="1.78348">
        <ele>250</ele>
        <time>2018-07-15T10:13:08Z</time>
      </trkpt>
      <trkpt lat="43.94064" lon="1.78352">
        <ele>250</ele>
        <time>2018-07-15T10:13:09Z</time>
      </trkpt>
      <trkpt lat="43.9406" lon="1.78356">
        <ele>250</ele>
        <time>2018-07-15T10:13:10Z</time>
      </trkpt>
      <trkpt lat="43.94056" lon="1.7836">
        <ele>250</ele>
        <time>2018-07-15T10:13:11Z</time>
      </trkpt>
      <trkpt lat="43.94053" lon="1.78364">
        <ele>250</ele>
        <time>2018-07-15T10:13:12Z</time>
      </trkpt>
      <trkpt lat="43.94049" lon="1.78367">
        <ele>251</ele>
        <time>2018-07-15T10:13:13Z</time>
      </trkpt>
      <trkpt lat="43.94045" lon="1.7837">
        <ele>251</ele>
        <time>2018-07-15T10:13:14Z</time>
      </trkpt>
      <trkpt lat="43.94043" lon="1.78375">
        <ele>251</ele>
        <time>2018-07-15T10:13:15Z</time>
      </trkpt>
      <trkpt lat="43.94041" lon="1.7838">
        <ele>251</ele>
        <time>2018-07-15T10:13:16Z</time>
      </trkpt>
      <trkpt lat="43.9404" lon="1.78385">
        <ele>251</ele>
        <time>2018-07-15T10:13:17Z</time>
      </trkpt>
      <trkpt lat="43.9404" lon="1.7839">
        <ele>251</ele>
        <time>2018-07-15T10:13:18Z</time>
      </trkpt>
      <trkpt lat="43.9404" lon="1.78395">
        <ele>251</ele>
        <time>2018-07-15T10:13:19Z</time>
      </trkpt>
      <trkpt lat="43.94041" lon="1.784">
        <ele>251</ele>
        <time>2018-07-15T10:13:20Z</time>
      </trkpt>
      <trkpt lat="43.94042" lon="1.78405">
        <ele>251</ele>
        <time>2018-07-15T10:13:21Z</time>
      </trkpt>
      <trkpt lat="43.94043" lon="1.7841">
        <ele>251</ele>
        <time>2018-07-15T10:13:22Z</time>
      </trkpt>
      <trkpt lat="43.94044" lon="1.78415">
        <ele>251</ele>
        <time>2018-07-15T10:13:23Z</time>
      </trkpt>
      <trkpt lat="43.94046" lon="1.7842">
        <ele>251</ele>
        <time>2018-07-15T10:13:24Z</time>
      </trkpt>
      <trkpt lat="43.94047" lon="1.78425">
        <ele>251</ele>
        <time>2018-07-15T10:13:25Z</time>
      </trkpt>
      <trkpt lat="43.94048" lon="1.78431">
        <ele>251</ele>
        <time>2018-07-15T10:13:26Z</time>
      </trkpt>
      <trkpt lat="43.94049" lon="1.78436">
        <ele>251</ele>
        <time>2018-07-15T10:13:27Z</time>
      </trkpt>
      <trkpt lat="43.9405" lon="1.78442">
        <ele>251</ele>
        <time>2018-07-15T10:13:28Z</time>
      </trkpt>
      <trkpt lat="43.94052" lon="1.78447">
        <ele>251</ele>
        <time>2018-07-15T10:13:29Z</time>
      </trkpt>
      <trkpt lat="43.94053" lon="1.78452">
        <ele>250</ele>
        <time>2018-07-15T10:13:30Z</time>
      </trkpt>
      <trkpt lat="43.94054" lon="1.78457">
        <ele>250</ele>
        <time>2018-07-15T10:13:31Z</time>
      </trkpt>
      <trkpt lat="43.94055" lon="1.78463">
        <ele>250</ele>
        <time>2018-07-15T10:13:32Z</time>
      </trkpt>
      <trkpt lat="43.94057" lon="1.78469">
        <ele>250</ele>
        <time>2018-07-15T10:13:33Z</time>
      </trkpt>
      <trkpt lat="43.94058" lon="1.78476">
        <ele>250</ele>
        <time>2018-07-15T10:13:34Z</time>
      </trkpt>
      <trkpt lat="43.9406" lon="1.78482">
        <ele>249</ele>
        <time>2018-07-15T10:13:35Z</time>
      </trkpt>
      <trkpt lat="43.94061" lon="1.78489">
        <ele>249</ele>
        <time>2018-07-15T10:13:36Z</time>
      </trkpt>
      <trkpt lat="43.94063" lon="1.78497">
        <ele>249</ele>
        <time>2018-07-15T10:13:37Z</time>
      </trkpt>
      <trkpt lat="43.94065" lon="1.78504">
        <ele>249</ele>
        <time>2018-07-15T10:13:38Z</time>
      </trkpt>
      <trkpt lat="43.94066" lon="1.78511">
        <ele>249</ele>
        <time>2018-07-15T10:13:39Z</time>
      </trkpt>
      <trkpt lat="43.94067" lon="1.78518">
        <ele>249</ele>
        <time>2018-07-15T10:13:40Z</time>
      </trkpt>
      <trkpt lat="43.94069" lon="1.78525">
        <ele>249</ele>
        <time>2018-07-15T10:13:41Z</time>
      </trkpt>
      <trkpt lat="43.94071" lon="1.78533">
        <ele>248</ele>
        <time>2018-07-15T10:13:42Z</time>
      </trkpt>
      <trkpt lat="43.94072" lon="1.78541">
        <ele>248</ele>
        <time>2018-07-15T10:13:43Z</time>
      </trkpt>
      <trkpt lat="43.94074" lon="1.78549">
        <ele>248</ele>
        <time>2018-07-15T10:13:44Z</time>
      </trkpt>
      <trkpt lat="43.94076" lon="1.78557">
        <ele>247</ele>
        <time>2018-07-15T10:13:45Z</time>
      </trkpt>
      <trkpt lat="43.94078" lon="1.78566">
        <ele>248</ele>
        <time>2018-07-15T10:13:46Z</time>
      </trkpt>
      <trkpt lat="43.94079" lon="1.78575">
        <ele>248</ele>
        <time>2018-07-15T10:13:47Z</time>
      </trkpt>
      <trkpt lat="43.9408" lon="1.78585">
        <ele>248</ele>
        <time>2018-07-15T10:13:48Z</time>
      </trkpt>
      <trkpt lat="43.9408" lon="1.78595">
        <ele>248</ele>
        <time>2018-07-15T10:13:49Z</time>
      </trkpt>
      <trkpt lat="43.94081" lon="1.78605">
        <ele>248</ele>
        <time>2018-07-15T10:13:50Z</time>
      </trkpt>
      <trkpt lat="43.94081" lon="1.78615">
        <ele>247</ele>
        <time>2018-07-15T10:13:51Z</time>
      </trkpt>
      <trkpt lat="43.94082" lon="1.78626">
        <ele>247</ele>
        <time>2018-07-15T10:13:52Z</time>
      </trkpt>
      <trkpt lat="43.94082" lon="1.78636">
        <ele>246</ele>
        <time>2018-07-15T10:13:53Z</time>
      </trkpt>
      <trkpt lat="43.94082" lon="1.78647">
        <ele>246</ele>
        <time>2018-07-15T10:13:54Z</time>
      </trkpt>
      <trkpt lat="43.94083" lon="1.78658">
        <ele>245</ele>
        <time>2018-07-15T10:13:55Z</time>
      </trkpt>
      <trkpt lat="43.94085" lon="1.78669">
        <ele>244</ele>
        <time>2018-07-15T10:13:56Z</time>
      </trkpt>
      <trkpt lat="43.94087" lon="1.7868">
        <ele>244</ele>
        <time>2018-07-15T10:13:57Z</time>
      </trkpt>
      <trkpt lat="43.94091" lon="1.78692">
        <ele>243</ele>
        <time>2018-07-15T10:13:58Z</time>
      </trkpt>
      <trkpt lat="43.94094" lon="1.78704">
        <ele>243</ele>
        <time>2018-07-15T10:13:59Z</time>
      </trkpt>
      <trkpt lat="43.94099" lon="1.78714">
        <ele>242</ele>
        <time>2018-07-15T10:14:00Z</time>
      </trkpt>
      <trkpt lat="43.94104" lon="1.78725">
        <ele>241</ele>
        <time>2018-07-15T10:14:01Z</time>
      </trkpt>
      <trkpt lat="43.9411" lon="1.78736">
        <ele>240</ele>
        <time>2018-07-15T10:14:02Z</time>
      </trkpt>
      <trkpt lat="43.94116" lon="1.78746">
        <ele>240</ele>
        <time>2018-07-15T10:14:03Z</time>
      </trkpt>
      <trkpt lat="43.94122" lon="1.78756">
        <ele>240</ele>
        <time>2018-07-15T10:14:04Z</time>
      </trkpt>
      <trkpt lat="43.94129" lon="1.78765">
        <ele>239</ele>
        <time>2018-07-15T10:14:05Z</time>
      </trkpt>
      <trkpt lat="43.94137" lon="1.78774">
        <ele>239</ele>
        <time>2018-07-15T10:14:06Z</time>
      </trkpt>
      <trkpt lat="43.94144" lon="1.78782">
        <ele>239</ele>
        <time>2018-07-15T10:14:07Z</time>
      </trkpt>
      <trkpt lat="43.94152" lon="1.78791">
        <ele>239</ele>
        <time>2018-07-15T10:14:08Z</time>
      </trkpt>
      <trkpt lat="43.94159" lon="1.78799">
        <ele>239</ele>
        <time>2018-07-15T10:14:09Z</time>
      </trkpt>
      <trkpt lat="43.94167" lon="1.78807">
        <ele>238</ele>
        <time>2018-07-15T10:14:10Z</time>
      </trkpt>
      <trkpt lat="43.94174" lon="1.78815">
        <ele>239</ele>
        <time>2018-07-15T10:14:11Z</time>
      </trkpt>
      <trkpt lat="43.94181" lon="1.78823">
        <ele>239</ele>
        <time>2018-07-15T10:14:12Z</time>
      </trkpt>
      <trkpt lat="43.94187" lon="1.7883">
        <ele>240</ele>
        <time>2018-07-15T10:14:13Z</time>
      </trkpt>
      <trkpt lat="43.94193" lon="1.78838">
        <ele>241</ele>
        <time>2018-07-15T10:14:14Z</time>
      </trkpt>
      <trkpt lat="43.94198" lon="1.78844">
        <ele>241</ele>
        <time>2018-07-15T10:14:15Z</time>
      </trkpt>
      <trkpt lat="43.94204" lon="1.7885">
        <ele>242</ele>
        <time>2018-07-15T10:14:16Z</time>
      </trkpt>
      <trkpt lat="43.94209" lon="1.78855">
        <ele>243</ele>
        <time>2018-07-15T10:14:17Z</time>
      </trkpt>
      <trkpt lat="43.94213" lon="1.78859">
        <ele>244</ele>
        <time>2018-07-15T10:14:18Z</time>
      </trkpt>
      <trkpt lat="43.94217" lon="1.78864">
        <ele>245</ele>
        <time>2018-07-15T10:14:19Z</time>
      </trkpt>
      <trkpt lat="43.94221" lon="1.78867">
        <ele>246</ele>
        <time>2018-07-15T10:14:20Z</time>
      </trkpt>
      <trkpt lat="43.94225" lon="1.7887">
        <ele>246</ele>
        <time>2018-07-15T10:14:21Z</time>
      </trkpt>
      <trkpt lat="43.94229" lon="1.78873">
        <ele>247</ele>
        <time>2018-07-15T10:14:22Z</time>
      </trkpt>
      <trkpt lat="43.94233" lon="1.78875">
        <ele>247</ele>
        <time>2018-07-15T10:14:23Z</time>
      </trkpt>
      <trkpt lat="43.94236" lon="1.78877">
        <ele>247</ele>
        <time>2018-07-15T10:14:24Z</time>
      </trkpt>
      <trkpt lat="43.9424" lon="1.78878">
        <ele>248</ele>
        <time>2018-07-15T10:14:25Z</time>
      </trkpt>
      <trkpt lat="43.94244" lon="1.78878">
        <ele>248</ele>
        <time>2018-07-15T10:14:26Z</time>
      </trkpt>
      <trkpt lat="43.94248" lon="1.78878">
        <ele>248</ele>
        <time>2018-07-15T10:14:27Z</time>
      </trkpt>
      <trkpt lat="43.94252" lon="1.78877">
        <ele>249</ele>
        <time>2018-07-15T10:14:28Z</time>
      </trkpt>
      <trkpt lat="43.94256" lon="1.78875">
        <ele>249</ele>
        <time>2018-07-15T10:14:29Z</time>
      </trkpt>
      <trkpt lat="43.94259" lon="1.78873">
        <ele>249</ele>
        <time>2018-07-15T10:14:30Z</time>
      </trkpt>
      <trkpt lat="43.94263" lon="1.78871">
        <ele>250</ele>
        <time>2018-07-15T10:14:31Z</time>
      </trkpt>
      <trkpt lat="43.94267" lon="1.78868">
        <ele>250</ele>
        <time>2018-07-15T10:14:32Z</time>
      </trkpt>
      <trkpt lat="43.9427" lon="1.78865">
        <ele>250</ele>
        <time>2018-07-15T10:14:33Z</time>
      </trkpt>
      <trkpt lat="43.94274" lon="1.78863">
        <ele>250</ele>
        <time>2018-07-15T10:14:34Z</time>
      </trkpt>
      <trkpt lat="43.94277" lon="1.78861">
        <ele>250</ele>
        <time>2018-07-15T10:14:35Z</time>
      </trkpt>
      <trkpt lat="43.94281" lon="1.78859">
        <ele>251</ele>
        <time>2018-07-15T10:14:36Z</time>
      </trkpt>
      <trkpt lat="43.94284" lon="1.78856">
        <ele>251</ele>
        <time>2018-07-15T10:14:37Z</time>
      </trkpt>
      <trkpt lat="43.94287" lon="1.78854">
        <ele>251</ele>
        <time>2018-07-15T10:14:38Z</time>
      </trkpt>
      <trkpt lat="43.9429" lon="1.78851">
        <ele>251</ele>
        <time>2018-07-15T10:14:39Z</time>
      </trkpt>
      <trkpt lat="43.94294" lon="1.78849">
        <ele>251</ele>
        <time>2018-07-15T10:14:40Z</time>
      </trkpt>
      <trkpt lat="43.94297" lon="1.78847">
        <ele>251</ele>
        <time>2018-07-15T10:14:41Z</time>
      </trkpt>
      <trkpt lat="43.94301" lon="1.78844">
        <ele>251</ele>
        <time>2018-07-15T10:14:42Z</time>
      </trkpt>
      <trkpt lat="43.94304" lon="1.7884">
        <ele>252</ele>
        <time>2018-07-15T10:14:43Z</time>
      </trkpt>
      <trkpt lat="43.94307" lon="1.78837">
        <ele>252</ele>
        <time>2018-07-15T10:14:44Z</time>
      </trkpt>
      <trkpt lat="43.94311" lon="1.78835">
        <ele>252</ele>
        <time>2018-07-15T10:14:45Z</time>
      </trkpt>
      <trkpt lat="43.94315" lon="1.78833">
        <ele>252</ele>
        <time>2018-07-15T10:14:46Z</time>
      </trkpt>
      <trkpt lat="43.94319" lon="1.78831">
        <ele>252</ele>
        <time>2018-07-15T10:14:47Z</time>
      </trkpt>
      <trkpt lat="43.94322" lon="1.78829">
        <ele>253</ele>
        <time>2018-07-15T10:14:48Z</time>
      </trkpt>
      <trkpt lat="43.94326" lon="1.78828">
        <ele>253</ele>
        <time>2018-07-15T10:14:49Z</time>
      </trkpt>
      <trkpt lat="43.9433" lon="1.78827">
        <ele>253</ele>
        <time>2018-07-15T10:14:50Z</time>
      </trkpt>
      <trkpt lat="43.94334" lon="1.78827">
        <ele>253</ele>
        <time>2018-07-15T10:14:51Z</time>
      </trkpt>
      <trkpt lat="43.94338" lon="1.78828">
        <ele>253</ele>
        <time>2018-07-15T10:14:52Z</time>
      </trkpt>
      <trkpt lat="43.94341" lon="1.7883">
        <ele>254</ele>
        <time>2018-07-15T10:14:53Z</time>
      </trkpt>
      <trkpt lat="43.94344" lon="1.78833">
        <ele>254</ele>
        <time>2018-07-15T10:14:54Z</time>
      </trkpt>
      <trkpt lat="43.94347" lon="1.78836">
        <ele>254</ele>
        <time>2018-07-15T10:14:55Z</time>
      </trkpt>
      <trkpt lat="43.94349" lon="1.78841">
        <ele>254</ele>
        <time>2018-07-15T10:14:56Z</time>
      </trkpt>
      <trkpt lat="43.94351" lon="1.78845">
        <ele>255</ele>
        <time>2018-07-15T10:14:57Z</time>
      </trkpt>
      <trkpt lat="43.94352" lon="1.7885">
        <ele>255</ele>
        <time>2018-07-15T10:14:58Z</time>
      </trkpt>
      <trkpt lat="43.94353" lon="1.78855">
        <ele>255</ele>
        <time>2018-07-15T10:14:59Z</time>
      </trkpt>
      <trkpt lat="43.94353" lon="1.7886">
        <ele>256</ele>
        <time>2018-07-15T10:15:00Z</time>
      </trkpt>
      <trkpt lat="43.94353" lon="1.78865">
        <ele>256</ele>
        <time>2018-07-15T10:15:01Z</time>
      </trkpt>
      <trkpt lat="43.94353" lon="1.7887">
        <ele>256</ele>
        <time>2018-07-15T10:15:02Z</time>
      </trkpt>
      <trkpt lat="43.94353" lon="1.78874">
        <ele>256</ele>
        <time>2018-07-15T10:15:03Z</time>
      </trkpt>
      <trkpt lat="43.94353" lon="1.78879">
        <ele>256</ele>
        <time>2018-07-15T10:15:04Z</time>
      </trkpt>
      <trkpt lat="43.94353" lon="1.78884">
        <ele>257</ele>
        <time>2018-07-15T10:15:05Z</time>
      </trkpt>
      <trkpt lat="43.94352" lon="1.78888">
        <ele>257</ele>
        <time>2018-07-15T10:15:06Z</time>
      </trkpt>
      <trkpt lat="43.94352" lon="1.78893">
        <ele>257</ele>
        <time>2018-07-15T10:15:07Z</time>
      </trkpt>
      <trkpt lat="43.94352" lon="1.78898">
        <ele>257</ele>
        <time>2018-07-15T10:15:08Z</time>
      </trkpt>
      <trkpt lat="43.94352" lon="1.78903">
        <ele>257</ele>
        <time>2018-07-15T10:15:09Z</time>
      </trkpt>
      <trkpt lat="43.94352" lon="1.78908">
        <ele>257</ele>
        <time>2018-07-15T10:15:10Z</time>
      </trkpt>
      <trkpt lat="43.94352" lon="1.78913">
        <ele>257</ele>
        <time>2018-07-15T10:15:11Z</time>
      </trkpt>
      <trkpt lat="43.94352" lon="1.78918">
        <ele>257</ele>
        <time>2018-07-15T10:15:12Z</time>
      </trkpt>
      <trkpt lat="43.94352" lon="1.78923">
        <ele>258</ele>
        <time>2018-07-15T10:15:13Z</time>
      </trkpt>
      <trkpt lat="43.94352" lon="1.78927">
        <ele>258</ele>
        <time>2018-07-15T10:15:14Z</time>
      </trkpt>
      <trkpt lat="43.94352" lon="1.78932">
        <ele>258</ele>
        <time>2018-07-15T10:15:15Z</time>
      </trkpt>
      <trkpt lat="43.94352" lon="1.78937">
        <ele>258</ele>
        <time>2018-07-15T10:15:16Z</time>
      </trkpt>
      <trkpt lat="43.94352" lon="1.78942">
        <ele>258</ele>
        <time>2018-07-15T10:15:17Z</time>
      </trkpt>
      <trkpt lat="43.94352" lon="1.78947">
        <ele>258</ele>
        <time>2018-07-15T10:15:18Z</time>
      </trkpt>
      <trkpt lat="43.94352" lon="1.78952">
        <ele>259</ele>
        <time>2018-07-15T10:15:19Z</time>
      </trkpt>
      <trkpt lat="43.94353" lon="1.78957">
        <ele>259</ele>
        <time>2018-07-15T10:15:20Z</time>
      </trkpt>
      <trkpt lat="43.94354" lon="1.78962">
        <ele>259</ele>
        <time>2018-07-15T10:15:21Z</time>
      </trkpt>
      <trkpt lat="43.94355" lon="1.78967">
        <ele>259</ele>
        <time>2018-07-15T10:15:22Z</time>
      </trkpt>
      <trkpt lat="43.94357" lon="1.78971">
        <ele>260</ele>
        <time>2018-07-15T10:15:23Z</time>
      </trkpt>
      <trkpt lat="43.94359" lon="1.78975">
        <ele>260</ele>
        <time>2018-07-15T10:15:24Z</time>
      </trkpt>
      <trkpt lat="43.94361" lon="1.78979">
        <ele>260</ele>
        <time>2018-07-15T10:15:25Z</time>
      </trkpt>
      <trkpt lat="43.94363" lon="1.78983">
        <ele>259</ele>
        <time>2018-07-15T10:15:26Z</time>
      </trkpt>
      <trkpt lat="43.94365" lon="1.78987">
        <ele>259</ele>
        <time>2018-07-15T10:15:27Z</time>
      </trkpt>
      <trkpt lat="43.94367" lon="1.78991">
        <ele>260</ele>
        <time>2018-07-15T10:15:28Z</time>
      </trkpt>
      <trkpt lat="43.94369" lon="1.78995">
        <ele>260</ele>
        <time>2018-07-15T10:15:29Z</time>
      </trkpt>
      <trkpt lat="43.94372" lon="1.78998">
        <ele>260</ele>
        <time>2018-07-15T10:15:30Z</time>
      </trkpt>
      <trkpt lat="43.94375" lon="1.79002">
        <ele>260</ele>
        <time>2018-07-15T10:15:31Z</time>
      </trkpt>
      <trkpt lat="43.94378" lon="1.79006">
        <ele>260</ele>
        <time>2018-07-15T10:15:32Z</time>
      </trkpt>
      <trkpt lat="43.94381" lon="1.7901">
        <ele>259</ele>
        <time>2018-07-15T10:15:33Z</time>
      </trkpt>
      <trkpt lat="43.94384" lon="1.79014">
        <ele>259</ele>
        <time>2018-07-15T10:15:34Z</time>
      </trkpt>
      <trkpt lat="43.94387" lon="1.79018">
        <ele>260</ele>
        <time>2018-07-15T10:15:35Z</time>
      </trkpt>
      <trkpt lat="43.9439" lon="1.79022">
        <ele>260</ele>
        <time>2018-07-15T10:15:36Z</time>
      </trkpt>
      <trkpt lat="43.94394" lon="1.79026">
        <ele>260</ele>
        <time>2018-07-15T10:15:37Z</time>
      </trkpt>
      <trkpt lat="43.94397" lon="1.7903">
        <ele>260</ele>
        <time>2018-07-15T10:15:38Z</time>
      </trkpt>
      <trkpt lat="43.944" lon="1.79034">
        <ele>259</ele>
        <time>2018-07-15T10:15:39Z</time>
      </trkpt>
      <trkpt lat="43.94403" lon="1.79039">
        <ele>259</ele>
        <time>2018-07-15T10:15:40Z</time>
      </trkpt>
      <trkpt lat="43.94407" lon="1.79043">
        <ele>259</ele>
        <time>2018-07-15T10:15:41Z</time>
      </trkpt>
      <trkpt lat="43.9441" lon="1.79047">
        <ele>259</ele>
        <time>2018-07-15T10:15:42Z</time>
      </trkpt>
      <trkpt lat="43.94414" lon="1.79052">
        <ele>259</ele>
        <time>2018-07-15T10:15:43Z</time>
      </trkpt>
      <trkpt lat="43.94417" lon="1.79056">
        <ele>259</ele>
        <time>2018-07-15T10:15:44Z</time>
      </trkpt>
      <trkpt lat="43.94421" lon="1.79061">
        <ele>259</ele>
        <time>2018-07-15T10:15:45Z</time>
      </trkpt>
      <trkpt lat="43.94424" lon="1.79066">
        <ele>259</ele>
        <time>2018-07-15T10:15:46Z</time>
      </trkpt>
      <trkpt lat="43.94428" lon="1.7907">
        <ele>259</ele>
        <time>2018-07-15T10:15:47Z</time>
      </trkpt>
      <trkpt lat="43.94432" lon="1.79075">
        <ele>259</ele>
        <time>2018-07-15T10:15:48Z</time>
      </trkpt>
      <trkpt lat="43.94435" lon="1.7908">
        <ele>259</ele>
        <time>2018-07-15T10:15:49Z</time>
      </trkpt>
      <trkpt lat="43.94439" lon="1.79084">
        <ele>259</ele>
        <time>2018-07-15T10:15:50Z</time>
      </trkpt>
      <trkpt lat="43.94442" lon="1.7909">
        <ele>258</ele>
        <time>2018-07-15T10:15:51Z</time>
      </trkpt>
      <trkpt lat="43.94446" lon="1.79094">
        <ele>258</ele>
        <time>2018-07-15T10:15:52Z</time>
      </trkpt>
      <trkpt lat="43.9445" lon="1.79099">
        <ele>258</ele>
        <time>2018-07-15T10:15:53Z</time>
      </trkpt>
      <trkpt lat="43.94454" lon="1.79104">
        <ele>258</ele>
        <time>2018-07-15T10:15:54Z</time>
      </trkpt>
      <trkpt lat="43.94458" lon="1.79109">
        <ele>258</ele>
        <time>2018-07-15T10:15:55Z</time>
      </trkpt>
      <trkpt lat="43.94461" lon="1.79114">
        <ele>258</ele>
        <time>2018-07-15T10:15:56Z</time>
      </trkpt>
      <trkpt lat="43.94465" lon="1.79119">
        <ele>259</ele>
        <time>2018-07-15T10:15:57Z</time>
      </trkpt>
      <trkpt lat="43.94468" lon="1.79124">
        <ele>259</ele>
        <time>2018-07-15T10:15:58Z</time>
      </trkpt>
      <trkpt lat="43.94472" lon="1.79129">
        <ele>259</ele>
        <time>2018-07-15T10:15:59Z</time>
      </trkpt>
      <trkpt lat="43.94475" lon="1.79134">
        <ele>259</ele>
        <time>2018-07-15T10:16:00Z</time>
      </trkpt>
      <trkpt lat="43.94479" lon="1.79139">
        <ele>259</ele>
        <time>2018-07-15T10:16:01Z</time>
      </trkpt>
      <trkpt lat="43.94482" lon="1.79145">
        <ele>259</ele>
        <time>2018-07-15T10:16:02Z</time>
      </trkpt>
      <trkpt lat="43.94485" lon="1.7915">
        <ele>259</ele>
        <time>2018-07-15T10:16:03Z</time>
      </trkpt>
      <trkpt lat="43.94489" lon="1.79155">
        <ele>259</ele>
        <time>2018-07-15T10:16:04Z</time>
      </trkpt>
      <trkpt lat="43.94493" lon="1.7916">
        <ele>259</ele>
        <time>2018-07-15T10:16:05Z</time>
      </trkpt>
      <trkpt lat="43.94497" lon="1.79164">
        <ele>259</ele>
        <time>2018-07-15T10:16:06Z</time>
      </trkpt>
      <trkpt lat="43.945" lon="1.79169">
        <ele>259</ele>
        <time>2018-07-15T10:16:07Z</time>
      </trkpt>
      <trkpt lat="43.94504" lon="1.79174">
        <ele>259</ele>
        <time>2018-07-15T10:16:08Z</time>
      </trkpt>
      <trkpt lat="43.94507" lon="1.79178">
        <ele>259</ele>
        <time>2018-07-15T10:16:09Z</time>
      </trkpt>
      <trkpt lat="43.94511" lon="1.79182">
        <ele>259</ele>
        <time>2018-07-15T10:16:10Z</time>
      </trkpt>
      <trkpt lat="43.94515" lon="1.79186">
        <ele>259</ele>
        <time>2018-07-15T10:16:11Z</time>
      </trkpt>
      <trkpt lat="43.94519" lon="1.79191">
        <ele>259</ele>
        <time>2018-07-15T10:16:12Z</time>
      </trkpt>
      <trkpt lat="43.94523" lon="1.79195">
        <ele>259</ele>
        <time>2018-07-15T10:16:13Z</time>
      </trkpt>
      <trkpt lat="43.94527" lon="1.79199">
        <ele>260</ele>
        <time>2018-07-15T10:16:14Z</time>
      </trkpt>
      <trkpt lat="43.94531" lon="1.79202">
        <ele>260</ele>
        <time>2018-07-15T10:16:15Z</time>
      </trkpt>
      <trkpt lat="43.94535" lon="1.79206">
        <ele>260</ele>
        <time>2018-07-15T10:16:16Z</time>
      </trkpt>
      <trkpt lat="43.94539" lon="1.7921">
        <ele>260</ele>
        <time>2018-07-15T10:16:17Z</time>
      </trkpt>
      <trkpt lat="43.94544" lon="1.79214">
        <ele>259</ele>
        <time>2018-07-15T10:16:18Z</time>
      </trkpt>
      <trkpt lat="43.94548" lon="1.79218">
        <ele>259</ele>
        <time>2018-07-15T10:16:19Z</time>
      </trkpt>
      <trkpt lat="43.94552" lon="1.79222">
        <ele>259</ele>
        <time>2018-07-15T10:16:20Z</time>
      </trkpt>
      <trkpt lat="43.94557" lon="1.79226">
        <ele>259</ele>
        <time>2018-07-15T10:16:21Z</time>
      </trkpt>
      <trkpt lat="43.94562" lon="1.79231">
        <ele>258</ele>
        <time>2018-07-15T10:16:22Z</time>
      </trkpt>
      <trkpt lat="43.94566" lon="1.79235">
        <ele>258</ele>
        <time>2018-07-15T10:16:23Z</time>
      </trkpt>
      <trkpt lat="43.94571" lon="1.7924">
        <ele>258</ele>
        <time>2018-07-15T10:16:24Z</time>
      </trkpt>
      <trkpt lat="43.94576" lon="1.79244">
        <ele>258</ele>
        <time>2018-07-15T10:16:25Z</time>
      </trkpt>
      <trkpt lat="43.94581" lon="1.79248">
        <ele>258</ele>
        <time>2018-07-15T10:16:26Z</time>
      </trkpt>
      <trkpt lat="43.94586" lon="1.79253">
        <ele>258</ele>
        <time>2018-07-15T10:16:27Z</time>
      </trkpt>
      <trkpt lat="43.94591" lon="1.79257">
        <ele>259</ele>
        <time>2018-07-15T10:16:28Z</time>
      </trkpt>
      <trkpt lat="43.94596" lon="1.79262">
        <ele>259</ele>
        <time>2018-07-15T10:16:29Z</time>
      </trkpt>
      <trkpt lat="43.94602" lon="1.79268">
        <ele>259</ele>
        <time>2018-07-15T10:16:30Z</time>
      </trkpt>
      <trkpt lat="43.94607" lon="1.79273">
        <ele>258</ele>
        <time>2018-07-15T10:16:31Z</time>
      </trkpt>
      <trkpt lat="43.94612" lon="1.79278">
        <ele>258</ele>
        <time>2018-07-15T10:16:32Z</time>
      </trkpt>
      <trkpt lat="43.94617" lon="1.79283">
        <ele>257</ele>
        <time>2018-07-15T10:16:33Z</time>
      </trkpt>
      <trkpt lat="43.94622" lon="1.79289">
        <ele>258</ele>
        <time>2018-07-15T10:16:34Z</time>
      </trkpt>
      <trkpt lat="43.94628" lon="1.79296">
        <ele>258</ele>
        <time>2018-07-15T10:16:35Z</time>
      </trkpt>
      <trkpt lat="43.94632" lon="1.79303">
        <ele>257</ele>
        <time>2018-07-15T10:16:36Z</time>
      </trkpt>
      <trkpt lat="43.94637" lon="1.7931">
        <ele>257</ele>
        <time>2018-07-15T10:16:37Z</time>
      </trkpt>
      <trkpt lat="43.94641" lon="1.79318">
        <ele>257</ele>
        <time>2018-07-15T10:16:38Z</time>
      </trkpt>
      <trkpt lat="43.94645" lon="1.79326">
        <ele>257</ele>
        <time>2018-07-15T10:16:39Z</time>
      </trkpt>
      <trkpt lat="43.94649" lon="1.79334">
        <ele>256</ele>
        <time>2018-07-15T10:16:40Z</time>
      </trkpt>
      <trkpt lat="43.94652" lon="1.79343">
        <ele>256</ele>
        <time>2018-07-15T10:16:41Z</time>
      </trkpt>
      <trkpt lat="43.94656" lon="1.79352">
        <ele>256</ele>
        <time>2018-07-15T10:16:42Z</time>
      </trkpt>
      <trkpt lat="43.94659" lon="1.79361">
        <ele>256</ele>
        <time>2018-07-15T10:16:43Z</time>
      </trkpt>
      <trkpt lat="43.94662" lon="1.7937">
        <ele>256</ele>
        <time>2018-07-15T10:16:44Z</time>
      </trkpt>
      <trkpt lat="43.94665" lon="1.79379">
        <ele>257</ele>
        <time>2018-07-15T10:16:45Z</time>
      </trkpt>
      <trkpt lat="43.94669" lon="1.79388">
        <ele>257</ele>
        <time>2018-07-15T10:16:46Z</time>
      </trkpt>
      <trkpt lat="43.94672" lon="1.79397">
        <ele>257</ele>
        <time>2018-07-15T10:16:47Z</time>
      </trkpt>
      <trkpt lat="43.94675" lon="1.79405">
        <ele>257</ele>
        <time>2018-07-15T10:16:48Z</time>
      </trkpt>
      <trkpt lat="43.94678" lon="1.79413">
        <ele>257</ele>
        <time>2018-07-15T10:16:49Z</time>
      </trkpt>
      <trkpt lat="43.94682" lon="1.79421">
        <ele>257</ele>
        <time>2018-07-15T10:16:50Z</time>
      </trkpt>
      <trkpt lat="43.94685" lon="1.79429">
        <ele>258</ele>
        <time>2018-07-15T10:16:51Z</time>
      </trkpt>
      <trkpt lat="43.94689" lon="1.79437">
        <ele>258</ele>
        <time>2018-07-15T10:16:52Z</time>
      </trkpt>
      <trkpt lat="43.94692" lon="1.79445">
        <ele>258</ele>
        <time>2018-07-15T10:16:53Z</time>
      </trkpt>
      <trkpt lat="43.94696" lon="1.79453">
        <ele>259</ele>
        <time>2018-07-15T10:16:54Z</time>
      </trkpt>
      <trkpt lat="43.947" lon="1.79461">
        <ele>259</ele>
        <time>2018-07-15T10:16:55Z</time>
      </trkpt>
      <trkpt lat="43.94704" lon="1.79469">
        <ele>259</ele>
        <time>2018-07-15T10:16:56Z</time>
      </trkpt>
      <trkpt lat="43.94707" lon="1.79476">
        <ele>259</ele>
        <time>2018-07-15T10:16:57Z</time>
      </trkpt>
      <trkpt lat="43.94711" lon="1.79484">
        <ele>260</ele>
        <time>2018-07-15T10:16:58Z</time>
      </trkpt>
      <trkpt lat="43.94715" lon="1.79492">
        <ele>260</ele>
        <time>2018-07-15T10:16:59Z</time>
      </trkpt>
      <trkpt lat="43.9472" lon="1.795">
        <ele>261</ele>
        <time>2018-07-15T10:17:00Z</time>
      </trkpt>
      <trkpt lat="43.94724" lon="1.79507">
        <ele>261</ele>
        <time>2018-07-15T10:17:01Z</time>
      </trkpt>
      <trkpt lat="43.94728" lon="1.79515">
        <ele>261</ele>
        <time>2018-07-15T10:17:02Z</time>
      </trkpt>
      <trkpt lat="43.94732" lon="1.79523">
        <ele>261</ele>
        <time>2018-07-15T10:17:03Z</time>
      </trkpt>
      <trkpt lat="43.94737" lon="1.79531">
        <ele>261</ele>
        <time>2018-07-15T10:17:04Z</time>
      </trkpt>
      <trkpt lat="43.94741" lon="1.79538">
        <ele>261</ele>
        <time>2018-07-15T10:17:05Z</time>
      </trkpt>
      <trkpt lat="43.94745" lon="1.79546">
        <ele>261</ele>
        <time>2018-07-15T10:17:06Z</time>
      </trkpt>
      <trkpt lat="43.94748" lon="1.79554">
        <ele>261</ele>
        <time>2018-07-15T10:17:07Z</time>
      </trkpt>
      <trkpt lat="43.94752" lon="1.79562">
        <ele>262</ele>
        <time>2018-07-15T10:17:08Z</time>
      </trkpt>
      <trkpt lat="43.94756" lon="1.79569">
        <ele>262</ele>
        <time>2018-07-15T10:17:09Z</time>
      </trkpt>
      <trkpt lat="43.9476" lon="1.79577">
        <ele>262</ele>
        <time>2018-07-15T10:17:10Z</time>
      </trkpt>
      <trkpt lat="43.94764" lon="1.79585">
        <ele>262</ele>
        <time>2018-07-15T10:17:11Z</time>
      </trkpt>
      <trkpt lat="43.94767" lon="1.79592">
        <ele>262</ele>
        <time>2018-07-15T10:17:12Z</time>
      </trkpt>
      <trkpt lat="43.94771" lon="1.79599">
        <ele>263</ele>
        <time>2018-07-15T10:17:13Z</time>
      </trkpt>
      <trkpt lat="43.94775" lon="1.79606">
        <ele>263</ele>
        <time>2018-07-15T10:17:14Z</time>
      </trkpt>
      <trkpt lat="43.94779" lon="1.79613">
        <ele>263</ele>
        <time>2018-07-15T10:17:15Z</time>
      </trkpt>
      <trkpt lat="43.94783" lon="1.7962">
        <ele>264</ele>
        <time>2018-07-15T10:17:16Z</time>
      </trkpt>
      <trkpt lat="43.94786" lon="1.79627">
        <ele>264</ele>
        <time>2018-07-15T10:17:17Z</time>
      </trkpt>
      <trkpt lat="43.94789" lon="1.79634">
        <ele>264</ele>
        <time>2018-07-15T10:17:18Z</time>
      </trkpt>
      <trkpt lat="43.94793" lon="1.7964">
        <ele>264</ele>
        <time>2018-07-15T10:17:19Z</time>
      </trkpt>
      <trkpt lat="43.94796" lon="1.79646">
        <ele>265</ele>
        <time>2018-07-15T10:17:20Z</time>
      </trkpt>
      <trkpt lat="43.94799" lon="1.79651">
        <ele>265</ele>
        <time>2018-07-15T10:17:21Z</time>
      </trkpt>
      <trkpt lat="43.94802" lon="1.79657">
        <ele>265</ele>
        <time>2018-07-15T10:17:22Z</time>
      </trkpt>
      <trkpt lat="43.94805" lon="1.79662">
        <ele>265</ele>
        <time>2018-07-15T10:17:23Z</time>
      </trkpt>
      <trkpt lat="43.94808" lon="1.79668">
        <ele>266</ele>
        <time>2018-07-15T10:17:24Z</time>
      </trkpt>
      <trkpt lat="43.94811" lon="1.79674">
        <ele>266</ele>
        <time>2018-07-15T10:17:25Z</time>
      </trkpt>
      <trkpt lat="43.94814" lon="1.79679">
        <ele>266</ele>
        <time>2018-07-15T10:17:26Z</time>
      </trkpt>
      <trkpt lat="43.94817" lon="1.79684">
        <ele>266</ele>
        <time>2018-07-15T10:17:27Z</time>
      </trkpt>
      <trkpt lat="43.9482" lon="1.7969">
        <ele>266</ele>
        <time>2018-07-15T10:17:28Z</time>
      </trkpt>
      <trkpt lat="43.94822" lon="1.79695">
        <ele>266</ele>
        <time>2018-07-15T10:17:29Z</time>
      </trkpt>
      <trkpt lat="43.94825" lon="1.79699">
        <ele>266</ele>
        <time>2018-07-15T10:17:30Z</time>
      </trkpt>
      <trkpt lat="43.94829" lon="1.79703">
        <ele>266</ele>
        <time>2018-07-15T10:17:31Z</time>
      </trkpt>
      <trkpt lat="43.94832" lon="1.79708">
        <ele>266</ele>
        <time>2018-07-15T10:17:32Z</time>
      </trkpt>
      <trkpt lat="43.94836" lon="1.79712">
        <ele>266</ele>
        <time>2018-07-15T10:17:33Z</time>
      </trkpt>
      <trkpt lat="43.9484" lon="1.79717">
        <ele>265</ele>
        <time>2018-07-15T10:17:34Z</time>
      </trkpt>
      <trkpt lat="43.94844" lon="1.79723">
        <ele>265</ele>
        <time>2018-07-15T10:17:35Z</time>
      </trkpt>
      <trkpt lat="43.94849" lon="1.79728">
        <ele>265</ele>
        <time>2018-07-15T10:17:36Z</time>
      </trkpt>
      <trkpt lat="43.94854" lon="1.79734">
        <ele>264</ele>
        <time>2018-07-15T10:17:37Z</time>
      </trkpt>
      <trkpt lat="43.9486" lon="1.79741">
        <ele>263</ele>
        <time>2018-07-15T10:17:38Z</time>
      </trkpt>
      <trkpt lat="43.94866" lon="1.79747">
        <ele>262</ele>
        <time>2018-07-15T10:17:39Z</time>
      </trkpt>
      <trkpt lat="43.94872" lon="1.79754">
        <ele>262</ele>
        <time>2018-07-15T10:17:40Z</time>
      </trkpt>
      <trkpt lat="43.94879" lon="1.79761">
        <ele>261</ele>
        <time>2018-07-15T10:17:41Z</time>
      </trkpt>
      <trkpt lat="43.94886" lon="1.79769">
        <ele>260</ele>
        <time>2018-07-15T10:17:42Z</time>
      </trkpt>
      <trkpt lat="43.94893" lon="1.79777">
        <ele>259</ele>
        <time>2018-07-15T10:17:43Z</time>
      </trkpt>
      <trkpt lat="43.94899" lon="1.79787">
        <ele>258</ele>
        <time>2018-07-15T10:17:44Z</time>
      </trkpt>
      <trkpt lat="43.94905" lon="1.79796">
        <ele>258</ele>
        <time>2018-07-15T10:17:45Z</time>
      </trkpt>
      <trkpt lat="43.94911" lon="1.79806">
        <ele>257</ele>
        <time>2018-07-15T10:17:46Z</time>
      </trkpt>
      <trkpt lat="43.94915" lon="1.79817">
        <ele>256</ele>
        <time>2018-07-15T10:17:47Z</time>
      </trkpt>
      <trkpt lat="43.94919" lon="1.79828">
        <ele>256</ele>
        <time>2018-07-15T10:17:48Z</time>
      </trkpt>
      <trkpt lat="43.94923" lon="1.79839">
        <ele>255</ele>
        <time>2018-07-15T10:17:49Z</time>
      </trkpt>
      <trkpt lat="43.94926" lon="1.7985">
        <ele>255</ele>
        <time>2018-07-15T10:17:50Z</time>
      </trkpt>
      <trkpt lat="43.94928" lon="1.79861">
        <ele>256</ele>
        <time>2018-07-15T10:17:51Z</time>
      </trkpt>
      <trkpt lat="43.94931" lon="1.79871">
        <ele>256</ele>
        <time>2018-07-15T10:17:52Z</time>
      </trkpt>
      <trkpt lat="43.94934" lon="1.79881">
        <ele>257</ele>
        <time>2018-07-15T10:17:53Z</time>
      </trkpt>
      <trkpt lat="43.94937" lon="1.7989">
        <ele>257</ele>
        <time>2018-07-15T10:17:54Z</time>
      </trkpt>
      <trkpt lat="43.94941" lon="1.79899">
        <ele>257</ele>
        <time>2018-07-15T10:17:55Z</time>
      </trkpt>
      <trkpt lat="43.94945" lon="1.79908">
        <ele>258</ele>
        <time>2018-07-15T10:17:56Z</time>
      </trkpt>
      <trkpt lat="43.94949" lon="1.79916">
        <ele>259</ele>
        <time>2018-07-15T10:17:57Z</time>
      </trkpt>
      <trkpt lat="43.94953" lon="1.79924">
        <ele>259</ele>
        <time>2018-07-15T10:17:58Z</time>
      </trkpt>
      <trkpt lat="43.94957" lon="1.79933">
        <ele>259</ele>
        <time>2018-07-15T10:17:59Z</time>
      </trkpt>
      <trkpt lat="43.94961" lon="1.79941">
        <ele>259</ele>
        <time>2018-07-15T10:18:00Z</time>
      </trkpt>
      <trkpt lat="43.94965" lon="1.79949">
        <ele>260</ele>
        <time>2018-07-15T10:18:01Z</time>
      </trkpt>
      <trkpt lat="43.94969" lon="1.79956">
        <ele>260</ele>
        <time>2018-07-15T10:18:02Z</time>
      </trkpt>
      <trkpt lat="43.94973" lon="1.79964">
        <ele>260</ele>
        <time>2018-07-15T10:18:03Z</time>
      </trkpt>
      <trkpt lat="43.94976" lon="1.79972">
        <ele>261</ele>
        <time>2018-07-15T10:18:04Z</time>
      </trkpt>
      <trkpt lat="43.9498" lon="1.79979">
        <ele>261</ele>
        <time>2018-07-15T10:18:05Z</time>
      </trkpt>
      <trkpt lat="43.94983" lon="1.79987">
        <ele>261</ele>
        <time>2018-07-15T10:18:06Z</time>
      </trkpt>
      <trkpt lat="43.94987" lon="1.79994">
        <ele>262</ele>
        <time>2018-07-15T10:18:07Z</time>
      </trkpt>
      <trkpt lat="43.94991" lon="1.80001">
        <ele>262</ele>
        <time>2018-07-15T10:18:08Z</time>
      </trkpt>
      <trkpt lat="43.94994" lon="1.80009">
        <ele>262</ele>
        <time>2018-07-15T10:18:09Z</time>
      </trkpt>
      <trkpt lat="43.94997" lon="1.80016">
        <ele>264</ele>
        <time>2018-07-15T10:18:10Z</time>
      </trkpt>
      <trkpt lat="43.95001" lon="1.80023">
        <ele>264</ele>
        <time>2018-07-15T10:18:11Z</time>
      </trkpt>
      <trkpt lat="43.95004" lon="1.80029">
        <ele>264</ele>
        <time>2018-07-15T10:18:12Z</time>
      </trkpt>
      <trkpt lat="43.95007" lon="1.80036">
        <ele>264</ele>
        <time>2018-07-15T10:18:13Z</time>
      </trkpt>
      <trkpt lat="43.9501" lon="1.80042">
        <ele>264</ele>
        <time>2018-07-15T10:18:14Z</time>
      </trkpt>
      <trkpt lat="43.95013" lon="1.80048">
        <ele>265</ele>
        <time>2018-07-15T10:18:15Z</time>
      </trkpt>
      <trkpt lat="43.95016" lon="1.80055">
        <ele>265</ele>
        <time>2018-07-15T10:18:16Z</time>
      </trkpt>
      <trkpt lat="43.95019" lon="1.80061">
        <ele>266</ele>
        <time>2018-07-15T10:18:17Z</time>
      </trkpt>
      <trkpt lat="43.95022" lon="1.80067">
        <ele>266</ele>
        <time>2018-07-15T10:18:18Z</time>
      </trkpt>
      <trkpt lat="43.95025" lon="1.80072">
        <ele>267</ele>
        <time>2018-07-15T10:18:19Z</time>
      </trkpt>
      <trkpt lat="43.95027" lon="1.80078">
        <ele>267</ele>
        <time>2018-07-15T10:18:20Z</time>
      </trkpt>
      <trkpt lat="43.9503" lon="1.80083">
        <ele>267</ele>
        <time>2018-07-15T10:18:21Z</time>
      </trkpt>
      <trkpt lat="43.95033" lon="1.80088">
        <ele>267</ele>
        <time>2018-07-15T10:18:22Z</time>
      </trkpt>
      <trkpt lat="43.95036" lon="1.80093">
        <ele>267</ele>
        <time>2018-07-15T10:18:23Z</time>
      </trkpt>
      <trkpt lat="43.95038" lon="1.80098">
        <ele>267</ele>
        <time>2018-07-15T10:18:24Z</time>
      </trkpt>
      <trkpt lat="43.95041" lon="1.80103">
        <ele>267</ele>
        <time>2018-07-15T10:18:25Z</time>
      </trkpt>
      <trkpt lat="43.95044" lon="1.80108">
        <ele>267</ele>
        <time>2018-07-15T10:18:26Z</time>
      </trkpt>
      <trkpt lat="43.95046" lon="1.80113">
        <ele>267</ele>
        <time>2018-07-15T10:18:27Z</time>
      </trkpt>
      <trkpt lat="43.95049" lon="1.80118">
        <ele>267</ele>
        <time>2018-07-15T10:18:28Z</time>
      </trkpt>
      <trkpt lat="43.95052" lon="1.80122">
        <ele>267</ele>
        <time>2018-07-15T10:18:29Z</time>
      </trkpt>
      <trkpt lat="43.95055" lon="1.80126">
        <ele>268</ele>
        <time>2018-07-15T10:18:30Z</time>
      </trkpt>
      <trkpt lat="43.95058" lon="1.80131">
        <ele>267</ele>
        <time>2018-07-15T10:18:31Z</time>
      </trkpt>
      <trkpt lat="43.95061" lon="1.80135">
        <ele>267</ele>
        <time>2018-07-15T10:18:32Z</time>
      </trkpt>
      <trkpt lat="43.95064" lon="1.8014">
        <ele>267</ele>
        <time>2018-07-15T10:18:33Z</time>
      </trkpt>
      <trkpt lat="43.95068" lon="1.80144">
        <ele>267</ele>
        <time>2018-07-15T10:18:34Z</time>
      </trkpt>
      <trkpt lat="43.95071" lon="1.80148">
        <ele>267</ele>
        <time>2018-07-15T10:18:35Z</time>
      </trkpt>
      <trkpt lat="43.95075" lon="1.80152">
        <ele>267</ele>
        <time>2018-07-15T10:18:36Z</time>
      </trkpt>
      <trkpt lat="43.95079" lon="1.80157">
        <ele>267</ele>
        <time>2018-07-15T10:18:37Z</time>
      </trkpt>
      <trkpt lat="43.95082" lon="1.80161">
        <ele>267</ele>
        <time>2018-07-15T10:18:38Z</time>
      </trkpt>
      <trkpt lat="43.95086" lon="1.80166">
        <ele>267</ele>
        <time>2018-07-15T10:18:39Z</time>
      </trkpt>
      <trkpt lat="43.9509" lon="1.80171">
        <ele>267</ele>
        <time>2018-07-15T10:18:40Z</time>
      </trkpt>
      <trkpt lat="43.95093" lon="1.80176">
        <ele>267</ele>
        <time>2018-07-15T10:18:41Z</time>
      </trkpt>
      <trkpt lat="43.95097" lon="1.80181">
        <ele>267</ele>
        <time>2018-07-15T10:18:42Z</time>
      </trkpt>
      <trkpt lat="43.951" lon="1.80187">
        <ele>267</ele>
        <time>2018-07-15T10:18:43Z</time>
      </trkpt>
      <trkpt lat="43.95103" lon="1.80192">
        <ele>267</ele>
        <time>2018-07-15T10:18:44Z</time>
      </trkpt>
      <trkpt lat="43.95106" lon="1.80197">
        <ele>267</ele>
        <time>2018-07-15T10:18:45Z</time>
      </trkpt>
      <trkpt lat="43.95108" lon="1.80203">
        <ele>267</ele>
        <time>2018-07-15T10:18:46Z</time>
      </trkpt>
      <trkpt lat="43.95111" lon="1.80209">
        <ele>267</ele>
        <time>2018-07-15T10:18:47Z</time>
      </trkpt>
      <trkpt lat="43.95113" lon="1.80215">
        <ele>267</ele>
        <time>2018-07-15T10:18:48Z</time>
      </trkpt>
      <trkpt lat="43.95114" lon="1.80221">
        <ele>267</ele>
        <time>2018-07-15T10:18:49Z</time>
      </trkpt>
      <trkpt lat="43.95116" lon="1.80227">
        <ele>267</ele>
        <time>2018-07-15T10:18:50Z</time>
      </trkpt>
      <trkpt lat="43.95118" lon="1.80233">
        <ele>267</ele>
        <time>2018-07-15T10:18:51Z</time>
      </trkpt>
      <trkpt lat="43.95119" lon="1.80239">
        <ele>268</ele>
        <time>2018-07-15T10:18:52Z</time>
      </trkpt>
      <trkpt lat="43.9512" lon="1.80245">
        <ele>268</ele>
        <time>2018-07-15T10:18:53Z</time>
      </trkpt>
      <trkpt lat="43.95121" lon="1.80251">
        <ele>268</ele>
        <time>2018-07-15T10:18:54Z</time>
      </trkpt>
      <trkpt lat="43.95122" lon="1.80257">
        <ele>267</ele>
        <time>2018-07-15T10:18:55Z</time>
      </trkpt>
      <trkpt lat="43.95123" lon="1.80262">
        <ele>268</ele>
        <time>2018-07-15T10:18:56Z</time>
      </trkpt>
      <trkpt lat="43.95124" lon="1.80268">
        <ele>268</ele>
        <time>2018-07-15T10:18:57Z</time>
      </trkpt>
      <trkpt lat="43.95124" lon="1.80274">
        <ele>268</ele>
        <time>2018-07-15T10:18:58Z</time>
      </trkpt>
      <trkpt lat="43.95125" lon="1.8028">
        <ele>268</ele>
        <time>2018-07-15T10:18:59Z</time>
      </trkpt>
      <trkpt lat="43.95125" lon="1.80286">
        <ele>268</ele>
        <time>2018-07-15T10:19:00Z</time>
      </trkpt>
      <trkpt lat="43.95125" lon="1.80292">
        <ele>268</ele>
        <time>2018-07-15T10:19:01Z</time>
      </trkpt>
      <trkpt lat="43.95125" lon="1.80298">
        <ele>268</ele>
        <time>2018-07-15T10:19:02Z</time>
      </trkpt>
      <trkpt lat="43.95124" lon="1.80304">
        <ele>268</ele>
        <time>2018-07-15T10:19:03Z</time>
      </trkpt>
      <trkpt lat="43.95124" lon="1.8031">
        <ele>267</ele>
        <time>2018-07-15T10:19:04Z</time>
      </trkpt>
      <trkpt lat="43.95124" lon="1.80316">
        <ele>267</ele>
        <time>2018-07-15T10:19:05Z</time>
      </trkpt>
      <trkpt lat="43.95123" lon="1.80322">
        <ele>267</ele>
        <time>2018-07-15T10:19:06Z</time>
      </trkpt>
      <trkpt lat="43.95124" lon="1.80329">
        <ele>268</ele>
        <time>2018-07-15T10:19:07Z</time>
      </trkpt>
      <trkpt lat="43.95123" lon="1.80335">
        <ele>268</ele>
        <time>2018-07-15T10:19:08Z</time>
      </trkpt>
      <trkpt lat="43.95123" lon="1.80342">
        <ele>268</ele>
        <time>2018-07-15T10:19:09Z</time>
      </trkpt>
      <trkpt lat="43.95122" lon="1.80348">
        <ele>268</ele>
        <time>2018-07-15T10:19:10Z</time>
      </trkpt>
      <trkpt lat="43.95121" lon="1.80355">
        <ele>268</ele>
        <time>2018-07-15T10:19:11Z</time>
      </trkpt>
      <trkpt lat="43.95121" lon="1.80362">
        <ele>268</ele>
        <time>2018-07-15T10:19:12Z</time>
      </trkpt>
      <trkpt lat="43.9512" lon="1.80369">
        <ele>268</ele>
        <time>2018-07-15T10:19:13Z</time>
      </trkpt>
      <trkpt lat="43.95119" lon="1.80375">
        <ele>268</ele>
        <time>2018-07-15T10:19:14Z</time>
      </trkpt>
      <trkpt lat="43.95118" lon="1.80382">
        <ele>268</ele>
        <time>2018-07-15T10:19:15Z</time>
      </trkpt>
      <trkpt lat="43.95117" lon="1.80389">
        <ele>268</ele>
        <time>2018-07-15T10:19:16Z</time>
      </trkpt>
      <trkpt lat="43.95117" lon="1.80396">
        <ele>268</ele>
        <time>2018-07-15T10:19:17Z</time>
      </trkpt>
      <trkpt lat="43.95116" lon="1.80403">
        <ele>268</ele>
        <time>2018-07-15T10:19:18Z</time>
      </trkpt>
      <trkpt lat="43.95114" lon="1.80411">
        <ele>268</ele>
        <time>2018-07-15T10:19:19Z</time>
      </trkpt>
      <trkpt lat="43.95113" lon="1.80418">
        <ele>268</ele>
        <time>2018-07-15T10:19:20Z</time>
      </trkpt>
      <trkpt lat="43.95112" lon="1.80425">
        <ele>269</ele>
        <time>2018-07-15T10:19:21Z</time>
      </trkpt>
      <trkpt lat="43.9511" lon="1.80432">
        <ele>269</ele>
        <time>2018-07-15T10:19:22Z</time>
      </trkpt>
      <trkpt lat="43.95108" lon="1.80439">
        <ele>269</ele>
        <time>2018-07-15T10:19:23Z</time>
      </trkpt>
      <trkpt lat="43.95107" lon="1.80446">
        <ele>269</ele>
        <time>2018-07-15T10:19:24Z</time>
      </trkpt>
      <trkpt lat="43.95105" lon="1.80453">
        <ele>269</ele>
        <time>2018-07-15T10:19:25Z</time>
      </trkpt>
      <trkpt lat="43.95104" lon="1.80459">
        <ele>269</ele>
        <time>2018-07-15T10:19:26Z</time>
      </trkpt>
      <trkpt lat="43.95102" lon="1.80466">
        <ele>269</ele>
        <time>2018-07-15T10:19:27Z</time>
      </trkpt>
      <trkpt lat="43.95101" lon="1.80473">
        <ele>269</ele>
        <time>2018-07-15T10:19:28Z</time>
      </trkpt>
      <trkpt lat="43.95099" lon="1.80479">
        <ele>270</ele>
        <time>2018-07-15T10:19:29Z</time>
      </trkpt>
      <trkpt lat="43.95098" lon="1.80485">
        <ele>270</ele>
        <time>2018-07-15T10:19:30Z</time>
      </trkpt>
      <trkpt lat="43.95096" lon="1.80491">
        <ele>270</ele>
        <time>2018-07-15T10:19:31Z</time>
      </trkpt>
      <trkpt lat="43.95095" lon="1.80498">
        <ele>271</ele>
        <time>2018-07-15T10:19:32Z</time>
      </trkpt>
      <trkpt lat="43.95094" lon="1.80503">
        <ele>271</ele>
        <time>2018-07-15T10:19:33Z</time>
      </trkpt>
      <trkpt lat="43.95092" lon="1.80509">
        <ele>271</ele>
        <time>2018-07-15T10:19:34Z</time>
      </trkpt>
      <trkpt lat="43.95091" lon="1.80514">
        <ele>271</ele>
        <time>2018-07-15T10:19:35Z</time>
      </trkpt>
      <trkpt lat="43.9509" lon="1.8052">
        <ele>271</ele>
        <time>2018-07-15T10:19:36Z</time>
      </trkpt>
      <trkpt lat="43.95089" lon="1.80525">
        <ele>271</ele>
        <time>2018-07-15T10:19:37Z</time>
      </trkpt>
      <trkpt lat="43.95087" lon="1.8053">
        <ele>271</ele>
        <time>2018-07-15T10:19:38Z</time>
      </trkpt>
      <trkpt lat="43.95086" lon="1.80536">
        <ele>271</ele>
        <time>2018-07-15T10:19:39Z</time>
      </trkpt>
      <trkpt lat="43.95085" lon="1.80541">
        <ele>271</ele>
        <time>2018-07-15T10:19:40Z</time>
      </trkpt>
      <trkpt lat="43.95083" lon="1.80547">
        <ele>271</ele>
        <time>2018-07-15T10:19:41Z</time>
      </trkpt>
      <trkpt lat="43.95081" lon="1.80552">
        <ele>271</ele>
        <time>2018-07-15T10:19:42Z</time>
      </trkpt>
      <trkpt lat="43.9508" lon="1.80558">
        <ele>271</ele>
        <time>2018-07-15T10:19:43Z</time>
      </trkpt>
      <trkpt lat="43.95079" lon="1.80564">
        <ele>271</ele>
        <time>2018-07-15T10:19:44Z</time>
      </trkpt>
      <trkpt lat="43.95078" lon="1.80569">
        <ele>271</ele>
        <time>2018-07-15T10:19:45Z</time>
      </trkpt>
      <trkpt lat="43.95077" lon="1.80574">
        <ele>271</ele>
        <time>2018-07-15T10:19:46Z</time>
      </trkpt>
      <trkpt lat="43.95075" lon="1.80579">
        <ele>270</ele>
        <time>2018-07-15T10:19:47Z</time>
      </trkpt>
      <trkpt lat="43.95074" lon="1.80585">
        <ele>271</ele>
        <time>2018-07-15T10:19:48Z</time>
      </trkpt>
      <trkpt lat="43.95073" lon="1.80591">
        <ele>271</ele>
        <time>2018-07-15T10:19:49Z</time>
      </trkpt>
      <trkpt lat="43.95071" lon="1.80597">
        <ele>271</ele>
        <time>2018-07-15T10:19:50Z</time>
      </trkpt>
      <trkpt lat="43.9507" lon="1.80603">
        <ele>271</ele>
        <time>2018-07-15T10:19:51Z</time>
      </trkpt>
      <trkpt lat="43.95068" lon="1.80609">
        <ele>271</ele>
        <time>2018-07-15T10:19:52Z</time>
      </trkpt>
      <trkpt lat="43.95067" lon="1.80615">
        <ele>270</ele>
        <time>2018-07-15T10:19:53Z</time>
      </trkpt>
      <trkpt lat="43.95065" lon="1.80622">
        <ele>270</ele>
        <time>2018-07-15T10:19:54Z</time>
      </trkpt>
      <trkpt lat="43.95064" lon="1.80628">
        <ele>270</ele>
        <time>2018-07-15T10:19:55Z</time>
      </trkpt>
      <trkpt lat="43.95062" lon="1.80635">
        <ele>270</ele>
        <time>2018-07-15T10:19:56Z</time>
      </trkpt>
      <trkpt lat="43.95061" lon="1.80642">
        <ele>270</ele>
        <time>2018-07-15T10:19:57Z</time>
      </trkpt>
      <trkpt lat="43.9506" lon="1.80649">
        <ele>270</ele>
        <time>2018-07-15T10:19:58Z</time>
      </trkpt>
      <trkpt lat="43.95059" lon="1.80656">
        <ele>270</ele>
        <time>2018-07-15T10:19:59Z</time>
      </trkpt>
      <trkpt lat="43.95057" lon="1.80663">
        <ele>270</ele>
        <time>2018-07-15T10:20:00Z</time>
      </trkpt>
      <trkpt lat="43.95056" lon="1.8067">
        <ele>269</ele>
        <time>2018-07-15T10:20:01Z</time>
      </trkpt>
      <trkpt lat="43.95055" lon="1.80677">
        <ele>269</ele>
        <time>2018-07-15T10:20:02Z</time>
      </trkpt>
      <trkpt lat="43.95054" lon="1.80684">
        <ele>269</ele>
        <time>2018-07-15T10:20:03Z</time>
      </trkpt>
      <trkpt lat="43.95053" lon="1.80692">
        <ele>270</ele>
        <time>2018-07-15T10:20:04Z</time>
      </trkpt>
      <trkpt lat="43.95052" lon="1.80699">
        <ele>269</ele>
        <time>2018-07-15T10:20:05Z</time>
      </trkpt>
      <trkpt lat="43.95051" lon="1.80706">
        <ele>269</ele>
        <time>2018-07-15T10:20:06Z</time>
      </trkpt>
      <trkpt lat="43.95051" lon="1.80714">
        <ele>269</ele>
        <time>2018-07-15T10:20:07Z</time>
      </trkpt>
      <trkpt lat="43.9505" lon="1.80721">
        <ele>269</ele>
        <time>2018-07-15T10:20:08Z</time>
      </trkpt>
      <trkpt lat="43.95049" lon="1.80728">
        <ele>269</ele>
        <time>2018-07-15T10:20:09Z</time>
      </trkpt>
      <trkpt lat="43.95049" lon="1.80736">
        <ele>268</ele>
        <time>2018-07-15T10:20:10Z</time>
      </trkpt>
      <trkpt lat="43.95048" lon="1.80744">
        <ele>268</ele>
        <time>2018-07-15T10:20:11Z</time>
      </trkpt>
      <trkpt lat="43.95048" lon="1.80752">
        <ele>268</ele>
        <time>2018-07-15T10:20:12Z</time>
      </trkpt>
      <trkpt lat="43.95047" lon="1.80761">
        <ele>268</ele>
        <time>2018-07-15T10:20:13Z</time>
      </trkpt>
      <trkpt lat="43.95047" lon="1.80769">
        <ele>268</ele>
        <time>2018-07-15T10:20:14Z</time>
      </trkpt>
      <trkpt lat="43.95045" lon="1.80778">
        <ele>268</ele>
        <time>2018-07-15T10:20:15Z</time>
      </trkpt>
      <trkpt lat="43.95045" lon="1.80787">
        <ele>268</ele>
        <time>2018-07-15T10:20:16Z</time>
      </trkpt>
      <trkpt lat="43.95044" lon="1.80796">
        <ele>268</ele>
        <time>2018-07-15T10:20:17Z</time>
      </trkpt>
      <trkpt lat="43.95044" lon="1.80806">
        <ele>269</ele>
        <time>2018-07-15T10:20:18Z</time>
      </trkpt>
      <trkpt lat="43.95043" lon="1.80816">
        <ele>269</ele>
        <time>2018-07-15T10:20:19Z</time>
      </trkpt>
      <trkpt lat="43.95042" lon="1.80825">
        <ele>268</ele>
        <time>2018-07-15T10:20:20Z</time>
      </trkpt>
      <trkpt lat="43.95041" lon="1.80835">
        <ele>268</ele>
        <time>2018-07-15T10:20:21Z</time>
      </trkpt>
      <trkpt lat="43.95039" lon="1.80845">
        <ele>267</ele>
        <time>2018-07-15T10:20:22Z</time>
      </trkpt>
      <trkpt lat="43.95038" lon="1.80854">
        <ele>267</ele>
        <time>2018-07-15T10:20:23Z</time>
      </trkpt>
      <trkpt lat="43.95037" lon="1.80863">
        <ele>268</ele>
        <time>2018-07-15T10:20:24Z</time>
      </trkpt>
      <trkpt lat="43.95036" lon="1.80873">
        <ele>268</ele>
        <time>2018-07-15T10:20:25Z</time>
      </trkpt>
      <trkpt lat="43.95035" lon="1.80881">
        <ele>268</ele>
        <time>2018-07-15T10:20:26Z</time>
      </trkpt>
      <trkpt lat="43.95035" lon="1.8089">
        <ele>268</ele>
        <time>2018-07-15T10:20:27Z</time>
      </trkpt>
      <trkpt lat="43.95034" lon="1.80899">
        <ele>268</ele>
        <time>2018-07-15T10:20:28Z</time>
      </trkpt>
      <trkpt lat="43.95033" lon="1.80907">
        <ele>268</ele>
        <time>2018-07-15T10:20:29Z</time>
      </trkpt>
      <trkpt lat="43.95033" lon="1.80916">
        <ele>268</ele>
        <time>2018-07-15T10:20:30Z</time>
      </trkpt>
      <trkpt lat="43.95032" lon="1.80924">
        <ele>268</ele>
        <time>2018-07-15T10:20:31Z</time>
      </trkpt>
      <trkpt lat="43.95031" lon="1.80933">
        <ele>268</ele>
        <time>2018-07-15T10:20:32Z</time>
      </trkpt>
      <trkpt lat="43.9503" lon="1.80941">
        <ele>269</ele>
        <time>2018-07-15T10:20:33Z</time>
      </trkpt>
      <trkpt lat="43.95029" lon="1.80949">
        <ele>269</ele>
        <time>2018-07-15T10:20:34Z</time>
      </trkpt>
      <trkpt lat="43.95028" lon="1.80957">
        <ele>269</ele>
        <time>2018-07-15T10:20:35Z</time>
      </trkpt>
      <trkpt lat="43.95028" lon="1.80966">
        <ele>269</ele>
        <time>2018-07-15T10:20:36Z</time>
      </trkpt>
      <trkpt lat="43.95027" lon="1.80974">
        <ele>269</ele>
        <time>2018-07-15T10:20:37Z</time>
      </trkpt>
      <trkpt lat="43.95026" lon="1.80982">
        <ele>269</ele>
        <time>2018-07-15T10:20:38Z</time>
      </trkpt>
      <trkpt lat="43.95025" lon="1.8099">
        <ele>268</ele>
        <time>2018-07-15T10:20:39Z</time>
      </trkpt>
      <trkpt lat="43.95024" lon="1.80998">
        <ele>269</ele>
        <time>2018-07-15T10:20:40Z</time>
      </trkpt>
      <trkpt lat="43.95023" lon="1.81006">
        <ele>269</ele>
        <time>2018-07-15T10:20:41Z</time>
      </trkpt>
      <trkpt lat="43.95021" lon="1.81015">
        <ele>268</ele>
        <time>2018-07-15T10:20:42Z</time>
      </trkpt>
      <trkpt lat="43.9502" lon="1.81023">
        <ele>268</ele>
        <time>2018-07-15T10:20:43Z</time>
      </trkpt>
      <trkpt lat="43.95019" lon="1.81032">
        <ele>267</ele>
        <time>2018-07-15T10:20:44Z</time>
      </trkpt>
      <trkpt lat="43.95018" lon="1.8104">
        <ele>267</ele>
        <time>2018-07-15T10:20:45Z</time>
      </trkpt>
      <trkpt lat="43.95017" lon="1.81049">
        <ele>267</ele>
        <time>2018-07-15T10:20:46Z</time>
      </trkpt>
      <trkpt lat="43.95016" lon="1.81058">
        <ele>266</ele>
        <time>2018-07-15T10:20:47Z</time>
      </trkpt>
      <trkpt lat="43.95015" lon="1.81067">
        <ele>266</ele>
        <time>2018-07-15T10:20:48Z</time>
      </trkpt>
      <trkpt lat="43.95014" lon="1.81077">
        <ele>265</ele>
        <time>2018-07-15T10:20:49Z</time>
      </trkpt>
      <trkpt lat="43.95012" lon="1.81086">
        <ele>265</ele>
        <time>2018-07-15T10:20:50Z</time>
      </trkpt>
      <trkpt lat="43.95011" lon="1.81095">
        <ele>265</ele>
        <time>2018-07-15T10:20:51Z</time>
      </trkpt>
      <trkpt lat="43.95009" lon="1.81105">
        <ele>265</ele>
        <time>2018-07-15T10:20:52Z</time>
      </trkpt>
      <trkpt lat="43.95008" lon="1.81115">
        <ele>264</ele>
        <time>2018-07-15T10:20:53Z</time>
      </trkpt>
      <trkpt lat="43.95006" lon="1.81126">
        <ele>264</ele>
        <time>2018-07-15T10:20:54Z</time>
      </trkpt>
      <trkpt lat="43.95005" lon="1.81136">
        <ele>263</ele>
        <time>2018-07-15T10:20:55Z</time>
      </trkpt>
      <trkpt lat="43.95004" lon="1.81147">
        <ele>263</ele>
        <time>2018-07-15T10:20:56Z</time>
      </trkpt>
      <trkpt lat="43.95004" lon="1.81158">
        <ele>263</ele>
        <time>2018-07-15T10:20:57Z</time>
      </trkpt>
      <trkpt lat="43.95004" lon="1.8117">
        <ele>262</ele>
        <time>2018-07-15T10:20:58Z</time>
      </trkpt>
      <trkpt lat="43.95006" lon="1.81181">
        <ele>261</ele>
        <time>2018-07-15T10:20:59Z</time>
      </trkpt>
      <trkpt lat="43.95008" lon="1.81192">
        <ele>260</ele>
        <time>2018-07-15T10:21:00Z</time>
      </trkpt>
      <trkpt lat="43.95011" lon="1.81203">
        <ele>260</ele>
        <time>2018-07-15T10:21:01Z</time>
      </trkpt>
      <trkpt lat="43.95015" lon="1.81214">
        <ele>260</ele>
        <time>2018-07-15T10:21:02Z</time>
      </trkpt>
      <trkpt lat="43.95019" lon="1.81224">
        <ele>260</ele>
        <time>2018-07-15T10:21:03Z</time>
      </trkpt>
      <trkpt lat="43.95023" lon="1.81234">
        <ele>259</ele>
        <time>2018-07-15T10:21:04Z</time>
      </trkpt>
      <trkpt lat="43.95027" lon="1.81245">
        <ele>259</ele>
        <time>2018-07-15T10:21:05Z</time>
      </trkpt>
      <trkpt lat="43.95031" lon="1.81256">
        <ele>259</ele>
        <time>2018-07-15T10:21:06Z</time>
      </trkpt>
      <trkpt lat="43.95034" lon="1.81267">
        <ele>258</ele>
        <time>2018-07-15T10:21:07Z</time>
      </trkpt>
      <trkpt lat="43.95036" lon="1.81279">
        <ele>258</ele>
        <time>2018-07-15T10:21:08Z</time>
      </trkpt>
      <trkpt lat="43.95038" lon="1.8129">
        <ele>258</ele>
        <time>2018-07-15T10:21:09Z</time>
      </trkpt>
      <trkpt lat="43.95038" lon="1.81302">
        <ele>258</ele>
        <time>2018-07-15T10:21:10Z</time>
      </trkpt>
      <trkpt lat="43.95037" lon="1.81314">
        <ele>258</ele>
        <time>2018-07-15T10:21:11Z</time>
      </trkpt>
      <trkpt lat="43.95037" lon="1.81326">
        <ele>258</ele>
        <time>2018-07-15T10:21:12Z</time>
      </trkpt>
      <trkpt lat="43.95035" lon="1.81337">
        <ele>258</ele>
        <time>2018-07-15T10:21:13Z</time>
      </trkpt>
      <trkpt lat="43.95034" lon="1.81349">
        <ele>258</ele>
        <time>2018-07-15T10:21:14Z</time>
      </trkpt>
      <trkpt lat="43.95033" lon="1.81361">
        <ele>258</ele>
        <time>2018-07-15T10:21:15Z</time>
      </trkpt>
      <trkpt lat="43.95032" lon="1.81372">
        <ele>259</ele>
        <time>2018-07-15T10:21:16Z</time>
      </trkpt>
      <trkpt lat="43.95031" lon="1.81384">
        <ele>259</ele>
        <time>2018-07-15T10:21:17Z</time>
      </trkpt>
      <trkpt lat="43.9503" lon="1.81395">
        <ele>259</ele>
        <time>2018-07-15T10:21:18Z</time>
      </trkpt>
      <trkpt lat="43.95029" lon="1.81406">
        <ele>259</ele>
        <time>2018-07-15T10:21:19Z</time>
      </trkpt>
      <trkpt lat="43.95029" lon="1.81417">
        <ele>260</ele>
        <time>2018-07-15T10:21:20Z</time>
      </trkpt>
      <trkpt lat="43.95028" lon="1.81429">
        <ele>260</ele>
        <time>2018-07-15T10:21:21Z</time>
      </trkpt>
      <trkpt lat="43.95028" lon="1.8144">
        <ele>259</ele>
        <time>2018-07-15T10:21:22Z</time>
      </trkpt>
      <trkpt lat="43.95027" lon="1.81451">
        <ele>260</ele>
        <time>2018-07-15T10:21:23Z</time>
      </trkpt>
      <trkpt lat="43.95026" lon="1.81462">
        <ele>260</ele>
        <time>2018-07-15T10:21:24Z</time>
      </trkpt>
      <trkpt lat="43.95026" lon="1.81473">
        <ele>260</ele>
        <time>2018-07-15T10:21:25Z</time>
      </trkpt>
      <trkpt lat="43.95025" lon="1.81483">
        <ele>260</ele>
        <time>2018-07-15T10:21:26Z</time>
      </trkpt>
      <trkpt lat="43.95024" lon="1.81494">
        <ele>260</ele>
        <time>2018-07-15T10:21:27Z</time>
      </trkpt>
      <trkpt lat="43.95023" lon="1.81504">
        <ele>261</ele>
        <time>2018-07-15T10:21:28Z</time>
      </trkpt>
      <trkpt lat="43.95022" lon="1.81514">
        <ele>262</ele>
        <time>2018-07-15T10:21:29Z</time>
      </trkpt>
      <trkpt lat="43.95021" lon="1.81524">
        <ele>262</ele>
        <time>2018-07-15T10:21:30Z</time>
      </trkpt>
      <trkpt lat="43.9502" lon="1.81534">
        <ele>262</ele>
        <time>2018-07-15T10:21:31Z</time>
      </trkpt>
      <trkpt lat="43.95019" lon="1.81543">
        <ele>263</ele>
        <time>2018-07-15T10:21:32Z</time>
      </trkpt>
      <trkpt lat="43.95018" lon="1.81552">
        <ele>263</ele>
        <time>2018-07-15T10:21:33Z</time>
      </trkpt>
      <trkpt lat="43.95018" lon="1.81561">
        <ele>263</ele>
        <time>2018-07-15T10:21:34Z</time>
      </trkpt>
      <trkpt lat="43.95017" lon="1.8157">
        <ele>263</ele>
        <time>2018-07-15T10:21:35Z</time>
      </trkpt>
      <trkpt lat="43.95017" lon="1.81578">
        <ele>264</ele>
        <time>2018-07-15T10:21:36Z</time>
      </trkpt>
      <trkpt lat="43.95016" lon="1.81586">
        <ele>264</ele>
        <time>2018-07-15T10:21:37Z</time>
      </trkpt>
      <trkpt lat="43.95015" lon="1.81594">
        <ele>264</ele>
        <time>2018-07-15T10:21:38Z</time>
      </trkpt>
      <trkpt lat="43.95015" lon="1.81601">
        <ele>265</ele>
        <time>2018-07-15T10:21:39Z</time>
      </trkpt>
      <trkpt lat="43.95014" lon="1.81608">
        <ele>265</ele>
        <time>2018-07-15T10:21:40Z</time>
      </trkpt>
      <trkpt lat="43.95013" lon="1.81616">
        <ele>265</ele>
        <time>2018-07-15T10:21:41Z</time>
      </trkpt>
      <trkpt lat="43.95013" lon="1.81622">
        <ele>266</ele>
        <time>2018-07-15T10:21:42Z</time>
      </trkpt>
      <trkpt lat="43.95013" lon="1.81629">
        <ele>266</ele>
        <time>2018-07-15T10:21:43Z</time>
      </trkpt>
      <trkpt lat="43.95013" lon="1.81636">
        <ele>266</ele>
        <time>2018-07-15T10:21:44Z</time>
      </trkpt>
      <trkpt lat="43.95012" lon="1.81642">
        <ele>266</ele>
        <time>2018-07-15T10:21:45Z</time>
      </trkpt>
      <trkpt lat="43.95011" lon="1.81648">
        <ele>267</ele>
        <time>2018-07-15T10:21:46Z</time>
      </trkpt>
      <trkpt lat="43.95011" lon="1.81654">
        <ele>267</ele>
        <time>2018-07-15T10:21:47Z</time>
      </trkpt>
      <trkpt lat="43.95011" lon="1.8166">
        <ele>267</ele>
        <time>2018-07-15T10:21:48Z</time>
      </trkpt>
      <trkpt lat="43.95011" lon="1.81665">
        <ele>267</ele>
        <time>2018-07-15T10:21:49Z</time>
      </trkpt>
      <trkpt lat="43.9501" lon="1.81671">
        <ele>267</ele>
        <time>2018-07-15T10:21:50Z</time>
      </trkpt>
      <trkpt lat="43.9501" lon="1.81676">
        <ele>267</ele>
        <time>2018-07-15T10:21:51Z</time>
      </trkpt>
      <trkpt lat="43.95009" lon="1.81681">
        <ele>267</ele>
        <time>2018-07-15T10:21:52Z</time>
      </trkpt>
      <trkpt lat="43.95009" lon="1.81686">
        <ele>267</ele>
        <time>2018-07-15T10:21:53Z</time>
      </trkpt>
      <trkpt lat="43.95009" lon="1.81692">
        <ele>267</ele>
        <time>2018-07-15T10:21:54Z</time>
      </trkpt>
      <trkpt lat="43.95009" lon="1.81698">
        <ele>267</ele>
        <time>2018-07-15T10:21:55Z</time>
      </trkpt>
      <trkpt lat="43.95009" lon="1.81703">
        <ele>267</ele>
        <time>2018-07-15T10:21:56Z</time>
      </trkpt>
      <trkpt lat="43.95008" lon="1.81709">
        <ele>267</ele>
        <time>2018-07-15T10:21:57Z</time>
      </trkpt>
      <trkpt lat="43.95007" lon="1.81715">
        <ele>268</ele>
        <time>2018-07-15T10:21:58Z</time>
      </trkpt>
      <trkpt lat="43.95007" lon="1.81721">
        <ele>268</ele>
        <time>2018-07-15T10:21:59Z</time>
      </trkpt>
      <trkpt lat="43.95007" lon="1.81726">
        <ele>268</ele>
        <time>2018-07-15T10:22:00Z</time>
      </trkpt>
      <trkpt lat="43.95006" lon="1.81732">
        <ele>268</ele>
        <time>2018-07-15T10:22:01Z</time>
      </trkpt>
      <trkpt lat="43.95006" lon="1.81737">
        <ele>268</ele>
        <time>2018-07-15T10:22:02Z</time>
      </trkpt>
      <trkpt lat="43.95005" lon="1.81743">
        <ele>268</ele>
        <time>2018-07-15T10:22:03Z</time>
      </trkpt>
      <trkpt lat="43.95004" lon="1.81748">
        <ele>268</ele>
        <time>2018-07-15T10:22:04Z</time>
      </trkpt>
      <trkpt lat="43.95004" lon="1.81753">
        <ele>268</ele>
        <time>2018-07-15T10:22:05Z</time>
      </trkpt>
      <trkpt lat="43.95003" lon="1.81759">
        <ele>268</ele>
        <time>2018-07-15T10:22:06Z</time>
      </trkpt>
      <trkpt lat="43.95003" lon="1.81764">
        <ele>268</ele>
        <time>2018-07-15T10:22:07Z</time>
      </trkpt>
      <trkpt lat="43.95002" lon="1.8177">
        <ele>268</ele>
        <time>2018-07-15T10:22:08Z</time>
      </trkpt>
      <trkpt lat="43.95002" lon="1.81777">
        <ele>268</ele>
        <time>2018-07-15T10:22:09Z</time>
      </trkpt>
      <trkpt lat="43.95001" lon="1.81783">
        <ele>268</ele>
        <time>2018-07-15T10:22:10Z</time>
      </trkpt>
      <trkpt lat="43.95001" lon="1.81789">
        <ele>268</ele>
        <time>2018-07-15T10:22:11Z</time>
      </trkpt>
      <trkpt lat="43.95" lon="1.81796">
        <ele>269</ele>
        <time>2018-07-15T10:22:12Z</time>
      </trkpt>
      <trkpt lat="43.95" lon="1.81803">
        <ele>269</ele>
        <time>2018-07-15T10:22:13Z</time>
      </trkpt>
      <trkpt lat="43.95" lon="1.8181">
        <ele>269</ele>
        <time>2018-07-15T10:22:14Z</time>
      </trkpt>
      <trkpt lat="43.94999" lon="1.81818">
        <ele>268</ele>
        <time>2018-07-15T10:22:15Z</time>
      </trkpt>
      <trkpt lat="43.94998" lon="1.81825">
        <ele>268</ele>
        <time>2018-07-15T10:22:16Z</time>
      </trkpt>
      <trkpt lat="43.94998" lon="1.81832">
        <ele>268</ele>
        <time>2018-07-15T10:22:17Z</time>
      </trkpt>
      <trkpt lat="43.94997" lon="1.8184">
        <ele>267</ele>
        <time>2018-07-15T10:22:18Z</time>
      </trkpt>
      <trkpt lat="43.94997" lon="1.81847">
        <ele>267</ele>
        <time>2018-07-15T10:22:19Z</time>
      </trkpt>
      <trkpt lat="43.94997" lon="1.81854">
        <ele>267</ele>
        <time>2018-07-15T10:22:20Z</time>
      </trkpt>
      <trkpt lat="43.94996" lon="1.81861">
        <ele>267</ele>
        <time>2018-07-15T10:22:21Z</time>
      </trkpt>
      <trkpt lat="43.94996" lon="1.81869">
        <ele>267</ele>
        <time>2018-07-15T10:22:22Z</time>
      </trkpt>
      <trkpt lat="43.94996" lon="1.81876">
        <ele>267</ele>
        <time>2018-07-15T10:22:23Z</time>
      </trkpt>
      <trkpt lat="43.94995" lon="1.81883">
        <ele>267</ele>
        <time>2018-07-15T10:22:24Z</time>
      </trkpt>
      <trkpt lat="43.94996" lon="1.81891">
        <ele>267</ele>
        <time>2018-07-15T10:22:25Z</time>
      </trkpt>
      <trkpt lat="43.94996" lon="1.81898">
        <ele>267</ele>
        <time>2018-07-15T10:22:26Z</time>
      </trkpt>
      <trkpt lat="43.94996" lon="1.81905">
        <ele>267</ele>
        <time>2018-07-15T10:22:27Z</time>
      </trkpt>
      <trkpt lat="43.94997" lon="1.81912">
        <ele>267</ele>
        <time>2018-07-15T10:22:28Z</time>
      </trkpt>
      <trkpt lat="43.94998" lon="1.8192">
        <ele>267</ele>
        <time>2018-07-15T10:22:29Z</time>
      </trkpt>
      <trkpt lat="43.94999" lon="1.81927">
        <ele>267</ele>
        <time>2018-07-15T10:22:30Z</time>
      </trkpt>
      <trkpt lat="43.95" lon="1.81934">
        <ele>267</ele>
        <time>2018-07-15T10:22:31Z</time>
      </trkpt>
      <trkpt lat="43.95002" lon="1.8194">
        <ele>267</ele>
        <time>2018-07-15T10:22:32Z</time>
      </trkpt>
      <trkpt lat="43.95004" lon="1.81947">
        <ele>268</ele>
        <time>2018-07-15T10:22:33Z</time>
      </trkpt>
      <trkpt lat="43.95005" lon="1.81953">
        <ele>267</ele>
        <time>2018-07-15T10:22:34Z</time>
      </trkpt>
      <trkpt lat="43.95008" lon="1.8196">
        <ele>268</ele>
        <time>2018-07-15T10:22:35Z</time>
      </trkpt>
      <trkpt lat="43.9501" lon="1.81966">
        <ele>268</ele>
        <time>2018-07-15T10:22:36Z</time>
      </trkpt>
      <trkpt lat="43.95012" lon="1.81972">
        <ele>268</ele>
        <time>2018-07-15T10:22:37Z</time>
      </trkpt>
      <trkpt lat="43.95015" lon="1.81978">
        <ele>268</ele>
        <time>2018-07-15T10:22:38Z</time>
      </trkpt>
      <trkpt lat="43.95017" lon="1.81984">
        <ele>268</ele>
        <time>2018-07-15T10:22:39Z</time>
      </trkpt>
      <trkpt lat="43.9502" lon="1.8199">
        <ele>268</ele>
        <time>2018-07-15T10:22:40Z</time>
      </trkpt>
      <trkpt lat="43.95023" lon="1.81996">
        <ele>268</ele>
        <time>2018-07-15T10:22:41Z</time>
      </trkpt>
      <trkpt lat="43.95026" lon="1.82001">
        <ele>268</ele>
        <time>2018-07-15T10:22:42Z</time>
      </trkpt>
      <trkpt lat="43.95029" lon="1.82007">
        <ele>268</ele>
        <time>2018-07-15T10:22:43Z</time>
      </trkpt>
      <trkpt lat="43.95032" lon="1.82012">
        <ele>268</ele>
        <time>2018-07-15T10:22:44Z</time>
      </trkpt>
      <trkpt lat="43.95035" lon="1.82018">
        <ele>268</ele>
        <time>2018-07-15T10:22:45Z</time>
      </trkpt>
      <trkpt lat="43.95038" lon="1.82024">
        <ele>268</ele>
        <time>2018-07-15T10:22:46Z</time>
      </trkpt>
      <trkpt lat="43.95042" lon="1.8203">
        <ele>269</ele>
        <time>2018-07-15T10:22:47Z</time>
      </trkpt>
      <trkpt lat="43.95045" lon="1.82036">
        <ele>269</ele>
        <time>2018-07-15T10:22:48Z</time>
      </trkpt>
      <trkpt lat="43.95048" lon="1.82041">
        <ele>268</ele>
        <time>2018-07-15T10:22:49Z</time>
      </trkpt>
      <trkpt lat="43.95052" lon="1.82047">
        <ele>268</ele>
        <time>2018-07-15T10:22:50Z</time>
      </trkpt>
      <trkpt lat="43.95055" lon="1.82053">
        <ele>268</ele>
        <time>2018-07-15T10:22:51Z</time>
      </trkpt>
      <trkpt lat="43.95058" lon="1.82059">
        <ele>268</ele>
        <time>2018-07-15T10:22:52Z</time>
      </trkpt>
      <trkpt lat="43.95061" lon="1.82065">
        <ele>268</ele>
        <time>2018-07-15T10:22:53Z</time>
      </trkpt>
      <trkpt lat="43.95064" lon="1.8207">
        <ele>267</ele>
        <time>2018-07-15T10:22:54Z</time>
      </trkpt>
      <trkpt lat="43.95068" lon="1.82076">
        <ele>267</ele>
        <time>2018-07-15T10:22:55Z</time>
      </trkpt>
      <trkpt lat="43.95071" lon="1.82081">
        <ele>267</ele>
        <time>2018-07-15T10:22:56Z</time>
      </trkpt>
      <trkpt lat="43.95075" lon="1.82087">
        <ele>267</ele>
        <time>2018-07-15T10:22:57Z</time>
      </trkpt>
      <trkpt lat="43.95078" lon="1.82093">
        <ele>268</ele>
        <time>2018-07-15T10:22:58Z</time>
      </trkpt>
      <trkpt lat="43.95082" lon="1.82098">
        <ele>268</ele>
        <time>2018-07-15T10:22:59Z</time>
      </trkpt>
      <trkpt lat="43.95086" lon="1.82103">
        <ele>268</ele>
        <time>2018-07-15T10:23:00Z</time>
      </trkpt>
      <trkpt lat="43.95089" lon="1.82109">
        <ele>268</ele>
        <time>2018-07-15T10:23:01Z</time>
      </trkpt>
      <trkpt lat="43.95093" lon="1.82115">
        <ele>268</ele>
        <time>2018-07-15T10:23:02Z</time>
      </trkpt>
      <trkpt lat="43.95097" lon="1.82121">
        <ele>268</ele>
        <time>2018-07-15T10:23:03Z</time>
      </trkpt>
      <trkpt lat="43.95102" lon="1.82127">
        <ele>268</ele>
        <time>2018-07-15T10:23:04Z</time>
      </trkpt>
      <trkpt lat="43.95106" lon="1.82132">
        <ele>268</ele>
        <time>2018-07-15T10:23:05Z</time>
      </trkpt>
      <trkpt lat="43.9511" lon="1.82139">
        <ele>267</ele>
        <time>2018-07-15T10:23:06Z</time>
      </trkpt>
      <trkpt lat="43.95115" lon="1.82145">
        <ele>267</ele>
        <time>2018-07-15T10:23:07Z</time>
      </trkpt>
      <trkpt lat="43.95119" lon="1.82151">
        <ele>266</ele>
        <time>2018-07-15T10:23:08Z</time>
      </trkpt>
      <trkpt lat="43.95124" lon="1.82157">
        <ele>266</ele>
        <time>2018-07-15T10:23:09Z</time>
      </trkpt>
      <trkpt lat="43.95128" lon="1.82163">
        <ele>266</ele>
        <time>2018-07-15T10:23:10Z</time>
      </trkpt>
      <trkpt lat="43.95133" lon="1.82169">
        <ele>266</ele>
        <time>2018-07-15T10:23:11Z</time>
      </trkpt>
      <trkpt lat="43.95138" lon="1.82176">
        <ele>266</ele>
        <time>2018-07-15T10:23:12Z</time>
      </trkpt>
      <trkpt lat="43.95143" lon="1.82182">
        <ele>266</ele>
        <time>2018-07-15T10:23:13Z</time>
      </trkpt>
      <trkpt lat="43.95148" lon="1.82188">
        <ele>266</ele>
        <time>2018-07-15T10:23:14Z</time>
      </trkpt>
      <trkpt lat="43.95153" lon="1.82194">
        <ele>266</ele>
        <time>2018-07-15T10:23:15Z</time>
      </trkpt>
      <trkpt lat="43.95159" lon="1.822">
        <ele>266</ele>
        <time>2018-07-15T10:23:16Z</time>
      </trkpt>
      <trkpt lat="43.95164" lon="1.82206">
        <ele>266</ele>
        <time>2018-07-15T10:23:17Z</time>
      </trkpt>
      <trkpt lat="43.95169" lon="1.82213">
        <ele>266</ele>
        <time>2018-07-15T10:23:18Z</time>
      </trkpt>
      <trkpt lat="43.95175" lon="1.82219">
        <ele>265</ele>
        <time>2018-07-15T10:23:19Z</time>
      </trkpt>
      <trkpt lat="43.9518" lon="1.82226">
        <ele>265</ele>
        <time>2018-07-15T10:23:20Z</time>
      </trkpt>
      <trkpt lat="43.95186" lon="1.82232">
        <ele>265</ele>
        <time>2018-07-15T10:23:21Z</time>
      </trkpt>
      <trkpt lat="43.95191" lon="1.82238">
        <ele>265</ele>
        <time>2018-07-15T10:23:22Z</time>
      </trkpt>
      <trkpt lat="43.95197" lon="1.82245">
        <ele>265</ele>
        <time>2018-07-15T10:23:23Z</time>
      </trkpt>
      <trkpt lat="43.95202" lon="1.82252">
        <ele>266</ele>
        <time>2018-07-15T10:23:24Z</time>
      </trkpt>
      <trkpt lat="43.95207" lon="1.82258">
        <ele>266</ele>
        <time>2018-07-15T10:23:25Z</time>
      </trkpt>
      <trkpt lat="43.95213" lon="1.82265">
        <ele>266</ele>
        <time>2018-07-15T10:23:26Z</time>
      </trkpt>
      <trkpt lat="43.95218" lon="1.82272">
        <ele>265</ele>
        <time>2018-07-15T10:23:27Z</time>
      </trkpt>
      <trkpt lat="43.95223" lon="1.82279">
        <ele>265</ele>
        <time>2018-07-15T10:23:28Z</time>
      </trkpt>
      <trkpt lat="43.95228" lon="1.82287">
        <ele>265</ele>
        <time>2018-07-15T10:23:29Z</time>
      </trkpt>
      <trkpt lat="43.95232" lon="1.82295">
        <ele>265</ele>
        <time>2018-07-15T10:23:30Z</time>
      </trkpt>
      <trkpt lat="43.95236" lon="1.82303">
        <ele>265</ele>
        <time>2018-07-15T10:23:31Z</time>
      </trkpt>
      <trkpt lat="43.9524" lon="1.82311">
        <ele>265</ele>
        <time>2018-07-15T10:23:32Z</time>
      </trkpt>
      <trkpt lat="43.95243" lon="1.82318">
        <ele>265</ele>
        <time>2018-07-15T10:23:33Z</time>
      </trkpt>
      <trkpt lat="43.95247" lon="1.82326">
        <ele>265</ele>
        <time>2018-07-15T10:23:34Z</time>
      </trkpt>
      <trkpt lat="43.95251" lon="1.82333">
        <ele>265</ele>
        <time>2018-07-15T10:23:35Z</time>
      </trkpt>
      <trkpt lat="43.95254" lon="1.82341">
        <ele>265</ele>
        <time>2018-07-15T10:23:36Z</time>
      </trkpt>
      <trkpt lat="43.95257" lon="1.82348">
        <ele>266</ele>
        <time>2018-07-15T10:23:37Z</time>
      </trkpt>
      <trkpt lat="43.9526" lon="1.82356">
        <ele>266</ele>
        <time>2018-07-15T10:23:38Z</time>
      </trkpt>
      <trkpt lat="43.95262" lon="1.82363">
        <ele>266</ele>
        <time>2018-07-15T10:23:39Z</time>
      </trkpt>
      <trkpt lat="43.95265" lon="1.8237">
        <ele>267</ele>
        <time>2018-07-15T10:23:40Z</time>
      </trkpt>
      <trkpt lat="43.95267" lon="1.82376">
        <ele>267</ele>
        <time>2018-07-15T10:23:41Z</time>
      </trkpt>
      <trkpt lat="43.9527" lon="1.82382">
        <ele>268</ele>
        <time>2018-07-15T10:23:42Z</time>
      </trkpt>
      <trkpt lat="43.95272" lon="1.82389">
        <ele>268</ele>
        <time>2018-07-15T10:23:43Z</time>
      </trkpt>
      <trkpt lat="43.95274" lon="1.82395">
        <ele>268</ele>
        <time>2018-07-15T10:23:44Z</time>
      </trkpt>
      <trkpt lat="43.95277" lon="1.82401">
        <ele>268</ele>
        <time>2018-07-15T10:23:45Z</time>
      </trkpt>
      <trkpt lat="43.95279" lon="1.82407">
        <ele>268</ele>
        <time>2018-07-15T10:23:46Z</time>
      </trkpt>
      <trkpt lat="43.95282" lon="1.82413">
        <ele>269</ele>
        <time>2018-07-15T10:23:47Z</time>
      </trkpt>
      <trkpt lat="43.95284" lon="1.82419">
        <ele>269</ele>
        <time>2018-07-15T10:23:48Z</time>
      </trkpt>
      <trkpt lat="43.95286" lon="1.82425">
        <ele>269</ele>
        <time>2018-07-15T10:23:49Z</time>
      </trkpt>
      <trkpt lat="43.95289" lon="1.8243">
        <ele>269</ele>
        <time>2018-07-15T10:23:50Z</time>
      </trkpt>
      <trkpt lat="43.95292" lon="1.82436">
        <ele>269</ele>
        <time>2018-07-15T10:23:51Z</time>
      </trkpt>
      <trkpt lat="43.95294" lon="1.82442">
        <ele>269</ele>
        <time>2018-07-15T10:23:52Z</time>
      </trkpt>
      <trkpt lat="43.95297" lon="1.82448">
        <ele>269</ele>
        <time>2018-07-15T10:23:53Z</time>
      </trkpt>
      <trkpt lat="43.95299" lon="1.82454">
        <ele>269</ele>
        <time>2018-07-15T10:23:54Z</time>
      </trkpt>
      <trkpt lat="43.95302" lon="1.82459">
        <ele>269</ele>
        <time>2018-07-15T10:23:55Z</time>
      </trkpt>
      <trkpt lat="43.95304" lon="1.82465">
        <ele>270</ele>
        <time>2018-07-15T10:23:56Z</time>
      </trkpt>
      <trkpt lat="43.95307" lon="1.8247">
        <ele>270</ele>
        <time>2018-07-15T10:23:57Z</time>
      </trkpt>
      <trkpt lat="43.9531" lon="1.82475">
        <ele>270</ele>
        <time>2018-07-15T10:23:58Z</time>
      </trkpt>
      <trkpt lat="43.95313" lon="1.82481">
        <ele>271</ele>
        <time>2018-07-15T10:23:59Z</time>
      </trkpt>
      <trkpt lat="43.95315" lon="1.82486">
        <ele>271</ele>
        <time>2018-07-15T10:24:00Z</time>
      </trkpt>
      <trkpt lat="43.95318" lon="1.82492">
        <ele>271</ele>
        <time>2018-07-15T10:24:01Z</time>
      </trkpt>
      <trkpt lat="43.9532" lon="1.82497">
        <ele>271</ele>
        <time>2018-07-15T10:24:02Z</time>
      </trkpt>
      <trkpt lat="43.95323" lon="1.82503">
        <ele>271</ele>
        <time>2018-07-15T10:24:03Z</time>
      </trkpt>
      <trkpt lat="43.95325" lon="1.82507">
        <ele>272</ele>
        <time>2018-07-15T10:24:04Z</time>
      </trkpt>
      <trkpt lat="43.95328" lon="1.82512">
        <ele>272</ele>
        <time>2018-07-15T10:24:05Z</time>
      </trkpt>
      <trkpt lat="43.9533" lon="1.82517">
        <ele>272</ele>
        <time>2018-07-15T10:24:06Z</time>
      </trkpt>
      <trkpt lat="43.95333" lon="1.82522">
        <ele>272</ele>
        <time>2018-07-15T10:24:07Z</time>
      </trkpt>
      <trkpt lat="43.95336" lon="1.82528">
        <ele>273</ele>
        <time>2018-07-15T10:24:08Z</time>
      </trkpt>
      <trkpt lat="43.95339" lon="1.82533">
        <ele>273</ele>
        <time>2018-07-15T10:24:09Z</time>
      </trkpt>
      <trkpt lat="43.95342" lon="1.82539">
        <ele>273</ele>
        <time>2018-07-15T10:24:10Z</time>
      </trkpt>
      <trkpt lat="43.95345" lon="1.82545">
        <ele>273</ele>
        <time>2018-07-15T10:24:11Z</time>
      </trkpt>
      <trkpt lat="43.95348" lon="1.82551">
        <ele>273</ele>
        <time>2018-07-15T10:24:12Z</time>
      </trkpt>
      <trkpt lat="43.95351" lon="1.82557">
        <ele>273</ele>
        <time>2018-07-15T10:24:13Z</time>
      </trkpt>
      <trkpt lat="43.95354" lon="1.82563">
        <ele>274</ele>
        <time>2018-07-15T10:24:14Z</time>
      </trkpt>
      <trkpt lat="43.95356" lon="1.82569">
        <ele>274</ele>
        <time>2018-07-15T10:24:15Z</time>
      </trkpt>
      <trkpt lat="43.95359" lon="1.82574">
        <ele>274</ele>
        <time>2018-07-15T10:24:16Z</time>
      </trkpt>
      <trkpt lat="43.95362" lon="1.8258">
        <ele>274</ele>
        <time>2018-07-15T10:24:17Z</time>
      </trkpt>
      <trkpt lat="43.95365" lon="1.82585">
        <ele>274</ele>
        <time>2018-07-15T10:24:18Z</time>
      </trkpt>
      <trkpt lat="43.95368" lon="1.8259">
        <ele>275</ele>
        <time>2018-07-15T10:24:19Z</time>
      </trkpt>
      <trkpt lat="43.95371" lon="1.82596">
        <ele>275</ele>
        <time>2018-07-15T10:24:20Z</time>
      </trkpt>
      <trkpt lat="43.95374" lon="1.82601">
        <ele>275</ele>
        <time>2018-07-15T10:24:21Z</time>
      </trkpt>
      <trkpt lat="43.95377" lon="1.82606">
        <ele>275</ele>
        <time>2018-07-15T10:24:22Z</time>
      </trkpt>
      <trkpt lat="43.95379" lon="1.82612">
        <ele>276</ele>
        <time>2018-07-15T10:24:23Z</time>
      </trkpt>
      <trkpt lat="43.95382" lon="1.82616">
        <ele>276</ele>
        <time>2018-07-15T10:24:24Z</time>
      </trkpt>
      <trkpt lat="43.95385" lon="1.82621">
        <ele>276</ele>
        <time>2018-07-15T10:24:25Z</time>
      </trkpt>
      <trkpt lat="43.95387" lon="1.82625">
        <ele>276</ele>
        <time>2018-07-15T10:24:26Z</time>
      </trkpt>
      <trkpt lat="43.9539" lon="1.82629">
        <ele>276</ele>
        <time>2018-07-15T10:24:27Z</time>
      </trkpt>
      <trkpt lat="43.95392" lon="1.82633">
        <ele>276</ele>
        <time>2018-07-15T10:24:28Z</time>
      </trkpt>
      <trkpt lat="43.95394" lon="1.82638">
        <ele>276</ele>
        <time>2018-07-15T10:24:29Z</time>
      </trkpt>
      <trkpt lat="43.95397" lon="1.82642">
        <ele>276</ele>
        <time>2018-07-15T10:24:30Z</time>
      </trkpt>
      <trkpt lat="43.95399" lon="1.82646">
        <ele>277</ele>
        <time>2018-07-15T10:24:31Z</time>
      </trkpt>
      <trkpt lat="43.95402" lon="1.8265">
        <ele>277</ele>
        <time>2018-07-15T10:24:32Z</time>
      </trkpt>
      <trkpt lat="43.95404" lon="1.82655">
        <ele>277</ele>
        <time>2018-07-15T10:24:33Z</time>
      </trkpt>
      <trkpt lat="43.95407" lon="1.8266">
        <ele>277</ele>
        <time>2018-07-15T10:24:34Z</time>
      </trkpt>
      <trkpt lat="43.95409" lon="1.82665">
        <ele>277</ele>
        <time>2018-07-15T10:24:35Z</time>
      </trkpt>
      <trkpt lat="43.95412" lon="1.8267">
        <ele>277</ele>
        <time>2018-07-15T10:24:36Z</time>
      </trkpt>
      <trkpt lat="43.95415" lon="1.82675">
        <ele>277</ele>
        <time>2018-07-15T10:24:37Z</time>
      </trkpt>
      <trkpt lat="43.95417" lon="1.8268">
        <ele>277</ele>
        <time>2018-07-15T10:24:38Z</time>
      </trkpt>
      <trkpt lat="43.9542" lon="1.82686">
        <ele>277</ele>
        <time>2018-07-15T10:24:39Z</time>
      </trkpt>
      <trkpt lat="43.95422" lon="1.82691">
        <ele>276</ele>
        <time>2018-07-15T10:24:40Z</time>
      </trkpt>
      <trkpt lat="43.95425" lon="1.82696">
        <ele>276</ele>
        <time>2018-07-15T10:24:41Z</time>
      </trkpt>
      <trkpt lat="43.95428" lon="1.82702">
        <ele>276</ele>
        <time>2018-07-15T10:24:42Z</time>
      </trkpt>
      <trkpt lat="43.95431" lon="1.82707">
        <ele>276</ele>
        <time>2018-07-15T10:24:43Z</time>
      </trkpt>
      <trkpt lat="43.95433" lon="1.82713">
        <ele>276</ele>
        <time>2018-07-15T10:24:44Z</time>
      </trkpt>
      <trkpt lat="43.95436" lon="1.82719">
        <ele>276</ele>
        <time>2018-07-15T10:24:45Z</time>
      </trkpt>
      <trkpt lat="43.95439" lon="1.82725">
        <ele>276</ele>
        <time>2018-07-15T10:24:46Z</time>
      </trkpt>
      <trkpt lat="43.95442" lon="1.82731">
        <ele>276</ele>
        <time>2018-07-15T10:24:47Z</time>
      </trkpt>
      <trkpt lat="43.95445" lon="1.82737">
        <ele>276</ele>
        <time>2018-07-15T10:24:48Z</time>
      </trkpt>
      <trkpt lat="43.95448" lon="1.82742">
        <ele>276</ele>
        <time>2018-07-15T10:24:49Z</time>
      </trkpt>
      <trkpt lat="43.95451" lon="1.82748">
        <ele>276</ele>
        <time>2018-07-15T10:24:50Z</time>
      </trkpt>
      <trkpt lat="43.95453" lon="1.82754">
        <ele>276</ele>
        <time>2018-07-15T10:24:51Z</time>
      </trkpt>
      <trkpt lat="43.95456" lon="1.8276">
        <ele>276</ele>
        <time>2018-07-15T10:24:52Z</time>
      </trkpt>
      <trkpt lat="43.95459" lon="1.82766">
        <ele>276</ele>
        <time>2018-07-15T10:24:53Z</time>
      </trkpt>
      <trkpt lat="43.95461" lon="1.82772">
        <ele>276</ele>
        <time>2018-07-15T10:24:54Z</time>
      </trkpt>
      <trkpt lat="43.95464" lon="1.82777">
        <ele>276</ele>
        <time>2018-07-15T10:24:55Z</time>
      </trkpt>
      <trkpt lat="43.95467" lon="1.82783">
        <ele>276</ele>
        <time>2018-07-15T10:24:56Z</time>
      </trkpt>
      <trkpt lat="43.9547" lon="1.82788">
        <ele>276</ele>
        <time>2018-07-15T10:24:57Z</time>
      </trkpt>
      <trkpt lat="43.95473" lon="1.82794">
        <ele>276</ele>
        <time>2018-07-15T10:24:58Z</time>
      </trkpt>
      <trkpt lat="43.95476" lon="1.82801">
        <ele>276</ele>
        <time>2018-07-15T10:24:59Z</time>
      </trkpt>
      <trkpt lat="43.95479" lon="1.82807">
        <ele>276</ele>
        <time>2018-07-15T10:25:00Z</time>
      </trkpt>
      <trkpt lat="43.95482" lon="1.82813">
        <ele>275</ele>
        <time>2018-07-15T10:25:01Z</time>
      </trkpt>
      <trkpt lat="43.95486" lon="1.82819">
        <ele>275</ele>
        <time>2018-07-15T10:25:02Z</time>
      </trkpt>
      <trkpt lat="43.95489" lon="1.82826">
        <ele>275</ele>
        <time>2018-07-15T10:25:03Z</time>
      </trkpt>
      <trkpt lat="43.95493" lon="1.82833">
        <ele>275</ele>
        <time>2018-07-15T10:25:04Z</time>
      </trkpt>
      <trkpt lat="43.95496" lon="1.8284">
        <ele>274</ele>
        <time>2018-07-15T10:25:05Z</time>
      </trkpt>
      <trkpt lat="43.955" lon="1.82847">
        <ele>274</ele>
        <time>2018-07-15T10:25:06Z</time>
      </trkpt>
      <trkpt lat="43.95504" lon="1.82855">
        <ele>274</ele>
        <time>2018-07-15T10:25:07Z</time>
      </trkpt>
      <trkpt lat="43.95508" lon="1.82862">
        <ele>274</ele>
        <time>2018-07-15T10:25:08Z</time>
      </trkpt>
      <trkpt lat="43.95512" lon="1.82868">
        <ele>274</ele>
        <time>2018-07-15T10:25:09Z</time>
      </trkpt>
      <trkpt lat="43.95516" lon="1.82875">
        <ele>274</ele>
        <time>2018-07-15T10:25:11Z</time>
      </trkpt>
      <trkpt lat="43.95521" lon="1.8288">
        <ele>274</ele>
        <time>2018-07-15T10:25:12Z</time>
      </trkpt>
      <trkpt lat="43.95527" lon="1.82885">
        <ele>274</ele>
        <time>2018-07-15T10:25:13Z</time>
      </trkpt>
      <trkpt lat="43.95533" lon="1.82888">
        <ele>274</ele>
        <time>2018-07-15T10:25:14Z</time>
      </trkpt>
      <trkpt lat="43.9554" lon="1.82891">
        <ele>273</ele>
        <time>2018-07-15T10:25:15Z</time>
      </trkpt>
      <trkpt lat="43.95546" lon="1.82894">
        <ele>273</ele>
        <time>2018-07-15T10:25:16Z</time>
      </trkpt>
      <trkpt lat="43.95553" lon="1.82897">
        <ele>273</ele>
        <time>2018-07-15T10:25:17Z</time>
      </trkpt>
      <trkpt lat="43.9556" lon="1.829">
        <ele>273</ele>
        <time>2018-07-15T10:25:18Z</time>
      </trkpt>
      <trkpt lat="43.95566" lon="1.82902">
        <ele>274</ele>
        <time>2018-07-15T10:25:19Z</time>
      </trkpt>
      <trkpt lat="43.95572" lon="1.82906">
        <ele>273</ele>
        <time>2018-07-15T10:25:20Z</time>
      </trkpt>
      <trkpt lat="43.95578" lon="1.82911">
        <ele>273</ele>
        <time>2018-07-15T10:25:21Z</time>
      </trkpt>
      <trkpt lat="43.95584" lon="1.82916">
        <ele>273</ele>
        <time>2018-07-15T10:25:22Z</time>
      </trkpt>
      <trkpt lat="43.95589" lon="1.82922">
        <ele>273</ele>
        <time>2018-07-15T10:25:23Z</time>
      </trkpt>
      <trkpt lat="43.95595" lon="1.82928">
        <ele>273</ele>
        <time>2018-07-15T10:25:24Z</time>
      </trkpt>
      <trkpt lat="43.956" lon="1.82935">
        <ele>273</ele>
        <time>2018-07-15T10:25:25Z</time>
      </trkpt>
      <trkpt lat="43.95605" lon="1.82943">
        <ele>272</ele>
        <time>2018-07-15T10:25:26Z</time>
      </trkpt>
      <trkpt lat="43.9561" lon="1.82951">
        <ele>272</ele>
        <time>2018-07-15T10:25:27Z</time>
      </trkpt>
      <trkpt lat="43.95614" lon="1.82958">
        <ele>272</ele>
        <time>2018-07-15T10:25:28Z</time>
      </trkpt>
      <trkpt lat="43.95619" lon="1.82966">
        <ele>272</ele>
        <time>2018-07-15T10:25:29Z</time>
      </trkpt>
      <trkpt lat="43.95624" lon="1.82974">
        <ele>272</ele>
        <time>2018-07-15T10:25:30Z</time>
      </trkpt>
      <trkpt lat="43.95629" lon="1.82981">
        <ele>272</ele>
        <time>2018-07-15T10:25:31Z</time>
      </trkpt>
      <trkpt lat="43.95634" lon="1.82989">
        <ele>272</ele>
        <time>2018-07-15T10:25:32Z</time>
      </trkpt>
      <trkpt lat="43.95638" lon="1.82997">
        <ele>271</ele>
        <time>2018-07-15T10:25:33Z</time>
      </trkpt>
      <trkpt lat="43.95643" lon="1.83005">
        <ele>271</ele>
        <time>2018-07-15T10:25:34Z</time>
      </trkpt>
      <trkpt lat="43.95648" lon="1.83012">
        <ele>271</ele>
        <time>2018-07-15T10:25:35Z</time>
      </trkpt>
      <trkpt lat="43.95652" lon="1.8302">
        <ele>271</ele>
        <time>2018-07-15T10:25:36Z</time>
      </trkpt>
      <trkpt lat="43.95657" lon="1.83028">
        <ele>271</ele>
        <time>2018-07-15T10:25:37Z</time>
      </trkpt>
      <trkpt lat="43.95661" lon="1.83037">
        <ele>271</ele>
        <time>2018-07-15T10:25:38Z</time>
      </trkpt>
      <trkpt lat="43.95665" lon="1.83045">
        <ele>270</ele>
        <time>2018-07-15T10:25:39Z</time>
      </trkpt>
      <trkpt lat="43.95669" lon="1.83054">
        <ele>270</ele>
        <time>2018-07-15T10:25:40Z</time>
      </trkpt>
      <trkpt lat="43.95672" lon="1.83063">
        <ele>270</ele>
        <time>2018-07-15T10:25:41Z</time>
      </trkpt>
      <trkpt lat="43.95674" lon="1.83073">
        <ele>270</ele>
        <time>2018-07-15T10:25:42Z</time>
      </trkpt>
      <trkpt lat="43.95675" lon="1.83083">
        <ele>270</ele>
        <time>2018-07-15T10:25:43Z</time>
      </trkpt>
      <trkpt lat="43.95676" lon="1.83093">
        <ele>271</ele>
        <time>2018-07-15T10:25:44Z</time>
      </trkpt>
      <trkpt lat="43.95676" lon="1.83103">
        <ele>271</ele>
        <time>2018-07-15T10:25:45Z</time>
      </trkpt>
      <trkpt lat="43.95676" lon="1.83113">
        <ele>271</ele>
        <time>2018-07-15T10:25:46Z</time>
      </trkpt>
      <trkpt lat="43.95676" lon="1.83123">
        <ele>271</ele>
        <time>2018-07-15T10:25:47Z</time>
      </trkpt>
      <trkpt lat="43.95675" lon="1.83132">
        <ele>271</ele>
        <time>2018-07-15T10:25:48Z</time>
      </trkpt>
      <trkpt lat="43.95674" lon="1.83142">
        <ele>271</ele>
        <time>2018-07-15T10:25:49Z</time>
      </trkpt>
      <trkpt lat="43.95672" lon="1.83151">
        <ele>272</ele>
        <time>2018-07-15T10:25:50Z</time>
      </trkpt>
      <trkpt lat="43.95671" lon="1.83159">
        <ele>272</ele>
        <time>2018-07-15T10:25:51Z</time>
      </trkpt>
      <trkpt lat="43.95669" lon="1.83168">
        <ele>273</ele>
        <time>2018-07-15T10:25:52Z</time>
      </trkpt>
      <trkpt lat="43.95668" lon="1.83176">
        <ele>273</ele>
        <time>2018-07-15T10:25:53Z</time>
      </trkpt>
      <trkpt lat="43.95666" lon="1.83184">
        <ele>273</ele>
        <time>2018-07-15T10:25:54Z</time>
      </trkpt>
      <trkpt lat="43.95665" lon="1.83192">
        <ele>274</ele>
        <time>2018-07-15T10:25:55Z</time>
      </trkpt>
      <trkpt lat="43.95664" lon="1.832">
        <ele>274</ele>
        <time>2018-07-15T10:25:56Z</time>
      </trkpt>
      <trkpt lat="43.95663" lon="1.83208">
        <ele>274</ele>
        <time>2018-07-15T10:25:57Z</time>
      </trkpt>
      <trkpt lat="43.95662" lon="1.83216">
        <ele>274</ele>
        <time>2018-07-15T10:25:58Z</time>
      </trkpt>
      <trkpt lat="43.95662" lon="1.83225">
        <ele>275</ele>
        <time>2018-07-15T10:25:59Z</time>
      </trkpt>
      <trkpt lat="43.95662" lon="1.83233">
        <ele>275</ele>
        <time>2018-07-15T10:26:00Z</time>
      </trkpt>
      <trkpt lat="43.95662" lon="1.83241">
        <ele>275</ele>
        <time>2018-07-15T10:26:01Z</time>
      </trkpt>
      <trkpt lat="43.95662" lon="1.83249">
        <ele>276</ele>
        <time>2018-07-15T10:26:02Z</time>
      </trkpt>
      <trkpt lat="43.95662" lon="1.83257">
        <ele>276</ele>
        <time>2018-07-15T10:26:03Z</time>
      </trkpt>
      <trkpt lat="43.95662" lon="1.83264">
        <ele>277</ele>
        <time>2018-07-15T10:26:04Z</time>
      </trkpt>
      <trkpt lat="43.95662" lon="1.83272">
        <ele>277</ele>
        <time>2018-07-15T10:26:05Z</time>
      </trkpt>
      <trkpt lat="43.95662" lon="1.83279">
        <ele>278</ele>
        <time>2018-07-15T10:26:06Z</time>
      </trkpt>
      <trkpt lat="43.95662" lon="1.83286">
        <ele>278</ele>
        <time>2018-07-15T10:26:07Z</time>
      </trkpt>
      <trkpt lat="43.95662" lon="1.83293">
        <ele>278</ele>
        <time>2018-07-15T10:26:08Z</time>
      </trkpt>
      <trkpt lat="43.95662" lon="1.833">
        <ele>278</ele>
        <time>2018-07-15T10:26:09Z</time>
      </trkpt>
      <trkpt lat="43.95661" lon="1.83307">
        <ele>279</ele>
        <time>2018-07-15T10:26:10Z</time>
      </trkpt>
      <trkpt lat="43.95661" lon="1.83314">
        <ele>279</ele>
        <time>2018-07-15T10:26:11Z</time>
      </trkpt>
      <trkpt lat="43.95661" lon="1.83321">
        <ele>280</ele>
        <time>2018-07-15T10:26:12Z</time>
      </trkpt>
      <trkpt lat="43.95661" lon="1.83327">
        <ele>280</ele>
        <time>2018-07-15T10:26:13Z</time>
      </trkpt>
      <trkpt lat="43.9566" lon="1.83333">
        <ele>280</ele>
        <time>2018-07-15T10:26:14Z</time>
      </trkpt>
      <trkpt lat="43.95659" lon="1.83338">
        <ele>280</ele>
        <time>2018-07-15T10:26:15Z</time>
      </trkpt>
      <trkpt lat="43.95659" lon="1.83344">
        <ele>281</ele>
        <time>2018-07-15T10:26:16Z</time>
      </trkpt>
      <trkpt lat="43.95659" lon="1.83349">
        <ele>281</ele>
        <time>2018-07-15T10:26:17Z</time>
      </trkpt>
      <trkpt lat="43.95659" lon="1.83355">
        <ele>281</ele>
        <time>2018-07-15T10:26:18Z</time>
      </trkpt>
      <trkpt lat="43.95659" lon="1.83359">
        <ele>281</ele>
        <time>2018-07-15T10:26:19Z</time>
      </trkpt>
      <trkpt lat="43.95659" lon="1.83364">
        <ele>282</ele>
        <time>2018-07-15T10:26:20Z</time>
      </trkpt>
      <trkpt lat="43.95659" lon="1.83369">
        <ele>282</ele>
        <time>2018-07-15T10:26:21Z</time>
      </trkpt>
      <trkpt lat="43.95659" lon="1.83373">
        <ele>282</ele>
        <time>2018-07-15T10:26:22Z</time>
      </trkpt>
      <trkpt lat="43.9566" lon="1.83377">
        <ele>282</ele>
        <time>2018-07-15T10:26:23Z</time>
      </trkpt>
      <trkpt lat="43.9566" lon="1.83383">
        <ele>282</ele>
        <time>2018-07-15T10:26:24Z</time>
      </trkpt>
      <trkpt lat="43.9566" lon="1.83388">
        <ele>282</ele>
        <time>2018-07-15T10:26:25Z</time>
      </trkpt>
      <trkpt lat="43.9566" lon="1.83393">
        <ele>282</ele>
        <time>2018-07-15T10:26:26Z</time>
      </trkpt>
      <trkpt lat="43.95661" lon="1.83397">
        <ele>281</ele>
        <time>2018-07-15T10:26:27Z</time>
      </trkpt>
      <trkpt lat="43.95661" lon="1.83402">
        <ele>281</ele>
        <time>2018-07-15T10:26:28Z</time>
      </trkpt>
      <trkpt lat="43.95662" lon="1.83406">
        <ele>281</ele>
        <time>2018-07-15T10:26:29Z</time>
      </trkpt>
      <trkpt lat="43.95663" lon="1.8341">
        <ele>281</ele>
        <time>2018-07-15T10:26:30Z</time>
      </trkpt>
      <trkpt lat="43.95663" lon="1.83414">
        <ele>281</ele>
        <time>2018-07-15T10:26:31Z</time>
      </trkpt>
      <trkpt lat="43.95663" lon="1.83418">
        <ele>281</ele>
        <time>2018-07-15T10:26:32Z</time>
      </trkpt>
      <trkpt lat="43.95664" lon="1.83423">
        <ele>280</ele>
        <time>2018-07-15T10:26:33Z</time>
      </trkpt>
      <trkpt lat="43.95665" lon="1.83428">
        <ele>280</ele>
        <time>2018-07-15T10:26:34Z</time>
      </trkpt>
      <trkpt lat="43.95666" lon="1.83435">
        <ele>280</ele>
        <time>2018-07-15T10:26:35Z</time>
      </trkpt>
      <trkpt lat="43.95667" lon="1.83441">
        <ele>279</ele>
        <time>2018-07-15T10:26:36Z</time>
      </trkpt>
      <trkpt lat="43.95668" lon="1.83448">
        <ele>278</ele>
        <time>2018-07-15T10:26:37Z</time>
      </trkpt>
      <trkpt lat="43.95669" lon="1.83454">
        <ele>278</ele>
        <time>2018-07-15T10:26:38Z</time>
      </trkpt>
      <trkpt lat="43.95671" lon="1.8346">
        <ele>277</ele>
        <time>2018-07-15T10:26:39Z</time>
      </trkpt>
      <trkpt lat="43.95672" lon="1.83467">
        <ele>277</ele>
        <time>2018-07-15T10:26:40Z</time>
      </trkpt>
      <trkpt lat="43.95673" lon="1.83475">
        <ele>276</ele>
        <time>2018-07-15T10:26:41Z</time>
      </trkpt>
      <trkpt lat="43.95673" lon="1.83483">
        <ele>275</ele>
        <time>2018-07-15T10:26:42Z</time>
      </trkpt>
      <trkpt lat="43.95671" lon="1.83491">
        <ele>275</ele>
        <time>2018-07-15T10:26:43Z</time>
      </trkpt>
      <trkpt lat="43.95669" lon="1.83499">
        <ele>275</ele>
        <time>2018-07-15T10:26:44Z</time>
      </trkpt>
      <trkpt lat="43.95665" lon="1.83505">
        <ele>274</ele>
        <time>2018-07-15T10:26:45Z</time>
      </trkpt>
      <trkpt lat="43.95662" lon="1.83511">
        <ele>274</ele>
        <time>2018-07-15T10:26:46Z</time>
      </trkpt>
      <trkpt lat="43.95659" lon="1.83518">
        <ele>274</ele>
        <time>2018-07-15T10:26:47Z</time>
      </trkpt>
      <trkpt lat="43.95656" lon="1.83524">
        <ele>274</ele>
        <time>2018-07-15T10:26:48Z</time>
      </trkpt>
      <trkpt lat="43.95654" lon="1.83529">
        <ele>273</ele>
        <time>2018-07-15T10:26:49Z</time>
      </trkpt>
      <trkpt lat="43.95652" lon="1.83535">
        <ele>274</ele>
        <time>2018-07-15T10:26:50Z</time>
      </trkpt>
      <trkpt lat="43.95649" lon="1.83539">
        <ele>274</ele>
        <time>2018-07-15T10:26:51Z</time>
      </trkpt>
      <trkpt lat="43.95647" lon="1.83544">
        <ele>274</ele>
        <time>2018-07-15T10:26:52Z</time>
      </trkpt>
      <trkpt lat="43.95645" lon="1.83548">
        <ele>275</ele>
        <time>2018-07-15T10:26:53Z</time>
      </trkpt>
      <trkpt lat="43.95643" lon="1.83553">
        <ele>275</ele>
        <time>2018-07-15T10:26:54Z</time>
      </trkpt>
      <trkpt lat="43.95641" lon="1.83557">
        <ele>275</ele>
        <time>2018-07-15T10:26:55Z</time>
      </trkpt>
      <trkpt lat="43.95639" lon="1.83561">
        <ele>275</ele>
        <time>2018-07-15T10:26:56Z</time>
      </trkpt>
      <trkpt lat="43.95636" lon="1.83566">
        <ele>275</ele>
        <time>2018-07-15T10:26:57Z</time>
      </trkpt>
      <trkpt lat="43.95634" lon="1.83571">
        <ele>275</ele>
        <time>2018-07-15T10:26:58Z</time>
      </trkpt>
      <trkpt lat="43.95632" lon="1.83575">
        <ele>275</ele>
        <time>2018-07-15T10:26:59Z</time>
      </trkpt>
      <trkpt lat="43.95629" lon="1.8358">
        <ele>275</ele>
        <time>2018-07-15T10:27:00Z</time>
      </trkpt>
      <trkpt lat="43.95626" lon="1.83585">
        <ele>275</ele>
        <time>2018-07-15T10:27:01Z</time>
      </trkpt>
      <trkpt lat="43.95624" lon="1.83589">
        <ele>274</ele>
        <time>2018-07-15T10:27:02Z</time>
      </trkpt>
      <trkpt lat="43.95621" lon="1.83594">
        <ele>274</ele>
        <time>2018-07-15T10:27:03Z</time>
      </trkpt>
      <trkpt lat="43.95618" lon="1.83599">
        <ele>274</ele>
        <time>2018-07-15T10:27:04Z</time>
      </trkpt>
      <trkpt lat="43.95615" lon="1.83604">
        <ele>274</ele>
        <time>2018-07-15T10:27:05Z</time>
      </trkpt>
      <trkpt lat="43.95611" lon="1.83609">
        <ele>273</ele>
        <time>2018-07-15T10:27:06Z</time>
      </trkpt>
      <trkpt lat="43.95608" lon="1.83614">
        <ele>273</ele>
        <time>2018-07-15T10:27:07Z</time>
      </trkpt>
      <trkpt lat="43.95604" lon="1.83619">
        <ele>273</ele>
        <time>2018-07-15T10:27:08Z</time>
      </trkpt>
      <trkpt lat="43.956" lon="1.83624">
        <ele>272</ele>
        <time>2018-07-15T10:27:09Z</time>
      </trkpt>
      <trkpt lat="43.95595" lon="1.83629">
        <ele>272</ele>
        <time>2018-07-15T10:27:10Z</time>
      </trkpt>
      <trkpt lat="43.95591" lon="1.83634">
        <ele>272</ele>
        <time>2018-07-15T10:27:11Z</time>
      </trkpt>
      <trkpt lat="43.95587" lon="1.8364">
        <ele>271</ele>
        <time>2018-07-15T10:27:12Z</time>
      </trkpt>
      <trkpt lat="43.95583" lon="1.83646">
        <ele>271</ele>
        <time>2018-07-15T10:27:13Z</time>
      </trkpt>
      <trkpt lat="43.95579" lon="1.83652">
        <ele>271</ele>
        <time>2018-07-15T10:27:14Z</time>
      </trkpt>
      <trkpt lat="43.95574" lon="1.83658">
        <ele>271</ele>
        <time>2018-07-15T10:27:15Z</time>
      </trkpt>
      <trkpt lat="43.9557" lon="1.83664">
        <ele>271</ele>
        <time>2018-07-15T10:27:16Z</time>
      </trkpt>
      <trkpt lat="43.95565" lon="1.8367">
        <ele>270</ele>
        <time>2018-07-15T10:27:17Z</time>
      </trkpt>
      <trkpt lat="43.95561" lon="1.83677">
        <ele>270</ele>
        <time>2018-07-15T10:27:18Z</time>
      </trkpt>
      <trkpt lat="43.95556" lon="1.83684">
        <ele>270</ele>
        <time>2018-07-15T10:27:19Z</time>
      </trkpt>
      <trkpt lat="43.95551" lon="1.83691">
        <ele>269</ele>
        <time>2018-07-15T10:27:20Z</time>
      </trkpt>
      <trkpt lat="43.95546" lon="1.83697">
        <ele>269</ele>
        <time>2018-07-15T10:27:21Z</time>
      </trkpt>
      <trkpt lat="43.95541" lon="1.83703">
        <ele>268</ele>
        <time>2018-07-15T10:27:22Z</time>
      </trkpt>
      <trkpt lat="43.95537" lon="1.83709">
        <ele>268</ele>
        <time>2018-07-15T10:27:23Z</time>
      </trkpt>
      <trkpt lat="43.95533" lon="1.83714">
        <ele>268</ele>
        <time>2018-07-15T10:27:24Z</time>
      </trkpt>
      <trkpt lat="43.95529" lon="1.83718">
        <ele>268</ele>
        <time>2018-07-15T10:27:25Z</time>
      </trkpt>
      <trkpt lat="43.95524" lon="1.83723">
        <ele>267</ele>
        <time>2018-07-15T10:27:26Z</time>
      </trkpt>
      <trkpt lat="43.95519" lon="1.83727">
        <ele>267</ele>
        <time>2018-07-15T10:27:27Z</time>
      </trkpt>
      <trkpt lat="43.95513" lon="1.8373">
        <ele>267</ele>
        <time>2018-07-15T10:27:28Z</time>
      </trkpt>
      <trkpt lat="43.95506" lon="1.83732">
        <ele>267</ele>
        <time>2018-07-15T10:27:29Z</time>
      </trkpt>
      <trkpt lat="43.95499" lon="1.83733">
        <ele>266</ele>
        <time>2018-07-15T10:27:30Z</time>
      </trkpt>
      <trkpt lat="43.95492" lon="1.83733">
        <ele>266</ele>
        <time>2018-07-15T10:27:31Z</time>
      </trkpt>
      <trkpt lat="43.95484" lon="1.83731">
        <ele>265</ele>
        <time>2018-07-15T10:27:32Z</time>
      </trkpt>
      <trkpt lat="43.95477" lon="1.83728">
        <ele>264</ele>
        <time>2018-07-15T10:27:33Z</time>
      </trkpt>
      <trkpt lat="43.95469" lon="1.83725">
        <ele>263</ele>
        <time>2018-07-15T10:27:34Z</time>
      </trkpt>
      <trkpt lat="43.95461" lon="1.83721">
        <ele>263</ele>
        <time>2018-07-15T10:27:35Z</time>
      </trkpt>
      <trkpt lat="43.95453" lon="1.83717">
        <ele>262</ele>
        <time>2018-07-15T10:27:36Z</time>
      </trkpt>
      <trkpt lat="43.95445" lon="1.83714">
        <ele>262</ele>
        <time>2018-07-15T10:27:37Z</time>
      </trkpt>
      <trkpt lat="43.95437" lon="1.83711">
        <ele>261</ele>
        <time>2018-07-15T10:27:38Z</time>
      </trkpt>
      <trkpt lat="43.95429" lon="1.83709">
        <ele>261</ele>
        <time>2018-07-15T10:27:39Z</time>
      </trkpt>
      <trkpt lat="43.9542" lon="1.83709">
        <ele>260</ele>
        <time>2018-07-15T10:27:40Z</time>
      </trkpt>
      <trkpt lat="43.95412" lon="1.8371">
        <ele>260</ele>
        <time>2018-07-15T10:27:41Z</time>
      </trkpt>
      <trkpt lat="43.95405" lon="1.83713">
        <ele>260</ele>
        <time>2018-07-15T10:27:42Z</time>
      </trkpt>
      <trkpt lat="43.95397" lon="1.83718">
        <ele>259</ele>
        <time>2018-07-15T10:27:43Z</time>
      </trkpt>
      <trkpt lat="43.9539" lon="1.83724">
        <ele>259</ele>
        <time>2018-07-15T10:27:44Z</time>
      </trkpt>
      <trkpt lat="43.95383" lon="1.8373">
        <ele>258</ele>
        <time>2018-07-15T10:27:45Z</time>
      </trkpt>
      <trkpt lat="43.95376" lon="1.83737">
        <ele>257</ele>
        <time>2018-07-15T10:27:46Z</time>
      </trkpt>
      <trkpt lat="43.95369" lon="1.83743">
        <ele>256</ele>
        <time>2018-07-15T10:27:47Z</time>
      </trkpt>
      <trkpt lat="43.95361" lon="1.83749">
        <ele>255</ele>
        <time>2018-07-15T10:27:48Z</time>
      </trkpt>
      <trkpt lat="43.95353" lon="1.83754">
        <ele>254</ele>
        <time>2018-07-15T10:27:49Z</time>
      </trkpt>
      <trkpt lat="43.95345" lon="1.83758">
        <ele>254</ele>
        <time>2018-07-15T10:27:50Z</time>
      </trkpt>
      <trkpt lat="43.95335" lon="1.83761">
        <ele>253</ele>
        <time>2018-07-15T10:27:51Z</time>
      </trkpt>
      <trkpt lat="43.95326" lon="1.83763">
        <ele>253</ele>
        <time>2018-07-15T10:27:52Z</time>
      </trkpt>
      <trkpt lat="43.95316" lon="1.83764">
        <ele>253</ele>
        <time>2018-07-15T10:27:53Z</time>
      </trkpt>
      <trkpt lat="43.95307" lon="1.83764">
        <ele>252</ele>
        <time>2018-07-15T10:27:54Z</time>
      </trkpt>
      <trkpt lat="43.95297" lon="1.83764">
        <ele>252</ele>
        <time>2018-07-15T10:27:55Z</time>
      </trkpt>
      <trkpt lat="43.95287" lon="1.83765">
        <ele>251</ele>
        <time>2018-07-15T10:27:56Z</time>
      </trkpt>
      <trkpt lat="43.95277" lon="1.83769">
        <ele>251</ele>
        <time>2018-07-15T10:27:57Z</time>
      </trkpt>
      <trkpt lat="43.95268" lon="1.83774">
        <ele>250</ele>
        <time>2018-07-15T10:27:58Z</time>
      </trkpt>
      <trkpt lat="43.95259" lon="1.83781">
        <ele>249</ele>
        <time>2018-07-15T10:27:59Z</time>
      </trkpt>
      <trkpt lat="43.9525" lon="1.8379">
        <ele>248</ele>
        <time>2018-07-15T10:28:00Z</time>
      </trkpt>
      <trkpt lat="43.95242" lon="1.838">
        <ele>248</ele>
        <time>2018-07-15T10:28:01Z</time>
      </trkpt>
      <trkpt lat="43.95235" lon="1.8381">
        <ele>247</ele>
        <time>2018-07-15T10:28:02Z</time>
      </trkpt>
      <trkpt lat="43.95227" lon="1.83821">
        <ele>247</ele>
        <time>2018-07-15T10:28:03Z</time>
      </trkpt>
      <trkpt lat="43.95219" lon="1.83831">
        <ele>246</ele>
        <time>2018-07-15T10:28:04Z</time>
      </trkpt>
      <trkpt lat="43.95211" lon="1.8384">
        <ele>245</ele>
        <time>2018-07-15T10:28:05Z</time>
      </trkpt>
      <trkpt lat="43.95202" lon="1.83847">
        <ele>244</ele>
        <time>2018-07-15T10:28:06Z</time>
      </trkpt>
      <trkpt lat="43.95192" lon="1.83854">
        <ele>244</ele>
        <time>2018-07-15T10:28:07Z</time>
      </trkpt>
      <trkpt lat="43.95182" lon="1.8386">
        <ele>243</ele>
        <time>2018-07-15T10:28:08Z</time>
      </trkpt>
      <trkpt lat="43.95172" lon="1.83865">
        <ele>243</ele>
        <time>2018-07-15T10:28:09Z</time>
      </trkpt>
      <trkpt lat="43.95162" lon="1.83871">
        <ele>243</ele>
        <time>2018-07-15T10:28:10Z</time>
      </trkpt>
      <trkpt lat="43.95152" lon="1.83876">
        <ele>242</ele>
        <time>2018-07-15T10:28:11Z</time>
      </trkpt>
      <trkpt lat="43.95141" lon="1.83881">
        <ele>241</ele>
        <time>2018-07-15T10:28:12Z</time>
      </trkpt>
      <trkpt lat="43.95131" lon="1.83886">
        <ele>241</ele>
        <time>2018-07-15T10:28:13Z</time>
      </trkpt>
      <trkpt lat="43.9512" lon="1.83891">
        <ele>240</ele>
        <time>2018-07-15T10:28:14Z</time>
      </trkpt>
      <trkpt lat="43.95109" lon="1.83896">
        <ele>239</ele>
        <time>2018-07-15T10:28:15Z</time>
      </trkpt>
      <trkpt lat="43.95099" lon="1.83901">
        <ele>238</ele>
        <time>2018-07-15T10:28:16Z</time>
      </trkpt>
      <trkpt lat="43.95088" lon="1.83906">
        <ele>237</ele>
        <time>2018-07-15T10:28:17Z</time>
      </trkpt>
      <trkpt lat="43.95077" lon="1.83911">
        <ele>237</ele>
        <time>2018-07-15T10:28:18Z</time>
      </trkpt>
      <trkpt lat="43.95066" lon="1.83916">
        <ele>236</ele>
        <time>2018-07-15T10:28:19Z</time>
      </trkpt>
      <trkpt lat="43.95056" lon="1.83921">
        <ele>235</ele>
        <time>2018-07-15T10:28:20Z</time>
      </trkpt>
      <trkpt lat="43.95045" lon="1.83926">
        <ele>234</ele>
        <time>2018-07-15T10:28:21Z</time>
      </trkpt>
      <trkpt lat="43.95034" lon="1.83932">
        <ele>234</ele>
        <time>2018-07-15T10:28:22Z</time>
      </trkpt>
      <trkpt lat="43.95024" lon="1.83937">
        <ele>233</ele>
        <time>2018-07-15T10:28:23Z</time>
      </trkpt>
      <trkpt lat="43.95013" lon="1.83942">
        <ele>233</ele>
        <time>2018-07-15T10:28:24Z</time>
      </trkpt>
      <trkpt lat="43.95002" lon="1.83947">
        <ele>232</ele>
        <time>2018-07-15T10:28:25Z</time>
      </trkpt>
      <trkpt lat="43.94992" lon="1.83952">
        <ele>232</ele>
        <time>2018-07-15T10:28:26Z</time>
      </trkpt>
      <trkpt lat="43.94981" lon="1.83957">
        <ele>231</ele>
        <time>2018-07-15T10:28:27Z</time>
      </trkpt>
      <trkpt lat="43.94971" lon="1.83962">
        <ele>231</ele>
        <time>2018-07-15T10:28:28Z</time>
      </trkpt>
      <trkpt lat="43.94961" lon="1.83968">
        <ele>230</ele>
        <time>2018-07-15T10:28:29Z</time>
      </trkpt>
      <trkpt lat="43.94951" lon="1.83976">
        <ele>230</ele>
        <time>2018-07-15T10:28:30Z</time>
      </trkpt>
      <trkpt lat="43.94942" lon="1.83984">
        <ele>229</ele>
        <time>2018-07-15T10:28:31Z</time>
      </trkpt>
      <trkpt lat="43.94934" lon="1.83994">
        <ele>228</ele>
        <time>2018-07-15T10:28:32Z</time>
      </trkpt>
      <trkpt lat="43.94927" lon="1.84005">
        <ele>227</ele>
        <time>2018-07-15T10:28:33Z</time>
      </trkpt>
      <trkpt lat="43.94922" lon="1.84018">
        <ele>227</ele>
        <time>2018-07-15T10:28:34Z</time>
      </trkpt>
      <trkpt lat="43.94918" lon="1.84032">
        <ele>226</ele>
        <time>2018-07-15T10:28:35Z</time>
      </trkpt>
      <trkpt lat="43.94915" lon="1.84046">
        <ele>225</ele>
        <time>2018-07-15T10:28:36Z</time>
      </trkpt>
      <trkpt lat="43.94914" lon="1.84061">
        <ele>225</ele>
        <time>2018-07-15T10:28:37Z</time>
      </trkpt>
      <trkpt lat="43.94914" lon="1.84076">
        <ele>224</ele>
        <time>2018-07-15T10:28:38Z</time>
      </trkpt>
      <trkpt lat="43.94915" lon="1.84091">
        <ele>224</ele>
        <time>2018-07-15T10:28:39Z</time>
      </trkpt>
      <trkpt lat="43.94917" lon="1.84105">
        <ele>224</ele>
        <time>2018-07-15T10:28:40Z</time>
      </trkpt>
      <trkpt lat="43.94919" lon="1.8412">
        <ele>223</ele>
        <time>2018-07-15T10:28:41Z</time>
      </trkpt>
      <trkpt lat="43.94922" lon="1.84135">
        <ele>222</ele>
        <time>2018-07-15T10:28:42Z</time>
      </trkpt>
      <trkpt lat="43.94926" lon="1.84149">
        <ele>221</ele>
        <time>2018-07-15T10:28:43Z</time>
      </trkpt>
      <trkpt lat="43.94929" lon="1.84164">
        <ele>220</ele>
        <time>2018-07-15T10:28:44Z</time>
      </trkpt>
      <trkpt lat="43.94932" lon="1.84178">
        <ele>219</ele>
        <time>2018-07-15T10:28:45Z</time>
      </trkpt>
      <trkpt lat="43.94934" lon="1.84193">
        <ele>219</ele>
        <time>2018-07-15T10:28:46Z</time>
      </trkpt>
      <trkpt lat="43.94936" lon="1.84208">
        <ele>219</ele>
        <time>2018-07-15T10:28:47Z</time>
      </trkpt>
      <trkpt lat="43.94939" lon="1.84221">
        <ele>218</ele>
        <time>2018-07-15T10:28:48Z</time>
      </trkpt>
      <trkpt lat="43.94939" lon="1.84236">
        <ele>218</ele>
        <time>2018-07-15T10:28:49Z</time>
      </trkpt>
      <trkpt lat="43.94939" lon="1.84251">
        <ele>217</ele>
        <time>2018-07-15T10:28:50Z</time>
      </trkpt>
      <trkpt lat="43.94937" lon="1.84265">
        <ele>216</ele>
        <time>2018-07-15T10:28:51Z</time>
      </trkpt>
      <trkpt lat="43.94935" lon="1.84279">
        <ele>216</ele>
        <time>2018-07-15T10:28:52Z</time>
      </trkpt>
      <trkpt lat="43.94931" lon="1.84291">
        <ele>215</ele>
        <time>2018-07-15T10:28:53Z</time>
      </trkpt>
      <trkpt lat="43.94926" lon="1.84303">
        <ele>215</ele>
        <time>2018-07-15T10:28:54Z</time>
      </trkpt>
      <trkpt lat="43.9492" lon="1.84315">
        <ele>215</ele>
        <time>2018-07-15T10:28:55Z</time>
      </trkpt>
      <trkpt lat="43.94914" lon="1.84326">
        <ele>216</ele>
        <time>2018-07-15T10:28:56Z</time>
      </trkpt>
      <trkpt lat="43.94909" lon="1.84336">
        <ele>216</ele>
        <time>2018-07-15T10:28:57Z</time>
      </trkpt>
      <trkpt lat="43.94905" lon="1.84347">
        <ele>216</ele>
        <time>2018-07-15T10:28:58Z</time>
      </trkpt>
      <trkpt lat="43.94901" lon="1.84358">
        <ele>216</ele>
        <time>2018-07-15T10:28:59Z</time>
      </trkpt>
      <trkpt lat="43.94898" lon="1.84369">
        <ele>216</ele>
        <time>2018-07-15T10:29:00Z</time>
      </trkpt>
      <trkpt lat="43.94896" lon="1.84381">
        <ele>216</ele>
        <time>2018-07-15T10:29:01Z</time>
      </trkpt>
      <trkpt lat="43.94895" lon="1.84392">
        <ele>216</ele>
        <time>2018-07-15T10:29:02Z</time>
      </trkpt>
      <trkpt lat="43.94895" lon="1.84403">
        <ele>216</ele>
        <time>2018-07-15T10:29:03Z</time>
      </trkpt>
      <trkpt lat="43.94895" lon="1.84414">
        <ele>216</ele>
        <time>2018-07-15T10:29:04Z</time>
      </trkpt>
      <trkpt lat="43.94895" lon="1.84425">
        <ele>216</ele>
        <time>2018-07-15T10:29:05Z</time>
      </trkpt>
      <trkpt lat="43.94895" lon="1.84435">
        <ele>216</ele>
        <time>2018-07-15T10:29:06Z</time>
      </trkpt>
      <trkpt lat="43.94896" lon="1.84445">
        <ele>216</ele>
        <time>2018-07-15T10:29:07Z</time>
      </trkpt>
      <trkpt lat="43.94897" lon="1.84455">
        <ele>217</ele>
        <time>2018-07-15T10:29:08Z</time>
      </trkpt>
      <trkpt lat="43.94897" lon="1.84464">
        <ele>217</ele>
        <time>2018-07-15T10:29:09Z</time>
      </trkpt>
      <trkpt lat="43.94898" lon="1.84473">
        <ele>217</ele>
        <time>2018-07-15T10:29:10Z</time>
      </trkpt>
      <trkpt lat="43.94899" lon="1.84481">
        <ele>217</ele>
        <time>2018-07-15T10:29:11Z</time>
      </trkpt>
      <trkpt lat="43.949" lon="1.84489">
        <ele>217</ele>
        <time>2018-07-15T10:29:12Z</time>
      </trkpt>
      <trkpt lat="43.949" lon="1.84498">
        <ele>218</ele>
        <time>2018-07-15T10:29:13Z</time>
      </trkpt>
      <trkpt lat="43.949" lon="1.84505">
        <ele>218</ele>
        <time>2018-07-15T10:29:14Z</time>
      </trkpt>
      <trkpt lat="43.94901" lon="1.84513">
        <ele>218</ele>
        <time>2018-07-15T10:29:15Z</time>
      </trkpt>
      <trkpt lat="43.94901" lon="1.8452">
        <ele>219</ele>
        <time>2018-07-15T10:29:16Z</time>
      </trkpt>
      <trkpt lat="43.94901" lon="1.84526">
        <ele>219</ele>
        <time>2018-07-15T10:29:17Z</time>
      </trkpt>
      <trkpt lat="43.94902" lon="1.84532">
        <ele>219</ele>
        <time>2018-07-15T10:29:18Z</time>
      </trkpt>
      <trkpt lat="43.94902" lon="1.84538">
        <ele>219</ele>
        <time>2018-07-15T10:29:19Z</time>
      </trkpt>
      <trkpt lat="43.94902" lon="1.84544">
        <ele>219</ele>
        <time>2018-07-15T10:29:20Z</time>
      </trkpt>
      <trkpt lat="43.94903" lon="1.8455">
        <ele>219</ele>
        <time>2018-07-15T10:29:21Z</time>
      </trkpt>
      <trkpt lat="43.94904" lon="1.84556">
        <ele>219</ele>
        <time>2018-07-15T10:29:22Z</time>
      </trkpt>
      <trkpt lat="43.94904" lon="1.84562">
        <ele>219</ele>
        <time>2018-07-15T10:29:23Z</time>
      </trkpt>
      <trkpt lat="43.94905" lon="1.84568">
        <ele>220</ele>
        <time>2018-07-15T10:29:24Z</time>
      </trkpt>
      <trkpt lat="43.94905" lon="1.84575">
        <ele>220</ele>
        <time>2018-07-15T10:29:25Z</time>
      </trkpt>
      <trkpt lat="43.94905" lon="1.84581">
        <ele>220</ele>
        <time>2018-07-15T10:29:26Z</time>
      </trkpt>
      <trkpt lat="43.94905" lon="1.84586">
        <ele>220</ele>
        <time>2018-07-15T10:29:27Z</time>
      </trkpt>
      <trkpt lat="43.94905" lon="1.84592">
        <ele>220</ele>
        <time>2018-07-15T10:29:28Z</time>
      </trkpt>
      <trkpt lat="43.94905" lon="1.84597">
        <ele>220</ele>
        <time>2018-07-15T10:29:29Z</time>
      </trkpt>
      <trkpt lat="43.94904" lon="1.84602">
        <ele>221</ele>
        <time>2018-07-15T10:29:30Z</time>
      </trkpt>
      <trkpt lat="43.94903" lon="1.84607">
        <ele>221</ele>
        <time>2018-07-15T10:29:31Z</time>
      </trkpt>
      <trkpt lat="43.94901" lon="1.84611">
        <ele>221</ele>
        <time>2018-07-15T10:29:32Z</time>
      </trkpt>
      <trkpt lat="43.94899" lon="1.84616">
        <ele>221</ele>
        <time>2018-07-15T10:29:33Z</time>
      </trkpt>
      <trkpt lat="43.94897" lon="1.84621">
        <ele>222</ele>
        <time>2018-07-15T10:29:34Z</time>
      </trkpt>
      <trkpt lat="43.94894" lon="1.84626">
        <ele>222</ele>
        <time>2018-07-15T10:29:35Z</time>
      </trkpt>
      <trkpt lat="43.94891" lon="1.8463">
        <ele>222</ele>
        <time>2018-07-15T10:29:36Z</time>
      </trkpt>
      <trkpt lat="43.94887" lon="1.84634">
        <ele>222</ele>
        <time>2018-07-15T10:29:37Z</time>
      </trkpt>
      <trkpt lat="43.94884" lon="1.84638">
        <ele>222</ele>
        <time>2018-07-15T10:29:38Z</time>
      </trkpt>
      <trkpt lat="43.9488" lon="1.84641">
        <ele>222</ele>
        <time>2018-07-15T10:29:39Z</time>
      </trkpt>
      <trkpt lat="43.94877" lon="1.84644">
        <ele>222</ele>
        <time>2018-07-15T10:29:40Z</time>
      </trkpt>
      <trkpt lat="43.94874" lon="1.84648">
        <ele>222</ele>
        <time>2018-07-15T10:29:41Z</time>
      </trkpt>
      <trkpt lat="43.94871" lon="1.8465">
        <ele>223</ele>
        <time>2018-07-15T10:29:42Z</time>
      </trkpt>
      <trkpt lat="43.94867" lon="1.84653">
        <ele>223</ele>
        <time>2018-07-15T10:29:43Z</time>
      </trkpt>
      <trkpt lat="43.94864" lon="1.84656">
        <ele>223</ele>
        <time>2018-07-15T10:29:44Z</time>
      </trkpt>
      <trkpt lat="43.94861" lon="1.84659">
        <ele>223</ele>
        <time>2018-07-15T10:29:45Z</time>
      </trkpt>
      <trkpt lat="43.94858" lon="1.84662">
        <ele>224</ele>
        <time>2018-07-15T10:29:46Z</time>
      </trkpt>
      <trkpt lat="43.94854" lon="1.84665">
        <ele>224</ele>
        <time>2018-07-15T10:29:47Z</time>
      </trkpt>
      <trkpt lat="43.94851" lon="1.84668">
        <ele>224</ele>
        <time>2018-07-15T10:29:48Z</time>
      </trkpt>
      <trkpt lat="43.94848" lon="1.84671">
        <ele>224</ele>
        <time>2018-07-15T10:29:49Z</time>
      </trkpt>
      <trkpt lat="43.94845" lon="1.84673">
        <ele>225</ele>
        <time>2018-07-15T10:29:50Z</time>
      </trkpt>
      <trkpt lat="43.94841" lon="1.84676">
        <ele>225</ele>
        <time>2018-07-15T10:29:51Z</time>
      </trkpt>
      <trkpt lat="43.94838" lon="1.84679">
        <ele>225</ele>
        <time>2018-07-15T10:29:52Z</time>
      </trkpt>
      <trkpt lat="43.94834" lon="1.84682">
        <ele>225</ele>
        <time>2018-07-15T10:29:53Z</time>
      </trkpt>
      <trkpt lat="43.94831" lon="1.84685">
        <ele>225</ele>
        <time>2018-07-15T10:29:54Z</time>
      </trkpt>
      <trkpt lat="43.94828" lon="1.84689">
        <ele>225</ele>
        <time>2018-07-15T10:29:55Z</time>
      </trkpt>
      <trkpt lat="43.94824" lon="1.84693">
        <ele>225</ele>
        <time>2018-07-15T10:29:56Z</time>
      </trkpt>
      <trkpt lat="43.9482" lon="1.84696">
        <ele>225</ele>
        <time>2018-07-15T10:29:57Z</time>
      </trkpt>
      <trkpt lat="43.94817" lon="1.84699">
        <ele>225</ele>
        <time>2018-07-15T10:29:58Z</time>
      </trkpt>
      <trkpt lat="43.94813" lon="1.84703">
        <ele>225</ele>
        <time>2018-07-15T10:29:59Z</time>
      </trkpt>
      <trkpt lat="43.94809" lon="1.84707">
        <ele>225</ele>
        <time>2018-07-15T10:30:00Z</time>
      </trkpt>
      <trkpt lat="43.94806" lon="1.84709">
        <ele>225</ele>
        <time>2018-07-15T10:30:01Z</time>
      </trkpt>
      <trkpt lat="43.94802" lon="1.84713">
        <ele>225</ele>
        <time>2018-07-15T10:30:02Z</time>
      </trkpt>
      <trkpt lat="43.94799" lon="1.84716">
        <ele>225</ele>
        <time>2018-07-15T10:30:03Z</time>
      </trkpt>
      <trkpt lat="43.94795" lon="1.8472">
        <ele>225</ele>
        <time>2018-07-15T10:30:04Z</time>
      </trkpt>
      <trkpt lat="43.94792" lon="1.84723">
        <ele>225</ele>
        <time>2018-07-15T10:30:05Z</time>
      </trkpt>
      <trkpt lat="43.94788" lon="1.84727">
        <ele>225</ele>
        <time>2018-07-15T10:30:06Z</time>
      </trkpt>
      <trkpt lat="43.94785" lon="1.84731">
        <ele>225</ele>
        <time>2018-07-15T10:30:07Z</time>
      </trkpt>
      <trkpt lat="43.94781" lon="1.84734">
        <ele>225</ele>
        <time>2018-07-15T10:30:08Z</time>
      </trkpt>
      <trkpt lat="43.94778" lon="1.84738">
        <ele>226</ele>
        <time>2018-07-15T10:30:09Z</time>
      </trkpt>
      <trkpt lat="43.94774" lon="1.84742">
        <ele>226</ele>
        <time>2018-07-15T10:30:10Z</time>
      </trkpt>
      <trkpt lat="43.94771" lon="1.84746">
        <ele>226</ele>
        <time>2018-07-15T10:30:11Z</time>
      </trkpt>
      <trkpt lat="43.94768" lon="1.8475">
        <ele>226</ele>
        <time>2018-07-15T10:30:12Z</time>
      </trkpt>
      <trkpt lat="43.94765" lon="1.84755">
        <ele>226</ele>
        <time>2018-07-15T10:30:13Z</time>
      </trkpt>
      <trkpt lat="43.94761" lon="1.84759">
        <ele>226</ele>
        <time>2018-07-15T10:30:14Z</time>
      </trkpt>
      <trkpt lat="43.94758" lon="1.84764">
        <ele>226</ele>
        <time>2018-07-15T10:30:15Z</time>
      </trkpt>
      <trkpt lat="43.94755" lon="1.84769">
        <ele>226</ele>
        <time>2018-07-15T10:30:16Z</time>
      </trkpt>
      <trkpt lat="43.94752" lon="1.84774">
        <ele>226</ele>
        <time>2018-07-15T10:30:17Z</time>
      </trkpt>
      <trkpt lat="43.94748" lon="1.84779">
        <ele>225</ele>
        <time>2018-07-15T10:30:18Z</time>
      </trkpt>
      <trkpt lat="43.94745" lon="1.84785">
        <ele>225</ele>
        <time>2018-07-15T10:30:19Z</time>
      </trkpt>
      <trkpt lat="43.94742" lon="1.8479">
        <ele>225</ele>
        <time>2018-07-15T10:30:20Z</time>
      </trkpt>
      <trkpt lat="43.9474" lon="1.84795">
        <ele>225</ele>
        <time>2018-07-15T10:30:21Z</time>
      </trkpt>
      <trkpt lat="43.94737" lon="1.848">
        <ele>226</ele>
        <time>2018-07-15T10:30:22Z</time>
      </trkpt>
      <trkpt lat="43.94734" lon="1.84805">
        <ele>226</ele>
        <time>2018-07-15T10:30:23Z</time>
      </trkpt>
      <trkpt lat="43.94732" lon="1.84811">
        <ele>226</ele>
        <time>2018-07-15T10:30:24Z</time>
      </trkpt>
      <trkpt lat="43.94729" lon="1.84817">
        <ele>226</ele>
        <time>2018-07-15T10:30:25Z</time>
      </trkpt>
      <trkpt lat="43.94727" lon="1.84823">
        <ele>226</ele>
        <time>2018-07-15T10:30:26Z</time>
      </trkpt>
      <trkpt lat="43.94724" lon="1.84829">
        <ele>226</ele>
        <time>2018-07-15T10:30:27Z</time>
      </trkpt>
      <trkpt lat="43.94722" lon="1.84835">
        <ele>226</ele>
        <time>2018-07-15T10:30:28Z</time>
      </trkpt>
      <trkpt lat="43.94719" lon="1.84841">
        <ele>226</ele>
        <time>2018-07-15T10:30:29Z</time>
      </trkpt>
      <trkpt lat="43.94718" lon="1.84847">
        <ele>226</ele>
        <time>2018-07-15T10:30:30Z</time>
      </trkpt>
      <trkpt lat="43.94716" lon="1.84853">
        <ele>226</ele>
        <time>2018-07-15T10:30:31Z</time>
      </trkpt>
      <trkpt lat="43.94714" lon="1.84858">
        <ele>226</ele>
        <time>2018-07-15T10:30:32Z</time>
      </trkpt>
      <trkpt lat="43.94712" lon="1.84864">
        <ele>226</ele>
        <time>2018-07-15T10:30:33Z</time>
      </trkpt>
      <trkpt lat="43.94711" lon="1.8487">
        <ele>226</ele>
        <time>2018-07-15T10:30:34Z</time>
      </trkpt>
      <trkpt lat="43.94709" lon="1.84876">
        <ele>226</ele>
        <time>2018-07-15T10:30:35Z</time>
      </trkpt>
      <trkpt lat="43.94707" lon="1.84882">
        <ele>226</ele>
        <time>2018-07-15T10:30:36Z</time>
      </trkpt>
      <trkpt lat="43.94706" lon="1.84889">
        <ele>226</ele>
        <time>2018-07-15T10:30:37Z</time>
      </trkpt>
      <trkpt lat="43.94705" lon="1.84895">
        <ele>226</ele>
        <time>2018-07-15T10:30:38Z</time>
      </trkpt>
      <trkpt lat="43.94704" lon="1.84901">
        <ele>227</ele>
        <time>2018-07-15T10:30:39Z</time>
      </trkpt>
      <trkpt lat="43.94703" lon="1.84907">
        <ele>227</ele>
        <time>2018-07-15T10:30:40Z</time>
      </trkpt>
      <trkpt lat="43.94702" lon="1.84913">
        <ele>227</ele>
        <time>2018-07-15T10:30:41Z</time>
      </trkpt>
      <trkpt lat="43.94701" lon="1.84919">
        <ele>227</ele>
        <time>2018-07-15T10:30:42Z</time>
      </trkpt>
      <trkpt lat="43.947" lon="1.84924">
        <ele>227</ele>
        <time>2018-07-15T10:30:43Z</time>
      </trkpt>
      <trkpt lat="43.94699" lon="1.84931">
        <ele>227</ele>
        <time>2018-07-15T10:30:44Z</time>
      </trkpt>
      <trkpt lat="43.94698" lon="1.84937">
        <ele>227</ele>
        <time>2018-07-15T10:30:45Z</time>
      </trkpt>
      <trkpt lat="43.94698" lon="1.84943">
        <ele>227</ele>
        <time>2018-07-15T10:30:46Z</time>
      </trkpt>
      <trkpt lat="43.94697" lon="1.84949">
        <ele>227</ele>
        <time>2018-07-15T10:30:47Z</time>
      </trkpt>
      <trkpt lat="43.94697" lon="1.84955">
        <ele>228</ele>
        <time>2018-07-15T10:30:48Z</time>
      </trkpt>
      <trkpt lat="43.94696" lon="1.84961">
        <ele>228</ele>
        <time>2018-07-15T10:30:49Z</time>
      </trkpt>
      <trkpt lat="43.94695" lon="1.84967">
        <ele>228</ele>
        <time>2018-07-15T10:30:50Z</time>
      </trkpt>
      <trkpt lat="43.94695" lon="1.84973">
        <ele>228</ele>
        <time>2018-07-15T10:30:51Z</time>
      </trkpt>
      <trkpt lat="43.94695" lon="1.84979">
        <ele>228</ele>
        <time>2018-07-15T10:30:52Z</time>
      </trkpt>
      <trkpt lat="43.94694" lon="1.84984">
        <ele>228</ele>
        <time>2018-07-15T10:30:53Z</time>
      </trkpt>
      <trkpt lat="43.94693" lon="1.8499">
        <ele>228</ele>
        <time>2018-07-15T10:30:54Z</time>
      </trkpt>
      <trkpt lat="43.94693" lon="1.84996">
        <ele>228</ele>
        <time>2018-07-15T10:30:55Z</time>
      </trkpt>
      <trkpt lat="43.94692" lon="1.85002">
        <ele>228</ele>
        <time>2018-07-15T10:30:56Z</time>
      </trkpt>
      <trkpt lat="43.94691" lon="1.85008">
        <ele>228</ele>
        <time>2018-07-15T10:30:57Z</time>
      </trkpt>
      <trkpt lat="43.94691" lon="1.85014">
        <ele>228</ele>
        <time>2018-07-15T10:30:58Z</time>
      </trkpt>
      <trkpt lat="43.9469" lon="1.85019">
        <ele>228</ele>
        <time>2018-07-15T10:30:59Z</time>
      </trkpt>
      <trkpt lat="43.9469" lon="1.85025">
        <ele>228</ele>
        <time>2018-07-15T10:31:00Z</time>
      </trkpt>
      <trkpt lat="43.94689" lon="1.85031">
        <ele>228</ele>
        <time>2018-07-15T10:31:01Z</time>
      </trkpt>
      <trkpt lat="43.94688" lon="1.85037">
        <ele>228</ele>
        <time>2018-07-15T10:31:02Z</time>
      </trkpt>
      <trkpt lat="43.94687" lon="1.85043">
        <ele>228</ele>
        <time>2018-07-15T10:31:03Z</time>
      </trkpt>
      <trkpt lat="43.94686" lon="1.85049">
        <ele>228</ele>
        <time>2018-07-15T10:31:04Z</time>
      </trkpt>
      <trkpt lat="43.94685" lon="1.85055">
        <ele>228</ele>
        <time>2018-07-15T10:31:05Z</time>
      </trkpt>
      <trkpt lat="43.94685" lon="1.85062">
        <ele>228</ele>
        <time>2018-07-15T10:31:06Z</time>
      </trkpt>
      <trkpt lat="43.94684" lon="1.85069">
        <ele>228</ele>
        <time>2018-07-15T10:31:07Z</time>
      </trkpt>
      <trkpt lat="43.94683" lon="1.85076">
        <ele>228</ele>
        <time>2018-07-15T10:31:08Z</time>
      </trkpt>
      <trkpt lat="43.94681" lon="1.85084">
        <ele>228</ele>
        <time>2018-07-15T10:31:09Z</time>
      </trkpt>
      <trkpt lat="43.9468" lon="1.85091">
        <ele>227</ele>
        <time>2018-07-15T10:31:10Z</time>
      </trkpt>
      <trkpt lat="43.94679" lon="1.85099">
        <ele>227</ele>
        <time>2018-07-15T10:31:11Z</time>
      </trkpt>
      <trkpt lat="43.94678" lon="1.85107">
        <ele>227</ele>
        <time>2018-07-15T10:31:12Z</time>
      </trkpt>
      <trkpt lat="43.94676" lon="1.85115">
        <ele>227</ele>
        <time>2018-07-15T10:31:13Z</time>
      </trkpt>
      <trkpt lat="43.94676" lon="1.85121">
        <ele>226</ele>
        <time>2018-07-15T10:31:14Z</time>
      </trkpt>
      <trkpt lat="43.94676" lon="1.85128">
        <ele>226</ele>
        <time>2018-07-15T10:31:15Z</time>
      </trkpt>
      <trkpt lat="43.94678" lon="1.85132">
        <ele>226</ele>
        <time>2018-07-15T10:31:16Z</time>
      </trkpt>
      <trkpt lat="43.94681" lon="1.85137">
        <ele>226</ele>
        <time>2018-07-15T10:31:17Z</time>
      </trkpt>
      <trkpt lat="43.94683" lon="1.8514">
        <ele>227</ele>
        <time>2018-07-15T10:31:18Z</time>
      </trkpt>
      <trkpt lat="43.94684" lon="1.85143">
        <ele>227</ele>
        <time>2018-07-15T10:31:19Z</time>
      </trkpt>
      <trkpt lat="43.94685" lon="1.85146">
        <ele>228</ele>
        <time>2018-07-15T10:31:20Z</time>
      </trkpt>
      <trkpt lat="43.94687" lon="1.85149">
        <ele>228</ele>
        <time>2018-07-15T10:31:21Z</time>
      </trkpt>
      <trkpt lat="43.94688" lon="1.85152">
        <ele>228</ele>
        <time>2018-07-15T10:31:22Z</time>
      </trkpt>
      <trkpt lat="43.94689" lon="1.85155">
        <ele>228</ele>
        <time>2018-07-15T10:31:23Z</time>
      </trkpt>
      <trkpt lat="43.94691" lon="1.85158">
        <ele>228</ele>
        <time>2018-07-15T10:31:24Z</time>
      </trkpt>
      <trkpt lat="43.94692" lon="1.85161">
        <ele>229</ele>
        <time>2018-07-15T10:31:25Z</time>
      </trkpt>
      <trkpt lat="43.94693" lon="1.85164">
        <ele>229</ele>
        <time>2018-07-15T10:31:26Z</time>
      </trkpt>
      <trkpt lat="43.94695" lon="1.85168">
        <ele>229</ele>
        <time>2018-07-15T10:31:27Z</time>
      </trkpt>
      <trkpt lat="43.94696" lon="1.85172">
        <ele>229</ele>
        <time>2018-07-15T10:31:28Z</time>
      </trkpt>
      <trkpt lat="43.94698" lon="1.85175">
        <ele>229</ele>
        <time>2018-07-15T10:31:29Z</time>
      </trkpt>
      <trkpt lat="43.94699" lon="1.85179">
        <ele>229</ele>
        <time>2018-07-15T10:31:30Z</time>
      </trkpt>
      <trkpt lat="43.94701" lon="1.85183">
        <ele>229</ele>
        <time>2018-07-15T10:31:31Z</time>
      </trkpt>
      <trkpt lat="43.94703" lon="1.85187">
        <ele>229</ele>
        <time>2018-07-15T10:31:32Z</time>
      </trkpt>
      <trkpt lat="43.94704" lon="1.85191">
        <ele>229</ele>
        <time>2018-07-15T10:31:33Z</time>
      </trkpt>
      <trkpt lat="43.94706" lon="1.85194">
        <ele>229</ele>
        <time>2018-07-15T10:31:34Z</time>
      </trkpt>
      <trkpt lat="43.94708" lon="1.85198">
        <ele>229</ele>
        <time>2018-07-15T10:31:35Z</time>
      </trkpt>
      <trkpt lat="43.94709" lon="1.85202">
        <ele>229</ele>
        <time>2018-07-15T10:31:36Z</time>
      </trkpt>
      <trkpt lat="43.94711" lon="1.85206">
        <ele>229</ele>
        <time>2018-07-15T10:31:37Z</time>
      </trkpt>
      <trkpt lat="43.94713" lon="1.8521">
        <ele>230</ele>
        <time>2018-07-15T10:31:38Z</time>
      </trkpt>
      <trkpt lat="43.94715" lon="1.85214">
        <ele>230</ele>
        <time>2018-07-15T10:31:39Z</time>
      </trkpt>
      <trkpt lat="43.94716" lon="1.85219">
        <ele>230</ele>
        <time>2018-07-15T10:31:40Z</time>
      </trkpt>
      <trkpt lat="43.94718" lon="1.85223">
        <ele>230</ele>
        <time>2018-07-15T10:31:41Z</time>
      </trkpt>
      <trkpt lat="43.9472" lon="1.85227">
        <ele>230</ele>
        <time>2018-07-15T10:31:42Z</time>
      </trkpt>
      <trkpt lat="43.94722" lon="1.85231">
        <ele>230</ele>
        <time>2018-07-15T10:31:43Z</time>
      </trkpt>
      <trkpt lat="43.94724" lon="1.85235">
        <ele>230</ele>
        <time>2018-07-15T10:31:44Z</time>
      </trkpt>
      <trkpt lat="43.94725" lon="1.85239">
        <ele>230</ele>
        <time>2018-07-15T10:31:45Z</time>
      </trkpt>
      <trkpt lat="43.94726" lon="1.85243">
        <ele>230</ele>
        <time>2018-07-15T10:31:46Z</time>
      </trkpt>
      <trkpt lat="43.94728" lon="1.85247">
        <ele>230</ele>
        <time>2018-07-15T10:31:47Z</time>
      </trkpt>
      <trkpt lat="43.94729" lon="1.85251">
        <ele>230</ele>
        <time>2018-07-15T10:31:48Z</time>
      </trkpt>
      <trkpt lat="43.94731" lon="1.85255">
        <ele>230</ele>
        <time>2018-07-15T10:31:49Z</time>
      </trkpt>
      <trkpt lat="43.94732" lon="1.85259">
        <ele>231</ele>
        <time>2018-07-15T10:31:50Z</time>
      </trkpt>
      <trkpt lat="43.94733" lon="1.85263">
        <ele>231</ele>
        <time>2018-07-15T10:31:51Z</time>
      </trkpt>
      <trkpt lat="43.94734" lon="1.85268">
        <ele>231</ele>
        <time>2018-07-15T10:31:52Z</time>
      </trkpt>
      <trkpt lat="43.94735" lon="1.85272">
        <ele>231</ele>
        <time>2018-07-15T10:31:53Z</time>
      </trkpt>
      <trkpt lat="43.94736" lon="1.85277">
        <ele>231</ele>
        <time>2018-07-15T10:31:54Z</time>
      </trkpt>
      <trkpt lat="43.94737" lon="1.85281">
        <ele>231</ele>
        <time>2018-07-15T10:31:55Z</time>
      </trkpt>
      <trkpt lat="43.94738" lon="1.85286">
        <ele>230</ele>
        <time>2018-07-15T10:31:56Z</time>
      </trkpt>
      <trkpt lat="43.94739" lon="1.8529">
        <ele>231</ele>
        <time>2018-07-15T10:31:57Z</time>
      </trkpt>
      <trkpt lat="43.9474" lon="1.85295">
        <ele>231</ele>
        <time>2018-07-15T10:31:58Z</time>
      </trkpt>
      <trkpt lat="43.94741" lon="1.85299">
        <ele>231</ele>
        <time>2018-07-15T10:31:59Z</time>
      </trkpt>
      <trkpt lat="43.94742" lon="1.85302">
        <ele>231</ele>
        <time>2018-07-15T10:32:00Z</time>
      </trkpt>
      <trkpt lat="43.94743" lon="1.85306">
        <ele>231</ele>
        <time>2018-07-15T10:32:01Z</time>
      </trkpt>
      <trkpt lat="43.94744" lon="1.85309">
        <ele>231</ele>
        <time>2018-07-15T10:32:02Z</time>
      </trkpt>
      <trkpt lat="43.94744" lon="1.85313">
        <ele>231</ele>
        <time>2018-07-15T10:32:03Z</time>
      </trkpt>
      <trkpt lat="43.94745" lon="1.85317">
        <ele>231</ele>
        <time>2018-07-15T10:32:04Z</time>
      </trkpt>
      <trkpt lat="43.94747" lon="1.8532">
        <ele>231</ele>
        <time>2018-07-15T10:32:05Z</time>
      </trkpt>
      <trkpt lat="43.94748" lon="1.85324">
        <ele>231</ele>
        <time>2018-07-15T10:32:06Z</time>
      </trkpt>
      <trkpt lat="43.94748" lon="1.85328">
        <ele>232</ele>
        <time>2018-07-15T10:32:07Z</time>
      </trkpt>
      <trkpt lat="43.94749" lon="1.85332">
        <ele>232</ele>
        <time>2018-07-15T10:32:08Z</time>
      </trkpt>
      <trkpt lat="43.9475" lon="1.85336">
        <ele>232</ele>
        <time>2018-07-15T10:32:09Z</time>
      </trkpt>
      <trkpt lat="43.94751" lon="1.85341">
        <ele>232</ele>
        <time>2018-07-15T10:32:10Z</time>
      </trkpt>
      <trkpt lat="43.94751" lon="1.85345">
        <ele>232</ele>
        <time>2018-07-15T10:32:11Z</time>
      </trkpt>
      <trkpt lat="43.94752" lon="1.85349">
        <ele>232</ele>
        <time>2018-07-15T10:32:12Z</time>
      </trkpt>
      <trkpt lat="43.94752" lon="1.85354">
        <ele>232</ele>
        <time>2018-07-15T10:32:13Z</time>
      </trkpt>
      <trkpt lat="43.94752" lon="1.85359">
        <ele>233</ele>
        <time>2018-07-15T10:32:14Z</time>
      </trkpt>
      <trkpt lat="43.94753" lon="1.85364">
        <ele>233</ele>
        <time>2018-07-15T10:32:15Z</time>
      </trkpt>
      <trkpt lat="43.94754" lon="1.85369">
        <ele>233</ele>
        <time>2018-07-15T10:32:16Z</time>
      </trkpt>
      <trkpt lat="43.94754" lon="1.85374">
        <ele>233</ele>
        <time>2018-07-15T10:32:17Z</time>
      </trkpt>
      <trkpt lat="43.94754" lon="1.85379">
        <ele>233</ele>
        <time>2018-07-15T10:32:18Z</time>
      </trkpt>
      <trkpt lat="43.94754" lon="1.85384">
        <ele>233</ele>
        <time>2018-07-15T10:32:19Z</time>
      </trkpt>
      <trkpt lat="43.94754" lon="1.85389">
        <ele>233</ele>
        <time>2018-07-15T10:32:20Z</time>
      </trkpt>
      <trkpt lat="43.94753" lon="1.85393">
        <ele>233</ele>
        <time>2018-07-15T10:32:21Z</time>
      </trkpt>
      <trkpt lat="43.94753" lon="1.85398">
        <ele>233</ele>
        <time>2018-07-15T10:32:22Z</time>
      </trkpt>
      <trkpt lat="43.94753" lon="1.85403">
        <ele>233</ele>
        <time>2018-07-15T10:32:23Z</time>
      </trkpt>
      <trkpt lat="43.94752" lon="1.85407">
        <ele>233</ele>
        <time>2018-07-15T10:32:24Z</time>
      </trkpt>
      <trkpt lat="43.94752" lon="1.85412">
        <ele>233</ele>
        <time>2018-07-15T10:32:25Z</time>
      </trkpt>
      <trkpt lat="43.94752" lon="1.85416">
        <ele>233</ele>
        <time>2018-07-15T10:32:26Z</time>
      </trkpt>
      <trkpt lat="43.94751" lon="1.85421">
        <ele>233</ele>
        <time>2018-07-15T10:32:27Z</time>
      </trkpt>
      <trkpt lat="43.94751" lon="1.85425">
        <ele>233</ele>
        <time>2018-07-15T10:32:28Z</time>
      </trkpt>
      <trkpt lat="43.9475" lon="1.85429">
        <ele>233</ele>
        <time>2018-07-15T10:32:29Z</time>
      </trkpt>
      <trkpt lat="43.9475" lon="1.85433">
        <ele>233</ele>
        <time>2018-07-15T10:32:30Z</time>
      </trkpt>
      <trkpt lat="43.94749" lon="1.85438">
        <ele>233</ele>
        <time>2018-07-15T10:32:31Z</time>
      </trkpt>
      <trkpt lat="43.94748" lon="1.85442">
        <ele>233</ele>
        <time>2018-07-15T10:32:32Z</time>
      </trkpt>
      <trkpt lat="43.94748" lon="1.85446">
        <ele>234</ele>
        <time>2018-07-15T10:32:33Z</time>
      </trkpt>
      <trkpt lat="43.94747" lon="1.8545">
        <ele>234</ele>
        <time>2018-07-15T10:32:34Z</time>
      </trkpt>
      <trkpt lat="43.94747" lon="1.85454">
        <ele>234</ele>
        <time>2018-07-15T10:32:35Z</time>
      </trkpt>
      <trkpt lat="43.94746" lon="1.85458">
        <ele>234</ele>
        <time>2018-07-15T10:32:36Z</time>
      </trkpt>
      <trkpt lat="43.94745" lon="1.85462">
        <ele>234</ele>
        <time>2018-07-15T10:32:37Z</time>
      </trkpt>
      <trkpt lat="43.94745" lon="1.85466">
        <ele>235</ele>
        <time>2018-07-15T10:32:38Z</time>
      </trkpt>
      <trkpt lat="43.94744" lon="1.8547">
        <ele>235</ele>
        <time>2018-07-15T10:32:39Z</time>
      </trkpt>
      <trkpt lat="43.94743" lon="1.85474">
        <ele>235</ele>
        <time>2018-07-15T10:32:40Z</time>
      </trkpt>
      <trkpt lat="43.94742" lon="1.85478">
        <ele>235</ele>
        <time>2018-07-15T10:32:41Z</time>
      </trkpt>
      <trkpt lat="43.94741" lon="1.85482">
        <ele>235</ele>
        <time>2018-07-15T10:32:42Z</time>
      </trkpt>
      <trkpt lat="43.9474" lon="1.85486">
        <ele>235</ele>
        <time>2018-07-15T10:32:43Z</time>
      </trkpt>
      <trkpt lat="43.9474" lon="1.8549">
        <ele>235</ele>
        <time>2018-07-15T10:32:44Z</time>
      </trkpt>
      <trkpt lat="43.94739" lon="1.85494">
        <ele>235</ele>
        <time>2018-07-15T10:32:45Z</time>
      </trkpt>
      <trkpt lat="43.94739" lon="1.85497">
        <ele>236</ele>
        <time>2018-07-15T10:32:46Z</time>
      </trkpt>
      <trkpt lat="43.94738" lon="1.85501">
        <ele>236</ele>
        <time>2018-07-15T10:32:47Z</time>
      </trkpt>
      <trkpt lat="43.94738" lon="1.85505">
        <ele>236</ele>
        <time>2018-07-15T10:32:48Z</time>
      </trkpt>
      <trkpt lat="43.94737" lon="1.85508">
        <ele>236</ele>
        <time>2018-07-15T10:32:49Z</time>
      </trkpt>
      <trkpt lat="43.94737" lon="1.85512">
        <ele>237</ele>
        <time>2018-07-15T10:32:50Z</time>
      </trkpt>
      <trkpt lat="43.94736" lon="1.85515">
        <ele>237</ele>
        <time>2018-07-15T10:32:51Z</time>
      </trkpt>
      <trkpt lat="43.94735" lon="1.85519">
        <ele>237</ele>
        <time>2018-07-15T10:32:52Z</time>
      </trkpt>
      <trkpt lat="43.94735" lon="1.85522">
        <ele>237</ele>
        <time>2018-07-15T10:32:53Z</time>
      </trkpt>
      <trkpt lat="43.94734" lon="1.85526">
        <ele>237</ele>
        <time>2018-07-15T10:32:54Z</time>
      </trkpt>
      <trkpt lat="43.94734" lon="1.8553">
        <ele>237</ele>
        <time>2018-07-15T10:32:55Z</time>
      </trkpt>
      <trkpt lat="43.94733" lon="1.85533">
        <ele>238</ele>
        <time>2018-07-15T10:32:56Z</time>
      </trkpt>
      <trkpt lat="43.94732" lon="1.85537">
        <ele>238</ele>
        <time>2018-07-15T10:32:57Z</time>
      </trkpt>
      <trkpt lat="43.94731" lon="1.85541">
        <ele>238</ele>
        <time>2018-07-15T10:32:58Z</time>
      </trkpt>
      <trkpt lat="43.94731" lon="1.85545">
        <ele>238</ele>
        <time>2018-07-15T10:32:59Z</time>
      </trkpt>
      <trkpt lat="43.94731" lon="1.85549">
        <ele>238</ele>
        <time>2018-07-15T10:33:00Z</time>
      </trkpt>
      <trkpt lat="43.9473" lon="1.85553">
        <ele>239</ele>
        <time>2018-07-15T10:33:01Z</time>
      </trkpt>
      <trkpt lat="43.9473" lon="1.85557">
        <ele>239</ele>
        <time>2018-07-15T10:33:02Z</time>
      </trkpt>
      <trkpt lat="43.94729" lon="1.85561">
        <ele>239</ele>
        <time>2018-07-15T10:33:03Z</time>
      </trkpt>
      <trkpt lat="43.94729" lon="1.85565">
        <ele>239</ele>
        <time>2018-07-15T10:33:04Z</time>
      </trkpt>
      <trkpt lat="43.94728" lon="1.85569">
        <ele>239</ele>
        <time>2018-07-15T10:33:05Z</time>
      </trkpt>
      <trkpt lat="43.94728" lon="1.85573">
        <ele>240</ele>
        <time>2018-07-15T10:33:06Z</time>
      </trkpt>
      <trkpt lat="43.94727" lon="1.85576">
        <ele>240</ele>
        <time>2018-07-15T10:33:07Z</time>
      </trkpt>
      <trkpt lat="43.94727" lon="1.8558">
        <ele>240</ele>
        <time>2018-07-15T10:33:08Z</time>
      </trkpt>
      <trkpt lat="43.94726" lon="1.85584">
        <ele>240</ele>
        <time>2018-07-15T10:33:09Z</time>
      </trkpt>
      <trkpt lat="43.94726" lon="1.85588">
        <ele>241</ele>
        <time>2018-07-15T10:33:10Z</time>
      </trkpt>
      <trkpt lat="43.94726" lon="1.85591">
        <ele>241</ele>
        <time>2018-07-15T10:33:11Z</time>
      </trkpt>
      <trkpt lat="43.94726" lon="1.85595">
        <ele>241</ele>
        <time>2018-07-15T10:33:12Z</time>
      </trkpt>
      <trkpt lat="43.94726" lon="1.85598">
        <ele>241</ele>
        <time>2018-07-15T10:33:13Z</time>
      </trkpt>
      <trkpt lat="43.94726" lon="1.85602">
        <ele>241</ele>
        <time>2018-07-15T10:33:14Z</time>
      </trkpt>
      <trkpt lat="43.94725" lon="1.85606">
        <ele>241</ele>
        <time>2018-07-15T10:33:15Z</time>
      </trkpt>
      <trkpt lat="43.94725" lon="1.85609">
        <ele>242</ele>
        <time>2018-07-15T10:33:16Z</time>
      </trkpt>
      <trkpt lat="43.94725" lon="1.85613">
        <ele>242</ele>
        <time>2018-07-15T10:33:17Z</time>
      </trkpt>
      <trkpt lat="43.94725" lon="1.85616">
        <ele>242</ele>
        <time>2018-07-15T10:33:18Z</time>
      </trkpt>
      <trkpt lat="43.94724" lon="1.8562">
        <ele>242</ele>
        <time>2018-07-15T10:33:19Z</time>
      </trkpt>
      <trkpt lat="43.94724" lon="1.85624">
        <ele>242</ele>
        <time>2018-07-15T10:33:20Z</time>
      </trkpt>
      <trkpt lat="43.94725" lon="1.85627">
        <ele>243</ele>
        <time>2018-07-15T10:33:21Z</time>
      </trkpt>
      <trkpt lat="43.94725" lon="1.85631">
        <ele>243</ele>
        <time>2018-07-15T10:33:22Z</time>
      </trkpt>
      <trkpt lat="43.94725" lon="1.85635">
        <ele>243</ele>
        <time>2018-07-15T10:33:23Z</time>
      </trkpt>
      <trkpt lat="43.94725" lon="1.85638">
        <ele>243</ele>
        <time>2018-07-15T10:33:24Z</time>
      </trkpt>
      <trkpt lat="43.94725" lon="1.85642">
        <ele>243</ele>
        <time>2018-07-15T10:33:25Z</time>
      </trkpt>
      <trkpt lat="43.94724" lon="1.85645">
        <ele>243</ele>
        <time>2018-07-15T10:33:26Z</time>
      </trkpt>
      <trkpt lat="43.94724" lon="1.85649">
        <ele>244</ele>
        <time>2018-07-15T10:33:27Z</time>
      </trkpt>
      <trkpt lat="43.94724" lon="1.85652">
        <ele>243</ele>
        <time>2018-07-15T10:33:28Z</time>
      </trkpt>
      <trkpt lat="43.94724" lon="1.85656">
        <ele>244</ele>
        <time>2018-07-15T10:33:29Z</time>
      </trkpt>
      <trkpt lat="43.94725" lon="1.8566">
        <ele>243</ele>
        <time>2018-07-15T10:33:30Z</time>
      </trkpt>
      <trkpt lat="43.94725" lon="1.85665">
        <ele>243</ele>
        <time>2018-07-15T10:33:31Z</time>
      </trkpt>
      <trkpt lat="43.94726" lon="1.8567">
        <ele>243</ele>
        <time>2018-07-15T10:33:32Z</time>
      </trkpt>
      <trkpt lat="43.94725" lon="1.85674">
        <ele>243</ele>
        <time>2018-07-15T10:33:33Z</time>
      </trkpt>
      <trkpt lat="43.94725" lon="1.85679">
        <ele>243</ele>
        <time>2018-07-15T10:33:34Z</time>
      </trkpt>
      <trkpt lat="43.94725" lon="1.85684">
        <ele>243</ele>
        <time>2018-07-15T10:33:35Z</time>
      </trkpt>
      <trkpt lat="43.94725" lon="1.85689">
        <ele>243</ele>
        <time>2018-07-15T10:33:36Z</time>
      </trkpt>
      <trkpt lat="43.94725" lon="1.85695">
        <ele>243</ele>
        <time>2018-07-15T10:33:37Z</time>
      </trkpt>
      <trkpt lat="43.94726" lon="1.857">
        <ele>243</ele>
        <time>2018-07-15T10:33:38Z</time>
      </trkpt>
      <trkpt lat="43.94725" lon="1.85705">
        <ele>242</ele>
        <time>2018-07-15T10:33:39Z</time>
      </trkpt>
      <trkpt lat="43.94725" lon="1.85711">
        <ele>242</ele>
        <time>2018-07-15T10:33:40Z</time>
      </trkpt>
      <trkpt lat="43.94725" lon="1.85716">
        <ele>242</ele>
        <time>2018-07-15T10:33:41Z</time>
      </trkpt>
      <trkpt lat="43.94725" lon="1.85722">
        <ele>242</ele>
        <time>2018-07-15T10:33:42Z</time>
      </trkpt>
      <trkpt lat="43.94725" lon="1.85728">
        <ele>242</ele>
        <time>2018-07-15T10:33:43Z</time>
      </trkpt>
      <trkpt lat="43.94724" lon="1.85734">
        <ele>242</ele>
        <time>2018-07-15T10:33:44Z</time>
      </trkpt>
      <trkpt lat="43.94724" lon="1.85739">
        <ele>242</ele>
        <time>2018-07-15T10:33:45Z</time>
      </trkpt>
      <trkpt lat="43.94723" lon="1.85745">
        <ele>242</ele>
        <time>2018-07-15T10:33:46Z</time>
      </trkpt>
      <trkpt lat="43.94722" lon="1.85751">
        <ele>242</ele>
        <time>2018-07-15T10:33:47Z</time>
      </trkpt>
      <trkpt lat="43.94722" lon="1.85757">
        <ele>242</ele>
        <time>2018-07-15T10:33:48Z</time>
      </trkpt>
      <trkpt lat="43.94721" lon="1.85763">
        <ele>242</ele>
        <time>2018-07-15T10:33:49Z</time>
      </trkpt>
      <trkpt lat="43.9472" lon="1.85769">
        <ele>242</ele>
        <time>2018-07-15T10:33:50Z</time>
      </trkpt>
      <trkpt lat="43.94719" lon="1.85775">
        <ele>242</ele>
        <time>2018-07-15T10:33:51Z</time>
      </trkpt>
      <trkpt lat="43.94718" lon="1.85781">
        <ele>242</ele>
        <time>2018-07-15T10:33:52Z</time>
      </trkpt>
      <trkpt lat="43.94716" lon="1.85787">
        <ele>241</ele>
        <time>2018-07-15T10:33:53Z</time>
      </trkpt>
      <trkpt lat="43.94715" lon="1.85793">
        <ele>241</ele>
        <time>2018-07-15T10:33:54Z</time>
      </trkpt>
      <trkpt lat="43.94713" lon="1.85799">
        <ele>241</ele>
        <time>2018-07-15T10:33:55Z</time>
      </trkpt>
      <trkpt lat="43.94711" lon="1.85805">
        <ele>241</ele>
        <time>2018-07-15T10:33:56Z</time>
      </trkpt>
      <trkpt lat="43.9471" lon="1.85811">
        <ele>241</ele>
        <time>2018-07-15T10:33:57Z</time>
      </trkpt>
      <trkpt lat="43.94707" lon="1.85817">
        <ele>241</ele>
        <time>2018-07-15T10:33:58Z</time>
      </trkpt>
      <trkpt lat="43.94705" lon="1.85823">
        <ele>240</ele>
        <time>2018-07-15T10:33:59Z</time>
      </trkpt>
      <trkpt lat="43.94701" lon="1.85828">
        <ele>240</ele>
        <time>2018-07-15T10:34:00Z</time>
      </trkpt>
      <trkpt lat="43.94698" lon="1.85832">
        <ele>240</ele>
        <time>2018-07-15T10:34:01Z</time>
      </trkpt>
      <trkpt lat="43.94694" lon="1.85836">
        <ele>240</ele>
        <time>2018-07-15T10:34:02Z</time>
      </trkpt>
      <trkpt lat="43.9469" lon="1.8584">
        <ele>240</ele>
        <time>2018-07-15T10:34:03Z</time>
      </trkpt>
      <trkpt lat="43.94686" lon="1.85843">
        <ele>240</ele>
        <time>2018-07-15T10:34:04Z</time>
      </trkpt>
      <trkpt lat="43.94682" lon="1.85847">
        <ele>240</ele>
        <time>2018-07-15T10:34:05Z</time>
      </trkpt>
      <trkpt lat="43.94677" lon="1.8585">
        <ele>240</ele>
        <time>2018-07-15T10:34:06Z</time>
      </trkpt>
      <trkpt lat="43.94674" lon="1.85854">
        <ele>239</ele>
        <time>2018-07-15T10:34:07Z</time>
      </trkpt>
      <trkpt lat="43.9467" lon="1.85858">
        <ele>239</ele>
        <time>2018-07-15T10:34:08Z</time>
      </trkpt>
      <trkpt lat="43.94666" lon="1.8586">
        <ele>239</ele>
        <time>2018-07-15T10:34:09Z</time>
      </trkpt>
      <trkpt lat="43.94661" lon="1.85863">
        <ele>239</ele>
        <time>2018-07-15T10:34:10Z</time>
      </trkpt>
      <trkpt lat="43.94657" lon="1.85865">
        <ele>239</ele>
        <time>2018-07-15T10:34:11Z</time>
      </trkpt>
      <trkpt lat="43.94653" lon="1.85868">
        <ele>240</ele>
        <time>2018-07-15T10:34:12Z</time>
      </trkpt>
      <trkpt lat="43.94649" lon="1.85871">
        <ele>240</ele>
        <time>2018-07-15T10:34:13Z</time>
      </trkpt>
      <trkpt lat="43.94645" lon="1.85875">
        <ele>239</ele>
        <time>2018-07-15T10:34:14Z</time>
      </trkpt>
      <trkpt lat="43.94642" lon="1.85878">
        <ele>239</ele>
        <time>2018-07-15T10:34:15Z</time>
      </trkpt>
      <trkpt lat="43.94638" lon="1.85881">
        <ele>239</ele>
        <time>2018-07-15T10:34:16Z</time>
      </trkpt>
      <trkpt lat="43.94634" lon="1.85884">
        <ele>239</ele>
        <time>2018-07-15T10:34:17Z</time>
      </trkpt>
      <trkpt lat="43.9463" lon="1.85887">
        <ele>240</ele>
        <time>2018-07-15T10:34:18Z</time>
      </trkpt>
      <trkpt lat="43.94626" lon="1.8589">
        <ele>240</ele>
        <time>2018-07-15T10:34:19Z</time>
      </trkpt>
      <trkpt lat="43.94622" lon="1.85893">
        <ele>239</ele>
        <time>2018-07-15T10:34:20Z</time>
      </trkpt>
      <trkpt lat="43.94618" lon="1.85896">
        <ele>239</ele>
        <time>2018-07-15T10:34:21Z</time>
      </trkpt>
      <trkpt lat="43.94614" lon="1.85899">
        <ele>239</ele>
        <time>2018-07-15T10:34:22Z</time>
      </trkpt>
      <trkpt lat="43.94611" lon="1.85903">
        <ele>239</ele>
        <time>2018-07-15T10:34:23Z</time>
      </trkpt>
      <trkpt lat="43.94607" lon="1.85906">
        <ele>239</ele>
        <time>2018-07-15T10:34:24Z</time>
      </trkpt>
      <trkpt lat="43.94604" lon="1.85908">
        <ele>239</ele>
        <time>2018-07-15T10:34:25Z</time>
      </trkpt>
      <trkpt lat="43.94601" lon="1.85911">
        <ele>239</ele>
        <time>2018-07-15T10:34:26Z</time>
      </trkpt>
      <trkpt lat="43.94598" lon="1.85914">
        <ele>240</ele>
        <time>2018-07-15T10:34:27Z</time>
      </trkpt>
      <trkpt lat="43.94595" lon="1.85917">
        <ele>240</ele>
        <time>2018-07-15T10:34:28Z</time>
      </trkpt>
      <trkpt lat="43.94592" lon="1.85919">
        <ele>240</ele>
        <time>2018-07-15T10:34:29Z</time>
      </trkpt>
      <trkpt lat="43.94589" lon="1.85921">
        <ele>240</ele>
        <time>2018-07-15T10:34:30Z</time>
      </trkpt>
      <trkpt lat="43.94586" lon="1.85923">
        <ele>240</ele>
        <time>2018-07-15T10:34:31Z</time>
      </trkpt>
      <trkpt lat="43.94583" lon="1.85926">
        <ele>241</ele>
        <time>2018-07-15T10:34:32Z</time>
      </trkpt>
      <trkpt lat="43.9458" lon="1.85929">
        <ele>241</ele>
        <time>2018-07-15T10:34:33Z</time>
      </trkpt>
      <trkpt lat="43.94577" lon="1.85931">
        <ele>241</ele>
        <time>2018-07-15T10:34:34Z</time>
      </trkpt>
      <trkpt lat="43.94574" lon="1.85934">
        <ele>241</ele>
        <time>2018-07-15T10:34:35Z</time>
      </trkpt>
      <trkpt lat="43.94571" lon="1.85937">
        <ele>241</ele>
        <time>2018-07-15T10:34:36Z</time>
      </trkpt>
      <trkpt lat="43.94568" lon="1.8594">
        <ele>242</ele>
        <time>2018-07-15T10:34:37Z</time>
      </trkpt>
      <trkpt lat="43.94565" lon="1.85943">
        <ele>243</ele>
        <time>2018-07-15T10:34:38Z</time>
      </trkpt>
      <trkpt lat="43.94562" lon="1.85945">
        <ele>243</ele>
        <time>2018-07-15T10:34:39Z</time>
      </trkpt>
      <trkpt lat="43.9456" lon="1.85949">
        <ele>243</ele>
        <time>2018-07-15T10:34:40Z</time>
      </trkpt>
      <trkpt lat="43.94559" lon="1.85951">
        <ele>243</ele>
        <time>2018-07-15T10:34:41Z</time>
      </trkpt>
      <trkpt lat="43.94556" lon="1.85954">
        <ele>243</ele>
        <time>2018-07-15T10:34:42Z</time>
      </trkpt>
      <trkpt lat="43.94554" lon="1.85956">
        <ele>243</ele>
        <time>2018-07-15T10:34:43Z</time>
      </trkpt>
      <trkpt lat="43.94551" lon="1.85958">
        <ele>243</ele>
        <time>2018-07-15T10:34:44Z</time>
      </trkpt>
      <trkpt lat="43.94549" lon="1.85961">
        <ele>243</ele>
        <time>2018-07-15T10:34:45Z</time>
      </trkpt>
      <trkpt lat="43.94547" lon="1.85963">
        <ele>244</ele>
        <time>2018-07-15T10:34:46Z</time>
      </trkpt>
      <trkpt lat="43.94545" lon="1.85966">
        <ele>244</ele>
        <time>2018-07-15T10:34:47Z</time>
      </trkpt>
      <trkpt lat="43.94543" lon="1.85968">
        <ele>244</ele>
        <time>2018-07-15T10:34:48Z</time>
      </trkpt>
      <trkpt lat="43.94541" lon="1.85971">
        <ele>244</ele>
        <time>2018-07-15T10:34:49Z</time>
      </trkpt>
      <trkpt lat="43.94538" lon="1.85974">
        <ele>245</ele>
        <time>2018-07-15T10:34:50Z</time>
      </trkpt>
      <trkpt lat="43.94536" lon="1.85977">
        <ele>245</ele>
        <time>2018-07-15T10:34:51Z</time>
      </trkpt>
      <trkpt lat="43.94533" lon="1.85979">
        <ele>245</ele>
        <time>2018-07-15T10:34:52Z</time>
      </trkpt>
      <trkpt lat="43.94531" lon="1.85982">
        <ele>245</ele>
        <time>2018-07-15T10:34:53Z</time>
      </trkpt>
      <trkpt lat="43.94528" lon="1.85985">
        <ele>246</ele>
        <time>2018-07-15T10:34:54Z</time>
      </trkpt>
      <trkpt lat="43.94526" lon="1.85988">
        <ele>246</ele>
        <time>2018-07-15T10:34:55Z</time>
      </trkpt>
      <trkpt lat="43.94525" lon="1.85992">
        <ele>246</ele>
        <time>2018-07-15T10:34:56Z</time>
      </trkpt>
      <trkpt lat="43.94525" lon="1.85997">
        <ele>246</ele>
        <time>2018-07-15T10:34:57Z</time>
      </trkpt>
      <trkpt lat="43.94526" lon="1.86001">
        <ele>246</ele>
        <time>2018-07-15T10:34:58Z</time>
      </trkpt>
      <trkpt lat="43.94527" lon="1.86004">
        <ele>247</ele>
        <time>2018-07-15T10:34:59Z</time>
      </trkpt>
      <trkpt lat="43.94529" lon="1.86006">
        <ele>247</ele>
        <time>2018-07-15T10:35:00Z</time>
      </trkpt>
      <trkpt lat="43.94532" lon="1.86007">
        <ele>248</ele>
        <time>2018-07-15T10:35:01Z</time>
      </trkpt>
      <trkpt lat="43.94534" lon="1.86008">
        <ele>247</ele>
        <time>2018-07-15T10:35:02Z</time>
      </trkpt>
      <trkpt lat="43.94537" lon="1.86009">
        <ele>247</ele>
        <time>2018-07-15T10:35:03Z</time>
      </trkpt>
      <trkpt lat="43.94539" lon="1.86011">
        <ele>247</ele>
        <time>2018-07-15T10:35:04Z</time>
      </trkpt>
      <trkpt lat="43.94542" lon="1.86013">
        <ele>247</ele>
        <time>2018-07-15T10:35:05Z</time>
      </trkpt>
      <trkpt lat="43.94545" lon="1.86015">
        <ele>247</ele>
        <time>2018-07-15T10:35:06Z</time>
      </trkpt>
      <trkpt lat="43.94548" lon="1.86017">
        <ele>247</ele>
        <time>2018-07-15T10:35:07Z</time>
      </trkpt>
      <trkpt lat="43.9455" lon="1.86019">
        <ele>248</ele>
        <time>2018-07-15T10:35:08Z</time>
      </trkpt>
      <trkpt lat="43.94553" lon="1.8602">
        <ele>248</ele>
        <time>2018-07-15T10:35:09Z</time>
      </trkpt>
      <trkpt lat="43.94556" lon="1.86022">
        <ele>248</ele>
        <time>2018-07-15T10:35:10Z</time>
      </trkpt>
      <trkpt lat="43.94559" lon="1.86024">
        <ele>248</ele>
        <time>2018-07-15T10:35:11Z</time>
      </trkpt>
      <trkpt lat="43.94562" lon="1.86025">
        <ele>248</ele>
        <time>2018-07-15T10:35:12Z</time>
      </trkpt>
      <trkpt lat="43.94565" lon="1.86027">
        <ele>249</ele>
        <time>2018-07-15T10:35:13Z</time>
      </trkpt>
      <trkpt lat="43.94568" lon="1.86029">
        <ele>249</ele>
        <time>2018-07-15T10:35:14Z</time>
      </trkpt>
      <trkpt lat="43.94571" lon="1.8603">
        <ele>249</ele>
        <time>2018-07-15T10:35:15Z</time>
      </trkpt>
      <trkpt lat="43.94574" lon="1.86031">
        <ele>249</ele>
        <time>2018-07-15T10:35:16Z</time>
      </trkpt>
      <trkpt lat="43.94577" lon="1.86033">
        <ele>250</ele>
        <time>2018-07-15T10:35:17Z</time>
      </trkpt>
      <trkpt lat="43.9458" lon="1.86035">
        <ele>250</ele>
        <time>2018-07-15T10:35:18Z</time>
      </trkpt>
      <trkpt lat="43.94582" lon="1.86037">
        <ele>250</ele>
        <time>2018-07-15T10:35:19Z</time>
      </trkpt>
      <trkpt lat="43.94585" lon="1.86038">
        <ele>250</ele>
        <time>2018-07-15T10:35:20Z</time>
      </trkpt>
      <trkpt lat="43.94587" lon="1.8604">
        <ele>250</ele>
        <time>2018-07-15T10:35:21Z</time>
      </trkpt>
      <trkpt lat="43.9459" lon="1.86042">
        <ele>250</ele>
        <time>2018-07-15T10:35:22Z</time>
      </trkpt>
      <trkpt lat="43.94593" lon="1.86044">
        <ele>251</ele>
        <time>2018-07-15T10:35:23Z</time>
      </trkpt>
      <trkpt lat="43.94596" lon="1.86045">
        <ele>251</ele>
        <time>2018-07-15T10:35:24Z</time>
      </trkpt>
      <trkpt lat="43.94599" lon="1.86046">
        <ele>251</ele>
        <time>2018-07-15T10:35:25Z</time>
      </trkpt>
      <trkpt lat="43.94602" lon="1.86047">
        <ele>251</ele>
        <time>2018-07-15T10:35:26Z</time>
      </trkpt>
      <trkpt lat="43.94604" lon="1.86048">
        <ele>251</ele>
        <time>2018-07-15T10:35:27Z</time>
      </trkpt>
      <trkpt lat="43.94607" lon="1.86049">
        <ele>251</ele>
        <time>2018-07-15T10:35:28Z</time>
      </trkpt>
      <trkpt lat="43.9461" lon="1.8605">
        <ele>252</ele>
        <time>2018-07-15T10:35:29Z</time>
      </trkpt>
      <trkpt lat="43.94613" lon="1.86051">
        <ele>252</ele>
        <time>2018-07-15T10:35:30Z</time>
      </trkpt>
      <trkpt lat="43.94616" lon="1.86053">
        <ele>252</ele>
        <time>2018-07-15T10:35:31Z</time>
      </trkpt>
      <trkpt lat="43.94618" lon="1.86053">
        <ele>252</ele>
        <time>2018-07-15T10:35:32Z</time>
      </trkpt>
      <trkpt lat="43.94621" lon="1.86055">
        <ele>252</ele>
        <time>2018-07-15T10:35:33Z</time>
      </trkpt>
      <trkpt lat="43.94624" lon="1.86055">
        <ele>252</ele>
        <time>2018-07-15T10:35:34Z</time>
      </trkpt>
      <trkpt lat="43.94627" lon="1.86055">
        <ele>252</ele>
        <time>2018-07-15T10:35:35Z</time>
      </trkpt>
      <trkpt lat="43.94631" lon="1.86056">
        <ele>252</ele>
        <time>2018-07-15T10:35:36Z</time>
      </trkpt>
      <trkpt lat="43.94634" lon="1.86057">
        <ele>252</ele>
        <time>2018-07-15T10:35:37Z</time>
      </trkpt>
      <trkpt lat="43.94637" lon="1.86058">
        <ele>252</ele>
        <time>2018-07-15T10:35:38Z</time>
      </trkpt>
      <trkpt lat="43.94641" lon="1.86059">
        <ele>252</ele>
        <time>2018-07-15T10:35:39Z</time>
      </trkpt>
      <trkpt lat="43.94644" lon="1.86059">
        <ele>252</ele>
        <time>2018-07-15T10:35:40Z</time>
      </trkpt>
      <trkpt lat="43.94647" lon="1.86059">
        <ele>252</ele>
        <time>2018-07-15T10:35:41Z</time>
      </trkpt>
      <trkpt lat="43.94651" lon="1.86059">
        <ele>252</ele>
        <time>2018-07-15T10:35:42Z</time>
      </trkpt>
      <trkpt lat="43.94654" lon="1.8606">
        <ele>252</ele>
        <time>2018-07-15T10:35:43Z</time>
      </trkpt>
      <trkpt lat="43.94658" lon="1.8606">
        <ele>252</ele>
        <time>2018-07-15T10:35:44Z</time>
      </trkpt>
      <trkpt lat="43.94661" lon="1.86061">
        <ele>252</ele>
        <time>2018-07-15T10:35:45Z</time>
      </trkpt>
      <trkpt lat="43.94664" lon="1.86061">
        <ele>252</ele>
        <time>2018-07-15T10:35:46Z</time>
      </trkpt>
      <trkpt lat="43.94668" lon="1.86062">
        <ele>252</ele>
        <time>2018-07-15T10:35:47Z</time>
      </trkpt>
      <trkpt lat="43.94671" lon="1.86063">
        <ele>252</ele>
        <time>2018-07-15T10:35:48Z</time>
      </trkpt>
      <trkpt lat="43.94675" lon="1.86063">
        <ele>252</ele>
        <time>2018-07-15T10:35:49Z</time>
      </trkpt>
      <trkpt lat="43.94679" lon="1.86064">
        <ele>252</ele>
        <time>2018-07-15T10:35:50Z</time>
      </trkpt>
      <trkpt lat="43.94682" lon="1.86065">
        <ele>252</ele>
        <time>2018-07-15T10:35:51Z</time>
      </trkpt>
      <trkpt lat="43.94686" lon="1.86066">
        <ele>252</ele>
        <time>2018-07-15T10:35:52Z</time>
      </trkpt>
      <trkpt lat="43.9469" lon="1.86067">
        <ele>252</ele>
        <time>2018-07-15T10:35:53Z</time>
      </trkpt>
      <trkpt lat="43.94694" lon="1.86068">
        <ele>252</ele>
        <time>2018-07-15T10:35:54Z</time>
      </trkpt>
      <trkpt lat="43.94698" lon="1.86068">
        <ele>251</ele>
        <time>2018-07-15T10:35:55Z</time>
      </trkpt>
      <trkpt lat="43.94702" lon="1.86069">
        <ele>251</ele>
        <time>2018-07-15T10:35:56Z</time>
      </trkpt>
      <trkpt lat="43.94706" lon="1.8607">
        <ele>251</ele>
        <time>2018-07-15T10:35:57Z</time>
      </trkpt>
      <trkpt lat="43.9471" lon="1.8607">
        <ele>251</ele>
        <time>2018-07-15T10:35:58Z</time>
      </trkpt>
      <trkpt lat="43.94714" lon="1.86071">
        <ele>251</ele>
        <time>2018-07-15T10:35:59Z</time>
      </trkpt>
      <trkpt lat="43.94718" lon="1.86072">
        <ele>251</ele>
        <time>2018-07-15T10:36:00Z</time>
      </trkpt>
      <trkpt lat="43.94722" lon="1.86073">
        <ele>251</ele>
        <time>2018-07-15T10:36:01Z</time>
      </trkpt>
      <trkpt lat="43.94726" lon="1.86073">
        <ele>251</ele>
        <time>2018-07-15T10:36:02Z</time>
      </trkpt>
      <trkpt lat="43.9473" lon="1.86075">
        <ele>251</ele>
        <time>2018-07-15T10:36:03Z</time>
      </trkpt>
      <trkpt lat="43.94734" lon="1.86076">
        <ele>251</ele>
        <time>2018-07-15T10:36:04Z</time>
      </trkpt>
      <trkpt lat="43.94738" lon="1.86078">
        <ele>251</ele>
        <time>2018-07-15T10:36:05Z</time>
      </trkpt>
      <trkpt lat="43.94741" lon="1.8608">
        <ele>251</ele>
        <time>2018-07-15T10:36:06Z</time>
      </trkpt>
      <trkpt lat="43.94745" lon="1.86081">
        <ele>251</ele>
        <time>2018-07-15T10:36:07Z</time>
      </trkpt>
      <trkpt lat="43.94749" lon="1.86084">
        <ele>251</ele>
        <time>2018-07-15T10:36:08Z</time>
      </trkpt>
      <trkpt lat="43.94753" lon="1.86086">
        <ele>251</ele>
        <time>2018-07-15T10:36:09Z</time>
      </trkpt>
      <trkpt lat="43.94757" lon="1.86089">
        <ele>251</ele>
        <time>2018-07-15T10:36:10Z</time>
      </trkpt>
      <trkpt lat="43.9476" lon="1.86093">
        <ele>251</ele>
        <time>2018-07-15T10:36:11Z</time>
      </trkpt>
      <trkpt lat="43.94764" lon="1.86096">
        <ele>250</ele>
        <time>2018-07-15T10:36:12Z</time>
      </trkpt>
      <trkpt lat="43.94769" lon="1.86099">
        <ele>250</ele>
        <time>2018-07-15T10:36:13Z</time>
      </trkpt>
      <trkpt lat="43.94772" lon="1.86102">
        <ele>250</ele>
        <time>2018-07-15T10:36:14Z</time>
      </trkpt>
      <trkpt lat="43.94776" lon="1.86105">
        <ele>250</ele>
        <time>2018-07-15T10:36:15Z</time>
      </trkpt>
      <trkpt lat="43.94779" lon="1.86109">
        <ele>250</ele>
        <time>2018-07-15T10:36:16Z</time>
      </trkpt>
      <trkpt lat="43.94782" lon="1.86113">
        <ele>250</ele>
        <time>2018-07-15T10:36:17Z</time>
      </trkpt>
      <trkpt lat="43.94786" lon="1.86117">
        <ele>250</ele>
        <time>2018-07-15T10:36:18Z</time>
      </trkpt>
      <trkpt lat="43.9479" lon="1.86121">
        <ele>250</ele>
        <time>2018-07-15T10:36:19Z</time>
      </trkpt>
      <trkpt lat="43.94794" lon="1.86125">
        <ele>249</ele>
        <time>2018-07-15T10:36:20Z</time>
      </trkpt>
      <trkpt lat="43.94798" lon="1.86128">
        <ele>249</ele>
        <time>2018-07-15T10:36:21Z</time>
      </trkpt>
      <trkpt lat="43.94802" lon="1.86132">
        <ele>249</ele>
        <time>2018-07-15T10:36:22Z</time>
      </trkpt>
      <trkpt lat="43.94806" lon="1.86136">
        <ele>249</ele>
        <time>2018-07-15T10:36:23Z</time>
      </trkpt>
      <trkpt lat="43.94809" lon="1.8614">
        <ele>249</ele>
        <time>2018-07-15T10:36:24Z</time>
      </trkpt>
      <trkpt lat="43.94813" lon="1.86143">
        <ele>249</ele>
        <time>2018-07-15T10:36:25Z</time>
      </trkpt>
      <trkpt lat="43.94817" lon="1.86147">
        <ele>249</ele>
        <time>2018-07-15T10:36:26Z</time>
      </trkpt>
      <trkpt lat="43.94821" lon="1.8615">
        <ele>249</ele>
        <time>2018-07-15T10:36:27Z</time>
      </trkpt>
      <trkpt lat="43.94824" lon="1.86154">
        <ele>248</ele>
        <time>2018-07-15T10:36:28Z</time>
      </trkpt>
      <trkpt lat="43.94827" lon="1.86157">
        <ele>249</ele>
        <time>2018-07-15T10:36:29Z</time>
      </trkpt>
      <trkpt lat="43.94831" lon="1.86161">
        <ele>248</ele>
        <time>2018-07-15T10:36:30Z</time>
      </trkpt>
      <trkpt lat="43.94836" lon="1.86165">
        <ele>248</ele>
        <time>2018-07-15T10:36:31Z</time>
      </trkpt>
      <trkpt lat="43.9484" lon="1.8617">
        <ele>248</ele>
        <time>2018-07-15T10:36:32Z</time>
      </trkpt>
      <trkpt lat="43.94844" lon="1.86175">
        <ele>248</ele>
        <time>2018-07-15T10:36:33Z</time>
      </trkpt>
      <trkpt lat="43.94849" lon="1.86179">
        <ele>247</ele>
        <time>2018-07-15T10:36:34Z</time>
      </trkpt>
      <trkpt lat="43.94853" lon="1.86184">
        <ele>247</ele>
        <time>2018-07-15T10:36:35Z</time>
      </trkpt>
      <trkpt lat="43.94857" lon="1.86187">
        <ele>248</ele>
        <time>2018-07-15T10:36:36Z</time>
      </trkpt>
      <trkpt lat="43.94861" lon="1.86192">
        <ele>247</ele>
        <time>2018-07-15T10:36:37Z</time>
      </trkpt>
      <trkpt lat="43.94865" lon="1.86196">
        <ele>247</ele>
        <time>2018-07-15T10:36:38Z</time>
      </trkpt>
      <trkpt lat="43.94869" lon="1.86201">
        <ele>247</ele>
        <time>2018-07-15T10:36:39Z</time>
      </trkpt>
      <trkpt lat="43.94873" lon="1.86206">
        <ele>247</ele>
        <time>2018-07-15T10:36:40Z</time>
      </trkpt>
      <trkpt lat="43.94878" lon="1.86212">
        <ele>247</ele>
        <time>2018-07-15T10:36:41Z</time>
      </trkpt>
      <trkpt lat="43.94882" lon="1.86219">
        <ele>247</ele>
        <time>2018-07-15T10:36:42Z</time>
      </trkpt>
      <trkpt lat="43.94885" lon="1.86225">
        <ele>246</ele>
        <time>2018-07-15T10:36:43Z</time>
      </trkpt>
      <trkpt lat="43.94889" lon="1.86232">
        <ele>246</ele>
        <time>2018-07-15T10:36:44Z</time>
      </trkpt>
      <trkpt lat="43.94892" lon="1.86239">
        <ele>245</ele>
        <time>2018-07-15T10:36:45Z</time>
      </trkpt>
      <trkpt lat="43.94895" lon="1.86246">
        <ele>245</ele>
        <time>2018-07-15T10:36:46Z</time>
      </trkpt>
      <trkpt lat="43.94898" lon="1.86253">
        <ele>245</ele>
        <time>2018-07-15T10:36:47Z</time>
      </trkpt>
      <trkpt lat="43.94902" lon="1.86261">
        <ele>245</ele>
        <time>2018-07-15T10:36:48Z</time>
      </trkpt>
      <trkpt lat="43.94905" lon="1.86269">
        <ele>245</ele>
        <time>2018-07-15T10:36:49Z</time>
      </trkpt>
      <trkpt lat="43.94908" lon="1.86276">
        <ele>245</ele>
        <time>2018-07-15T10:36:50Z</time>
      </trkpt>
      <trkpt lat="43.94911" lon="1.86283">
        <ele>245</ele>
        <time>2018-07-15T10:36:51Z</time>
      </trkpt>
      <trkpt lat="43.94914" lon="1.86291">
        <ele>245</ele>
        <time>2018-07-15T10:36:52Z</time>
      </trkpt>
      <trkpt lat="43.94917" lon="1.86299">
        <ele>244</ele>
        <time>2018-07-15T10:36:53Z</time>
      </trkpt>
      <trkpt lat="43.94921" lon="1.86306">
        <ele>244</ele>
        <time>2018-07-15T10:36:54Z</time>
      </trkpt>
      <trkpt lat="43.94923" lon="1.86314">
        <ele>243</ele>
        <time>2018-07-15T10:36:55Z</time>
      </trkpt>
      <trkpt lat="43.94926" lon="1.86321">
        <ele>243</ele>
        <time>2018-07-15T10:36:56Z</time>
      </trkpt>
      <trkpt lat="43.9493" lon="1.86329">
        <ele>243</ele>
        <time>2018-07-15T10:36:57Z</time>
      </trkpt>
      <trkpt lat="43.94933" lon="1.86336">
        <ele>243</ele>
        <time>2018-07-15T10:36:58Z</time>
      </trkpt>
      <trkpt lat="43.94936" lon="1.86344">
        <ele>243</ele>
        <time>2018-07-15T10:36:59Z</time>
      </trkpt>
      <trkpt lat="43.94939" lon="1.86352">
        <ele>243</ele>
        <time>2018-07-15T10:37:00Z</time>
      </trkpt>
      <trkpt lat="43.94942" lon="1.8636">
        <ele>243</ele>
        <time>2018-07-15T10:37:01Z</time>
      </trkpt>
      <trkpt lat="43.94946" lon="1.86368">
        <ele>242</ele>
        <time>2018-07-15T10:37:02Z</time>
      </trkpt>
      <trkpt lat="43.94949" lon="1.86376">
        <ele>242</ele>
        <time>2018-07-15T10:37:03Z</time>
      </trkpt>
      <trkpt lat="43.94952" lon="1.86383">
        <ele>242</ele>
        <time>2018-07-15T10:37:04Z</time>
      </trkpt>
      <trkpt lat="43.94955" lon="1.86391">
        <ele>242</ele>
        <time>2018-07-15T10:37:05Z</time>
      </trkpt>
      <trkpt lat="43.94958" lon="1.86398">
        <ele>242</ele>
        <time>2018-07-15T10:37:06Z</time>
      </trkpt>
      <trkpt lat="43.94961" lon="1.86404">
        <ele>243</ele>
        <time>2018-07-15T10:37:07Z</time>
      </trkpt>
      <trkpt lat="43.94963" lon="1.86411">
        <ele>243</ele>
        <time>2018-07-15T10:37:08Z</time>
      </trkpt>
      <trkpt lat="43.94966" lon="1.86417">
        <ele>243</ele>
        <time>2018-07-15T10:37:09Z</time>
      </trkpt>
      <trkpt lat="43.94968" lon="1.86423">
        <ele>243</ele>
        <time>2018-07-15T10:37:10Z</time>
      </trkpt>
      <trkpt lat="43.94971" lon="1.86429">
        <ele>243</ele>
        <time>2018-07-15T10:37:11Z</time>
      </trkpt>
      <trkpt lat="43.94973" lon="1.86434">
        <ele>243</ele>
        <time>2018-07-15T10:37:12Z</time>
      </trkpt>
      <trkpt lat="43.94975" lon="1.8644">
        <ele>243</ele>
        <time>2018-07-15T10:37:13Z</time>
      </trkpt>
      <trkpt lat="43.94977" lon="1.86445">
        <ele>243</ele>
        <time>2018-07-15T10:37:14Z</time>
      </trkpt>
      <trkpt lat="43.9498" lon="1.8645">
        <ele>243</ele>
        <time>2018-07-15T10:37:15Z</time>
      </trkpt>
      <trkpt lat="43.94982" lon="1.86455">
        <ele>243</ele>
        <time>2018-07-15T10:37:16Z</time>
      </trkpt>
      <trkpt lat="43.94985" lon="1.8646">
        <ele>243</ele>
        <time>2018-07-15T10:37:17Z</time>
      </trkpt>
      <trkpt lat="43.94987" lon="1.86464">
        <ele>243</ele>
        <time>2018-07-15T10:37:18Z</time>
      </trkpt>
      <trkpt lat="43.9499" lon="1.86468">
        <ele>243</ele>
        <time>2018-07-15T10:37:19Z</time>
      </trkpt>
      <trkpt lat="43.94992" lon="1.86471">
        <ele>244</ele>
        <time>2018-07-15T10:37:20Z</time>
      </trkpt>
      <trkpt lat="43.94995" lon="1.86474">
        <ele>244</ele>
        <time>2018-07-15T10:37:21Z</time>
      </trkpt>
      <trkpt lat="43.94997" lon="1.86477">
        <ele>245</ele>
        <time>2018-07-15T10:37:22Z</time>
      </trkpt>
      <trkpt lat="43.95" lon="1.86481">
        <ele>244</ele>
        <time>2018-07-15T10:37:23Z</time>
      </trkpt>
      <trkpt lat="43.95002" lon="1.86484">
        <ele>244</ele>
        <time>2018-07-15T10:37:24Z</time>
      </trkpt>
      <trkpt lat="43.95005" lon="1.86487">
        <ele>245</ele>
        <time>2018-07-15T10:37:25Z</time>
      </trkpt>
      <trkpt lat="43.95007" lon="1.8649">
        <ele>245</ele>
        <time>2018-07-15T10:37:26Z</time>
      </trkpt>
      <trkpt lat="43.9501" lon="1.86492">
        <ele>245</ele>
        <time>2018-07-15T10:37:27Z</time>
      </trkpt>
      <trkpt lat="43.95012" lon="1.86495">
        <ele>245</ele>
        <time>2018-07-15T10:37:28Z</time>
      </trkpt>
      <trkpt lat="43.95015" lon="1.86497">
        <ele>245</ele>
        <time>2018-07-15T10:37:29Z</time>
      </trkpt>
      <trkpt lat="43.95018" lon="1.865">
        <ele>245</ele>
        <time>2018-07-15T10:37:30Z</time>
      </trkpt>
      <trkpt lat="43.95021" lon="1.86502">
        <ele>245</ele>
        <time>2018-07-15T10:37:31Z</time>
      </trkpt>
      <trkpt lat="43.95023" lon="1.86505">
        <ele>245</ele>
        <time>2018-07-15T10:37:32Z</time>
      </trkpt>
      <trkpt lat="43.95026" lon="1.86507">
        <ele>245</ele>
        <time>2018-07-15T10:37:33Z</time>
      </trkpt>
      <trkpt lat="43.95029" lon="1.86509">
        <ele>245</ele>
        <time>2018-07-15T10:37:34Z</time>
      </trkpt>
      <trkpt lat="43.95032" lon="1.86512">
        <ele>246</ele>
        <time>2018-07-15T10:37:35Z</time>
      </trkpt>
      <trkpt lat="43.95035" lon="1.86515">
        <ele>246</ele>
        <time>2018-07-15T10:37:36Z</time>
      </trkpt>
      <trkpt lat="43.95038" lon="1.86517">
        <ele>246</ele>
        <time>2018-07-15T10:37:37Z</time>
      </trkpt>
      <trkpt lat="43.95041" lon="1.86519">
        <ele>246</ele>
        <time>2018-07-15T10:37:38Z</time>
      </trkpt>
      <trkpt lat="43.95044" lon="1.86522">
        <ele>246</ele>
        <time>2018-07-15T10:37:39Z</time>
      </trkpt>
      <trkpt lat="43.95046" lon="1.86524">
        <ele>246</ele>
        <time>2018-07-15T10:37:40Z</time>
      </trkpt>
      <trkpt lat="43.95049" lon="1.86526">
        <ele>246</ele>
        <time>2018-07-15T10:37:41Z</time>
      </trkpt>
      <trkpt lat="43.95051" lon="1.86529">
        <ele>246</ele>
        <time>2018-07-15T10:37:42Z</time>
      </trkpt>
      <trkpt lat="43.95054" lon="1.86531">
        <ele>246</ele>
        <time>2018-07-15T10:37:43Z</time>
      </trkpt>
      <trkpt lat="43.95057" lon="1.86533">
        <ele>246</ele>
        <time>2018-07-15T10:37:44Z</time>
      </trkpt>
      <trkpt lat="43.9506" lon="1.86535">
        <ele>246</ele>
        <time>2018-07-15T10:37:45Z</time>
      </trkpt>
      <trkpt lat="43.95063" lon="1.86538">
        <ele>246</ele>
        <time>2018-07-15T10:37:46Z</time>
      </trkpt>
      <trkpt lat="43.95066" lon="1.86541">
        <ele>247</ele>
        <time>2018-07-15T10:37:47Z</time>
      </trkpt>
      <trkpt lat="43.95068" lon="1.86543">
        <ele>247</ele>
        <time>2018-07-15T10:37:48Z</time>
      </trkpt>
      <trkpt lat="43.95071" lon="1.86545">
        <ele>247</ele>
        <time>2018-07-15T10:37:49Z</time>
      </trkpt>
      <trkpt lat="43.95074" lon="1.86548">
        <ele>247</ele>
        <time>2018-07-15T10:37:50Z</time>
      </trkpt>
      <trkpt lat="43.95077" lon="1.8655">
        <ele>247</ele>
        <time>2018-07-15T10:37:51Z</time>
      </trkpt>
      <trkpt lat="43.95079" lon="1.86552">
        <ele>247</ele>
        <time>2018-07-15T10:37:52Z</time>
      </trkpt>
      <trkpt lat="43.95082" lon="1.86555">
        <ele>247</ele>
        <time>2018-07-15T10:37:53Z</time>
      </trkpt>
      <trkpt lat="43.95084" lon="1.86557">
        <ele>247</ele>
        <time>2018-07-15T10:37:54Z</time>
      </trkpt>
      <trkpt lat="43.95087" lon="1.8656">
        <ele>248</ele>
        <time>2018-07-15T10:37:55Z</time>
      </trkpt>
      <trkpt lat="43.95089" lon="1.86562">
        <ele>248</ele>
        <time>2018-07-15T10:37:56Z</time>
      </trkpt>
      <trkpt lat="43.95091" lon="1.86564">
        <ele>248</ele>
        <time>2018-07-15T10:37:57Z</time>
      </trkpt>
      <trkpt lat="43.95093" lon="1.86567">
        <ele>248</ele>
        <time>2018-07-15T10:37:58Z</time>
      </trkpt>
      <trkpt lat="43.95096" lon="1.8657">
        <ele>248</ele>
        <time>2018-07-15T10:37:59Z</time>
      </trkpt>
      <trkpt lat="43.95098" lon="1.86572">
        <ele>249</ele>
        <time>2018-07-15T10:38:00Z</time>
      </trkpt>
      <trkpt lat="43.951" lon="1.86575">
        <ele>249</ele>
        <time>2018-07-15T10:38:01Z</time>
      </trkpt>
      <trkpt lat="43.95102" lon="1.86577">
        <ele>249</ele>
        <time>2018-07-15T10:38:02Z</time>
      </trkpt>
      <trkpt lat="43.95104" lon="1.86579">
        <ele>249</ele>
        <time>2018-07-15T10:38:03Z</time>
      </trkpt>
      <trkpt lat="43.95105" lon="1.86582">
        <ele>249</ele>
        <time>2018-07-15T10:38:04Z</time>
      </trkpt>
      <trkpt lat="43.95107" lon="1.86584">
        <ele>250</ele>
        <time>2018-07-15T10:38:05Z</time>
      </trkpt>
      <trkpt lat="43.95109" lon="1.86586">
        <ele>250</ele>
        <time>2018-07-15T10:38:06Z</time>
      </trkpt>
      <trkpt lat="43.95111" lon="1.86589">
        <ele>250</ele>
        <time>2018-07-15T10:38:07Z</time>
      </trkpt>
      <trkpt lat="43.95113" lon="1.86592">
        <ele>251</ele>
        <time>2018-07-15T10:38:08Z</time>
      </trkpt>
      <trkpt lat="43.95116" lon="1.86594">
        <ele>251</ele>
        <time>2018-07-15T10:38:09Z</time>
      </trkpt>
      <trkpt lat="43.95117" lon="1.86596">
        <ele>251</ele>
        <time>2018-07-15T10:38:10Z</time>
      </trkpt>
      <trkpt lat="43.9512" lon="1.86598">
        <ele>251</ele>
        <time>2018-07-15T10:38:11Z</time>
      </trkpt>
      <trkpt lat="43.95122" lon="1.86601">
        <ele>252</ele>
        <time>2018-07-15T10:38:12Z</time>
      </trkpt>
      <trkpt lat="43.95124" lon="1.86603">
        <ele>252</ele>
        <time>2018-07-15T10:38:13Z</time>
      </trkpt>
      <trkpt lat="43.95125" lon="1.86606">
        <ele>252</ele>
        <time>2018-07-15T10:38:14Z</time>
      </trkpt>
      <trkpt lat="43.95127" lon="1.86609">
        <ele>253</ele>
        <time>2018-07-15T10:38:15Z</time>
      </trkpt>
      <trkpt lat="43.95129" lon="1.86612">
        <ele>253</ele>
        <time>2018-07-15T10:38:16Z</time>
      </trkpt>
      <trkpt lat="43.95131" lon="1.86615">
        <ele>253</ele>
        <time>2018-07-15T10:38:17Z</time>
      </trkpt>
      <trkpt lat="43.95133" lon="1.86618">
        <ele>253</ele>
        <time>2018-07-15T10:38:18Z</time>
      </trkpt>
      <trkpt lat="43.95135" lon="1.8662">
        <ele>253</ele>
        <time>2018-07-15T10:38:19Z</time>
      </trkpt>
      <trkpt lat="43.95137" lon="1.86623">
        <ele>254</ele>
        <time>2018-07-15T10:38:20Z</time>
      </trkpt>
      <trkpt lat="43.95138" lon="1.86626">
        <ele>254</ele>
        <time>2018-07-15T10:38:21Z</time>
      </trkpt>
      <trkpt lat="43.95141" lon="1.86628">
        <ele>254</ele>
        <time>2018-07-15T10:38:22Z</time>
      </trkpt>
      <trkpt lat="43.95142" lon="1.86632">
        <ele>255</ele>
        <time>2018-07-15T10:38:23Z</time>
      </trkpt>
      <trkpt lat="43.95144" lon="1.86634">
        <ele>255</ele>
        <time>2018-07-15T10:38:24Z</time>
      </trkpt>
      <trkpt lat="43.95146" lon="1.86637">
        <ele>255</ele>
        <time>2018-07-15T10:38:25Z</time>
      </trkpt>
      <trkpt lat="43.95148" lon="1.86639">
        <ele>255</ele>
        <time>2018-07-15T10:38:26Z</time>
      </trkpt>
      <trkpt lat="43.9515" lon="1.86642">
        <ele>256</ele>
        <time>2018-07-15T10:38:27Z</time>
      </trkpt>
      <trkpt lat="43.95152" lon="1.86645">
        <ele>256</ele>
        <time>2018-07-15T10:38:28Z</time>
      </trkpt>
      <trkpt lat="43.95154" lon="1.86648">
        <ele>256</ele>
        <time>2018-07-15T10:38:29Z</time>
      </trkpt>
      <trkpt lat="43.95156" lon="1.86651">
        <ele>256</ele>
        <time>2018-07-15T10:38:30Z</time>
      </trkpt>
      <trkpt lat="43.95158" lon="1.86654">
        <ele>257</ele>
        <time>2018-07-15T10:38:31Z</time>
      </trkpt>
      <trkpt lat="43.95159" lon="1.86658">
        <ele>257</ele>
        <time>2018-07-15T10:38:32Z</time>
      </trkpt>
      <trkpt lat="43.95161" lon="1.86661">
        <ele>257</ele>
        <time>2018-07-15T10:38:33Z</time>
      </trkpt>
      <trkpt lat="43.95163" lon="1.86664">
        <ele>257</ele>
        <time>2018-07-15T10:38:34Z</time>
      </trkpt>
      <trkpt lat="43.95164" lon="1.86667">
        <ele>257</ele>
        <time>2018-07-15T10:38:35Z</time>
      </trkpt>
      <trkpt lat="43.95165" lon="1.8667">
        <ele>257</ele>
        <time>2018-07-15T10:38:36Z</time>
      </trkpt>
      <trkpt lat="43.95167" lon="1.86673">
        <ele>258</ele>
        <time>2018-07-15T10:38:37Z</time>
      </trkpt>
      <trkpt lat="43.95169" lon="1.86675">
        <ele>258</ele>
        <time>2018-07-15T10:38:38Z</time>
      </trkpt>
      <trkpt lat="43.95171" lon="1.86678">
        <ele>258</ele>
        <time>2018-07-15T10:38:39Z</time>
      </trkpt>
      <trkpt lat="43.95173" lon="1.8668">
        <ele>258</ele>
        <time>2018-07-15T10:38:40Z</time>
      </trkpt>
      <trkpt lat="43.95174" lon="1.86684">
        <ele>257</ele>
        <time>2018-07-15T10:38:41Z</time>
      </trkpt>
      <trkpt lat="43.95175" lon="1.86687">
        <ele>257</ele>
        <time>2018-07-15T10:38:42Z</time>
      </trkpt>
      <trkpt lat="43.95177" lon="1.8669">
        <ele>257</ele>
        <time>2018-07-15T10:38:43Z</time>
      </trkpt>
      <trkpt lat="43.95179" lon="1.86693">
        <ele>258</ele>
        <time>2018-07-15T10:38:44Z</time>
      </trkpt>
      <trkpt lat="43.95181" lon="1.86695">
        <ele>258</ele>
        <time>2018-07-15T10:38:45Z</time>
      </trkpt>
      <trkpt lat="43.95183" lon="1.86698">
        <ele>258</ele>
        <time>2018-07-15T10:38:46Z</time>
      </trkpt>
      <trkpt lat="43.95185" lon="1.86701">
        <ele>258</ele>
        <time>2018-07-15T10:38:47Z</time>
      </trkpt>
      <trkpt lat="43.95187" lon="1.86704">
        <ele>258</ele>
        <time>2018-07-15T10:38:48Z</time>
      </trkpt>
      <trkpt lat="43.95188" lon="1.86707">
        <ele>258</ele>
        <time>2018-07-15T10:38:49Z</time>
      </trkpt>
      <trkpt lat="43.9519" lon="1.8671">
        <ele>258</ele>
        <time>2018-07-15T10:38:50Z</time>
      </trkpt>
      <trkpt lat="43.95192" lon="1.86714">
        <ele>258</ele>
        <time>2018-07-15T10:38:51Z</time>
      </trkpt>
      <trkpt lat="43.95194" lon="1.86717">
        <ele>258</ele>
        <time>2018-07-15T10:38:52Z</time>
      </trkpt>
      <trkpt lat="43.95196" lon="1.8672">
        <ele>258</ele>
        <time>2018-07-15T10:38:53Z</time>
      </trkpt>
      <trkpt lat="43.95198" lon="1.86723">
        <ele>258</ele>
        <time>2018-07-15T10:38:54Z</time>
      </trkpt>
      <trkpt lat="43.952" lon="1.86726">
        <ele>258</ele>
        <time>2018-07-15T10:38:55Z</time>
      </trkpt>
      <trkpt lat="43.95202" lon="1.86729">
        <ele>258</ele>
        <time>2018-07-15T10:38:56Z</time>
      </trkpt>
      <trkpt lat="43.95204" lon="1.86732">
        <ele>258</ele>
        <time>2018-07-15T10:38:57Z</time>
      </trkpt>
      <trkpt lat="43.95206" lon="1.86735">
        <ele>258</ele>
        <time>2018-07-15T10:38:58Z</time>
      </trkpt>
      <trkpt lat="43.95208" lon="1.86739">
        <ele>258</ele>
        <time>2018-07-15T10:38:59Z</time>
      </trkpt>
      <trkpt lat="43.9521" lon="1.86742">
        <ele>258</ele>
        <time>2018-07-15T10:39:00Z</time>
      </trkpt>
      <trkpt lat="43.95212" lon="1.86746">
        <ele>258</ele>
        <time>2018-07-15T10:39:01Z</time>
      </trkpt>
      <trkpt lat="43.95214" lon="1.86749">
        <ele>258</ele>
        <time>2018-07-15T10:39:02Z</time>
      </trkpt>
      <trkpt lat="43.95216" lon="1.86752">
        <ele>258</ele>
        <time>2018-07-15T10:39:03Z</time>
      </trkpt>
      <trkpt lat="43.95218" lon="1.86755">
        <ele>259</ele>
        <time>2018-07-15T10:39:04Z</time>
      </trkpt>
      <trkpt lat="43.9522" lon="1.86758">
        <ele>258</ele>
        <time>2018-07-15T10:39:05Z</time>
      </trkpt>
      <trkpt lat="43.95222" lon="1.86761">
        <ele>258</ele>
        <time>2018-07-15T10:39:06Z</time>
      </trkpt>
      <trkpt lat="43.95223" lon="1.86764">
        <ele>258</ele>
        <time>2018-07-15T10:39:07Z</time>
      </trkpt>
      <trkpt lat="43.95225" lon="1.86768">
        <ele>259</ele>
        <time>2018-07-15T10:39:08Z</time>
      </trkpt>
      <trkpt lat="43.95226" lon="1.86771">
        <ele>259</ele>
        <time>2018-07-15T10:39:09Z</time>
      </trkpt>
      <trkpt lat="43.95228" lon="1.86775">
        <ele>259</ele>
        <time>2018-07-15T10:39:10Z</time>
      </trkpt>
      <trkpt lat="43.9523" lon="1.86778">
        <ele>259</ele>
        <time>2018-07-15T10:39:11Z</time>
      </trkpt>
      <trkpt lat="43.95231" lon="1.86781">
        <ele>259</ele>
        <time>2018-07-15T10:39:12Z</time>
      </trkpt>
      <trkpt lat="43.95233" lon="1.86785">
        <ele>259</ele>
        <time>2018-07-15T10:39:13Z</time>
      </trkpt>
      <trkpt lat="43.95235" lon="1.86789">
        <ele>259</ele>
        <time>2018-07-15T10:39:14Z</time>
      </trkpt>
      <trkpt lat="43.95237" lon="1.86793">
        <ele>259</ele>
        <time>2018-07-15T10:39:15Z</time>
      </trkpt>
      <trkpt lat="43.95238" lon="1.86796">
        <ele>259</ele>
        <time>2018-07-15T10:39:16Z</time>
      </trkpt>
      <trkpt lat="43.9524" lon="1.86801">
        <ele>259</ele>
        <time>2018-07-15T10:39:17Z</time>
      </trkpt>
      <trkpt lat="43.95242" lon="1.86804">
        <ele>259</ele>
        <time>2018-07-15T10:39:18Z</time>
      </trkpt>
      <trkpt lat="43.95244" lon="1.86808">
        <ele>259</ele>
        <time>2018-07-15T10:39:19Z</time>
      </trkpt>
      <trkpt lat="43.95246" lon="1.86812">
        <ele>259</ele>
        <time>2018-07-15T10:39:20Z</time>
      </trkpt>
      <trkpt lat="43.95247" lon="1.86815">
        <ele>259</ele>
        <time>2018-07-15T10:39:21Z</time>
      </trkpt>
      <trkpt lat="43.95249" lon="1.86819">
        <ele>259</ele>
        <time>2018-07-15T10:39:22Z</time>
      </trkpt>
      <trkpt lat="43.95251" lon="1.86823">
        <ele>259</ele>
        <time>2018-07-15T10:39:23Z</time>
      </trkpt>
      <trkpt lat="43.95253" lon="1.86826">
        <ele>259</ele>
        <time>2018-07-15T10:39:24Z</time>
      </trkpt>
      <trkpt lat="43.95254" lon="1.8683">
        <ele>259</ele>
        <time>2018-07-15T10:39:25Z</time>
      </trkpt>
      <trkpt lat="43.95256" lon="1.86834">
        <ele>259</ele>
        <time>2018-07-15T10:39:26Z</time>
      </trkpt>
      <trkpt lat="43.95257" lon="1.86837">
        <ele>259</ele>
        <time>2018-07-15T10:39:27Z</time>
      </trkpt>
      <trkpt lat="43.95259" lon="1.8684">
        <ele>259</ele>
        <time>2018-07-15T10:39:28Z</time>
      </trkpt>
      <trkpt lat="43.95261" lon="1.86843">
        <ele>259</ele>
        <time>2018-07-15T10:39:29Z</time>
      </trkpt>
      <trkpt lat="43.95263" lon="1.86847">
        <ele>260</ele>
        <time>2018-07-15T10:39:30Z</time>
      </trkpt>
      <trkpt lat="43.95265" lon="1.8685">
        <ele>260</ele>
        <time>2018-07-15T10:39:31Z</time>
      </trkpt>
      <trkpt lat="43.95267" lon="1.86853">
        <ele>260</ele>
        <time>2018-07-15T10:39:32Z</time>
      </trkpt>
      <trkpt lat="43.95269" lon="1.86856">
        <ele>260</ele>
        <time>2018-07-15T10:39:33Z</time>
      </trkpt>
      <trkpt lat="43.95271" lon="1.8686">
        <ele>260</ele>
        <time>2018-07-15T10:39:34Z</time>
      </trkpt>
      <trkpt lat="43.95273" lon="1.86863">
        <ele>260</ele>
        <time>2018-07-15T10:39:35Z</time>
      </trkpt>
      <trkpt lat="43.95274" lon="1.86867">
        <ele>260</ele>
        <time>2018-07-15T10:39:36Z</time>
      </trkpt>
      <trkpt lat="43.95277" lon="1.8687">
        <ele>260</ele>
        <time>2018-07-15T10:39:37Z</time>
      </trkpt>
      <trkpt lat="43.95279" lon="1.86874">
        <ele>260</ele>
        <time>2018-07-15T10:39:38Z</time>
      </trkpt>
      <trkpt lat="43.95281" lon="1.86877">
        <ele>260</ele>
        <time>2018-07-15T10:39:39Z</time>
      </trkpt>
      <trkpt lat="43.95283" lon="1.8688">
        <ele>260</ele>
        <time>2018-07-15T10:39:40Z</time>
      </trkpt>
      <trkpt lat="43.95285" lon="1.86883">
        <ele>260</ele>
        <time>2018-07-15T10:39:41Z</time>
      </trkpt>
      <trkpt lat="43.95287" lon="1.86887">
        <ele>260</ele>
        <time>2018-07-15T10:39:42Z</time>
      </trkpt>
      <trkpt lat="43.95289" lon="1.8689">
        <ele>260</ele>
        <time>2018-07-15T10:39:43Z</time>
      </trkpt>
      <trkpt lat="43.9529" lon="1.86892">
        <ele>260</ele>
        <time>2018-07-15T10:39:44Z</time>
      </trkpt>
      <trkpt lat="43.95292" lon="1.86894">
        <ele>260</ele>
        <time>2018-07-15T10:39:45Z</time>
      </trkpt>
      <trkpt lat="43.95294" lon="1.86897">
        <ele>260</ele>
        <time>2018-07-15T10:39:46Z</time>
      </trkpt>
      <trkpt lat="43.95297" lon="1.86899">
        <ele>260</ele>
        <time>2018-07-15T10:39:47Z</time>
      </trkpt>
      <trkpt lat="43.95299" lon="1.86902">
        <ele>260</ele>
        <time>2018-07-15T10:39:48Z</time>
      </trkpt>
      <trkpt lat="43.95302" lon="1.86903">
        <ele>260</ele>
        <time>2018-07-15T10:39:49Z</time>
      </trkpt>
      <trkpt lat="43.95304" lon="1.86902">
        <ele>261</ele>
        <time>2018-07-15T10:39:50Z</time>
      </trkpt>
      <trkpt lat="43.95305" lon="1.869">
        <ele>261</ele>
        <time>2018-07-15T10:39:51Z</time>
      </trkpt>
      <trkpt lat="43.95306" lon="1.86898">
        <ele>261</ele>
        <time>2018-07-15T10:39:52Z</time>
      </trkpt>
      <trkpt lat="43.95308" lon="1.86897">
        <ele>261</ele>
        <time>2018-07-15T10:39:53Z</time>
      </trkpt>
      <trkpt lat="43.95308" lon="1.86895">
        <ele>261</ele>
        <time>2018-07-15T10:39:54Z</time>
      </trkpt>
      <trkpt lat="43.95309" lon="1.86892">
        <ele>261</ele>
        <time>2018-07-15T10:39:55Z</time>
      </trkpt>
      <trkpt lat="43.95309" lon="1.86891">
        <ele>261</ele>
        <time>2018-07-15T10:39:56Z</time>
      </trkpt>
      <trkpt lat="43.9531" lon="1.86888">
        <ele>261</ele>
        <time>2018-07-15T10:39:57Z</time>
      </trkpt>
      <trkpt lat="43.95311" lon="1.86885">
        <ele>261</ele>
        <time>2018-07-15T10:39:58Z</time>
      </trkpt>
      <trkpt lat="43.95312" lon="1.86882">
        <ele>261</ele>
        <time>2018-07-15T10:39:59Z</time>
      </trkpt>
      <trkpt lat="43.95315" lon="1.8688">
        <ele>261</ele>
        <time>2018-07-15T10:40:00Z</time>
      </trkpt>
      <trkpt lat="43.95317" lon="1.86876">
        <ele>261</ele>
        <time>2018-07-15T10:40:01Z</time>
      </trkpt>
      <trkpt lat="43.95319" lon="1.86872">
        <ele>260</ele>
        <time>2018-07-15T10:40:02Z</time>
      </trkpt>
      <trkpt lat="43.95321" lon="1.86868">
        <ele>260</ele>
        <time>2018-07-15T10:40:03Z</time>
      </trkpt>
      <trkpt lat="43.95323" lon="1.86865">
        <ele>260</ele>
        <time>2018-07-15T10:40:04Z</time>
      </trkpt>
      <trkpt lat="43.95324" lon="1.86863">
        <ele>260</ele>
        <time>2018-07-15T10:40:05Z</time>
      </trkpt>
      <trkpt lat="43.95326" lon="1.86862">
        <ele>260</ele>
        <time>2018-07-15T10:40:06Z</time>
      </trkpt>
      <trkpt lat="43.95326" lon="1.8686">
        <ele>260</ele>
        <time>2018-07-15T10:40:07Z</time>
      </trkpt>
      <trkpt lat="43.95325" lon="1.8686">
        <ele>260</ele>
        <time>2018-07-15T10:40:08Z</time>
      </trkpt>
      <trkpt lat="43.95326" lon="1.86859">
        <ele>260</ele>
        <time>2018-07-15T10:40:09Z</time>
      </trkpt>
      <trkpt lat="43.95326" lon="1.86858">
        <ele>260</ele>
        <time>2018-07-15T10:40:10Z</time>
      </trkpt>
      <trkpt lat="43.95327" lon="1.86856">
        <ele>260</ele>
        <time>2018-07-15T10:40:12Z</time>
      </trkpt>
      <trkpt lat="43.95327" lon="1.86856">
        <ele>260</ele>
        <time>2018-07-15T10:40:13Z</time>
      </trkpt>
    </trkseg>
  </trk>
</gpx>